<?xml version="1.0" encoding="UTF-8" standalone="no" ?>
<gpx xmlns="http://www.topografix.com/GPX/1/1" creator="MapSource 6.16.3" version="1.1" xmlns:xsi="http://www.w3.org/2001/XMLSchema-instance" xsi:schemaLocation="http://www.topografix.com/GPX/1/1 http://www.topografix.com/GPX/1/1/gpx.xsd">

  <metadata>
    <link href="http://www.garmin.com">
      <text>Garmin International</text>
    </link>
    <time>2016-01-13T07:45:41Z</time>
    <bounds maxlat="50.933679006993771" maxlon="16.151318550109863" minlat="50.30721296556294" minlon="12.149412995204329"/>
  </metadata>

  <wpt lat="50.348110198974609" lon="16.151318550109863">
    <time>2010-03-05T13:36:24Z</time>
    <name>Hotel 3</name>
    <cmt>Hotel Metuj</cmt>
    <desc>Hotel Metuj</desc>
    <sym>Lodging</sym>
    <extensions>
      <gpxx:WaypointExtension xmlns:gpxx="http://www.garmin.com/xmlschemas/GpxExtensions/v3">
        <gpxx:DisplayMode>SymbolAndName</gpxx:DisplayMode>
      </gpxx:WaypointExtension>
    </extensions>
  </wpt>

  <wpt lat="50.762372016906738" lon="15.634617805480957">
    <time>2012-06-17T13:10:06Z</time>
    <name>Spindlerova Bouda</name>
    <cmt>Spindlerova Bouda</cmt>
    <desc>Spindlerova Bouda</desc>
    <sym>Lodging</sym>
    <extensions>
      <gpxx:WaypointExtension xmlns:gpxx="http://www.garmin.com/xmlschemas/GpxExtensions/v3">
        <gpxx:DisplayMode>SymbolAndName</gpxx:DisplayMode>
        <gpxx:Address>
          <gpxx:City>Spindleruv Mlyn</gpxx:City>
          <gpxx:State>Trutnov</gpxx:State>
          <gpxx:Country>CZE</gpxx:Country>
          <gpxx:PostalCode>543 51</gpxx:PostalCode>
        </gpxx:Address>
        <gpxx:PhoneNumber>499 429 176</gpxx:PhoneNumber>
      </gpxx:WaypointExtension>
    </extensions>
  </wpt>

  <wpt lat="50.776405334472656" lon="15.037579536437988">
    <time>2016-01-13T07:29:57Z</time>
    <name>Valdstejn</name>
    <cmt>Valdstejn</cmt>
    <desc>Valdstejn</desc>
    <sym>Lodging</sym>
    <extensions>
      <gpxx:WaypointExtension xmlns:gpxx="http://www.garmin.com/xmlschemas/GpxExtensions/v3">
        <gpxx:DisplayMode>SymbolAndName</gpxx:DisplayMode>
        <gpxx:Address>
          <gpxx:StreetAddress>LETNA 73</gpxx:StreetAddress>
          <gpxx:City>Liberec</gpxx:City>
          <gpxx:State>Liberec</gpxx:State>
          <gpxx:Country>CZE</gpxx:Country>
          <gpxx:PostalCode>460 01</gpxx:PostalCode>
        </gpxx:Address>
        <gpxx:PhoneNumber>482 710 486</gpxx:PhoneNumber>
      </gpxx:WaypointExtension>
    </extensions>
  </wpt>

  <trk>
    <name>Track vom: 04 SEP 2013 10:57</name>
    <trkseg>
      <trkpt lat="50.413214033469558" lon="12.149412995204329">
        <ele>397.63999999999999</ele>
        <time>2013-09-04T08:57:43Z</time>
      </trkpt>
      <trkpt lat="50.413861032575369" lon="12.149806022644043">
        <ele>392.36000000000001</ele>
        <time>2013-09-04T08:57:48Z</time>
      </trkpt>
      <trkpt lat="50.41397200897336" lon="12.149912975728512">
        <ele>390.91000000000003</ele>
        <time>2013-09-04T08:57:49Z</time>
      </trkpt>
      <trkpt lat="50.414061024785042" lon="12.150028981268406">
        <ele>390.43000000000001</ele>
        <time>2013-09-04T08:57:50Z</time>
      </trkpt>
      <trkpt lat="50.414136964827776" lon="12.150160996243358">
        <ele>389.47000000000003</ele>
        <time>2013-09-04T08:57:51Z</time>
      </trkpt>
      <trkpt lat="50.41420703753829" lon="12.150283958762884">
        <ele>388.99000000000001</ele>
        <time>2013-09-04T08:57:52Z</time>
      </trkpt>
      <trkpt lat="50.414297981187701" lon="12.150473976507783">
        <ele>388.50999999999999</ele>
        <time>2013-09-04T08:57:54Z</time>
      </trkpt>
      <trkpt lat="50.414309967309237" lon="12.150541031733155">
        <ele>388.50999999999999</ele>
        <time>2013-09-04T08:57:55Z</time>
      </trkpt>
      <trkpt lat="50.414290018379688" lon="12.150628035888076">
        <ele>388.99000000000001</ele>
        <time>2013-09-04T08:57:56Z</time>
      </trkpt>
      <trkpt lat="50.414255987852812" lon="12.150729037821293">
        <ele>388.99000000000001</ele>
        <time>2013-09-04T08:57:57Z</time>
      </trkpt>
      <trkpt lat="50.414206031709909" lon="12.150840014219284">
        <ele>388.50999999999999</ele>
        <time>2013-09-04T08:57:58Z</time>
      </trkpt>
      <trkpt lat="50.414131013676524" lon="12.150968005880713">
        <ele>388.99000000000001</ele>
        <time>2013-09-04T08:57:59Z</time>
      </trkpt>
      <trkpt lat="50.413977960124612" lon="12.151292972266674">
        <ele>389.47000000000003</ele>
        <time>2013-09-04T08:58:01Z</time>
      </trkpt>
      <trkpt lat="50.413915012031794" lon="12.151491036638618">
        <ele>388.99000000000001</ele>
        <time>2013-09-04T08:58:02Z</time>
      </trkpt>
      <trkpt lat="50.413860026746988" lon="12.151705026626587">
        <ele>388.50999999999999</ele>
        <time>2013-09-04T08:58:03Z</time>
      </trkpt>
      <trkpt lat="50.413816021755338" lon="12.151926979422569">
        <ele>388.50999999999999</ele>
        <time>2013-09-04T08:58:04Z</time>
      </trkpt>
      <trkpt lat="50.413787020370364" lon="12.152153039351106">
        <ele>388.50999999999999</ele>
        <time>2013-09-04T08:58:05Z</time>
      </trkpt>
      <trkpt lat="50.413767993450165" lon="12.152382032945752">
        <ele>388.02999999999997</ele>
        <time>2013-09-04T08:58:06Z</time>
      </trkpt>
      <trkpt lat="50.413761036470532" lon="12.152613960206509">
        <ele>386.58999999999997</ele>
        <time>2013-09-04T08:58:07Z</time>
      </trkpt>
      <trkpt lat="50.413776962086558" lon="12.154801972210407">
        <ele>384.18000000000001</ele>
        <time>2013-09-04T08:58:16Z</time>
      </trkpt>
      <trkpt lat="50.413662968203425" lon="12.155761029571295">
        <ele>382.74000000000001</ele>
        <time>2013-09-04T08:58:20Z</time>
      </trkpt>
      <trkpt lat="50.413075983524323" lon="12.157586021348834">
        <ele>380.81999999999999</ele>
        <time>2013-09-04T08:58:29Z</time>
      </trkpt>
      <trkpt lat="50.412582959979773" lon="12.159756012260914">
        <ele>378.42000000000002</ele>
        <time>2013-09-04T08:58:41Z</time>
      </trkpt>
      <trkpt lat="50.412284983322024" lon="12.16157203540206">
        <ele>382.74000000000001</ele>
        <time>2013-09-04T08:58:53Z</time>
      </trkpt>
      <trkpt lat="50.412160009145737" lon="12.162991007789969">
        <ele>387.06999999999999</ele>
        <time>2013-09-04T08:59:01Z</time>
      </trkpt>
      <trkpt lat="50.412178030237556" lon="12.163172978907824">
        <ele>387.06999999999999</ele>
        <time>2013-09-04T08:59:02Z</time>
      </trkpt>
      <trkpt lat="50.412217006087303" lon="12.163338018581271">
        <ele>388.02999999999997</ele>
        <time>2013-09-04T08:59:03Z</time>
      </trkpt>
      <trkpt lat="50.412269979715347" lon="12.163484031334519">
        <ele>387.55000000000001</ele>
        <time>2013-09-04T08:59:04Z</time>
      </trkpt>
      <trkpt lat="50.412336029112339" lon="12.163619985803962">
        <ele>388.02999999999997</ele>
        <time>2013-09-04T08:59:05Z</time>
      </trkpt>
      <trkpt lat="50.412416998296976" lon="12.163750994950533">
        <ele>388.99000000000001</ele>
        <time>2013-09-04T08:59:06Z</time>
      </trkpt>
      <trkpt lat="50.412505008280277" lon="12.163885021582246">
        <ele>389.47000000000003</ele>
        <time>2013-09-04T08:59:07Z</time>
      </trkpt>
      <trkpt lat="50.413572024554014" lon="12.165638012811542">
        <ele>385.14999999999998</ele>
        <time>2013-09-04T08:59:18Z</time>
      </trkpt>
      <trkpt lat="50.413979971781373" lon="12.166640991345048">
        <ele>383.69999999999999</ele>
        <time>2013-09-04T08:59:23Z</time>
      </trkpt>
      <trkpt lat="50.414039986208081" lon="12.166861016303301">
        <ele>383.69999999999999</ele>
        <time>2013-09-04T08:59:24Z</time>
      </trkpt>
      <trkpt lat="50.414075022563338" lon="12.167057991027832">
        <ele>383.69999999999999</ele>
        <time>2013-09-04T08:59:25Z</time>
      </trkpt>
      <trkpt lat="50.41407804004848" lon="12.16722303070128">
        <ele>383.69999999999999</ele>
        <time>2013-09-04T08:59:26Z</time>
      </trkpt>
      <trkpt lat="50.414083991199732" lon="12.167368037626147">
        <ele>383.69999999999999</ele>
        <time>2013-09-04T08:59:27Z</time>
      </trkpt>
      <trkpt lat="50.414073010906577" lon="12.167875980958343">
        <ele>383.69999999999999</ele>
        <time>2013-09-04T08:59:33Z</time>
      </trkpt>
      <trkpt lat="50.413892967626452" lon="12.168911984190345">
        <ele>384.66000000000003</ele>
        <time>2013-09-04T08:59:40Z</time>
      </trkpt>
      <trkpt lat="50.41322099044919" lon="12.170656006783247">
        <ele>383.69999999999999</ele>
        <time>2013-09-04T08:59:50Z</time>
      </trkpt>
      <trkpt lat="50.413113031536341" lon="12.171007040888071">
        <ele>384.18000000000001</ele>
        <time>2013-09-04T08:59:52Z</time>
      </trkpt>
      <trkpt lat="50.4130719602108" lon="12.171193035319448">
        <ele>384.66000000000003</ele>
        <time>2013-09-04T08:59:53Z</time>
      </trkpt>
      <trkpt lat="50.413041030988097" lon="12.171382969245315">
        <ele>384.66000000000003</ele>
        <time>2013-09-04T08:59:54Z</time>
      </trkpt>
      <trkpt lat="50.412744982168078" lon="12.17341298237443">
        <ele>387.06999999999999</ele>
        <time>2013-09-04T09:00:04Z</time>
      </trkpt>
      <trkpt lat="50.412687985226512" lon="12.173609035089612">
        <ele>387.06999999999999</ele>
        <time>2013-09-04T09:00:05Z</time>
      </trkpt>
      <trkpt lat="50.412541972473264" lon="12.173977000638843">
        <ele>388.02999999999997</ele>
        <time>2013-09-04T09:00:07Z</time>
      </trkpt>
      <trkpt lat="50.412142993882298" lon="12.174598015844822">
        <ele>387.55000000000001</ele>
        <time>2013-09-04T09:00:11Z</time>
      </trkpt>
      <trkpt lat="50.411370014771819" lon="12.175519019365311">
        <ele>390.91000000000003</ele>
        <time>2013-09-04T09:00:18Z</time>
      </trkpt>
      <trkpt lat="50.410655038431287" lon="12.177435960620642">
        <ele>396.68000000000001</ele>
        <time>2013-09-04T09:00:28Z</time>
      </trkpt>
      <trkpt lat="50.409894967451692" lon="12.178966999053955">
        <ele>396.68000000000001</ele>
        <time>2013-09-04T09:00:37Z</time>
      </trkpt>
      <trkpt lat="50.409784996882081" lon="12.179089961573482">
        <ele>396.19999999999999</ele>
        <time>2013-09-04T09:00:38Z</time>
      </trkpt>
      <trkpt lat="50.409664968028665" lon="12.179180989041924">
        <ele>395.72000000000003</ele>
        <time>2013-09-04T09:00:39Z</time>
      </trkpt>
      <trkpt lat="50.408209031447768" lon="12.180360993370414">
        <ele>394.27999999999997</ele>
        <time>2013-09-04T09:00:51Z</time>
      </trkpt>
      <trkpt lat="50.40694696828723" lon="12.181794969365001">
        <ele>396.19999999999999</ele>
        <time>2013-09-04T09:01:03Z</time>
      </trkpt>
      <trkpt lat="50.406609009951353" lon="12.182101998478174">
        <ele>395.24000000000001</ele>
        <time>2013-09-04T09:01:06Z</time>
      </trkpt>
      <trkpt lat="50.40647498331964" lon="12.18215698376298">
        <ele>395.24000000000001</ele>
        <time>2013-09-04T09:01:07Z</time>
      </trkpt>
      <trkpt lat="50.406342968344688" lon="12.182180033996701">
        <ele>394.75999999999999</ele>
        <time>2013-09-04T09:01:08Z</time>
      </trkpt>
      <trkpt lat="50.404963977634907" lon="12.182324035093188">
        <ele>389.94999999999999</ele>
        <time>2013-09-04T09:01:19Z</time>
      </trkpt>
      <trkpt lat="50.403369991108775" lon="12.182048019021749">
        <ele>390.91000000000003</ele>
        <time>2013-09-04T09:01:31Z</time>
      </trkpt>
      <trkpt lat="50.402985010296106" lon="12.182078026235104">
        <ele>391.38999999999999</ele>
        <time>2013-09-04T09:01:34Z</time>
      </trkpt>
      <trkpt lat="50.402540015056729" lon="12.182239964604378">
        <ele>391.38999999999999</ele>
        <time>2013-09-04T09:01:38Z</time>
      </trkpt>
      <trkpt lat="50.402443036437035" lon="12.182360999286175">
        <ele>390.91000000000003</ele>
        <time>2013-09-04T09:01:39Z</time>
      </trkpt>
      <trkpt lat="50.402360977604985" lon="12.182492008432746">
        <ele>391.38999999999999</ele>
        <time>2013-09-04T09:01:40Z</time>
      </trkpt>
      <trkpt lat="50.402284031733871" lon="12.182625029236078">
        <ele>391.38999999999999</ele>
        <time>2013-09-04T09:01:41Z</time>
      </trkpt>
      <trkpt lat="50.402208007872105" lon="12.182751009240746">
        <ele>390.91000000000003</ele>
        <time>2013-09-04T09:01:42Z</time>
      </trkpt>
      <trkpt lat="50.401739962399006" lon="12.184243993833661">
        <ele>386.11000000000001</ele>
        <time>2013-09-04T09:01:50Z</time>
      </trkpt>
      <trkpt lat="50.401546005159616" lon="12.184651019051671">
        <ele>386.58999999999997</ele>
        <time>2013-09-04T09:01:53Z</time>
      </trkpt>
      <trkpt lat="50.401480961591005" lon="12.184754032641649">
        <ele>386.58999999999997</ele>
        <time>2013-09-04T09:01:54Z</time>
      </trkpt>
      <trkpt lat="50.401420025154948" lon="12.184829972684383">
        <ele>386.58999999999997</ele>
        <time>2013-09-04T09:01:55Z</time>
      </trkpt>
      <trkpt lat="50.401381971314549" lon="12.184924017637968">
        <ele>387.55000000000001</ele>
        <time>2013-09-04T09:01:56Z</time>
      </trkpt>
      <trkpt lat="50.401374008506536" lon="12.185038011521101">
        <ele>388.02999999999997</ele>
        <time>2013-09-04T09:01:57Z</time>
      </trkpt>
      <trkpt lat="50.401390017941594" lon="12.185163991525769">
        <ele>388.02999999999997</ele>
        <time>2013-09-04T09:01:58Z</time>
      </trkpt>
      <trkpt lat="50.401408039033413" lon="12.185307992622256">
        <ele>388.50999999999999</ele>
        <time>2013-09-04T09:01:59Z</time>
      </trkpt>
      <trkpt lat="50.401423964649439" lon="12.185650980100036">
        <ele>388.99000000000001</ele>
        <time>2013-09-04T09:02:01Z</time>
      </trkpt>
      <trkpt lat="50.401356993243098" lon="12.188073014840484">
        <ele>391.87</ele>
        <time>2013-09-04T09:02:13Z</time>
      </trkpt>
      <trkpt lat="50.401504011824727" lon="12.190262032672763">
        <ele>395.72000000000003</ele>
        <time>2013-09-04T09:02:24Z</time>
      </trkpt>
      <trkpt lat="50.401664022356272" lon="12.192784985527396">
        <ele>397.16000000000003</ele>
        <time>2013-09-04T09:02:36Z</time>
      </trkpt>
      <trkpt lat="50.401470987126231" lon="12.194750038906932">
        <ele>399.07999999999998</ele>
        <time>2013-09-04T09:02:42Z</time>
      </trkpt>
      <trkpt lat="50.401319023221731" lon="12.195977987721562">
        <ele>401.00999999999999</ele>
        <time>2013-09-04T09:02:46Z</time>
      </trkpt>
      <trkpt lat="50.401229001581669" lon="12.196242017671466">
        <ele>402.44999999999999</ele>
        <time>2013-09-04T09:02:47Z</time>
      </trkpt>
      <trkpt lat="50.401111990213394" lon="12.196474028751254">
        <ele>403.41000000000003</ele>
        <time>2013-09-04T09:02:48Z</time>
      </trkpt>
      <trkpt lat="50.40097301825881" lon="12.196639990434051">
        <ele>403.88999999999999</ele>
        <time>2013-09-04T09:02:49Z</time>
      </trkpt>
      <trkpt lat="50.400824993848801" lon="12.196779968217015">
        <ele>404.85000000000002</ele>
        <time>2013-09-04T09:02:50Z</time>
      </trkpt>
      <trkpt lat="50.400668000802398" lon="12.196895973756909">
        <ele>406.29000000000002</ele>
        <time>2013-09-04T09:02:51Z</time>
      </trkpt>
      <trkpt lat="50.39859096519649" lon="12.198461964726448">
        <ele>413.5</ele>
        <time>2013-09-04T09:03:03Z</time>
      </trkpt>
      <trkpt lat="50.396921038627625" lon="12.199508026242256">
        <ele>413.01999999999998</ele>
        <time>2013-09-04T09:03:11Z</time>
      </trkpt>
      <trkpt lat="50.39637696929276" lon="12.200128035619855">
        <ele>414.94999999999999</ele>
        <time>2013-09-04T09:03:14Z</time>
      </trkpt>
      <trkpt lat="50.396222993731499" lon="12.200390975922346">
        <ele>415.43000000000001</ele>
        <time>2013-09-04T09:03:15Z</time>
      </trkpt>
      <trkpt lat="50.39609600789845" lon="12.200669003650546">
        <ele>415.91000000000003</ele>
        <time>2013-09-04T09:03:16Z</time>
      </trkpt>
      <trkpt lat="50.395975979045033" lon="12.200960023328662">
        <ele>417.35000000000002</ele>
        <time>2013-09-04T09:03:17Z</time>
      </trkpt>
      <trkpt lat="50.395886963233352" lon="12.201263029128313">
        <ele>416.87</ele>
        <time>2013-09-04T09:03:18Z</time>
      </trkpt>
      <trkpt lat="50.395805994048715" lon="12.201577015221119">
        <ele>417.35000000000002</ele>
        <time>2013-09-04T09:03:19Z</time>
      </trkpt>
      <trkpt lat="50.395541964098811" lon="12.202759031206369">
        <ele>417.35000000000002</ele>
        <time>2013-09-04T09:03:23Z</time>
      </trkpt>
      <trkpt lat="50.395504999905825" lon="12.203080980107188">
        <ele>417.35000000000002</ele>
        <time>2013-09-04T09:03:24Z</time>
      </trkpt>
      <trkpt lat="50.395491002127528" lon="12.203432014212012">
        <ele>417.35000000000002</ele>
        <time>2013-09-04T09:03:25Z</time>
      </trkpt>
      <trkpt lat="50.395325962454081" lon="12.206323016434908">
        <ele>416.38999999999999</ele>
        <time>2013-09-04T09:03:33Z</time>
      </trkpt>
      <trkpt lat="50.395462000742555" lon="12.208460988476872">
        <ele>417.82999999999998</ele>
        <time>2013-09-04T09:03:39Z</time>
      </trkpt>
      <trkpt lat="50.39596801623702" lon="12.21036703325808">
        <ele>421.19</ele>
        <time>2013-09-04T09:03:45Z</time>
      </trkpt>
      <trkpt lat="50.396302035078406" lon="12.211122997105122">
        <ele>422.63999999999999</ele>
        <time>2013-09-04T09:03:48Z</time>
      </trkpt>
      <trkpt lat="50.396533962339163" lon="12.211533961817622">
        <ele>424.07999999999998</ele>
        <time>2013-09-04T09:03:50Z</time>
      </trkpt>
      <trkpt lat="50.396645022556186" lon="12.211701013147831">
        <ele>424.56</ele>
        <time>2013-09-04T09:03:51Z</time>
      </trkpt>
      <trkpt lat="50.396776031702757" lon="12.21182799898088">
        <ele>425.04000000000002</ele>
        <time>2013-09-04T09:03:52Z</time>
      </trkpt>
      <trkpt lat="50.39693403057754" lon="12.211917014792562">
        <ele>426</ele>
        <time>2013-09-04T09:03:53Z</time>
      </trkpt>
      <trkpt lat="50.397100998088717" lon="12.211993038654327">
        <ele>426.48000000000002</ele>
        <time>2013-09-04T09:03:54Z</time>
      </trkpt>
      <trkpt lat="50.397279029712081" lon="12.212057998403907">
        <ele>426.95999999999998</ele>
        <time>2013-09-04T09:03:55Z</time>
      </trkpt>
      <trkpt lat="50.398734966292977" lon="12.212654035538435">
        <ele>432.73000000000002</ele>
        <time>2013-09-04T09:04:04Z</time>
      </trkpt>
      <trkpt lat="50.399192031472921" lon="12.213033987209201">
        <ele>434.64999999999998</ele>
        <time>2013-09-04T09:04:07Z</time>
      </trkpt>
      <trkpt lat="50.399317005649209" lon="12.21322501078248">
        <ele>435.13</ele>
        <time>2013-09-04T09:04:08Z</time>
      </trkpt>
      <trkpt lat="50.399418007582426" lon="12.213433971628547">
        <ele>435.61000000000001</ele>
        <time>2013-09-04T09:04:09Z</time>
      </trkpt>
      <trkpt lat="50.399506017565727" lon="12.2136539965868">
        <ele>436.10000000000002</ele>
        <time>2013-09-04T09:04:10Z</time>
      </trkpt>
      <trkpt lat="50.399594027549028" lon="12.213880978524685">
        <ele>437.06</ele>
        <time>2013-09-04T09:04:11Z</time>
      </trkpt>
      <trkpt lat="50.40000599808991" lon="12.214951012283564">
        <ele>438.98000000000002</ele>
        <time>2013-09-04T09:04:16Z</time>
      </trkpt>
      <trkpt lat="50.400126026943326" lon="12.215113034471869">
        <ele>439.94</ele>
        <time>2013-09-04T09:04:17Z</time>
      </trkpt>
      <trkpt lat="50.400312021374702" lon="12.215249994769692">
        <ele>440.42000000000002</ele>
        <time>2013-09-04T09:04:18Z</time>
      </trkpt>
      <trkpt lat="50.401624040678144" lon="12.216020040214062">
        <ele>447.14999999999998</ele>
        <time>2013-09-04T09:04:24Z</time>
      </trkpt>
      <trkpt lat="50.401819003745914" lon="12.216196982190013">
        <ele>448.11000000000001</ele>
        <time>2013-09-04T09:04:25Z</time>
      </trkpt>
      <trkpt lat="50.402836985886097" lon="12.217386960983276">
        <ele>452.92000000000002</ele>
        <time>2013-09-04T09:04:31Z</time>
      </trkpt>
      <trkpt lat="50.403794031590223" lon="12.219484029337764">
        <ele>457.24000000000001</ele>
        <time>2013-09-04T09:04:39Z</time>
      </trkpt>
      <trkpt lat="50.404526023194194" lon="12.222056016325951">
        <ele>460.61000000000001</ele>
        <time>2013-09-04T09:04:47Z</time>
      </trkpt>
      <trkpt lat="50.404889965429902" lon="12.225003009662032">
        <ele>463.97000000000003</ele>
        <time>2013-09-04T09:04:56Z</time>
      </trkpt>
      <trkpt lat="50.404865993186831" lon="12.225280031561852">
        <ele>465.42000000000002</ele>
        <time>2013-09-04T09:04:57Z</time>
      </trkpt>
      <trkpt lat="50.404671030119061" lon="12.226413013413548">
        <ele>467.81999999999999</ele>
        <time>2013-09-04T09:05:02Z</time>
      </trkpt>
      <trkpt lat="50.404667006805539" lon="12.226633038371801">
        <ele>467.81999999999999</ele>
        <time>2013-09-04T09:05:03Z</time>
      </trkpt>
      <trkpt lat="50.404687039554119" lon="12.226853985339403">
        <ele>468.30000000000001</ele>
        <time>2013-09-04T09:05:04Z</time>
      </trkpt>
      <trkpt lat="50.404728027060628" lon="12.227064035832882">
        <ele>468.30000000000001</ele>
        <time>2013-09-04T09:05:05Z</time>
      </trkpt>
      <trkpt lat="50.404773037880659" lon="12.227270985022187">
        <ele>468.30000000000001</ele>
        <time>2013-09-04T09:05:06Z</time>
      </trkpt>
      <trkpt lat="50.405029021203518" lon="12.228675959631801">
        <ele>470.22000000000003</ele>
        <time>2013-09-04T09:05:13Z</time>
      </trkpt>
      <trkpt lat="50.40503497235477" lon="12.228872012346983">
        <ele>470.22000000000003</ele>
        <time>2013-09-04T09:05:14Z</time>
      </trkpt>
      <trkpt lat="50.405032960698009" lon="12.229086002334952">
        <ele>469.74000000000001</ele>
        <time>2013-09-04T09:05:15Z</time>
      </trkpt>
      <trkpt lat="50.405022986233234" lon="12.229292029514909">
        <ele>469.25999999999999</ele>
        <time>2013-09-04T09:05:16Z</time>
      </trkpt>
      <trkpt lat="50.405004965141416" lon="12.229495039209723">
        <ele>469.25999999999999</ele>
        <time>2013-09-04T09:05:17Z</time>
      </trkpt>
      <trkpt lat="50.404975963756442" lon="12.229702994227409">
        <ele>469.25999999999999</ele>
        <time>2013-09-04T09:05:18Z</time>
      </trkpt>
      <trkpt lat="50.404937993735075" lon="12.229914972558618">
        <ele>468.77999999999997</ele>
        <time>2013-09-04T09:05:19Z</time>
      </trkpt>
      <trkpt lat="50.404892982915044" lon="12.230120999738574">
        <ele>468.77999999999997</ele>
        <time>2013-09-04T09:05:20Z</time>
      </trkpt>
      <trkpt lat="50.404640017077327" lon="12.231772989034653">
        <ele>469.74000000000001</ele>
        <time>2013-09-04T09:05:28Z</time>
      </trkpt>
      <trkpt lat="50.404590982943773" lon="12.231962000951171">
        <ele>470.22000000000003</ele>
        <time>2013-09-04T09:05:29Z</time>
      </trkpt>
      <trkpt lat="50.404525017365813" lon="12.232143972069025">
        <ele>470.22000000000003</ele>
        <time>2013-09-04T09:05:30Z</time>
      </trkpt>
      <trkpt lat="50.404083961620927" lon="12.233909033238888">
        <ele>472.63</ele>
        <time>2013-09-04T09:05:39Z</time>
      </trkpt>
      <trkpt lat="50.403907019644976" lon="12.234975965693593">
        <ele>477.91000000000003</ele>
        <time>2013-09-04T09:05:44Z</time>
      </trkpt>
      <trkpt lat="50.403847005218267" lon="12.235161038115621">
        <ele>479.35000000000002</ele>
        <time>2013-09-04T09:05:45Z</time>
      </trkpt>
      <trkpt lat="50.403777016326785" lon="12.235359018668532">
        <ele>480.31999999999999</ele>
        <time>2013-09-04T09:05:46Z</time>
      </trkpt>
      <trkpt lat="50.403690012171865" lon="12.235521962866187">
        <ele>481.27999999999997</ele>
        <time>2013-09-04T09:05:47Z</time>
      </trkpt>
      <trkpt lat="50.403591021895409" lon="12.235668981447816">
        <ele>481.75999999999999</ele>
        <time>2013-09-04T09:05:48Z</time>
      </trkpt>
      <trkpt lat="50.403485996648669" lon="12.235804013907909">
        <ele>482.72000000000003</ele>
        <time>2013-09-04T09:05:49Z</time>
      </trkpt>
      <trkpt lat="50.40337803773582" lon="12.23595698364079">
        <ele>482.72000000000003</ele>
        <time>2013-09-04T09:05:50Z</time>
      </trkpt>
      <trkpt lat="50.403279969468713" lon="12.236129986122251">
        <ele>483.68000000000001</ele>
        <time>2013-09-04T09:05:51Z</time>
      </trkpt>
      <trkpt lat="50.403197994455695" lon="12.236340036615729">
        <ele>485.12</ele>
        <time>2013-09-04T09:05:52Z</time>
      </trkpt>
      <trkpt lat="50.403128005564213" lon="12.236584033817053">
        <ele>486.07999999999998</ele>
        <time>2013-09-04T09:05:53Z</time>
      </trkpt>
      <trkpt lat="50.403073020279408" lon="12.236848985776305">
        <ele>486.07999999999998</ele>
        <time>2013-09-04T09:05:54Z</time>
      </trkpt>
      <trkpt lat="50.403033038601279" lon="12.237142017111182">
        <ele>486.07999999999998</ele>
        <time>2013-09-04T09:05:55Z</time>
      </trkpt>
      <trkpt lat="50.4029939789325" lon="12.237448962405324">
        <ele>487.05000000000001</ele>
        <time>2013-09-04T09:05:56Z</time>
      </trkpt>
      <trkpt lat="50.402976963669062" lon="12.237765965983272">
        <ele>487.52999999999997</ele>
        <time>2013-09-04T09:05:57Z</time>
      </trkpt>
      <trkpt lat="50.402990039438009" lon="12.239637980237603">
        <ele>488.49000000000001</ele>
        <time>2013-09-04T09:06:03Z</time>
      </trkpt>
      <trkpt lat="50.402963971719146" lon="12.2399109788239">
        <ele>488.49000000000001</ele>
        <time>2013-09-04T09:06:04Z</time>
      </trkpt>
      <trkpt lat="50.402737995609641" lon="12.241716021671891">
        <ele>488.97000000000003</ele>
        <time>2013-09-04T09:06:12Z</time>
      </trkpt>
      <trkpt lat="50.402819970622659" lon="12.243039021268487">
        <ele>494.25999999999999</ele>
        <time>2013-09-04T09:06:18Z</time>
      </trkpt>
      <trkpt lat="50.402875039726496" lon="12.243260974064469">
        <ele>495.22000000000003</ele>
        <time>2013-09-04T09:06:19Z</time>
      </trkpt>
      <trkpt lat="50.403493959456682" lon="12.245615031570196">
        <ele>502.91000000000003</ele>
        <time>2013-09-04T09:06:29Z</time>
      </trkpt>
      <trkpt lat="50.403712978586555" lon="12.248424980789423">
        <ele>512.03999999999996</ele>
        <time>2013-09-04T09:06:37Z</time>
      </trkpt>
      <trkpt lat="50.403880029916763" lon="12.253191014751792">
        <ele>523.58000000000004</ele>
        <time>2013-09-04T09:06:50Z</time>
      </trkpt>
      <trkpt lat="50.403786990791559" lon="12.257107961922884">
        <ele>526.46000000000004</ele>
        <time>2013-09-04T09:07:00Z</time>
      </trkpt>
      <trkpt lat="50.403642989695072" lon="12.261627987027168">
        <ele>529.34000000000003</ele>
        <time>2013-09-04T09:07:12Z</time>
      </trkpt>
      <trkpt lat="50.403505023568869" lon="12.266832981258631">
        <ele>537.02999999999997</ele>
        <time>2013-09-04T09:07:26Z</time>
      </trkpt>
      <trkpt lat="50.40331601165235" lon="12.274274015799165">
        <ele>557.22000000000003</ele>
        <time>2013-09-04T09:07:46Z</time>
      </trkpt>
      <trkpt lat="50.403201011940837" lon="12.27836798876524">
        <ele>566.83000000000004</ele>
        <time>2013-09-04T09:07:58Z</time>
      </trkpt>
      <trkpt lat="50.403056005015969" lon="12.281008036807179">
        <ele>571.63999999999999</ele>
        <time>2013-09-04T09:08:09Z</time>
      </trkpt>
      <trkpt lat="50.402663983404636" lon="12.285254979506135">
        <ele>581.25</ele>
        <time>2013-09-04T09:08:28Z</time>
      </trkpt>
      <trkpt lat="50.402334993705153" lon="12.287489008158445">
        <ele>593.26999999999998</ele>
        <time>2013-09-04T09:08:36Z</time>
      </trkpt>
      <trkpt lat="50.401408961042762" lon="12.291766963899136">
        <ele>612.01999999999998</ele>
        <time>2013-09-04T09:08:49Z</time>
      </trkpt>
      <trkpt lat="50.400676969438791" lon="12.295498000457883">
        <ele>616.82000000000005</ele>
        <time>2013-09-04T09:09:00Z</time>
      </trkpt>
      <trkpt lat="50.400593988597393" lon="12.297366997227073">
        <ele>620.19000000000005</ele>
        <time>2013-09-04T09:09:06Z</time>
      </trkpt>
      <trkpt lat="50.40075802244246" lon="12.299670008942485">
        <ele>612.5</ele>
        <time>2013-09-04T09:09:15Z</time>
      </trkpt>
      <trkpt lat="50.401133028790355" lon="12.301879981532693">
        <ele>605.76999999999998</ele>
        <time>2013-09-04T09:09:22Z</time>
      </trkpt>
      <trkpt lat="50.401727976277471" lon="12.30537498369813">
        <ele>613.46000000000004</ele>
        <time>2013-09-04T09:09:32Z</time>
      </trkpt>
      <trkpt lat="50.402372041717172" lon="12.3096729721874">
        <ele>634.13</ele>
        <time>2013-09-04T09:09:45Z</time>
      </trkpt>
      <trkpt lat="50.40273598395288" lon="12.311853021383286">
        <ele>643.25999999999999</ele>
        <time>2013-09-04T09:09:52Z</time>
      </trkpt>
      <trkpt lat="50.403007976710796" lon="12.314125020056963">
        <ele>653.35000000000002</ele>
        <time>2013-09-04T09:09:59Z</time>
      </trkpt>
      <trkpt lat="50.402915021404624" lon="12.316175987944007">
        <ele>664.40999999999997</ele>
        <time>2013-09-04T09:10:06Z</time>
      </trkpt>
      <trkpt lat="50.402460973709822" lon="12.318157972767949">
        <ele>676.41999999999996</ele>
        <time>2013-09-04T09:10:14Z</time>
      </trkpt>
      <trkpt lat="50.401558997109532" lon="12.320457966998219">
        <ele>683.63</ele>
        <time>2013-09-04T09:10:25Z</time>
      </trkpt>
      <trkpt lat="50.40026499889791" lon="12.32258596457541">
        <ele>687.48000000000002</ele>
        <time>2013-09-04T09:10:37Z</time>
      </trkpt>
      <trkpt lat="50.398959014564753" lon="12.324573984369636">
        <ele>694.69000000000005</ele>
        <time>2013-09-04T09:10:47Z</time>
      </trkpt>
      <trkpt lat="50.397151038050652" lon="12.327335989102721">
        <ele>702.38</ele>
        <time>2013-09-04T09:11:01Z</time>
      </trkpt>
      <trkpt lat="50.396015960723162" lon="12.32907498255372">
        <ele>712.47000000000003</ele>
        <time>2013-09-04T09:11:11Z</time>
      </trkpt>
      <trkpt lat="50.394909968599677" lon="12.330891005694866">
        <ele>724.49000000000001</ele>
        <time>2013-09-04T09:11:23Z</time>
      </trkpt>
      <trkpt lat="50.394774014130235" lon="12.331110024824739">
        <ele>725.92999999999995</ele>
        <time>2013-09-04T09:11:25Z</time>
      </trkpt>
      <trkpt lat="50.3947430010885" lon="12.331245979294181">
        <ele>726.40999999999997</ele>
        <time>2013-09-04T09:11:26Z</time>
      </trkpt>
      <trkpt lat="50.394750041887164" lon="12.33139299787581">
        <ele>726.40999999999997</ele>
        <time>2013-09-04T09:11:27Z</time>
      </trkpt>
      <trkpt lat="50.394779965281487" lon="12.3315420281142">
        <ele>726.40999999999997</ele>
        <time>2013-09-04T09:11:28Z</time>
      </trkpt>
      <trkpt lat="50.394834028556943" lon="12.331679994240403">
        <ele>726.40999999999997</ele>
        <time>2013-09-04T09:11:29Z</time>
      </trkpt>
      <trkpt lat="50.39489203132689" lon="12.331821983680129">
        <ele>725.92999999999995</ele>
        <time>2013-09-04T09:11:30Z</time>
      </trkpt>
      <trkpt lat="50.395703986287117" lon="12.333989040926099">
        <ele>725.45000000000005</ele>
        <time>2013-09-04T09:11:43Z</time>
      </trkpt>
      <trkpt lat="50.396579978987575" lon="12.336396994069219">
        <ele>726.88999999999999</ele>
        <time>2013-09-04T09:11:57Z</time>
      </trkpt>
      <trkpt lat="50.396858006715775" lon="12.337314980104566">
        <ele>730.25999999999999</ele>
        <time>2013-09-04T09:12:03Z</time>
      </trkpt>
      <trkpt lat="50.396810984238982" lon="12.337443977594376">
        <ele>730.25999999999999</ele>
        <time>2013-09-04T09:12:04Z</time>
      </trkpt>
      <trkpt lat="50.396738983690739" lon="12.337555037811399">
        <ele>731.22000000000003</ele>
        <time>2013-09-04T09:12:05Z</time>
      </trkpt>
      <trkpt lat="50.396645022556186" lon="12.337641958147287">
        <ele>731.70000000000005</ele>
        <time>2013-09-04T09:12:06Z</time>
      </trkpt>
      <trkpt lat="50.39654603227973" lon="12.33773197978735">
        <ele>732.17999999999995</ele>
        <time>2013-09-04T09:12:07Z</time>
      </trkpt>
      <trkpt lat="50.395573982968926" lon="12.338442010805011">
        <ele>736.99000000000001</ele>
        <time>2013-09-04T09:12:16Z</time>
      </trkpt>
      <trkpt lat="50.395503994077444" lon="12.33857000246644">
        <ele>737.47000000000003</ele>
        <time>2013-09-04T09:12:17Z</time>
      </trkpt>
      <trkpt lat="50.395440040156245" lon="12.338712997734547">
        <ele>737.47000000000003</ele>
        <time>2013-09-04T09:12:18Z</time>
      </trkpt>
      <trkpt lat="50.394754987210035" lon="12.340548969805241">
        <ele>747.08000000000004</ele>
        <time>2013-09-04T09:12:29Z</time>
      </trkpt>
      <trkpt lat="50.394224999472499" lon="12.341892002150416">
        <ele>754.28999999999996</ele>
        <time>2013-09-04T09:12:38Z</time>
      </trkpt>
      <trkpt lat="50.394235979765654" lon="12.341976994648576">
        <ele>754.28999999999996</ele>
        <time>2013-09-04T09:12:39Z</time>
      </trkpt>
      <trkpt lat="50.39429297670722" lon="12.342030974105">
        <ele>754.28999999999996</ele>
        <time>2013-09-04T09:12:40Z</time>
      </trkpt>
      <trkpt lat="50.394370006397367" lon="12.342062992975116">
        <ele>754.28999999999996</ele>
        <time>2013-09-04T09:12:41Z</time>
      </trkpt>
      <trkpt lat="50.394467990845442" lon="12.342085959389806">
        <ele>753.80999999999995</ele>
        <time>2013-09-04T09:12:42Z</time>
      </trkpt>
      <trkpt lat="50.394567986950278" lon="12.342108003795147">
        <ele>753.33000000000004</ele>
        <time>2013-09-04T09:12:43Z</time>
      </trkpt>
      <trkpt lat="50.395128987729549" lon="12.342319982126355">
        <ele>752.37</ele>
        <time>2013-09-04T09:12:48Z</time>
      </trkpt>
      <trkpt lat="50.39525899104774" lon="12.342404974624515">
        <ele>753.33000000000004</ele>
        <time>2013-09-04T09:12:49Z</time>
      </trkpt>
      <trkpt lat="50.395373990759254" lon="12.342506982386112">
        <ele>753.33000000000004</ele>
        <time>2013-09-04T09:12:50Z</time>
      </trkpt>
      <trkpt lat="50.395819991827011" lon="12.342937979847193">
        <ele>755.25</ele>
        <time>2013-09-04T09:12:54Z</time>
      </trkpt>
      <trkpt lat="50.395917976275086" lon="12.343037975952029">
        <ele>755.25</ele>
        <time>2013-09-04T09:12:55Z</time>
      </trkpt>
      <trkpt lat="50.396625995635986" lon="12.343306029215455">
        <ele>749.49000000000001</ele>
        <time>2013-09-04T09:13:02Z</time>
      </trkpt>
      <trkpt lat="50.39687099866569" lon="12.343400996178389">
        <ele>749.49000000000001</ele>
        <time>2013-09-04T09:13:05Z</time>
      </trkpt>
      <trkpt lat="50.397161012515426" lon="12.34359503723681">
        <ele>749.97000000000003</ele>
        <time>2013-09-04T09:13:08Z</time>
      </trkpt>
      <trkpt lat="50.398146975785494" lon="12.344083031639457">
        <ele>746.60000000000002</ele>
        <time>2013-09-04T09:13:16Z</time>
      </trkpt>
      <trkpt lat="50.398270022124052" lon="12.344101974740624">
        <ele>745.15999999999997</ele>
        <time>2013-09-04T09:13:17Z</time>
      </trkpt>
      <trkpt lat="50.398476971313357" lon="12.344166012480855">
        <ele>744.20000000000005</ele>
        <time>2013-09-04T09:13:19Z</time>
      </trkpt>
      <trkpt lat="50.39854503236711" lon="12.344256034120917">
        <ele>743.72000000000003</ele>
        <time>2013-09-04T09:13:20Z</time>
      </trkpt>
      <trkpt lat="50.398678975179791" lon="12.344433981925249">
        <ele>743.24000000000001</ele>
        <time>2013-09-04T09:13:22Z</time>
      </trkpt>
      <trkpt lat="50.398776959627867" lon="12.344476981088519">
        <ele>743.24000000000001</ele>
        <time>2013-09-04T09:13:23Z</time>
      </trkpt>
      <trkpt lat="50.399009976536036" lon="12.344601033255458">
        <ele>744.20000000000005</ele>
        <time>2013-09-04T09:13:25Z</time>
      </trkpt>
      <trkpt lat="50.399120030924678" lon="12.344719972461462">
        <ele>745.63999999999999</ele>
        <time>2013-09-04T09:13:26Z</time>
      </trkpt>
      <trkpt lat="50.399218015372753" lon="12.344875037670135">
        <ele>746.12</ele>
        <time>2013-09-04T09:13:27Z</time>
      </trkpt>
      <trkpt lat="50.399740962311625" lon="12.346251010894775">
        <ele>751.88999999999999</ele>
        <time>2013-09-04T09:13:33Z</time>
      </trkpt>
      <trkpt lat="50.399808017536998" lon="12.346543036401272">
        <ele>753.80999999999995</ele>
        <time>2013-09-04T09:13:34Z</time>
      </trkpt>
      <trkpt lat="50.399849005043507" lon="12.346857022494078">
        <ele>755.73000000000002</ele>
        <time>2013-09-04T09:13:35Z</time>
      </trkpt>
      <trkpt lat="50.399883035570383" lon="12.347178971394897">
        <ele>756.69000000000005</ele>
        <time>2013-09-04T09:13:36Z</time>
      </trkpt>
      <trkpt lat="50.399902984499931" lon="12.347507039085031">
        <ele>758.13999999999999</ele>
        <time>2013-09-04T09:13:37Z</time>
      </trkpt>
      <trkpt lat="50.399910025298595" lon="12.347844997420907">
        <ele>759.58000000000004</ele>
        <time>2013-09-04T09:13:38Z</time>
      </trkpt>
      <trkpt lat="50.399906001985073" lon="12.348186979070306">
        <ele>761.01999999999998</ele>
        <time>2013-09-04T09:13:39Z</time>
      </trkpt>
      <trkpt lat="50.399847999215126" lon="12.351208990439773">
        <ele>767.26999999999998</ele>
        <time>2013-09-04T09:13:48Z</time>
      </trkpt>
      <trkpt lat="50.39989803917706" lon="12.351480983197689">
        <ele>767.75</ele>
        <time>2013-09-04T09:13:49Z</time>
      </trkpt>
      <trkpt lat="50.400534979999065" lon="12.353337993845344">
        <ele>768.71000000000004</ele>
        <time>2013-09-04T09:13:56Z</time>
      </trkpt>
      <trkpt lat="50.400718040764332" lon="12.354145003482699">
        <ele>765.83000000000004</ele>
        <time>2013-09-04T09:13:59Z</time>
      </trkpt>
      <trkpt lat="50.400817031040788" lon="12.354368967935443">
        <ele>765.35000000000002</ele>
        <time>2013-09-04T09:14:00Z</time>
      </trkpt>
      <trkpt lat="50.400948040187359" lon="12.354563008993864">
        <ele>764.87</ele>
        <time>2013-09-04T09:14:01Z</time>
      </trkpt>
      <trkpt lat="50.401094974949956" lon="12.354729976505041">
        <ele>765.35000000000002</ele>
        <time>2013-09-04T09:14:02Z</time>
      </trkpt>
      <trkpt lat="50.401258002966642" lon="12.354895016178489">
        <ele>765.83000000000004</ele>
        <time>2013-09-04T09:14:03Z</time>
      </trkpt>
      <trkpt lat="50.401808023452759" lon="12.355304975062609">
        <ele>767.75</ele>
        <time>2013-09-04T09:14:06Z</time>
      </trkpt>
      <trkpt lat="50.402014972642064" lon="12.355386028066278">
        <ele>768.23000000000002</ele>
        <time>2013-09-04T09:14:07Z</time>
      </trkpt>
      <trkpt lat="50.402646968141198" lon="12.355536986142397">
        <ele>770.14999999999998</ele>
        <time>2013-09-04T09:14:10Z</time>
      </trkpt>
      <trkpt lat="50.40284302085638" lon="12.3555229883641">
        <ele>770.63</ele>
        <time>2013-09-04T09:14:11Z</time>
      </trkpt>
      <trkpt lat="50.403033960610628" lon="12.355471020564437">
        <ele>771.60000000000002</ele>
        <time>2013-09-04T09:14:12Z</time>
      </trkpt>
      <trkpt lat="50.403427993878722" lon="12.355402959510684">
        <ele>773.03999999999996</ele>
        <time>2013-09-04T09:14:14Z</time>
      </trkpt>
      <trkpt lat="50.403643995523453" lon="12.355422992259264">
        <ele>773.51999999999998</ele>
        <time>2013-09-04T09:14:15Z</time>
      </trkpt>
      <trkpt lat="50.403849016875029" lon="12.355474038049579">
        <ele>774.48000000000002</ele>
        <time>2013-09-04T09:14:16Z</time>
      </trkpt>
      <trkpt lat="50.404054960235953" lon="12.355575961992145">
        <ele>774.96000000000004</ele>
        <time>2013-09-04T09:14:17Z</time>
      </trkpt>
      <trkpt lat="50.404252018779516" lon="12.3556939791888">
        <ele>775.91999999999996</ele>
        <time>2013-09-04T09:14:18Z</time>
      </trkpt>
      <trkpt lat="50.404440024867654" lon="12.355829011648893">
        <ele>776.39999999999998</ele>
        <time>2013-09-04T09:14:19Z</time>
      </trkpt>
      <trkpt lat="50.404643034562469" lon="12.356006037443876">
        <ele>777.36000000000001</ele>
        <time>2013-09-04T09:14:20Z</time>
      </trkpt>
      <trkpt lat="50.40481997653842" lon="12.356214998289943">
        <ele>778.32000000000005</ele>
        <time>2013-09-04T09:14:21Z</time>
      </trkpt>
      <trkpt lat="50.405896967276931" lon="12.358072008937597">
        <ele>781.69000000000005</ele>
        <time>2013-09-04T09:14:28Z</time>
      </trkpt>
      <trkpt lat="50.406715963035822" lon="12.359909992665052">
        <ele>779.76999999999998</ele>
        <time>2013-09-04T09:14:34Z</time>
      </trkpt>
      <trkpt lat="50.408047009259462" lon="12.362047964707017">
        <ele>785.52999999999997</ele>
        <time>2013-09-04T09:14:42Z</time>
      </trkpt>
      <trkpt lat="50.409607971087098" lon="12.365029994398355">
        <ele>783.13</ele>
        <time>2013-09-04T09:14:52Z</time>
      </trkpt>
      <trkpt lat="50.411078995093703" lon="12.368066003546119">
        <ele>780.25</ele>
        <time>2013-09-04T09:15:02Z</time>
      </trkpt>
      <trkpt lat="50.412009973078966" lon="12.369767026975751">
        <ele>778.80999999999995</ele>
        <time>2013-09-04T09:15:09Z</time>
      </trkpt>
      <trkpt lat="50.41277096606791" lon="12.371177030727267">
        <ele>774.48000000000002</ele>
        <time>2013-09-04T09:15:14Z</time>
      </trkpt>
      <trkpt lat="50.413803029805422" lon="12.373302010819316">
        <ele>768.23000000000002</ele>
        <time>2013-09-04T09:15:21Z</time>
      </trkpt>
      <trkpt lat="50.414776001125574" lon="12.375090038403869">
        <ele>762.94000000000005</ele>
        <time>2013-09-04T09:15:28Z</time>
      </trkpt>
      <trkpt lat="50.414868034422398" lon="12.375339986756444">
        <ele>761.98000000000002</ele>
        <time>2013-09-04T09:15:29Z</time>
      </trkpt>
      <trkpt lat="50.415082024410367" lon="12.376496018841863">
        <ele>760.05999999999995</ele>
        <time>2013-09-04T09:15:33Z</time>
      </trkpt>
      <trkpt lat="50.414964007213712" lon="12.376836994662881">
        <ele>759.10000000000002</ele>
        <time>2013-09-04T09:15:34Z</time>
      </trkpt>
      <trkpt lat="50.413961028680205" lon="12.380684958770871">
        <ele>749.49000000000001</ele>
        <time>2013-09-04T09:15:45Z</time>
      </trkpt>
      <trkpt lat="50.412998031824827" lon="12.384875994175673">
        <ele>733.62</ele>
        <time>2013-09-04T09:15:57Z</time>
      </trkpt>
      <trkpt lat="50.412256987765431" lon="12.389110028743744">
        <ele>730.25999999999999</ele>
        <time>2013-09-04T09:16:09Z</time>
      </trkpt>
      <trkpt lat="50.412263022735715" lon="12.389412028715014">
        <ele>730.25999999999999</ele>
        <time>2013-09-04T09:16:10Z</time>
      </trkpt>
      <trkpt lat="50.412542978301644" lon="12.391714034602046">
        <ele>731.22000000000003</ele>
        <time>2013-09-04T09:16:18Z</time>
      </trkpt>
      <trkpt lat="50.412966012954712" lon="12.394073959439993">
        <ele>730.74000000000001</ele>
        <time>2013-09-04T09:16:25Z</time>
      </trkpt>
      <trkpt lat="50.41352198459208" lon="12.39582703448832">
        <ele>726.88999999999999</ele>
        <time>2013-09-04T09:16:31Z</time>
      </trkpt>
      <trkpt lat="50.413721976801753" lon="12.396274041384459">
        <ele>725.45000000000005</ele>
        <time>2013-09-04T09:16:33Z</time>
      </trkpt>
      <trkpt lat="50.413790959864855" lon="12.396502029150724">
        <ele>724.49000000000001</ele>
        <time>2013-09-04T09:16:34Z</time>
      </trkpt>
      <trkpt lat="50.414428990334272" lon="12.398462975397706">
        <ele>714.88</ele>
        <time>2013-09-04T09:16:44Z</time>
      </trkpt>
      <trkpt lat="50.414768038317561" lon="12.399078039452434">
        <ele>711.02999999999997</ele>
        <time>2013-09-04T09:16:48Z</time>
      </trkpt>
      <trkpt lat="50.414865016937256" lon="12.399194967001677">
        <ele>709.59000000000003</ele>
        <time>2013-09-04T09:16:49Z</time>
      </trkpt>
      <trkpt lat="50.414970964193344" lon="12.399293035268784">
        <ele>708.63</ele>
        <time>2013-09-04T09:16:50Z</time>
      </trkpt>
      <trkpt lat="50.415085041895509" lon="12.399353971704841">
        <ele>708.14999999999998</ele>
        <time>2013-09-04T09:16:51Z</time>
      </trkpt>
      <trkpt lat="50.415200963616371" lon="12.399386996403337">
        <ele>707.66999999999996</ele>
        <time>2013-09-04T09:16:52Z</time>
      </trkpt>
      <trkpt lat="50.415324009954929" lon="12.399399988353252">
        <ele>706.71000000000004</ele>
        <time>2013-09-04T09:16:53Z</time>
      </trkpt>
      <trkpt lat="50.415452001616359" lon="12.399409040808678">
        <ele>705.75</ele>
        <time>2013-09-04T09:16:54Z</time>
      </trkpt>
      <trkpt lat="50.415589967742562" lon="12.399431001394987">
        <ele>705.75</ele>
        <time>2013-09-04T09:16:55Z</time>
      </trkpt>
      <trkpt lat="50.415701027959585" lon="12.399476012215018">
        <ele>705.75</ele>
        <time>2013-09-04T09:16:56Z</time>
      </trkpt>
      <trkpt lat="50.415815021842718" lon="12.399541977792978">
        <ele>705.25999999999999</ele>
        <time>2013-09-04T09:16:57Z</time>
      </trkpt>
      <trkpt lat="50.415898002684116" lon="12.399639962241054">
        <ele>703.82000000000005</ele>
        <time>2013-09-04T09:16:58Z</time>
      </trkpt>
      <trkpt lat="50.415963968262076" lon="12.399770971387625">
        <ele>702.86000000000001</ele>
        <time>2013-09-04T09:16:59Z</time>
      </trkpt>
      <trkpt lat="50.416023982688785" lon="12.399916984140873">
        <ele>701.89999999999998</ele>
        <time>2013-09-04T09:17:00Z</time>
      </trkpt>
      <trkpt lat="50.416610967367887" lon="12.401334028691053">
        <ele>691.80999999999995</ele>
        <time>2013-09-04T09:17:11Z</time>
      </trkpt>
      <trkpt lat="50.416677016764879" lon="12.401453973725438">
        <ele>690.36000000000001</ele>
        <time>2013-09-04T09:17:17Z</time>
      </trkpt>
      <trkpt lat="50.416955966502428" lon="12.401965018361807">
        <ele>687.96000000000004</ele>
        <time>2013-09-04T09:17:22Z</time>
      </trkpt>
      <trkpt lat="50.41775400750339" lon="12.403439981862903">
        <ele>688.44000000000005</ele>
        <time>2013-09-04T09:17:30Z</time>
      </trkpt>
      <trkpt lat="50.418642992153764" lon="12.405059030279517">
        <ele>693.25</ele>
        <time>2013-09-04T09:17:39Z</time>
      </trkpt>
      <trkpt lat="50.419330978766084" lon="12.406550003215671">
        <ele>700.94000000000005</ele>
        <time>2013-09-04T09:17:47Z</time>
      </trkpt>
      <trkpt lat="50.419452013447881" lon="12.406727029010653">
        <ele>701.41999999999996</ele>
        <time>2013-09-04T09:17:48Z</time>
      </trkpt>
      <trkpt lat="50.419587967917323" lon="12.406887961551547">
        <ele>702.86000000000001</ele>
        <time>2013-09-04T09:17:49Z</time>
      </trkpt>
      <trkpt lat="50.420808037742972" lon="12.408248009160161">
        <ele>711.02999999999997</ele>
        <time>2013-09-04T09:17:57Z</time>
      </trkpt>
      <trkpt lat="50.422470001503825" lon="12.410254972055554">
        <ele>720.64999999999998</ele>
        <time>2013-09-04T09:18:07Z</time>
      </trkpt>
      <trkpt lat="50.4238769877702" lon="12.411803025752306">
        <ele>719.20000000000005</ele>
        <time>2013-09-04T09:18:15Z</time>
      </trkpt>
      <trkpt lat="50.42508096434176" lon="12.412925027310848">
        <ele>713.44000000000005</ele>
        <time>2013-09-04T09:18:22Z</time>
      </trkpt>
      <trkpt lat="50.425242986530066" lon="12.413017982617021">
        <ele>713.44000000000005</ele>
        <time>2013-09-04T09:18:23Z</time>
      </trkpt>
      <trkpt lat="50.426511000841856" lon="12.413303973153234">
        <ele>704.77999999999997</ele>
        <time>2013-09-04T09:18:30Z</time>
      </trkpt>
      <trkpt lat="50.426706969738007" lon="12.413287963718176">
        <ele>703.82000000000005</ele>
        <time>2013-09-04T09:18:31Z</time>
      </trkpt>
      <trkpt lat="50.426896987482905" lon="12.413240019232035">
        <ele>703.34000000000003</ele>
        <time>2013-09-04T09:18:32Z</time>
      </trkpt>
      <trkpt lat="50.42707996442914" lon="12.413151003420353">
        <ele>702.38</ele>
        <time>2013-09-04T09:18:33Z</time>
      </trkpt>
      <trkpt lat="50.427256990224123" lon="12.413039021193981">
        <ele>700.94000000000005</ele>
        <time>2013-09-04T09:18:34Z</time>
      </trkpt>
      <trkpt lat="50.427434016019106" lon="12.412912035360932">
        <ele>700.46000000000004</ele>
        <time>2013-09-04T09:18:35Z</time>
      </trkpt>
      <trkpt lat="50.428857011720538" lon="12.412225976586342">
        <ele>695.16999999999996</ele>
        <time>2013-09-04T09:18:43Z</time>
      </trkpt>
      <trkpt lat="50.429018028080463" lon="12.412217007949948">
        <ele>694.69000000000005</ele>
        <time>2013-09-04T09:18:44Z</time>
      </trkpt>
      <trkpt lat="50.429562013596296" lon="12.412335025146604">
        <ele>694.21000000000004</ele>
        <time>2013-09-04T09:18:48Z</time>
      </trkpt>
      <trkpt lat="50.430080015212297" lon="12.412596959620714">
        <ele>694.21000000000004</ele>
        <time>2013-09-04T09:18:52Z</time>
      </trkpt>
      <trkpt lat="50.430198032408953" lon="12.412689998745918">
        <ele>693.73000000000002</ele>
        <time>2013-09-04T09:18:53Z</time>
      </trkpt>
      <trkpt lat="50.430297022685409" lon="12.412800975143909">
        <ele>693.25</ele>
        <time>2013-09-04T09:18:54Z</time>
      </trkpt>
      <trkpt lat="50.430390983819962" lon="12.412941036745906">
        <ele>692.76999999999998</ele>
        <time>2013-09-04T09:18:55Z</time>
      </trkpt>
      <trkpt lat="50.430486034601927" lon="12.413044972345233">
        <ele>691.80999999999995</ele>
        <time>2013-09-04T09:18:56Z</time>
      </trkpt>
      <trkpt lat="50.430605979636312" lon="12.413114961236715">
        <ele>690.36000000000001</ele>
        <time>2013-09-04T09:18:57Z</time>
      </trkpt>
      <trkpt lat="50.430720979347825" lon="12.413133988156915">
        <ele>689.39999999999998</ele>
        <time>2013-09-04T09:18:58Z</time>
      </trkpt>
      <trkpt lat="50.430841008201241" lon="12.413131976500154">
        <ele>688.91999999999996</ele>
        <time>2013-09-04T09:18:59Z</time>
      </trkpt>
      <trkpt lat="50.430952990427613" lon="12.413124013692141">
        <ele>688.44000000000005</ele>
        <time>2013-09-04T09:19:00Z</time>
      </trkpt>
      <trkpt lat="50.431081987917423" lon="12.413128037005663">
        <ele>687.96000000000004</ele>
        <time>2013-09-04T09:19:01Z</time>
      </trkpt>
      <trkpt lat="50.431206962093711" lon="12.413171958178282">
        <ele>687.48000000000002</ele>
        <time>2013-09-04T09:19:02Z</time>
      </trkpt>
      <trkpt lat="50.43131098151207" lon="12.413240019232035">
        <ele>686.51999999999998</ele>
        <time>2013-09-04T09:19:03Z</time>
      </trkpt>
      <trkpt lat="50.431436039507389" lon="12.413331968709826">
        <ele>687</ele>
        <time>2013-09-04T09:19:04Z</time>
      </trkpt>
      <trkpt lat="50.431546010077" lon="12.413445962592959">
        <ele>686.51999999999998</ele>
        <time>2013-09-04T09:19:05Z</time>
      </trkpt>
      <trkpt lat="50.431651035323739" lon="12.413579989224672">
        <ele>686.03999999999996</ele>
        <time>2013-09-04T09:19:06Z</time>
      </trkpt>
      <trkpt lat="50.431749019771814" lon="12.413729019463062">
        <ele>686.51999999999998</ele>
        <time>2013-09-04T09:19:07Z</time>
      </trkpt>
      <trkpt lat="50.431841975077987" lon="12.413884000852704">
        <ele>687</ele>
        <time>2013-09-04T09:19:08Z</time>
      </trkpt>
      <trkpt lat="50.432908991351724" lon="12.415773030370474">
        <ele>683.14999999999998</ele>
        <time>2013-09-04T09:19:20Z</time>
      </trkpt>
      <trkpt lat="50.434008026495576" lon="12.41761302575469">
        <ele>680.26999999999998</ele>
        <time>2013-09-04T09:19:32Z</time>
      </trkpt>
      <trkpt lat="50.434416979551315" lon="12.418357003480196">
        <ele>676.90999999999997</ele>
        <time>2013-09-04T09:19:38Z</time>
      </trkpt>
      <trkpt lat="50.434456039220095" lon="12.41845197044313">
        <ele>676.90999999999997</ele>
        <time>2013-09-04T09:19:39Z</time>
      </trkpt>
      <trkpt lat="50.434500966221094" lon="12.41864399984479">
        <ele>675.94000000000005</ele>
        <time>2013-09-04T09:19:42Z</time>
      </trkpt>
      <trkpt lat="50.434505995362997" lon="12.418724969029427">
        <ele>675.46000000000004</ele>
        <time>2013-09-04T09:19:43Z</time>
      </trkpt>
      <trkpt lat="50.434491997584701" lon="12.418842986226082">
        <ele>675.94000000000005</ele>
        <time>2013-09-04T09:19:44Z</time>
      </trkpt>
      <trkpt lat="50.434483028948307" lon="12.418977012857795">
        <ele>675.94000000000005</ele>
        <time>2013-09-04T09:19:45Z</time>
      </trkpt>
      <trkpt lat="50.434473976492882" lon="12.419125037267804">
        <ele>675.94000000000005</ele>
        <time>2013-09-04T09:19:46Z</time>
      </trkpt>
      <trkpt lat="50.43433902785182" lon="12.421019012108445">
        <ele>684.12</ele>
        <time>2013-09-04T09:19:56Z</time>
      </trkpt>
      <trkpt lat="50.434335004538298" lon="12.421220010146499">
        <ele>684.60000000000002</ele>
        <time>2013-09-04T09:19:57Z</time>
      </trkpt>
      <trkpt lat="50.434351013973355" lon="12.42141799069941">
        <ele>685.08000000000004</ele>
        <time>2013-09-04T09:19:58Z</time>
      </trkpt>
      <trkpt lat="50.434378003701568" lon="12.421603985130787">
        <ele>685.55999999999995</ele>
        <time>2013-09-04T09:19:59Z</time>
      </trkpt>
      <trkpt lat="50.434427037835121" lon="12.421786040067673">
        <ele>686.51999999999998</ele>
        <time>2013-09-04T09:20:00Z</time>
      </trkpt>
      <trkpt lat="50.434497026726604" lon="12.42195300757885">
        <ele>687.96000000000004</ele>
        <time>2013-09-04T09:20:01Z</time>
      </trkpt>
      <trkpt lat="50.43470598757267" lon="12.422678964212537">
        <ele>689.88</ele>
        <time>2013-09-04T09:20:05Z</time>
      </trkpt>
      <trkpt lat="50.43472602032125" lon="12.42287702858448">
        <ele>690.36000000000001</ele>
        <time>2013-09-04T09:20:06Z</time>
      </trkpt>
      <trkpt lat="50.43468302115798" lon="12.425094963982701">
        <ele>695.16999999999996</ele>
        <time>2013-09-04T09:20:17Z</time>
      </trkpt>
      <trkpt lat="50.434409016743302" lon="12.427139980718493">
        <ele>697.09000000000003</ele>
        <time>2013-09-04T09:20:27Z</time>
      </trkpt>
      <trkpt lat="50.434096958488226" lon="12.428104989230633">
        <ele>695.64999999999998</ele>
        <time>2013-09-04T09:20:32Z</time>
      </trkpt>
      <trkpt lat="50.434044990688562" lon="12.428307998925447">
        <ele>693.73000000000002</ele>
        <time>2013-09-04T09:20:33Z</time>
      </trkpt>
      <trkpt lat="50.434026969596744" lon="12.428524000570178">
        <ele>693.25</ele>
        <time>2013-09-04T09:20:34Z</time>
      </trkpt>
      <trkpt lat="50.434028981253505" lon="12.428744025528431">
        <ele>692.76999999999998</ele>
        <time>2013-09-04T09:20:35Z</time>
      </trkpt>
      <trkpt lat="50.434067035093904" lon="12.428959021344781">
        <ele>692.28999999999996</ele>
        <time>2013-09-04T09:20:36Z</time>
      </trkpt>
      <trkpt lat="50.434116991236806" lon="12.429159013554454">
        <ele>692.28999999999996</ele>
        <time>2013-09-04T09:20:37Z</time>
      </trkpt>
      <trkpt lat="50.434177005663514" lon="12.429354982450604">
        <ele>691.80999999999995</ele>
        <time>2013-09-04T09:20:38Z</time>
      </trkpt>
      <trkpt lat="50.434667011722922" lon="12.430423004552722">
        <ele>690.84000000000003</ele>
        <time>2013-09-04T09:20:44Z</time>
      </trkpt>
      <trkpt lat="50.434777988120914" lon="12.430563988164067">
        <ele>690.36000000000001</ele>
        <time>2013-09-04T09:20:45Z</time>
      </trkpt>
      <trkpt lat="50.434897011145949" lon="12.430678987875581">
        <ele>690.36000000000001</ele>
        <time>2013-09-04T09:20:46Z</time>
      </trkpt>
      <trkpt lat="50.435025002807379" lon="12.430774960666895">
        <ele>690.36000000000001</ele>
        <time>2013-09-04T09:20:47Z</time>
      </trkpt>
      <trkpt lat="50.435150982812047" lon="12.43086900562048">
        <ele>690.84000000000003</ele>
        <time>2013-09-04T09:20:48Z</time>
      </trkpt>
      <trkpt lat="50.4356300085783" lon="12.431272007524967">
        <ele>691.80999999999995</ele>
        <time>2013-09-04T09:20:52Z</time>
      </trkpt>
      <trkpt lat="50.435765041038394" lon="12.431391030550003">
        <ele>693.73000000000002</ele>
        <time>2013-09-04T09:20:53Z</time>
      </trkpt>
      <trkpt lat="50.435868976637721" lon="12.431554980576038">
        <ele>694.69000000000005</ele>
        <time>2013-09-04T09:20:54Z</time>
      </trkpt>
      <trkpt lat="50.436328975483775" lon="12.432419992983341">
        <ele>699.5</ele>
        <time>2013-09-04T09:20:59Z</time>
      </trkpt>
      <trkpt lat="50.436397036537528" lon="12.432619985193014">
        <ele>700.94000000000005</ele>
        <time>2013-09-04T09:21:00Z</time>
      </trkpt>
      <trkpt lat="50.436870027333498" lon="12.434538016095757">
        <ele>715.36000000000001</ele>
        <time>2013-09-04T09:21:08Z</time>
      </trkpt>
      <trkpt lat="50.437452988699079" lon="12.437288034707308">
        <ele>728.82000000000005</ele>
        <time>2013-09-04T09:21:17Z</time>
      </trkpt>
      <trkpt lat="50.43758399784565" lon="12.437927993014455">
        <ele>732.17999999999995</ele>
        <time>2013-09-04T09:21:19Z</time>
      </trkpt>
      <trkpt lat="50.437608975917101" lon="12.438247008249164">
        <ele>733.62</ele>
        <time>2013-09-04T09:21:20Z</time>
      </trkpt>
      <trkpt lat="50.437602018937469" lon="12.438573986291885">
        <ele>732.65999999999997</ele>
        <time>2013-09-04T09:21:21Z</time>
      </trkpt>
      <trkpt lat="50.43760503642261" lon="12.438890989869833">
        <ele>733.62</ele>
        <time>2013-09-04T09:21:22Z</time>
      </trkpt>
      <trkpt lat="50.437644012272358" lon="12.439201036468148">
        <ele>734.10000000000002</ele>
        <time>2013-09-04T09:21:23Z</time>
      </trkpt>
      <trkpt lat="50.437689023092389" lon="12.439494989812374">
        <ele>734.58000000000004</ele>
        <time>2013-09-04T09:21:24Z</time>
      </trkpt>
      <trkpt lat="50.437720036134124" lon="12.439794978126884">
        <ele>735.54999999999995</ele>
        <time>2013-09-04T09:21:25Z</time>
      </trkpt>
      <trkpt lat="50.437724981456995" lon="12.440096978098154">
        <ele>735.54999999999995</ele>
        <time>2013-09-04T09:21:26Z</time>
      </trkpt>
      <trkpt lat="50.437702015042305" lon="12.440405013039708">
        <ele>736.02999999999997</ele>
        <time>2013-09-04T09:21:27Z</time>
      </trkpt>
      <trkpt lat="50.437645018100739" lon="12.44071003049612">
        <ele>736.02999999999997</ele>
        <time>2013-09-04T09:21:28Z</time>
      </trkpt>
      <trkpt lat="50.43756497092545" lon="12.441022004932165">
        <ele>736.02999999999997</ele>
        <time>2013-09-04T09:21:29Z</time>
      </trkpt>
      <trkpt lat="50.437473021447659" lon="12.441347977146506">
        <ele>736.50999999999999</ele>
        <time>2013-09-04T09:21:30Z</time>
      </trkpt>
      <trkpt lat="50.437350980937481" lon="12.441629022359848">
        <ele>735.54999999999995</ele>
        <time>2013-09-04T09:21:31Z</time>
      </trkpt>
      <trkpt lat="50.43676701374352" lon="12.444302011281252">
        <ele>733.13999999999999</ele>
        <time>2013-09-04T09:21:39Z</time>
      </trkpt>
      <trkpt lat="50.436743963509798" lon="12.445280011743307">
        <ele>731.22000000000003</ele>
        <time>2013-09-04T09:21:42Z</time>
      </trkpt>
      <trkpt lat="50.436756033450365" lon="12.445577988401055">
        <ele>731.70000000000005</ele>
        <time>2013-09-04T09:21:43Z</time>
      </trkpt>
      <trkpt lat="50.436821999028325" lon="12.445870013907552">
        <ele>731.70000000000005</ele>
        <time>2013-09-04T09:21:44Z</time>
      </trkpt>
      <trkpt lat="50.436905985698104" lon="12.446164973080158">
        <ele>732.17999999999995</ele>
        <time>2013-09-04T09:21:45Z</time>
      </trkpt>
      <trkpt lat="50.437000030651689" lon="12.446460016071796">
        <ele>732.65999999999997</ele>
        <time>2013-09-04T09:21:46Z</time>
      </trkpt>
      <trkpt lat="50.437505962327123" lon="12.448194986209273">
        <ele>729.29999999999995</ele>
        <time>2013-09-04T09:21:52Z</time>
      </trkpt>
      <trkpt lat="50.43760403059423" lon="12.448481982573867">
        <ele>728.34000000000003</ele>
        <time>2013-09-04T09:21:53Z</time>
      </trkpt>
      <trkpt lat="50.437682988122106" lon="12.448782976716757">
        <ele>726.88999999999999</ele>
        <time>2013-09-04T09:21:54Z</time>
      </trkpt>
      <trkpt lat="50.4379060305655" lon="12.450022995471954">
        <ele>720.15999999999997</ele>
        <time>2013-09-04T09:21:58Z</time>
      </trkpt>
      <trkpt lat="50.43788499198854" lon="12.451941026374698">
        <ele>711.99000000000001</ele>
        <time>2013-09-04T09:22:05Z</time>
      </trkpt>
      <trkpt lat="50.437796982005239" lon="12.453956035897136">
        <ele>705.25999999999999</ele>
        <time>2013-09-04T09:22:14Z</time>
      </trkpt>
      <trkpt lat="50.437760017812252" lon="12.454155022278428">
        <ele>704.29999999999995</ele>
        <time>2013-09-04T09:22:15Z</time>
      </trkpt>
      <trkpt lat="50.437711989507079" lon="12.454324001446366">
        <ele>702.38</ele>
        <time>2013-09-04T09:22:16Z</time>
      </trkpt>
      <trkpt lat="50.436959965154529" lon="12.456084033474326">
        <ele>689.88</ele>
        <time>2013-09-04T09:22:26Z</time>
      </trkpt>
      <trkpt lat="50.436302991583943" lon="12.457160018384457">
        <ele>684.12</ele>
        <time>2013-09-04T09:22:33Z</time>
      </trkpt>
      <trkpt lat="50.435980958864093" lon="12.457523960620165">
        <ele>681.71000000000004</ele>
        <time>2013-09-04T09:22:36Z</time>
      </trkpt>
      <trkpt lat="50.435889009386301" lon="12.457659998908639">
        <ele>680.75</ele>
        <time>2013-09-04T09:22:37Z</time>
      </trkpt>
      <trkpt lat="50.435814997181296" lon="12.457806011661887">
        <ele>678.83000000000004</ele>
        <time>2013-09-04T09:22:38Z</time>
      </trkpt>
      <trkpt lat="50.435467986389995" lon="12.458614027127624">
        <ele>671.13999999999999</ele>
        <time>2013-09-04T09:22:43Z</time>
      </trkpt>
      <trkpt lat="50.435424987226725" lon="12.458793986588717">
        <ele>669.70000000000005</ele>
        <time>2013-09-04T09:22:44Z</time>
      </trkpt>
      <trkpt lat="50.435395985841751" lon="12.458989033475518">
        <ele>668.25</ele>
        <time>2013-09-04T09:22:45Z</time>
      </trkpt>
      <trkpt lat="50.435386011376977" lon="12.459191959351301">
        <ele>665.85000000000002</ele>
        <time>2013-09-04T09:22:46Z</time>
      </trkpt>
      <trkpt lat="50.435377964749932" lon="12.459405027329922">
        <ele>663.92999999999995</ele>
        <time>2013-09-04T09:22:47Z</time>
      </trkpt>
      <trkpt lat="50.435394980013371" lon="12.460053032264113">
        <ele>657.20000000000005</ele>
        <time>2013-09-04T09:22:50Z</time>
      </trkpt>
      <trkpt lat="50.435422975569963" lon="12.460270961746573">
        <ele>655.27999999999997</ele>
        <time>2013-09-04T09:22:51Z</time>
      </trkpt>
      <trkpt lat="50.435460023581982" lon="12.460471037775278">
        <ele>654.30999999999995</ele>
        <time>2013-09-04T09:22:52Z</time>
      </trkpt>
      <trkpt lat="50.435518026351929" lon="12.460969006642699">
        <ele>653.35000000000002</ele>
        <time>2013-09-04T09:22:55Z</time>
      </trkpt>
      <trkpt lat="50.435535963624716" lon="12.461324986070395">
        <ele>653.35000000000002</ele>
        <time>2013-09-04T09:23:00Z</time>
      </trkpt>
      <trkpt lat="50.435580974444747" lon="12.46135801076889">
        <ele>653.35000000000002</ele>
        <time>2013-09-04T09:23:01Z</time>
      </trkpt>
      <trkpt lat="50.435644006356597" lon="12.46137703768909">
        <ele>653.83000000000004</ele>
        <time>2013-09-04T09:23:02Z</time>
      </trkpt>
      <trkpt lat="50.43571500107646" lon="12.461378965526819">
        <ele>653.83000000000004</ele>
        <time>2013-09-04T09:23:03Z</time>
      </trkpt>
      <trkpt lat="50.43580200523138" lon="12.4613799713552">
        <ele>653.83000000000004</ele>
        <time>2013-09-04T09:23:04Z</time>
      </trkpt>
      <trkpt lat="50.436766007915139" lon="12.46153000742197">
        <ele>650.47000000000003</ele>
        <time>2013-09-04T09:23:12Z</time>
      </trkpt>
      <trkpt lat="50.438152039423585" lon="12.461866959929466">
        <ele>647.10000000000002</ele>
        <time>2013-09-04T09:23:23Z</time>
      </trkpt>
      <trkpt lat="50.439463974907994" lon="12.462885025888681">
        <ele>645.17999999999995</ele>
        <time>2013-09-04T09:23:34Z</time>
      </trkpt>
      <trkpt lat="50.439714007079601" lon="12.463042018935084">
        <ele>642.77999999999997</ele>
        <time>2013-09-04T09:23:36Z</time>
      </trkpt>
      <trkpt lat="50.43983998708427" lon="12.46309801004827">
        <ele>642.29999999999995</ele>
        <time>2013-09-04T09:23:37Z</time>
      </trkpt>
      <trkpt lat="50.439985999837518" lon="12.463126005604863">
        <ele>642.29999999999995</ele>
        <time>2013-09-04T09:23:38Z</time>
      </trkpt>
      <trkpt lat="50.440117008984089" lon="12.463151989504695">
        <ele>641.82000000000005</ele>
        <time>2013-09-04T09:23:39Z</time>
      </trkpt>
      <trkpt lat="50.440256986767054" lon="12.463173028081656">
        <ele>641.82000000000005</ele>
        <time>2013-09-04T09:23:40Z</time>
      </trkpt>
      <trkpt lat="50.440813964232802" lon="12.463276963680983">
        <ele>640.38</ele>
        <time>2013-09-04T09:23:44Z</time>
      </trkpt>
      <trkpt lat="50.440948996692896" lon="12.463344018906355">
        <ele>639.88999999999999</ele>
        <time>2013-09-04T09:23:45Z</time>
      </trkpt>
      <trkpt lat="50.442093964666128" lon="12.464038040488958">
        <ele>635.57000000000005</ele>
        <time>2013-09-04T09:23:54Z</time>
      </trkpt>
      <trkpt lat="50.443567000329494" lon="12.464484963566065">
        <ele>630.27999999999997</ele>
        <time>2013-09-04T09:24:04Z</time>
      </trkpt>
      <trkpt lat="50.445678988471627" lon="12.465079994872212">
        <ele>627.39999999999998</ele>
        <time>2013-09-04T09:24:14Z</time>
      </trkpt>
      <trkpt lat="50.446084002032876" lon="12.46526800096035">
        <ele>626.91999999999996</ele>
        <time>2013-09-04T09:24:16Z</time>
      </trkpt>
      <trkpt lat="50.447020009160042" lon="12.466071993112564">
        <ele>626.44000000000005</ele>
        <time>2013-09-04T09:24:22Z</time>
      </trkpt>
      <trkpt lat="50.447994992136955" lon="12.467040019109845">
        <ele>624.02999999999997</ele>
        <time>2013-09-04T09:24:31Z</time>
      </trkpt>
      <trkpt lat="50.449183965101838" lon="12.468105023726821">
        <ele>621.14999999999998</ele>
        <time>2013-09-04T09:24:42Z</time>
      </trkpt>
      <trkpt lat="50.449996003881097" lon="12.469465993344784">
        <ele>618.25999999999999</ele>
        <time>2013-09-04T09:24:51Z</time>
      </trkpt>
      <trkpt lat="50.450549041852355" lon="12.470369981601834">
        <ele>619.23000000000002</ele>
        <time>2013-09-04T09:24:57Z</time>
      </trkpt>
      <trkpt lat="50.45062598772347" lon="12.470539966598153">
        <ele>618.75</ele>
        <time>2013-09-04T09:24:58Z</time>
      </trkpt>
      <trkpt lat="50.450674016028643" lon="12.470730990171432">
        <ele>618.75</ele>
        <time>2013-09-04T09:24:59Z</time>
      </trkpt>
      <trkpt lat="50.450699999928474" lon="12.470931988209486">
        <ele>617.77999999999997</ele>
        <time>2013-09-04T09:25:00Z</time>
      </trkpt>
      <trkpt lat="50.450705029070377" lon="12.471144972369075">
        <ele>617.77999999999997</ele>
        <time>2013-09-04T09:25:01Z</time>
      </trkpt>
      <trkpt lat="50.450702011585236" lon="12.471346976235509">
        <ele>618.25999999999999</ele>
        <time>2013-09-04T09:25:02Z</time>
      </trkpt>
      <trkpt lat="50.450727995485067" lon="12.473013969138265">
        <ele>620.19000000000005</ele>
        <time>2013-09-04T09:25:10Z</time>
      </trkpt>
      <trkpt lat="50.450703017413616" lon="12.473222007974982">
        <ele>620.19000000000005</ele>
        <time>2013-09-04T09:25:11Z</time>
      </trkpt>
      <trkpt lat="50.450304038822651" lon="12.475519990548491">
        <ele>622.11000000000001</ele>
        <time>2013-09-04T09:25:22Z</time>
      </trkpt>
      <trkpt lat="50.450286017730832" lon="12.475759964436293">
        <ele>622.11000000000001</ele>
        <time>2013-09-04T09:25:23Z</time>
      </trkpt>
      <trkpt lat="50.450290041044354" lon="12.475993987172842">
        <ele>622.11000000000001</ele>
        <time>2013-09-04T09:25:24Z</time>
      </trkpt>
      <trkpt lat="50.450304038822651" lon="12.476212000474334">
        <ele>621.63</ele>
        <time>2013-09-04T09:25:25Z</time>
      </trkpt>
      <trkpt lat="50.450333962216973" lon="12.476411992684007">
        <ele>622.11000000000001</ele>
        <time>2013-09-04T09:25:26Z</time>
      </trkpt>
      <trkpt lat="50.45036899857223" lon="12.476605027914047">
        <ele>622.59000000000003</ele>
        <time>2013-09-04T09:25:27Z</time>
      </trkpt>
      <trkpt lat="50.450443010777235" lon="12.47697601094842">
        <ele>620.66999999999996</ele>
        <time>2013-09-04T09:25:29Z</time>
      </trkpt>
      <trkpt lat="50.450505036860704" lon="12.477156976237893">
        <ele>620.66999999999996</ele>
        <time>2013-09-04T09:25:30Z</time>
      </trkpt>
      <trkpt lat="50.450579971075058" lon="12.477327967062593">
        <ele>620.66999999999996</ele>
        <time>2013-09-04T09:25:31Z</time>
      </trkpt>
      <trkpt lat="50.450670998543501" lon="12.477496024221182">
        <ele>621.14999999999998</ele>
        <time>2013-09-04T09:25:32Z</time>
      </trkpt>
      <trkpt lat="50.450773006305099" lon="12.47766399756074">
        <ele>621.14999999999998</ele>
        <time>2013-09-04T09:25:33Z</time>
      </trkpt>
      <trkpt lat="50.451759975403547" lon="12.478816006332636">
        <ele>621.63</ele>
        <time>2013-09-04T09:25:40Z</time>
      </trkpt>
      <trkpt lat="50.453068977221847" lon="12.480014031752944">
        <ele>622.59000000000003</ele>
        <time>2013-09-04T09:25:49Z</time>
      </trkpt>
      <trkpt lat="50.454279994592071" lon="12.48032801784575">
        <ele>620.66999999999996</ele>
        <time>2013-09-04T09:25:58Z</time>
      </trkpt>
      <trkpt lat="50.455826036632061" lon="12.481011981144547">
        <ele>622.11000000000001</ele>
        <time>2013-09-04T09:26:10Z</time>
      </trkpt>
      <trkpt lat="50.456675039604306" lon="12.482341015711427">
        <ele>623.54999999999995</ele>
        <time>2013-09-04T09:26:17Z</time>
      </trkpt>
      <trkpt lat="50.457119029015303" lon="12.484212024137378">
        <ele>624.02999999999997</ele>
        <time>2013-09-04T09:26:23Z</time>
      </trkpt>
      <trkpt lat="50.45777902007103" lon="12.487283991649747">
        <ele>620.19000000000005</ele>
        <time>2013-09-04T09:26:33Z</time>
      </trkpt>
      <trkpt lat="50.458569014444947" lon="12.489147959277034">
        <ele>616.82000000000005</ele>
        <time>2013-09-04T09:26:42Z</time>
      </trkpt>
      <trkpt lat="50.458905966952443" lon="12.489742990583181">
        <ele>614.41999999999996</ele>
        <time>2013-09-04T09:26:46Z</time>
      </trkpt>
      <trkpt lat="50.459013003855944" lon="12.489839969202876">
        <ele>613.46000000000004</ele>
        <time>2013-09-04T09:26:47Z</time>
      </trkpt>
      <trkpt lat="50.459131021052599" lon="12.489914987236261">
        <ele>612.98000000000002</ele>
        <time>2013-09-04T09:26:48Z</time>
      </trkpt>
      <trkpt lat="50.460293004289269" lon="12.490327963605523">
        <ele>611.53999999999996</ele>
        <time>2013-09-04T09:26:57Z</time>
      </trkpt>
      <trkpt lat="50.461365971714258" lon="12.490286976099014">
        <ele>610.57000000000005</ele>
        <time>2013-09-04T09:27:05Z</time>
      </trkpt>
      <trkpt lat="50.461496980860829" lon="12.490317989140749">
        <ele>611.05999999999995</ele>
        <time>2013-09-04T09:27:06Z</time>
      </trkpt>
      <trkpt lat="50.463160034269094" lon="12.490945961326361">
        <ele>612.01999999999998</ele>
        <time>2013-09-04T09:27:18Z</time>
      </trkpt>
      <trkpt lat="50.464545981958508" lon="12.491977019235492">
        <ele>612.5</ele>
        <time>2013-09-04T09:27:26Z</time>
      </trkpt>
      <trkpt lat="50.466628968715668" lon="12.493716012686491">
        <ele>609.13</ele>
        <time>2013-09-04T09:27:38Z</time>
      </trkpt>
      <trkpt lat="50.466770958155394" lon="12.493916004896164">
        <ele>608.64999999999998</ele>
        <time>2013-09-04T09:27:39Z</time>
      </trkpt>
      <trkpt lat="50.467207990586758" lon="12.49442202039063">
        <ele>607.69000000000005</ele>
        <time>2013-09-04T09:27:42Z</time>
      </trkpt>
      <trkpt lat="50.467375963926315" lon="12.49455202370882">
        <ele>607.69000000000005</ele>
        <time>2013-09-04T09:27:43Z</time>
      </trkpt>
      <trkpt lat="50.467695984989405" lon="12.494842037558556">
        <ele>607.21000000000004</ele>
        <time>2013-09-04T09:27:45Z</time>
      </trkpt>
      <trkpt lat="50.467837974429131" lon="12.495032977312803">
        <ele>607.21000000000004</ele>
        <time>2013-09-04T09:27:46Z</time>
      </trkpt>
      <trkpt lat="50.467947022989392" lon="12.495255013927817">
        <ele>607.21000000000004</ele>
        <time>2013-09-04T09:27:47Z</time>
      </trkpt>
      <trkpt lat="50.468027992174029" lon="12.495533963665366">
        <ele>607.21000000000004</ele>
        <time>2013-09-04T09:27:48Z</time>
      </trkpt>
      <trkpt lat="50.468090018257499" lon="12.495822971686721">
        <ele>607.21000000000004</ele>
        <time>2013-09-04T09:27:49Z</time>
      </trkpt>
      <trkpt lat="50.468128994107246" lon="12.49611902050674">
        <ele>606.73000000000002</ele>
        <time>2013-09-04T09:27:50Z</time>
      </trkpt>
      <trkpt lat="50.468159001320601" lon="12.496404005214572">
        <ele>606.73000000000002</ele>
        <time>2013-09-04T09:27:51Z</time>
      </trkpt>
      <trkpt lat="50.468322029337287" lon="12.497270023450255">
        <ele>606.73000000000002</ele>
        <time>2013-09-04T09:27:54Z</time>
      </trkpt>
      <trkpt lat="50.468418002128601" lon="12.497545033693314">
        <ele>606.73000000000002</ele>
        <time>2013-09-04T09:27:55Z</time>
      </trkpt>
      <trkpt lat="50.468526966869831" lon="12.497818032279611">
        <ele>606.73000000000002</ele>
        <time>2013-09-04T09:27:56Z</time>
      </trkpt>
      <trkpt lat="50.468659987673163" lon="12.498078960925341">
        <ele>606.25</ele>
        <time>2013-09-04T09:27:57Z</time>
      </trkpt>
      <trkpt lat="50.468790996819735" lon="12.498337039723992">
        <ele>606.25</ele>
        <time>2013-09-04T09:27:58Z</time>
      </trkpt>
      <trkpt lat="50.469825994223356" lon="12.500689001753926">
        <ele>604.33000000000004</ele>
        <time>2013-09-04T09:28:07Z</time>
      </trkpt>
      <trkpt lat="50.46987603418529" lon="12.500944985076785">
        <ele>604.33000000000004</ele>
        <time>2013-09-04T09:28:08Z</time>
      </trkpt>
      <trkpt lat="50.46989900059998" lon="12.501201974228024">
        <ele>604.33000000000004</ele>
        <time>2013-09-04T09:28:09Z</time>
      </trkpt>
      <trkpt lat="50.469866981729865" lon="12.501455023884773">
        <ele>604.33000000000004</ele>
        <time>2013-09-04T09:28:10Z</time>
      </trkpt>
      <trkpt lat="50.469780983403325" lon="12.501711007207632">
        <ele>604.33000000000004</ele>
        <time>2013-09-04T09:28:11Z</time>
      </trkpt>
      <trkpt lat="50.469661960378289" lon="12.501948969438672">
        <ele>604.33000000000004</ele>
        <time>2013-09-04T09:28:12Z</time>
      </trkpt>
      <trkpt lat="50.46955500729382" lon="12.502181986346841">
        <ele>604.80999999999995</ele>
        <time>2013-09-04T09:28:13Z</time>
      </trkpt>
      <trkpt lat="50.469431960955262" lon="12.502404022961855">
        <ele>604.80999999999995</ele>
        <time>2013-09-04T09:28:14Z</time>
      </trkpt>
      <trkpt lat="50.468628974631429" lon="12.503697015345097">
        <ele>604.80999999999995</ele>
        <time>2013-09-04T09:28:20Z</time>
      </trkpt>
      <trkpt lat="50.468462007120252" lon="12.503875968977809">
        <ele>604.80999999999995</ele>
        <time>2013-09-04T09:28:21Z</time>
      </trkpt>
      <trkpt lat="50.468276012688875" lon="12.504020975902677">
        <ele>604.33000000000004</ele>
        <time>2013-09-04T09:28:22Z</time>
      </trkpt>
      <trkpt lat="50.467098020017147" lon="12.504684990271926">
        <ele>602.39999999999998</ele>
        <time>2013-09-04T09:28:28Z</time>
      </trkpt>
      <trkpt lat="50.466348007321358" lon="12.504934016615152">
        <ele>601.44000000000005</ele>
        <time>2013-09-04T09:28:32Z</time>
      </trkpt>
      <trkpt lat="50.466172993183136" lon="12.505034012719989">
        <ele>601.44000000000005</ele>
        <time>2013-09-04T09:28:33Z</time>
      </trkpt>
      <trkpt lat="50.466035027056932" lon="12.505183964967728">
        <ele>601.44000000000005</ele>
        <time>2013-09-04T09:28:34Z</time>
      </trkpt>
      <trkpt lat="50.4659210331738" lon="12.505385968834162">
        <ele>600.96000000000004</ele>
        <time>2013-09-04T09:28:35Z</time>
      </trkpt>
      <trkpt lat="50.465854983776808" lon="12.505629966035485">
        <ele>600</ele>
        <time>2013-09-04T09:28:36Z</time>
      </trkpt>
      <trkpt lat="50.465783989056945" lon="12.505872035399079">
        <ele>599.51999999999998</ele>
        <time>2013-09-04T09:28:37Z</time>
      </trkpt>
      <trkpt lat="50.465721962973475" lon="12.506123995408416">
        <ele>598.55999999999995</ele>
        <time>2013-09-04T09:28:38Z</time>
      </trkpt>
      <trkpt lat="50.465684998780489" lon="12.5063890311867">
        <ele>597.60000000000002</ele>
        <time>2013-09-04T09:28:39Z</time>
      </trkpt>
      <trkpt lat="50.465672006830573" lon="12.506658006459475">
        <ele>597.60000000000002</ele>
        <time>2013-09-04T09:28:40Z</time>
      </trkpt>
      <trkpt lat="50.465678963810205" lon="12.506933016702533">
        <ele>596.63999999999999</ele>
        <time>2013-09-04T09:28:41Z</time>
      </trkpt>
      <trkpt lat="50.465705031529069" lon="12.507218001410365">
        <ele>595.66999999999996</ele>
        <time>2013-09-04T09:28:42Z</time>
      </trkpt>
      <trkpt lat="50.465746019035578" lon="12.507493011653423">
        <ele>595.19000000000005</ele>
        <time>2013-09-04T09:28:43Z</time>
      </trkpt>
      <trkpt lat="50.465807039290667" lon="12.507781013846397">
        <ele>595.66999999999996</ele>
        <time>2013-09-04T09:28:44Z</time>
      </trkpt>
      <trkpt lat="50.46588197350502" lon="12.508049989119172">
        <ele>595.66999999999996</ele>
        <time>2013-09-04T09:28:45Z</time>
      </trkpt>
      <trkpt lat="50.466388994827867" lon="12.509134020656347">
        <ele>595.19000000000005</ele>
        <time>2013-09-04T09:28:50Z</time>
      </trkpt>
      <trkpt lat="50.46652402728796" lon="12.509249020367861">
        <ele>595.66999999999996</ele>
        <time>2013-09-04T09:28:51Z</time>
      </trkpt>
      <trkpt lat="50.466811023652554" lon="12.509392015635967">
        <ele>595.19000000000005</ele>
        <time>2013-09-04T09:28:53Z</time>
      </trkpt>
      <trkpt lat="50.467073963955045" lon="12.509229993447661">
        <ele>593.75</ele>
        <time>2013-09-04T09:28:54Z</time>
      </trkpt>
      <trkpt lat="50.467319972813129" lon="12.508967975154519">
        <ele>593.75</ele>
        <time>2013-09-04T09:28:55Z</time>
      </trkpt>
      <trkpt lat="50.467500016093254" lon="12.508725989609957">
        <ele>593.75</ele>
        <time>2013-09-04T09:28:56Z</time>
      </trkpt>
      <trkpt lat="50.467636976391077" lon="12.508557010442019">
        <ele>594.23000000000002</ele>
        <time>2013-09-04T09:28:57Z</time>
      </trkpt>
      <trkpt lat="50.467743007466197" lon="12.50834695994854">
        <ele>594.71000000000004</ele>
        <time>2013-09-04T09:28:58Z</time>
      </trkpt>
      <trkpt lat="50.467925984412432" lon="12.50828200019896">
        <ele>594.71000000000004</ele>
        <time>2013-09-04T09:28:59Z</time>
      </trkpt>
      <trkpt lat="50.468123964965343" lon="12.508225003257394">
        <ele>594.71000000000004</ele>
        <time>2013-09-04T09:29:00Z</time>
      </trkpt>
      <trkpt lat="50.468311971053481" lon="12.50819499604404">
        <ele>594.71000000000004</ele>
        <time>2013-09-04T09:29:01Z</time>
      </trkpt>
      <trkpt lat="50.468714972957969" lon="12.508145961910486">
        <ele>595.19000000000005</ele>
        <time>2013-09-04T09:29:03Z</time>
      </trkpt>
      <trkpt lat="50.46891001984477" lon="12.508170017972589">
        <ele>595.66999999999996</ele>
        <time>2013-09-04T09:29:04Z</time>
      </trkpt>
      <trkpt lat="50.469115041196346" lon="12.508221985772252">
        <ele>596.14999999999998</ele>
        <time>2013-09-04T09:29:05Z</time>
      </trkpt>
      <trkpt lat="50.46931997872889" lon="12.508327011018991">
        <ele>597.12</ele>
        <time>2013-09-04T09:29:06Z</time>
      </trkpt>
      <trkpt lat="50.469507984817028" lon="12.50847402960062">
        <ele>597.60000000000002</ele>
        <time>2013-09-04T09:29:07Z</time>
      </trkpt>
      <trkpt lat="50.469645028933883" lon="12.508677039295435">
        <ele>598.55999999999995</ele>
        <time>2013-09-04T09:29:08Z</time>
      </trkpt>
      <trkpt lat="50.469762962311506" lon="12.508936040103436">
        <ele>597.60000000000002</ele>
        <time>2013-09-04T09:29:09Z</time>
      </trkpt>
      <trkpt lat="50.46985600143671" lon="12.509206021204591">
        <ele>597.60000000000002</ele>
        <time>2013-09-04T09:29:10Z</time>
      </trkpt>
      <trkpt lat="50.469931019470096" lon="12.509498968720436">
        <ele>597.60000000000002</ele>
        <time>2013-09-04T09:29:11Z</time>
      </trkpt>
      <trkpt lat="50.469995979219675" lon="12.509802980348468">
        <ele>597.12</ele>
        <time>2013-09-04T09:29:12Z</time>
      </trkpt>
      <trkpt lat="50.470037972554564" lon="12.510114032775164">
        <ele>597.12</ele>
        <time>2013-09-04T09:29:13Z</time>
      </trkpt>
      <trkpt lat="50.470174010843039" lon="12.511049034073949">
        <ele>596.14999999999998</ele>
        <time>2013-09-04T09:29:16Z</time>
      </trkpt>
      <trkpt lat="50.470254980027676" lon="12.511352961882949">
        <ele>596.63999999999999</ele>
        <time>2013-09-04T09:29:17Z</time>
      </trkpt>
      <trkpt lat="50.470756972208619" lon="12.512607984244823">
        <ele>595.66999999999996</ele>
        <time>2013-09-04T09:29:22Z</time>
      </trkpt>
      <trkpt lat="50.470869960263371" lon="12.512776963412762">
        <ele>595.19000000000005</ele>
        <time>2013-09-04T09:29:23Z</time>
      </trkpt>
      <trkpt lat="50.4710360057652" lon="12.51288098283112">
        <ele>595.66999999999996</ele>
        <time>2013-09-04T09:29:24Z</time>
      </trkpt>
      <trkpt lat="50.471181012690067" lon="12.512931022793055">
        <ele>595.66999999999996</ele>
        <time>2013-09-04T09:29:25Z</time>
      </trkpt>
      <trkpt lat="50.471342029049993" lon="12.512938985601068">
        <ele>596.14999999999998</ele>
        <time>2013-09-04T09:29:26Z</time>
      </trkpt>
      <trkpt lat="50.471517965197563" lon="12.51294401474297">
        <ele>596.63999999999999</ele>
        <time>2013-09-04T09:29:27Z</time>
      </trkpt>
      <trkpt lat="50.471886014565825" lon="12.512997994199395">
        <ele>597.12</ele>
        <time>2013-09-04T09:29:29Z</time>
      </trkpt>
      <trkpt lat="50.472074020653963" lon="12.513063959777355">
        <ele>596.63999999999999</ele>
        <time>2013-09-04T09:29:30Z</time>
      </trkpt>
      <trkpt lat="50.472247023135424" lon="12.513175019994378">
        <ele>597.12</ele>
        <time>2013-09-04T09:29:31Z</time>
      </trkpt>
      <trkpt lat="50.472404016181827" lon="12.513319021090865">
        <ele>597.12</ele>
        <time>2013-09-04T09:29:32Z</time>
      </trkpt>
      <trkpt lat="50.472539970651269" lon="12.51352203078568">
        <ele>597.60000000000002</ele>
        <time>2013-09-04T09:29:33Z</time>
      </trkpt>
      <trkpt lat="50.472681960090995" lon="12.51373803243041">
        <ele>598.55999999999995</ele>
        <time>2013-09-04T09:29:34Z</time>
      </trkpt>
      <trkpt lat="50.473539009690285" lon="12.514935974031687">
        <ele>597.60000000000002</ele>
        <time>2013-09-04T09:29:41Z</time>
      </trkpt>
      <trkpt lat="50.473673958331347" lon="12.515011997893453">
        <ele>596.63999999999999</ele>
        <time>2013-09-04T09:29:42Z</time>
      </trkpt>
      <trkpt lat="50.473814019933343" lon="12.515038987621665">
        <ele>595.19000000000005</ele>
        <time>2013-09-04T09:29:43Z</time>
      </trkpt>
      <trkpt lat="50.473946034908295" lon="12.515020966529846">
        <ele>591.83000000000004</ele>
        <time>2013-09-04T09:29:44Z</time>
      </trkpt>
      <trkpt lat="50.474062962457538" lon="12.514988025650382">
        <ele>590.38999999999999</ele>
        <time>2013-09-04T09:29:45Z</time>
      </trkpt>
      <trkpt lat="50.474161030724645" lon="12.514947960153222">
        <ele>589.42999999999995</ele>
        <time>2013-09-04T09:29:46Z</time>
      </trkpt>
      <trkpt lat="50.474241999909282" lon="12.514905966818333">
        <ele>588.46000000000004</ele>
        <time>2013-09-04T09:29:47Z</time>
      </trkpt>
      <trkpt lat="50.474300002679229" lon="12.514890963211656">
        <ele>587.98000000000002</ele>
        <time>2013-09-04T09:29:48Z</time>
      </trkpt>
      <trkpt lat="50.474343001842499" lon="12.514923987910151">
        <ele>587.5</ele>
        <time>2013-09-04T09:29:49Z</time>
      </trkpt>
      <trkpt lat="50.474335039034486" lon="12.514995988458395">
        <ele>587.5</ele>
        <time>2013-09-04T09:29:50Z</time>
      </trkpt>
      <trkpt lat="50.474330009892583" lon="12.51509103924036">
        <ele>587.01999999999998</ele>
        <time>2013-09-04T09:29:51Z</time>
      </trkpt>
      <trkpt lat="50.474306037649512" lon="12.515194974839687">
        <ele>586.53999999999996</ele>
        <time>2013-09-04T09:29:52Z</time>
      </trkpt>
      <trkpt lat="50.474273012951016" lon="12.515321038663387">
        <ele>586.05999999999995</ele>
        <time>2013-09-04T09:29:53Z</time>
      </trkpt>
      <trkpt lat="50.473878979682922" lon="12.516722995787859">
        <ele>583.65999999999997</ele>
        <time>2013-09-04T09:30:01Z</time>
      </trkpt>
      <trkpt lat="50.473635988309979" lon="12.517264969646931">
        <ele>585.10000000000002</ele>
        <time>2013-09-04T09:30:04Z</time>
      </trkpt>
      <trkpt lat="50.473018996417522" lon="12.518718978390098">
        <ele>587.01999999999998</ele>
        <time>2013-09-04T09:30:12Z</time>
      </trkpt>
      <trkpt lat="50.472815986722708" lon="12.521031964570284">
        <ele>590.87</ele>
        <time>2013-09-04T09:30:22Z</time>
      </trkpt>
      <trkpt lat="50.472572995349765" lon="12.522685965523124">
        <ele>594.23000000000002</ele>
        <time>2013-09-04T09:30:28Z</time>
      </trkpt>
      <trkpt lat="50.472463024780154" lon="12.522918982431293">
        <ele>594.71000000000004</ele>
        <time>2013-09-04T09:30:29Z</time>
      </trkpt>
      <trkpt lat="50.47232698649168" lon="12.523103971034288">
        <ele>596.63999999999999</ele>
        <time>2013-09-04T09:30:30Z</time>
      </trkpt>
      <trkpt lat="50.472188014537096" lon="12.523239003494382">
        <ele>597.12</ele>
        <time>2013-09-04T09:30:31Z</time>
      </trkpt>
      <trkpt lat="50.472031021490693" lon="12.52332198433578">
        <ele>597.60000000000002</ele>
        <time>2013-09-04T09:30:32Z</time>
      </trkpt>
      <trkpt lat="50.471871010959148" lon="12.523346040397882">
        <ele>597.60000000000002</ele>
        <time>2013-09-04T09:30:33Z</time>
      </trkpt>
      <trkpt lat="50.471674958243966" lon="12.523331958800554">
        <ele>597.60000000000002</ele>
        <time>2013-09-04T09:30:34Z</time>
      </trkpt>
      <trkpt lat="50.471469014883041" lon="12.523306980729103">
        <ele>597.60000000000002</ele>
        <time>2013-09-04T09:30:35Z</time>
      </trkpt>
      <trkpt lat="50.470643984153867" lon="12.523260964080691">
        <ele>598.08000000000004</ele>
        <time>2013-09-04T09:30:39Z</time>
      </trkpt>
      <trkpt lat="50.470465030521154" lon="12.523325001820922">
        <ele>598.55999999999995</ele>
        <time>2013-09-04T09:30:40Z</time>
      </trkpt>
      <trkpt lat="50.470292028039694" lon="12.523403037339449">
        <ele>599.03999999999996</ele>
        <time>2013-09-04T09:30:41Z</time>
      </trkpt>
      <trkpt lat="50.470120031386614" lon="12.523542009294033">
        <ele>600</ele>
        <time>2013-09-04T09:30:42Z</time>
      </trkpt>
      <trkpt lat="50.469945017248392" lon="12.523696990683675">
        <ele>600.48000000000002</ele>
        <time>2013-09-04T09:30:43Z</time>
      </trkpt>
      <trkpt lat="50.468814969062805" lon="12.524629980325699">
        <ele>604.80999999999995</ele>
        <time>2013-09-04T09:30:49Z</time>
      </trkpt>
      <trkpt lat="50.468612965196371" lon="12.524739028885961">
        <ele>606.25</ele>
        <time>2013-09-04T09:30:50Z</time>
      </trkpt>
      <trkpt lat="50.466823009774089" lon="12.524937009438872">
        <ele>612.01999999999998</ele>
        <time>2013-09-04T09:30:58Z</time>
      </trkpt>
      <trkpt lat="50.464354958385229" lon="12.52536297775805">
        <ele>620.66999999999996</ele>
        <time>2013-09-04T09:31:09Z</time>
      </trkpt>
      <trkpt lat="50.462559973821044" lon="12.52577000297606">
        <ele>629.32000000000005</ele>
        <time>2013-09-04T09:31:17Z</time>
      </trkpt>
      <trkpt lat="50.461986986920238" lon="12.525866981595755">
        <ele>634.61000000000001</ele>
        <time>2013-09-04T09:31:20Z</time>
      </trkpt>
      <trkpt lat="50.461810966953635" lon="12.525824988260865">
        <ele>636.04999999999995</ele>
        <time>2013-09-04T09:31:21Z</time>
      </trkpt>
      <trkpt lat="50.461302017793059" lon="12.525867987424135">
        <ele>636.52999999999997</ele>
        <time>2013-09-04T09:31:24Z</time>
      </trkpt>
      <trkpt lat="50.461135972291231" lon="12.525914004072547">
        <ele>637.49000000000001</ele>
        <time>2013-09-04T09:31:25Z</time>
      </trkpt>
      <trkpt lat="50.460969004780054" lon="12.526018023490906">
        <ele>637.00999999999999</ele>
        <time>2013-09-04T09:31:26Z</time>
      </trkpt>
      <trkpt lat="50.460808994248509" lon="12.526207035407424">
        <ele>634.61000000000001</ele>
        <time>2013-09-04T09:31:27Z</time>
      </trkpt>
      <trkpt lat="50.460665998980403" lon="12.526374002918601">
        <ele>635.09000000000003</ele>
        <time>2013-09-04T09:31:28Z</time>
      </trkpt>
      <trkpt lat="50.460537001490593" lon="12.526590004563332">
        <ele>635.09000000000003</ele>
        <time>2013-09-04T09:31:29Z</time>
      </trkpt>
      <trkpt lat="50.460432982072234" lon="12.526825033128262">
        <ele>635.09000000000003</ele>
        <time>2013-09-04T09:31:30Z</time>
      </trkpt>
      <trkpt lat="50.460330974310637" lon="12.527070958167315">
        <ele>635.09000000000003</ele>
        <time>2013-09-04T09:31:31Z</time>
      </trkpt>
      <trkpt lat="50.460266014561057" lon="12.527298023924232">
        <ele>634.61000000000001</ele>
        <time>2013-09-04T09:31:32Z</time>
      </trkpt>
      <trkpt lat="50.460236007347703" lon="12.527520982548594">
        <ele>635.09000000000003</ele>
        <time>2013-09-04T09:31:33Z</time>
      </trkpt>
      <trkpt lat="50.460238019004464" lon="12.527749976143241">
        <ele>634.13</ele>
        <time>2013-09-04T09:31:34Z</time>
      </trkpt>
      <trkpt lat="50.460276994854212" lon="12.527975030243397">
        <ele>634.13</ele>
        <time>2013-09-04T09:31:35Z</time>
      </trkpt>
      <trkpt lat="50.460336003452539" lon="12.528202012181282">
        <ele>633.64999999999998</ele>
        <time>2013-09-04T09:31:36Z</time>
      </trkpt>
      <trkpt lat="50.460414960980415" lon="12.528416002169251">
        <ele>633.64999999999998</ele>
        <time>2013-09-04T09:31:37Z</time>
      </trkpt>
      <trkpt lat="50.460499031469226" lon="12.528617000207305">
        <ele>634.13</ele>
        <time>2013-09-04T09:31:38Z</time>
      </trkpt>
      <trkpt lat="50.460604978725314" lon="12.528817998245358">
        <ele>634.61000000000001</ele>
        <time>2013-09-04T09:31:39Z</time>
      </trkpt>
      <trkpt lat="50.460730958729982" lon="12.528980020433664">
        <ele>634.61000000000001</ele>
        <time>2013-09-04T09:31:40Z</time>
      </trkpt>
      <trkpt lat="50.461001023650169" lon="12.529327031224966">
        <ele>634.13</ele>
        <time>2013-09-04T09:31:42Z</time>
      </trkpt>
      <trkpt lat="50.461091967299581" lon="12.529542027041316">
        <ele>634.61000000000001</ele>
        <time>2013-09-04T09:31:43Z</time>
      </trkpt>
      <trkpt lat="50.461162962019444" lon="12.529805973172188">
        <ele>634.61000000000001</ele>
        <time>2013-09-04T09:31:44Z</time>
      </trkpt>
      <trkpt lat="50.461203027516603" lon="12.530090035870671">
        <ele>635.09000000000003</ele>
        <time>2013-09-04T09:31:45Z</time>
      </trkpt>
      <trkpt lat="50.46121995896101" lon="12.5303890183568">
        <ele>635.57000000000005</ele>
        <time>2013-09-04T09:31:46Z</time>
      </trkpt>
      <trkpt lat="50.461224988102913" lon="12.530691018328071">
        <ele>636.04999999999995</ele>
        <time>2013-09-04T09:31:47Z</time>
      </trkpt>
      <trkpt lat="50.461213001981378" lon="12.531005004420877">
        <ele>636.52999999999997</ele>
        <time>2013-09-04T09:31:48Z</time>
      </trkpt>
      <trkpt lat="50.461134966462851" lon="12.531650997698307">
        <ele>637.49000000000001</ele>
        <time>2013-09-04T09:31:50Z</time>
      </trkpt>
      <trkpt lat="50.461076041683555" lon="12.531964983791113">
        <ele>637.97000000000003</ele>
        <time>2013-09-04T09:31:51Z</time>
      </trkpt>
      <trkpt lat="50.460974033921957" lon="12.532287016510963">
        <ele>638.45000000000005</ele>
        <time>2013-09-04T09:31:52Z</time>
      </trkpt>
      <trkpt lat="50.460892980918288" lon="12.532566972076893">
        <ele>638.45000000000005</ele>
        <time>2013-09-04T09:31:53Z</time>
      </trkpt>
      <trkpt lat="50.460786027833819" lon="12.532829996198416">
        <ele>638.92999999999995</ele>
        <time>2013-09-04T09:31:54Z</time>
      </trkpt>
      <trkpt lat="50.460682008415461" lon="12.533100983127952">
        <ele>639.40999999999997</ele>
        <time>2013-09-04T09:31:55Z</time>
      </trkpt>
      <trkpt lat="50.460587041452527" lon="12.533385967835784">
        <ele>639.40999999999997</ele>
        <time>2013-09-04T09:31:56Z</time>
      </trkpt>
      <trkpt lat="50.460100974887609" lon="12.535650003701448">
        <ele>644.22000000000003</ele>
        <time>2013-09-04T09:32:03Z</time>
      </trkpt>
      <trkpt lat="50.459965020418167" lon="12.536268001422286">
        <ele>645.65999999999997</ele>
        <time>2013-09-04T09:32:05Z</time>
      </trkpt>
      <trkpt lat="50.459936019033194" lon="12.53657897002995">
        <ele>644.70000000000005</ele>
        <time>2013-09-04T09:32:06Z</time>
      </trkpt>
      <trkpt lat="50.45984297990799" lon="12.537152040749788">
        <ele>645.65999999999997</ele>
        <time>2013-09-04T09:32:08Z</time>
      </trkpt>
      <trkpt lat="50.459765028208494" lon="12.537383968010545">
        <ele>646.62</ele>
        <time>2013-09-04T09:32:09Z</time>
      </trkpt>
      <trkpt lat="50.459669977426529" lon="12.537585971876979">
        <ele>647.59000000000003</ele>
        <time>2013-09-04T09:32:10Z</time>
      </trkpt>
      <trkpt lat="50.459547014907002" lon="12.537757968530059">
        <ele>648.54999999999995</ele>
        <time>2013-09-04T09:32:11Z</time>
      </trkpt>
      <trkpt lat="50.459414999932051" lon="12.537894006818533">
        <ele>649.02999999999997</ele>
        <time>2013-09-04T09:32:12Z</time>
      </trkpt>
      <trkpt lat="50.459239985793829" lon="12.537989979609847">
        <ele>649.99000000000001</ele>
        <time>2013-09-04T09:32:13Z</time>
      </trkpt>
      <trkpt lat="50.459064971655607" lon="12.538088969886303">
        <ele>650.47000000000003</ele>
        <time>2013-09-04T09:32:14Z</time>
      </trkpt>
      <trkpt lat="50.458719972521067" lon="12.538332967087626">
        <ele>651.90999999999997</ele>
        <time>2013-09-04T09:32:16Z</time>
      </trkpt>
      <trkpt lat="50.458586029708385" lon="12.538503035902977">
        <ele>652.87</ele>
        <time>2013-09-04T09:32:17Z</time>
      </trkpt>
      <trkpt lat="50.458458960056305" lon="12.538696993142366">
        <ele>653.83000000000004</ele>
        <time>2013-09-04T09:32:18Z</time>
      </trkpt>
      <trkpt lat="50.457236962392926" lon="12.540849968791008">
        <ele>658.63999999999999</ele>
        <time>2013-09-04T09:32:27Z</time>
      </trkpt>
      <trkpt lat="50.456267008557916" lon="12.543175024911761">
        <ele>662.49000000000001</ele>
        <time>2013-09-04T09:32:35Z</time>
      </trkpt>
      <trkpt lat="50.453983023762703" lon="12.549844002351165">
        <ele>672.58000000000004</ele>
        <time>2013-09-04T09:32:56Z</time>
      </trkpt>
      <trkpt lat="50.453242985531688" lon="12.5523910112679">
        <ele>679.78999999999996</ele>
        <time>2013-09-04T09:33:04Z</time>
      </trkpt>
      <trkpt lat="50.45313997194171" lon="12.552652023732662">
        <ele>680.75</ele>
        <time>2013-09-04T09:33:05Z</time>
      </trkpt>
      <trkpt lat="50.453013991937041" lon="12.552897026762366">
        <ele>681.71000000000004</ele>
        <time>2013-09-04T09:33:06Z</time>
      </trkpt>
      <trkpt lat="50.452878037467599" lon="12.553134988993406">
        <ele>683.14999999999998</ele>
        <time>2013-09-04T09:33:07Z</time>
      </trkpt>
      <trkpt lat="50.452738981693983" lon="12.553373035043478">
        <ele>683.63</ele>
        <time>2013-09-04T09:33:08Z</time>
      </trkpt>
      <trkpt lat="50.451483959332108" lon="12.555762967094779">
        <ele>690.84000000000003</ele>
        <time>2013-09-04T09:33:17Z</time>
      </trkpt>
      <trkpt lat="50.451280027627945" lon="12.556375013664365">
        <ele>691.80999999999995</ele>
        <time>2013-09-04T09:33:19Z</time>
      </trkpt>
      <trkpt lat="50.450275037437677" lon="12.559857023879886">
        <ele>701.41999999999996</ele>
        <time>2013-09-04T09:33:30Z</time>
      </trkpt>
      <trkpt lat="50.45010999776423" lon="12.560451971367002">
        <ele>706.23000000000002</ele>
        <time>2013-09-04T09:33:32Z</time>
      </trkpt>
      <trkpt lat="50.45000497251749" lon="12.560708038508892">
        <ele>707.19000000000005</ele>
        <time>2013-09-04T09:33:33Z</time>
      </trkpt>
      <trkpt lat="50.448997970670462" lon="12.562851961702108">
        <ele>720.15999999999997</ele>
        <time>2013-09-04T09:33:41Z</time>
      </trkpt>
      <trkpt lat="50.448000021278858" lon="12.564277974888682">
        <ele>729.77999999999997</ele>
        <time>2013-09-04T09:33:47Z</time>
      </trkpt>
      <trkpt lat="50.446481974795461" lon="12.565571973100305">
        <ele>739.87</ele>
        <time>2013-09-04T09:33:55Z</time>
      </trkpt>
      <trkpt lat="50.446309978142381" lon="12.565766014158726">
        <ele>740.83000000000004</ele>
        <time>2013-09-04T09:33:56Z</time>
      </trkpt>
      <trkpt lat="50.44622004032135" lon="12.565986039116979">
        <ele>742.27999999999997</ele>
        <time>2013-09-04T09:33:57Z</time>
      </trkpt>
      <trkpt lat="50.446115015074611" lon="12.566193994134665">
        <ele>742.75999999999999</ele>
        <time>2013-09-04T09:33:58Z</time>
      </trkpt>
      <trkpt lat="50.446042008697987" lon="12.566430028527975">
        <ele>743.24000000000001</ele>
        <time>2013-09-04T09:33:59Z</time>
      </trkpt>
      <trkpt lat="50.445965984836221" lon="12.566695986315608">
        <ele>744.67999999999995</ele>
        <time>2013-09-04T09:34:00Z</time>
      </trkpt>
      <trkpt lat="50.445890966802835" lon="12.566976025700569">
        <ele>745.63999999999999</ele>
        <time>2013-09-04T09:34:01Z</time>
      </trkpt>
      <trkpt lat="50.445605982095003" lon="12.567814970389009">
        <ele>747.55999999999995</ele>
        <time>2013-09-04T09:34:04Z</time>
      </trkpt>
      <trkpt lat="50.444500995799899" lon="12.569751022383571">
        <ele>756.21000000000004</ele>
        <time>2013-09-04T09:34:12Z</time>
      </trkpt>
      <trkpt lat="50.444324975833297" lon="12.569902986288071">
        <ele>757.65999999999997</ele>
        <time>2013-09-04T09:34:13Z</time>
      </trkpt>
      <trkpt lat="50.444130012765527" lon="12.570004994049668">
        <ele>758.62</ele>
        <time>2013-09-04T09:34:14Z</time>
      </trkpt>
      <trkpt lat="50.443935971707106" lon="12.570031983777881">
        <ele>758.62</ele>
        <time>2013-09-04T09:34:15Z</time>
      </trkpt>
      <trkpt lat="50.443732040002942" lon="12.570046987384558">
        <ele>759.58000000000004</ele>
        <time>2013-09-04T09:34:16Z</time>
      </trkpt>
      <trkpt lat="50.443559037521482" lon="12.570114964619279">
        <ele>760.05999999999995</ele>
        <time>2013-09-04T09:34:17Z</time>
      </trkpt>
      <trkpt lat="50.443393997848034" lon="12.570170033723116">
        <ele>761.5</ele>
        <time>2013-09-04T09:34:18Z</time>
      </trkpt>
      <trkpt lat="50.443237004801631" lon="12.570313028991222">
        <ele>762.46000000000004</ele>
        <time>2013-09-04T09:34:19Z</time>
      </trkpt>
      <trkpt lat="50.442168982699513" lon="12.571702999994159">
        <ele>767.26999999999998</ele>
        <time>2013-09-04T09:34:26Z</time>
      </trkpt>
      <trkpt lat="50.442040991038084" lon="12.571950014680624">
        <ele>766.30999999999995</ele>
        <time>2013-09-04T09:34:27Z</time>
      </trkpt>
      <trkpt lat="50.441950969398022" lon="12.572211027145386">
        <ele>766.30999999999995</ele>
        <time>2013-09-04T09:34:28Z</time>
      </trkpt>
      <trkpt lat="50.441500023007393" lon="12.573622036725283">
        <ele>768.23000000000002</ele>
        <time>2013-09-04T09:34:33Z</time>
      </trkpt>
      <trkpt lat="50.441394997760653" lon="12.573857987299562">
        <ele>768.23000000000002</ele>
        <time>2013-09-04T09:34:34Z</time>
      </trkpt>
      <trkpt lat="50.441263988614082" lon="12.574084969237447">
        <ele>768.71000000000004</ele>
        <time>2013-09-04T09:34:35Z</time>
      </trkpt>
      <trkpt lat="50.440558986738324" lon="12.575577031821012">
        <ele>769.66999999999996</ele>
        <time>2013-09-04T09:34:41Z</time>
      </trkpt>
      <trkpt lat="50.44044298119843" lon="12.575754979625344">
        <ele>770.14999999999998</ele>
        <time>2013-09-04T09:34:42Z</time>
      </trkpt>
      <trkpt lat="50.440305015072227" lon="12.575900992378592">
        <ele>770.14999999999998</ele>
        <time>2013-09-04T09:34:43Z</time>
      </trkpt>
      <trkpt lat="50.440145004540682" lon="12.575994031503797">
        <ele>770.63</ele>
        <time>2013-09-04T09:34:44Z</time>
      </trkpt>
      <trkpt lat="50.439980970695615" lon="12.576096961274743">
        <ele>771.60000000000002</ele>
        <time>2013-09-04T09:34:45Z</time>
      </trkpt>
      <trkpt lat="50.438762996345758" lon="12.577071022242308">
        <ele>774.96000000000004</ele>
        <time>2013-09-04T09:34:52Z</time>
      </trkpt>
      <trkpt lat="50.438342979177833" lon="12.577601009979844">
        <ele>776.88</ele>
        <time>2013-09-04T09:34:55Z</time>
      </trkpt>
      <trkpt lat="50.438267961144447" lon="12.57782899774611">
        <ele>776.88</ele>
        <time>2013-09-04T09:34:56Z</time>
      </trkpt>
      <trkpt lat="50.437510991469026" lon="12.57954896427691">
        <ele>780.73000000000002</ele>
        <time>2013-09-04T09:35:05Z</time>
      </trkpt>
      <trkpt lat="50.437298007309437" lon="12.580103008076549">
        <ele>782.16999999999996</ele>
        <time>2013-09-04T09:35:08Z</time>
      </trkpt>
      <trkpt lat="50.437266994267702" lon="12.580297971144319">
        <ele>783.13</ele>
        <time>2013-09-04T09:35:09Z</time>
      </trkpt>
      <trkpt lat="50.437057027593255" lon="12.581221992149949">
        <ele>786.5</ele>
        <time>2013-09-04T09:35:14Z</time>
      </trkpt>
      <trkpt lat="50.436483034864068" lon="12.58281396701932">
        <ele>803.32000000000005</ele>
        <time>2013-09-04T09:35:24Z</time>
      </trkpt>
      <trkpt lat="50.435779960826039" lon="12.583949966356158">
        <ele>811.49000000000001</ele>
        <time>2013-09-04T09:35:33Z</time>
      </trkpt>
      <trkpt lat="50.435710977762938" lon="12.584109976887703">
        <ele>811.97000000000003</ele>
        <time>2013-09-04T09:35:34Z</time>
      </trkpt>
      <trkpt lat="50.435385005548596" lon="12.585657024756074">
        <ele>810.52999999999997</ele>
        <time>2013-09-04T09:35:44Z</time>
      </trkpt>
      <trkpt lat="50.435310993343592" lon="12.586070001125336">
        <ele>812.45000000000005</ele>
        <time>2013-09-04T09:35:47Z</time>
      </trkpt>
      <trkpt lat="50.435308981686831" lon="12.586216013878584">
        <ele>812.92999999999995</ele>
        <time>2013-09-04T09:35:48Z</time>
      </trkpt>
      <trkpt lat="50.435320967808366" lon="12.58635900914669">
        <ele>812.45000000000005</ele>
        <time>2013-09-04T09:35:49Z</time>
      </trkpt>
      <trkpt lat="50.435337983071804" lon="12.586505021899939">
        <ele>813.40999999999997</ele>
        <time>2013-09-04T09:35:50Z</time>
      </trkpt>
      <trkpt lat="50.435362961143255" lon="12.586650028824806">
        <ele>813.88999999999999</ele>
        <time>2013-09-04T09:35:51Z</time>
      </trkpt>
      <trkpt lat="50.435409983620048" lon="12.586949011310935">
        <ele>814.37</ele>
        <time>2013-09-04T09:35:53Z</time>
      </trkpt>
      <trkpt lat="50.435423981398344" lon="12.588028013706207">
        <ele>816.77999999999997</ele>
        <time>2013-09-04T09:36:00Z</time>
      </trkpt>
      <trkpt lat="50.435378970578313" lon="12.588180983439088">
        <ele>817.25999999999999</ele>
        <time>2013-09-04T09:36:01Z</time>
      </trkpt>
      <trkpt lat="50.434717973694205" lon="12.589919976890087">
        <ele>821.58000000000004</ele>
        <time>2013-09-04T09:36:11Z</time>
      </trkpt>
      <trkpt lat="50.434392001479864" lon="12.590774009004235">
        <ele>824.47000000000003</ele>
        <time>2013-09-04T09:36:16Z</time>
      </trkpt>
      <trkpt lat="50.434298040345311" lon="12.590919015929103">
        <ele>824.95000000000005</ele>
        <time>2013-09-04T09:36:17Z</time>
      </trkpt>
      <trkpt lat="50.433384999632835" lon="12.592507973313332">
        <ele>833.12</ele>
        <time>2013-09-04T09:36:27Z</time>
      </trkpt>
      <trkpt lat="50.433268994092941" lon="12.592873005196452">
        <ele>834.55999999999995</ele>
        <time>2013-09-04T09:36:29Z</time>
      </trkpt>
      <trkpt lat="50.433240998536348" lon="12.593067968264222">
        <ele>835.03999999999996</ele>
        <time>2013-09-04T09:36:30Z</time>
      </trkpt>
      <trkpt lat="50.433236975222826" lon="12.593266032636166">
        <ele>836.48000000000002</ele>
        <time>2013-09-04T09:36:31Z</time>
      </trkpt>
      <trkpt lat="50.433242004364729" lon="12.593469964340329">
        <ele>837.45000000000005</ele>
        <time>2013-09-04T09:36:32Z</time>
      </trkpt>
      <trkpt lat="50.433250973001122" lon="12.593673979863524">
        <ele>838.88999999999999</ele>
        <time>2013-09-04T09:36:33Z</time>
      </trkpt>
      <trkpt lat="50.433354992419481" lon="12.596175977960229">
        <ele>851.38</ele>
        <time>2013-09-04T09:36:45Z</time>
      </trkpt>
      <trkpt lat="50.433269999921322" lon="12.59821998886764">
        <ele>856.66999999999996</ele>
        <time>2013-09-04T09:36:55Z</time>
      </trkpt>
      <trkpt lat="50.433289026841521" lon="12.598414029926062">
        <ele>855.23000000000002</ele>
        <time>2013-09-04T09:36:56Z</time>
      </trkpt>
      <trkpt lat="50.433316016569734" lon="12.598609998822212">
        <ele>856.19000000000005</ele>
        <time>2013-09-04T09:36:57Z</time>
      </trkpt>
      <trkpt lat="50.433358009904623" lon="12.59879800491035">
        <ele>856.19000000000005</ele>
        <time>2013-09-04T09:36:58Z</time>
      </trkpt>
      <trkpt lat="50.433406960219145" lon="12.598982993513346">
        <ele>857.63</ele>
        <time>2013-09-04T09:36:59Z</time>
      </trkpt>
      <trkpt lat="50.433465968817472" lon="12.599170999601483">
        <ele>858.59000000000003</ele>
        <time>2013-09-04T09:37:00Z</time>
      </trkpt>
      <trkpt lat="50.434504989534616" lon="12.601838037371635">
        <ele>871.57000000000005</ele>
        <time>2013-09-04T09:37:15Z</time>
      </trkpt>
      <trkpt lat="50.435491036623716" lon="12.605405040085316">
        <ele>886.95000000000005</ele>
        <time>2013-09-04T09:37:33Z</time>
      </trkpt>
      <trkpt lat="50.436171982437372" lon="12.607824979349971">
        <ele>886.47000000000003</ele>
        <time>2013-09-04T09:37:45Z</time>
      </trkpt>
      <trkpt lat="50.436216993257403" lon="12.607940984889865">
        <ele>883.11000000000001</ele>
        <time>2013-09-04T09:37:46Z</time>
      </trkpt>
      <trkpt lat="50.436298968270421" lon="12.608013991266489">
        <ele>881.19000000000005</ele>
        <time>2013-09-04T09:37:47Z</time>
      </trkpt>
      <trkpt lat="50.436569033190608" lon="12.607984989881516">
        <ele>874.94000000000005</ele>
        <time>2013-09-04T09:37:51Z</time>
      </trkpt>
      <trkpt lat="50.436654025688767" lon="12.607838977128267">
        <ele>873.5</ele>
        <time>2013-09-04T09:37:52Z</time>
      </trkpt>
      <trkpt lat="50.436732983216643" lon="12.607745015993714">
        <ele>872.52999999999997</ele>
        <time>2013-09-04T09:37:53Z</time>
      </trkpt>
      <trkpt lat="50.437850039452314" lon="12.606763998046517">
        <ele>866.28999999999996</ele>
        <time>2013-09-04T09:38:00Z</time>
      </trkpt>
      <trkpt lat="50.43837902136147" lon="12.606349010020494">
        <ele>861.96000000000004</ele>
        <time>2013-09-04T09:38:04Z</time>
      </trkpt>
      <trkpt lat="50.438526961952448" lon="12.60634196922183">
        <ele>861</ele>
        <time>2013-09-04T09:38:05Z</time>
      </trkpt>
      <trkpt lat="50.438698036596179" lon="12.60638102889061">
        <ele>859.55999999999995</ele>
        <time>2013-09-04T09:38:06Z</time>
      </trkpt>
      <trkpt lat="50.439556008204818" lon="12.606624020263553">
        <ele>851.38</ele>
        <time>2013-09-04T09:38:12Z</time>
      </trkpt>
      <trkpt lat="50.439614010974765" lon="12.606780007481575">
        <ele>849.94000000000005</ele>
        <time>2013-09-04T09:38:13Z</time>
      </trkpt>
      <trkpt lat="50.439676959067583" lon="12.606947980821133">
        <ele>848.5</ele>
        <time>2013-09-04T09:38:14Z</time>
      </trkpt>
      <trkpt lat="50.439716018736362" lon="12.607163982465863">
        <ele>847.53999999999996</ele>
        <time>2013-09-04T09:38:15Z</time>
      </trkpt>
      <trkpt lat="50.439734039828181" lon="12.60741401463747">
        <ele>846.58000000000004</ele>
        <time>2013-09-04T09:38:16Z</time>
      </trkpt>
      <trkpt lat="50.439752982929349" lon="12.607677960768342">
        <ele>845.62</ele>
        <time>2013-09-04T09:38:17Z</time>
      </trkpt>
      <trkpt lat="50.439979964867234" lon="12.610350027680397">
        <ele>835.03999999999996</ele>
        <time>2013-09-04T09:38:26Z</time>
      </trkpt>
      <trkpt lat="50.439978037029505" lon="12.610655967146158">
        <ele>834.08000000000004</ele>
        <time>2013-09-04T09:38:27Z</time>
      </trkpt>
      <trkpt lat="50.439955992624164" lon="12.610968025401235">
        <ele>832.15999999999997</ele>
        <time>2013-09-04T09:38:28Z</time>
      </trkpt>
      <trkpt lat="50.439708977937698" lon="12.613315964117646">
        <ele>820.62</ele>
        <time>2013-09-04T09:38:36Z</time>
      </trkpt>
      <trkpt lat="50.439633037894964" lon="12.613562978804111">
        <ele>818.70000000000005</ele>
        <time>2013-09-04T09:38:37Z</time>
      </trkpt>
      <trkpt lat="50.439401026815176" lon="12.614347022026777">
        <ele>813.88999999999999</ele>
        <time>2013-09-04T09:38:40Z</time>
      </trkpt>
      <trkpt lat="50.438972963020205" lon="12.61716996319592">
        <ele>799.47000000000003</ele>
        <time>2013-09-04T09:38:49Z</time>
      </trkpt>
      <trkpt lat="50.438949996605515" lon="12.619326040148735">
        <ele>784.57000000000005</ele>
        <time>2013-09-04T09:38:56Z</time>
      </trkpt>
      <trkpt lat="50.439012022688985" lon="12.620125003159046">
        <ele>780.25</ele>
        <time>2013-09-04T09:39:00Z</time>
      </trkpt>
      <trkpt lat="50.439069019630551" lon="12.620261963456869">
        <ele>779.76999999999998</ele>
        <time>2013-09-04T09:39:01Z</time>
      </trkpt>
      <trkpt lat="50.439149988815188" lon="12.620364977046847">
        <ele>779.28999999999996</ele>
        <time>2013-09-04T09:39:02Z</time>
      </trkpt>
      <trkpt lat="50.439263982698321" lon="12.620427003130317">
        <ele>777.84000000000003</ele>
        <time>2013-09-04T09:39:03Z</time>
      </trkpt>
      <trkpt lat="50.439418964087963" lon="12.620445024222136">
        <ele>776.39999999999998</ele>
        <time>2013-09-04T09:39:04Z</time>
      </trkpt>
      <trkpt lat="50.439569000154734" lon="12.620472013950348">
        <ele>775.91999999999996</ele>
        <time>2013-09-04T09:39:05Z</time>
      </trkpt>
      <trkpt lat="50.441014962270856" lon="12.620710982009768">
        <ele>771.60000000000002</ele>
        <time>2013-09-04T09:39:13Z</time>
      </trkpt>
      <trkpt lat="50.441949963569641" lon="12.621148014441133">
        <ele>767.75</ele>
        <time>2013-09-04T09:39:18Z</time>
      </trkpt>
      <trkpt lat="50.44211802072823" lon="12.621284974738955">
        <ele>766.78999999999996</ele>
        <time>2013-09-04T09:39:19Z</time>
      </trkpt>
      <trkpt lat="50.443561971187592" lon="12.622999995946884">
        <ele>757.17999999999995</ele>
        <time>2013-09-04T09:39:28Z</time>
      </trkpt>
      <trkpt lat="50.445009022951126" lon="12.624101964756846">
        <ele>749.97000000000003</ele>
        <time>2013-09-04T09:39:36Z</time>
      </trkpt>
      <trkpt lat="50.446000015363097" lon="12.625003019347787">
        <ele>744.20000000000005</ele>
        <time>2013-09-04T09:39:43Z</time>
      </trkpt>
      <trkpt lat="50.446577025577426" lon="12.625779015943408">
        <ele>741.30999999999995</ele>
        <time>2013-09-04T09:39:49Z</time>
      </trkpt>
      <trkpt lat="50.44710299000144" lon="12.626764979213476">
        <ele>736.50999999999999</ele>
        <time>2013-09-04T09:39:56Z</time>
      </trkpt>
      <trkpt lat="50.447156969457865" lon="12.626920966431499">
        <ele>736.02999999999997</ele>
        <time>2013-09-04T09:39:57Z</time>
      </trkpt>
      <trkpt lat="50.447215978056192" lon="12.627093968912959">
        <ele>735.07000000000005</ele>
        <time>2013-09-04T09:39:58Z</time>
      </trkpt>
      <trkpt lat="50.447750994935632" lon="12.628949973732233">
        <ele>729.29999999999995</ele>
        <time>2013-09-04T09:40:08Z</time>
      </trkpt>
      <trkpt lat="50.447828024625778" lon="12.629082994535565">
        <ele>728.82000000000005</ele>
        <time>2013-09-04T09:40:09Z</time>
      </trkpt>
      <trkpt lat="50.447916034609079" lon="12.62922003865242">
        <ele>729.29999999999995</ele>
        <time>2013-09-04T09:40:10Z</time>
      </trkpt>
      <trkpt lat="50.448837038129568" lon="12.630258975550532">
        <ele>723.52999999999997</ele>
        <time>2013-09-04T09:40:20Z</time>
      </trkpt>
      <trkpt lat="50.44937901198864" lon="12.630880996584892">
        <ele>723.04999999999995</ele>
        <time>2013-09-04T09:40:27Z</time>
      </trkpt>
      <trkpt lat="50.449490994215012" lon="12.631147038191557">
        <ele>722.09000000000003</ele>
        <time>2013-09-04T09:40:33Z</time>
      </trkpt>
      <trkpt lat="50.449493005871773" lon="12.631172016263008">
        <ele>721.61000000000001</ele>
        <time>2013-09-04T09:40:35Z</time>
      </trkpt>
      <trkpt lat="50.449489988386631" lon="12.631205040961504">
        <ele>721.61000000000001</ele>
        <time>2013-09-04T09:40:36Z</time>
      </trkpt>
      <trkpt lat="50.449473978951573" lon="12.631251979619265">
        <ele>721.61000000000001</ele>
        <time>2013-09-04T09:40:37Z</time>
      </trkpt>
      <trkpt lat="50.449438020586967" lon="12.631302019581199">
        <ele>721.61000000000001</ele>
        <time>2013-09-04T09:40:38Z</time>
      </trkpt>
      <trkpt lat="50.449384041130543" lon="12.631340995430946">
        <ele>721.61000000000001</ele>
        <time>2013-09-04T09:40:39Z</time>
      </trkpt>
      <trkpt lat="50.449311034753919" lon="12.6313900295645">
        <ele>721.13</ele>
        <time>2013-09-04T09:40:40Z</time>
      </trkpt>
      <trkpt lat="50.448552975431085" lon="12.631901996210217">
        <ele>721.13</ele>
        <time>2013-09-04T09:40:47Z</time>
      </trkpt>
      <trkpt lat="50.447268029674888" lon="12.63278896920383">
        <ele>723.52999999999997</ele>
        <time>2013-09-04T09:40:55Z</time>
      </trkpt>
      <trkpt lat="50.445798011496663" lon="12.633859002962708">
        <ele>730.74000000000001</ele>
        <time>2013-09-04T09:41:02Z</time>
      </trkpt>
      <trkpt lat="50.443218983709812" lon="12.635724982246757">
        <ele>741.30999999999995</ele>
        <time>2013-09-04T09:41:14Z</time>
      </trkpt>
      <trkpt lat="50.44035698287189" lon="12.637594984844327">
        <ele>749.97000000000003</ele>
        <time>2013-09-04T09:41:27Z</time>
      </trkpt>
      <trkpt lat="50.439905030652881" lon="12.63796697370708">
        <ele>750.45000000000005</ele>
        <time>2013-09-04T09:41:29Z</time>
      </trkpt>
      <trkpt lat="50.43973496183753" lon="12.638168977573514">
        <ele>749.97000000000003</ele>
        <time>2013-09-04T09:41:30Z</time>
      </trkpt>
      <trkpt lat="50.43956195935607" lon="12.638395959511399">
        <ele>749.49000000000001</ele>
        <time>2013-09-04T09:41:31Z</time>
      </trkpt>
      <trkpt lat="50.439402032643557" lon="12.638649009168148">
        <ele>749.97000000000003</ele>
        <time>2013-09-04T09:41:32Z</time>
      </trkpt>
      <trkpt lat="50.439249984920025" lon="12.638912033289671">
        <ele>749.97000000000003</ele>
        <time>2013-09-04T09:41:33Z</time>
      </trkpt>
      <trkpt lat="50.43775700032711" lon="12.641760958358645">
        <ele>751.40999999999997</ele>
        <time>2013-09-04T09:41:43Z</time>
      </trkpt>
      <trkpt lat="50.436557969078422" lon="12.643918041139841">
        <ele>752.85000000000002</ele>
        <time>2013-09-04T09:41:51Z</time>
      </trkpt>
      <trkpt lat="50.436386978253722" lon="12.644079979509115">
        <ele>753.33000000000004</ele>
        <time>2013-09-04T09:41:52Z</time>
      </trkpt>
      <trkpt lat="50.436205007135868" lon="12.644205037504435">
        <ele>753.33000000000004</ele>
        <time>2013-09-04T09:41:53Z</time>
      </trkpt>
      <trkpt lat="50.436027981340885" lon="12.64428298920393">
        <ele>753.33000000000004</ele>
        <time>2013-09-04T09:41:54Z</time>
      </trkpt>
      <trkpt lat="50.435859002172947" lon="12.644340991973877">
        <ele>753.80999999999995</ele>
        <time>2013-09-04T09:41:55Z</time>
      </trkpt>
      <trkpt lat="50.434680003672838" lon="12.644735025241971">
        <ele>754.28999999999996</ele>
        <time>2013-09-04T09:42:03Z</time>
      </trkpt>
      <trkpt lat="50.433980030938983" lon="12.645128974691033">
        <ele>753.33000000000004</ele>
        <time>2013-09-04T09:42:08Z</time>
      </trkpt>
      <trkpt lat="50.433864025399089" lon="12.645257972180843">
        <ele>753.80999999999995</ele>
        <time>2013-09-04T09:42:09Z</time>
      </trkpt>
      <trkpt lat="50.432756021618843" lon="12.646771995350718">
        <ele>762.46000000000004</ele>
        <time>2013-09-04T09:42:18Z</time>
      </trkpt>
      <trkpt lat="50.432115979492664" lon="12.647871030494571">
        <ele>777.36000000000001</ele>
        <time>2013-09-04T09:42:24Z</time>
      </trkpt>
      <trkpt lat="50.431983964517713" lon="12.648007990792394">
        <ele>779.28999999999996</ele>
        <time>2013-09-04T09:42:25Z</time>
      </trkpt>
      <trkpt lat="50.431850021705031" lon="12.648121984675527">
        <ele>781.21000000000004</ele>
        <time>2013-09-04T09:42:26Z</time>
      </trkpt>
      <trkpt lat="50.43169897980988" lon="12.648212006315589">
        <ele>783.13</ele>
        <time>2013-09-04T09:42:27Z</time>
      </trkpt>
      <trkpt lat="50.431552967056632" lon="12.648280989378691">
        <ele>784.57000000000005</ele>
        <time>2013-09-04T09:42:28Z</time>
      </trkpt>
      <trkpt lat="50.431399997323751" lon="12.648335974663496">
        <ele>786.01999999999998</ele>
        <time>2013-09-04T09:42:29Z</time>
      </trkpt>
      <trkpt lat="50.430892976000905" lon="12.648525992408395">
        <ele>791.77999999999997</ele>
        <time>2013-09-04T09:42:33Z</time>
      </trkpt>
      <trkpt lat="50.430788034573197" lon="12.648619031533599">
        <ele>792.74000000000001</ele>
        <time>2013-09-04T09:42:34Z</time>
      </trkpt>
      <trkpt lat="50.43070899322629" lon="12.648738976567984">
        <ele>794.19000000000005</ele>
        <time>2013-09-04T09:42:35Z</time>
      </trkpt>
      <trkpt lat="50.430663982406259" lon="12.648884989321232">
        <ele>795.14999999999998</ele>
        <time>2013-09-04T09:42:36Z</time>
      </trkpt>
      <trkpt lat="50.43064696714282" lon="12.649052040651441">
        <ele>796.11000000000001</ele>
        <time>2013-09-04T09:42:37Z</time>
      </trkpt>
      <trkpt lat="50.430662976577878" lon="12.649228982627392">
        <ele>796.59000000000003</ele>
        <time>2013-09-04T09:42:38Z</time>
      </trkpt>
      <trkpt lat="50.430711004883051" lon="12.649382958188653">
        <ele>798.02999999999997</ele>
        <time>2013-09-04T09:42:39Z</time>
      </trkpt>
      <trkpt lat="50.430777976289392" lon="12.649530982598662">
        <ele>799.47000000000003</ele>
        <time>2013-09-04T09:42:40Z</time>
      </trkpt>
      <trkpt lat="50.43085802346468" lon="12.649665009230375">
        <ele>800.44000000000005</ele>
        <time>2013-09-04T09:42:41Z</time>
      </trkpt>
      <trkpt lat="50.430970005691051" lon="12.649777997285128">
        <ele>801.39999999999998</ele>
        <time>2013-09-04T09:42:42Z</time>
      </trkpt>
      <trkpt lat="50.431104032322764" lon="12.649855026975274">
        <ele>801.88</ele>
        <time>2013-09-04T09:42:43Z</time>
      </trkpt>
      <trkpt lat="50.431278040632606" lon="12.649896014481783">
        <ele>802.36000000000001</ele>
        <time>2013-09-04T09:42:44Z</time>
      </trkpt>
      <trkpt lat="50.431498987600207" lon="12.649950999766588">
        <ele>803.32000000000005</ele>
        <time>2013-09-04T09:42:45Z</time>
      </trkpt>
      <trkpt lat="50.432762978598475" lon="12.650374034419656">
        <ele>809.09000000000003</ele>
        <time>2013-09-04T09:42:51Z</time>
      </trkpt>
      <trkpt lat="50.43298501521349" lon="12.650301028043032">
        <ele>809.09000000000003</ele>
        <time>2013-09-04T09:42:52Z</time>
      </trkpt>
      <trkpt lat="50.433170003816485" lon="12.650245958939195">
        <ele>809.57000000000005</ele>
        <time>2013-09-04T09:42:53Z</time>
      </trkpt>
      <trkpt lat="50.433367984369397" lon="12.650154009461403">
        <ele>811.00999999999999</ele>
        <time>2013-09-04T09:42:54Z</time>
      </trkpt>
      <trkpt lat="50.433533024042845" lon="12.650076979771256">
        <ele>811.97000000000003</ele>
        <time>2013-09-04T09:42:55Z</time>
      </trkpt>
      <trkpt lat="50.433890009298921" lon="12.649946976453066">
        <ele>813.88999999999999</ele>
        <time>2013-09-04T09:42:57Z</time>
      </trkpt>
      <trkpt lat="50.434072986245155" lon="12.649915041401982">
        <ele>814.85000000000002</ele>
        <time>2013-09-04T09:42:58Z</time>
      </trkpt>
      <trkpt lat="50.434267027303576" lon="12.64991101808846">
        <ele>815.82000000000005</ele>
        <time>2013-09-04T09:42:59Z</time>
      </trkpt>
      <trkpt lat="50.434456961229444" lon="12.649937001988292">
        <ele>817.25999999999999</ele>
        <time>2013-09-04T09:43:00Z</time>
      </trkpt>
      <trkpt lat="50.434643961489201" lon="12.650010008364916">
        <ele>818.22000000000003</ele>
        <time>2013-09-04T09:43:01Z</time>
      </trkpt>
      <trkpt lat="50.434833979234099" lon="12.650118973106146">
        <ele>818.70000000000005</ele>
        <time>2013-09-04T09:43:02Z</time>
      </trkpt>
      <trkpt lat="50.435185013338923" lon="12.650397000834346">
        <ele>820.13999999999999</ele>
        <time>2013-09-04T09:43:04Z</time>
      </trkpt>
      <trkpt lat="50.435334965586662" lon="12.650586012750864">
        <ele>821.10000000000002</ele>
        <time>2013-09-04T09:43:05Z</time>
      </trkpt>
      <trkpt lat="50.435463041067123" lon="12.650872003287077">
        <ele>821.10000000000002</ele>
        <time>2013-09-04T09:43:06Z</time>
      </trkpt>
      <trkpt lat="50.435856990516186" lon="12.651540040969849">
        <ele>830.24000000000001</ele>
        <time>2013-09-04T09:43:09Z</time>
      </trkpt>
      <trkpt lat="50.43603996746242" lon="12.651663003489375">
        <ele>830.72000000000003</ele>
        <time>2013-09-04T09:43:10Z</time>
      </trkpt>
      <trkpt lat="50.436227973550558" lon="12.651747995987535">
        <ele>832.63999999999999</ele>
        <time>2013-09-04T09:43:11Z</time>
      </trkpt>
      <trkpt lat="50.437137996777892" lon="12.652376974001527">
        <ele>839.37</ele>
        <time>2013-09-04T09:43:16Z</time>
      </trkpt>
      <trkpt lat="50.437596989795566" lon="12.65294199809432">
        <ele>842.73000000000002</ele>
        <time>2013-09-04T09:43:19Z</time>
      </trkpt>
      <trkpt lat="50.437718024477363" lon="12.653164034709334">
        <ele>843.69000000000005</ele>
        <time>2013-09-04T09:43:20Z</time>
      </trkpt>
      <trkpt lat="50.437792958691716" lon="12.653433009982109">
        <ele>846.58000000000004</ele>
        <time>2013-09-04T09:43:21Z</time>
      </trkpt>
      <trkpt lat="50.437837969511747" lon="12.653717994689941">
        <ele>848.01999999999998</ele>
        <time>2013-09-04T09:43:22Z</time>
      </trkpt>
      <trkpt lat="50.437870994210243" lon="12.654002979397774">
        <ele>848.98000000000002</ele>
        <time>2013-09-04T09:43:23Z</time>
      </trkpt>
      <trkpt lat="50.437901001423597" lon="12.654291987419128">
        <ele>848.98000000000002</ele>
        <time>2013-09-04T09:43:24Z</time>
      </trkpt>
      <trkpt lat="50.438172994181514" lon="12.657665032893419">
        <ele>848.5</ele>
        <time>2013-09-04T09:43:36Z</time>
      </trkpt>
      <trkpt lat="50.438501983880997" lon="12.660733982920647">
        <ele>840.80999999999995</ele>
        <time>2013-09-04T09:43:46Z</time>
      </trkpt>
      <trkpt lat="50.438579013571143" lon="12.661014022305608">
        <ele>840.33000000000004</ele>
        <time>2013-09-04T09:43:47Z</time>
      </trkpt>
      <trkpt lat="50.438669035211205" lon="12.661276962608099">
        <ele>839.37</ele>
        <time>2013-09-04T09:43:48Z</time>
      </trkpt>
      <trkpt lat="50.439987005665898" lon="12.664684960618615">
        <ele>832.15999999999997</ele>
        <time>2013-09-04T09:44:01Z</time>
      </trkpt>
      <trkpt lat="50.440701982006431" lon="12.666665017604828">
        <ele>828.78999999999996</ele>
        <time>2013-09-04T09:44:09Z</time>
      </trkpt>
      <trkpt lat="50.440753027796745" lon="12.666908008977771">
        <ele>828.30999999999995</ele>
        <time>2013-09-04T09:44:10Z</time>
      </trkpt>
      <trkpt lat="50.440804995596409" lon="12.667135996744037">
        <ele>827.35000000000002</ele>
        <time>2013-09-04T09:44:11Z</time>
      </trkpt>
      <trkpt lat="50.441110013052821" lon="12.668598974123597">
        <ele>825.42999999999995</ele>
        <time>2013-09-04T09:44:19Z</time>
      </trkpt>
      <trkpt lat="50.441378988325596" lon="12.669798005372286">
        <ele>824.47000000000003</ele>
        <time>2013-09-04T09:44:27Z</time>
      </trkpt>
      <trkpt lat="50.441744020208716" lon="12.671868000179529">
        <ele>824.47000000000003</ele>
        <time>2013-09-04T09:44:37Z</time>
      </trkpt>
      <trkpt lat="50.442362017929554" lon="12.675414970144629">
        <ele>815.82000000000005</ele>
        <time>2013-09-04T09:44:53Z</time>
      </trkpt>
      <trkpt lat="50.442637028172612" lon="12.678193990141153">
        <ele>808.61000000000001</ele>
        <time>2013-09-04T09:45:05Z</time>
      </trkpt>
      <trkpt lat="50.442771976813674" lon="12.67953802831471">
        <ele>806.67999999999995</ele>
        <time>2013-09-04T09:45:11Z</time>
      </trkpt>
      <trkpt lat="50.442745992913842" lon="12.679757969453931">
        <ele>806.67999999999995</ele>
        <time>2013-09-04T09:45:12Z</time>
      </trkpt>
      <trkpt lat="50.442708022892475" lon="12.679987968876958">
        <ele>808.13</ele>
        <time>2013-09-04T09:45:13Z</time>
      </trkpt>
      <trkpt lat="50.442179040983319" lon="12.682616030797362">
        <ele>811.49000000000001</ele>
        <time>2013-09-04T09:45:25Z</time>
      </trkpt>
      <trkpt lat="50.441659027710557" lon="12.686154032126069">
        <ele>825.90999999999997</ele>
        <time>2013-09-04T09:45:41Z</time>
      </trkpt>
      <trkpt lat="50.441066008061171" lon="12.690163012593985">
        <ele>844.65999999999997</ele>
        <time>2013-09-04T09:45:59Z</time>
      </trkpt>
      <trkpt lat="50.440670968964696" lon="12.692352030426264">
        <ele>854.75</ele>
        <time>2013-09-04T09:46:09Z</time>
      </trkpt>
      <trkpt lat="50.440337033942342" lon="12.694996017962694">
        <ele>865.32000000000005</ele>
        <time>2013-09-04T09:46:21Z</time>
      </trkpt>
      <trkpt lat="50.439922967925668" lon="12.698126994073391">
        <ele>878.77999999999997</ele>
        <time>2013-09-04T09:46:35Z</time>
      </trkpt>
      <trkpt lat="50.439475039020181" lon="12.70057400688529">
        <ele>882.14999999999998</ele>
        <time>2013-09-04T09:46:46Z</time>
      </trkpt>
      <trkpt lat="50.438913032412529" lon="12.70321698859334">
        <ele>874.94000000000005</ele>
        <time>2013-09-04T09:46:58Z</time>
      </trkpt>
      <trkpt lat="50.438796021044254" lon="12.703628959134221">
        <ele>873.00999999999999</ele>
        <time>2013-09-04T09:47:00Z</time>
      </trkpt>
      <trkpt lat="50.438741035759449" lon="12.703834986314178">
        <ele>871.57000000000005</ele>
        <time>2013-09-04T09:47:01Z</time>
      </trkpt>
      <trkpt lat="50.438631987199187" lon="12.704245029017329">
        <ele>869.64999999999998</ele>
        <time>2013-09-04T09:47:03Z</time>
      </trkpt>
      <trkpt lat="50.438548000529408" lon="12.704411996528506">
        <ele>868.69000000000005</ele>
        <time>2013-09-04T09:47:04Z</time>
      </trkpt>
      <trkpt lat="50.438452027738094" lon="12.704555997624993">
        <ele>867.73000000000002</ele>
        <time>2013-09-04T09:47:05Z</time>
      </trkpt>
      <trkpt lat="50.438347002491355" lon="12.704670997336507">
        <ele>866.76999999999998</ele>
        <time>2013-09-04T09:47:06Z</time>
      </trkpt>
      <trkpt lat="50.4382289852947" lon="12.704787002876401">
        <ele>865.79999999999995</ele>
        <time>2013-09-04T09:47:07Z</time>
      </trkpt>
      <trkpt lat="50.437102038413286" lon="12.705941023305058">
        <ele>856.66999999999996</ele>
        <time>2013-09-04T09:47:17Z</time>
      </trkpt>
      <trkpt lat="50.436077015474439" lon="12.70706101320684">
        <ele>848.01999999999998</ele>
        <time>2013-09-04T09:47:27Z</time>
      </trkpt>
      <trkpt lat="50.436003003269434" lon="12.707207025960088">
        <ele>847.05999999999995</ele>
        <time>2013-09-04T09:47:28Z</time>
      </trkpt>
      <trkpt lat="50.43595103546977" lon="12.707382962107658">
        <ele>846.58000000000004</ele>
        <time>2013-09-04T09:47:29Z</time>
      </trkpt>
      <trkpt lat="50.435913987457752" lon="12.707583038136363">
        <ele>846.10000000000002</ele>
        <time>2013-09-04T09:47:30Z</time>
      </trkpt>
      <trkpt lat="50.43591096997261" lon="12.707787975668907">
        <ele>845.13999999999999</ele>
        <time>2013-09-04T09:47:31Z</time>
      </trkpt>
      <trkpt lat="50.435918010771275" lon="12.708000959828496">
        <ele>844.17999999999995</ele>
        <time>2013-09-04T09:47:32Z</time>
      </trkpt>
      <trkpt lat="50.436093024909496" lon="12.710076989606023">
        <ele>828.78999999999996</ele>
        <time>2013-09-04T09:47:41Z</time>
      </trkpt>
      <trkpt lat="50.436603985726833" lon="12.711609033867717">
        <ele>816.29999999999995</ele>
        <time>2013-09-04T09:47:48Z</time>
      </trkpt>
      <trkpt lat="50.437039006501436" lon="12.713547013700008">
        <ele>806.20000000000005</ele>
        <time>2013-09-04T09:47:56Z</time>
      </trkpt>
      <trkpt lat="50.437185019254684" lon="12.714564995840192">
        <ele>800.44000000000005</ele>
        <time>2013-09-04T09:48:00Z</time>
      </trkpt>
      <trkpt lat="50.437169009819627" lon="12.714828019961715">
        <ele>798.99000000000001</ele>
        <time>2013-09-04T09:48:01Z</time>
      </trkpt>
      <trkpt lat="50.436916965991259" lon="12.716761976480484">
        <ele>789.38</ele>
        <time>2013-09-04T09:48:09Z</time>
      </trkpt>
      <trkpt lat="50.436935992911458" lon="12.716991975903511">
        <ele>787.94000000000005</ele>
        <time>2013-09-04T09:48:10Z</time>
      </trkpt>
      <trkpt lat="50.436986032873392" lon="12.717201020568609">
        <ele>786.98000000000002</ele>
        <time>2013-09-04T09:48:11Z</time>
      </trkpt>
      <trkpt lat="50.437060967087746" lon="12.717381985858083">
        <ele>786.01999999999998</ele>
        <time>2013-09-04T09:48:12Z</time>
      </trkpt>
      <trkpt lat="50.437157023698092" lon="12.71752699278295">
        <ele>785.04999999999995</ele>
        <time>2013-09-04T09:48:13Z</time>
      </trkpt>
      <trkpt lat="50.437288032844663" lon="12.717630006372929">
        <ele>782.64999999999998</ele>
        <time>2013-09-04T09:48:14Z</time>
      </trkpt>
      <trkpt lat="50.43743203394115" lon="12.717711981385946">
        <ele>780.73000000000002</ele>
        <time>2013-09-04T09:48:15Z</time>
      </trkpt>
      <trkpt lat="50.437888009473681" lon="12.717860005795956">
        <ele>777.36000000000001</ele>
        <time>2013-09-04T09:48:18Z</time>
      </trkpt>
      <trkpt lat="50.43803796172142" lon="12.717855982482433">
        <ele>775.91999999999996</ele>
        <time>2013-09-04T09:48:19Z</time>
      </trkpt>
      <trkpt lat="50.438225967809558" lon="12.71776202134788">
        <ele>775.44000000000005</ele>
        <time>2013-09-04T09:48:20Z</time>
      </trkpt>
      <trkpt lat="50.438768025487661" lon="12.717507965862751">
        <ele>769.66999999999996</ele>
        <time>2013-09-04T09:48:23Z</time>
      </trkpt>
      <trkpt lat="50.438944967463613" lon="12.717376034706831">
        <ele>767.75</ele>
        <time>2013-09-04T09:48:24Z</time>
      </trkpt>
      <trkpt lat="50.440371986478567" lon="12.716465005651116">
        <ele>753.33000000000004</ele>
        <time>2013-09-04T09:48:32Z</time>
      </trkpt>
      <trkpt lat="50.440927036106586" lon="12.716270964592695">
        <ele>747.08000000000004</ele>
        <time>2013-09-04T09:48:35Z</time>
      </trkpt>
      <trkpt lat="50.441098026931286" lon="12.716168034821749">
        <ele>745.63999999999999</ele>
        <time>2013-09-04T09:48:36Z</time>
      </trkpt>
      <trkpt lat="50.441274968907237" lon="12.716035014018416">
        <ele>744.20000000000005</ele>
        <time>2013-09-04T09:48:37Z</time>
      </trkpt>
      <trkpt lat="50.441762963309884" lon="12.715688003227115">
        <ele>739.87</ele>
        <time>2013-09-04T09:48:40Z</time>
      </trkpt>
      <trkpt lat="50.441922973841429" lon="12.715665958821774">
        <ele>738.42999999999995</ele>
        <time>2013-09-04T09:48:41Z</time>
      </trkpt>
      <trkpt lat="50.442091031000018" lon="12.715680962428451">
        <ele>736.99000000000001</ele>
        <time>2013-09-04T09:48:42Z</time>
      </trkpt>
      <trkpt lat="50.442265961319208" lon="12.715732008218765">
        <ele>735.07000000000005</ele>
        <time>2013-09-04T09:48:43Z</time>
      </trkpt>
      <trkpt lat="50.442454973235726" lon="12.715768972411752">
        <ele>733.62</ele>
        <time>2013-09-04T09:48:44Z</time>
      </trkpt>
      <trkpt lat="50.443309005349874" lon="12.716073989868164">
        <ele>724.49000000000001</ele>
        <time>2013-09-04T09:48:49Z</time>
      </trkpt>
      <trkpt lat="50.443460969254375" lon="12.7161930128932">
        <ele>723.04999999999995</ele>
        <time>2013-09-04T09:48:50Z</time>
      </trkpt>
      <trkpt lat="50.443584015592933" lon="12.716368027031422">
        <ele>721.61000000000001</ele>
        <time>2013-09-04T09:48:51Z</time>
      </trkpt>
      <trkpt lat="50.443679988384247" lon="12.716568019241095">
        <ele>720.15999999999997</ele>
        <time>2013-09-04T09:48:52Z</time>
      </trkpt>
      <trkpt lat="50.443767998367548" lon="12.716808998957276">
        <ele>718.72000000000003</ele>
        <time>2013-09-04T09:48:53Z</time>
      </trkpt>
      <trkpt lat="50.44385701417923" lon="12.71707302890718">
        <ele>717.27999999999997</ele>
        <time>2013-09-04T09:48:54Z</time>
      </trkpt>
      <trkpt lat="50.443948041647673" lon="12.717346027493477">
        <ele>715.36000000000001</ele>
        <time>2013-09-04T09:48:55Z</time>
      </trkpt>
      <trkpt lat="50.444348026067019" lon="12.718240041285753">
        <ele>710.07000000000005</ele>
        <time>2013-09-04T09:48:59Z</time>
      </trkpt>
      <trkpt lat="50.444477023556828" lon="12.718393011018634">
        <ele>708.63</ele>
        <time>2013-09-04T09:49:00Z</time>
      </trkpt>
      <trkpt lat="50.445655016228557" lon="12.719965036958456">
        <ele>699.5</ele>
        <time>2013-09-04T09:49:10Z</time>
      </trkpt>
      <trkpt lat="50.447024032473564" lon="12.721946015954018">
        <ele>683.14999999999998</ele>
        <time>2013-09-04T09:49:22Z</time>
      </trkpt>
      <trkpt lat="50.447849985212088" lon="12.723020995035768">
        <ele>672.58000000000004</ele>
        <time>2013-09-04T09:49:30Z</time>
      </trkpt>
      <trkpt lat="50.447906982153654" lon="12.7231540158391">
        <ele>671.13999999999999</ele>
        <time>2013-09-04T09:49:31Z</time>
      </trkpt>
      <trkpt lat="50.447958027943969" lon="12.7233059797436">
        <ele>671.13999999999999</ele>
        <time>2013-09-04T09:49:32Z</time>
      </trkpt>
      <trkpt lat="50.447987029328942" lon="12.723472025245428">
        <ele>670.17999999999995</ele>
        <time>2013-09-04T09:49:33Z</time>
      </trkpt>
      <trkpt lat="50.447998009622097" lon="12.723660031333566">
        <ele>669.22000000000003</ele>
        <time>2013-09-04T09:49:34Z</time>
      </trkpt>
      <trkpt lat="50.448001027107239" lon="12.723853988572955">
        <ele>668.25</ele>
        <time>2013-09-04T09:49:35Z</time>
      </trkpt>
      <trkpt lat="50.447989040985703" lon="12.724067978560925">
        <ele>667.28999999999996</ele>
        <time>2013-09-04T09:49:36Z</time>
      </trkpt>
      <trkpt lat="50.447982000187039" lon="12.72429596632719">
        <ele>666.33000000000004</ele>
        <time>2013-09-04T09:49:37Z</time>
      </trkpt>
      <trkpt lat="50.447875969111919" lon="12.726325979456306">
        <ele>658.15999999999997</ele>
        <time>2013-09-04T09:49:46Z</time>
      </trkpt>
      <trkpt lat="50.447820983827114" lon="12.726498981937766">
        <ele>657.67999999999995</ele>
        <time>2013-09-04T09:49:47Z</time>
      </trkpt>
      <trkpt lat="50.447782007977366" lon="12.72667701356113">
        <ele>659.60000000000002</ele>
        <time>2013-09-04T09:49:48Z</time>
      </trkpt>
      <trkpt lat="50.447721993550658" lon="12.726811962202191">
        <ele>659.60000000000002</ele>
        <time>2013-09-04T09:49:49Z</time>
      </trkpt>
      <trkpt lat="50.447624009102583" lon="12.726912964135408">
        <ele>658.63999999999999</ele>
        <time>2013-09-04T09:49:50Z</time>
      </trkpt>
      <trkpt lat="50.447520995512605" lon="12.726973984390497">
        <ele>658.15999999999997</ele>
        <time>2013-09-04T09:49:51Z</time>
      </trkpt>
      <trkpt lat="50.447413036599755" lon="12.726990999653935">
        <ele>657.20000000000005</ele>
        <time>2013-09-04T09:49:52Z</time>
      </trkpt>
      <trkpt lat="50.447270041331649" lon="12.727007009088993">
        <ele>656.72000000000003</ele>
        <time>2013-09-04T09:49:53Z</time>
      </trkpt>
      <trkpt lat="50.447137020528316" lon="12.727011032402515">
        <ele>655.75999999999999</ele>
        <time>2013-09-04T09:49:54Z</time>
      </trkpt>
      <trkpt lat="50.446004960685968" lon="12.726966021582484">
        <ele>651.42999999999995</ele>
        <time>2013-09-04T09:50:02Z</time>
      </trkpt>
      <trkpt lat="50.445524007081985" lon="12.726714983582497">
        <ele>651.42999999999995</ele>
        <time>2013-09-04T09:50:06Z</time>
      </trkpt>
      <trkpt lat="50.445410013198853" lon="12.726682964712381">
        <ele>651.42999999999995</ele>
        <time>2013-09-04T09:50:07Z</time>
      </trkpt>
      <trkpt lat="50.445299036800861" lon="12.726671984419227">
        <ele>651.90999999999997</ele>
        <time>2013-09-04T09:50:08Z</time>
      </trkpt>
      <trkpt lat="50.445196023210883" lon="12.726671984419227">
        <ele>651.42999999999995</ele>
        <time>2013-09-04T09:50:09Z</time>
      </trkpt>
      <trkpt lat="50.445098038762808" lon="12.726719006896019">
        <ele>650.95000000000005</ele>
        <time>2013-09-04T09:50:10Z</time>
      </trkpt>
      <trkpt lat="50.445021009072661" lon="12.726753037422895">
        <ele>651.90999999999997</ele>
        <time>2013-09-04T09:50:11Z</time>
      </trkpt>
      <trkpt lat="50.444969041272998" lon="12.726801987737417">
        <ele>651.42999999999995</ele>
        <time>2013-09-04T09:50:12Z</time>
      </trkpt>
      <trkpt lat="50.444929981604218" lon="12.726834006607533">
        <ele>650.95000000000005</ele>
        <time>2013-09-04T09:50:13Z</time>
      </trkpt>
      <trkpt lat="50.444907015189528" lon="12.726882034912705">
        <ele>652.87</ele>
        <time>2013-09-04T09:50:20Z</time>
      </trkpt>
      <trkpt lat="50.444921012967825" lon="12.726877005770802">
        <ele>653.35000000000002</ele>
        <time>2013-09-04T09:51:27Z</time>
      </trkpt>
      <trkpt lat="50.444924030452967" lon="12.726911036297679">
        <ele>653.83000000000004</ele>
        <time>2013-09-04T09:51:56Z</time>
      </trkpt>
      <trkpt lat="50.444895029067993" lon="12.726960992440581">
        <ele>653.83000000000004</ele>
        <time>2013-09-04T09:51:57Z</time>
      </trkpt>
      <trkpt lat="50.444796960800886" lon="12.727208007127047">
        <ele>654.30999999999995</ele>
        <time>2013-09-04T09:52:01Z</time>
      </trkpt>
      <trkpt lat="50.444806013256311" lon="12.727261986583471">
        <ele>653.83000000000004</ele>
        <time>2013-09-04T09:52:02Z</time>
      </trkpt>
      <trkpt lat="50.444822022691369" lon="12.727313032373786">
        <ele>653.83000000000004</ele>
        <time>2013-09-04T09:52:03Z</time>
      </trkpt>
      <trkpt lat="50.444831997156143" lon="12.727354019880295">
        <ele>653.83000000000004</ele>
        <time>2013-09-04T09:52:04Z</time>
      </trkpt>
      <trkpt lat="50.444870973005891" lon="12.727378997951746">
        <ele>653.83000000000004</ele>
        <time>2013-09-04T09:52:05Z</time>
      </trkpt>
      <trkpt lat="50.44491296634078" lon="12.72738897241652">
        <ele>653.35000000000002</ele>
        <time>2013-09-04T09:52:06Z</time>
      </trkpt>
      <trkpt lat="50.444949008524418" lon="12.727398024871945">
        <ele>653.83000000000004</ele>
        <time>2013-09-04T09:52:07Z</time>
      </trkpt>
      <trkpt lat="50.445115976035595" lon="12.727384027093649">
        <ele>651.90999999999997</ele>
        <time>2013-09-04T09:52:10Z</time>
      </trkpt>
      <trkpt lat="50.445182025432587" lon="12.727395007386804">
        <ele>651.90999999999997</ele>
        <time>2013-09-04T09:52:11Z</time>
      </trkpt>
      <trkpt lat="50.445245979353786" lon="12.727418979629874">
        <ele>651.42999999999995</ele>
        <time>2013-09-04T09:52:12Z</time>
      </trkpt>
      <trkpt lat="50.445372965186834" lon="12.72747396491468">
        <ele>649.99000000000001</ele>
        <time>2013-09-04T09:52:14Z</time>
      </trkpt>
      <trkpt lat="50.445429040119052" lon="12.727512018755078">
        <ele>649.50999999999999</ele>
        <time>2013-09-04T09:52:15Z</time>
      </trkpt>
      <trkpt lat="50.445505985990167" lon="12.727578990161419">
        <ele>649.02999999999997</ele>
        <time>2013-09-04T09:52:21Z</time>
      </trkpt>
      <trkpt lat="50.445501962676644" lon="12.727570021525025">
        <ele>649.02999999999997</ele>
        <time>2013-09-04T09:53:33Z</time>
      </trkpt>
      <trkpt lat="50.445510009303689" lon="12.727567004039884">
        <ele>649.02999999999997</ele>
        <time>2013-09-04T09:54:53Z</time>
      </trkpt>
      <trkpt lat="50.445514032617211" lon="12.727573961019516">
        <ele>649.02999999999997</ele>
        <time>2013-09-04T09:55:02Z</time>
      </trkpt>
      <trkpt lat="50.445544039830565" lon="12.727587036788464">
        <ele>649.02999999999997</ele>
        <time>2013-09-04T09:55:03Z</time>
      </trkpt>
      <trkpt lat="50.445591984316707" lon="12.727598017081618">
        <ele>649.02999999999997</ele>
        <time>2013-09-04T09:55:04Z</time>
      </trkpt>
      <trkpt lat="50.445811003446579" lon="12.727691978216171">
        <ele>649.50999999999999</ele>
        <time>2013-09-04T09:55:07Z</time>
      </trkpt>
      <trkpt lat="50.446774000301957" lon="12.728286003693938">
        <ele>650.95000000000005</ele>
        <time>2013-09-04T09:55:16Z</time>
      </trkpt>
      <trkpt lat="50.44731798581779" lon="12.728603007271886">
        <ele>649.99000000000001</ele>
        <time>2013-09-04T09:55:21Z</time>
      </trkpt>
      <trkpt lat="50.447448994964361" lon="12.728635026142001">
        <ele>649.02999999999997</ele>
        <time>2013-09-04T09:55:22Z</time>
      </trkpt>
      <trkpt lat="50.447585033252835" lon="12.728620022535324">
        <ele>647.59000000000003</ele>
        <time>2013-09-04T09:55:23Z</time>
      </trkpt>
      <trkpt lat="50.447711013257504" lon="12.728579035028815">
        <ele>646.13999999999999</ele>
        <time>2013-09-04T09:55:24Z</time>
      </trkpt>
      <trkpt lat="50.447828024625778" lon="12.72850401699543">
        <ele>645.17999999999995</ele>
        <time>2013-09-04T09:55:25Z</time>
      </trkpt>
      <trkpt lat="50.447931960225105" lon="12.728361021727324">
        <ele>644.22000000000003</ele>
        <time>2013-09-04T09:55:26Z</time>
      </trkpt>
      <trkpt lat="50.448029022663832" lon="12.728193970397115">
        <ele>643.25999999999999</ele>
        <time>2013-09-04T09:55:27Z</time>
      </trkpt>
      <trkpt lat="50.448115020990372" lon="12.728011999279261">
        <ele>642.29999999999995</ele>
        <time>2013-09-04T09:55:28Z</time>
      </trkpt>
      <trkpt lat="50.448189033195376" lon="12.727806977927685">
        <ele>641.34000000000003</ele>
        <time>2013-09-04T09:55:29Z</time>
      </trkpt>
      <trkpt lat="50.448271008208394" lon="12.727614026516676">
        <ele>640.38</ele>
        <time>2013-09-04T09:55:30Z</time>
      </trkpt>
      <trkpt lat="50.449055973440409" lon="12.725789034739137">
        <ele>632.67999999999995</ele>
        <time>2013-09-04T09:55:39Z</time>
      </trkpt>
      <trkpt lat="50.449182037264109" lon="12.725613014772534">
        <ele>632.20000000000005</ele>
        <time>2013-09-04T09:55:40Z</time>
      </trkpt>
      <trkpt lat="50.449304999783635" lon="12.72547597065568">
        <ele>631.24000000000001</ele>
        <time>2013-09-04T09:55:41Z</time>
      </trkpt>
      <trkpt lat="50.449447995051742" lon="12.725364994257689">
        <ele>630.27999999999997</ele>
        <time>2013-09-04T09:55:42Z</time>
      </trkpt>
      <trkpt lat="50.449610017240047" lon="12.725263992324471">
        <ele>630.27999999999997</ele>
        <time>2013-09-04T09:55:43Z</time>
      </trkpt>
      <trkpt lat="50.451242979615927" lon="12.724276017397642">
        <ele>624.02999999999997</ele>
        <time>2013-09-04T09:55:52Z</time>
      </trkpt>
      <trkpt lat="50.451448000967503" lon="12.724205022677779">
        <ele>623.54999999999995</ele>
        <time>2013-09-04T09:55:53Z</time>
      </trkpt>
      <trkpt lat="50.453196968883276" lon="12.723863963037729">
        <ele>619.23000000000002</ele>
        <time>2013-09-04T09:56:01Z</time>
      </trkpt>
      <trkpt lat="50.453387992456555" lon="12.72375700995326">
        <ele>618.75</ele>
        <time>2013-09-04T09:56:02Z</time>
      </trkpt>
      <trkpt lat="50.453574992716312" lon="12.723631029948592">
        <ele>618.25999999999999</ele>
        <time>2013-09-04T09:56:03Z</time>
      </trkpt>
      <trkpt lat="50.454704035073519" lon="12.723051002249122">
        <ele>614.89999999999998</ele>
        <time>2013-09-04T09:56:09Z</time>
      </trkpt>
      <trkpt lat="50.454905033111572" lon="12.723067011684179">
        <ele>614.41999999999996</ele>
        <time>2013-09-04T09:56:10Z</time>
      </trkpt>
      <trkpt lat="50.455082980915904" lon="12.723130965605378">
        <ele>613.94000000000005</ele>
        <time>2013-09-04T09:56:11Z</time>
      </trkpt>
      <trkpt lat="50.455268975347281" lon="12.723224004730582">
        <ele>613.46000000000004</ele>
        <time>2013-09-04T09:56:12Z</time>
      </trkpt>
      <trkpt lat="50.455453963950276" lon="12.72332701832056">
        <ele>612.98000000000002</ele>
        <time>2013-09-04T09:56:13Z</time>
      </trkpt>
      <trkpt lat="50.4558049980551" lon="12.72347898222506">
        <ele>612.01999999999998</ele>
        <time>2013-09-04T09:56:15Z</time>
      </trkpt>
      <trkpt lat="50.45597699470818" lon="12.723489040508866">
        <ele>611.53999999999996</ele>
        <time>2013-09-04T09:56:16Z</time>
      </trkpt>
      <trkpt lat="50.456129964441061" lon="12.723440006375313">
        <ele>611.53999999999996</ele>
        <time>2013-09-04T09:56:17Z</time>
      </trkpt>
      <trkpt lat="50.456289974972606" lon="12.723350990563631">
        <ele>611.05999999999995</ele>
        <time>2013-09-04T09:56:18Z</time>
      </trkpt>
      <trkpt lat="50.456455014646053" lon="12.723236996680498">
        <ele>610.57000000000005</ele>
        <time>2013-09-04T09:56:19Z</time>
      </trkpt>
      <trkpt lat="50.45778295956552" lon="12.722178027033806">
        <ele>608.64999999999998</ele>
        <time>2013-09-04T09:56:26Z</time>
      </trkpt>
      <trkpt lat="50.457942970097065" lon="12.721951967105269">
        <ele>608.16999999999996</ele>
        <time>2013-09-04T09:56:27Z</time>
      </trkpt>
      <trkpt lat="50.459402007982135" lon="12.719910973683">
        <ele>606.25</ele>
        <time>2013-09-04T09:56:36Z</time>
      </trkpt>
      <trkpt lat="50.459597976878285" lon="12.719753980636597">
        <ele>606.73000000000002</ele>
        <time>2013-09-04T09:56:37Z</time>
      </trkpt>
      <trkpt lat="50.459809033200145" lon="12.719620959833264">
        <ele>606.73000000000002</ele>
        <time>2013-09-04T09:56:38Z</time>
      </trkpt>
      <trkpt lat="50.460011959075928" lon="12.719525992870331">
        <ele>607.21000000000004</ele>
        <time>2013-09-04T09:56:39Z</time>
      </trkpt>
      <trkpt lat="50.460222009569407" lon="12.719478970393538">
        <ele>607.21000000000004</ele>
        <time>2013-09-04T09:56:40Z</time>
      </trkpt>
      <trkpt lat="50.460429964587092" lon="12.719479976221919">
        <ele>607.21000000000004</ele>
        <time>2013-09-04T09:56:41Z</time>
      </trkpt>
      <trkpt lat="50.460629034787416" lon="12.719539990648627">
        <ele>607.21000000000004</ele>
        <time>2013-09-04T09:56:42Z</time>
      </trkpt>
      <trkpt lat="50.460827015340328" lon="12.719648033380508">
        <ele>607.21000000000004</ele>
        <time>2013-09-04T09:56:43Z</time>
      </trkpt>
      <trkpt lat="50.461041005328298" lon="12.719749035313725">
        <ele>607.21000000000004</ele>
        <time>2013-09-04T09:56:44Z</time>
      </trkpt>
      <trkpt lat="50.462632980197668" lon="12.720152959227562">
        <ele>601.91999999999996</ele>
        <time>2013-09-04T09:56:51Z</time>
      </trkpt>
      <trkpt lat="50.463077975437045" lon="12.720281034708023">
        <ele>600.48000000000002</ele>
        <time>2013-09-04T09:56:53Z</time>
      </trkpt>
      <trkpt lat="50.463293977081776" lon="12.720397040247917">
        <ele>599.51999999999998</ele>
        <time>2013-09-04T09:56:54Z</time>
      </trkpt>
      <trkpt lat="50.46349598094821" lon="12.72055696696043">
        <ele>599.03999999999996</ele>
        <time>2013-09-04T09:56:55Z</time>
      </trkpt>
      <trkpt lat="50.463690022006631" lon="12.720741033554077">
        <ele>598.08000000000004</ele>
        <time>2013-09-04T09:56:56Z</time>
      </trkpt>
      <trkpt lat="50.463878028094769" lon="12.720933984965086">
        <ele>597.12</ele>
        <time>2013-09-04T09:56:57Z</time>
      </trkpt>
      <trkpt lat="50.464273989200592" lon="12.721279989928007">
        <ele>597.60000000000002</ele>
        <time>2013-09-04T09:56:59Z</time>
      </trkpt>
      <trkpt lat="50.464486973360181" lon="12.721404964104295">
        <ele>597.12</ele>
        <time>2013-09-04T09:57:00Z</time>
      </trkpt>
      <trkpt lat="50.464702975004911" lon="12.721492974087596">
        <ele>597.12</ele>
        <time>2013-09-04T09:57:01Z</time>
      </trkpt>
      <trkpt lat="50.467239003628492" lon="12.722123041749001">
        <ele>593.26999999999998</ele>
        <time>2013-09-04T09:57:12Z</time>
      </trkpt>
      <trkpt lat="50.468623023480177" lon="12.722313981503248">
        <ele>590.87</ele>
        <time>2013-09-04T09:57:18Z</time>
      </trkpt>
      <trkpt lat="50.468848999589682" lon="12.722270982339978">
        <ele>590.38999999999999</ele>
        <time>2013-09-04T09:57:19Z</time>
      </trkpt>
      <trkpt lat="50.469065001234412" lon="12.722209040075541">
        <ele>590.87</ele>
        <time>2013-09-04T09:57:20Z</time>
      </trkpt>
      <trkpt lat="50.469268010929227" lon="12.722110971808434">
        <ele>590.38999999999999</ele>
        <time>2013-09-04T09:57:21Z</time>
      </trkpt>
      <trkpt lat="50.469461968168616" lon="12.721969988197088">
        <ele>589.90999999999997</ele>
        <time>2013-09-04T09:57:22Z</time>
      </trkpt>
      <trkpt lat="50.469626002013683" lon="12.72182397544384">
        <ele>589.42999999999995</ele>
        <time>2013-09-04T09:57:23Z</time>
      </trkpt>
      <trkpt lat="50.469776960089803" lon="12.721666982397437">
        <ele>588.95000000000005</ele>
        <time>2013-09-04T09:57:24Z</time>
      </trkpt>
      <trkpt lat="50.469908975064754" lon="12.721490040421486">
        <ele>588.46000000000004</ele>
        <time>2013-09-04T09:57:25Z</time>
      </trkpt>
      <trkpt lat="50.470021963119507" lon="12.721314020454884">
        <ele>588.46000000000004</ele>
        <time>2013-09-04T09:57:26Z</time>
      </trkpt>
      <trkpt lat="50.470116008073092" lon="12.721134983003139">
        <ele>587.98000000000002</ele>
        <time>2013-09-04T09:57:27Z</time>
      </trkpt>
      <trkpt lat="50.47021902166307" lon="12.720966003835201">
        <ele>587.5</ele>
        <time>2013-09-04T09:57:28Z</time>
      </trkpt>
      <trkpt lat="50.471329037100077" lon="12.719035986810923">
        <ele>587.98000000000002</ele>
        <time>2013-09-04T09:57:40Z</time>
      </trkpt>
      <trkpt lat="50.4717249982059" lon="12.718454031273723">
        <ele>587.98000000000002</ele>
        <time>2013-09-04T09:57:44Z</time>
      </trkpt>
      <trkpt lat="50.471839997917414" lon="12.718332996591926">
        <ele>587.98000000000002</ele>
        <time>2013-09-04T09:57:45Z</time>
      </trkpt>
      <trkpt lat="50.471986010670662" lon="12.71823400631547">
        <ele>587.98000000000002</ele>
        <time>2013-09-04T09:57:46Z</time>
      </trkpt>
      <trkpt lat="50.472123976796865" lon="12.718166029080749">
        <ele>587.98000000000002</ele>
        <time>2013-09-04T09:57:47Z</time>
      </trkpt>
      <trkpt lat="50.472256997600198" lon="12.718139039352536">
        <ele>587.98000000000002</ele>
        <time>2013-09-04T09:57:48Z</time>
      </trkpt>
      <trkpt lat="50.472391024231911" lon="12.718144990503788">
        <ele>587.5</ele>
        <time>2013-09-04T09:57:49Z</time>
      </trkpt>
      <trkpt lat="50.472533013671637" lon="12.718181032687426">
        <ele>587.5</ele>
        <time>2013-09-04T09:57:50Z</time>
      </trkpt>
      <trkpt lat="50.472679026424885" lon="12.718298966065049">
        <ele>589.42999999999995</ele>
        <time>2013-09-04T09:57:51Z</time>
      </trkpt>
      <trkpt lat="50.472793020308018" lon="12.718416983261704">
        <ele>589.90999999999997</ele>
        <time>2013-09-04T09:57:52Z</time>
      </trkpt>
      <trkpt lat="50.472919000312686" lon="12.718547992408276">
        <ele>590.38999999999999</ele>
        <time>2013-09-04T09:57:53Z</time>
      </trkpt>
      <trkpt lat="50.473018996417522" lon="12.718719989061356">
        <ele>589.90999999999997</ele>
        <time>2013-09-04T09:57:54Z</time>
      </trkpt>
      <trkpt lat="50.473122010007501" lon="12.718904977664351">
        <ele>589.90999999999997</ele>
        <time>2013-09-04T09:57:55Z</time>
      </trkpt>
      <trkpt lat="50.473217982798815" lon="12.719121985137463">
        <ele>589.90999999999997</ele>
        <time>2013-09-04T09:57:56Z</time>
      </trkpt>
      <trkpt lat="50.473971012979746" lon="12.721216036006808">
        <ele>586.05999999999995</ele>
        <time>2013-09-04T09:58:04Z</time>
      </trkpt>
      <trkpt lat="50.474019963294268" lon="12.721521975472569">
        <ele>585.58000000000004</ele>
        <time>2013-09-04T09:58:05Z</time>
      </trkpt>
      <trkpt lat="50.474263960495591" lon="12.722999034449458">
        <ele>584.62</ele>
        <time>2013-09-04T09:58:10Z</time>
      </trkpt>
      <trkpt lat="50.47434501349926" lon="12.723255017772317">
        <ele>584.13999999999999</ele>
        <time>2013-09-04T09:58:11Z</time>
      </trkpt>
      <trkpt lat="50.474470993503928" lon="12.723454004153609">
        <ele>584.13999999999999</ele>
        <time>2013-09-04T09:58:12Z</time>
      </trkpt>
      <trkpt lat="50.475514037534595" lon="12.72549600340426">
        <ele>582.70000000000005</ele>
        <time>2013-09-04T09:58:22Z</time>
      </trkpt>
      <trkpt lat="50.476799989119172" lon="12.728124987334013">
        <ele>583.65999999999997</ele>
        <time>2013-09-04T09:58:35Z</time>
      </trkpt>
      <trkpt lat="50.476949019357562" lon="12.728571994230151">
        <ele>583.65999999999997</ele>
        <time>2013-09-04T09:58:37Z</time>
      </trkpt>
      <trkpt lat="50.477000987157226" lon="12.728821020573378">
        <ele>583.17999999999995</ele>
        <time>2013-09-04T09:58:38Z</time>
      </trkpt>
      <trkpt lat="50.477027976885438" lon="12.729083960875869">
        <ele>583.17999999999995</ele>
        <time>2013-09-04T09:58:39Z</time>
      </trkpt>
      <trkpt lat="50.477040968835354" lon="12.729356037452817">
        <ele>584.62</ele>
        <time>2013-09-04T09:58:40Z</time>
      </trkpt>
      <trkpt lat="50.47703099437058" lon="12.729609003290534">
        <ele>584.13999999999999</ele>
        <time>2013-09-04T09:58:41Z</time>
      </trkpt>
      <trkpt lat="50.477019008249044" lon="12.729863980785012">
        <ele>583.65999999999997</ele>
        <time>2013-09-04T09:58:42Z</time>
      </trkpt>
      <trkpt lat="50.476707033813" lon="12.731948979198933">
        <ele>584.62</ele>
        <time>2013-09-04T09:58:50Z</time>
      </trkpt>
      <trkpt lat="50.475803967565298" lon="12.735039973631501">
        <ele>581.73000000000002</ele>
        <time>2013-09-04T09:59:00Z</time>
      </trkpt>
      <trkpt lat="50.475701037794352" lon="12.735703988000751">
        <ele>580.76999999999998</ele>
        <time>2013-09-04T09:59:02Z</time>
      </trkpt>
      <trkpt lat="50.475685028359294" lon="12.736042030155659">
        <ele>580.28999999999996</ele>
        <time>2013-09-04T09:59:03Z</time>
      </trkpt>
      <trkpt lat="50.475688967853785" lon="12.736385017633438">
        <ele>580.28999999999996</ele>
        <time>2013-09-04T09:59:04Z</time>
      </trkpt>
      <trkpt lat="50.475524011999369" lon="12.738764975219965">
        <ele>580.76999999999998</ele>
        <time>2013-09-04T09:59:11Z</time>
      </trkpt>
      <trkpt lat="50.474941972643137" lon="12.740640006959438">
        <ele>577.40999999999997</ele>
        <time>2013-09-04T09:59:18Z</time>
      </trkpt>
      <trkpt lat="50.474413996562362" lon="12.742170039564371">
        <ele>575.00999999999999</ele>
        <time>2013-09-04T09:59:26Z</time>
      </trkpt>
      <trkpt lat="50.474193971604109" lon="12.743045026436448">
        <ele>577.88999999999999</ele>
        <time>2013-09-04T09:59:34Z</time>
      </trkpt>
      <trkpt lat="50.473934970796108" lon="12.744010034948587">
        <ele>576.92999999999995</ele>
        <time>2013-09-04T09:59:42Z</time>
      </trkpt>
      <trkpt lat="50.473789041861892" lon="12.744513032957911">
        <ele>576.92999999999995</ele>
        <time>2013-09-04T09:59:47Z</time>
      </trkpt>
      <trkpt lat="50.473513025790453" lon="12.745511988177896">
        <ele>575.49000000000001</ele>
        <time>2013-09-04T09:59:52Z</time>
      </trkpt>
      <trkpt lat="50.473448988050222" lon="12.745919013395905">
        <ele>575.49000000000001</ele>
        <time>2013-09-04T09:59:54Z</time>
      </trkpt>
      <trkpt lat="50.473439013585448" lon="12.746364008635283">
        <ele>575.00999999999999</ele>
        <time>2013-09-04T09:59:56Z</time>
      </trkpt>
      <trkpt lat="50.473458962514997" lon="12.746585961431265">
        <ele>574.03999999999996</ele>
        <time>2013-09-04T09:59:57Z</time>
      </trkpt>
      <trkpt lat="50.473498022183776" lon="12.746784025803208">
        <ele>573.55999999999995</ele>
        <time>2013-09-04T09:59:58Z</time>
      </trkpt>
      <trkpt lat="50.473574968054891" lon="12.746944036334753">
        <ele>573.55999999999995</ele>
        <time>2013-09-04T09:59:59Z</time>
      </trkpt>
      <trkpt lat="50.473654009401798" lon="12.747075967490673">
        <ele>574.03999999999996</ele>
        <time>2013-09-04T10:00:00Z</time>
      </trkpt>
      <trkpt lat="50.473737996071577" lon="12.747190967202187">
        <ele>573.55999999999995</ele>
        <time>2013-09-04T10:00:01Z</time>
      </trkpt>
      <trkpt lat="50.473819971084595" lon="12.747301021590829">
        <ele>573.55999999999995</ele>
        <time>2013-09-04T10:00:02Z</time>
      </trkpt>
      <trkpt lat="50.473878979682922" lon="12.747433036565781">
        <ele>573.08000000000004</ele>
        <time>2013-09-04T10:00:03Z</time>
      </trkpt>
      <trkpt lat="50.473908986896276" lon="12.747597992420197">
        <ele>573.08000000000004</ele>
        <time>2013-09-04T10:00:04Z</time>
      </trkpt>
      <trkpt lat="50.473927007988095" lon="12.747779041528702">
        <ele>572.60000000000002</ele>
        <time>2013-09-04T10:00:05Z</time>
      </trkpt>
      <trkpt lat="50.473931031301618" lon="12.747977022081614">
        <ele>572.12</ele>
        <time>2013-09-04T10:00:06Z</time>
      </trkpt>
      <trkpt lat="50.473933964967728" lon="12.748179025948048">
        <ele>572.12</ele>
        <time>2013-09-04T10:00:07Z</time>
      </trkpt>
      <trkpt lat="50.473974030464888" lon="12.749220980331302">
        <ele>572.12</ele>
        <time>2013-09-04T10:00:12Z</time>
      </trkpt>
      <trkpt lat="50.473914016038179" lon="12.749420972540975">
        <ele>573.55999999999995</ele>
        <time>2013-09-04T10:00:13Z</time>
      </trkpt>
      <trkpt lat="50.473835980519652" lon="12.749590035527945">
        <ele>573.55999999999995</ele>
        <time>2013-09-04T10:00:14Z</time>
      </trkpt>
      <trkpt lat="50.473739001899958" lon="12.749734036624432">
        <ele>574.03999999999996</ele>
        <time>2013-09-04T10:00:15Z</time>
      </trkpt>
      <trkpt lat="50.473667001351714" lon="12.749884994700551">
        <ele>574.03999999999996</ele>
        <time>2013-09-04T10:00:16Z</time>
      </trkpt>
      <trkpt lat="50.473606986925006" lon="12.750065959990025">
        <ele>575.97000000000003</ele>
        <time>2013-09-04T10:00:17Z</time>
      </trkpt>
      <trkpt lat="50.473563987761736" lon="12.750255977734923">
        <ele>576.92999999999995</ele>
        <time>2013-09-04T10:00:18Z</time>
      </trkpt>
      <trkpt lat="50.473414035513997" lon="12.751617031171918">
        <ele>585.10000000000002</ele>
        <time>2013-09-04T10:00:26Z</time>
      </trkpt>
      <trkpt lat="50.473259976133704" lon="12.752886973321438">
        <ele>593.75</ele>
        <time>2013-09-04T10:00:36Z</time>
      </trkpt>
      <trkpt lat="50.473106000572443" lon="12.754581961780787">
        <ele>602.39999999999998</ele>
        <time>2013-09-04T10:00:46Z</time>
      </trkpt>
      <trkpt lat="50.472954036667943" lon="12.756072012707591">
        <ele>605.28999999999996</ele>
        <time>2013-09-04T10:00:54Z</time>
      </trkpt>
      <trkpt lat="50.472957976162434" lon="12.756260018795729">
        <ele>605.28999999999996</ele>
        <time>2013-09-04T10:00:55Z</time>
      </trkpt>
      <trkpt lat="50.473070964217186" lon="12.757827015593648">
        <ele>607.69000000000005</ele>
        <time>2013-09-04T10:01:03Z</time>
      </trkpt>
      <trkpt lat="50.47307800501585" lon="12.758033964782953">
        <ele>608.64999999999998</ele>
        <time>2013-09-04T10:01:04Z</time>
      </trkpt>
      <trkpt lat="50.473066018894315" lon="12.75826002471149">
        <ele>610.57000000000005</ele>
        <time>2013-09-04T10:01:05Z</time>
      </trkpt>
      <trkpt lat="50.473041962832212" lon="12.758472003042698">
        <ele>612.01999999999998</ele>
        <time>2013-09-04T10:01:06Z</time>
      </trkpt>
      <trkpt lat="50.473001981154084" lon="12.758679036051035">
        <ele>612.98000000000002</ele>
        <time>2013-09-04T10:01:07Z</time>
      </trkpt>
      <trkpt lat="50.472953030839562" lon="12.758876010775566">
        <ele>613.94000000000005</ele>
        <time>2013-09-04T10:01:08Z</time>
      </trkpt>
      <trkpt lat="50.472898967564106" lon="12.759058987721801">
        <ele>614.89999999999998</ele>
        <time>2013-09-04T10:01:09Z</time>
      </trkpt>
      <trkpt lat="50.47221802175045" lon="12.760909963399172">
        <ele>627.39999999999998</ele>
        <time>2013-09-04T10:01:19Z</time>
      </trkpt>
      <trkpt lat="50.472120037302375" lon="12.761061005294323">
        <ele>628.36000000000001</ele>
        <time>2013-09-04T10:01:20Z</time>
      </trkpt>
      <trkpt lat="50.471678981557488" lon="12.761706998571754">
        <ele>631.24000000000001</ele>
        <time>2013-09-04T10:01:25Z</time>
      </trkpt>
      <trkpt lat="50.47161502763629" lon="12.761848988011479">
        <ele>632.20000000000005</ele>
        <time>2013-09-04T10:01:26Z</time>
      </trkpt>
      <trkpt lat="50.471613015979528" lon="12.761989971622825">
        <ele>632.67999999999995</ele>
        <time>2013-09-04T10:01:27Z</time>
      </trkpt>
      <trkpt lat="50.471628019586205" lon="12.762131039053202">
        <ele>633.16999999999996</ele>
        <time>2013-09-04T10:01:28Z</time>
      </trkpt>
      <trkpt lat="50.471694990992546" lon="12.762245032936335">
        <ele>633.16999999999996</ele>
        <time>2013-09-04T10:01:29Z</time>
      </trkpt>
      <trkpt lat="50.471786018460989" lon="12.762304041534662">
        <ele>633.64999999999998</ele>
        <time>2013-09-04T10:01:30Z</time>
      </trkpt>
      <trkpt lat="50.471886014565825" lon="12.762313010171056">
        <ele>634.13</ele>
        <time>2013-09-04T10:01:31Z</time>
      </trkpt>
      <trkpt lat="50.471991961821914" lon="12.762276967987418">
        <ele>634.61000000000001</ele>
        <time>2013-09-04T10:01:32Z</time>
      </trkpt>
      <trkpt lat="50.472095981240273" lon="12.762208990752697">
        <ele>635.09000000000003</ele>
        <time>2013-09-04T10:01:33Z</time>
      </trkpt>
      <trkpt lat="50.472200000658631" lon="12.762125004082918">
        <ele>636.04999999999995</ele>
        <time>2013-09-04T10:01:34Z</time>
      </trkpt>
      <trkpt lat="50.473111029714346" lon="12.761379014700651">
        <ele>641.82000000000005</ele>
        <time>2013-09-04T10:01:42Z</time>
      </trkpt>
      <trkpt lat="50.473238015547395" lon="12.761340038850904">
        <ele>643.25999999999999</ele>
        <time>2013-09-04T10:01:43Z</time>
      </trkpt>
      <trkpt lat="50.473359972238541" lon="12.761335009709001">
        <ele>643.74000000000001</ele>
        <time>2013-09-04T10:01:44Z</time>
      </trkpt>
      <trkpt lat="50.473492993041873" lon="12.761378008872271">
        <ele>643.74000000000001</ele>
        <time>2013-09-04T10:01:45Z</time>
      </trkpt>
      <trkpt lat="50.473607992753386" lon="12.761451015248895">
        <ele>644.22000000000003</ele>
        <time>2013-09-04T10:01:46Z</time>
      </trkpt>
      <trkpt lat="50.473707988858223" lon="12.761574983596802">
        <ele>646.13999999999999</ele>
        <time>2013-09-04T10:01:47Z</time>
      </trkpt>
      <trkpt lat="50.473799016326666" lon="12.761706998571754">
        <ele>647.59000000000003</ele>
        <time>2013-09-04T10:01:48Z</time>
      </trkpt>
      <trkpt lat="50.473891971632838" lon="12.761832978576422">
        <ele>648.54999999999995</ele>
        <time>2013-09-04T10:01:49Z</time>
      </trkpt>
      <trkpt lat="50.473985010758042" lon="12.761954013258219">
        <ele>649.02999999999997</ele>
        <time>2013-09-04T10:01:50Z</time>
      </trkpt>
      <trkpt lat="50.474627986550331" lon="12.762573016807437">
        <ele>655.75999999999999</ele>
        <time>2013-09-04T10:01:56Z</time>
      </trkpt>
      <trkpt lat="50.474724965170026" lon="12.762701008468866">
        <ele>656.24000000000001</ele>
        <time>2013-09-04T10:01:57Z</time>
      </trkpt>
      <trkpt lat="50.474814986810088" lon="12.762848027050495">
        <ele>657.67999999999995</ele>
        <time>2013-09-04T10:01:58Z</time>
      </trkpt>
      <trkpt lat="50.474896039813757" lon="12.763002002611756">
        <ele>658.15999999999997</ele>
        <time>2013-09-04T10:01:59Z</time>
      </trkpt>
      <trkpt lat="50.47496703453362" lon="12.76316100731492">
        <ele>658.63999999999999</ele>
        <time>2013-09-04T10:02:00Z</time>
      </trkpt>
      <trkpt lat="50.475025037303567" lon="12.763338033109903">
        <ele>659.12</ele>
        <time>2013-09-04T10:02:01Z</time>
      </trkpt>
      <trkpt lat="50.475065018981695" lon="12.763529978692532">
        <ele>659.60000000000002</ele>
        <time>2013-09-04T10:02:02Z</time>
      </trkpt>
      <trkpt lat="50.475097959861159" lon="12.763726031407714">
        <ele>659.60000000000002</ele>
        <time>2013-09-04T10:02:03Z</time>
      </trkpt>
      <trkpt lat="50.475126961246133" lon="12.763919988647103">
        <ele>660.55999999999995</ele>
        <time>2013-09-04T10:02:04Z</time>
      </trkpt>
      <trkpt lat="50.475174989551306" lon="12.765905996784568">
        <ele>667.76999999999998</ele>
        <time>2013-09-04T10:02:14Z</time>
      </trkpt>
      <trkpt lat="50.47514297068119" lon="12.767666028812528">
        <ele>674.98000000000002</ele>
        <time>2013-09-04T10:02:23Z</time>
      </trkpt>
      <trkpt lat="50.475082034245133" lon="12.767877001315355">
        <ele>680.26999999999998</ele>
        <time>2013-09-04T10:02:24Z</time>
      </trkpt>
      <trkpt lat="50.474995030090213" lon="12.768060984089971">
        <ele>683.63</ele>
        <time>2013-09-04T10:02:25Z</time>
      </trkpt>
      <trkpt lat="50.474923029541969" lon="12.768219988793135">
        <ele>685.55999999999995</ele>
        <time>2013-09-04T10:02:26Z</time>
      </trkpt>
      <trkpt lat="50.47484097070992" lon="12.768372036516666">
        <ele>686.03999999999996</ele>
        <time>2013-09-04T10:02:27Z</time>
      </trkpt>
      <trkpt lat="50.474750027060509" lon="12.768531963229179">
        <ele>687</ele>
        <time>2013-09-04T10:02:28Z</time>
      </trkpt>
      <trkpt lat="50.474678026512265" lon="12.768691973760724">
        <ele>688.44000000000005</ele>
        <time>2013-09-04T10:02:29Z</time>
      </trkpt>
      <trkpt lat="50.474541988223791" lon="12.769051976501942">
        <ele>691.80999999999995</ele>
        <time>2013-09-04T10:02:31Z</time>
      </trkpt>
      <trkpt lat="50.474535031244159" lon="12.769230008125305">
        <ele>692.28999999999996</ele>
        <time>2013-09-04T10:02:32Z</time>
      </trkpt>
      <trkpt lat="50.474510975182056" lon="12.769420025870204">
        <ele>694.69000000000005</ele>
        <time>2013-09-04T10:02:33Z</time>
      </trkpt>
      <trkpt lat="50.474554980173707" lon="12.769902991130948">
        <ele>698.52999999999997</ele>
        <time>2013-09-04T10:02:36Z</time>
      </trkpt>
      <trkpt lat="50.474614994600415" lon="12.770012961700559">
        <ele>700.94000000000005</ele>
        <time>2013-09-04T10:02:37Z</time>
      </trkpt>
      <trkpt lat="50.474697975441813" lon="12.770082028582692">
        <ele>701.89999999999998</ele>
        <time>2013-09-04T10:02:38Z</time>
      </trkpt>
      <trkpt lat="50.475100977346301" lon="12.770395008847117">
        <ele>705.25999999999999</ele>
        <time>2013-09-04T10:02:42Z</time>
      </trkpt>
      <trkpt lat="50.475190998986363" lon="12.770512020215392">
        <ele>705.75</ele>
        <time>2013-09-04T10:02:43Z</time>
      </trkpt>
      <trkpt lat="50.475428961217403" lon="12.770797004923224">
        <ele>707.19000000000005</ele>
        <time>2013-09-04T10:02:46Z</time>
      </trkpt>
      <trkpt lat="50.475523006170988" lon="12.770844027400017">
        <ele>707.66999999999996</ele>
        <time>2013-09-04T10:02:47Z</time>
      </trkpt>
      <trkpt lat="50.475774966180325" lon="12.771143009886146">
        <ele>710.07000000000005</ele>
        <time>2013-09-04T10:02:50Z</time>
      </trkpt>
      <trkpt lat="50.475830035284162" lon="12.771292040124536">
        <ele>711.50999999999999</ele>
        <time>2013-09-04T10:02:51Z</time>
      </trkpt>
      <trkpt lat="50.475868005305529" lon="12.771450961008668">
        <ele>712.47000000000003</ele>
        <time>2013-09-04T10:02:52Z</time>
      </trkpt>
      <trkpt lat="50.475899018347263" lon="12.77162597514689">
        <ele>713.91999999999996</ele>
        <time>2013-09-04T10:02:53Z</time>
      </trkpt>
      <trkpt lat="50.475923996418715" lon="12.771806018427014">
        <ele>714.39999999999998</ele>
        <time>2013-09-04T10:02:54Z</time>
      </trkpt>
      <trkpt lat="50.47593598254025" lon="12.771994024515152">
        <ele>715.36000000000001</ele>
        <time>2013-09-04T10:02:55Z</time>
      </trkpt>
      <trkpt lat="50.475945034995675" lon="12.772188987582922">
        <ele>716.32000000000005</ele>
        <time>2013-09-04T10:02:56Z</time>
      </trkpt>
      <trkpt lat="50.47593698836863" lon="12.772390991449356">
        <ele>717.27999999999997</ele>
        <time>2013-09-04T10:02:57Z</time>
      </trkpt>
      <trkpt lat="50.475880997255445" lon="12.773046959191561">
        <ele>720.15999999999997</ele>
        <time>2013-09-04T10:03:00Z</time>
      </trkpt>
      <trkpt lat="50.475940005853772" lon="12.774398038163781">
        <ele>728.82000000000005</ele>
        <time>2013-09-04T10:03:05Z</time>
      </trkpt>
      <trkpt lat="50.475995996966958" lon="12.774677993729711">
        <ele>730.74000000000001</ele>
        <time>2013-09-04T10:03:06Z</time>
      </trkpt>
      <trkpt lat="50.476570995524526" lon="12.777396999299526">
        <ele>739.87</ele>
        <time>2013-09-04T10:03:15Z</time>
      </trkpt>
      <trkpt lat="50.476736035197973" lon="12.778957039117813">
        <ele>743.24000000000001</ele>
        <time>2013-09-04T10:03:20Z</time>
      </trkpt>
      <trkpt lat="50.476822033524513" lon="12.779226014390588">
        <ele>742.27999999999997</ele>
        <time>2013-09-04T10:03:21Z</time>
      </trkpt>
      <trkpt lat="50.476920017972589" lon="12.779471017420292">
        <ele>741.78999999999996</ele>
        <time>2013-09-04T10:03:22Z</time>
      </trkpt>
      <trkpt lat="50.477002998813987" lon="12.77972498908639">
        <ele>740.83000000000004</ele>
        <time>2013-09-04T10:03:23Z</time>
      </trkpt>
      <trkpt lat="50.477058989927173" lon="12.779970997944474">
        <ele>739.38999999999999</ele>
        <time>2013-09-04T10:03:24Z</time>
      </trkpt>
      <trkpt lat="50.477091008797288" lon="12.780226981267333">
        <ele>738.42999999999995</ele>
        <time>2013-09-04T10:03:25Z</time>
      </trkpt>
      <trkpt lat="50.477108024060726" lon="12.780496962368488">
        <ele>737.47000000000003</ele>
        <time>2013-09-04T10:03:26Z</time>
      </trkpt>
      <trkpt lat="50.477088997140527" lon="12.780794017016888">
        <ele>736.50999999999999</ele>
        <time>2013-09-04T10:03:27Z</time>
      </trkpt>
      <trkpt lat="50.477043986320496" lon="12.781098028644919">
        <ele>735.54999999999995</ele>
        <time>2013-09-04T10:03:28Z</time>
      </trkpt>
      <trkpt lat="50.476996041834354" lon="12.78140002861619">
        <ele>735.07000000000005</ele>
        <time>2013-09-04T10:03:29Z</time>
      </trkpt>
      <trkpt lat="50.476913983002305" lon="12.781681995838881">
        <ele>735.07000000000005</ele>
        <time>2013-09-04T10:03:30Z</time>
      </trkpt>
      <trkpt lat="50.476632015779614" lon="12.782614985480905">
        <ele>733.13999999999999</ele>
        <time>2013-09-04T10:03:33Z</time>
      </trkpt>
      <trkpt lat="50.476548029109836" lon="12.782959984615445">
        <ele>736.02999999999997</ele>
        <time>2013-09-04T10:03:34Z</time>
      </trkpt>
      <trkpt lat="50.476400004699826" lon="12.783234994858503">
        <ele>736.50999999999999</ele>
        <time>2013-09-04T10:03:35Z</time>
      </trkpt>
      <trkpt lat="50.476249968633056" lon="12.783496007323265">
        <ele>738.42999999999995</ele>
        <time>2013-09-04T10:03:36Z</time>
      </trkpt>
      <trkpt lat="50.476093981415033" lon="12.783737992867827">
        <ele>737.95000000000005</ele>
        <time>2013-09-04T10:03:37Z</time>
      </trkpt>
      <trkpt lat="50.474959993734956" lon="12.785976966843009">
        <ele>736.50999999999999</ele>
        <time>2013-09-04T10:03:45Z</time>
      </trkpt>
      <trkpt lat="50.473855007439852" lon="12.788990009576082">
        <ele>730.74000000000001</ele>
        <time>2013-09-04T10:03:55Z</time>
      </trkpt>
      <trkpt lat="50.473140031099319" lon="12.792335981503129">
        <ele>723.52999999999997</ele>
        <time>2013-09-04T10:04:05Z</time>
      </trkpt>
      <trkpt lat="50.472416002303362" lon="12.795501993969083">
        <ele>716.32000000000005</ele>
        <time>2013-09-04T10:04:14Z</time>
      </trkpt>
      <trkpt lat="50.471621984615922" lon="12.798620983958244">
        <ele>703.34000000000003</ele>
        <time>2013-09-04T10:04:23Z</time>
      </trkpt>
      <trkpt lat="50.471127033233643" lon="12.801006976515055">
        <ele>689.39999999999998</ele>
        <time>2013-09-04T10:04:31Z</time>
      </trkpt>
      <trkpt lat="50.470815980806947" lon="12.802488980814815">
        <ele>678.35000000000002</ele>
        <time>2013-09-04T10:04:38Z</time>
      </trkpt>
      <trkpt lat="50.470681032165885" lon="12.803035983815789">
        <ele>674.5</ele>
        <time>2013-09-04T10:04:41Z</time>
      </trkpt>
      <trkpt lat="50.470227990299463" lon="12.8039610106498">
        <ele>664.88999999999999</ele>
        <time>2013-09-04T10:04:47Z</time>
      </trkpt>
      <trkpt lat="50.469303969293833" lon="12.805359028279781">
        <ele>649.50999999999999</ele>
        <time>2013-09-04T10:04:56Z</time>
      </trkpt>
      <trkpt lat="50.468709021806717" lon="12.806338034570217">
        <ele>636.52999999999997</ele>
        <time>2013-09-04T10:05:03Z</time>
      </trkpt>
      <trkpt lat="50.468664010986686" lon="12.806449010968208">
        <ele>634.61000000000001</ele>
        <time>2013-09-04T10:05:04Z</time>
      </trkpt>
      <trkpt lat="50.468657976016402" lon="12.806556969881058">
        <ele>633.64999999999998</ele>
        <time>2013-09-04T10:05:05Z</time>
      </trkpt>
      <trkpt lat="50.468646995723248" lon="12.806637017056346">
        <ele>632.67999999999995</ele>
        <time>2013-09-04T10:05:06Z</time>
      </trkpt>
      <trkpt lat="50.468638027086854" lon="12.80668999068439">
        <ele>631.72000000000003</ele>
        <time>2013-09-04T10:05:07Z</time>
      </trkpt>
      <trkpt lat="50.468614976853132" lon="12.806748999282718">
        <ele>630.27999999999997</ele>
        <time>2013-09-04T10:05:09Z</time>
      </trkpt>
      <trkpt lat="50.468546999618411" lon="12.806770037859678">
        <ele>629.79999999999995</ele>
        <time>2013-09-04T10:05:10Z</time>
      </trkpt>
      <trkpt lat="50.467887008562684" lon="12.806975981220603">
        <ele>625.47000000000003</ele>
        <time>2013-09-04T10:05:16Z</time>
      </trkpt>
      <trkpt lat="50.466566020622849" lon="12.807533964514732">
        <ele>618.75</ele>
        <time>2013-09-04T10:05:26Z</time>
      </trkpt>
      <trkpt lat="50.465289959684014" lon="12.808852018788457">
        <ele>617.77999999999997</ele>
        <time>2013-09-04T10:05:37Z</time>
      </trkpt>
      <trkpt lat="50.464086988940835" lon="12.810211982578039">
        <ele>616.82000000000005</ele>
        <time>2013-09-04T10:05:48Z</time>
      </trkpt>
      <trkpt lat="50.46323798596859" lon="12.811378994956613">
        <ele>615.86000000000001</ele>
        <time>2013-09-04T10:05:56Z</time>
      </trkpt>
      <trkpt lat="50.462362999096513" lon="12.81285597011447">
        <ele>619.71000000000004</ele>
        <time>2013-09-04T10:06:05Z</time>
      </trkpt>
      <trkpt lat="50.461702002212405" lon="12.814954966306686">
        <ele>620.66999999999996</ele>
        <time>2013-09-04T10:06:15Z</time>
      </trkpt>
      <trkpt lat="50.460760965943336" lon="12.817856026813388">
        <ele>622.11000000000001</ele>
        <time>2013-09-04T10:06:28Z</time>
      </trkpt>
      <trkpt lat="50.45941298827529" lon="12.821799041703343">
        <ele>634.13</ele>
        <time>2013-09-04T10:06:41Z</time>
      </trkpt>
      <trkpt lat="50.45801798813045" lon="12.825830988585949">
        <ele>641.82000000000005</ele>
        <time>2013-09-04T10:06:54Z</time>
      </trkpt>
      <trkpt lat="50.457652034237981" lon="12.826769007369876">
        <ele>643.25999999999999</ele>
        <time>2013-09-04T10:06:58Z</time>
      </trkpt>
      <trkpt lat="50.45754499733448" lon="12.826956007629633">
        <ele>642.77999999999997</ele>
        <time>2013-09-04T10:06:59Z</time>
      </trkpt>
      <trkpt lat="50.457297982648015" lon="12.827525977045298">
        <ele>642.29999999999995</ele>
        <time>2013-09-04T10:07:02Z</time>
      </trkpt>
      <trkpt lat="50.457254983484745" lon="12.827720018103719">
        <ele>641.82000000000005</ele>
        <time>2013-09-04T10:07:03Z</time>
      </trkpt>
      <trkpt lat="50.457198992371559" lon="12.827906012535095">
        <ele>641.82000000000005</ele>
        <time>2013-09-04T10:07:04Z</time>
      </trkpt>
      <trkpt lat="50.457253977656364" lon="12.828104998916388">
        <ele>641.34000000000003</ele>
        <time>2013-09-04T10:07:05Z</time>
      </trkpt>
      <trkpt lat="50.457293037325144" lon="12.828294010832906">
        <ele>640.86000000000001</ele>
        <time>2013-09-04T10:07:06Z</time>
      </trkpt>
      <trkpt lat="50.457798969000578" lon="12.829795964062214">
        <ele>646.62</ele>
        <time>2013-09-04T10:07:14Z</time>
      </trkpt>
      <trkpt lat="50.457884967327118" lon="12.829970978200436">
        <ele>648.07000000000005</ele>
        <time>2013-09-04T10:07:15Z</time>
      </trkpt>
      <trkpt lat="50.457970965653658" lon="12.830138029530644">
        <ele>648.07000000000005</ele>
        <time>2013-09-04T10:07:16Z</time>
      </trkpt>
      <trkpt lat="50.458065010607243" lon="12.830304997041821">
        <ele>648.54999999999995</ele>
        <time>2013-09-04T10:07:17Z</time>
      </trkpt>
      <trkpt lat="50.458714021369815" lon="12.831964027136564">
        <ele>651.90999999999997</ele>
        <time>2013-09-04T10:07:26Z</time>
      </trkpt>
      <trkpt lat="50.459351968020201" lon="12.834820998832583">
        <ele>662.00999999999999</ele>
        <time>2013-09-04T10:07:40Z</time>
      </trkpt>
      <trkpt lat="50.459368983283639" lon="12.8376470413059">
        <ele>670.65999999999997</ele>
        <time>2013-09-04T10:07:53Z</time>
      </trkpt>
      <trkpt lat="50.459130015224218" lon="12.840753039345145">
        <ele>679.30999999999995</ele>
        <time>2013-09-04T10:08:07Z</time>
      </trkpt>
      <trkpt lat="50.458691976964474" lon="12.843080023303628">
        <ele>684.60000000000002</ele>
        <time>2013-09-04T10:08:15Z</time>
      </trkpt>
      <trkpt lat="50.458156038075686" lon="12.845782013610005">
        <ele>688.91999999999996</ele>
        <time>2013-09-04T10:08:24Z</time>
      </trkpt>
      <trkpt lat="50.45769402757287" lon="12.848535971716046">
        <ele>696.61000000000001</ele>
        <time>2013-09-04T10:08:33Z</time>
      </trkpt>
      <trkpt lat="50.457305023446679" lon="12.851968025788665">
        <ele>712.95000000000005</ele>
        <time>2013-09-04T10:08:44Z</time>
      </trkpt>
      <trkpt lat="50.457103019580245" lon="12.853691009804606">
        <ele>725.45000000000005</ele>
        <time>2013-09-04T10:08:50Z</time>
      </trkpt>
      <trkpt lat="50.456316964700818" lon="12.8553750179708">
        <ele>731.22000000000003</ele>
        <time>2013-09-04T10:08:57Z</time>
      </trkpt>
      <trkpt lat="50.45531197451055" lon="12.857421040534973">
        <ele>734.10000000000002</ele>
        <time>2013-09-04T10:09:05Z</time>
      </trkpt>
      <trkpt lat="50.454336991533637" lon="12.85934804007411">
        <ele>738.90999999999997</ele>
        <time>2013-09-04T10:09:13Z</time>
      </trkpt>
      <trkpt lat="50.453152041882277" lon="12.861766973510385">
        <ele>746.60000000000002</ele>
        <time>2013-09-04T10:09:22Z</time>
      </trkpt>
      <trkpt lat="50.453062020242214" lon="12.862081965431571">
        <ele>747.08000000000004</ele>
        <time>2013-09-04T10:09:23Z</time>
      </trkpt>
      <trkpt lat="50.452712997794151" lon="12.863728003576398">
        <ele>751.40999999999997</ele>
        <time>2013-09-04T10:09:28Z</time>
      </trkpt>
      <trkpt lat="50.45232298783958" lon="12.865934958681464">
        <ele>758.62</ele>
        <time>2013-09-04T10:09:35Z</time>
      </trkpt>
      <trkpt lat="50.45163600705564" lon="12.867953991517425">
        <ele>764.87</ele>
        <time>2013-09-04T10:09:42Z</time>
      </trkpt>
      <trkpt lat="50.451280027627945" lon="12.868733005598187">
        <ele>768.71000000000004</ele>
        <time>2013-09-04T10:09:45Z</time>
      </trkpt>
      <trkpt lat="50.450343014672399" lon="12.86989800632">
        <ele>773.51999999999998</ele>
        <time>2013-09-04T10:09:52Z</time>
      </trkpt>
      <trkpt lat="50.45024000108242" lon="12.870053993538022">
        <ele>774</ele>
        <time>2013-09-04T10:09:53Z</time>
      </trkpt>
      <trkpt lat="50.45013296417892" lon="12.870203023776412">
        <ele>774.96000000000004</ele>
        <time>2013-09-04T10:09:54Z</time>
      </trkpt>
      <trkpt lat="50.450043026357889" lon="12.870384994894266">
        <ele>775.44000000000005</ele>
        <time>2013-09-04T10:09:55Z</time>
      </trkpt>
      <trkpt lat="50.449787965044379" lon="12.870899979025126">
        <ele>776.39999999999998</ele>
        <time>2013-09-04T10:09:58Z</time>
      </trkpt>
      <trkpt lat="50.449696015566587" lon="12.871040962636471">
        <ele>776.39999999999998</ele>
        <time>2013-09-04T10:09:59Z</time>
      </trkpt>
      <trkpt lat="50.449502980336547" lon="12.871270040050149">
        <ele>776.88</ele>
        <time>2013-09-04T10:10:01Z</time>
      </trkpt>
      <trkpt lat="50.449424022808671" lon="12.871332988142967">
        <ele>777.36000000000001</ele>
        <time>2013-09-04T10:10:02Z</time>
      </trkpt>
      <trkpt lat="50.449332995340228" lon="12.871377998962998">
        <ele>777.84000000000003</ele>
        <time>2013-09-04T10:10:03Z</time>
      </trkpt>
      <trkpt lat="50.449236016720533" lon="12.871400965377688">
        <ele>778.32000000000005</ele>
        <time>2013-09-04T10:10:04Z</time>
      </trkpt>
      <trkpt lat="50.449069971218705" lon="12.871356038376689">
        <ele>779.28999999999996</ele>
        <time>2013-09-04T10:10:05Z</time>
      </trkpt>
      <trkpt lat="50.448942985385656" lon="12.871334999799728">
        <ele>779.28999999999996</ele>
        <time>2013-09-04T10:10:06Z</time>
      </trkpt>
      <trkpt lat="50.448834020644426" lon="12.871173983439803">
        <ele>778.80999999999995</ele>
        <time>2013-09-04T10:10:07Z</time>
      </trkpt>
      <trkpt lat="50.448789009824395" lon="12.87095001898706">
        <ele>778.32000000000005</ele>
        <time>2013-09-04T10:10:08Z</time>
      </trkpt>
      <trkpt lat="50.448733018711209" lon="12.870691018179059">
        <ele>778.32000000000005</ele>
        <time>2013-09-04T10:10:09Z</time>
      </trkpt>
      <trkpt lat="50.448566973209381" lon="12.870482979342341">
        <ele>778.80999999999995</ele>
        <time>2013-09-04T10:10:10Z</time>
      </trkpt>
      <trkpt lat="50.448444010689855" lon="12.870343001559377">
        <ele>778.80999999999995</ele>
        <time>2013-09-04T10:10:11Z</time>
      </trkpt>
      <trkpt lat="50.448336973786354" lon="12.870216015726328">
        <ele>778.80999999999995</ele>
        <time>2013-09-04T10:10:12Z</time>
      </trkpt>
      <trkpt lat="50.447741020470858" lon="12.869614027440548">
        <ele>779.76999999999998</ele>
        <time>2013-09-04T10:10:17Z</time>
      </trkpt>
      <trkpt lat="50.447621997445822" lon="12.869540015235543">
        <ele>779.28999999999996</ele>
        <time>2013-09-04T10:10:18Z</time>
      </trkpt>
      <trkpt lat="50.447481013834476" lon="12.869520988315344">
        <ele>779.76999999999998</ele>
        <time>2013-09-04T10:10:19Z</time>
      </trkpt>
      <trkpt lat="50.447324020788074" lon="12.869540015235543">
        <ele>780.25</ele>
        <time>2013-09-04T10:10:20Z</time>
      </trkpt>
      <trkpt lat="50.447157975286245" lon="12.869585026055574">
        <ele>780.25</ele>
        <time>2013-09-04T10:10:21Z</time>
      </trkpt>
      <trkpt lat="50.446982039138675" lon="12.86964101716876">
        <ele>780.73000000000002</ele>
        <time>2013-09-04T10:10:22Z</time>
      </trkpt>
      <trkpt lat="50.445387968793511" lon="12.870168993249536">
        <ele>784.09000000000003</ele>
        <time>2013-09-04T10:10:30Z</time>
      </trkpt>
      <trkpt lat="50.445027966052294" lon="12.870336966589093">
        <ele>785.04999999999995</ele>
        <time>2013-09-04T10:10:32Z</time>
      </trkpt>
      <trkpt lat="50.444878013804555" lon="12.870442997664213">
        <ele>785.52999999999997</ele>
        <time>2013-09-04T10:10:33Z</time>
      </trkpt>
      <trkpt lat="50.444720014929771" lon="12.870567971840501">
        <ele>786.01999999999998</ele>
        <time>2013-09-04T10:10:34Z</time>
      </trkpt>
      <trkpt lat="50.444591017439961" lon="12.870709039270878">
        <ele>786.98000000000002</ele>
        <time>2013-09-04T10:10:35Z</time>
      </trkpt>
      <trkpt lat="50.444465037435293" lon="12.870888998731971">
        <ele>787.46000000000004</ele>
        <time>2013-09-04T10:10:36Z</time>
      </trkpt>
      <trkpt lat="50.444348026067019" lon="12.871082033962011">
        <ele>787.94000000000005</ele>
        <time>2013-09-04T10:10:37Z</time>
      </trkpt>
      <trkpt lat="50.444256998598576" lon="12.871315972879529">
        <ele>788.41999999999996</ele>
        <time>2013-09-04T10:10:38Z</time>
      </trkpt>
      <trkpt lat="50.444157002493739" lon="12.871556030586362">
        <ele>789.38</ele>
        <time>2013-09-04T10:10:39Z</time>
      </trkpt>
      <trkpt lat="50.44321596622467" lon="12.873719986528158">
        <ele>800.44000000000005</ele>
        <time>2013-09-04T10:10:47Z</time>
      </trkpt>
      <trkpt lat="50.441991034895182" lon="12.876312006264925">
        <ele>832.15999999999997</ele>
        <time>2013-09-04T10:10:57Z</time>
      </trkpt>
      <trkpt lat="50.440815975889564" lon="12.877765009179711">
        <ele>844.17999999999995</ele>
        <time>2013-09-04T10:11:04Z</time>
      </trkpt>
      <trkpt lat="50.440041990950704" lon="12.879342986270785">
        <ele>856.66999999999996</ele>
        <time>2013-09-04T10:11:11Z</time>
      </trkpt>
      <trkpt lat="50.439427010715008" lon="12.881570979952812">
        <ele>884.07000000000005</ele>
        <time>2013-09-04T10:11:22Z</time>
      </trkpt>
      <trkpt lat="50.438652019947767" lon="12.883998965844512">
        <ele>900.88999999999999</ele>
        <time>2013-09-04T10:11:34Z</time>
      </trkpt>
      <trkpt lat="50.437536975368857" lon="12.887609973549843">
        <ele>910.02999999999997</ele>
        <time>2013-09-04T10:11:53Z</time>
      </trkpt>
      <trkpt lat="50.436366023495793" lon="12.891121990978718">
        <ele>905.70000000000005</ele>
        <time>2013-09-04T10:12:11Z</time>
      </trkpt>
      <trkpt lat="50.435396991670132" lon="12.893137000501156">
        <ele>914.83000000000004</ele>
        <time>2013-09-04T10:12:23Z</time>
      </trkpt>
      <trkpt lat="50.434596017003059" lon="12.894916981458664">
        <ele>927.33000000000004</ele>
        <time>2013-09-04T10:12:33Z</time>
      </trkpt>
      <trkpt lat="50.433392962440848" lon="12.897481005638838">
        <ele>935.5</ele>
        <time>2013-09-04T10:12:46Z</time>
      </trkpt>
      <trkpt lat="50.433190958574414" lon="12.898035971447825">
        <ele>936.46000000000004</ele>
        <time>2013-09-04T10:12:48Z</time>
      </trkpt>
      <trkpt lat="50.433120969682932" lon="12.898341994732618">
        <ele>936.94000000000005</ele>
        <time>2013-09-04T10:12:49Z</time>
      </trkpt>
      <trkpt lat="50.432437006384134" lon="12.901469031348825">
        <ele>943.19000000000005</ele>
        <time>2013-09-04T10:12:59Z</time>
      </trkpt>
      <trkpt lat="50.432245982810855" lon="12.901950990781188">
        <ele>943.19000000000005</ele>
        <time>2013-09-04T10:13:01Z</time>
      </trkpt>
      <trkpt lat="50.432131988927722" lon="12.902158023789525">
        <ele>943.19000000000005</ele>
        <time>2013-09-04T10:13:02Z</time>
      </trkpt>
      <trkpt lat="50.43174097314477" lon="12.902868976816535">
        <ele>942.23000000000002</ele>
        <time>2013-09-04T10:13:06Z</time>
      </trkpt>
      <trkpt lat="50.43171901255846" lon="12.903052037581801">
        <ele>942.71000000000004</ele>
        <time>2013-09-04T10:13:07Z</time>
      </trkpt>
      <trkpt lat="50.431732004508376" lon="12.903230991214514">
        <ele>943.19000000000005</ele>
        <time>2013-09-04T10:13:08Z</time>
      </trkpt>
      <trkpt lat="50.431751031428576" lon="12.90341597981751">
        <ele>943.66999999999996</ele>
        <time>2013-09-04T10:13:09Z</time>
      </trkpt>
      <trkpt lat="50.431775003671646" lon="12.903614966198802">
        <ele>943.66999999999996</ele>
        <time>2013-09-04T10:13:10Z</time>
      </trkpt>
      <trkpt lat="50.431798975914717" lon="12.9038240108639">
        <ele>944.14999999999998</ele>
        <time>2013-09-04T10:13:11Z</time>
      </trkpt>
      <trkpt lat="50.431801993399858" lon="12.904045041650534">
        <ele>945.11000000000001</ele>
        <time>2013-09-04T10:13:12Z</time>
      </trkpt>
      <trkpt lat="50.43178397230804" lon="12.904257019981742">
        <ele>947.51999999999998</ele>
        <time>2013-09-04T10:13:13Z</time>
      </trkpt>
      <trkpt lat="50.431767962872982" lon="12.904438991099596">
        <ele>948.96000000000004</ele>
        <time>2013-09-04T10:13:14Z</time>
      </trkpt>
      <trkpt lat="50.431742984801531" lon="12.904580980539322">
        <ele>949.91999999999996</ele>
        <time>2013-09-04T10:13:15Z</time>
      </trkpt>
      <trkpt lat="50.431708032265306" lon="12.904665973037481">
        <ele>951.36000000000001</ele>
        <time>2013-09-04T10:13:16Z</time>
      </trkpt>
      <trkpt lat="50.431634020060301" lon="12.904668990522623">
        <ele>952.79999999999995</ele>
        <time>2013-09-04T10:13:17Z</time>
      </trkpt>
      <trkpt lat="50.431555984541774" lon="12.904568994417787">
        <ele>953.76999999999998</ele>
        <time>2013-09-04T10:13:18Z</time>
      </trkpt>
      <trkpt lat="50.431270999833941" lon="12.904231958091259">
        <ele>956.64999999999998</ele>
        <time>2013-09-04T10:13:20Z</time>
      </trkpt>
      <trkpt lat="50.431158011779189" lon="12.904116958379745">
        <ele>958.09000000000003</ele>
        <time>2013-09-04T10:13:21Z</time>
      </trkpt>
      <trkpt lat="50.431034965440631" lon="12.904031965881586">
        <ele>959.52999999999997</ele>
        <time>2013-09-04T10:13:22Z</time>
      </trkpt>
      <trkpt lat="50.430896999314427" lon="12.904010005295277">
        <ele>960.49000000000001</ele>
        <time>2013-09-04T10:13:23Z</time>
      </trkpt>
      <trkpt lat="50.430748974904418" lon="12.904063984751701">
        <ele>960.98000000000002</ele>
        <time>2013-09-04T10:13:24Z</time>
      </trkpt>
      <trkpt lat="50.430642021819949" lon="12.904192982241511">
        <ele>961.94000000000005</ele>
        <time>2013-09-04T10:13:25Z</time>
      </trkpt>
      <trkpt lat="50.430564992129803" lon="12.904373025521636">
        <ele>962.89999999999998</ele>
        <time>2013-09-04T10:13:26Z</time>
      </trkpt>
      <trkpt lat="50.430511012673378" lon="12.904579974710941">
        <ele>963.38</ele>
        <time>2013-09-04T10:13:27Z</time>
      </trkpt>
      <trkpt lat="50.430444963276386" lon="12.904810979962349">
        <ele>964.82000000000005</ele>
        <time>2013-09-04T10:13:28Z</time>
      </trkpt>
      <trkpt lat="50.429901983588934" lon="12.906733034178615">
        <ele>976.84000000000003</ele>
        <time>2013-09-04T10:13:35Z</time>
      </trkpt>
      <trkpt lat="50.428675040602684" lon="12.911016019061208">
        <ele>1012.41</ele>
        <time>2013-09-04T10:13:49Z</time>
      </trkpt>
      <trkpt lat="50.427264031022787" lon="12.916367026045918">
        <ele>1044.6099999999999</ele>
        <time>2013-09-04T10:14:06Z</time>
      </trkpt>
      <trkpt lat="50.425991993397474" lon="12.920973971486092">
        <ele>1040.28</ele>
        <time>2013-09-04T10:14:21Z</time>
      </trkpt>
      <trkpt lat="50.424445029348135" lon="12.926524970680475">
        <ele>1038.3599999999999</ele>
        <time>2013-09-04T10:14:40Z</time>
      </trkpt>
      <trkpt lat="50.423483038321137" lon="12.929931962862611">
        <ele>1038.3599999999999</ele>
        <time>2013-09-04T10:14:53Z</time>
      </trkpt>
      <trkpt lat="50.423244992271066" lon="12.930632019415498">
        <ele>1041.73</ele>
        <time>2013-09-04T10:14:56Z</time>
      </trkpt>
      <trkpt lat="50.423142984509468" lon="12.930826982483268">
        <ele>1043.1700000000001</ele>
        <time>2013-09-04T10:14:57Z</time>
      </trkpt>
      <trkpt lat="50.423019016161561" lon="12.931005014106631">
        <ele>1043.6500000000001</ele>
        <time>2013-09-04T10:14:58Z</time>
      </trkpt>
      <trkpt lat="50.422600004822016" lon="12.931542964652181">
        <ele>1047.49</ele>
        <time>2013-09-04T10:15:02Z</time>
      </trkpt>
      <trkpt lat="50.42250101454556" lon="12.931579006835818">
        <ele>1048.9400000000001</ele>
        <time>2013-09-04T10:15:03Z</time>
      </trkpt>
      <trkpt lat="50.422392971813679" lon="12.931570038199425">
        <ele>1049.9000000000001</ele>
        <time>2013-09-04T10:15:04Z</time>
      </trkpt>
      <trkpt lat="50.422270009294152" lon="12.93151899240911">
        <ele>1051.3399999999999</ele>
        <time>2013-09-04T10:15:05Z</time>
      </trkpt>
      <trkpt lat="50.422177975997329" lon="12.931381026282907">
        <ele>1052.78</ele>
        <time>2013-09-04T10:15:06Z</time>
      </trkpt>
      <trkpt lat="50.422078985720873" lon="12.93121699243784">
        <ele>1053.26</ele>
        <time>2013-09-04T10:15:07Z</time>
      </trkpt>
      <trkpt lat="50.421278011053801" lon="12.930137990042567">
        <ele>1062.3900000000001</ele>
        <time>2013-09-04T10:15:14Z</time>
      </trkpt>
      <trkpt lat="50.420233039185405" lon="12.929093018174171">
        <ele>1073.9300000000001</ele>
        <time>2013-09-04T10:15:22Z</time>
      </trkpt>
      <trkpt lat="50.420086020603776" lon="12.929031997919083">
        <ele>1073.9300000000001</ele>
        <time>2013-09-04T10:15:23Z</time>
      </trkpt>
      <trkpt lat="50.419911006465554" lon="12.929016994312406">
        <ele>1075.3699999999999</ele>
        <time>2013-09-04T10:15:24Z</time>
      </trkpt>
      <trkpt lat="50.419719982892275" lon="12.929041972383857">
        <ele>1077.29</ele>
        <time>2013-09-04T10:15:25Z</time>
      </trkpt>
      <trkpt lat="50.419539017602801" lon="12.929087989032269">
        <ele>1079.22</ele>
        <time>2013-09-04T10:15:26Z</time>
      </trkpt>
      <trkpt lat="50.419361991807818" lon="12.929144985973835">
        <ele>1081.1400000000001</ele>
        <time>2013-09-04T10:15:27Z</time>
      </trkpt>
      <trkpt lat="50.417576981708407" lon="12.929730964824557">
        <ele>1095.0799999999999</ele>
        <time>2013-09-04T10:15:36Z</time>
      </trkpt>
      <trkpt lat="50.416771983727813" lon="12.93005702085793">
        <ele>1101.3299999999999</ele>
        <time>2013-09-04T10:15:40Z</time>
      </trkpt>
      <trkpt lat="50.416605016216636" lon="12.930199010297656">
        <ele>1103.25</ele>
        <time>2013-09-04T10:15:41Z</time>
      </trkpt>
      <trkpt lat="50.415439009666443" lon="12.931610019877553">
        <ele>1109.98</ele>
        <time>2013-09-04T10:15:48Z</time>
      </trkpt>
      <trkpt lat="50.413835970684886" lon="12.933622011914849">
        <ele>1115.75</ele>
        <time>2013-09-04T10:15:58Z</time>
      </trkpt>
      <trkpt lat="50.412981016561389" lon="12.934700008481741">
        <ele>1119.5899999999999</ele>
        <time>2013-09-04T10:16:05Z</time>
      </trkpt>
      <trkpt lat="50.412538032978773" lon="12.935378020629287">
        <ele>1109.5</ele>
        <time>2013-09-04T10:16:11Z</time>
      </trkpt>
      <trkpt lat="50.41248899884522" lon="12.935479022562504">
        <ele>1109.5</ele>
        <time>2013-09-04T10:16:12Z</time>
      </trkpt>
      <trkpt lat="50.412541972473264" lon="12.935562003403902">
        <ele>1107.5799999999999</ele>
        <time>2013-09-04T10:16:13Z</time>
      </trkpt>
      <trkpt lat="50.412687985226512" lon="12.935619000345469">
        <ele>1105.1700000000001</ele>
        <time>2013-09-04T10:16:14Z</time>
      </trkpt>
      <trkpt lat="50.412842966616154" lon="12.935615982860327">
        <ele>1105.6500000000001</ele>
        <time>2013-09-04T10:16:15Z</time>
      </trkpt>
      <trkpt lat="50.412932988256216" lon="12.93560097925365">
        <ele>1105.1700000000001</ele>
        <time>2013-09-04T10:16:16Z</time>
      </trkpt>
      <trkpt lat="50.413055028766394" lon="12.935582036152482">
        <ele>1104.21</ele>
        <time>2013-09-04T10:16:17Z</time>
      </trkpt>
      <trkpt lat="50.413333978503942" lon="12.935572983697057">
        <ele>1104.21</ele>
        <time>2013-09-04T10:16:19Z</time>
      </trkpt>
      <trkpt lat="50.413462975993752" lon="12.935596033930779">
        <ele>1103.73</ele>
        <time>2013-09-04T10:16:20Z</time>
      </trkpt>
      <trkpt lat="50.414557987824082" lon="12.936011021956801">
        <ele>1105.6500000000001</ele>
        <time>2013-09-04T10:16:27Z</time>
      </trkpt>
      <trkpt lat="50.41625197045505" lon="12.936612004414201">
        <ele>1116.23</ele>
        <time>2013-09-04T10:16:36Z</time>
      </trkpt>
      <trkpt lat="50.418303022161126" lon="12.937283981591463">
        <ele>1118.1500000000001</ele>
        <time>2013-09-04T10:16:48Z</time>
      </trkpt>
      <trkpt lat="50.418392037972808" lon="12.937471987679601">
        <ele>1118.1500000000001</ele>
        <time>2013-09-04T10:16:49Z</time>
      </trkpt>
      <trkpt lat="50.418472001329064" lon="12.937697963789105">
        <ele>1117.6700000000001</ele>
        <time>2013-09-04T10:16:50Z</time>
      </trkpt>
      <trkpt lat="50.418546013534069" lon="12.937950007617474">
        <ele>1117.6700000000001</ele>
        <time>2013-09-04T10:16:51Z</time>
      </trkpt>
      <trkpt lat="50.418608961626887" lon="12.938229963183403">
        <ele>1117.6700000000001</ele>
        <time>2013-09-04T10:16:52Z</time>
      </trkpt>
      <trkpt lat="50.419620992615819" lon="12.941246023401618">
        <ele>1128.73</ele>
        <time>2013-09-04T10:17:03Z</time>
      </trkpt>
      <trkpt lat="50.421145996078849" lon="12.944854013621807">
        <ele>1149.8699999999999</ele>
        <time>2013-09-04T10:17:16Z</time>
      </trkpt>
      <trkpt lat="50.422171019017696" lon="12.946492005139589">
        <ele>1157.0799999999999</ele>
        <time>2013-09-04T10:17:23Z</time>
      </trkpt>
      <trkpt lat="50.423689987510443" lon="12.948800968006253">
        <ele>1176.3099999999999</ele>
        <time>2013-09-04T10:17:33Z</time>
      </trkpt>
      <trkpt lat="50.424622977152467" lon="12.950929971411824">
        <ele>1181.5999999999999</ele>
        <time>2013-09-04T10:17:41Z</time>
      </trkpt>
      <trkpt lat="50.424723979085684" lon="12.951139016076922">
        <ele>1181.1199999999999</ele>
        <time>2013-09-04T10:17:42Z</time>
      </trkpt>
      <trkpt lat="50.424830010160804" lon="12.951309001073241">
        <ele>1181.1199999999999</ele>
        <time>2013-09-04T10:17:43Z</time>
      </trkpt>
      <trkpt lat="50.424965964630246" lon="12.951431041583419">
        <ele>1181.5999999999999</ele>
        <time>2013-09-04T10:17:44Z</time>
      </trkpt>
      <trkpt lat="50.425107032060623" lon="12.951548974961042">
        <ele>1181.5999999999999</ele>
        <time>2013-09-04T10:17:45Z</time>
      </trkpt>
      <trkpt lat="50.426629018038511" lon="12.952647004276514">
        <ele>1184.48</ele>
        <time>2013-09-04T10:17:54Z</time>
      </trkpt>
      <trkpt lat="50.427968027070165" lon="12.953685019165277">
        <ele>1199.8599999999999</ele>
        <time>2013-09-04T10:18:03Z</time>
      </trkpt>
      <trkpt lat="50.428441017866135" lon="12.954019038006663">
        <ele>1205.6300000000001</ele>
        <time>2013-09-04T10:18:08Z</time>
      </trkpt>
      <trkpt lat="50.428528022021055" lon="12.954034963622689">
        <ele>1206.1099999999999</ele>
        <time>2013-09-04T10:18:09Z</time>
      </trkpt>
      <trkpt lat="50.428615026175976" lon="12.954008979722857">
        <ele>1206.5899999999999</ele>
        <time>2013-09-04T10:18:10Z</time>
      </trkpt>
      <trkpt lat="50.428694989532232" lon="12.953959023579955">
        <ele>1207.0699999999999</ele>
        <time>2013-09-04T10:18:11Z</time>
      </trkpt>
      <trkpt lat="50.428775958716869" lon="12.953887023031712">
        <ele>1207.0699999999999</ele>
        <time>2013-09-04T10:18:12Z</time>
      </trkpt>
      <trkpt lat="50.428855000063777" lon="12.953810999169946">
        <ele>1206.5899999999999</ele>
        <time>2013-09-04T10:18:13Z</time>
      </trkpt>
      <trkpt lat="50.429003024473786" lon="12.953700022771955">
        <ele>1206.5899999999999</ele>
        <time>2013-09-04T10:18:15Z</time>
      </trkpt>
      <trkpt lat="50.429073013365269" lon="12.953668003901839">
        <ele>1206.1099999999999</ele>
        <time>2013-09-04T10:18:16Z</time>
      </trkpt>
      <trkpt lat="50.429136967286468" lon="12.953664986416698">
        <ele>1205.6300000000001</ele>
        <time>2013-09-04T10:18:17Z</time>
      </trkpt>
      <trkpt lat="50.429199999198318" lon="12.953685019165277">
        <ele>1205.6300000000001</ele>
        <time>2013-09-04T10:18:18Z</time>
      </trkpt>
      <trkpt lat="50.429252972826362" lon="12.953714020550251">
        <ele>1205.1500000000001</ele>
        <time>2013-09-04T10:18:19Z</time>
      </trkpt>
      <trkpt lat="50.429299995303154" lon="12.953750984743237">
        <ele>1205.1500000000001</ele>
        <time>2013-09-04T10:18:20Z</time>
      </trkpt>
      <trkpt lat="50.429393034428358" lon="12.95382097363472">
        <ele>1205.1500000000001</ele>
        <time>2013-09-04T10:18:22Z</time>
      </trkpt>
      <trkpt lat="50.429520020261407" lon="12.953999005258083">
        <ele>1204.1900000000001</ele>
        <time>2013-09-04T10:18:26Z</time>
      </trkpt>
      <trkpt lat="50.429511973634362" lon="12.953843018040061">
        <ele>1204.6700000000001</ele>
        <time>2013-09-04T10:18:32Z</time>
      </trkpt>
      <trkpt lat="50.429404014721513" lon="12.953760037198663">
        <ele>1205.1500000000001</ele>
        <time>2013-09-04T10:18:34Z</time>
      </trkpt>
      <trkpt lat="50.429034037515521" lon="12.953613018617034">
        <ele>1207.55</ele>
        <time>2013-09-04T10:18:39Z</time>
      </trkpt>
      <trkpt lat="50.428959019482136" lon="12.953631039708853">
        <ele>1207.55</ele>
        <time>2013-09-04T10:18:40Z</time>
      </trkpt>
      <trkpt lat="50.42888299562037" lon="12.953675966709852">
        <ele>1208.51</ele>
        <time>2013-09-04T10:18:41Z</time>
      </trkpt>
      <trkpt lat="50.428813006728888" lon="12.953732963651419">
        <ele>1209.96</ele>
        <time>2013-09-04T10:18:42Z</time>
      </trkpt>
      <trkpt lat="50.428743017837405" lon="12.95379800722003">
        <ele>1210.9200000000001</ele>
        <time>2013-09-04T10:18:43Z</time>
      </trkpt>
      <trkpt lat="50.428494997322559" lon="12.95403404161334">
        <ele>1212.3599999999999</ele>
        <time>2013-09-04T10:18:48Z</time>
      </trkpt>
      <trkpt lat="50.428480999544263" lon="12.954091038554907">
        <ele>1211.8800000000001</ele>
        <time>2013-09-04T10:18:49Z</time>
      </trkpt>
      <trkpt lat="50.428523998707533" lon="12.95420796610415">
        <ele>1212.3599999999999</ele>
        <time>2013-09-04T10:18:51Z</time>
      </trkpt>
      <trkpt lat="50.428564986214042" lon="12.954253982752562">
        <ele>1212.3599999999999</ele>
        <time>2013-09-04T10:18:52Z</time>
      </trkpt>
      <trkpt lat="50.428613014519215" lon="12.95429396443069">
        <ele>1212.3599999999999</ele>
        <time>2013-09-04T10:18:53Z</time>
      </trkpt>
      <trkpt lat="50.428707981482148" lon="12.954351967200637">
        <ele>1211.8800000000001</ele>
        <time>2013-09-04T10:18:55Z</time>
      </trkpt>
      <trkpt lat="50.428758021444082" lon="12.954346016049385">
        <ele>1211.4000000000001</ele>
        <time>2013-09-04T10:18:56Z</time>
      </trkpt>
      <trkpt lat="50.428790040314198" lon="12.954324977472425">
        <ele>1210.9200000000001</ele>
        <time>2013-09-04T10:18:57Z</time>
      </trkpt>
      <trkpt lat="50.428808983415365" lon="12.95429497025907">
        <ele>1210.4400000000001</ele>
        <time>2013-09-04T10:18:58Z</time>
      </trkpt>
      <trkpt lat="50.428804960101843" lon="12.954266974702477">
        <ele>1209.96</ele>
        <time>2013-09-04T10:19:10Z</time>
      </trkpt>
      <trkpt lat="50.428890036419034" lon="12.954307040199637">
        <ele>1220.53</ele>
        <time>2013-09-04T10:35:33Z</time>
      </trkpt>
      <trkpt lat="50.428851982578635" lon="12.954320032149553">
        <ele>1222.9300000000001</ele>
        <time>2013-09-04T10:36:25Z</time>
      </trkpt>
      <trkpt lat="50.428847959265113" lon="12.954318020492792">
        <ele>1222.45</ele>
        <time>2013-09-04T10:36:41Z</time>
      </trkpt>
      <trkpt lat="50.428554005920887" lon="12.954160021618009">
        <ele>1223.4200000000001</ele>
        <time>2013-09-04T10:36:48Z</time>
      </trkpt>
      <trkpt lat="50.428491979837418" lon="12.95412196777761">
        <ele>1223.9000000000001</ele>
        <time>2013-09-04T10:36:49Z</time>
      </trkpt>
      <trkpt lat="50.428416961804032" lon="12.954068994149566">
        <ele>1222.9300000000001</ele>
        <time>2013-09-04T10:36:50Z</time>
      </trkpt>
      <trkpt lat="50.428340015932918" lon="12.95399003662169">
        <ele>1221.97</ele>
        <time>2013-09-04T10:36:51Z</time>
      </trkpt>
      <trkpt lat="50.428141029551625" lon="12.953823991119862">
        <ele>1221.01</ele>
        <time>2013-09-04T10:36:53Z</time>
      </trkpt>
      <trkpt lat="50.426874021068215" lon="12.952862000092864">
        <ele>1207.55</ele>
        <time>2013-09-04T10:37:03Z</time>
      </trkpt>
      <trkpt lat="50.425275005400181" lon="12.951675038784742">
        <ele>1195.0599999999999</ele>
        <time>2013-09-04T10:37:13Z</time>
      </trkpt>
      <trkpt lat="50.424804026260972" lon="12.951296009123325">
        <ele>1195.54</ele>
        <time>2013-09-04T10:37:16Z</time>
      </trkpt>
      <trkpt lat="50.424678968265653" lon="12.951115965843201">
        <ele>1196.02</ele>
        <time>2013-09-04T10:37:17Z</time>
      </trkpt>
      <trkpt lat="50.42456204071641" lon="12.950913961976767">
        <ele>1196.02</ele>
        <time>2013-09-04T10:37:18Z</time>
      </trkpt>
      <trkpt lat="50.424463972449303" lon="12.950685974210501">
        <ele>1196.5</ele>
        <time>2013-09-04T10:37:19Z</time>
      </trkpt>
      <trkpt lat="50.424379985779524" lon="12.950437031686306">
        <ele>1196.5</ele>
        <time>2013-09-04T10:37:20Z</time>
      </trkpt>
      <trkpt lat="50.423377007246017" lon="12.94819001108408">
        <ele>1190.73</ele>
        <time>2013-09-04T10:37:29Z</time>
      </trkpt>
      <trkpt lat="50.422056019306183" lon="12.946173995733261">
        <ele>1181.5999999999999</ele>
        <time>2013-09-04T10:37:38Z</time>
      </trkpt>
      <trkpt lat="50.421057986095548" lon="12.944553019478917">
        <ele>1173.9100000000001</ele>
        <time>2013-09-04T10:37:45Z</time>
      </trkpt>
      <trkpt lat="50.41964597068727" lon="12.941406033933163">
        <ele>1150.8399999999999</ele>
        <time>2013-09-04T10:37:57Z</time>
      </trkpt>
      <trkpt lat="50.418700994923711" lon="12.938705971464515">
        <ele>1134.49</ele>
        <time>2013-09-04T10:38:07Z</time>
      </trkpt>
      <trkpt lat="50.418259017169476" lon="12.937222961336374">
        <ele>1125.3599999999999</ele>
        <time>2013-09-04T10:38:13Z</time>
      </trkpt>
      <trkpt lat="50.418153991922736" lon="12.9370610229671">
        <ele>1124.4000000000001</ele>
        <time>2013-09-04T10:38:14Z</time>
      </trkpt>
      <trkpt lat="50.418016025796533" lon="12.936961026862264">
        <ele>1125.3599999999999</ele>
        <time>2013-09-04T10:38:15Z</time>
      </trkpt>
      <trkpt lat="50.417860960587859" lon="12.936897994950414">
        <ele>1124.8800000000001</ele>
        <time>2013-09-04T10:38:16Z</time>
      </trkpt>
      <trkpt lat="50.417704973369837" lon="12.936860024929047">
        <ele>1125.8399999999999</ele>
        <time>2013-09-04T10:38:17Z</time>
      </trkpt>
      <trkpt lat="50.417537000030279" lon="12.936823982745409">
        <ele>1125.8399999999999</ele>
        <time>2013-09-04T10:38:18Z</time>
      </trkpt>
      <trkpt lat="50.415347982198" lon="12.936285026371479">
        <ele>1115.27</ele>
        <time>2013-09-04T10:38:30Z</time>
      </trkpt>
      <trkpt lat="50.413658022880554" lon="12.935614977031946">
        <ele>1102.77</ele>
        <time>2013-09-04T10:38:40Z</time>
      </trkpt>
      <trkpt lat="50.413304977118969" lon="12.935437029227614">
        <ele>1100.8499999999999</ele>
        <time>2013-09-04T10:38:43Z</time>
      </trkpt>
      <trkpt lat="50.413227025419474" lon="12.93534399010241">
        <ele>1099.8900000000001</ele>
        <time>2013-09-04T10:38:44Z</time>
      </trkpt>
      <trkpt lat="50.413174973800778" lon="12.935223039239645">
        <ele>1099.4000000000001</ele>
        <time>2013-09-04T10:38:45Z</time>
      </trkpt>
      <trkpt lat="50.413089981302619" lon="12.934946017339826">
        <ele>1093.1600000000001</ele>
        <time>2013-09-04T10:38:51Z</time>
      </trkpt>
      <trkpt lat="50.413077995181084" lon="12.93493403121829">
        <ele>1092.2</ele>
        <time>2013-09-04T10:38:52Z</time>
      </trkpt>
      <trkpt lat="50.41304899379611" lon="12.934954985976219">
        <ele>1090.75</ele>
        <time>2013-09-04T10:38:53Z</time>
      </trkpt>
      <trkpt lat="50.412998031824827" lon="12.935025980696082">
        <ele>1090.75</ele>
        <time>2013-09-04T10:38:54Z</time>
      </trkpt>
      <trkpt lat="50.412944974377751" lon="12.935116002336144">
        <ele>1089.79</ele>
        <time>2013-09-04T10:38:55Z</time>
      </trkpt>
      <trkpt lat="50.412889989092946" lon="12.935209963470697">
        <ele>1089.79</ele>
        <time>2013-09-04T10:38:56Z</time>
      </trkpt>
      <trkpt lat="50.412260005250573" lon="12.936522988602519">
        <ele>1083.54</ele>
        <time>2013-09-04T10:39:06Z</time>
      </trkpt>
      <trkpt lat="50.412208959460258" lon="12.936690039932728">
        <ele>1082.5799999999999</ele>
        <time>2013-09-04T10:39:07Z</time>
      </trkpt>
      <trkpt lat="50.412180041894317" lon="12.936860024929047">
        <ele>1081.1400000000001</ele>
        <time>2013-09-04T10:39:08Z</time>
      </trkpt>
      <trkpt lat="50.412180963903666" lon="12.937024980783463">
        <ele>1080.1800000000001</ele>
        <time>2013-09-04T10:39:09Z</time>
      </trkpt>
      <trkpt lat="50.412216000258923" lon="12.937191026285291">
        <ele>1079.22</ele>
        <time>2013-09-04T10:39:10Z</time>
      </trkpt>
      <trkpt lat="50.412266962230206" lon="12.937348019331694">
        <ele>1078.74</ele>
        <time>2013-09-04T10:39:11Z</time>
      </trkpt>
      <trkpt lat="50.4123380407691" lon="12.937500989064574">
        <ele>1078.26</ele>
        <time>2013-09-04T10:39:12Z</time>
      </trkpt>
      <trkpt lat="50.412420015782118" lon="12.937639039009809">
        <ele>1077.78</ele>
        <time>2013-09-04T10:39:13Z</time>
      </trkpt>
      <trkpt lat="50.412506014108658" lon="12.937766024842858">
        <ele>1077.29</ele>
        <time>2013-09-04T10:39:14Z</time>
      </trkpt>
      <trkpt lat="50.412879008799791" lon="12.938276985660195">
        <ele>1077.78</ele>
        <time>2013-09-04T10:39:18Z</time>
      </trkpt>
      <trkpt lat="50.41296299546957" lon="12.938430039212108">
        <ele>1077.78</ele>
        <time>2013-09-04T10:39:19Z</time>
      </trkpt>
      <trkpt lat="50.413037007674575" lon="12.938596000894904">
        <ele>1077.78</ele>
        <time>2013-09-04T10:39:20Z</time>
      </trkpt>
      <trkpt lat="50.413662968203425" lon="12.940394002944231">
        <ele>1076.8099999999999</ele>
        <time>2013-09-04T10:39:28Z</time>
      </trkpt>
      <trkpt lat="50.414589000865817" lon="12.94294897466898">
        <ele>1066.72</ele>
        <time>2013-09-04T10:39:37Z</time>
      </trkpt>
      <trkpt lat="50.415997998788953" lon="12.947067003697157">
        <ele>1049.9000000000001</ele>
        <time>2013-09-04T10:39:50Z</time>
      </trkpt>
      <trkpt lat="50.416682967916131" lon="12.951344037428498">
        <ele>1025.3800000000001</ele>
        <time>2013-09-04T10:40:02Z</time>
      </trkpt>
      <trkpt lat="50.416971975937486" lon="12.95485001988709">
        <ele>1006.16</ele>
        <time>2013-09-04T10:40:12Z</time>
      </trkpt>
      <trkpt lat="50.417165011167526" lon="12.957985019311309">
        <ele>990.29999999999995</ele>
        <time>2013-09-04T10:40:21Z</time>
      </trkpt>
      <trkpt lat="50.417322004213929" lon="12.960174037143588">
        <ele>976.84000000000003</ele>
        <time>2013-09-04T10:40:28Z</time>
      </trkpt>
      <trkpt lat="50.417509004473686" lon="12.961825020611286">
        <ele>969.14999999999998</ele>
        <time>2013-09-04T10:40:35Z</time>
      </trkpt>
      <trkpt lat="50.417463993653655" lon="12.961997017264366">
        <ele>968.66999999999996</ele>
        <time>2013-09-04T10:40:36Z</time>
      </trkpt>
      <trkpt lat="50.417381012812257" lon="12.962121991440654">
        <ele>967.70000000000005</ele>
        <time>2013-09-04T10:40:37Z</time>
      </trkpt>
      <trkpt lat="50.417283028364182" lon="12.962173037230968">
        <ele>967.22000000000003</ele>
        <time>2013-09-04T10:40:38Z</time>
      </trkpt>
      <trkpt lat="50.417180014774203" lon="12.962124003097415">
        <ele>967.22000000000003</ele>
        <time>2013-09-04T10:40:39Z</time>
      </trkpt>
      <trkpt lat="50.417079012840986" lon="12.962007997557521">
        <ele>966.74000000000001</ele>
        <time>2013-09-04T10:40:40Z</time>
      </trkpt>
      <trkpt lat="50.417010029777884" lon="12.961836000904441">
        <ele>965.77999999999997</ele>
        <time>2013-09-04T10:40:41Z</time>
      </trkpt>
      <trkpt lat="50.416954960674047" lon="12.961617987602949">
        <ele>965.29999999999995</ele>
        <time>2013-09-04T10:40:42Z</time>
      </trkpt>
      <trkpt lat="50.416911961510777" lon="12.961376002058387">
        <ele>964.82000000000005</ele>
        <time>2013-09-04T10:40:43Z</time>
      </trkpt>
      <trkpt lat="50.416866028681397" lon="12.961115995422006">
        <ele>963.86000000000001</ele>
        <time>2013-09-04T10:40:44Z</time>
      </trkpt>
      <trkpt lat="50.416273009032011" lon="12.959124958142638">
        <ele>954.25</ele>
        <time>2013-09-04T10:40:51Z</time>
      </trkpt>
      <trkpt lat="50.415622992441058" lon="12.956812977790833">
        <ele>946.07000000000005</ele>
        <time>2013-09-04T10:40:59Z</time>
      </trkpt>
      <trkpt lat="50.415387041866779" lon="12.955846041440964">
        <ele>941.75</ele>
        <time>2013-09-04T10:41:03Z</time>
      </trkpt>
      <trkpt lat="50.41532501578331" lon="12.955677984282374">
        <ele>941.26999999999998</ele>
        <time>2013-09-04T10:41:04Z</time>
      </trkpt>
      <trkpt lat="50.41521898470819" lon="12.955558961257339">
        <ele>940.30999999999995</ele>
        <time>2013-09-04T10:41:05Z</time>
      </trkpt>
      <trkpt lat="50.415105996653438" lon="12.955514034256339">
        <ele>939.83000000000004</ele>
        <time>2013-09-04T10:41:06Z</time>
      </trkpt>
      <trkpt lat="50.414971970021725" lon="12.955549992620945">
        <ele>939.83000000000004</ele>
        <time>2013-09-04T10:41:07Z</time>
      </trkpt>
      <trkpt lat="50.414907010272145" lon="12.955673960968852">
        <ele>937.41999999999996</ele>
        <time>2013-09-04T10:41:08Z</time>
      </trkpt>
      <trkpt lat="50.414881026372313" lon="12.955872025340796">
        <ele>934.05999999999995</ele>
        <time>2013-09-04T10:41:09Z</time>
      </trkpt>
      <trkpt lat="50.414883960038424" lon="12.956094983965158">
        <ele>931.16999999999996</ele>
        <time>2013-09-04T10:41:10Z</time>
      </trkpt>
      <trkpt lat="50.414896029978991" lon="12.956324983388186">
        <ele>930.21000000000004</ele>
        <time>2013-09-04T10:41:11Z</time>
      </trkpt>
      <trkpt lat="50.414952021092176" lon="12.95656998641789">
        <ele>928.76999999999998</ele>
        <time>2013-09-04T10:41:12Z</time>
      </trkpt>
      <trkpt lat="50.415007006376982" lon="12.956824963912368">
        <ele>928.76999999999998</ele>
        <time>2013-09-04T10:41:13Z</time>
      </trkpt>
      <trkpt lat="50.415345970541239" lon="12.958956984803081">
        <ele>918.20000000000005</ele>
        <time>2013-09-04T10:41:20Z</time>
      </trkpt>
      <trkpt lat="50.415334990248084" lon="12.961816973984241">
        <ele>903.77999999999997</ele>
        <time>2013-09-04T10:41:28Z</time>
      </trkpt>
      <trkpt lat="50.415356028825045" lon="12.964423997327685">
        <ele>892.24000000000001</ele>
        <time>2013-09-04T10:41:36Z</time>
      </trkpt>
      <trkpt lat="50.41571200825274" lon="12.966720974072814">
        <ele>880.71000000000004</ele>
        <time>2013-09-04T10:41:44Z</time>
      </trkpt>
      <trkpt lat="50.416489010676742" lon="12.968759033828974">
        <ele>875.41999999999996</ele>
        <time>2013-09-04T10:41:52Z</time>
      </trkpt>
      <trkpt lat="50.416910033673048" lon="12.971320962533355">
        <ele>871.09000000000003</ele>
        <time>2013-09-04T10:42:01Z</time>
      </trkpt>
      <trkpt lat="50.417534988373518" lon="12.973752971738577">
        <ele>867.73000000000002</ele>
        <time>2013-09-04T10:42:09Z</time>
      </trkpt>
      <trkpt lat="50.418250970542431" lon="12.976731983944774">
        <ele>857.14999999999998</ele>
        <time>2013-09-04T10:42:19Z</time>
      </trkpt>
      <trkpt lat="50.418791016563773" lon="12.978772977367043">
        <ele>849.94000000000005</ele>
        <time>2013-09-04T10:42:28Z</time>
      </trkpt>
      <trkpt lat="50.419591991230845" lon="12.980464026331902">
        <ele>847.05999999999995</ele>
        <time>2013-09-04T10:42:38Z</time>
      </trkpt>
      <trkpt lat="50.420741988345981" lon="12.982605015859008">
        <ele>857.63</ele>
        <time>2013-09-04T10:42:51Z</time>
      </trkpt>
      <trkpt lat="50.421180026605725" lon="12.983079012483358">
        <ele>859.55999999999995</ele>
        <time>2013-09-04T10:42:55Z</time>
      </trkpt>
      <trkpt lat="50.421485966071486" lon="12.98340599052608">
        <ele>859.55999999999995</ele>
        <time>2013-09-04T10:42:59Z</time>
      </trkpt>
      <trkpt lat="50.421604989096522" lon="12.983486959710717">
        <ele>858.11000000000001</ele>
        <time>2013-09-04T10:43:02Z</time>
      </trkpt>
      <trkpt lat="50.421660980209708" lon="12.9835120216012">
        <ele>857.14999999999998</ele>
        <time>2013-09-04T10:43:05Z</time>
      </trkpt>
      <trkpt lat="50.4217270296067" lon="12.983556026592851">
        <ele>857.14999999999998</ele>
        <time>2013-09-04T10:43:24Z</time>
      </trkpt>
      <trkpt lat="50.421911012381315" lon="12.983722994104028">
        <ele>858.11000000000001</ele>
        <time>2013-09-04T10:43:45Z</time>
      </trkpt>
      <trkpt lat="50.422450974583626" lon="12.984303021803498">
        <ele>857.14999999999998</ele>
        <time>2013-09-04T10:43:53Z</time>
      </trkpt>
      <trkpt lat="50.422847019508481" lon="12.984800990670919">
        <ele>855.23000000000002</ele>
        <time>2013-09-04T10:43:58Z</time>
      </trkpt>
      <trkpt lat="50.422933017835021" lon="12.984880032017827">
        <ele>854.26999999999998</ele>
        <time>2013-09-04T10:43:59Z</time>
      </trkpt>
      <trkpt lat="50.423028990626335" lon="12.984944991767406">
        <ele>854.26999999999998</ele>
        <time>2013-09-04T10:44:00Z</time>
      </trkpt>
      <trkpt lat="50.423137033358216" lon="12.984993020072579">
        <ele>853.78999999999996</ele>
        <time>2013-09-04T10:44:01Z</time>
      </trkpt>
      <trkpt lat="50.423240968957543" lon="12.98503995873034">
        <ele>853.30999999999995</ele>
        <time>2013-09-04T10:44:02Z</time>
      </trkpt>
      <trkpt lat="50.424268003553152" lon="12.985832970589399">
        <ele>861</ele>
        <time>2013-09-04T10:44:13Z</time>
      </trkpt>
      <trkpt lat="50.425277017056942" lon="12.986874002963305">
        <ele>865.79999999999995</ele>
        <time>2013-09-04T10:44:25Z</time>
      </trkpt>
      <trkpt lat="50.426385020837188" lon="12.987570036202669">
        <ele>859.08000000000004</ele>
        <time>2013-09-04T10:44:36Z</time>
      </trkpt>
      <trkpt lat="50.42660596780479" lon="12.987667014822364">
        <ele>858.11000000000001</ele>
        <time>2013-09-04T10:44:38Z</time>
      </trkpt>
      <trkpt lat="50.426833033561707" lon="12.987815961241722">
        <ele>858.11000000000001</ele>
        <time>2013-09-04T10:44:40Z</time>
      </trkpt>
      <trkpt lat="50.426945015788078" lon="12.987902965396643">
        <ele>857.63</ele>
        <time>2013-09-04T10:44:41Z</time>
      </trkpt>
      <trkpt lat="50.427049035206437" lon="12.988010002300143">
        <ele>857.14999999999998</ele>
        <time>2013-09-04T10:44:42Z</time>
      </trkpt>
      <trkpt lat="50.427424041554332" lon="12.988371010869741">
        <ele>855.23000000000002</ele>
        <time>2013-09-04T10:44:46Z</time>
      </trkpt>
      <trkpt lat="50.427525965496898" lon="12.988437982276082">
        <ele>855.23000000000002</ele>
        <time>2013-09-04T10:44:47Z</time>
      </trkpt>
      <trkpt lat="50.428459960967302" lon="12.988785998895764">
        <ele>855.23000000000002</ele>
        <time>2013-09-04T10:44:57Z</time>
      </trkpt>
      <trkpt lat="50.428823987022042" lon="12.988851964473724">
        <ele>848.01999999999998</ele>
        <time>2013-09-04T10:45:05Z</time>
      </trkpt>
      <trkpt lat="50.428886013105512" lon="12.988836960867047">
        <ele>848.01999999999998</ele>
        <time>2013-09-04T10:45:19Z</time>
      </trkpt>
      <trkpt lat="50.428887018933892" lon="12.988836960867047">
        <ele>848.01999999999998</ele>
        <time>2013-09-04T10:46:58Z</time>
      </trkpt>
      <trkpt lat="50.428902022540569" lon="12.988833021372557">
        <ele>848.01999999999998</ele>
        <time>2013-09-04T10:47:24Z</time>
      </trkpt>
      <trkpt lat="50.429187007248402" lon="12.988928994163871">
        <ele>847.05999999999995</ele>
        <time>2013-09-04T10:47:33Z</time>
      </trkpt>
      <trkpt lat="50.429236963391304" lon="12.988907033577561">
        <ele>848.01999999999998</ele>
        <time>2013-09-04T10:47:44Z</time>
      </trkpt>
      <trkpt lat="50.429276023060083" lon="12.988874008879066">
        <ele>848.01999999999998</ele>
        <time>2013-09-04T10:47:54Z</time>
      </trkpt>
      <trkpt lat="50.429669972509146" lon="12.988687008619308">
        <ele>847.53999999999996</ele>
        <time>2013-09-04T10:47:59Z</time>
      </trkpt>
      <trkpt lat="50.430138017982244" lon="12.988405963405967">
        <ele>845.13999999999999</ele>
        <time>2013-09-04T10:48:04Z</time>
      </trkpt>
      <trkpt lat="50.430227033793926" lon="12.988416021689773">
        <ele>845.62</ele>
        <time>2013-09-04T10:48:05Z</time>
      </trkpt>
      <trkpt lat="50.430325018242002" lon="12.988427001982927">
        <ele>845.13999999999999</ele>
        <time>2013-09-04T10:48:06Z</time>
      </trkpt>
      <trkpt lat="50.430414034053683" lon="12.988466983661056">
        <ele>845.13999999999999</ele>
        <time>2013-09-04T10:48:07Z</time>
      </trkpt>
      <trkpt lat="50.430496009066701" lon="12.988530015572906">
        <ele>845.62</ele>
        <time>2013-09-04T10:48:08Z</time>
      </trkpt>
      <trkpt lat="50.430568009614944" lon="12.988619031384587">
        <ele>846.10000000000002</ele>
        <time>2013-09-04T10:48:09Z</time>
      </trkpt>
      <trkpt lat="50.430629029870033" lon="12.988720033317804">
        <ele>846.58000000000004</ele>
        <time>2013-09-04T10:48:10Z</time>
      </trkpt>
      <trkpt lat="50.430648978799582" lon="12.988803014159203">
        <ele>846.10000000000002</ele>
        <time>2013-09-04T10:48:11Z</time>
      </trkpt>
      <trkpt lat="50.430640010163188" lon="12.988899992778897">
        <ele>845.13999999999999</ele>
        <time>2013-09-04T10:48:12Z</time>
      </trkpt>
      <trkpt lat="50.430615032091737" lon="12.989020021632314">
        <ele>844.65999999999997</ele>
        <time>2013-09-04T10:48:13Z</time>
      </trkpt>
      <trkpt lat="50.430583013221622" lon="12.989146001636982">
        <ele>844.17999999999995</ele>
        <time>2013-09-04T10:48:14Z</time>
      </trkpt>
      <trkpt lat="50.430547976866364" lon="12.989272987470031">
        <ele>843.21000000000004</ele>
        <time>2013-09-04T10:48:15Z</time>
      </trkpt>
      <trkpt lat="50.430484022945166" lon="12.989584039896727">
        <ele>841.76999999999998</ele>
        <time>2013-09-04T10:48:17Z</time>
      </trkpt>
      <trkpt lat="50.430458961054683" lon="12.989712031558156">
        <ele>840.80999999999995</ele>
        <time>2013-09-04T10:48:18Z</time>
      </trkpt>
      <trkpt lat="50.430467007681727" lon="12.989844968542457">
        <ele>839.85000000000002</ele>
        <time>2013-09-04T10:48:19Z</time>
      </trkpt>
      <trkpt lat="50.430501038208604" lon="12.989993998780847">
        <ele>840.33000000000004</ele>
        <time>2013-09-04T10:48:20Z</time>
      </trkpt>
      <trkpt lat="50.43056096881628" lon="12.990119978785515">
        <ele>841.28999999999996</ele>
        <time>2013-09-04T10:48:21Z</time>
      </trkpt>
      <trkpt lat="50.430642021819949" lon="12.990241013467312">
        <ele>841.76999999999998</ele>
        <time>2013-09-04T10:48:22Z</time>
      </trkpt>
      <trkpt lat="50.430734977126122" lon="12.990385014563799">
        <ele>841.76999999999998</ele>
        <time>2013-09-04T10:48:23Z</time>
      </trkpt>
      <trkpt lat="50.4308189637959" lon="12.990539995953441">
        <ele>842.25</ele>
        <time>2013-09-04T10:48:24Z</time>
      </trkpt>
      <trkpt lat="50.430904040113091" lon="12.990706963464618">
        <ele>842.73000000000002</ele>
        <time>2013-09-04T10:48:25Z</time>
      </trkpt>
      <trkpt lat="50.431297989562154" lon="12.991473991423845">
        <ele>844.17999999999995</ele>
        <time>2013-09-04T10:48:29Z</time>
      </trkpt>
      <trkpt lat="50.431432016193867" lon="12.991649005562067">
        <ele>845.13999999999999</ele>
        <time>2013-09-04T10:48:30Z</time>
      </trkpt>
      <trkpt lat="50.432541025802493" lon="12.993087004870176">
        <ele>842.73000000000002</ele>
        <time>2013-09-04T10:48:37Z</time>
      </trkpt>
      <trkpt lat="50.434828028082848" lon="12.996429959312081">
        <ele>827.83000000000004</ele>
        <time>2013-09-04T10:48:51Z</time>
      </trkpt>
      <trkpt lat="50.435308981686831" lon="12.997160023078322">
        <ele>825.90999999999997</ele>
        <time>2013-09-04T10:48:54Z</time>
      </trkpt>
      <trkpt lat="50.435490030795336" lon="12.997364960610867">
        <ele>825.42999999999995</ele>
        <time>2013-09-04T10:48:55Z</time>
      </trkpt>
      <trkpt lat="50.436000991612673" lon="12.998002991080284">
        <ele>825.90999999999997</ele>
        <time>2013-09-04T10:48:58Z</time>
      </trkpt>
      <trkpt lat="50.436121020466089" lon="12.998272972181439">
        <ele>825.90999999999997</ele>
        <time>2013-09-04T10:48:59Z</time>
      </trkpt>
      <trkpt lat="50.437126010656357" lon="13.000603979453444">
        <ele>821.10000000000002</ele>
        <time>2013-09-04T10:49:07Z</time>
      </trkpt>
      <trkpt lat="50.438583958894014" lon="13.003525994718075">
        <ele>814.85000000000002</ele>
        <time>2013-09-04T10:49:18Z</time>
      </trkpt>
      <trkpt lat="50.438639027997851" lon="13.003744008019567">
        <ele>814.85000000000002</ele>
        <time>2013-09-04T10:49:19Z</time>
      </trkpt>
      <trkpt lat="50.43868001550436" lon="13.003952968865633">
        <ele>814.37</ele>
        <time>2013-09-04T10:49:20Z</time>
      </trkpt>
      <trkpt lat="50.438717985525727" lon="13.00416000187397">
        <ele>812.45000000000005</ele>
        <time>2013-09-04T10:49:21Z</time>
      </trkpt>
      <trkpt lat="50.439058039337397" lon="13.005791958421469">
        <ele>803.79999999999995</ele>
        <time>2013-09-04T10:49:29Z</time>
      </trkpt>
      <trkpt lat="50.439302958548069" lon="13.006268972530961">
        <ele>799.47000000000003</ele>
        <time>2013-09-04T10:49:32Z</time>
      </trkpt>
      <trkpt lat="50.439400020986795" lon="13.006405010819435">
        <ele>798.99000000000001</ele>
        <time>2013-09-04T10:49:33Z</time>
      </trkpt>
      <trkpt lat="50.439505968242884" lon="13.006517998874187">
        <ele>798.02999999999997</ele>
        <time>2013-09-04T10:49:34Z</time>
      </trkpt>
      <trkpt lat="50.440702987834811" lon="13.007836975157261">
        <ele>790.34000000000003</ele>
        <time>2013-09-04T10:49:45Z</time>
      </trkpt>
      <trkpt lat="50.440822010859847" lon="13.007938982918859">
        <ele>790.34000000000003</ele>
        <time>2013-09-04T10:49:46Z</time>
      </trkpt>
      <trkpt lat="50.441422993317246" lon="13.008406022563577">
        <ele>791.77999999999997</ele>
        <time>2013-09-04T10:49:51Z</time>
      </trkpt>
      <trkpt lat="50.441536987200379" lon="13.008534014225006">
        <ele>791.77999999999997</ele>
        <time>2013-09-04T10:49:52Z</time>
      </trkpt>
      <trkpt lat="50.442453967407346" lon="13.009987017139792">
        <ele>793.22000000000003</ele>
        <time>2013-09-04T10:50:02Z</time>
      </trkpt>
      <trkpt lat="50.443661967292428" lon="13.01266604103148">
        <ele>788.89999999999998</ele>
        <time>2013-09-04T10:50:18Z</time>
      </trkpt>
      <trkpt lat="50.444318018853664" lon="13.013960039243102">
        <ele>783.61000000000001</ele>
        <time>2013-09-04T10:50:26Z</time>
      </trkpt>
      <trkpt lat="50.445047998800874" lon="13.016060963273048">
        <ele>778.80999999999995</ele>
        <time>2013-09-04T10:50:37Z</time>
      </trkpt>
      <trkpt lat="50.445734979584813" lon="13.017819989472628">
        <ele>773.03999999999996</ele>
        <time>2013-09-04T10:50:46Z</time>
      </trkpt>
      <trkpt lat="50.446690013632178" lon="13.018754990771413">
        <ele>771.11000000000001</ele>
        <time>2013-09-04T10:50:54Z</time>
      </trkpt>
      <trkpt lat="50.448205964639783" lon="13.019429985433817">
        <ele>772.08000000000004</ele>
        <time>2013-09-04T10:51:05Z</time>
      </trkpt>
      <trkpt lat="50.450117960572243" lon="13.020782992243767">
        <ele>772.55999999999995</ele>
        <time>2013-09-04T10:51:19Z</time>
      </trkpt>
      <trkpt lat="50.45213095843792" lon="13.022128958255053">
        <ele>772.08000000000004</ele>
        <time>2013-09-04T10:51:32Z</time>
      </trkpt>
      <trkpt lat="50.453597959131002" lon="13.022871008142829">
        <ele>773.51999999999998</ele>
        <time>2013-09-04T10:51:41Z</time>
      </trkpt>
      <trkpt lat="50.453759981319308" lon="13.022900009527802">
        <ele>773.03999999999996</ele>
        <time>2013-09-04T10:51:42Z</time>
      </trkpt>
      <trkpt lat="50.453924015164375" lon="13.022881988435984">
        <ele>771.60000000000002</ele>
        <time>2013-09-04T10:51:43Z</time>
      </trkpt>
      <trkpt lat="50.454102968797088" lon="13.022833960130811">
        <ele>770.63</ele>
        <time>2013-09-04T10:51:44Z</time>
      </trkpt>
      <trkpt lat="50.454614013433456" lon="13.022603960707784">
        <ele>766.30999999999995</ele>
        <time>2013-09-04T10:51:47Z</time>
      </trkpt>
      <trkpt lat="50.454746028408408" lon="13.022434981539845">
        <ele>766.78999999999996</ele>
        <time>2013-09-04T10:51:48Z</time>
      </trkpt>
      <trkpt lat="50.45567600056529" lon="13.02166803739965">
        <ele>764.38999999999999</ele>
        <time>2013-09-04T10:51:54Z</time>
      </trkpt>
      <trkpt lat="50.45724400319159" lon="13.020861027762294">
        <ele>761.5</ele>
        <time>2013-09-04T10:52:03Z</time>
      </trkpt>
      <trkpt lat="50.459082992747426" lon="13.019344992935658">
        <ele>759.10000000000002</ele>
        <time>2013-09-04T10:52:14Z</time>
      </trkpt>
      <trkpt lat="50.460513029247522" lon="13.018592968583107">
        <ele>760.05999999999995</ele>
        <time>2013-09-04T10:52:22Z</time>
      </trkpt>
      <trkpt lat="50.461093978956342" lon="13.018580982461572">
        <ele>759.58000000000004</ele>
        <time>2013-09-04T10:52:25Z</time>
      </trkpt>
      <trkpt lat="50.461299000307918" lon="13.018608978018165">
        <ele>759.10000000000002</ele>
        <time>2013-09-04T10:52:26Z</time>
      </trkpt>
      <trkpt lat="50.461507039144635" lon="13.018657006323338">
        <ele>758.62</ele>
        <time>2013-09-04T10:52:27Z</time>
      </trkpt>
      <trkpt lat="50.46231203712523" lon="13.018754990771413">
        <ele>754.76999999999998</ele>
        <time>2013-09-04T10:52:31Z</time>
      </trkpt>
      <trkpt lat="50.462493002414703" lon="13.01870696246624">
        <ele>753.80999999999995</ele>
        <time>2013-09-04T10:52:32Z</time>
      </trkpt>
      <trkpt lat="50.46375397592783" lon="13.018461959436536">
        <ele>749</ele>
        <time>2013-09-04T10:52:40Z</time>
      </trkpt>
      <trkpt lat="50.465273028239608" lon="13.018087958917022">
        <ele>748.03999999999996</ele>
        <time>2013-09-04T10:52:51Z</time>
      </trkpt>
      <trkpt lat="50.467161973938346" lon="13.018089970573783">
        <ele>743.24000000000001</ele>
        <time>2013-09-04T10:53:04Z</time>
      </trkpt>
      <trkpt lat="50.468573989346623" lon="13.018591040745378">
        <ele>736.50999999999999</ele>
        <time>2013-09-04T10:53:14Z</time>
      </trkpt>
      <trkpt lat="50.469528017565608" lon="13.019041987136006">
        <ele>732.17999999999995</ele>
        <time>2013-09-04T10:53:21Z</time>
      </trkpt>
      <trkpt lat="50.471214037388563" lon="13.019161010161042">
        <ele>730.25999999999999</ele>
        <time>2013-09-04T10:53:33Z</time>
      </trkpt>
      <trkpt lat="50.471647968515754" lon="13.019162015989423">
        <ele>731.22000000000003</ele>
        <time>2013-09-04T10:53:36Z</time>
      </trkpt>
      <trkpt lat="50.471785012632608" lon="13.01911398768425">
        <ele>730.25999999999999</ele>
        <time>2013-09-04T10:53:37Z</time>
      </trkpt>
      <trkpt lat="50.472202012315392" lon="13.019068976864219">
        <ele>730.74000000000001</ele>
        <time>2013-09-04T10:53:40Z</time>
      </trkpt>
      <trkpt lat="50.473457034677267" lon="13.019022960215807">
        <ele>730.74000000000001</ele>
        <time>2013-09-04T10:53:49Z</time>
      </trkpt>
      <trkpt lat="50.474461019039154" lon="13.018866972997785">
        <ele>724.49000000000001</ele>
        <time>2013-09-04T10:53:57Z</time>
      </trkpt>
      <trkpt lat="50.474565960466862" lon="13.018838977441192">
        <ele>723.52999999999997</ele>
        <time>2013-09-04T10:53:58Z</time>
      </trkpt>
      <trkpt lat="50.475539015606046" lon="13.018304966390133">
        <ele>725.45000000000005</ele>
        <time>2013-09-04T10:54:06Z</time>
      </trkpt>
      <trkpt lat="50.475679999217391" lon="13.018284011632204">
        <ele>726.88999999999999</ele>
        <time>2013-09-04T10:54:07Z</time>
      </trkpt>
      <trkpt lat="50.475818971171975" lon="13.018266996368766">
        <ele>726.88999999999999</ele>
        <time>2013-09-04T10:54:08Z</time>
      </trkpt>
      <trkpt lat="50.47595601528883" lon="13.018281999975443">
        <ele>726.88999999999999</ele>
        <time>2013-09-04T10:54:09Z</time>
      </trkpt>
      <trkpt lat="50.476094987243414" lon="13.018314018845558">
        <ele>727.37</ele>
        <time>2013-09-04T10:54:10Z</time>
      </trkpt>
      <trkpt lat="50.476357005536556" lon="13.018432036042213">
        <ele>727.37</ele>
        <time>2013-09-04T10:54:12Z</time>
      </trkpt>
      <trkpt lat="50.477562993764877" lon="13.019261006265879">
        <ele>725.92999999999995</ele>
        <time>2013-09-04T10:54:20Z</time>
      </trkpt>
      <trkpt lat="50.479239039123058" lon="13.020498007535934">
        <ele>723.52999999999997</ele>
        <time>2013-09-04T10:54:29Z</time>
      </trkpt>
      <trkpt lat="50.479570962488651" lon="13.020805036649108">
        <ele>724.00999999999999</ele>
        <time>2013-09-04T10:54:31Z</time>
      </trkpt>
      <trkpt lat="50.481046009808779" lon="13.02156200632453">
        <ele>723.04999999999995</ele>
        <time>2013-09-04T10:54:39Z</time>
      </trkpt>
      <trkpt lat="50.482973009347916" lon="13.022198025137186">
        <ele>724.00999999999999</ele>
        <time>2013-09-04T10:54:49Z</time>
      </trkpt>
      <trkpt lat="50.483169984072447" lon="13.022223003208637">
        <ele>723.52999999999997</ele>
        <time>2013-09-04T10:54:50Z</time>
      </trkpt>
      <trkpt lat="50.4833709821105" lon="13.022216968238354">
        <ele>723.04999999999995</ele>
        <time>2013-09-04T10:54:51Z</time>
      </trkpt>
      <trkpt lat="50.485392026603222" lon="13.022052012383938">
        <ele>721.61000000000001</ele>
        <time>2013-09-04T10:55:01Z</time>
      </trkpt>
      <trkpt lat="50.485778013244271" lon="13.021982023492455">
        <ele>721.13</ele>
        <time>2013-09-04T10:55:03Z</time>
      </trkpt>
      <trkpt lat="50.485964007675648" lon="13.021986968815327">
        <ele>720.64999999999998</ele>
        <time>2013-09-04T10:55:04Z</time>
      </trkpt>
      <trkpt lat="50.486156959086657" lon="13.022007001563907">
        <ele>721.13</ele>
        <time>2013-09-04T10:55:05Z</time>
      </trkpt>
      <trkpt lat="50.48758196644485" lon="13.022204982116818">
        <ele>722.09000000000003</ele>
        <time>2013-09-04T10:55:13Z</time>
      </trkpt>
      <trkpt lat="50.488472040742636" lon="13.022168017923832">
        <ele>718.24000000000001</ele>
        <time>2013-09-04T10:55:19Z</time>
      </trkpt>
      <trkpt lat="50.488610006868839" lon="13.022203976288438">
        <ele>718.24000000000001</ele>
        <time>2013-09-04T10:55:20Z</time>
      </trkpt>
      <trkpt lat="50.48887001350522" lon="13.022329034283757">
        <ele>717.75999999999999</ele>
        <time>2013-09-04T10:55:22Z</time>
      </trkpt>
      <trkpt lat="50.48899800516665" lon="13.022416038438678">
        <ele>717.27999999999997</ele>
        <time>2013-09-04T10:55:23Z</time>
      </trkpt>
      <trkpt lat="50.489122979342937" lon="13.022513017058372">
        <ele>716.32000000000005</ele>
        <time>2013-09-04T10:55:24Z</time>
      </trkpt>
      <trkpt lat="50.489234961569309" lon="13.022623993456364">
        <ele>714.88</ele>
        <time>2013-09-04T10:55:25Z</time>
      </trkpt>
      <trkpt lat="50.489335963502526" lon="13.022773023694754">
        <ele>714.88</ele>
        <time>2013-09-04T10:55:26Z</time>
      </trkpt>
      <trkpt lat="50.489435037598014" lon="13.022920964285731">
        <ele>714.88</ele>
        <time>2013-09-04T10:55:27Z</time>
      </trkpt>
      <trkpt lat="50.48953796736896" lon="13.02306798286736">
        <ele>714.88</ele>
        <time>2013-09-04T10:55:28Z</time>
      </trkpt>
      <trkpt lat="50.490208016708493" lon="13.024065010249615">
        <ele>709.59000000000003</ele>
        <time>2013-09-04T10:55:35Z</time>
      </trkpt>
      <trkpt lat="50.490319998934865" lon="13.024171963334084">
        <ele>708.63</ele>
        <time>2013-09-04T10:55:36Z</time>
      </trkpt>
      <trkpt lat="50.490439021959901" lon="13.024268019944429">
        <ele>707.66999999999996</ele>
        <time>2013-09-04T10:55:37Z</time>
      </trkpt>
      <trkpt lat="50.490563996136189" lon="13.024344965815544">
        <ele>707.19000000000005</ele>
        <time>2013-09-04T10:55:38Z</time>
      </trkpt>
      <trkpt lat="50.490688970312476" lon="13.024424007162452">
        <ele>707.19000000000005</ele>
        <time>2013-09-04T10:55:39Z</time>
      </trkpt>
      <trkpt lat="50.491835027933121" lon="13.025107970461249">
        <ele>706.23000000000002</ele>
        <time>2013-09-04T10:55:48Z</time>
      </trkpt>
      <trkpt lat="50.491940975189209" lon="13.02523797377944">
        <ele>706.23000000000002</ele>
        <time>2013-09-04T10:55:49Z</time>
      </trkpt>
      <trkpt lat="50.492038959637284" lon="13.025394966825843">
        <ele>706.71000000000004</ele>
        <time>2013-09-04T10:55:50Z</time>
      </trkpt>
      <trkpt lat="50.492136022076011" lon="13.025542991235852">
        <ele>706.23000000000002</ele>
        <time>2013-09-04T10:55:51Z</time>
      </trkpt>
      <trkpt lat="50.492237024009228" lon="13.025677017867565">
        <ele>706.71000000000004</ele>
        <time>2013-09-04T10:55:52Z</time>
      </trkpt>
      <trkpt lat="50.492340959608555" lon="13.025785982608795">
        <ele>705.75</ele>
        <time>2013-09-04T10:55:53Z</time>
      </trkpt>
      <trkpt lat="50.493732020258904" lon="13.027167990803719">
        <ele>702.38</ele>
        <time>2013-09-04T10:56:05Z</time>
      </trkpt>
      <trkpt lat="50.493859006091952" lon="13.027242003008723">
        <ele>702.38</ele>
        <time>2013-09-04T10:56:06Z</time>
      </trkpt>
      <trkpt lat="50.493992026895285" lon="13.02730000577867">
        <ele>702.86000000000001</ele>
        <time>2013-09-04T10:56:07Z</time>
      </trkpt>
      <trkpt lat="50.494125969707966" lon="13.027331018820405">
        <ele>702.38</ele>
        <time>2013-09-04T10:56:08Z</time>
      </trkpt>
      <trkpt lat="50.495470007881522" lon="13.0277060251683">
        <ele>702.38</ele>
        <time>2013-09-04T10:56:18Z</time>
      </trkpt>
      <trkpt lat="50.495606968179345" lon="13.027694961056113">
        <ele>702.38</ele>
        <time>2013-09-04T10:56:19Z</time>
      </trkpt>
      <trkpt lat="50.496557978913188" lon="13.027536040171981">
        <ele>701.41999999999996</ele>
        <time>2013-09-04T10:56:27Z</time>
      </trkpt>
      <trkpt lat="50.497787017375231" lon="13.027752041816711">
        <ele>701.89999999999998</ele>
        <time>2013-09-04T10:56:37Z</time>
      </trkpt>
      <trkpt lat="50.498228995129466" lon="13.027966031804681">
        <ele>700.94000000000005</ele>
        <time>2013-09-04T10:56:42Z</time>
      </trkpt>
      <trkpt lat="50.49827802926302" lon="13.028038032352924">
        <ele>699.98000000000002</ele>
        <time>2013-09-04T10:56:43Z</time>
      </trkpt>
      <trkpt lat="50.498317005112767" lon="13.028119001537561">
        <ele>699.01999999999998</ele>
        <time>2013-09-04T10:56:44Z</time>
      </trkpt>
      <trkpt lat="50.498412977904081" lon="13.028267025947571">
        <ele>699.01999999999998</ele>
        <time>2013-09-04T10:56:46Z</time>
      </trkpt>
      <trkpt lat="50.498481038957834" lon="13.028312958776951">
        <ele>699.01999999999998</ele>
        <time>2013-09-04T10:56:47Z</time>
      </trkpt>
      <trkpt lat="50.498555973172188" lon="13.028350006788969">
        <ele>699.5</ele>
        <time>2013-09-04T10:56:48Z</time>
      </trkpt>
      <trkpt lat="50.498635014519095" lon="13.028368027880788">
        <ele>700.94000000000005</ele>
        <time>2013-09-04T10:56:49Z</time>
      </trkpt>
      <trkpt lat="50.498703997582197" lon="13.028414966538548">
        <ele>701.41999999999996</ele>
        <time>2013-09-04T10:56:50Z</time>
      </trkpt>
      <trkpt lat="50.498766023665667" lon="13.028519991785288">
        <ele>702.38</ele>
        <time>2013-09-04T10:56:51Z</time>
      </trkpt>
      <trkpt lat="50.498828971758485" lon="13.028640020638704">
        <ele>701.41999999999996</ele>
        <time>2013-09-04T10:56:52Z</time>
      </trkpt>
      <trkpt lat="50.499045979231596" lon="13.029054002836347">
        <ele>703.34000000000003</ele>
        <time>2013-09-04T10:56:55Z</time>
      </trkpt>
      <trkpt lat="50.499549983069301" lon="13.029875010251999">
        <ele>706.71000000000004</ele>
        <time>2013-09-04T10:57:01Z</time>
      </trkpt>
      <trkpt lat="50.499657019972801" lon="13.029964026063681">
        <ele>706.23000000000002</ele>
        <time>2013-09-04T10:57:02Z</time>
      </trkpt>
      <trkpt lat="50.499773025512695" lon="13.030033009126782">
        <ele>706.23000000000002</ele>
        <time>2013-09-04T10:57:03Z</time>
      </trkpt>
      <trkpt lat="50.50040896050632" lon="13.030287986621261">
        <ele>705.75</ele>
        <time>2013-09-04T10:57:08Z</time>
      </trkpt>
      <trkpt lat="50.500810034573078" lon="13.030314976349473">
        <ele>706.23000000000002</ele>
        <time>2013-09-04T10:57:11Z</time>
      </trkpt>
      <trkpt lat="50.500945989042521" lon="13.030299972742796">
        <ele>706.23000000000002</ele>
        <time>2013-09-04T10:57:12Z</time>
      </trkpt>
      <trkpt lat="50.502420030534267" lon="13.029823964461684">
        <ele>710.07000000000005</ele>
        <time>2013-09-04T10:57:23Z</time>
      </trkpt>
      <trkpt lat="50.502974996343255" lon="13.029784988611937">
        <ele>709.59000000000003</ele>
        <time>2013-09-04T10:57:27Z</time>
      </trkpt>
      <trkpt lat="50.504048969596624" lon="13.029983974993229">
        <ele>708.63</ele>
        <time>2013-09-04T10:57:35Z</time>
      </trkpt>
      <trkpt lat="50.504345018416643" lon="13.030105009675026">
        <ele>709.11000000000001</ele>
        <time>2013-09-04T10:57:37Z</time>
      </trkpt>
      <trkpt lat="50.504493964836001" lon="13.030198970809579">
        <ele>708.63</ele>
        <time>2013-09-04T10:57:38Z</time>
      </trkpt>
      <trkpt lat="50.50528203137219" lon="13.030578000470996">
        <ele>706.23000000000002</ele>
        <time>2013-09-04T10:57:43Z</time>
      </trkpt>
      <trkpt lat="50.505452016368508" lon="13.03056500852108">
        <ele>707.19000000000005</ele>
        <time>2013-09-04T10:57:44Z</time>
      </trkpt>
      <trkpt lat="50.505601968616247" lon="13.030494013801217">
        <ele>707.19000000000005</ele>
        <time>2013-09-04T10:57:45Z</time>
      </trkpt>
      <trkpt lat="50.506718019023538" lon="13.029747018590569">
        <ele>703.34000000000003</ele>
        <time>2013-09-04T10:57:52Z</time>
      </trkpt>
      <trkpt lat="50.508355004712939" lon="13.029305040836334">
        <ele>701.41999999999996</ele>
        <time>2013-09-04T10:58:01Z</time>
      </trkpt>
      <trkpt lat="50.50983902066946" lon="13.029300011694431">
        <ele>701.89999999999998</ele>
        <time>2013-09-04T10:58:10Z</time>
      </trkpt>
      <trkpt lat="50.511058000847697" lon="13.029995961114764">
        <ele>704.77999999999997</ele>
        <time>2013-09-04T10:58:19Z</time>
      </trkpt>
      <trkpt lat="50.511549012735486" lon="13.030661987140775">
        <ele>700.94000000000005</ele>
        <time>2013-09-04T10:58:24Z</time>
      </trkpt>
      <trkpt lat="50.511615984141827" lon="13.030829960480332">
        <ele>700.94000000000005</ele>
        <time>2013-09-04T10:58:25Z</time>
      </trkpt>
      <trkpt lat="50.511669041588902" lon="13.031026013195515">
        <ele>701.41999999999996</ele>
        <time>2013-09-04T10:58:26Z</time>
      </trkpt>
      <trkpt lat="50.511774988844991" lon="13.031776025891304">
        <ele>699.5</ele>
        <time>2013-09-04T10:58:31Z</time>
      </trkpt>
      <trkpt lat="50.511784041300416" lon="13.031917009502649">
        <ele>699.01999999999998</ele>
        <time>2013-09-04T10:58:37Z</time>
      </trkpt>
      <trkpt lat="50.511786974966526" lon="13.031981969252229">
        <ele>699.98000000000002</ele>
        <time>2013-09-04T10:59:38Z</time>
      </trkpt>
      <trkpt lat="50.511811031028628" lon="13.032291010022163">
        <ele>698.04999999999995</ele>
        <time>2013-09-04T10:59:41Z</time>
      </trkpt>
      <trkpt lat="50.511782029643655" lon="13.032391006127">
        <ele>698.04999999999995</ele>
        <time>2013-09-04T10:59:42Z</time>
      </trkpt>
      <trkpt lat="50.511744981631637" lon="13.032480021938682">
        <ele>697.57000000000005</ele>
        <time>2013-09-04T10:59:43Z</time>
      </trkpt>
      <trkpt lat="50.511637022718787" lon="13.032612958922982">
        <ele>697.09000000000003</ele>
        <time>2013-09-04T10:59:45Z</time>
      </trkpt>
      <trkpt lat="50.511553036049008" lon="13.03262704052031">
        <ele>696.61000000000001</ele>
        <time>2013-09-04T10:59:46Z</time>
      </trkpt>
      <trkpt lat="50.511476006358862" lon="13.032611031085253">
        <ele>696.13</ele>
        <time>2013-09-04T10:59:47Z</time>
      </trkpt>
      <trkpt lat="50.511391013860703" lon="13.03249997086823">
        <ele>696.13</ele>
        <time>2013-09-04T10:59:48Z</time>
      </trkpt>
      <trkpt lat="50.511305015534163" lon="13.032382959499955">
        <ele>695.64999999999998</ele>
        <time>2013-09-04T10:59:49Z</time>
      </trkpt>
      <trkpt lat="50.511211976408958" lon="13.032238958403468">
        <ele>695.16999999999996</ele>
        <time>2013-09-04T10:59:50Z</time>
      </trkpt>
      <trkpt lat="50.51093403249979" lon="13.031815001741052">
        <ele>693.73000000000002</ele>
        <time>2013-09-04T10:59:53Z</time>
      </trkpt>
      <trkpt lat="50.511001003906131" lon="13.031229022890329">
        <ele>691.33000000000004</ele>
        <time>2013-09-04T10:59:56Z</time>
      </trkpt>
      <trkpt lat="50.51093596033752" lon="13.031157022342086">
        <ele>690.36000000000001</ele>
        <time>2013-09-04T10:59:57Z</time>
      </trkpt>
      <trkpt lat="50.510852979496121" lon="13.031173031777143">
        <ele>689.88</ele>
        <time>2013-09-04T10:59:58Z</time>
      </trkpt>
      <trkpt lat="50.510790031403303" lon="13.031207984313369">
        <ele>689.39999999999998</ele>
        <time>2013-09-04T10:59:59Z</time>
      </trkpt>
      <trkpt lat="50.510717025026679" lon="13.031315021216869">
        <ele>688.44000000000005</ele>
        <time>2013-09-04T11:00:00Z</time>
      </trkpt>
      <trkpt lat="50.510667990893126" lon="13.031452987343073">
        <ele>687.96000000000004</ele>
        <time>2013-09-04T11:00:01Z</time>
      </trkpt>
      <trkpt lat="50.510652987286448" lon="13.031611992046237">
        <ele>688.44000000000005</ele>
        <time>2013-09-04T11:00:02Z</time>
      </trkpt>
      <trkpt lat="50.510687017813325" lon="13.031774014234543">
        <ele>687.96000000000004</ele>
        <time>2013-09-04T11:00:03Z</time>
      </trkpt>
      <trkpt lat="50.510734040290117" lon="13.031959002837539">
        <ele>688.44000000000005</ele>
        <time>2013-09-04T11:00:04Z</time>
      </trkpt>
      <trkpt lat="50.510787013918161" lon="13.032167041674256">
        <ele>688.44000000000005</ele>
        <time>2013-09-04T11:00:05Z</time>
      </trkpt>
      <trkpt lat="50.510911988094449" lon="13.032857961952686">
        <ele>687.48000000000002</ele>
        <time>2013-09-04T11:00:08Z</time>
      </trkpt>
      <trkpt lat="50.510916011407971" lon="13.035143036395311">
        <ele>678.35000000000002</ele>
        <time>2013-09-04T11:00:18Z</time>
      </trkpt>
      <trkpt lat="50.51089103333652" lon="13.03632396273315">
        <ele>674.5</ele>
        <time>2013-09-04T11:00:23Z</time>
      </trkpt>
      <trkpt lat="50.510642006993294" lon="13.0379359703511">
        <ele>670.17999999999995</ele>
        <time>2013-09-04T11:00:30Z</time>
      </trkpt>
      <trkpt lat="50.510653993114829" lon="13.038155995309353">
        <ele>670.17999999999995</ele>
        <time>2013-09-04T11:00:31Z</time>
      </trkpt>
      <trkpt lat="50.510650975629687" lon="13.038405021652579">
        <ele>669.22000000000003</ele>
        <time>2013-09-04T11:00:32Z</time>
      </trkpt>
      <trkpt lat="50.510705960914493" lon="13.038658993318677">
        <ele>666.33000000000004</ele>
        <time>2013-09-04T11:00:33Z</time>
      </trkpt>
      <trkpt lat="50.510734962299466" lon="13.038920005783439">
        <ele>665.37</ele>
        <time>2013-09-04T11:00:34Z</time>
      </trkpt>
      <trkpt lat="50.510778967291117" lon="13.039176994934678">
        <ele>664.40999999999997</ele>
        <time>2013-09-04T11:00:35Z</time>
      </trkpt>
      <trkpt lat="50.510819032788277" lon="13.039435995742679">
        <ele>663.45000000000005</ele>
        <time>2013-09-04T11:00:36Z</time>
      </trkpt>
      <trkpt lat="50.511079039424658" lon="13.041199967265129">
        <ele>654.30999999999995</ele>
        <time>2013-09-04T11:00:43Z</time>
      </trkpt>
      <trkpt lat="50.511124972254038" lon="13.04141303524375">
        <ele>653.35000000000002</ele>
        <time>2013-09-04T11:00:44Z</time>
      </trkpt>
      <trkpt lat="50.511204013600945" lon="13.041610009968281">
        <ele>652.38999999999999</ele>
        <time>2013-09-04T11:00:45Z</time>
      </trkpt>
      <trkpt lat="50.511291017755866" lon="13.041773037984967">
        <ele>650.47000000000003</ele>
        <time>2013-09-04T11:00:46Z</time>
      </trkpt>
      <trkpt lat="50.511375004425645" lon="13.041923996061087">
        <ele>649.50999999999999</ele>
        <time>2013-09-04T11:00:47Z</time>
      </trkpt>
      <trkpt lat="50.511660994961858" lon="13.042409978806973">
        <ele>646.13999999999999</ele>
        <time>2013-09-04T11:00:51Z</time>
      </trkpt>
      <trkpt lat="50.511677004396915" lon="13.042544005438685">
        <ele>645.65999999999997</ele>
        <time>2013-09-04T11:00:52Z</time>
      </trkpt>
      <trkpt lat="50.51166501827538" lon="13.042684989050031">
        <ele>645.17999999999995</ele>
        <time>2013-09-04T11:00:53Z</time>
      </trkpt>
      <trkpt lat="50.51160198636353" lon="13.043393008410931">
        <ele>648.54999999999995</ele>
        <time>2013-09-04T11:00:57Z</time>
      </trkpt>
      <trkpt lat="50.511619001626968" lon="13.04358696565032">
        <ele>648.54999999999995</ele>
        <time>2013-09-04T11:00:58Z</time>
      </trkpt>
      <trkpt lat="50.511689996346831" lon="13.043787041679025">
        <ele>650.47000000000003</ele>
        <time>2013-09-04T11:00:59Z</time>
      </trkpt>
      <trkpt lat="50.51177398301661" lon="13.043987033888698">
        <ele>651.90999999999997</ele>
        <time>2013-09-04T11:01:00Z</time>
      </trkpt>
      <trkpt lat="50.511882025748491" lon="13.044181996956468">
        <ele>654.30999999999995</ele>
        <time>2013-09-04T11:01:01Z</time>
      </trkpt>
      <trkpt lat="50.512003982439637" lon="13.04435801692307">
        <ele>654.79999999999995</ele>
        <time>2013-09-04T11:01:02Z</time>
      </trkpt>
      <trkpt lat="50.512129962444305" lon="13.04453001357615">
        <ele>656.24000000000001</ele>
        <time>2013-09-04T11:01:03Z</time>
      </trkpt>
      <trkpt lat="50.512273963540792" lon="13.044698992744088">
        <ele>658.15999999999997</ele>
        <time>2013-09-04T11:01:04Z</time>
      </trkpt>
      <trkpt lat="50.512436991557479" lon="13.044813992455602">
        <ele>658.15999999999997</ele>
        <time>2013-09-04T11:01:05Z</time>
      </trkpt>
      <trkpt lat="50.512601025402546" lon="13.044909965246916">
        <ele>658.63999999999999</ele>
        <time>2013-09-04T11:01:06Z</time>
      </trkpt>
      <trkpt lat="50.512762041762471" lon="13.044990012422204">
        <ele>660.08000000000004</ele>
        <time>2013-09-04T11:01:07Z</time>
      </trkpt>
      <trkpt lat="50.513261016458273" lon="13.045276002958417">
        <ele>662.00999999999999</ele>
        <time>2013-09-04T11:01:11Z</time>
      </trkpt>
      <trkpt lat="50.513335028663278" lon="13.04536803625524">
        <ele>662.49000000000001</ele>
        <time>2013-09-04T11:01:12Z</time>
      </trkpt>
      <trkpt lat="50.513388002291322" lon="13.045469038188457">
        <ele>662.49000000000001</ele>
        <time>2013-09-04T11:01:13Z</time>
      </trkpt>
      <trkpt lat="50.513392025604844" lon="13.045571967959404">
        <ele>662.97000000000003</ele>
        <time>2013-09-04T11:01:14Z</time>
      </trkpt>
      <trkpt lat="50.513380961492658" lon="13.045657966285944">
        <ele>662.97000000000003</ele>
        <time>2013-09-04T11:01:15Z</time>
      </trkpt>
      <trkpt lat="50.513329999521375" lon="13.045749999582767">
        <ele>663.45000000000005</ele>
        <time>2013-09-04T11:01:16Z</time>
      </trkpt>
      <trkpt lat="50.513273002579808" lon="13.045845972374082">
        <ele>663.92999999999995</ele>
        <time>2013-09-04T11:01:17Z</time>
      </trkpt>
      <trkpt lat="50.513185998424888" lon="13.045960972085595">
        <ele>664.88999999999999</ele>
        <time>2013-09-04T11:01:18Z</time>
      </trkpt>
      <trkpt lat="50.513067981228232" lon="13.046104973182082">
        <ele>665.37</ele>
        <time>2013-09-04T11:01:19Z</time>
      </trkpt>
      <trkpt lat="50.512940995395184" lon="13.046263977885246">
        <ele>666.33000000000004</ele>
        <time>2013-09-04T11:01:20Z</time>
      </trkpt>
      <trkpt lat="50.51179300993681" lon="13.047741958871484">
        <ele>672.10000000000002</ele>
        <time>2013-09-04T11:01:28Z</time>
      </trkpt>
      <trkpt lat="50.510190976783633" lon="13.049850007519126">
        <ele>679.78999999999996</ele>
        <time>2013-09-04T11:01:38Z</time>
      </trkpt>
      <trkpt lat="50.508831012994051" lon="13.051912961527705">
        <ele>684.60000000000002</ele>
        <time>2013-09-04T11:01:47Z</time>
      </trkpt>
      <trkpt lat="50.508358022198081" lon="13.052441021427512">
        <ele>684.60000000000002</ele>
        <time>2013-09-04T11:01:50Z</time>
      </trkpt>
      <trkpt lat="50.50818401388824" lon="13.052558032795787">
        <ele>684.60000000000002</ele>
        <time>2013-09-04T11:01:51Z</time>
      </trkpt>
      <trkpt lat="50.507990978658199" lon="13.052657023072243">
        <ele>684.60000000000002</ele>
        <time>2013-09-04T11:01:52Z</time>
      </trkpt>
      <trkpt lat="50.507784029468894" lon="13.052725000306964">
        <ele>684.60000000000002</ele>
        <time>2013-09-04T11:01:53Z</time>
      </trkpt>
      <trkpt lat="50.507537014782429" lon="13.05275802500546">
        <ele>684.60000000000002</ele>
        <time>2013-09-04T11:01:54Z</time>
      </trkpt>
      <trkpt lat="50.507331993430853" lon="13.052734974771738">
        <ele>684.12</ele>
        <time>2013-09-04T11:01:55Z</time>
      </trkpt>
      <trkpt lat="50.507144993171096" lon="13.052720976993442">
        <ele>684.12</ele>
        <time>2013-09-04T11:01:56Z</time>
      </trkpt>
      <trkpt lat="50.505178011953831" lon="13.052803035825491">
        <ele>685.08000000000004</ele>
        <time>2013-09-04T11:02:07Z</time>
      </trkpt>
      <trkpt lat="50.503959031775594" lon="13.053563022986054">
        <ele>691.80999999999995</ele>
        <time>2013-09-04T11:02:14Z</time>
      </trkpt>
      <trkpt lat="50.50259998999536" lon="13.054874958470464">
        <ele>695.64999999999998</ele>
        <time>2013-09-04T11:02:21Z</time>
      </trkpt>
      <trkpt lat="50.502261025831103" lon="13.055239990353584">
        <ele>697.57000000000005</ele>
        <time>2013-09-04T11:02:23Z</time>
      </trkpt>
      <trkpt lat="50.502134039998055" lon="13.055504020303488">
        <ele>698.52999999999997</ele>
        <time>2013-09-04T11:02:24Z</time>
      </trkpt>
      <trkpt lat="50.502036977559328" lon="13.055753968656063">
        <ele>700.94000000000005</ele>
        <time>2013-09-04T11:02:25Z</time>
      </trkpt>
      <trkpt lat="50.501951985061169" lon="13.05602403357625">
        <ele>701.41999999999996</ele>
        <time>2013-09-04T11:02:26Z</time>
      </trkpt>
      <trkpt lat="50.501863975077868" lon="13.056317986920476">
        <ele>701.89999999999998</ele>
        <time>2013-09-04T11:02:27Z</time>
      </trkpt>
      <trkpt lat="50.501158973202109" lon="13.05912097916007">
        <ele>711.99000000000001</ele>
        <time>2013-09-04T11:02:36Z</time>
      </trkpt>
      <trkpt lat="50.501125026494265" lon="13.059495985507965">
        <ele>713.91999999999996</ele>
        <time>2013-09-04T11:02:37Z</time>
      </trkpt>
      <trkpt lat="50.501127960160375" lon="13.059818018227816">
        <ele>714.88</ele>
        <time>2013-09-04T11:02:38Z</time>
      </trkpt>
      <trkpt lat="50.501145981252193" lon="13.060130998492241">
        <ele>716.32000000000005</ele>
        <time>2013-09-04T11:02:39Z</time>
      </trkpt>
      <trkpt lat="50.501194009557366" lon="13.060454037040472">
        <ele>717.27999999999997</ele>
        <time>2013-09-04T11:02:40Z</time>
      </trkpt>
      <trkpt lat="50.501254023984075" lon="13.060768023133278">
        <ele>719.20000000000005</ele>
        <time>2013-09-04T11:02:41Z</time>
      </trkpt>
      <trkpt lat="50.501315966248512" lon="13.061084020882845">
        <ele>720.15999999999997</ele>
        <time>2013-09-04T11:02:42Z</time>
      </trkpt>
      <trkpt lat="50.501399030908942" lon="13.061402030289173">
        <ele>721.61000000000001</ele>
        <time>2013-09-04T11:02:43Z</time>
      </trkpt>
      <trkpt lat="50.502283992245793" lon="13.063688026741147">
        <ele>730.25999999999999</ele>
        <time>2013-09-04T11:02:51Z</time>
      </trkpt>
      <trkpt lat="50.503804972395301" lon="13.066031020134687">
        <ele>748.03999999999996</ele>
        <time>2013-09-04T11:03:01Z</time>
      </trkpt>
      <trkpt lat="50.505428966134787" lon="13.068478032946587">
        <ele>764.38999999999999</ele>
        <time>2013-09-04T11:03:12Z</time>
      </trkpt>
      <trkpt lat="50.50549803301692" lon="13.068770980462432">
        <ele>765.83000000000004</ele>
        <time>2013-09-04T11:03:13Z</time>
      </trkpt>
      <trkpt lat="50.505542038008571" lon="13.069075997918844">
        <ele>767.26999999999998</ele>
        <time>2013-09-04T11:03:14Z</time>
      </trkpt>
      <trkpt lat="50.505561986938119" lon="13.069399958476424">
        <ele>768.23000000000002</ele>
        <time>2013-09-04T11:03:15Z</time>
      </trkpt>
      <trkpt lat="50.505559975281358" lon="13.069745963439345">
        <ele>769.19000000000005</ele>
        <time>2013-09-04T11:03:16Z</time>
      </trkpt>
      <trkpt lat="50.505555029958487" lon="13.070092974230647">
        <ele>770.14999999999998</ele>
        <time>2013-09-04T11:03:17Z</time>
      </trkpt>
      <trkpt lat="50.505542038008571" lon="13.071835990995169">
        <ele>772.55999999999995</ele>
        <time>2013-09-04T11:03:22Z</time>
      </trkpt>
      <trkpt lat="50.505574978888035" lon="13.07216196320951">
        <ele>772.08000000000004</ele>
        <time>2013-09-04T11:03:23Z</time>
      </trkpt>
      <trkpt lat="50.505625018849969" lon="13.072492964565754">
        <ele>772.08000000000004</ele>
        <time>2013-09-04T11:03:24Z</time>
      </trkpt>
      <trkpt lat="50.505698025226593" lon="13.07282798923552">
        <ele>773.03999999999996</ele>
        <time>2013-09-04T11:03:25Z</time>
      </trkpt>
      <trkpt lat="50.505787963047624" lon="13.073155973106623">
        <ele>774.48000000000002</ele>
        <time>2013-09-04T11:03:26Z</time>
      </trkpt>
      <trkpt lat="50.506756994873285" lon="13.076895978301764">
        <ele>782.16999999999996</ele>
        <time>2013-09-04T11:03:37Z</time>
      </trkpt>
      <trkpt lat="50.507617983967066" lon="13.079803995788097">
        <ele>798.02999999999997</ele>
        <time>2013-09-04T11:03:46Z</time>
      </trkpt>
      <trkpt lat="50.508626997470856" lon="13.08124702423811">
        <ele>806.20000000000005</ele>
        <time>2013-09-04T11:03:52Z</time>
      </trkpt>
      <trkpt lat="50.510336989536881" lon="13.083713985979557">
        <ele>810.04999999999995</ele>
        <time>2013-09-04T11:04:02Z</time>
      </trkpt>
      <trkpt lat="50.511441975831985" lon="13.085837038233876">
        <ele>799.95000000000005</ele>
        <time>2013-09-04T11:04:10Z</time>
      </trkpt>
      <trkpt lat="50.511704999953508" lon="13.08629997074604">
        <ele>796.11000000000001</ele>
        <time>2013-09-04T11:04:12Z</time>
      </trkpt>
      <trkpt lat="50.51185897551477" lon="13.086474984884262">
        <ele>794.19000000000005</ele>
        <time>2013-09-04T11:04:13Z</time>
      </trkpt>
      <trkpt lat="50.512018986046314" lon="13.08659803122282">
        <ele>792.74000000000001</ele>
        <time>2013-09-04T11:04:14Z</time>
      </trkpt>
      <trkpt lat="50.51218100823462" lon="13.086671037599444">
        <ele>790.82000000000005</ele>
        <time>2013-09-04T11:04:15Z</time>
      </trkpt>
      <trkpt lat="50.512343030422926" lon="13.086723005399108">
        <ele>789.38</ele>
        <time>2013-09-04T11:04:16Z</time>
      </trkpt>
      <trkpt lat="50.513630993664265" lon="13.087462037801743">
        <ele>780.73000000000002</ele>
        <time>2013-09-04T11:04:25Z</time>
      </trkpt>
      <trkpt lat="50.514444038271904" lon="13.088239040225744">
        <ele>782.64999999999998</ele>
        <time>2013-09-04T11:04:33Z</time>
      </trkpt>
      <trkpt lat="50.514521989971399" lon="13.088373988866806">
        <ele>783.13</ele>
        <time>2013-09-04T11:04:34Z</time>
      </trkpt>
      <trkpt lat="50.51463296636939" lon="13.088633995503187">
        <ele>783.61000000000001</ele>
        <time>2013-09-04T11:04:36Z</time>
      </trkpt>
      <trkpt lat="50.514648975804448" lon="13.088774979114532">
        <ele>784.09000000000003</ele>
        <time>2013-09-04T11:04:37Z</time>
      </trkpt>
      <trkpt lat="50.514647969976068" lon="13.088887967169285">
        <ele>784.57000000000005</ele>
        <time>2013-09-04T11:04:38Z</time>
      </trkpt>
      <trkpt lat="50.514635983854532" lon="13.088974971324205">
        <ele>784.57000000000005</ele>
        <time>2013-09-04T11:04:39Z</time>
      </trkpt>
      <trkpt lat="50.514606982469559" lon="13.089057030156255">
        <ele>784.57000000000005</ele>
        <time>2013-09-04T11:04:40Z</time>
      </trkpt>
      <trkpt lat="50.514570018276572" lon="13.089119978249073">
        <ele>785.04999999999995</ele>
        <time>2013-09-04T11:04:41Z</time>
      </trkpt>
      <trkpt lat="50.514518972486258" lon="13.089174963533878">
        <ele>786.01999999999998</ele>
        <time>2013-09-04T11:04:42Z</time>
      </trkpt>
      <trkpt lat="50.514442026615143" lon="13.089218968525529">
        <ele>785.04999999999995</ele>
        <time>2013-09-04T11:04:43Z</time>
      </trkpt>
      <trkpt lat="50.514294002205133" lon="13.089414015412331">
        <ele>781.21000000000004</ele>
        <time>2013-09-04T11:04:45Z</time>
      </trkpt>
      <trkpt lat="50.514228958636522" lon="13.089541001245379">
        <ele>781.21000000000004</ele>
        <time>2013-09-04T11:04:46Z</time>
      </trkpt>
      <trkpt lat="50.513921007514" lon="13.090268969535828">
        <ele>775.91999999999996</ele>
        <time>2013-09-04T11:04:51Z</time>
      </trkpt>
      <trkpt lat="50.513842971995473" lon="13.090382963418961">
        <ele>775.44000000000005</ele>
        <time>2013-09-04T11:04:52Z</time>
      </trkpt>
      <trkpt lat="50.513426978141069" lon="13.091038009151816">
        <ele>771.11000000000001</ele>
        <time>2013-09-04T11:04:57Z</time>
      </trkpt>
      <trkpt lat="50.513371992856264" lon="13.091205982491374">
        <ele>770.14999999999998</ele>
        <time>2013-09-04T11:04:58Z</time>
      </trkpt>
      <trkpt lat="50.513022970408201" lon="13.092264030128717">
        <ele>761.01999999999998</ele>
        <time>2013-09-04T11:05:04Z</time>
      </trkpt>
      <trkpt lat="50.512937977910042" lon="13.09242001734674">
        <ele>760.05999999999995</ele>
        <time>2013-09-04T11:05:05Z</time>
      </trkpt>
      <trkpt lat="50.512554002925754" lon="13.092994010075927">
        <ele>752.85000000000002</ele>
        <time>2013-09-04T11:05:10Z</time>
      </trkpt>
      <trkpt lat="50.512299025431275" lon="13.093326017260551">
        <ele>749</ele>
        <time>2013-09-04T11:05:13Z</time>
      </trkpt>
      <trkpt lat="50.511813964694738" lon="13.093823986127973">
        <ele>742.27999999999997</ele>
        <time>2013-09-04T11:05:18Z</time>
      </trkpt>
      <trkpt lat="50.51172997802496" lon="13.093961030244827">
        <ele>740.83000000000004</ele>
        <time>2013-09-04T11:05:19Z</time>
      </trkpt>
      <trkpt lat="50.51166501827538" lon="13.094121040776372">
        <ele>738.90999999999997</ele>
        <time>2013-09-04T11:05:20Z</time>
      </trkpt>
      <trkpt lat="50.511608021333814" lon="13.094294965267181">
        <ele>737.47000000000003</ele>
        <time>2013-09-04T11:05:21Z</time>
      </trkpt>
      <trkpt lat="50.511550018563867" lon="13.094468973577023">
        <ele>736.02999999999997</ele>
        <time>2013-09-04T11:05:22Z</time>
      </trkpt>
      <trkpt lat="50.511486986652017" lon="13.094645999372005">
        <ele>734.58000000000004</ele>
        <time>2013-09-04T11:05:23Z</time>
      </trkpt>
      <trkpt lat="50.51123502664268" lon="13.095586029812694">
        <ele>727.37</ele>
        <time>2013-09-04T11:05:28Z</time>
      </trkpt>
      <trkpt lat="50.511204013600945" lon="13.095787027850747">
        <ele>725.45000000000005</ele>
        <time>2013-09-04T11:05:29Z</time>
      </trkpt>
      <trkpt lat="50.511212982237339" lon="13.095993977040052">
        <ele>723.52999999999997</ele>
        <time>2013-09-04T11:05:30Z</time>
      </trkpt>
      <trkpt lat="50.511242989450693" lon="13.096203021705151">
        <ele>721.61000000000001</ele>
        <time>2013-09-04T11:05:31Z</time>
      </trkpt>
      <trkpt lat="50.511286994442344" lon="13.096393961459398">
        <ele>720.15999999999997</ele>
        <time>2013-09-04T11:05:32Z</time>
      </trkpt>
      <trkpt lat="50.511352960020304" lon="13.096569981426001">
        <ele>718.24000000000001</ele>
        <time>2013-09-04T11:05:33Z</time>
      </trkpt>
      <trkpt lat="50.511424960568547" lon="13.096732003614306">
        <ele>716.79999999999995</ele>
        <time>2013-09-04T11:05:34Z</time>
      </trkpt>
      <trkpt lat="50.511510958895087" lon="13.096909029409289">
        <ele>715.84000000000003</ele>
        <time>2013-09-04T11:05:35Z</time>
      </trkpt>
      <trkpt lat="50.512142032384872" lon="13.098682975396514">
        <ele>708.14999999999998</ele>
        <time>2013-09-04T11:05:44Z</time>
      </trkpt>
      <trkpt lat="50.513086002320051" lon="13.101021023467183">
        <ele>694.69000000000005</ele>
        <time>2013-09-04T11:05:56Z</time>
      </trkpt>
      <trkpt lat="50.513460002839565" lon="13.101714039221406">
        <ele>689.88</ele>
        <time>2013-09-04T11:06:00Z</time>
      </trkpt>
      <trkpt lat="50.513570979237556" lon="13.101844964548945">
        <ele>688.44000000000005</ele>
        <time>2013-09-04T11:06:01Z</time>
      </trkpt>
      <trkpt lat="50.513687990605831" lon="13.101972034201026">
        <ele>687.48000000000002</ele>
        <time>2013-09-04T11:06:02Z</time>
      </trkpt>
      <trkpt lat="50.514794988557696" lon="13.103051958605647">
        <ele>674.5</ele>
        <time>2013-09-04T11:06:11Z</time>
      </trkpt>
      <trkpt lat="50.514919962733984" lon="13.103153966367245">
        <ele>673.05999999999995</ele>
        <time>2013-09-04T11:06:12Z</time>
      </trkpt>
      <trkpt lat="50.515051977708936" lon="13.103240970522165">
        <ele>671.62</ele>
        <time>2013-09-04T11:06:13Z</time>
      </trkpt>
      <trkpt lat="50.51518902182579" lon="13.103315988555551">
        <ele>670.65999999999997</ele>
        <time>2013-09-04T11:06:14Z</time>
      </trkpt>
      <trkpt lat="50.515322964638472" lon="13.103369968011975">
        <ele>669.70000000000005</ele>
        <time>2013-09-04T11:06:15Z</time>
      </trkpt>
      <trkpt lat="50.515456991270185" lon="13.103406010195613">
        <ele>668.73000000000002</ele>
        <time>2013-09-04T11:06:16Z</time>
      </trkpt>
      <trkpt lat="50.515592023730278" lon="13.103419002145529">
        <ele>667.28999999999996</ele>
        <time>2013-09-04T11:06:17Z</time>
      </trkpt>
      <trkpt lat="50.515725966542959" lon="13.103410033509135">
        <ele>665.85000000000002</ele>
        <time>2013-09-04T11:06:18Z</time>
      </trkpt>
      <trkpt lat="50.515857981517911" lon="13.103369968011975">
        <ele>665.37</ele>
        <time>2013-09-04T11:06:19Z</time>
      </trkpt>
      <trkpt lat="50.515989996492863" lon="13.103322023525834">
        <ele>664.88999999999999</ele>
        <time>2013-09-04T11:06:20Z</time>
      </trkpt>
      <trkpt lat="50.51675601862371" lon="13.103040978312492">
        <ele>662.49000000000001</ele>
        <time>2013-09-04T11:06:26Z</time>
      </trkpt>
      <trkpt lat="50.516880992799997" lon="13.103047013282776">
        <ele>662.00999999999999</ele>
        <time>2013-09-04T11:06:27Z</time>
      </trkpt>
      <trkpt lat="50.517004039138556" lon="13.103066962212324">
        <ele>661.03999999999996</ele>
        <time>2013-09-04T11:06:28Z</time>
      </trkpt>
      <trkpt lat="50.518210027366877" lon="13.103422019630671">
        <ele>655.27999999999997</ele>
        <time>2013-09-04T11:06:37Z</time>
      </trkpt>
      <trkpt lat="50.518340030685067" lon="13.103518998250365">
        <ele>655.27999999999997</ele>
        <time>2013-09-04T11:06:38Z</time>
      </trkpt>
      <trkpt lat="50.518467016518116" lon="13.103631986305118">
        <ele>655.27999999999997</ele>
        <time>2013-09-04T11:06:39Z</time>
      </trkpt>
      <trkpt lat="50.518594002351165" lon="13.103786967694759">
        <ele>656.24000000000001</ele>
        <time>2013-09-04T11:06:40Z</time>
      </trkpt>
      <trkpt lat="50.518722999840975" lon="13.103944966569543">
        <ele>657.20000000000005</ele>
        <time>2013-09-04T11:06:41Z</time>
      </trkpt>
      <trkpt lat="50.519512994214892" lon="13.104951968416572">
        <ele>662.97000000000003</ele>
        <time>2013-09-04T11:06:47Z</time>
      </trkpt>
      <trkpt lat="50.520846974104643" lon="13.105990989133716">
        <ele>673.05999999999995</ele>
        <time>2013-09-04T11:06:55Z</time>
      </trkpt>
      <trkpt lat="50.52096901461482" lon="13.106116969138384">
        <ele>674.01999999999998</ele>
        <time>2013-09-04T11:06:56Z</time>
      </trkpt>
      <trkpt lat="50.521089965477586" lon="13.106273040175438">
        <ele>674.98000000000002</ele>
        <time>2013-09-04T11:06:57Z</time>
      </trkpt>
      <trkpt lat="50.521198008209467" lon="13.106488035991788">
        <ele>676.90999999999997</ele>
        <time>2013-09-04T11:06:58Z</time>
      </trkpt>
      <trkpt lat="50.521940980106592" lon="13.108355021104217">
        <ele>686.51999999999998</ele>
        <time>2013-09-04T11:07:05Z</time>
      </trkpt>
      <trkpt lat="50.522904982790351" lon="13.110392997041345">
        <ele>694.21000000000004</ele>
        <time>2013-09-04T11:07:13Z</time>
      </trkpt>
      <trkpt lat="50.523045966401696" lon="13.110600030049682">
        <ele>694.21000000000004</ele>
        <time>2013-09-04T11:07:14Z</time>
      </trkpt>
      <trkpt lat="50.524353962391615" lon="13.111597979441285">
        <ele>691.80999999999995</ele>
        <time>2013-09-04T11:07:21Z</time>
      </trkpt>
      <trkpt lat="50.525644021108747" lon="13.112786030396819">
        <ele>686.03999999999996</ele>
        <time>2013-09-04T11:07:28Z</time>
      </trkpt>
      <trkpt lat="50.526794018223882" lon="13.113947007805109">
        <ele>681.71000000000004</ele>
        <time>2013-09-04T11:07:35Z</time>
      </trkpt>
      <trkpt lat="50.526898959651589" lon="13.11410098336637">
        <ele>681.23000000000002</ele>
        <time>2013-09-04T11:07:36Z</time>
      </trkpt>
      <trkpt lat="50.526976995170116" lon="13.114297958090901">
        <ele>680.26999999999998</ele>
        <time>2013-09-04T11:07:37Z</time>
      </trkpt>
      <trkpt lat="50.52702602930367" lon="13.114513959735632">
        <ele>679.78999999999996</ele>
        <time>2013-09-04T11:07:38Z</time>
      </trkpt>
      <trkpt lat="50.527055030688643" lon="13.11476499773562">
        <ele>678.83000000000004</ele>
        <time>2013-09-04T11:07:39Z</time>
      </trkpt>
      <trkpt lat="50.527076991274953" lon="13.115058029070497">
        <ele>677.38999999999999</ele>
        <time>2013-09-04T11:07:40Z</time>
      </trkpt>
      <trkpt lat="50.527216969057918" lon="13.116373987868428">
        <ele>672.58000000000004</ele>
        <time>2013-09-04T11:07:44Z</time>
      </trkpt>
      <trkpt lat="50.527331968769431" lon="13.117741998285055">
        <ele>665.37</ele>
        <time>2013-09-04T11:07:48Z</time>
      </trkpt>
      <trkpt lat="50.528054991737008" lon="13.120641969144344">
        <ele>652.87</ele>
        <time>2013-09-04T11:07:57Z</time>
      </trkpt>
      <trkpt lat="50.528623033314943" lon="13.122551031410694">
        <ele>648.54999999999995</ele>
        <time>2013-09-04T11:08:03Z</time>
      </trkpt>
      <trkpt lat="50.529177999123931" lon="13.125120000913739">
        <ele>640.86000000000001</ele>
        <time>2013-09-04T11:08:11Z</time>
      </trkpt>
      <trkpt lat="50.529213035479188" lon="13.12574696727097">
        <ele>638.92999999999995</ele>
        <time>2013-09-04T11:08:13Z</time>
      </trkpt>
      <trkpt lat="50.52919602021575" lon="13.126076040789485">
        <ele>637.49000000000001</ele>
        <time>2013-09-04T11:08:14Z</time>
      </trkpt>
      <trkpt lat="50.529043972492218" lon="13.127621999010444">
        <ele>631.24000000000001</ele>
        <time>2013-09-04T11:08:19Z</time>
      </trkpt>
      <trkpt lat="50.528966020792723" lon="13.127887034788728">
        <ele>630.75999999999999</ele>
        <time>2013-09-04T11:08:20Z</time>
      </trkpt>
      <trkpt lat="50.528859989717603" lon="13.128140000626445">
        <ele>630.27999999999997</ele>
        <time>2013-09-04T11:08:21Z</time>
      </trkpt>
      <trkpt lat="50.528279040008783" lon="13.129264013841748">
        <ele>627.88</ele>
        <time>2013-09-04T11:08:26Z</time>
      </trkpt>
      <trkpt lat="50.527806971222162" lon="13.130532028153539">
        <ele>620.19000000000005</ele>
        <time>2013-09-04T11:08:32Z</time>
      </trkpt>
      <trkpt lat="50.527788028120995" lon="13.130741994827986">
        <ele>618.75</ele>
        <time>2013-09-04T11:08:33Z</time>
      </trkpt>
      <trkpt lat="50.527790039777756" lon="13.130951961502433">
        <ele>618.25999999999999</ele>
        <time>2013-09-04T11:08:34Z</time>
      </trkpt>
      <trkpt lat="50.527859022840858" lon="13.13227403908968">
        <ele>607.69000000000005</ele>
        <time>2013-09-04T11:08:42Z</time>
      </trkpt>
      <trkpt lat="50.527884000912309" lon="13.132347967475653">
        <ele>605.76999999999998</ele>
        <time>2013-09-04T11:08:43Z</time>
      </trkpt>
      <trkpt lat="50.527938986197114" lon="13.132387027144432">
        <ele>604.80999999999995</ele>
        <time>2013-09-04T11:08:44Z</time>
      </trkpt>
      <trkpt lat="50.528006963431835" lon="13.132375041022897">
        <ele>603.85000000000002</ele>
        <time>2013-09-04T11:08:45Z</time>
      </trkpt>
      <trkpt lat="50.528067983686924" lon="13.132321983575821">
        <ele>602.88</ele>
        <time>2013-09-04T11:08:46Z</time>
      </trkpt>
      <trkpt lat="50.528127998113632" lon="13.132229028269649">
        <ele>602.39999999999998</ele>
        <time>2013-09-04T11:08:47Z</time>
      </trkpt>
      <trkpt lat="50.528192035853863" lon="13.132106987759471">
        <ele>601.44000000000005</ele>
        <time>2013-09-04T11:08:48Z</time>
      </trkpt>
      <trkpt lat="50.528906006366014" lon="13.130941987037659">
        <ele>598.55999999999995</ele>
        <time>2013-09-04T11:08:56Z</time>
      </trkpt>
      <trkpt lat="50.529191996902227" lon="13.130684997886419">
        <ele>597.12</ele>
        <time>2013-09-04T11:08:59Z</time>
      </trkpt>
      <trkpt lat="50.529421996325254" lon="13.130379980430007">
        <ele>596.14999999999998</ele>
        <time>2013-09-04T11:09:02Z</time>
      </trkpt>
      <trkpt lat="50.529501959681511" lon="13.130324995145202">
        <ele>595.19000000000005</ele>
        <time>2013-09-04T11:09:03Z</time>
      </trkpt>
      <trkpt lat="50.529591981321573" lon="13.130275961011648">
        <ele>594.71000000000004</ele>
        <time>2013-09-04T11:09:04Z</time>
      </trkpt>
      <trkpt lat="50.529690971598029" lon="13.130220975726843">
        <ele>594.71000000000004</ele>
        <time>2013-09-04T11:09:05Z</time>
      </trkpt>
      <trkpt lat="50.529794991016388" lon="13.130190968513489">
        <ele>594.71000000000004</ele>
        <time>2013-09-04T11:09:06Z</time>
      </trkpt>
      <trkpt lat="50.52990797907114" lon="13.130165990442038">
        <ele>594.71000000000004</ele>
        <time>2013-09-04T11:09:07Z</time>
      </trkpt>
      <trkpt lat="50.530858989804983" lon="13.130102036520839">
        <ele>593.75</ele>
        <time>2013-09-04T11:09:14Z</time>
      </trkpt>
      <trkpt lat="50.531408004462719" lon="13.130061971023679">
        <ele>593.75</ele>
        <time>2013-09-04T11:09:19Z</time>
      </trkpt>
      <trkpt lat="50.531488973647356" lon="13.130027018487453">
        <ele>593.75</ele>
        <time>2013-09-04T11:09:20Z</time>
      </trkpt>
      <trkpt lat="50.531721990555525" lon="13.129943031817675">
        <ele>595.66999999999996</ele>
        <time>2013-09-04T11:09:23Z</time>
      </trkpt>
      <trkpt lat="50.531813018023968" lon="13.129971027374268">
        <ele>595.66999999999996</ele>
        <time>2013-09-04T11:09:24Z</time>
      </trkpt>
      <trkpt lat="50.531901028007269" lon="13.130012014880776">
        <ele>595.66999999999996</ele>
        <time>2013-09-04T11:09:25Z</time>
      </trkpt>
      <trkpt lat="50.531983003020287" lon="13.13006398268044">
        <ele>596.14999999999998</ele>
        <time>2013-09-04T11:09:26Z</time>
      </trkpt>
      <trkpt lat="50.532066989690065" lon="13.13012701459229">
        <ele>597.12</ele>
        <time>2013-09-04T11:09:27Z</time>
      </trkpt>
      <trkpt lat="50.532303024083376" lon="13.130380986258388">
        <ele>598.55999999999995</ele>
        <time>2013-09-04T11:09:31Z</time>
      </trkpt>
      <trkpt lat="50.532361026853323" lon="13.130468996241689">
        <ele>598.55999999999995</ele>
        <time>2013-09-04T11:09:32Z</time>
      </trkpt>
      <trkpt lat="50.532422969117761" lon="13.13060000538826">
        <ele>598.55999999999995</ele>
        <time>2013-09-04T11:09:33Z</time>
      </trkpt>
      <trkpt lat="50.532511984929442" lon="13.130764961242676">
        <ele>598.55999999999995</ele>
        <time>2013-09-04T11:09:34Z</time>
      </trkpt>
      <trkpt lat="50.532604018226266" lon="13.130963025614619">
        <ele>599.03999999999996</ele>
        <time>2013-09-04T11:09:35Z</time>
      </trkpt>
      <trkpt lat="50.532796969637275" lon="13.131358986720443">
        <ele>599.51999999999998</ele>
        <time>2013-09-04T11:09:37Z</time>
      </trkpt>
      <trkpt lat="50.532908029854298" lon="13.13150399364531">
        <ele>600</ele>
        <time>2013-09-04T11:09:38Z</time>
      </trkpt>
      <trkpt lat="50.533024035394192" lon="13.13161295838654">
        <ele>600.48000000000002</ele>
        <time>2013-09-04T11:09:39Z</time>
      </trkpt>
      <trkpt lat="50.53315001539886" lon="13.131680013611913">
        <ele>600.96000000000004</ele>
        <time>2013-09-04T11:09:40Z</time>
      </trkpt>
      <trkpt lat="50.533278007060289" lon="13.131724018603563">
        <ele>600.96000000000004</ele>
        <time>2013-09-04T11:09:41Z</time>
      </trkpt>
      <trkpt lat="50.533399963751435" lon="13.13173902221024">
        <ele>601.44000000000005</ele>
        <time>2013-09-04T11:09:42Z</time>
      </trkpt>
      <trkpt lat="50.533529967069626" lon="13.131719995290041">
        <ele>601.91999999999996</ele>
        <time>2013-09-04T11:09:43Z</time>
      </trkpt>
      <trkpt lat="50.533655025064945" lon="13.13161295838654">
        <ele>602.39999999999998</ele>
        <time>2013-09-04T11:09:44Z</time>
      </trkpt>
      <trkpt lat="50.533766001462936" lon="13.131512040272355">
        <ele>602.39999999999998</ele>
        <time>2013-09-04T11:09:45Z</time>
      </trkpt>
      <trkpt lat="50.533882007002831" lon="13.13139502890408">
        <ele>602.88</ele>
        <time>2013-09-04T11:09:46Z</time>
      </trkpt>
      <trkpt lat="50.535039966925979" lon="13.130504032596946">
        <ele>603.36000000000001</ele>
        <time>2013-09-04T11:09:56Z</time>
      </trkpt>
      <trkpt lat="50.535774976015091" lon="13.129949988797307">
        <ele>604.80999999999995</ele>
        <time>2013-09-04T11:10:03Z</time>
      </trkpt>
      <trkpt lat="50.536034982651472" lon="13.129636002704501">
        <ele>605.76999999999998</ele>
        <time>2013-09-04T11:10:06Z</time>
      </trkpt>
      <trkpt lat="50.536123998463154" lon="13.129499964416027">
        <ele>606.25</ele>
        <time>2013-09-04T11:10:07Z</time>
      </trkpt>
      <trkpt lat="50.536215025931597" lon="13.129314975813031">
        <ele>606.73000000000002</ele>
        <time>2013-09-04T11:10:08Z</time>
      </trkpt>
      <trkpt lat="50.536793963983655" lon="13.128288025036454">
        <ele>609.13</ele>
        <time>2013-09-04T11:10:14Z</time>
      </trkpt>
      <trkpt lat="50.538090979680419" lon="13.12645498663187">
        <ele>612.98000000000002</ele>
        <time>2013-09-04T11:10:24Z</time>
      </trkpt>
      <trkpt lat="50.53850001655519" lon="13.126037986949086">
        <ele>613.94000000000005</ele>
        <time>2013-09-04T11:10:27Z</time>
      </trkpt>
      <trkpt lat="50.538959009572864" lon="13.125757025554776">
        <ele>614.89999999999998</ele>
        <time>2013-09-04T11:10:30Z</time>
      </trkpt>
      <trkpt lat="50.539127988740802" lon="13.12570296227932">
        <ele>615.38</ele>
        <time>2013-09-04T11:10:31Z</time>
      </trkpt>
      <trkpt lat="50.539283975958824" lon="13.125697011128068">
        <ele>615.38</ele>
        <time>2013-09-04T11:10:32Z</time>
      </trkpt>
      <trkpt lat="50.539437029510736" lon="13.125745039433241">
        <ele>615.38</ele>
        <time>2013-09-04T11:10:33Z</time>
      </trkpt>
      <trkpt lat="50.539594022557139" lon="13.12583296559751">
        <ele>615.38</ele>
        <time>2013-09-04T11:10:34Z</time>
      </trkpt>
      <trkpt lat="50.539730982854962" lon="13.125941008329391">
        <ele>615.86000000000001</ele>
        <time>2013-09-04T11:10:35Z</time>
      </trkpt>
      <trkpt lat="50.539889987558126" lon="13.126139994710684">
        <ele>613.46000000000004</ele>
        <time>2013-09-04T11:10:36Z</time>
      </trkpt>
      <trkpt lat="50.54000498726964" lon="13.126322971656919">
        <ele>612.98000000000002</ele>
        <time>2013-09-04T11:10:37Z</time>
      </trkpt>
      <trkpt lat="50.540099032223225" lon="13.126545008271933">
        <ele>612.98000000000002</ele>
        <time>2013-09-04T11:10:38Z</time>
      </trkpt>
      <trkpt lat="50.540178995579481" lon="13.126814989373088">
        <ele>612.98000000000002</ele>
        <time>2013-09-04T11:10:39Z</time>
      </trkpt>
      <trkpt lat="50.540290977805853" lon="13.127043982967734">
        <ele>610.57000000000005</ele>
        <time>2013-09-04T11:10:40Z</time>
      </trkpt>
      <trkpt lat="50.540418969467282" lon="13.127628033980727">
        <ele>607.21000000000004</ele>
        <time>2013-09-04T11:10:42Z</time>
      </trkpt>
      <trkpt lat="50.541018024086952" lon="13.130636969581246">
        <ele>599.03999999999996</ele>
        <time>2013-09-04T11:10:52Z</time>
      </trkpt>
      <trkpt lat="50.541191026568413" lon="13.13113602809608">
        <ele>597.12</ele>
        <time>2013-09-04T11:10:54Z</time>
      </trkpt>
      <trkpt lat="50.541504006832838" lon="13.131582029163837">
        <ele>589.42999999999995</ele>
        <time>2013-09-04T11:10:56Z</time>
      </trkpt>
      <trkpt lat="50.541665023192763" lon="13.13176198862493">
        <ele>586.05999999999995</ele>
        <time>2013-09-04T11:10:57Z</time>
      </trkpt>
      <trkpt lat="50.54288299754262" lon="13.133433004841208">
        <ele>580.76999999999998</ele>
        <time>2013-09-04T11:11:06Z</time>
      </trkpt>
      <trkpt lat="50.543037978932261" lon="13.133513974025846">
        <ele>580.28999999999996</ele>
        <time>2013-09-04T11:11:07Z</time>
      </trkpt>
      <trkpt lat="50.543200001120567" lon="13.133541969582438">
        <ele>580.28999999999996</ele>
        <time>2013-09-04T11:11:08Z</time>
      </trkpt>
      <trkpt lat="50.543384989723563" lon="13.133523026481271">
        <ele>579.80999999999995</ele>
        <time>2013-09-04T11:11:09Z</time>
      </trkpt>
      <trkpt lat="50.54357098415494" lon="13.133490001782775">
        <ele>579.80999999999995</ele>
        <time>2013-09-04T11:11:10Z</time>
      </trkpt>
      <trkpt lat="50.544523000717163" lon="13.133382964879274">
        <ele>578.37</ele>
        <time>2013-09-04T11:11:15Z</time>
      </trkpt>
      <trkpt lat="50.544717041775584" lon="13.133412972092628">
        <ele>578.37</ele>
        <time>2013-09-04T11:11:16Z</time>
      </trkpt>
      <trkpt lat="50.544895995408297" lon="13.133468041196465">
        <ele>577.88999999999999</ele>
        <time>2013-09-04T11:11:17Z</time>
      </trkpt>
      <trkpt lat="50.545066986232996" lon="13.133588992059231">
        <ele>577.88999999999999</ele>
        <time>2013-09-04T11:11:18Z</time>
      </trkpt>
      <trkpt lat="50.545226996764541" lon="13.133740033954382">
        <ele>577.40999999999997</ele>
        <time>2013-09-04T11:11:19Z</time>
      </trkpt>
      <trkpt lat="50.545370997861028" lon="13.13392804004252">
        <ele>577.40999999999997</ele>
        <time>2013-09-04T11:11:20Z</time>
      </trkpt>
      <trkpt lat="50.545493960380554" lon="13.134148987010121">
        <ele>576.92999999999995</ele>
        <time>2013-09-04T11:11:21Z</time>
      </trkpt>
      <trkpt lat="50.545623963698745" lon="13.134378986433148">
        <ele>576.45000000000005</ele>
        <time>2013-09-04T11:11:22Z</time>
      </trkpt>
      <trkpt lat="50.545922024175525" lon="13.135409960523248">
        <ele>575.00999999999999</ele>
        <time>2013-09-04T11:11:26Z</time>
      </trkpt>
      <trkpt lat="50.545925963670015" lon="13.13571497797966">
        <ele>574.52999999999997</ele>
        <time>2013-09-04T11:11:27Z</time>
      </trkpt>
      <trkpt lat="50.545834014192224" lon="13.13605603761971">
        <ele>573.55999999999995</ele>
        <time>2013-09-04T11:11:28Z</time>
      </trkpt>
      <trkpt lat="50.545732006430626" lon="13.136406987905502">
        <ele>573.08000000000004</ele>
        <time>2013-09-04T11:11:29Z</time>
      </trkpt>
      <trkpt lat="50.545684983953834" lon="13.136737989261746">
        <ele>572.12</ele>
        <time>2013-09-04T11:11:30Z</time>
      </trkpt>
      <trkpt lat="50.545707028359175" lon="13.138406993821263">
        <ele>566.35000000000002</ele>
        <time>2013-09-04T11:11:35Z</time>
      </trkpt>
      <trkpt lat="50.546143976971507" lon="13.140342961996794">
        <ele>563.95000000000005</ele>
        <time>2013-09-04T11:11:42Z</time>
      </trkpt>
      <trkpt lat="50.546243973076344" lon="13.140552006661892">
        <ele>563.47000000000003</ele>
        <time>2013-09-04T11:11:43Z</time>
      </trkpt>
      <trkpt lat="50.546376993879676" lon="13.14069801941514">
        <ele>563.47000000000003</ele>
        <time>2013-09-04T11:11:44Z</time>
      </trkpt>
      <trkpt lat="50.546490987762809" lon="13.140829028561711">
        <ele>562.99000000000001</ele>
        <time>2013-09-04T11:11:45Z</time>
      </trkpt>
      <trkpt lat="50.546606993302703" lon="13.140931958332658">
        <ele>562.50999999999999</ele>
        <time>2013-09-04T11:11:46Z</time>
      </trkpt>
      <trkpt lat="50.546757029369473" lon="13.140974035486579">
        <ele>562.02999999999997</ele>
        <time>2013-09-04T11:11:47Z</time>
      </trkpt>
      <trkpt lat="50.54685702547431" lon="13.141034971922636">
        <ele>561.07000000000005</ele>
        <time>2013-09-04T11:11:48Z</time>
      </trkpt>
      <trkpt lat="50.546970013529062" lon="13.141071014106274">
        <ele>560.59000000000003</ele>
        <time>2013-09-04T11:11:49Z</time>
      </trkpt>
      <trkpt lat="50.547162964940071" lon="13.141066990792751">
        <ele>559.62</ele>
        <time>2013-09-04T11:11:51Z</time>
      </trkpt>
      <trkpt lat="50.547215016558766" lon="13.141035977751017">
        <ele>558.65999999999997</ele>
        <time>2013-09-04T11:11:52Z</time>
      </trkpt>
      <trkpt lat="50.547506036236882" lon="13.140931958332658">
        <ele>557.22000000000003</ele>
        <time>2013-09-04T11:11:55Z</time>
      </trkpt>
      <trkpt lat="50.54778398014605" lon="13.140918966382742">
        <ele>556.25999999999999</ele>
        <time>2013-09-04T11:11:57Z</time>
      </trkpt>
      <trkpt lat="50.547938039526343" lon="13.140992978587747">
        <ele>555.77999999999997</ele>
        <time>2013-09-04T11:11:58Z</time>
      </trkpt>
      <trkpt lat="50.548109030351043" lon="13.141086017712951">
        <ele>555.29999999999995</ele>
        <time>2013-09-04T11:11:59Z</time>
      </trkpt>
      <trkpt lat="50.548267029225826" lon="13.141202023252845">
        <ele>555.29999999999995</ele>
        <time>2013-09-04T11:12:00Z</time>
      </trkpt>
      <trkpt lat="50.5484289675951" lon="13.14132297411561">
        <ele>554.82000000000005</ele>
        <time>2013-09-04T11:12:01Z</time>
      </trkpt>
      <trkpt lat="50.548914028331637" lon="13.141550961881876">
        <ele>553.86000000000001</ele>
        <time>2013-09-04T11:12:04Z</time>
      </trkpt>
      <trkpt lat="50.549094993621111" lon="13.141573006287217">
        <ele>553.38</ele>
        <time>2013-09-04T11:12:05Z</time>
      </trkpt>
      <trkpt lat="50.550198974087834" lon="13.142018001526594">
        <ele>555.77999999999997</ele>
        <time>2013-09-04T11:12:11Z</time>
      </trkpt>
      <trkpt lat="50.551419965922832" lon="13.143090968951583">
        <ele>557.70000000000005</ele>
        <time>2013-09-04T11:12:18Z</time>
      </trkpt>
      <trkpt lat="50.552945975214243" lon="13.144297963008285">
        <ele>561.07000000000005</ele>
        <time>2013-09-04T11:12:27Z</time>
      </trkpt>
      <trkpt lat="50.55416596122086" lon="13.145409990102053">
        <ele>558.17999999999995</ele>
        <time>2013-09-04T11:12:36Z</time>
      </trkpt>
      <trkpt lat="50.55489401333034" lon="13.146686973050237">
        <ele>555.29999999999995</ele>
        <time>2013-09-04T11:12:44Z</time>
      </trkpt>
      <trkpt lat="50.555901015177369" lon="13.149065002799034">
        <ele>550.49000000000001</ele>
        <time>2013-09-04T11:12:57Z</time>
      </trkpt>
      <trkpt lat="50.556198991835117" lon="13.149504968896508">
        <ele>550.97000000000003</ele>
        <time>2013-09-04T11:13:00Z</time>
      </trkpt>
      <trkpt lat="50.557389976456761" lon="13.151029972359538">
        <ele>544.24000000000001</ele>
        <time>2013-09-04T11:13:12Z</time>
      </trkpt>
      <trkpt lat="50.5576850194484" lon="13.152008978649974">
        <ele>539.44000000000005</ele>
        <time>2013-09-04T11:13:20Z</time>
      </trkpt>
      <trkpt lat="50.557674961164594" lon="13.152097994461656">
        <ele>538.96000000000004</ele>
        <time>2013-09-04T11:13:21Z</time>
      </trkpt>
      <trkpt lat="50.557634979486465" lon="13.152169995009899">
        <ele>538.48000000000002</ele>
        <time>2013-09-04T11:13:22Z</time>
      </trkpt>
      <trkpt lat="50.557572031393647" lon="13.15223403275013">
        <ele>537.99000000000001</ele>
        <time>2013-09-04T11:13:23Z</time>
      </trkpt>
      <trkpt lat="50.557489972561598" lon="13.152309972792864">
        <ele>537.50999999999999</ele>
        <time>2013-09-04T11:13:24Z</time>
      </trkpt>
      <trkpt lat="50.556517001241446" lon="13.153147995471954">
        <ele>535.59000000000003</ele>
        <time>2013-09-04T11:13:33Z</time>
      </trkpt>
      <trkpt lat="50.556302005425096" lon="13.153360979631543">
        <ele>535.59000000000003</ele>
        <time>2013-09-04T11:13:35Z</time>
      </trkpt>
      <trkpt lat="50.556221036240458" lon="13.153498023748398">
        <ele>536.54999999999995</ele>
        <time>2013-09-04T11:13:36Z</time>
      </trkpt>
      <trkpt lat="50.556148029863834" lon="13.153651999309659">
        <ele>536.54999999999995</ele>
        <time>2013-09-04T11:13:37Z</time>
      </trkpt>
      <trkpt lat="50.556088015437126" lon="13.153832964599133">
        <ele>537.02999999999997</ele>
        <time>2013-09-04T11:13:38Z</time>
      </trkpt>
      <trkpt lat="50.556029006838799" lon="13.154024994000793">
        <ele>537.02999999999997</ele>
        <time>2013-09-04T11:13:39Z</time>
      </trkpt>
      <trkpt lat="50.555571019649506" lon="13.155534993857145">
        <ele>539.44000000000005</ele>
        <time>2013-09-04T11:13:47Z</time>
      </trkpt>
      <trkpt lat="50.555508993566036" lon="13.155686035752296">
        <ele>539.91999999999996</ele>
        <time>2013-09-04T11:13:48Z</time>
      </trkpt>
      <trkpt lat="50.555416038259864" lon="13.155805980786681">
        <ele>539.91999999999996</ele>
        <time>2013-09-04T11:13:49Z</time>
      </trkpt>
      <trkpt lat="50.555137004703283" lon="13.1562539935112">
        <ele>540.88</ele>
        <time>2013-09-04T11:13:52Z</time>
      </trkpt>
      <trkpt lat="50.555089982226491" lon="13.156447028741241">
        <ele>541.36000000000001</ele>
        <time>2013-09-04T11:13:53Z</time>
      </trkpt>
      <trkpt lat="50.555055029690266" lon="13.156641991809011">
        <ele>541.84000000000003</ele>
        <time>2013-09-04T11:13:54Z</time>
      </trkpt>
      <trkpt lat="50.555032985284925" lon="13.156837960705161">
        <ele>541.84000000000003</ele>
        <time>2013-09-04T11:13:55Z</time>
      </trkpt>
      <trkpt lat="50.55502200499177" lon="13.157038036733866">
        <ele>542.32000000000005</ele>
        <time>2013-09-04T11:13:56Z</time>
      </trkpt>
      <trkpt lat="50.555030973628163" lon="13.15724297426641">
        <ele>542.79999999999995</ele>
        <time>2013-09-04T11:13:57Z</time>
      </trkpt>
      <trkpt lat="50.555054023861885" lon="13.157441960647702">
        <ele>542.79999999999995</ele>
        <time>2013-09-04T11:13:58Z</time>
      </trkpt>
      <trkpt lat="50.555101968348026" lon="13.157643964514136">
        <ele>543.27999999999997</ele>
        <time>2013-09-04T11:13:59Z</time>
      </trkpt>
      <trkpt lat="50.555149996653199" lon="13.15784303471446">
        <ele>543.75999999999999</ele>
        <time>2013-09-04T11:14:00Z</time>
      </trkpt>
      <trkpt lat="50.555660035461187" lon="13.159592002630234">
        <ele>550.00999999999999</ele>
        <time>2013-09-04T11:14:10Z</time>
      </trkpt>
      <trkpt lat="50.555689036846161" lon="13.159787971526384">
        <ele>550.00999999999999</ele>
        <time>2013-09-04T11:14:11Z</time>
      </trkpt>
      <trkpt lat="50.555858016014099" lon="13.161261007189751">
        <ele>554.34000000000003</ele>
        <time>2013-09-04T11:14:20Z</time>
      </trkpt>
      <trkpt lat="50.555908977985382" lon="13.162776958197355">
        <ele>560.11000000000001</ele>
        <time>2013-09-04T11:14:29Z</time>
      </trkpt>
      <trkpt lat="50.555779980495572" lon="13.163598971441388">
        <ele>562.02999999999997</ele>
        <time>2013-09-04T11:14:35Z</time>
      </trkpt>
      <trkpt lat="50.555373039096594" lon="13.164661964401603">
        <ele>565.87</ele>
        <time>2013-09-04T11:14:43Z</time>
      </trkpt>
      <trkpt lat="50.555336996912956" lon="13.164860028773546">
        <ele>566.35000000000002</ele>
        <time>2013-09-04T11:14:44Z</time>
      </trkpt>
      <trkpt lat="50.555310007184744" lon="13.165079969912767">
        <ele>566.83000000000004</ele>
        <time>2013-09-04T11:14:45Z</time>
      </trkpt>
      <trkpt lat="50.555287040770054" lon="13.165311980992556">
        <ele>567.32000000000005</ele>
        <time>2013-09-04T11:14:46Z</time>
      </trkpt>
      <trkpt lat="50.555263990536332" lon="13.165538962930441">
        <ele>567.79999999999995</ele>
        <time>2013-09-04T11:14:47Z</time>
      </trkpt>
      <trkpt lat="50.555224008858204" lon="13.1657500192523">
        <ele>568.27999999999997</ele>
        <time>2013-09-04T11:14:48Z</time>
      </trkpt>
      <trkpt lat="50.555172963067889" lon="13.165955040603876">
        <ele>568.75999999999999</ele>
        <time>2013-09-04T11:14:49Z</time>
      </trkpt>
      <trkpt lat="50.554970037192106" lon="13.166704969480634">
        <ele>570.67999999999995</ele>
        <time>2013-09-04T11:14:53Z</time>
      </trkpt>
      <trkpt lat="50.554535016417503" lon="13.167966026812792">
        <ele>575.49000000000001</ele>
        <time>2013-09-04T11:15:00Z</time>
      </trkpt>
      <trkpt lat="50.55450702086091" lon="13.168175993487239">
        <ele>575.97000000000003</ele>
        <time>2013-09-04T11:15:01Z</time>
      </trkpt>
      <trkpt lat="50.554534010589123" lon="13.168375985696912">
        <ele>576.45000000000005</ele>
        <time>2013-09-04T11:15:02Z</time>
      </trkpt>
      <trkpt lat="50.554567035287619" lon="13.168566003441811">
        <ele>576.92999999999995</ele>
        <time>2013-09-04T11:15:03Z</time>
      </trkpt>
      <trkpt lat="50.554637024179101" lon="13.168746968731284">
        <ele>577.88999999999999</ele>
        <time>2013-09-04T11:15:04Z</time>
      </trkpt>
      <trkpt lat="50.554709024727345" lon="13.168916031718254">
        <ele>578.85000000000002</ele>
        <time>2013-09-04T11:15:05Z</time>
      </trkpt>
      <trkpt lat="50.554789993911982" lon="13.169085010886192">
        <ele>579.80999999999995</ele>
        <time>2013-09-04T11:15:06Z</time>
      </trkpt>
      <trkpt lat="50.555183021351695" lon="13.169930996373296">
        <ele>583.65999999999997</ele>
        <time>2013-09-04T11:15:11Z</time>
      </trkpt>
      <trkpt lat="50.555713009089231" lon="13.170996000990272">
        <ele>588.46000000000004</ele>
        <time>2013-09-04T11:15:17Z</time>
      </trkpt>
      <trkpt lat="50.555771011859179" lon="13.171212002635002">
        <ele>589.42999999999995</ele>
        <time>2013-09-04T11:15:18Z</time>
      </trkpt>
      <trkpt lat="50.555806970223784" lon="13.17144300788641">
        <ele>590.38999999999999</ele>
        <time>2013-09-04T11:15:19Z</time>
      </trkpt>
      <trkpt lat="50.555801019072533" lon="13.171683987602592">
        <ele>591.35000000000002</ele>
        <time>2013-09-04T11:15:20Z</time>
      </trkpt>
      <trkpt lat="50.555750979110599" lon="13.171942988410592">
        <ele>592.30999999999995</ele>
        <time>2013-09-04T11:15:21Z</time>
      </trkpt>
      <trkpt lat="50.555674033239484" lon="13.172193020582199">
        <ele>593.26999999999998</ele>
        <time>2013-09-04T11:15:22Z</time>
      </trkpt>
      <trkpt lat="50.55560496635735" lon="13.172443974763155">
        <ele>594.23000000000002</ele>
        <time>2013-09-04T11:15:23Z</time>
      </trkpt>
      <trkpt lat="50.555550986900926" lon="13.172715967521071">
        <ele>595.66999999999996</ele>
        <time>2013-09-04T11:15:24Z</time>
      </trkpt>
      <trkpt lat="50.554935000836849" lon="13.174869026988745">
        <ele>606.25</ele>
        <time>2013-09-04T11:15:32Z</time>
      </trkpt>
      <trkpt lat="50.554299987852573" lon="13.176734000444412">
        <ele>616.34000000000003</ele>
        <time>2013-09-04T11:15:40Z</time>
      </trkpt>
      <trkpt lat="50.554204015061259" lon="13.177176984027028">
        <ele>618.75</ele>
        <time>2013-09-04T11:15:42Z</time>
      </trkpt>
      <trkpt lat="50.553903020918369" lon="13.178874989971519">
        <ele>625.96000000000004</ele>
        <time>2013-09-04T11:15:49Z</time>
      </trkpt>
      <trkpt lat="50.553804030641913" lon="13.179100966081023">
        <ele>626.91999999999996</ele>
        <time>2013-09-04T11:15:50Z</time>
      </trkpt>
      <trkpt lat="50.553694982081652" lon="13.179300958290696">
        <ele>627.88</ele>
        <time>2013-09-04T11:15:51Z</time>
      </trkpt>
      <trkpt lat="50.553571013733745" lon="13.179488964378834">
        <ele>628.84000000000003</ele>
        <time>2013-09-04T11:15:52Z</time>
      </trkpt>
      <trkpt lat="50.553444027900696" lon="13.17962802015245">
        <ele>629.79999999999995</ele>
        <time>2013-09-04T11:15:53Z</time>
      </trkpt>
      <trkpt lat="50.55330497212708" lon="13.179769003763795">
        <ele>630.75999999999999</ele>
        <time>2013-09-04T11:15:54Z</time>
      </trkpt>
      <trkpt lat="50.553143033757806" lon="13.179896995425224">
        <ele>631.24000000000001</ele>
        <time>2013-09-04T11:15:55Z</time>
      </trkpt>
      <trkpt lat="50.552976988255978" lon="13.1799949798733">
        <ele>631.72000000000003</ele>
        <time>2013-09-04T11:15:56Z</time>
      </trkpt>
      <trkpt lat="50.55278898216784" lon="13.180048037320375">
        <ele>631.72000000000003</ele>
        <time>2013-09-04T11:15:57Z</time>
      </trkpt>
      <trkpt lat="50.552601981908083" lon="13.18008198402822">
        <ele>631.72000000000003</ele>
        <time>2013-09-04T11:15:58Z</time>
      </trkpt>
      <trkpt lat="50.552434008568525" lon="13.18012397736311">
        <ele>632.20000000000005</ele>
        <time>2013-09-04T11:15:59Z</time>
      </trkpt>
      <trkpt lat="50.5522729922086" lon="13.180189020931721">
        <ele>632.67999999999995</ele>
        <time>2013-09-04T11:16:00Z</time>
      </trkpt>
      <trkpt lat="50.552109964191914" lon="13.180297985672951">
        <ele>633.16999999999996</ele>
        <time>2013-09-04T11:16:01Z</time>
      </trkpt>
      <trkpt lat="50.551965041086078" lon="13.180432012304664">
        <ele>633.64999999999998</ele>
        <time>2013-09-04T11:16:02Z</time>
      </trkpt>
      <trkpt lat="50.551825985312462" lon="13.180665029212832">
        <ele>634.61000000000001</ele>
        <time>2013-09-04T11:16:03Z</time>
      </trkpt>
      <trkpt lat="50.551708973944187" lon="13.180885976180434">
        <ele>635.09000000000003</ele>
        <time>2013-09-04T11:16:04Z</time>
      </trkpt>
      <trkpt lat="50.551614006981254" lon="13.181126033887267">
        <ele>635.57000000000005</ele>
        <time>2013-09-04T11:16:05Z</time>
      </trkpt>
      <trkpt lat="50.551523985341191" lon="13.181400960311294">
        <ele>636.52999999999997</ele>
        <time>2013-09-04T11:16:06Z</time>
      </trkpt>
      <trkpt lat="50.551473023369908" lon="13.181699020788074">
        <ele>637.00999999999999</ele>
        <time>2013-09-04T11:16:07Z</time>
      </trkpt>
      <trkpt lat="50.551448967307806" lon="13.181977970525622">
        <ele>637.49000000000001</ele>
        <time>2013-09-04T11:16:08Z</time>
      </trkpt>
      <trkpt lat="50.55143496952951" lon="13.182268990203738">
        <ele>638.45000000000005</ele>
        <time>2013-09-04T11:16:09Z</time>
      </trkpt>
      <trkpt lat="50.551178986206651" lon="13.185489987954497">
        <ele>645.17999999999995</ele>
        <time>2013-09-04T11:16:19Z</time>
      </trkpt>
      <trkpt lat="50.551103968173265" lon="13.185789976269007">
        <ele>645.17999999999995</ele>
        <time>2013-09-04T11:16:20Z</time>
      </trkpt>
      <trkpt lat="50.551009001210332" lon="13.186071021482348">
        <ele>645.17999999999995</ele>
        <time>2013-09-04T11:16:21Z</time>
      </trkpt>
      <trkpt lat="50.550900958478451" lon="13.186347037553787">
        <ele>644.70000000000005</ele>
        <time>2013-09-04T11:16:22Z</time>
      </trkpt>
      <trkpt lat="50.550788976252079" lon="13.186614001169801">
        <ele>644.70000000000005</ele>
        <time>2013-09-04T11:16:23Z</time>
      </trkpt>
      <trkpt lat="50.549813993275166" lon="13.188716014847159">
        <ele>642.77999999999997</ele>
        <time>2013-09-04T11:16:31Z</time>
      </trkpt>
      <trkpt lat="50.549679966643453" lon="13.189172996208072">
        <ele>643.25999999999999</ele>
        <time>2013-09-04T11:16:33Z</time>
      </trkpt>
      <trkpt lat="50.549650965258479" lon="13.189420010894537">
        <ele>643.74000000000001</ele>
        <time>2013-09-04T11:16:34Z</time>
      </trkpt>
      <trkpt lat="50.549634033814073" lon="13.189626960083842">
        <ele>645.17999999999995</ele>
        <time>2013-09-04T11:16:35Z</time>
      </trkpt>
      <trkpt lat="50.549662029370666" lon="13.18981597200036">
        <ele>645.17999999999995</ele>
        <time>2013-09-04T11:16:36Z</time>
      </trkpt>
      <trkpt lat="50.54969497025013" lon="13.18996399641037">
        <ele>645.65999999999997</ele>
        <time>2013-09-04T11:16:37Z</time>
      </trkpt>
      <trkpt lat="50.54975800216198" lon="13.190097017213702">
        <ele>646.13999999999999</ele>
        <time>2013-09-04T11:16:38Z</time>
      </trkpt>
      <trkpt lat="50.54988800548017" lon="13.1901799980551">
        <ele>646.13999999999999</ele>
        <time>2013-09-04T11:16:39Z</time>
      </trkpt>
      <trkpt lat="50.549994958564639" lon="13.19028602913022">
        <ele>647.10000000000002</ele>
        <time>2013-09-04T11:16:40Z</time>
      </trkpt>
      <trkpt lat="50.55008003488183" lon="13.190419971942902">
        <ele>650.95000000000005</ele>
        <time>2013-09-04T11:16:41Z</time>
      </trkpt>
      <trkpt lat="50.550129991024733" lon="13.190547041594982">
        <ele>656.72000000000003</ele>
        <time>2013-09-04T11:16:42Z</time>
      </trkpt>
      <trkpt lat="50.550242979079485" lon="13.190721971914172">
        <ele>658.15999999999997</ele>
        <time>2013-09-04T11:16:43Z</time>
      </trkpt>
      <trkpt lat="50.550309028476477" lon="13.190967980772257">
        <ele>660.08000000000004</ele>
        <time>2013-09-04T11:16:44Z</time>
      </trkpt>
      <trkpt lat="50.55034096352756" lon="13.191221030429006">
        <ele>661.51999999999998</ele>
        <time>2013-09-04T11:16:45Z</time>
      </trkpt>
      <trkpt lat="50.550375999882817" lon="13.191465027630329">
        <ele>663.45000000000005</ele>
        <time>2013-09-04T11:16:46Z</time>
      </trkpt>
      <trkpt lat="50.550731979310513" lon="13.195216013118625">
        <ele>698.52999999999997</ele>
        <time>2013-09-04T11:17:01Z</time>
      </trkpt>
      <trkpt lat="50.550752012059093" lon="13.195765027776361">
        <ele>701.89999999999998</ele>
        <time>2013-09-04T11:17:03Z</time>
      </trkpt>
      <trkpt lat="50.550731979310513" lon="13.196288980543613">
        <ele>705.75</ele>
        <time>2013-09-04T11:17:05Z</time>
      </trkpt>
      <trkpt lat="50.550481025129557" lon="13.199157016351819">
        <ele>721.61000000000001</ele>
        <time>2013-09-04T11:17:14Z</time>
      </trkpt>
      <trkpt lat="50.550309028476477" lon="13.201697990298271">
        <ele>735.54999999999995</ele>
        <time>2013-09-04T11:17:22Z</time>
      </trkpt>
      <trkpt lat="50.55033802986145" lon="13.201957996934652">
        <ele>736.99000000000001</ele>
        <time>2013-09-04T11:17:23Z</time>
      </trkpt>
      <trkpt lat="50.550637012347579" lon="13.204373996704817">
        <ele>761.5</ele>
        <time>2013-09-04T11:17:31Z</time>
      </trkpt>
      <trkpt lat="50.551044037565589" lon="13.207283020019531">
        <ele>773.03999999999996</ele>
        <time>2013-09-04T11:17:40Z</time>
      </trkpt>
      <trkpt lat="50.551126012578607" lon="13.207597006112337">
        <ele>774.48000000000002</ele>
        <time>2013-09-04T11:17:41Z</time>
      </trkpt>
      <trkpt lat="50.551874013617635" lon="13.210278041660786">
        <ele>780.73000000000002</ele>
        <time>2013-09-04T11:17:50Z</time>
      </trkpt>
      <trkpt lat="50.551913995295763" lon="13.210815992206335">
        <ele>780.25</ele>
        <time>2013-09-04T11:17:52Z</time>
      </trkpt>
      <trkpt lat="50.551880970597267" lon="13.211094019934535">
        <ele>780.25</ele>
        <time>2013-09-04T11:17:53Z</time>
      </trkpt>
      <trkpt lat="50.551827996969223" lon="13.211371963843703">
        <ele>780.25</ele>
        <time>2013-09-04T11:17:54Z</time>
      </trkpt>
      <trkpt lat="50.551314018666744" lon="13.213686961680651">
        <ele>777.36000000000001</ele>
        <time>2013-09-04T11:18:02Z</time>
      </trkpt>
      <trkpt lat="50.551278982311487" lon="13.213960966095328">
        <ele>776.88</ele>
        <time>2013-09-04T11:18:03Z</time>
      </trkpt>
      <trkpt lat="50.551269007846713" lon="13.214232036843896">
        <ele>775.91999999999996</ele>
        <time>2013-09-04T11:18:04Z</time>
      </trkpt>
      <trkpt lat="50.551297003403306" lon="13.214482991024852">
        <ele>775.91999999999996</ele>
        <time>2013-09-04T11:18:05Z</time>
      </trkpt>
      <trkpt lat="50.551379984244704" lon="13.214698992669582">
        <ele>775.91999999999996</ele>
        <time>2013-09-04T11:18:06Z</time>
      </trkpt>
      <trkpt lat="50.551501018926501" lon="13.214871995151043">
        <ele>775.44000000000005</ele>
        <time>2013-09-04T11:18:07Z</time>
      </trkpt>
      <trkpt lat="50.551634039729834" lon="13.215027982369065">
        <ele>775.44000000000005</ele>
        <time>2013-09-04T11:18:08Z</time>
      </trkpt>
      <trkpt lat="50.551776029169559" lon="13.215158991515636">
        <ele>774.96000000000004</ele>
        <time>2013-09-04T11:18:09Z</time>
      </trkpt>
      <trkpt lat="50.551920030266047" lon="13.215281032025814">
        <ele>774.48000000000002</ele>
        <time>2013-09-04T11:18:10Z</time>
      </trkpt>
      <trkpt lat="50.553389964625239" lon="13.216222990304232">
        <ele>773.51999999999998</ele>
        <time>2013-09-04T11:18:20Z</time>
      </trkpt>
      <trkpt lat="50.553880976513028" lon="13.216554997488856">
        <ele>772.55999999999995</ele>
        <time>2013-09-04T11:18:25Z</time>
      </trkpt>
      <trkpt lat="50.554148023948073" lon="13.216711990535259">
        <ele>772.55999999999995</ele>
        <time>2013-09-04T11:18:29Z</time>
      </trkpt>
      <trkpt lat="50.554263023659587" lon="13.21673596277833">
        <ele>772.55999999999995</ele>
        <time>2013-09-04T11:18:30Z</time>
      </trkpt>
      <trkpt lat="50.555200958624482" lon="13.217166038230062">
        <ele>773.51999999999998</ele>
        <time>2013-09-04T11:18:37Z</time>
      </trkpt>
      <trkpt lat="50.556499985978007" lon="13.217811025679111">
        <ele>774</ele>
        <time>2013-09-04T11:18:47Z</time>
      </trkpt>
      <trkpt lat="50.557583011686802" lon="13.218504963442683">
        <ele>776.88</ele>
        <time>2013-09-04T11:18:56Z</time>
      </trkpt>
      <trkpt lat="50.55764595977962" lon="13.218642007559538">
        <ele>776.88</ele>
        <time>2013-09-04T11:18:57Z</time>
      </trkpt>
      <trkpt lat="50.5576850194484" lon="13.218763964250684">
        <ele>775.91999999999996</ele>
        <time>2013-09-04T11:18:58Z</time>
      </trkpt>
      <trkpt lat="50.557705974206328" lon="13.218892961740494">
        <ele>775.44000000000005</ele>
        <time>2013-09-04T11:18:59Z</time>
      </trkpt>
      <trkpt lat="50.557715026661754" lon="13.219001004472375">
        <ele>774</ele>
        <time>2013-09-04T11:19:00Z</time>
      </trkpt>
      <trkpt lat="50.557720977813005" lon="13.219079962000251">
        <ele>773.03999999999996</ele>
        <time>2013-09-04T11:19:01Z</time>
      </trkpt>
      <trkpt lat="50.557726006954908" lon="13.219153974205256">
        <ele>773.51999999999998</ele>
        <time>2013-09-04T11:19:02Z</time>
      </trkpt>
      <trkpt lat="50.557774035260081" lon="13.219394031912088">
        <ele>773.51999999999998</ele>
        <time>2013-09-04T11:19:07Z</time>
      </trkpt>
      <trkpt lat="50.557829020544887" lon="13.219424039125443">
        <ele>774.48000000000002</ele>
        <time>2013-09-04T11:19:08Z</time>
      </trkpt>
      <trkpt lat="50.557903032749891" lon="13.219436025246978">
        <ele>774.48000000000002</ele>
        <time>2013-09-04T11:19:09Z</time>
      </trkpt>
      <trkpt lat="50.558739965781569" lon="13.219448011368513">
        <ele>774</ele>
        <time>2013-09-04T11:19:16Z</time>
      </trkpt>
      <trkpt lat="50.560389021411538" lon="13.219458991661668">
        <ele>772.55999999999995</ele>
        <time>2013-09-04T11:19:28Z</time>
      </trkpt>
      <trkpt lat="50.562339993193746" lon="13.219496961683035">
        <ele>771.60000000000002</ele>
        <time>2013-09-04T11:19:42Z</time>
      </trkpt>
      <trkpt lat="50.562467984855175" lon="13.219555970281363">
        <ele>771.60000000000002</ele>
        <time>2013-09-04T11:19:43Z</time>
      </trkpt>
      <trkpt lat="50.564007991924882" lon="13.220100039616227">
        <ele>771.60000000000002</ele>
        <time>2013-09-04T11:19:55Z</time>
      </trkpt>
      <trkpt lat="50.564139001071453" lon="13.22006399743259">
        <ele>771.60000000000002</ele>
        <time>2013-09-04T11:19:56Z</time>
      </trkpt>
      <trkpt lat="50.564263975247741" lon="13.21999903768301">
        <ele>772.08000000000004</ele>
        <time>2013-09-04T11:19:57Z</time>
      </trkpt>
      <trkpt lat="50.565462000668049" lon="13.219017013907433">
        <ele>774.48000000000002</ele>
        <time>2013-09-04T11:20:07Z</time>
      </trkpt>
      <trkpt lat="50.565724018961191" lon="13.218795983120799">
        <ele>774.96000000000004</ele>
        <time>2013-09-04T11:20:10Z</time>
      </trkpt>
      <trkpt lat="50.565788978710771" lon="13.218762958422303">
        <ele>774.48000000000002</ele>
        <time>2013-09-04T11:20:11Z</time>
      </trkpt>
      <trkpt lat="50.565853016451001" lon="13.218761030584574">
        <ele>773.51999999999998</ele>
        <time>2013-09-04T11:20:12Z</time>
      </trkpt>
      <trkpt lat="50.565901966765523" lon="13.218794977292418">
        <ele>773.03999999999996</ele>
        <time>2013-09-04T11:20:13Z</time>
      </trkpt>
      <trkpt lat="50.565942032262683" lon="13.21886396035552">
        <ele>773.03999999999996</ele>
        <time>2013-09-04T11:20:14Z</time>
      </trkpt>
      <trkpt lat="50.565968016162515" lon="13.218966973945498">
        <ele>773.51999999999998</ele>
        <time>2013-09-04T11:20:15Z</time>
      </trkpt>
      <trkpt lat="50.565986959263682" lon="13.219081973657012">
        <ele>774</ele>
        <time>2013-09-04T11:20:16Z</time>
      </trkpt>
      <trkpt lat="50.566140012815595" lon="13.22025996632874">
        <ele>775.44000000000005</ele>
        <time>2013-09-04T11:20:23Z</time>
      </trkpt>
      <trkpt lat="50.566188041120768" lon="13.220436992123723">
        <ele>775.44000000000005</ele>
        <time>2013-09-04T11:20:24Z</time>
      </trkpt>
      <trkpt lat="50.566244032233953" lon="13.220607982948422">
        <ele>775.44000000000005</ele>
        <time>2013-09-04T11:20:25Z</time>
      </trkpt>
      <trkpt lat="50.566306980326772" lon="13.220776962116361">
        <ele>775.91999999999996</ele>
        <time>2013-09-04T11:20:26Z</time>
      </trkpt>
      <trkpt lat="50.566379986703396" lon="13.220938984304667">
        <ele>774.48000000000002</ele>
        <time>2013-09-04T11:20:27Z</time>
      </trkpt>
      <trkpt lat="50.566462967544794" lon="13.221098994836211">
        <ele>774</ele>
        <time>2013-09-04T11:20:28Z</time>
      </trkpt>
      <trkpt lat="50.567618999630213" lon="13.22313797660172">
        <ele>767.26999999999998</ele>
        <time>2013-09-04T11:20:41Z</time>
      </trkpt>
      <trkpt lat="50.568265998736024" lon="13.224486960098147">
        <ele>766.30999999999995</ele>
        <time>2013-09-04T11:20:48Z</time>
      </trkpt>
      <trkpt lat="50.56834202259779" lon="13.224742021411657">
        <ele>765.83000000000004</ele>
        <time>2013-09-04T11:20:49Z</time>
      </trkpt>
      <trkpt lat="50.568404970690608" lon="13.225012002512813">
        <ele>764.87</ele>
        <time>2013-09-04T11:20:50Z</time>
      </trkpt>
      <trkpt lat="50.568754998967052" lon="13.227207977324724">
        <ele>761.01999999999998</ele>
        <time>2013-09-04T11:20:59Z</time>
      </trkpt>
      <trkpt lat="50.568908974528313" lon="13.227886995300651">
        <ele>758.62</ele>
        <time>2013-09-04T11:21:02Z</time>
      </trkpt>
      <trkpt lat="50.569008970633149" lon="13.228079024702311">
        <ele>757.17999999999995</ele>
        <time>2013-09-04T11:21:03Z</time>
      </trkpt>
      <trkpt lat="50.569125982001424" lon="13.228254960849881">
        <ele>755.25</ele>
        <time>2013-09-04T11:21:04Z</time>
      </trkpt>
      <trkpt lat="50.570086967200041" lon="13.229809971526265">
        <ele>747.55999999999995</ele>
        <time>2013-09-04T11:21:12Z</time>
      </trkpt>
      <trkpt lat="50.571022974327207" lon="13.23170998133719">
        <ele>740.35000000000002</ele>
        <time>2013-09-04T11:21:23Z</time>
      </trkpt>
      <trkpt lat="50.572087978944182" lon="13.233262980356812">
        <ele>735.07000000000005</ele>
        <time>2013-09-04T11:21:34Z</time>
      </trkpt>
      <trkpt lat="50.573257002979517" lon="13.233713004738092">
        <ele>730.74000000000001</ele>
        <time>2013-09-04T11:21:43Z</time>
      </trkpt>
      <trkpt lat="50.574800027534366" lon="13.233591970056295">
        <ele>727.37</ele>
        <time>2013-09-04T11:21:54Z</time>
      </trkpt>
      <trkpt lat="50.57657296769321" lon="13.23297799564898">
        <ele>724.97000000000003</ele>
        <time>2013-09-04T11:22:07Z</time>
      </trkpt>
      <trkpt lat="50.578693002462387" lon="13.232263019308448">
        <ele>722.09000000000003</ele>
        <time>2013-09-04T11:22:21Z</time>
      </trkpt>
      <trkpt lat="50.578858964145184" lon="13.232291014865041">
        <ele>722.09000000000003</ele>
        <time>2013-09-04T11:22:22Z</time>
      </trkpt>
      <trkpt lat="50.579016041010618" lon="13.232342982664704">
        <ele>722.09000000000003</ele>
        <time>2013-09-04T11:22:23Z</time>
      </trkpt>
      <trkpt lat="50.579162975773215" lon="13.232416994869709">
        <ele>721.61000000000001</ele>
        <time>2013-09-04T11:22:24Z</time>
      </trkpt>
      <trkpt lat="50.579298008233309" lon="13.232521014288068">
        <ele>721.61000000000001</ele>
        <time>2013-09-04T11:22:25Z</time>
      </trkpt>
      <trkpt lat="50.579424994066358" lon="13.232645988464355">
        <ele>721.13</ele>
        <time>2013-09-04T11:22:26Z</time>
      </trkpt>
      <trkpt lat="50.57953798212111" lon="13.232786972075701">
        <ele>721.61000000000001</ele>
        <time>2013-09-04T11:22:27Z</time>
      </trkpt>
      <trkpt lat="50.579643007367849" lon="13.232931979000568">
        <ele>722.57000000000005</ele>
        <time>2013-09-04T11:22:28Z</time>
      </trkpt>
      <trkpt lat="50.581132974475622" lon="13.234999962151051">
        <ele>729.77999999999997</ele>
        <time>2013-09-04T11:22:42Z</time>
      </trkpt>
      <trkpt lat="50.582113992422819" lon="13.236196981742978">
        <ele>735.54999999999995</ele>
        <time>2013-09-04T11:22:51Z</time>
      </trkpt>
      <trkpt lat="50.583266001194715" lon="13.237138018012047">
        <ele>733.13999999999999</ele>
        <time>2013-09-04T11:23:00Z</time>
      </trkpt>
      <trkpt lat="50.584785975515842" lon="13.23828499764204">
        <ele>724.00999999999999</ele>
        <time>2013-09-04T11:23:12Z</time>
      </trkpt>
      <trkpt lat="50.584915978834033" lon="13.238346017897129">
        <ele>724.00999999999999</ele>
        <time>2013-09-04T11:23:13Z</time>
      </trkpt>
      <trkpt lat="50.585050005465746" lon="13.238388011232018">
        <ele>724.00999999999999</ele>
        <time>2013-09-04T11:23:14Z</time>
      </trkpt>
      <trkpt lat="50.585185959935188" lon="13.23841399513185">
        <ele>724.00999999999999</ele>
        <time>2013-09-04T11:23:15Z</time>
      </trkpt>
      <trkpt lat="50.585319986566901" lon="13.238420030102134">
        <ele>724.00999999999999</ele>
        <time>2013-09-04T11:23:16Z</time>
      </trkpt>
      <trkpt lat="50.585458036512136" lon="13.238420030102134">
        <ele>723.52999999999997</ele>
        <time>2013-09-04T11:23:17Z</time>
      </trkpt>
      <trkpt lat="50.585594996809959" lon="13.238405026495457">
        <ele>724.00999999999999</ele>
        <time>2013-09-04T11:23:18Z</time>
      </trkpt>
      <trkpt lat="50.585731035098433" lon="13.2383699901402">
        <ele>724.00999999999999</ele>
        <time>2013-09-04T11:23:19Z</time>
      </trkpt>
      <trkpt lat="50.586528992280364" lon="13.238226994872093">
        <ele>726.88999999999999</ele>
        <time>2013-09-04T11:23:25Z</time>
      </trkpt>
      <trkpt lat="50.586661007255316" lon="13.238260019570589">
        <ele>727.37</ele>
        <time>2013-09-04T11:23:26Z</time>
      </trkpt>
      <trkpt lat="50.586783969774842" lon="13.238309975713491">
        <ele>727.86000000000001</ele>
        <time>2013-09-04T11:23:27Z</time>
      </trkpt>
      <trkpt lat="50.586909027770162" lon="13.238388011232018">
        <ele>728.34000000000003</ele>
        <time>2013-09-04T11:23:28Z</time>
      </trkpt>
      <trkpt lat="50.587031990289688" lon="13.23847996070981">
        <ele>728.82000000000005</ele>
        <time>2013-09-04T11:23:29Z</time>
      </trkpt>
      <trkpt lat="50.587154030799866" lon="13.238576017320156">
        <ele>729.29999999999995</ele>
        <time>2013-09-04T11:23:30Z</time>
      </trkpt>
      <trkpt lat="50.588437970727682" lon="13.23985300026834">
        <ele>732.17999999999995</ele>
        <time>2013-09-04T11:23:41Z</time>
      </trkpt>
      <trkpt lat="50.590321971103549" lon="13.241715962067246">
        <ele>736.99000000000001</ele>
        <time>2013-09-04T11:23:57Z</time>
      </trkpt>
      <trkpt lat="50.591007024049759" lon="13.24241098947823">
        <ele>734.10000000000002</ele>
        <time>2013-09-04T11:24:03Z</time>
      </trkpt>
      <trkpt lat="50.591098973527551" lon="13.242571000009775">
        <ele>733.62</ele>
        <time>2013-09-04T11:24:04Z</time>
      </trkpt>
      <trkpt lat="50.592394983395934" lon="13.24500996619463">
        <ele>726.88999999999999</ele>
        <time>2013-09-04T11:24:19Z</time>
      </trkpt>
      <trkpt lat="50.59322202578187" lon="13.247001003473997">
        <ele>720.64999999999998</ele>
        <time>2013-09-04T11:24:30Z</time>
      </trkpt>
      <trkpt lat="50.594258029013872" lon="13.249078039079905">
        <ele>709.11000000000001</ele>
        <time>2013-09-04T11:24:42Z</time>
      </trkpt>
      <trkpt lat="50.594766978174448" lon="13.250182019546628">
        <ele>702.86000000000001</ele>
        <time>2013-09-04T11:24:48Z</time>
      </trkpt>
      <trkpt lat="50.594827998429537" lon="13.250391986221075">
        <ele>702.38</ele>
        <time>2013-09-04T11:24:49Z</time>
      </trkpt>
      <trkpt lat="50.594878038391471" lon="13.250608993694186">
        <ele>702.86000000000001</ele>
        <time>2013-09-04T11:24:50Z</time>
      </trkpt>
      <trkpt lat="50.595152964815497" lon="13.251995025202632">
        <ele>706.23000000000002</ele>
        <time>2013-09-04T11:24:56Z</time>
      </trkpt>
      <trkpt lat="50.595262013375759" lon="13.252156041562557">
        <ele>707.19000000000005</ele>
        <time>2013-09-04T11:24:57Z</time>
      </trkpt>
      <trkpt lat="50.595375001430511" lon="13.252294007688761">
        <ele>708.14999999999998</ele>
        <time>2013-09-04T11:24:58Z</time>
      </trkpt>
      <trkpt lat="50.59550098143518" lon="13.25240196660161">
        <ele>708.63</ele>
        <time>2013-09-04T11:24:59Z</time>
      </trkpt>
      <trkpt lat="50.595663003623486" lon="13.252431973814964">
        <ele>709.11000000000001</ele>
        <time>2013-09-04T11:25:00Z</time>
      </trkpt>
      <trkpt lat="50.595813961699605" lon="13.252428034320474">
        <ele>710.07000000000005</ele>
        <time>2013-09-04T11:25:01Z</time>
      </trkpt>
      <trkpt lat="50.595956034958363" lon="13.252390986308455">
        <ele>710.54999999999995</ele>
        <time>2013-09-04T11:25:02Z</time>
      </trkpt>
      <trkpt lat="50.596107998862863" lon="13.252304987981915">
        <ele>711.02999999999997</ele>
        <time>2013-09-04T11:25:03Z</time>
      </trkpt>
      <trkpt lat="50.596250994130969" lon="13.252198034897447">
        <ele>711.50999999999999</ele>
        <time>2013-09-04T11:25:04Z</time>
      </trkpt>
      <trkpt lat="50.596378985792398" lon="13.252073982730508">
        <ele>711.99000000000001</ele>
        <time>2013-09-04T11:25:05Z</time>
      </trkpt>
      <trkpt lat="50.596514018252492" lon="13.25192503631115">
        <ele>712.95000000000005</ele>
        <time>2013-09-04T11:25:06Z</time>
      </trkpt>
      <trkpt lat="50.596785005182028" lon="13.251695958897471">
        <ele>713.44000000000005</ele>
        <time>2013-09-04T11:25:08Z</time>
      </trkpt>
      <trkpt lat="50.596924982964993" lon="13.251644996926188">
        <ele>714.39999999999998</ele>
        <time>2013-09-04T11:25:09Z</time>
      </trkpt>
      <trkpt lat="50.597085999324918" lon="13.25160501524806">
        <ele>714.88</ele>
        <time>2013-09-04T11:25:10Z</time>
      </trkpt>
      <trkpt lat="50.597247015684843" lon="13.2515839766711">
        <ele>715.84000000000003</ele>
        <time>2013-09-04T11:25:11Z</time>
      </trkpt>
      <trkpt lat="50.597417000681162" lon="13.251567967236042">
        <ele>716.32000000000005</ele>
        <time>2013-09-04T11:25:12Z</time>
      </trkpt>
      <trkpt lat="50.597742972895503" lon="13.251649020239711">
        <ele>718.24000000000001</ele>
        <time>2013-09-04T11:25:14Z</time>
      </trkpt>
      <trkpt lat="50.597890997305512" lon="13.251715991646051">
        <ele>719.20000000000005</ele>
        <time>2013-09-04T11:25:15Z</time>
      </trkpt>
      <trkpt lat="50.598042039200664" lon="13.251804001629353">
        <ele>720.15999999999997</ele>
        <time>2013-09-04T11:25:16Z</time>
      </trkpt>
      <trkpt lat="50.598172964528203" lon="13.251915983855724">
        <ele>721.13</ele>
        <time>2013-09-04T11:25:17Z</time>
      </trkpt>
      <trkpt lat="50.598282013088465" lon="13.252069959416986">
        <ele>721.61000000000001</ele>
        <time>2013-09-04T11:25:18Z</time>
      </trkpt>
      <trkpt lat="50.598338004201651" lon="13.25226902961731">
        <ele>722.57000000000005</ele>
        <time>2013-09-04T11:25:19Z</time>
      </trkpt>
      <trkpt lat="50.598375974223018" lon="13.252462986856699">
        <ele>723.52999999999997</ele>
        <time>2013-09-04T11:25:20Z</time>
      </trkpt>
      <trkpt lat="50.598401958122849" lon="13.252645041793585">
        <ele>724.00999999999999</ele>
        <time>2013-09-04T11:25:21Z</time>
      </trkpt>
      <trkpt lat="50.598371028900146" lon="13.252852996811271">
        <ele>724.49000000000001</ele>
        <time>2013-09-04T11:25:22Z</time>
      </trkpt>
      <trkpt lat="50.598300034180284" lon="13.253119038417935">
        <ele>725.45000000000005</ele>
        <time>2013-09-04T11:25:23Z</time>
      </trkpt>
      <trkpt lat="50.598223004490137" lon="13.253412991762161">
        <ele>725.92999999999995</ele>
        <time>2013-09-04T11:25:24Z</time>
      </trkpt>
      <trkpt lat="50.597895020619035" lon="13.255462031811476">
        <ele>731.22000000000003</ele>
        <time>2013-09-04T11:25:31Z</time>
      </trkpt>
      <trkpt lat="50.597697962075472" lon="13.257957994937897">
        <ele>736.99000000000001</ele>
        <time>2013-09-04T11:25:38Z</time>
      </trkpt>
      <trkpt lat="50.597634008154273" lon="13.260801974684">
        <ele>744.67999999999995</ele>
        <time>2013-09-04T11:25:46Z</time>
      </trkpt>
      <trkpt lat="50.597680024802685" lon="13.261858010664582">
        <ele>747.08000000000004</ele>
        <time>2013-09-04T11:25:49Z</time>
      </trkpt>
      <trkpt lat="50.598167013376951" lon="13.264543991535902">
        <ele>748.03999999999996</ele>
        <time>2013-09-04T11:25:57Z</time>
      </trkpt>
      <trkpt lat="50.598477981984615" lon="13.26632397249341">
        <ele>748.51999999999998</ele>
        <time>2013-09-04T11:26:02Z</time>
      </trkpt>
      <trkpt lat="50.59928297996521" lon="13.270445019006729">
        <ele>751.88999999999999</ele>
        <time>2013-09-04T11:26:14Z</time>
      </trkpt>
      <trkpt lat="50.59977700933814" lon="13.273152038455009">
        <ele>752.85000000000002</ele>
        <time>2013-09-04T11:26:22Z</time>
      </trkpt>
      <trkpt lat="50.59979603625834" lon="13.273443980142474">
        <ele>752.85000000000002</ele>
        <time>2013-09-04T11:26:23Z</time>
      </trkpt>
      <trkpt lat="50.599793018773198" lon="13.273742040619254">
        <ele>753.33000000000004</ele>
        <time>2013-09-04T11:26:24Z</time>
      </trkpt>
      <trkpt lat="50.599771980196238" lon="13.274032976478338">
        <ele>753.80999999999995</ele>
        <time>2013-09-04T11:26:25Z</time>
      </trkpt>
      <trkpt lat="50.599719006568193" lon="13.274333970621228">
        <ele>753.80999999999995</ele>
        <time>2013-09-04T11:26:26Z</time>
      </trkpt>
      <trkpt lat="50.599643988534808" lon="13.274625996127725">
        <ele>754.28999999999996</ele>
        <time>2013-09-04T11:26:27Z</time>
      </trkpt>
      <trkpt lat="50.599566036835313" lon="13.274932019412518">
        <ele>754.76999999999998</ele>
        <time>2013-09-04T11:26:28Z</time>
      </trkpt>
      <trkpt lat="50.598697001114488" lon="13.278275979682803">
        <ele>753.33000000000004</ele>
        <time>2013-09-04T11:26:38Z</time>
      </trkpt>
      <trkpt lat="50.598085038363934" lon="13.281059022992849">
        <ele>749.49000000000001</ele>
        <time>2013-09-04T11:26:46Z</time>
      </trkpt>
      <trkpt lat="50.597070995718241" lon="13.28385598026216">
        <ele>746.12</ele>
        <time>2013-09-04T11:26:55Z</time>
      </trkpt>
      <trkpt lat="50.596215035766363" lon="13.286296036094427">
        <ele>731.70000000000005</ele>
        <time>2013-09-04T11:27:04Z</time>
      </trkpt>
      <trkpt lat="50.596030969172716" lon="13.288385979831219">
        <ele>717.27999999999997</ele>
        <time>2013-09-04T11:27:11Z</time>
      </trkpt>
      <trkpt lat="50.596121996641159" lon="13.292880021035671">
        <ele>695.64999999999998</ele>
        <time>2013-09-04T11:27:26Z</time>
      </trkpt>
      <trkpt lat="50.596822975203395" lon="13.296842984855175">
        <ele>684.12</ele>
        <time>2013-09-04T11:27:40Z</time>
      </trkpt>
      <trkpt lat="50.597220025956631" lon="13.298982968553901">
        <ele>678.35000000000002</ele>
        <time>2013-09-04T11:27:49Z</time>
      </trkpt>
      <trkpt lat="50.597923016175628" lon="13.30254795961082">
        <ele>671.62</ele>
        <time>2013-09-04T11:28:06Z</time>
      </trkpt>
      <trkpt lat="50.598511006683111" lon="13.304538996890187">
        <ele>667.76999999999998</ele>
        <time>2013-09-04T11:28:16Z</time>
      </trkpt>
      <trkpt lat="50.599274011328816" lon="13.306922977790236">
        <ele>663.92999999999995</ele>
        <time>2013-09-04T11:28:28Z</time>
      </trkpt>
      <trkpt lat="50.599452964961529" lon="13.309087017551064">
        <ele>660.08000000000004</ele>
        <time>2013-09-04T11:28:38Z</time>
      </trkpt>
      <trkpt lat="50.599394040182233" lon="13.309497982263565">
        <ele>659.12</ele>
        <time>2013-09-04T11:28:40Z</time>
      </trkpt>
      <trkpt lat="50.598963964730501" lon="13.312026970088482">
        <ele>651.90999999999997</ele>
        <time>2013-09-04T11:28:52Z</time>
      </trkpt>
      <trkpt lat="50.598894981667399" lon="13.312447993084788">
        <ele>651.42999999999995</ele>
        <time>2013-09-04T11:28:54Z</time>
      </trkpt>
      <trkpt lat="50.598877966403961" lon="13.31266600638628">
        <ele>651.42999999999995</ele>
        <time>2013-09-04T11:28:55Z</time>
      </trkpt>
      <trkpt lat="50.598877966403961" lon="13.312888965010643">
        <ele>650.95000000000005</ele>
        <time>2013-09-04T11:28:56Z</time>
      </trkpt>
      <trkpt lat="50.598881989717484" lon="13.313117036595941">
        <ele>651.42999999999995</ele>
        <time>2013-09-04T11:28:57Z</time>
      </trkpt>
      <trkpt lat="50.598894981667399" lon="13.313339995220304">
        <ele>651.90999999999997</ele>
        <time>2013-09-04T11:28:58Z</time>
      </trkpt>
      <trkpt lat="50.598975028842688" lon="13.31485996954143">
        <ele>651.42999999999995</ele>
        <time>2013-09-04T11:29:05Z</time>
      </trkpt>
      <trkpt lat="50.598900010809302" lon="13.315737973898649">
        <ele>650.47000000000003</ele>
        <time>2013-09-04T11:29:09Z</time>
      </trkpt>
      <trkpt lat="50.598911996930838" lon="13.315969984978437">
        <ele>649.99000000000001</ele>
        <time>2013-09-04T11:29:10Z</time>
      </trkpt>
      <trkpt lat="50.598943009972572" lon="13.316196966916323">
        <ele>649.50999999999999</ele>
        <time>2013-09-04T11:29:11Z</time>
      </trkpt>
      <trkpt lat="50.598996989428997" lon="13.316428977996111">
        <ele>648.54999999999995</ele>
        <time>2013-09-04T11:29:12Z</time>
      </trkpt>
      <trkpt lat="50.599058009684086" lon="13.316666018217802">
        <ele>647.59000000000003</ele>
        <time>2013-09-04T11:29:13Z</time>
      </trkpt>
      <trkpt lat="50.599623033776879" lon="13.318823017179966">
        <ele>640.86000000000001</ele>
        <time>2013-09-04T11:29:21Z</time>
      </trkpt>
      <trkpt lat="50.599893014878035" lon="13.319770004600286">
        <ele>638.45000000000005</ele>
        <time>2013-09-04T11:29:25Z</time>
      </trkpt>
      <trkpt lat="50.599983958527446" lon="13.319952981546521">
        <ele>638.45000000000005</ele>
        <time>2013-09-04T11:29:26Z</time>
      </trkpt>
      <trkpt lat="50.60009803622961" lon="13.320097988471389">
        <ele>638.45000000000005</ele>
        <time>2013-09-04T11:29:27Z</time>
      </trkpt>
      <trkpt lat="50.60022896155715" lon="13.320204019546509">
        <ele>638.45000000000005</ele>
        <time>2013-09-04T11:29:28Z</time>
      </trkpt>
      <trkpt lat="50.600382015109062" lon="13.320276020094752">
        <ele>638.45000000000005</ele>
        <time>2013-09-04T11:29:29Z</time>
      </trkpt>
      <trkpt lat="50.600544037297368" lon="13.3203149959445">
        <ele>637.97000000000003</ele>
        <time>2013-09-04T11:29:30Z</time>
      </trkpt>
      <trkpt lat="50.600705975666642" lon="13.320322958752513">
        <ele>637.49000000000001</ele>
        <time>2013-09-04T11:29:31Z</time>
      </trkpt>
      <trkpt lat="50.600867997854948" lon="13.320276020094752">
        <ele>637.49000000000001</ele>
        <time>2013-09-04T11:29:32Z</time>
      </trkpt>
      <trkpt lat="50.601021973416209" lon="13.320193039253354">
        <ele>636.52999999999997</ele>
        <time>2013-09-04T11:29:33Z</time>
      </trkpt>
      <trkpt lat="50.601160023361444" lon="13.320062030106783">
        <ele>636.52999999999997</ele>
        <time>2013-09-04T11:29:34Z</time>
      </trkpt>
      <trkpt lat="50.601295977830887" lon="13.319902019575238">
        <ele>636.04999999999995</ele>
        <time>2013-09-04T11:29:35Z</time>
      </trkpt>
      <trkpt lat="50.601700991392136" lon="13.319407990202308">
        <ele>633.16999999999996</ele>
        <time>2013-09-04T11:29:38Z</time>
      </trkpt>
      <trkpt lat="50.60198999941349" lon="13.319148989394307">
        <ele>632.20000000000005</ele>
        <time>2013-09-04T11:29:40Z</time>
      </trkpt>
      <trkpt lat="50.602140035480261" lon="13.319077994674444">
        <ele>632.20000000000005</ele>
        <time>2013-09-04T11:29:41Z</time>
      </trkpt>
      <trkpt lat="50.602269032970071" lon="13.319134991616011">
        <ele>631.24000000000001</ele>
        <time>2013-09-04T11:29:42Z</time>
      </trkpt>
      <trkpt lat="50.602391995489597" lon="13.319211015477777">
        <ele>631.24000000000001</ele>
        <time>2013-09-04T11:29:43Z</time>
      </trkpt>
      <trkpt lat="50.602488974109292" lon="13.319325009360909">
        <ele>630.27999999999997</ele>
        <time>2013-09-04T11:29:44Z</time>
      </trkpt>
      <trkpt lat="50.602528033778071" lon="13.319505974650383">
        <ele>630.75999999999999</ele>
        <time>2013-09-04T11:29:45Z</time>
      </trkpt>
      <trkpt lat="50.602586036548018" lon="13.319677971303463">
        <ele>630.27999999999997</ele>
        <time>2013-09-04T11:29:46Z</time>
      </trkpt>
      <trkpt lat="50.602645967155695" lon="13.319868994876742">
        <ele>630.27999999999997</ele>
        <time>2013-09-04T11:29:47Z</time>
      </trkpt>
      <trkpt lat="50.602687960490584" lon="13.320088014006615">
        <ele>630.27999999999997</ele>
        <time>2013-09-04T11:29:48Z</time>
      </trkpt>
      <trkpt lat="50.602725008502603" lon="13.320323964580894">
        <ele>630.75999999999999</ele>
        <time>2013-09-04T11:29:49Z</time>
      </trkpt>
      <trkpt lat="50.602843025699258" lon="13.32104698754847">
        <ele>630.75999999999999</ele>
        <time>2013-09-04T11:29:52Z</time>
      </trkpt>
      <trkpt lat="50.602921983227134" lon="13.321275981143117">
        <ele>631.24000000000001</ele>
        <time>2013-09-04T11:29:53Z</time>
      </trkpt>
      <trkpt lat="50.603012004867196" lon="13.321526013314724">
        <ele>631.24000000000001</ele>
        <time>2013-09-04T11:29:54Z</time>
      </trkpt>
      <trkpt lat="50.603971984237432" lon="13.323757024481893">
        <ele>628.36000000000001</ele>
        <time>2013-09-04T11:30:03Z</time>
      </trkpt>
      <trkpt lat="50.604403987526894" lon="13.324679033830762">
        <ele>626.91999999999996</ele>
        <time>2013-09-04T11:30:07Z</time>
      </trkpt>
      <trkpt lat="50.604543965309858" lon="13.324881037697196">
        <ele>626.91999999999996</ele>
        <time>2013-09-04T11:30:08Z</time>
      </trkpt>
      <trkpt lat="50.604700036346912" lon="13.325060997158289">
        <ele>626.91999999999996</ele>
        <time>2013-09-04T11:30:09Z</time>
      </trkpt>
      <trkpt lat="50.60486800968647" lon="13.32521396689117">
        <ele>626.91999999999996</ele>
        <time>2013-09-04T11:30:10Z</time>
      </trkpt>
      <trkpt lat="50.605033971369267" lon="13.325351011008024">
        <ele>626.91999999999996</ele>
        <time>2013-09-04T11:30:11Z</time>
      </trkpt>
      <trkpt lat="50.605208985507488" lon="13.325444972142577">
        <ele>626.44000000000005</ele>
        <time>2013-09-04T11:30:12Z</time>
      </trkpt>
      <trkpt lat="50.605379976332188" lon="13.325511021539569">
        <ele>626.91999999999996</ele>
        <time>2013-09-04T11:30:13Z</time>
      </trkpt>
      <trkpt lat="50.605545016005635" lon="13.325543962419033">
        <ele>626.91999999999996</ele>
        <time>2013-09-04T11:30:14Z</time>
      </trkpt>
      <trkpt lat="50.60570502653718" lon="13.325530970469117">
        <ele>626.91999999999996</ele>
        <time>2013-09-04T11:30:15Z</time>
      </trkpt>
      <trkpt lat="50.605860007926822" lon="13.325460981577635">
        <ele>626.44000000000005</ele>
        <time>2013-09-04T11:30:16Z</time>
      </trkpt>
      <trkpt lat="50.606010966002941" lon="13.325332989916205">
        <ele>626.44000000000005</ele>
        <time>2013-09-04T11:30:17Z</time>
      </trkpt>
      <trkpt lat="50.606147004291415" lon="13.325164010748267">
        <ele>626.91999999999996</ele>
        <time>2013-09-04T11:30:18Z</time>
      </trkpt>
      <trkpt lat="50.606270972639322" lon="13.324968963861465">
        <ele>627.39999999999998</ele>
        <time>2013-09-04T11:30:19Z</time>
      </trkpt>
      <trkpt lat="50.60639401897788" lon="13.32476201467216">
        <ele>627.39999999999998</ele>
        <time>2013-09-04T11:30:20Z</time>
      </trkpt>
      <trkpt lat="50.607148976996541" lon="13.323572035878897">
        <ele>628.36000000000001</ele>
        <time>2013-09-04T11:30:26Z</time>
      </trkpt>
      <trkpt lat="50.607286021113396" lon="13.323463993147016">
        <ele>628.36000000000001</ele>
        <time>2013-09-04T11:30:27Z</time>
      </trkpt>
      <trkpt lat="50.607434967532754" lon="13.323405990377069">
        <ele>628.36000000000001</ele>
        <time>2013-09-04T11:30:28Z</time>
      </trkpt>
      <trkpt lat="50.607591038569808" lon="13.323396015912294">
        <ele>627.88</ele>
        <time>2013-09-04T11:30:29Z</time>
      </trkpt>
      <trkpt lat="50.607740990817547" lon="13.323420993983746">
        <ele>626.91999999999996</ele>
        <time>2013-09-04T11:30:30Z</time>
      </trkpt>
      <trkpt lat="50.607921034097672" lon="13.323433985933661">
        <ele>626.91999999999996</ele>
        <time>2013-09-04T11:30:31Z</time>
      </trkpt>
      <trkpt lat="50.60809101909399" lon="13.323472961783409">
        <ele>626.44000000000005</ele>
        <time>2013-09-04T11:30:32Z</time>
      </trkpt>
      <trkpt lat="50.608250023797154" lon="13.323543034493923">
        <ele>625.96000000000004</ele>
        <time>2013-09-04T11:30:33Z</time>
      </trkpt>
      <trkpt lat="50.608382960781455" lon="13.323658034205437">
        <ele>625.47000000000003</ele>
        <time>2013-09-04T11:30:34Z</time>
      </trkpt>
      <trkpt lat="50.608517993241549" lon="13.323779990896583">
        <ele>624.99000000000001</ele>
        <time>2013-09-04T11:30:35Z</time>
      </trkpt>
      <trkpt lat="50.608866009861231" lon="13.324174024164677">
        <ele>623.54999999999995</ele>
        <time>2013-09-04T11:30:38Z</time>
      </trkpt>
      <trkpt lat="50.609002970159054" lon="13.324450962245464">
        <ele>622.59000000000003</ele>
        <time>2013-09-04T11:30:40Z</time>
      </trkpt>
      <trkpt lat="50.609001964330673" lon="13.324651960283518">
        <ele>622.59000000000003</ele>
        <time>2013-09-04T11:30:41Z</time>
      </trkpt>
      <trkpt lat="50.608967011794448" lon="13.324856981635094">
        <ele>621.63</ele>
        <time>2013-09-04T11:30:42Z</time>
      </trkpt>
      <trkpt lat="50.608948990702629" lon="13.325086981058121">
        <ele>621.63</ele>
        <time>2013-09-04T11:30:43Z</time>
      </trkpt>
      <trkpt lat="50.608911020681262" lon="13.325359979644418">
        <ele>621.63</ele>
        <time>2013-09-04T11:30:44Z</time>
      </trkpt>
      <trkpt lat="50.608459990471601" lon="13.32800698466599">
        <ele>613.94000000000005</ele>
        <time>2013-09-04T11:30:53Z</time>
      </trkpt>
      <trkpt lat="50.608074003830552" lon="13.330128025263548">
        <ele>605.76999999999998</ele>
        <time>2013-09-04T11:31:01Z</time>
      </trkpt>
      <trkpt lat="50.608067968860269" lon="13.330399012193084">
        <ele>604.80999999999995</ele>
        <time>2013-09-04T11:31:02Z</time>
      </trkpt>
      <trkpt lat="50.608008038252592" lon="13.331751013174653">
        <ele>600.48000000000002</ele>
        <time>2013-09-04T11:31:07Z</time>
      </trkpt>
      <trkpt lat="50.607887003570795" lon="13.332241019234061">
        <ele>599.03999999999996</ele>
        <time>2013-09-04T11:31:09Z</time>
      </trkpt>
      <trkpt lat="50.607515014708042" lon="13.333621015772223">
        <ele>595.66999999999996</ele>
        <time>2013-09-04T11:31:15Z</time>
      </trkpt>
      <trkpt lat="50.607476038858294" lon="13.333970038220286">
        <ele>597.12</ele>
        <time>2013-09-04T11:31:17Z</time>
      </trkpt>
      <trkpt lat="50.607503028586507" lon="13.334099035710096">
        <ele>598.55999999999995</ele>
        <time>2013-09-04T11:31:18Z</time>
      </trkpt>
      <trkpt lat="50.607566982507706" lon="13.334202971309423">
        <ele>598.55999999999995</ele>
        <time>2013-09-04T11:31:19Z</time>
      </trkpt>
      <trkpt lat="50.607644012197852" lon="13.334313025698066">
        <ele>599.51999999999998</ele>
        <time>2013-09-04T11:31:20Z</time>
      </trkpt>
      <trkpt lat="50.60772699303925" lon="13.33438997156918">
        <ele>600.48000000000002</ele>
        <time>2013-09-04T11:31:21Z</time>
      </trkpt>
      <trkpt lat="50.607883986085653" lon="13.334415033459663">
        <ele>601.44000000000005</ele>
        <time>2013-09-04T11:31:22Z</time>
      </trkpt>
      <trkpt lat="50.608031004667282" lon="13.334487034007907">
        <ele>601.44000000000005</ele>
        <time>2013-09-04T11:31:23Z</time>
      </trkpt>
      <trkpt lat="50.60819998383522" lon="13.334531038999557">
        <ele>601.91999999999996</ele>
        <time>2013-09-04T11:31:24Z</time>
      </trkpt>
      <trkpt lat="50.608380027115345" lon="13.334572026506066">
        <ele>601.91999999999996</ele>
        <time>2013-09-04T11:31:25Z</time>
      </trkpt>
      <trkpt lat="50.608559986576438" lon="13.334626005962491">
        <ele>601.91999999999996</ele>
        <time>2013-09-04T11:31:26Z</time>
      </trkpt>
      <trkpt lat="50.609945012256503" lon="13.335273005068302">
        <ele>601.44000000000005</ele>
        <time>2013-09-04T11:31:34Z</time>
      </trkpt>
      <trkpt lat="50.61019797809422" lon="13.335577016696334">
        <ele>600.48000000000002</ele>
        <time>2013-09-04T11:31:36Z</time>
      </trkpt>
      <trkpt lat="50.610309038311243" lon="13.335769968107343">
        <ele>600.48000000000002</ele>
        <time>2013-09-04T11:31:37Z</time>
      </trkpt>
      <trkpt lat="50.61036896891892" lon="13.335972977802157">
        <ele>598.55999999999995</ele>
        <time>2013-09-04T11:31:38Z</time>
      </trkpt>
      <trkpt lat="50.610763002187014" lon="13.337130015715957">
        <ele>597.12</ele>
        <time>2013-09-04T11:31:43Z</time>
      </trkpt>
      <trkpt lat="50.610832991078496" lon="13.337526982650161">
        <ele>596.63999999999999</ele>
        <time>2013-09-04T11:31:45Z</time>
      </trkpt>
      <trkpt lat="50.61086199246347" lon="13.337700990960002">
        <ele>596.63999999999999</ele>
        <time>2013-09-04T11:31:46Z</time>
      </trkpt>
      <trkpt lat="50.610918989405036" lon="13.337844992056489">
        <ele>596.63999999999999</ele>
        <time>2013-09-04T11:31:47Z</time>
      </trkpt>
      <trkpt lat="50.610987972468138" lon="13.33795202895999">
        <ele>597.12</ele>
        <time>2013-09-04T11:31:48Z</time>
      </trkpt>
      <trkpt lat="50.611063996329904" lon="13.338011959567666">
        <ele>597.12</ele>
        <time>2013-09-04T11:31:49Z</time>
      </trkpt>
      <trkpt lat="50.611177990213037" lon="13.338007014244795">
        <ele>597.12</ele>
        <time>2013-09-04T11:31:50Z</time>
      </trkpt>
      <trkpt lat="50.611301958560944" lon="13.337966026738286">
        <ele>596.63999999999999</ele>
        <time>2013-09-04T11:31:51Z</time>
      </trkpt>
      <trkpt lat="50.611391980201006" lon="13.337897965684533">
        <ele>596.14999999999998</ele>
        <time>2013-09-04T11:31:52Z</time>
      </trkpt>
      <trkpt lat="50.611533969640732" lon="13.337732004001737">
        <ele>597.12</ele>
        <time>2013-09-04T11:31:53Z</time>
      </trkpt>
      <trkpt lat="50.611642012372613" lon="13.337563024833798">
        <ele>596.14999999999998</ele>
        <time>2013-09-04T11:31:54Z</time>
      </trkpt>
      <trkpt lat="50.612017018720508" lon="13.337321961298585">
        <ele>594.71000000000004</ele>
        <time>2013-09-04T11:31:57Z</time>
      </trkpt>
      <trkpt lat="50.612202007323503" lon="13.337282985448837">
        <ele>593.75</ele>
        <time>2013-09-04T11:31:58Z</time>
      </trkpt>
      <trkpt lat="50.612349025905132" lon="13.337334031239152">
        <ele>593.26999999999998</ele>
        <time>2013-09-04T11:31:59Z</time>
      </trkpt>
      <trkpt lat="50.612711040303111" lon="13.337520025670528">
        <ele>590.38999999999999</ele>
        <time>2013-09-04T11:32:02Z</time>
      </trkpt>
      <trkpt lat="50.612799972295761" lon="13.337636031210423">
        <ele>589.90999999999997</ele>
        <time>2013-09-04T11:32:03Z</time>
      </trkpt>
      <trkpt lat="50.612869039177895" lon="13.33778003230691">
        <ele>588.95000000000005</ele>
        <time>2013-09-04T11:32:04Z</time>
      </trkpt>
      <trkpt lat="50.612921006977558" lon="13.337943982332945">
        <ele>588.46000000000004</ele>
        <time>2013-09-04T11:32:05Z</time>
      </trkpt>
      <trkpt lat="50.612949002534151" lon="13.338144980370998">
        <ele>588.46000000000004</ele>
        <time>2013-09-04T11:32:06Z</time>
      </trkpt>
      <trkpt lat="50.612973980605602" lon="13.338375985622406">
        <ele>587.98000000000002</ele>
        <time>2013-09-04T11:32:07Z</time>
      </trkpt>
      <trkpt lat="50.612994013354182" lon="13.338618976995349">
        <ele>587.5</ele>
        <time>2013-09-04T11:32:08Z</time>
      </trkpt>
      <trkpt lat="50.613087974488735" lon="13.34020902402699">
        <ele>584.13999999999999</ele>
        <time>2013-09-04T11:32:14Z</time>
      </trkpt>
      <trkpt lat="50.613065008074045" lon="13.3404899854213">
        <ele>584.13999999999999</ele>
        <time>2013-09-04T11:32:15Z</time>
      </trkpt>
      <trkpt lat="50.612902985885739" lon="13.341881968080997">
        <ele>583.17999999999995</ele>
        <time>2013-09-04T11:32:20Z</time>
      </trkpt>
      <trkpt lat="50.612899968400598" lon="13.342168964445591">
        <ele>583.65999999999997</ele>
        <time>2013-09-04T11:32:21Z</time>
      </trkpt>
      <trkpt lat="50.612952020019293" lon="13.343985993415117">
        <ele>587.01999999999998</ele>
        <time>2013-09-04T11:32:28Z</time>
      </trkpt>
      <trkpt lat="50.612996025010943" lon="13.344207024201751">
        <ele>585.58000000000004</ele>
        <time>2013-09-04T11:32:29Z</time>
      </trkpt>
      <trkpt lat="50.613089986145496" lon="13.344329986721277">
        <ele>583.17999999999995</ele>
        <time>2013-09-04T11:32:30Z</time>
      </trkpt>
      <trkpt lat="50.613186964765191" lon="13.344468958675861">
        <ele>582.70000000000005</ele>
        <time>2013-09-04T11:32:31Z</time>
      </trkpt>
      <trkpt lat="50.613289978355169" lon="13.344598039984703">
        <ele>582.70000000000005</ele>
        <time>2013-09-04T11:32:32Z</time>
      </trkpt>
      <trkpt lat="50.613783001899719" lon="13.345315027981997">
        <ele>582.22000000000003</ele>
        <time>2013-09-04T11:32:37Z</time>
      </trkpt>
      <trkpt lat="50.613833963871002" lon="13.345478978008032">
        <ele>582.70000000000005</ele>
        <time>2013-09-04T11:32:38Z</time>
      </trkpt>
      <trkpt lat="50.61384703963995" lon="13.345661032944918">
        <ele>583.17999999999995</ele>
        <time>2013-09-04T11:32:39Z</time>
      </trkpt>
      <trkpt lat="50.613844022154808" lon="13.345850966870785">
        <ele>583.65999999999997</ele>
        <time>2013-09-04T11:32:40Z</time>
      </trkpt>
      <trkpt lat="50.613821977749467" lon="13.346067974343896">
        <ele>584.13999999999999</ele>
        <time>2013-09-04T11:32:41Z</time>
      </trkpt>
      <trkpt lat="50.613817032426596" lon="13.346289005130529">
        <ele>584.62</ele>
        <time>2013-09-04T11:32:42Z</time>
      </trkpt>
      <trkpt lat="50.613833041861653" lon="13.346540965139866">
        <ele>582.70000000000005</ele>
        <time>2013-09-04T11:32:43Z</time>
      </trkpt>
      <trkpt lat="50.613864976912737" lon="13.346764007583261">
        <ele>582.22000000000003</ele>
        <time>2013-09-04T11:32:44Z</time>
      </trkpt>
      <trkpt lat="50.613905964419246" lon="13.346993001177907">
        <ele>581.73000000000002</ele>
        <time>2013-09-04T11:32:45Z</time>
      </trkpt>
      <trkpt lat="50.613996991887689" lon="13.347212020307779">
        <ele>580.76999999999998</ele>
        <time>2013-09-04T11:32:46Z</time>
      </trkpt>
      <trkpt lat="50.614103022962809" lon="13.347397008910775">
        <ele>579.33000000000004</ele>
        <time>2013-09-04T11:32:47Z</time>
      </trkpt>
      <trkpt lat="50.614210981875658" lon="13.34757998585701">
        <ele>577.88999999999999</ele>
        <time>2013-09-04T11:32:48Z</time>
      </trkpt>
      <trkpt lat="50.614486997947097" lon="13.348149033263326">
        <ele>573.08000000000004</ele>
        <time>2013-09-04T11:32:51Z</time>
      </trkpt>
      <trkpt lat="50.614552041515708" lon="13.348347013816237">
        <ele>572.12</ele>
        <time>2013-09-04T11:32:52Z</time>
      </trkpt>
      <trkpt lat="50.614595040678978" lon="13.348554968833923">
        <ele>571.15999999999997</ele>
        <time>2013-09-04T11:32:53Z</time>
      </trkpt>
      <trkpt lat="50.614623036235571" lon="13.348766025155783">
        <ele>570.67999999999995</ele>
        <time>2013-09-04T11:32:54Z</time>
      </trkpt>
      <trkpt lat="50.614634016528726" lon="13.348971968516707">
        <ele>569.72000000000003</ele>
        <time>2013-09-04T11:32:55Z</time>
      </trkpt>
      <trkpt lat="50.614618007093668" lon="13.349163997918367">
        <ele>569.24000000000001</ele>
        <time>2013-09-04T11:32:56Z</time>
      </trkpt>
      <trkpt lat="50.614566039294004" lon="13.349344963207841">
        <ele>568.75999999999999</ele>
        <time>2013-09-04T11:32:57Z</time>
      </trkpt>
      <trkpt lat="50.614504013210535" lon="13.349527018144727">
        <ele>568.27999999999997</ele>
        <time>2013-09-04T11:32:58Z</time>
      </trkpt>
      <trkpt lat="50.61406496912241" lon="13.350526979193091">
        <ele>565.87</ele>
        <time>2013-09-04T11:33:04Z</time>
      </trkpt>
      <trkpt lat="50.614011995494366" lon="13.350685983896255">
        <ele>565.38999999999999</ele>
        <time>2013-09-04T11:33:05Z</time>
      </trkpt>
      <trkpt lat="50.613991962745786" lon="13.350848006084561">
        <ele>565.38999999999999</ele>
        <time>2013-09-04T11:33:06Z</time>
      </trkpt>
      <trkpt lat="50.613995986059308" lon="13.351024026051164">
        <ele>564.90999999999997</ele>
        <time>2013-09-04T11:33:07Z</time>
      </trkpt>
      <trkpt lat="50.614039991050959" lon="13.351183030754328">
        <ele>565.38999999999999</ele>
        <time>2013-09-04T11:33:08Z</time>
      </trkpt>
      <trkpt lat="50.614091036841273" lon="13.351343041285872">
        <ele>564.42999999999995</ele>
        <time>2013-09-04T11:33:09Z</time>
      </trkpt>
      <trkpt lat="50.614239983260632" lon="13.351672030985355">
        <ele>563.47000000000003</ele>
        <time>2013-09-04T11:33:11Z</time>
      </trkpt>
      <trkpt lat="50.614360012114048" lon="13.351808991283178">
        <ele>562.50999999999999</ele>
        <time>2013-09-04T11:33:12Z</time>
      </trkpt>
      <trkpt lat="50.614691013470292" lon="13.352076960727572">
        <ele>561.54999999999995</ele>
        <time>2013-09-04T11:33:14Z</time>
      </trkpt>
      <trkpt lat="50.615500034764409" lon="13.352835020050406">
        <ele>557.70000000000005</ele>
        <time>2013-09-04T11:33:19Z</time>
      </trkpt>
      <trkpt lat="50.615699021145701" lon="13.35320801474154">
        <ele>557.22000000000003</ele>
        <time>2013-09-04T11:33:21Z</time>
      </trkpt>
      <trkpt lat="50.615860959514976" lon="13.353648986667395">
        <ele>556.25999999999999</ele>
        <time>2013-09-04T11:33:23Z</time>
      </trkpt>
      <trkpt lat="50.616291034966707" lon="13.355746977031231">
        <ele>554.82000000000005</ele>
        <time>2013-09-04T11:33:32Z</time>
      </trkpt>
      <trkpt lat="50.616301009431481" lon="13.355964990332723">
        <ele>554.82000000000005</ele>
        <time>2013-09-04T11:33:33Z</time>
      </trkpt>
      <trkpt lat="50.616287011653185" lon="13.35619498975575">
        <ele>554.82000000000005</ele>
        <time>2013-09-04T11:33:34Z</time>
      </trkpt>
      <trkpt lat="50.616252981126308" lon="13.356422977522016">
        <ele>554.82000000000005</ele>
        <time>2013-09-04T11:33:35Z</time>
      </trkpt>
      <trkpt lat="50.616207970306277" lon="13.35664501413703">
        <ele>555.29999999999995</ele>
        <time>2013-09-04T11:33:36Z</time>
      </trkpt>
      <trkpt lat="50.616151979193091" lon="13.356851963326335">
        <ele>555.29999999999995</ele>
        <time>2013-09-04T11:33:37Z</time>
      </trkpt>
      <trkpt lat="50.616117026656866" lon="13.357052961364388">
        <ele>554.82000000000005</ele>
        <time>2013-09-04T11:33:38Z</time>
      </trkpt>
      <trkpt lat="50.616080984473228" lon="13.357513966038823">
        <ele>555.29999999999995</ele>
        <time>2013-09-04T11:33:40Z</time>
      </trkpt>
      <trkpt lat="50.616101017221808" lon="13.357731979340315">
        <ele>554.34000000000003</ele>
        <time>2013-09-04T11:33:41Z</time>
      </trkpt>
      <trkpt lat="50.616153990849853" lon="13.357931971549988">
        <ele>553.86000000000001</ele>
        <time>2013-09-04T11:33:42Z</time>
      </trkpt>
      <trkpt lat="50.616222973912954" lon="13.358116038143635">
        <ele>553.38</ele>
        <time>2013-09-04T11:33:43Z</time>
      </trkpt>
      <trkpt lat="50.616309978067875" lon="13.358277976512909">
        <ele>552.40999999999997</ele>
        <time>2013-09-04T11:33:44Z</time>
      </trkpt>
      <trkpt lat="50.616412991657853" lon="13.358416026458144">
        <ele>551.45000000000005</ele>
        <time>2013-09-04T11:33:45Z</time>
      </trkpt>
      <trkpt lat="50.616548024117947" lon="13.358504958450794">
        <ele>550.97000000000003</ele>
        <time>2013-09-04T11:33:46Z</time>
      </trkpt>
      <trkpt lat="50.616690013557673" lon="13.358599003404379">
        <ele>550.49000000000001</ele>
        <time>2013-09-04T11:33:47Z</time>
      </trkpt>
      <trkpt lat="50.618078978732228" lon="13.359329989179969">
        <ele>546.16999999999996</ele>
        <time>2013-09-04T11:33:56Z</time>
      </trkpt>
      <trkpt lat="50.619321009144187" lon="13.359811026602983">
        <ele>542.32000000000005</ele>
        <time>2013-09-04T11:34:04Z</time>
      </trkpt>
      <trkpt lat="50.61952200718224" lon="13.359938012436032">
        <ele>539.91999999999996</ele>
        <time>2013-09-04T11:34:06Z</time>
      </trkpt>
      <trkpt lat="50.619589984416962" lon="13.360060974955559">
        <ele>539.91999999999996</ele>
        <time>2013-09-04T11:34:07Z</time>
      </trkpt>
      <trkpt lat="50.61962996609509" lon="13.360228026285768">
        <ele>539.91999999999996</ele>
        <time>2013-09-04T11:34:08Z</time>
      </trkpt>
      <trkpt lat="50.619640024378896" lon="13.360409997403622">
        <ele>539.44000000000005</ele>
        <time>2013-09-04T11:34:09Z</time>
      </trkpt>
      <trkpt lat="50.619654022157192" lon="13.360593980178237">
        <ele>539.44000000000005</ele>
        <time>2013-09-04T11:34:10Z</time>
      </trkpt>
      <trkpt lat="50.619667014107108" lon="13.361788988113403">
        <ele>539.44000000000005</ele>
        <time>2013-09-04T11:34:15Z</time>
      </trkpt>
      <trkpt lat="50.619624014943838" lon="13.36201898753643">
        <ele>539.91999999999996</ele>
        <time>2013-09-04T11:34:16Z</time>
      </trkpt>
      <trkpt lat="50.619571963325143" lon="13.362273965030909">
        <ele>539.91999999999996</ele>
        <time>2013-09-04T11:34:17Z</time>
      </trkpt>
      <trkpt lat="50.61949803493917" lon="13.362545035779476">
        <ele>540.39999999999998</ele>
        <time>2013-09-04T11:34:18Z</time>
      </trkpt>
      <trkpt lat="50.619416981935501" lon="13.36279297247529">
        <ele>540.88</ele>
        <time>2013-09-04T11:34:19Z</time>
      </trkpt>
      <trkpt lat="50.619314974173903" lon="13.363011991605163">
        <ele>541.84000000000003</ele>
        <time>2013-09-04T11:34:20Z</time>
      </trkpt>
      <trkpt lat="50.619125962257385" lon="13.363423962146044">
        <ele>542.32000000000005</ele>
        <time>2013-09-04T11:34:22Z</time>
      </trkpt>
      <trkpt lat="50.619019009172916" lon="13.363594030961394">
        <ele>542.79999999999995</ele>
        <time>2013-09-04T11:34:23Z</time>
      </trkpt>
      <trkpt lat="50.618746010586619" lon="13.364012958481908">
        <ele>544.72000000000003</ele>
        <time>2013-09-04T11:34:26Z</time>
      </trkpt>
      <trkpt lat="50.618696976453066" lon="13.364169029518962">
        <ele>545.20000000000005</ele>
        <time>2013-09-04T11:34:27Z</time>
      </trkpt>
      <trkpt lat="50.618671998381615" lon="13.364334991201758">
        <ele>545.69000000000005</ele>
        <time>2013-09-04T11:34:28Z</time>
      </trkpt>
      <trkpt lat="50.618674010038376" lon="13.364525008946657">
        <ele>546.16999999999996</ele>
        <time>2013-09-04T11:34:29Z</time>
      </trkpt>
      <trkpt lat="50.618692031130195" lon="13.364732963964343">
        <ele>546.64999999999998</ele>
        <time>2013-09-04T11:34:30Z</time>
      </trkpt>
      <trkpt lat="50.618727989494801" lon="13.364958018064499">
        <ele>547.13</ele>
        <time>2013-09-04T11:34:31Z</time>
      </trkpt>
      <trkpt lat="50.618765959516168" lon="13.365195980295539">
        <ele>547.13</ele>
        <time>2013-09-04T11:34:32Z</time>
      </trkpt>
      <trkpt lat="50.619112970307469" lon="13.366394005715847">
        <ele>546.64999999999998</ele>
        <time>2013-09-04T11:34:37Z</time>
      </trkpt>
      <trkpt lat="50.619212966412306" lon="13.366563990712166">
        <ele>547.13</ele>
        <time>2013-09-04T11:34:38Z</time>
      </trkpt>
      <trkpt lat="50.619585961103439" lon="13.367057014256716">
        <ele>545.69000000000005</ele>
        <time>2013-09-04T11:34:41Z</time>
      </trkpt>
      <trkpt lat="50.619718981906772" lon="13.367182994261384">
        <ele>544.72000000000003</ele>
        <time>2013-09-04T11:34:42Z</time>
      </trkpt>
      <trkpt lat="50.619867006316781" lon="13.367295982316136">
        <ele>543.27999999999997</ele>
        <time>2013-09-04T11:34:43Z</time>
      </trkpt>
      <trkpt lat="50.621229987591505" lon="13.367924960330129">
        <ele>540.39999999999998</ele>
        <time>2013-09-04T11:34:51Z</time>
      </trkpt>
      <trkpt lat="50.623057996854186" lon="13.368496019393206">
        <ele>536.07000000000005</ele>
        <time>2013-09-04T11:35:01Z</time>
      </trkpt>
      <trkpt lat="50.623807003721595" lon="13.368654018267989">
        <ele>533.66999999999996</ele>
        <time>2013-09-04T11:35:05Z</time>
      </trkpt>
      <trkpt lat="50.623983023688197" lon="13.3687449619174">
        <ele>532.71000000000004</ele>
        <time>2013-09-04T11:35:06Z</time>
      </trkpt>
      <trkpt lat="50.624153008684516" lon="13.368841018527746">
        <ele>531.75</ele>
        <time>2013-09-04T11:35:07Z</time>
      </trkpt>
      <trkpt lat="50.624311007559299" lon="13.368974961340427">
        <ele>531.75</ele>
        <time>2013-09-04T11:35:08Z</time>
      </trkpt>
      <trkpt lat="50.624462971463799" lon="13.369161961600184">
        <ele>531.26999999999998</ele>
        <time>2013-09-04T11:35:09Z</time>
      </trkpt>
      <trkpt lat="50.624607978388667" lon="13.369352985173464">
        <ele>530.29999999999995</ele>
        <time>2013-09-04T11:35:10Z</time>
      </trkpt>
      <trkpt lat="50.625248020514846" lon="13.370342971757054">
        <ele>525.98000000000002</ele>
        <time>2013-09-04T11:35:15Z</time>
      </trkpt>
      <trkpt lat="50.625319015234709" lon="13.370599038898945">
        <ele>525.01999999999998</ele>
        <time>2013-09-04T11:35:16Z</time>
      </trkpt>
      <trkpt lat="50.625496041029692" lon="13.371061971411109">
        <ele>523.09000000000003</ele>
        <time>2013-09-04T11:35:18Z</time>
      </trkpt>
      <trkpt lat="50.625768033787608" lon="13.371870992705226">
        <ele>517.33000000000004</ele>
        <time>2013-09-04T11:35:22Z</time>
      </trkpt>
      <trkpt lat="50.626529026776552" lon="13.373666983097792">
        <ele>509.63999999999999</ele>
        <time>2013-09-04T11:35:32Z</time>
      </trkpt>
      <trkpt lat="50.627155993133783" lon="13.375731026753783">
        <ele>507.70999999999998</ele>
        <time>2013-09-04T11:35:43Z</time>
      </trkpt>
      <trkpt lat="50.627285996451974" lon="13.376067979261279">
        <ele>507.70999999999998</ele>
        <time>2013-09-04T11:35:45Z</time>
      </trkpt>
      <trkpt lat="50.62736202031374" lon="13.376226983964443">
        <ele>507.70999999999998</ele>
        <time>2013-09-04T11:35:46Z</time>
      </trkpt>
      <trkpt lat="50.627457993105054" lon="13.376360004767776">
        <ele>506.75</ele>
        <time>2013-09-04T11:35:47Z</time>
      </trkpt>
      <trkpt lat="50.62755698338151" lon="13.376489002257586">
        <ele>506.75</ele>
        <time>2013-09-04T11:35:48Z</time>
      </trkpt>
      <trkpt lat="50.627667037770152" lon="13.376592015847564">
        <ele>505.79000000000002</ele>
        <time>2013-09-04T11:35:49Z</time>
      </trkpt>
      <trkpt lat="50.627782959491014" lon="13.376684971153736">
        <ele>505.79000000000002</ele>
        <time>2013-09-04T11:35:50Z</time>
      </trkpt>
      <trkpt lat="50.627903994172812" lon="13.376767029985785">
        <ele>504.82999999999998</ele>
        <time>2013-09-04T11:35:51Z</time>
      </trkpt>
      <trkpt lat="50.628028968349099" lon="13.376839030534029">
        <ele>504.82999999999998</ele>
        <time>2013-09-04T11:35:52Z</time>
      </trkpt>
      <trkpt lat="50.628284029662609" lon="13.376931985840201">
        <ele>503.38999999999999</ele>
        <time>2013-09-04T11:35:54Z</time>
      </trkpt>
      <trkpt lat="50.628411015495658" lon="13.376955036073923">
        <ele>503.38999999999999</ele>
        <time>2013-09-04T11:35:55Z</time>
      </trkpt>
      <trkpt lat="50.628541018813848" lon="13.376939026638865">
        <ele>502.91000000000003</ele>
        <time>2013-09-04T11:35:56Z</time>
      </trkpt>
      <trkpt lat="50.62865300104022" lon="13.376900972798467">
        <ele>502.91000000000003</ele>
        <time>2013-09-04T11:35:57Z</time>
      </trkpt>
      <trkpt lat="50.628760037943721" lon="13.376817991957068">
        <ele>502.43000000000001</ele>
        <time>2013-09-04T11:35:58Z</time>
      </trkpt>
      <trkpt lat="50.628850981593132" lon="13.376697963103652">
        <ele>501.45999999999998</ele>
        <time>2013-09-04T11:35:59Z</time>
      </trkpt>
      <trkpt lat="50.628936979919672" lon="13.376561002805829">
        <ele>501.45999999999998</ele>
        <time>2013-09-04T11:36:00Z</time>
      </trkpt>
      <trkpt lat="50.629308968782425" lon="13.376010982319713">
        <ele>502.43000000000001</ele>
        <time>2013-09-04T11:36:04Z</time>
      </trkpt>
      <trkpt lat="50.630361987277865" lon="13.374942960217595">
        <ele>503.87</ele>
        <time>2013-09-04T11:36:13Z</time>
      </trkpt>
      <trkpt lat="50.631462028250098" lon="13.374398974701762">
        <ele>508.67000000000002</ele>
        <time>2013-09-04T11:36:22Z</time>
      </trkpt>
      <trkpt lat="50.633008992299438" lon="13.373960014432669">
        <ele>510.12</ele>
        <time>2013-09-04T11:36:33Z</time>
      </trkpt>
      <trkpt lat="50.634080031886697" lon="13.374258996918797">
        <ele>504.82999999999998</ele>
        <time>2013-09-04T11:36:41Z</time>
      </trkpt>
      <trkpt lat="50.634209029376507" lon="13.374274000525475">
        <ele>504.82999999999998</ele>
        <time>2013-09-04T11:36:42Z</time>
      </trkpt>
      <trkpt lat="50.634339032694697" lon="13.374270983040333">
        <ele>504.82999999999998</ele>
        <time>2013-09-04T11:36:43Z</time>
      </trkpt>
      <trkpt lat="50.634473981335759" lon="13.374251034110785">
        <ele>504.82999999999998</ele>
        <time>2013-09-04T11:36:44Z</time>
      </trkpt>
      <trkpt lat="50.634611025452614" lon="13.374225972220302">
        <ele>505.31</ele>
        <time>2013-09-04T11:36:45Z</time>
      </trkpt>
      <trkpt lat="50.635988004505634" lon="13.373834034428">
        <ele>504.82999999999998</ele>
        <time>2013-09-04T11:36:55Z</time>
      </trkpt>
      <trkpt lat="50.636376002803445" lon="13.373657008633018">
        <ele>503.87</ele>
        <time>2013-09-04T11:36:58Z</time>
      </trkpt>
      <trkpt lat="50.636500976979733" lon="13.373547960072756">
        <ele>502.91000000000003</ele>
        <time>2013-09-04T11:36:59Z</time>
      </trkpt>
      <trkpt lat="50.636857962235808" lon="13.373227017000318">
        <ele>500.5</ele>
        <time>2013-09-04T11:37:02Z</time>
      </trkpt>
      <trkpt lat="50.636982014402747" lon="13.373133977875113">
        <ele>500.01999999999998</ele>
        <time>2013-09-04T11:37:03Z</time>
      </trkpt>
      <trkpt lat="50.637112017720938" lon="13.373049991205335">
        <ele>499.06</ele>
        <time>2013-09-04T11:37:04Z</time>
      </trkpt>
      <trkpt lat="50.63946196809411" lon="13.371652979403734">
        <ele>490.88999999999999</ele>
        <time>2013-09-04T11:37:22Z</time>
      </trkpt>
      <trkpt lat="50.641356026753783" lon="13.370617982000113">
        <ele>488.97000000000003</ele>
        <time>2013-09-04T11:37:36Z</time>
      </trkpt>
      <trkpt lat="50.642472999170423" lon="13.369953967630863">
        <ele>489.44999999999999</ele>
        <time>2013-09-04T11:37:44Z</time>
      </trkpt>
      <trkpt lat="50.642608031630516" lon="13.369808960705996">
        <ele>489.44999999999999</ele>
        <time>2013-09-04T11:37:45Z</time>
      </trkpt>
      <trkpt lat="50.642744991928339" lon="13.369632018730044">
        <ele>489.93000000000001</ele>
        <time>2013-09-04T11:37:46Z</time>
      </trkpt>
      <trkpt lat="50.643840003758669" lon="13.36792697198689">
        <ele>491.85000000000002</ele>
        <time>2013-09-04T11:37:55Z</time>
      </trkpt>
      <trkpt lat="50.645326031371951" lon="13.365194974467158">
        <ele>492.32999999999998</ele>
        <time>2013-09-04T11:38:10Z</time>
      </trkpt>
      <trkpt lat="50.646262038499117" lon="13.363503003492951">
        <ele>486.07999999999998</ele>
        <time>2013-09-04T11:38:20Z</time>
      </trkpt>
      <trkpt lat="50.648152995854616" lon="13.361441977322102">
        <ele>478.87</ele>
        <time>2013-09-04T11:38:35Z</time>
      </trkpt>
      <trkpt lat="50.649292012676597" lon="13.359831981360912">
        <ele>473.11000000000001</ele>
        <time>2013-09-04T11:38:45Z</time>
      </trkpt>
      <trkpt lat="50.64968504011631" lon="13.358522979542613">
        <ele>468.77999999999997</ele>
        <time>2013-09-04T11:38:52Z</time>
      </trkpt>
      <trkpt lat="50.64977296628058" lon="13.358415020629764">
        <ele>467.33999999999997</ele>
        <time>2013-09-04T11:38:53Z</time>
      </trkpt>
      <trkpt lat="50.6498789973557" lon="13.35838601924479">
        <ele>466.38</ele>
        <time>2013-09-04T11:38:54Z</time>
      </trkpt>
      <trkpt lat="50.649984022602439" lon="13.358403034508228">
        <ele>465.42000000000002</ele>
        <time>2013-09-04T11:38:55Z</time>
      </trkpt>
      <trkpt lat="50.650091981515288" lon="13.358433963730931">
        <ele>463.97000000000003</ele>
        <time>2013-09-04T11:38:56Z</time>
      </trkpt>
      <trkpt lat="50.650965040549636" lon="13.358800001442432">
        <ele>461.08999999999997</ele>
        <time>2013-09-04T11:39:04Z</time>
      </trkpt>
      <trkpt lat="50.65104098059237" lon="13.358856998383999">
        <ele>460.13</ele>
        <time>2013-09-04T11:39:05Z</time>
      </trkpt>
      <trkpt lat="50.65108397975564" lon="13.35896504111588">
        <ele>459.17000000000002</ele>
        <time>2013-09-04T11:39:06Z</time>
      </trkpt>
      <trkpt lat="50.651077022776008" lon="13.359121028333902">
        <ele>458.69</ele>
        <time>2013-09-04T11:39:07Z</time>
      </trkpt>
      <trkpt lat="50.651065036654472" lon="13.359280033037066">
        <ele>457.72000000000003</ele>
        <time>2013-09-04T11:39:08Z</time>
      </trkpt>
      <trkpt lat="50.651042992249131" lon="13.359457980841398">
        <ele>457.72000000000003</ele>
        <time>2013-09-04T11:39:09Z</time>
      </trkpt>
      <trkpt lat="50.651016002520919" lon="13.359641041606665">
        <ele>457.24000000000001</ele>
        <time>2013-09-04T11:39:10Z</time>
      </trkpt>
      <trkpt lat="50.650770999491215" lon="13.361467039212584">
        <ele>458.69</ele>
        <time>2013-09-04T11:39:19Z</time>
      </trkpt>
      <trkpt lat="50.650855991989374" lon="13.363150963559747">
        <ele>463.97000000000003</ele>
        <time>2013-09-04T11:39:28Z</time>
      </trkpt>
      <trkpt lat="50.650558015331626" lon="13.365048039704561">
        <ele>467.33999999999997</ele>
        <time>2013-09-04T11:39:39Z</time>
      </trkpt>
      <trkpt lat="50.650388030335307" lon="13.366412026807666">
        <ele>469.25999999999999</ele>
        <time>2013-09-04T11:39:46Z</time>
      </trkpt>
      <trkpt lat="50.650393981486559" lon="13.366605984047055">
        <ele>469.74000000000001</ele>
        <time>2013-09-04T11:39:47Z</time>
      </trkpt>
      <trkpt lat="50.650417031720281" lon="13.366802036762238">
        <ele>469.74000000000001</ele>
        <time>2013-09-04T11:39:48Z</time>
      </trkpt>
      <trkpt lat="50.650451984256506" lon="13.366993982344866">
        <ele>469.25999999999999</ele>
        <time>2013-09-04T11:39:49Z</time>
      </trkpt>
      <trkpt lat="50.650494983419776" lon="13.367191040888429">
        <ele>469.25999999999999</ele>
        <time>2013-09-04T11:39:50Z</time>
      </trkpt>
      <trkpt lat="50.651051960885525" lon="13.368993988260627">
        <ele>469.25999999999999</ele>
        <time>2013-09-04T11:40:00Z</time>
      </trkpt>
      <trkpt lat="50.651118010282516" lon="13.36910798214376">
        <ele>469.25999999999999</ele>
        <time>2013-09-04T11:40:01Z</time>
      </trkpt>
      <trkpt lat="50.65119001083076" lon="13.369200015440583">
        <ele>469.74000000000001</ele>
        <time>2013-09-04T11:40:02Z</time>
      </trkpt>
      <trkpt lat="50.651257988065481" lon="13.369291964918375">
        <ele>469.74000000000001</ele>
        <time>2013-09-04T11:40:03Z</time>
      </trkpt>
      <trkpt lat="50.651314985007048" lon="13.369403025135398">
        <ele>470.22000000000003</ele>
        <time>2013-09-04T11:40:04Z</time>
      </trkpt>
      <trkpt lat="50.651352033019066" lon="13.369541997089982">
        <ele>470.69999999999999</ele>
        <time>2013-09-04T11:40:05Z</time>
      </trkpt>
      <trkpt lat="50.651352033019066" lon="13.369693960994482">
        <ele>471.18000000000001</ele>
        <time>2013-09-04T11:40:06Z</time>
      </trkpt>
      <trkpt lat="50.651313979178667" lon="13.369856989011168">
        <ele>471.66000000000003</ele>
        <time>2013-09-04T11:40:07Z</time>
      </trkpt>
      <trkpt lat="50.651258993893862" lon="13.370037032291293">
        <ele>472.13999999999999</ele>
        <time>2013-09-04T11:40:08Z</time>
      </trkpt>
      <trkpt lat="50.651204008609056" lon="13.370235012844205">
        <ele>472.13999999999999</ele>
        <time>2013-09-04T11:40:09Z</time>
      </trkpt>
      <trkpt lat="50.651167966425419" lon="13.370449002832174">
        <ele>472.63</ele>
        <time>2013-09-04T11:40:10Z</time>
      </trkpt>
      <trkpt lat="50.651145000010729" lon="13.370666010305285">
        <ele>472.63</ele>
        <time>2013-09-04T11:40:11Z</time>
      </trkpt>
      <trkpt lat="50.651123039424419" lon="13.370884023606777">
        <ele>473.11000000000001</ele>
        <time>2013-09-04T11:40:12Z</time>
      </trkpt>
      <trkpt lat="50.650994963943958" lon="13.371780971065164">
        <ele>474.06999999999999</ele>
        <time>2013-09-04T11:40:16Z</time>
      </trkpt>
      <trkpt lat="50.650990018621087" lon="13.372008958831429">
        <ele>474.06999999999999</ele>
        <time>2013-09-04T11:40:17Z</time>
      </trkpt>
      <trkpt lat="50.650885999202728" lon="13.374310964718461">
        <ele>475.02999999999997</ele>
        <time>2013-09-04T11:40:27Z</time>
      </trkpt>
      <trkpt lat="50.650277975946665" lon="13.376558991149068">
        <ele>475.02999999999997</ele>
        <time>2013-09-04T11:40:38Z</time>
      </trkpt>
      <trkpt lat="50.64951597712934" lon="13.37821701541543">
        <ele>476.47000000000003</ele>
        <time>2013-09-04T11:40:48Z</time>
      </trkpt>
      <trkpt lat="50.64811896532774" lon="13.381201978772879">
        <ele>482.72000000000003</ele>
        <time>2013-09-04T11:41:06Z</time>
      </trkpt>
      <trkpt lat="50.647071981802583" lon="13.384065991267562">
        <ele>483.19999999999999</ele>
        <time>2013-09-04T11:41:22Z</time>
      </trkpt>
      <trkpt lat="50.647033005952835" lon="13.38427403010428">
        <ele>483.68000000000001</ele>
        <time>2013-09-04T11:41:23Z</time>
      </trkpt>
      <trkpt lat="50.647004004567862" lon="13.384479973465204">
        <ele>483.19999999999999</ele>
        <time>2013-09-04T11:41:24Z</time>
      </trkpt>
      <trkpt lat="50.646985983476043" lon="13.384689018130302">
        <ele>483.68000000000001</ele>
        <time>2013-09-04T11:41:25Z</time>
      </trkpt>
      <trkpt lat="50.646977014839649" lon="13.386839982122183">
        <ele>486.07999999999998</ele>
        <time>2013-09-04T11:41:34Z</time>
      </trkpt>
      <trkpt lat="50.6470210198313" lon="13.389634005725384">
        <ele>488.49000000000001</ele>
        <time>2013-09-04T11:41:44Z</time>
      </trkpt>
      <trkpt lat="50.646762019023299" lon="13.392620980739594">
        <ele>490.88999999999999</ele>
        <time>2013-09-04T11:41:55Z</time>
      </trkpt>
      <trkpt lat="50.646512992680073" lon="13.393810037523508">
        <ele>491.37</ele>
        <time>2013-09-04T11:42:01Z</time>
      </trkpt>
      <trkpt lat="50.646472005173564" lon="13.393933000043035">
        <ele>491.37</ele>
        <time>2013-09-04T11:42:02Z</time>
      </trkpt>
      <trkpt lat="50.6464200373739" lon="13.394006006419659">
        <ele>491.37</ele>
        <time>2013-09-04T11:42:03Z</time>
      </trkpt>
      <trkpt lat="50.646347030997276" lon="13.394042970612645">
        <ele>491.37</ele>
        <time>2013-09-04T11:42:04Z</time>
      </trkpt>
      <trkpt lat="50.646253991872072" lon="13.394045988097787">
        <ele>491.85000000000002</ele>
        <time>2013-09-04T11:42:05Z</time>
      </trkpt>
      <trkpt lat="50.6461610365659" lon="13.394040036946535">
        <ele>491.85000000000002</ele>
        <time>2013-09-04T11:42:06Z</time>
      </trkpt>
      <trkpt lat="50.646062968298793" lon="13.394025033339858">
        <ele>491.85000000000002</ele>
        <time>2013-09-04T11:42:07Z</time>
      </trkpt>
      <trkpt lat="50.645964983850718" lon="13.393979016691446">
        <ele>492.32999999999998</ele>
        <time>2013-09-04T11:42:08Z</time>
      </trkpt>
      <trkpt lat="50.645875968039036" lon="13.393915984779596">
        <ele>492.32999999999998</ele>
        <time>2013-09-04T11:42:09Z</time>
      </trkpt>
      <trkpt lat="50.645791981369257" lon="13.393830992281437">
        <ele>492.32999999999998</ele>
        <time>2013-09-04T11:42:10Z</time>
      </trkpt>
      <trkpt lat="50.645721992477775" lon="13.39375102892518">
        <ele>492.32999999999998</ele>
        <time>2013-09-04T11:42:11Z</time>
      </trkpt>
      <trkpt lat="50.645569022744894" lon="13.39368799701333">
        <ele>491.37</ele>
        <time>2013-09-04T11:42:13Z</time>
      </trkpt>
      <trkpt lat="50.645492998883128" lon="13.393723033368587">
        <ele>490.41000000000003</ele>
        <time>2013-09-04T11:42:14Z</time>
      </trkpt>
      <trkpt lat="50.645452011376619" lon="13.39381699450314">
        <ele>489.44999999999999</ele>
        <time>2013-09-04T11:42:15Z</time>
      </trkpt>
      <trkpt lat="50.645441031083465" lon="13.393935011699796">
        <ele>488.97000000000003</ele>
        <time>2013-09-04T11:42:16Z</time>
      </trkpt>
      <trkpt lat="50.645458968356252" lon="13.394090998917818">
        <ele>488.97000000000003</ele>
        <time>2013-09-04T11:42:17Z</time>
      </trkpt>
      <trkpt lat="50.645485036075115" lon="13.394273975864053">
        <ele>488.00999999999999</ele>
        <time>2013-09-04T11:42:18Z</time>
      </trkpt>
      <trkpt lat="50.645517976954579" lon="13.394476985558867">
        <ele>488.00999999999999</ele>
        <time>2013-09-04T11:42:19Z</time>
      </trkpt>
      <trkpt lat="50.645759962499142" lon="13.396298959851265">
        <ele>488.97000000000003</ele>
        <time>2013-09-04T11:42:26Z</time>
      </trkpt>
      <trkpt lat="50.645831041038036" lon="13.397551970556378">
        <ele>488.97000000000003</ele>
        <time>2013-09-04T11:42:30Z</time>
      </trkpt>
      <trkpt lat="50.645756023004651" lon="13.400847986340523">
        <ele>489.93000000000001</ele>
        <time>2013-09-04T11:42:40Z</time>
      </trkpt>
      <trkpt lat="50.64603597857058" lon="13.403214029967785">
        <ele>491.85000000000002</ele>
        <time>2013-09-04T11:42:48Z</time>
      </trkpt>
      <trkpt lat="50.646756989881396" lon="13.404401997104287">
        <ele>491.85000000000002</ele>
        <time>2013-09-04T11:42:54Z</time>
      </trkpt>
      <trkpt lat="50.647910004481673" lon="13.404987975955009">
        <ele>493.29000000000002</ele>
        <time>2013-09-04T11:43:00Z</time>
      </trkpt>
      <trkpt lat="50.648122988641262" lon="13.405011026188731">
        <ele>493.76999999999998</ele>
        <time>2013-09-04T11:43:01Z</time>
      </trkpt>
      <trkpt lat="50.648319041356444" lon="13.405003985390067">
        <ele>494.25999999999999</ele>
        <time>2013-09-04T11:43:02Z</time>
      </trkpt>
      <trkpt lat="50.64852599054575" lon="13.404969032853842">
        <ele>494.25999999999999</ele>
        <time>2013-09-04T11:43:03Z</time>
      </trkpt>
      <trkpt lat="50.648735035210848" lon="13.404916981235147">
        <ele>494.74000000000001</ele>
        <time>2013-09-04T11:43:04Z</time>
      </trkpt>
      <trkpt lat="50.650404961779714" lon="13.404218014329672">
        <ele>495.22000000000003</ele>
        <time>2013-09-04T11:43:12Z</time>
      </trkpt>
      <trkpt lat="50.650969985872507" lon="13.403919031843543">
        <ele>494.74000000000001</ele>
        <time>2013-09-04T11:43:15Z</time>
      </trkpt>
      <trkpt lat="50.651170983910561" lon="13.403728008270264">
        <ele>494.74000000000001</ele>
        <time>2013-09-04T11:43:16Z</time>
      </trkpt>
      <trkpt lat="50.651730978861451" lon="13.403348978608847">
        <ele>494.25999999999999</ele>
        <time>2013-09-04T11:43:19Z</time>
      </trkpt>
      <trkpt lat="50.653205020353198" lon="13.403238002210855">
        <ele>496.18000000000001</ele>
        <time>2013-09-04T11:43:26Z</time>
      </trkpt>
      <trkpt lat="50.654679983854294" lon="13.403814006596804">
        <ele>496.66000000000003</ele>
        <time>2013-09-04T11:43:33Z</time>
      </trkpt>
      <trkpt lat="50.655579026788473" lon="13.404225977137685">
        <ele>496.18000000000001</ele>
        <time>2013-09-04T11:43:37Z</time>
      </trkpt>
      <trkpt lat="50.655782958492637" lon="13.404371989890933">
        <ele>496.18000000000001</ele>
        <time>2013-09-04T11:43:38Z</time>
      </trkpt>
      <trkpt lat="50.655969036743045" lon="13.404526971280575">
        <ele>496.18000000000001</ele>
        <time>2013-09-04T11:43:39Z</time>
      </trkpt>
      <trkpt lat="50.656128963455558" lon="13.404697040095925">
        <ele>496.66000000000003</ele>
        <time>2013-09-04T11:43:40Z</time>
      </trkpt>
      <trkpt lat="50.656257038936019" lon="13.404926033690572">
        <ele>497.13999999999999</ele>
        <time>2013-09-04T11:43:41Z</time>
      </trkpt>
      <trkpt lat="50.656392993405461" lon="13.405132982879877">
        <ele>497.13999999999999</ele>
        <time>2013-09-04T11:43:42Z</time>
      </trkpt>
      <trkpt lat="50.656515033915639" lon="13.405363988131285">
        <ele>497.62</ele>
        <time>2013-09-04T11:43:43Z</time>
      </trkpt>
      <trkpt lat="50.657229004427791" lon="13.406659997999668">
        <ele>502.91000000000003</ele>
        <time>2013-09-04T11:43:50Z</time>
      </trkpt>
      <trkpt lat="50.658100973814726" lon="13.408636031672359">
        <ele>502.91000000000003</ele>
        <time>2013-09-04T11:44:01Z</time>
      </trkpt>
      <trkpt lat="50.658874958753586" lon="13.411258980631828">
        <ele>506.26999999999998</ele>
        <time>2013-09-04T11:44:14Z</time>
      </trkpt>
      <trkpt lat="50.659790011122823" lon="13.414530018344522">
        <ele>506.26999999999998</ele>
        <time>2013-09-04T11:44:30Z</time>
      </trkpt>
      <trkpt lat="50.660611018538475" lon="13.417087001726031">
        <ele>503.38999999999999</ele>
        <time>2013-09-04T11:44:43Z</time>
      </trkpt>
      <trkpt lat="50.660697016865015" lon="13.417258998379111">
        <ele>503.38999999999999</ele>
        <time>2013-09-04T11:44:44Z</time>
      </trkpt>
      <trkpt lat="50.660882005468011" lon="13.417568039149046">
        <ele>501.94999999999999</ele>
        <time>2013-09-04T11:44:46Z</time>
      </trkpt>
      <trkpt lat="50.66098996438086" lon="13.417665017768741">
        <ele>500.98000000000002</ele>
        <time>2013-09-04T11:44:47Z</time>
      </trkpt>
      <trkpt lat="50.661118039861321" lon="13.417697036638856">
        <ele>500.98000000000002</ele>
        <time>2013-09-04T11:44:48Z</time>
      </trkpt>
      <trkpt lat="50.661246031522751" lon="13.417682033032179">
        <ele>501.45999999999998</ele>
        <time>2013-09-04T11:44:49Z</time>
      </trkpt>
      <trkpt lat="50.661371005699039" lon="13.417627969756722">
        <ele>500.98000000000002</ele>
        <time>2013-09-04T11:44:50Z</time>
      </trkpt>
      <trkpt lat="50.661492962390184" lon="13.417594023048878">
        <ele>500.98000000000002</ele>
        <time>2013-09-04T11:44:51Z</time>
      </trkpt>
      <trkpt lat="50.661626989021897" lon="13.417576001957059">
        <ele>501.45999999999998</ele>
        <time>2013-09-04T11:44:52Z</time>
      </trkpt>
      <trkpt lat="50.661744000390172" lon="13.417606009170413">
        <ele>500.98000000000002</ele>
        <time>2013-09-04T11:44:53Z</time>
      </trkpt>
      <trkpt lat="50.661861011758447" lon="13.41766401194036">
        <ele>500.98000000000002</ele>
        <time>2013-09-04T11:44:54Z</time>
      </trkpt>
      <trkpt lat="50.661984980106354" lon="13.417745986953378">
        <ele>500.5</ele>
        <time>2013-09-04T11:44:55Z</time>
      </trkpt>
      <trkpt lat="50.663470001891255" lon="13.418881986290216">
        <ele>500.98000000000002</ele>
        <time>2013-09-04T11:45:07Z</time>
      </trkpt>
      <trkpt lat="50.663979034870863" lon="13.419354977086186">
        <ele>502.91000000000003</ele>
        <time>2013-09-04T11:45:12Z</time>
      </trkpt>
      <trkpt lat="50.664012981578708" lon="13.419505013152957">
        <ele>503.87</ele>
        <time>2013-09-04T11:45:13Z</time>
      </trkpt>
      <trkpt lat="50.664012981578708" lon="13.41968203894794">
        <ele>504.35000000000002</ele>
        <time>2013-09-04T11:45:14Z</time>
      </trkpt>
      <trkpt lat="50.663981968536973" lon="13.419885970652103">
        <ele>504.82999999999998</ele>
        <time>2013-09-04T11:45:15Z</time>
      </trkpt>
      <trkpt lat="50.663939975202084" lon="13.42007003724575">
        <ele>505.31</ele>
        <time>2013-09-04T11:45:16Z</time>
      </trkpt>
      <trkpt lat="50.663889013230801" lon="13.420253014191985">
        <ele>505.79000000000002</ele>
        <time>2013-09-04T11:45:17Z</time>
      </trkpt>
      <trkpt lat="50.663752974942327" lon="13.420856008306146">
        <ele>507.23000000000002</ele>
        <time>2013-09-04T11:45:20Z</time>
      </trkpt>
      <trkpt lat="50.663546025753021" lon="13.422834975644946">
        <ele>510.12</ele>
        <time>2013-09-04T11:45:28Z</time>
      </trkpt>
      <trkpt lat="50.663316026329994" lon="13.425537971779704">
        <ele>511.56</ele>
        <time>2013-09-04T11:45:38Z</time>
      </trkpt>
      <trkpt lat="50.663250982761383" lon="13.426304999738932">
        <ele>509.16000000000003</ele>
        <time>2013-09-04T11:45:41Z</time>
      </trkpt>
      <trkpt lat="50.66326498053968" lon="13.426529970020056">
        <ele>508.19</ele>
        <time>2013-09-04T11:45:42Z</time>
      </trkpt>
      <trkpt lat="50.663318037986755" lon="13.426743960008025">
        <ele>507.70999999999998</ele>
        <time>2013-09-04T11:45:43Z</time>
      </trkpt>
      <trkpt lat="50.663389032706618" lon="13.426939006894827">
        <ele>508.19</ele>
        <time>2013-09-04T11:45:44Z</time>
      </trkpt>
      <trkpt lat="50.663493974134326" lon="13.42711703851819">
        <ele>508.19</ele>
        <time>2013-09-04T11:45:45Z</time>
      </trkpt>
      <trkpt lat="50.663616014644504" lon="13.427275037392974">
        <ele>508.19</ele>
        <time>2013-09-04T11:45:46Z</time>
      </trkpt>
      <trkpt lat="50.663756998255849" lon="13.427414009347558">
        <ele>508.19</ele>
        <time>2013-09-04T11:45:47Z</time>
      </trkpt>
      <trkpt lat="50.663921032100916" lon="13.42752599157393">
        <ele>508.19</ele>
        <time>2013-09-04T11:45:48Z</time>
      </trkpt>
      <trkpt lat="50.664099985733628" lon="13.427617019042373">
        <ele>508.19</ele>
        <time>2013-09-04T11:45:49Z</time>
      </trkpt>
      <trkpt lat="50.664293020963669" lon="13.4276760276407">
        <ele>508.19</ele>
        <time>2013-09-04T11:45:50Z</time>
      </trkpt>
      <trkpt lat="50.664497036486864" lon="13.427717015147209">
        <ele>507.70999999999998</ele>
        <time>2013-09-04T11:45:51Z</time>
      </trkpt>
      <trkpt lat="50.664728041738272" lon="13.427732018753886">
        <ele>509.63999999999999</ele>
        <time>2013-09-04T11:45:52Z</time>
      </trkpt>
      <trkpt lat="50.66556497476995" lon="13.427894962951541">
        <ele>511.07999999999998</ele>
        <time>2013-09-04T11:45:56Z</time>
      </trkpt>
      <trkpt lat="50.665763039141893" lon="13.428003005683422">
        <ele>511.56</ele>
        <time>2013-09-04T11:45:57Z</time>
      </trkpt>
      <trkpt lat="50.66594903357327" lon="13.428138038143516">
        <ele>512.03999999999996</ele>
        <time>2013-09-04T11:45:58Z</time>
      </trkpt>
      <trkpt lat="50.666135028004646" lon="13.428293019533157">
        <ele>512.03999999999996</ele>
        <time>2013-09-04T11:45:59Z</time>
      </trkpt>
      <trkpt lat="50.666307024657726" lon="13.428466022014618">
        <ele>512.03999999999996</ele>
        <time>2013-09-04T11:46:00Z</time>
      </trkpt>
      <trkpt lat="50.666468041017652" lon="13.428670959547162">
        <ele>512.03999999999996</ele>
        <time>2013-09-04T11:46:01Z</time>
      </trkpt>
      <trkpt lat="50.666611036285758" lon="13.428900958970189">
        <ele>512.03999999999996</ele>
        <time>2013-09-04T11:46:02Z</time>
      </trkpt>
      <trkpt lat="50.66672301851213" lon="13.429165994748473">
        <ele>512.03999999999996</ele>
        <time>2013-09-04T11:46:03Z</time>
      </trkpt>
      <trkpt lat="50.666805999353528" lon="13.429457014426589">
        <ele>512.03999999999996</ele>
        <time>2013-09-04T11:46:04Z</time>
      </trkpt>
      <trkpt lat="50.666872970759869" lon="13.42975901439786">
        <ele>512.51999999999998</ele>
        <time>2013-09-04T11:46:05Z</time>
      </trkpt>
      <trkpt lat="50.666919993236661" lon="13.43008398078382">
        <ele>512.51999999999998</ele>
        <time>2013-09-04T11:46:06Z</time>
      </trkpt>
      <trkpt lat="50.666946982964873" lon="13.430401990190148">
        <ele>512.51999999999998</ele>
        <time>2013-09-04T11:46:07Z</time>
      </trkpt>
      <trkpt lat="50.666947988793254" lon="13.43070600181818">
        <ele>513</ele>
        <time>2013-09-04T11:46:08Z</time>
      </trkpt>
      <trkpt lat="50.666923010721803" lon="13.431010013446212">
        <ele>513</ele>
        <time>2013-09-04T11:46:09Z</time>
      </trkpt>
      <trkpt lat="50.666846986860037" lon="13.431333974003792">
        <ele>512.51999999999998</ele>
        <time>2013-09-04T11:46:10Z</time>
      </trkpt>
      <trkpt lat="50.666776997968554" lon="13.431641003116965">
        <ele>513</ele>
        <time>2013-09-04T11:46:11Z</time>
      </trkpt>
      <trkpt lat="50.666308030486107" lon="13.43388500623405">
        <ele>515.39999999999998</ele>
        <time>2013-09-04T11:46:18Z</time>
      </trkpt>
      <trkpt lat="50.665662959218025" lon="13.436276027932763">
        <ele>519.25</ele>
        <time>2013-09-04T11:46:26Z</time>
      </trkpt>
      <trkpt lat="50.665221987292171" lon="13.438163967803121">
        <ele>522.61000000000001</ele>
        <time>2013-09-04T11:46:34Z</time>
      </trkpt>
      <trkpt lat="50.665066000074148" lon="13.440257012844086">
        <ele>524.53999999999996</ele>
        <time>2013-09-04T11:46:42Z</time>
      </trkpt>
      <trkpt lat="50.664987964555621" lon="13.442486012354493">
        <ele>520.69000000000005</ele>
        <time>2013-09-04T11:46:50Z</time>
      </trkpt>
      <trkpt lat="50.665006991475821" lon="13.442762028425932">
        <ele>520.21000000000004</ele>
        <time>2013-09-04T11:46:51Z</time>
      </trkpt>
      <trkpt lat="50.665422985330224" lon="13.445396041497588">
        <ele>520.69000000000005</ele>
        <time>2013-09-04T11:47:00Z</time>
      </trkpt>
      <trkpt lat="50.665724985301495" lon="13.446143036708236">
        <ele>520.69000000000005</ele>
        <time>2013-09-04T11:47:03Z</time>
      </trkpt>
      <trkpt lat="50.665879966691136" lon="13.44634898006916">
        <ele>521.16999999999996</ele>
        <time>2013-09-04T11:47:04Z</time>
      </trkpt>
      <trkpt lat="50.66603796556592" lon="13.446558024734259">
        <ele>521.64999999999998</ele>
        <time>2013-09-04T11:47:05Z</time>
      </trkpt>
      <trkpt lat="50.666498970240355" lon="13.447266966104507">
        <ele>521.16999999999996</ele>
        <time>2013-09-04T11:47:08Z</time>
      </trkpt>
      <trkpt lat="50.666625034064054" lon="13.447535019367933">
        <ele>521.16999999999996</ele>
        <time>2013-09-04T11:47:09Z</time>
      </trkpt>
      <trkpt lat="50.667728008702397" lon="13.449536031112075">
        <ele>519.25</ele>
        <time>2013-09-04T11:47:17Z</time>
      </trkpt>
      <trkpt lat="50.668933996930718" lon="13.450910998508334">
        <ele>520.69000000000005</ele>
        <time>2013-09-04T11:47:25Z</time>
      </trkpt>
      <trkpt lat="50.66925703547895" lon="13.451290028169751">
        <ele>521.16999999999996</ele>
        <time>2013-09-04T11:47:28Z</time>
      </trkpt>
      <trkpt lat="50.669353008270264" lon="13.451403016224504">
        <ele>521.16999999999996</ele>
        <time>2013-09-04T11:47:29Z</time>
      </trkpt>
      <trkpt lat="50.669584013521671" lon="13.451618012040854">
        <ele>522.13</ele>
        <time>2013-09-04T11:47:31Z</time>
      </trkpt>
      <trkpt lat="50.669714016839862" lon="13.451685989275575">
        <ele>522.61000000000001</ele>
        <time>2013-09-04T11:47:32Z</time>
      </trkpt>
      <trkpt lat="50.669815018773079" lon="13.451785985380411">
        <ele>522.61000000000001</ele>
        <time>2013-09-04T11:47:33Z</time>
      </trkpt>
      <trkpt lat="50.669956002384424" lon="13.451871983706951">
        <ele>525.01999999999998</ele>
        <time>2013-09-04T11:47:34Z</time>
      </trkpt>
      <trkpt lat="50.670076031237841" lon="13.451967034488916">
        <ele>526.46000000000004</ele>
        <time>2013-09-04T11:47:35Z</time>
      </trkpt>
      <trkpt lat="50.670439973473549" lon="13.452197033911943">
        <ele>528.38</ele>
        <time>2013-09-04T11:47:38Z</time>
      </trkpt>
      <trkpt lat="50.670553967356682" lon="13.452321002259851">
        <ele>529.82000000000005</ele>
        <time>2013-09-04T11:47:39Z</time>
      </trkpt>
      <trkpt lat="50.671447981148958" lon="13.453872995451093">
        <ele>530.29999999999995</ele>
        <time>2013-09-04T11:47:48Z</time>
      </trkpt>
      <trkpt lat="50.672136973589659" lon="13.455644007772207">
        <ele>528.86000000000001</ele>
        <time>2013-09-04T11:47:57Z</time>
      </trkpt>
      <trkpt lat="50.672388011589646" lon="13.456297963857651">
        <ele>528.38</ele>
        <time>2013-09-04T11:48:01Z</time>
      </trkpt>
      <trkpt lat="50.67246001213789" lon="13.456427967175841">
        <ele>527.89999999999998</ele>
        <time>2013-09-04T11:48:02Z</time>
      </trkpt>
      <trkpt lat="50.672535030171275" lon="13.456527963280678">
        <ele>528.38</ele>
        <time>2013-09-04T11:48:03Z</time>
      </trkpt>
      <trkpt lat="50.672617005184293" lon="13.45661798492074">
        <ele>528.38</ele>
        <time>2013-09-04T11:48:04Z</time>
      </trkpt>
      <trkpt lat="50.67269797436893" lon="13.456738013774157">
        <ele>527.89999999999998</ele>
        <time>2013-09-04T11:48:05Z</time>
      </trkpt>
      <trkpt lat="50.672775004059076" lon="13.456877991557121">
        <ele>527.41999999999996</ele>
        <time>2013-09-04T11:48:06Z</time>
      </trkpt>
      <trkpt lat="50.67293400876224" lon="13.457192983478308">
        <ele>526.94000000000005</ele>
        <time>2013-09-04T11:48:08Z</time>
      </trkpt>
      <trkpt lat="50.673284037038684" lon="13.458374999463558">
        <ele>525.5</ele>
        <time>2013-09-04T11:48:15Z</time>
      </trkpt>
      <trkpt lat="50.673307003453374" lon="13.458905993029475">
        <ele>525.01999999999998</ele>
        <time>2013-09-04T11:48:18Z</time>
      </trkpt>
      <trkpt lat="50.67327699624002" lon="13.45910900272429">
        <ele>524.53999999999996</ele>
        <time>2013-09-04T11:48:19Z</time>
      </trkpt>
      <trkpt lat="50.673129977658391" lon="13.45988298766315">
        <ele>525.01999999999998</ele>
        <time>2013-09-04T11:48:23Z</time>
      </trkpt>
      <trkpt lat="50.673140035942197" lon="13.461172040551901">
        <ele>526.94000000000005</ele>
        <time>2013-09-04T11:48:30Z</time>
      </trkpt>
      <trkpt lat="50.67317197099328" lon="13.461350994184613">
        <ele>526.94000000000005</ele>
        <time>2013-09-04T11:48:31Z</time>
      </trkpt>
      <trkpt lat="50.673256041482091" lon="13.461690964177251">
        <ele>527.89999999999998</ele>
        <time>2013-09-04T11:48:33Z</time>
      </trkpt>
      <trkpt lat="50.673842020332813" lon="13.463214039802551">
        <ele>531.75</ele>
        <time>2013-09-04T11:48:44Z</time>
      </trkpt>
      <trkpt lat="50.674000019207597" lon="13.463518973439932">
        <ele>532.23000000000002</ele>
        <time>2013-09-04T11:48:48Z</time>
      </trkpt>
      <trkpt lat="50.674125999212265" lon="13.46368501894176">
        <ele>533.66999999999996</ele>
        <time>2013-09-04T11:48:53Z</time>
      </trkpt>
      <trkpt lat="50.674128010869026" lon="13.463759031146765">
        <ele>533.19000000000005</ele>
        <time>2013-09-04T11:48:54Z</time>
      </trkpt>
      <trkpt lat="50.674058021977544" lon="13.464710963889956">
        <ele>536.07000000000005</ele>
        <time>2013-09-04T11:49:02Z</time>
      </trkpt>
      <trkpt lat="50.674023991450667" lon="13.464956972748041">
        <ele>536.07000000000005</ele>
        <time>2013-09-04T11:49:04Z</time>
      </trkpt>
      <trkpt lat="50.673945033922791" lon="13.465239023789763">
        <ele>537.50999999999999</ele>
        <time>2013-09-04T11:49:07Z</time>
      </trkpt>
      <trkpt lat="50.673933969810605" lon="13.465303983539343">
        <ele>537.99000000000001</ele>
        <time>2013-09-04T11:49:08Z</time>
      </trkpt>
      <trkpt lat="50.673946039751172" lon="13.465357962995768">
        <ele>538.96000000000004</ele>
        <time>2013-09-04T11:49:09Z</time>
      </trkpt>
      <trkpt lat="50.673972023651004" lon="13.465402973815799">
        <ele>538.96000000000004</ele>
        <time>2013-09-04T11:49:10Z</time>
      </trkpt>
      <trkpt lat="50.674010999500751" lon="13.465440021827817">
        <ele>539.44000000000005</ele>
        <time>2013-09-04T11:49:11Z</time>
      </trkpt>
      <trkpt lat="50.674055004492402" lon="13.465480003505945">
        <ele>539.91999999999996</ele>
        <time>2013-09-04T11:49:12Z</time>
      </trkpt>
      <trkpt lat="50.674149971455336" lon="13.465544963255525">
        <ele>540.39999999999998</ele>
        <time>2013-09-04T11:49:14Z</time>
      </trkpt>
      <trkpt lat="50.674182996153831" lon="13.465595003217459">
        <ele>541.84000000000003</ele>
        <time>2013-09-04T11:49:21Z</time>
      </trkpt>
      <trkpt lat="50.674175033345819" lon="13.465552004054189">
        <ele>541.84000000000003</ele>
        <time>2013-09-04T11:50:09Z</time>
      </trkpt>
      <trkpt lat="50.674187019467354" lon="13.465558039024472">
        <ele>541.84000000000003</ele>
        <time>2013-09-04T11:50:49Z</time>
      </trkpt>
      <trkpt lat="50.674177967011929" lon="13.465542029589415">
        <ele>542.32000000000005</ele>
        <time>2013-09-04T11:51:21Z</time>
      </trkpt>
      <trkpt lat="50.674145026132464" lon="13.465562984347343">
        <ele>542.32000000000005</ele>
        <time>2013-09-04T11:51:54Z</time>
      </trkpt>
      <trkpt lat="50.674160029739141" lon="13.465566001832485">
        <ele>542.32000000000005</ele>
        <time>2013-09-04T11:52:33Z</time>
      </trkpt>
      <trkpt lat="50.674159023910761" lon="13.465560972690582">
        <ele>542.32000000000005</ele>
        <time>2013-09-04T11:53:08Z</time>
      </trkpt>
      <trkpt lat="50.674178972840309" lon="13.465506993234158">
        <ele>541.84000000000003</ele>
        <time>2013-09-04T11:53:43Z</time>
      </trkpt>
      <trkpt lat="50.674303025007248" lon="13.465613024309278">
        <ele>540.88</ele>
        <time>2013-09-04T11:54:05Z</time>
      </trkpt>
      <trkpt lat="50.674541993066669" lon="13.465777980163693">
        <ele>540.39999999999998</ele>
        <time>2013-09-04T11:54:09Z</time>
      </trkpt>
      <trkpt lat="50.6751689594239" lon="13.466209983453155">
        <ele>540.39999999999998</ele>
        <time>2013-09-04T11:54:15Z</time>
      </trkpt>
      <trkpt lat="50.675290999934077" lon="13.466240996494889">
        <ele>540.39999999999998</ele>
        <time>2013-09-04T11:54:16Z</time>
      </trkpt>
      <trkpt lat="50.676276963204145" lon="13.466503014788032">
        <ele>543.27999999999997</ele>
        <time>2013-09-04T11:54:24Z</time>
      </trkpt>
      <trkpt lat="50.677151028066874" lon="13.466739971190691">
        <ele>545.20000000000005</ele>
        <time>2013-09-04T11:54:31Z</time>
      </trkpt>
      <trkpt lat="50.677252030000091" lon="13.466829992830753">
        <ele>545.20000000000005</ele>
        <time>2013-09-04T11:54:32Z</time>
      </trkpt>
      <trkpt lat="50.677349008619785" lon="13.466933006420732">
        <ele>546.16999999999996</ele>
        <time>2013-09-04T11:54:33Z</time>
      </trkpt>
      <trkpt lat="50.677451016381383" lon="13.467091005295515">
        <ele>545.20000000000005</ele>
        <time>2013-09-04T11:54:34Z</time>
      </trkpt>
      <trkpt lat="50.677544977515936" lon="13.467247998341918">
        <ele>545.20000000000005</ele>
        <time>2013-09-04T11:54:35Z</time>
      </trkpt>
      <trkpt lat="50.678517026826739" lon="13.468994032591581">
        <ele>543.27999999999997</ele>
        <time>2013-09-04T11:54:46Z</time>
      </trkpt>
      <trkpt lat="50.678692040964961" lon="13.46927197650075">
        <ele>543.27999999999997</ele>
        <time>2013-09-04T11:54:48Z</time>
      </trkpt>
      <trkpt lat="50.678796982392669" lon="13.469382030889392">
        <ele>542.79999999999995</ele>
        <time>2013-09-04T11:54:49Z</time>
      </trkpt>
      <trkpt lat="50.678914999589324" lon="13.469471968710423">
        <ele>542.32000000000005</ele>
        <time>2013-09-04T11:54:50Z</time>
      </trkpt>
      <trkpt lat="50.679047014564276" lon="13.469544975087047">
        <ele>541.84000000000003</ele>
        <time>2013-09-04T11:54:51Z</time>
      </trkpt>
      <trkpt lat="50.679181041195989" lon="13.469600966200233">
        <ele>541.84000000000003</ele>
        <time>2013-09-04T11:54:52Z</time>
      </trkpt>
      <trkpt lat="50.679703988134861" lon="13.469911012798548">
        <ele>541.84000000000003</ele>
        <time>2013-09-04T11:54:56Z</time>
      </trkpt>
      <trkpt lat="50.679844971746206" lon="13.47002299502492">
        <ele>541.36000000000001</ele>
        <time>2013-09-04T11:54:57Z</time>
      </trkpt>
      <trkpt lat="50.681060012429953" lon="13.471192019060254">
        <ele>543.27999999999997</ele>
        <time>2013-09-04T11:55:06Z</time>
      </trkpt>
      <trkpt lat="50.682250997051597" lon="13.472522981464863">
        <ele>543.75999999999999</ele>
        <time>2013-09-04T11:55:16Z</time>
      </trkpt>
      <trkpt lat="50.683020036667585" lon="13.473487989977002">
        <ele>544.72000000000003</ele>
        <time>2013-09-04T11:55:23Z</time>
      </trkpt>
      <trkpt lat="50.683150039985776" lon="13.473596032708883">
        <ele>544.72000000000003</ele>
        <time>2013-09-04T11:55:24Z</time>
      </trkpt>
      <trkpt lat="50.683279037475586" lon="13.473686976358294">
        <ele>544.72000000000003</ele>
        <time>2013-09-04T11:55:25Z</time>
      </trkpt>
      <trkpt lat="50.683427983894944" lon="13.47373902797699">
        <ele>545.69000000000005</ele>
        <time>2013-09-04T11:55:26Z</time>
      </trkpt>
      <trkpt lat="50.683564022183418" lon="13.473793007433414">
        <ele>545.69000000000005</ele>
        <time>2013-09-04T11:55:27Z</time>
      </trkpt>
      <trkpt lat="50.685036974027753" lon="13.474722979590297">
        <ele>548.09000000000003</ele>
        <time>2013-09-04T11:55:38Z</time>
      </trkpt>
      <trkpt lat="50.685535026714206" lon="13.475122964009643">
        <ele>549.52999999999997</ele>
        <time>2013-09-04T11:55:42Z</time>
      </trkpt>
      <trkpt lat="50.685638040304184" lon="13.47526403144002">
        <ele>550.49000000000001</ele>
        <time>2013-09-04T11:55:43Z</time>
      </trkpt>
      <trkpt lat="50.685726972296834" lon="13.47543996758759">
        <ele>550.97000000000003</ele>
        <time>2013-09-04T11:55:44Z</time>
      </trkpt>
      <trkpt lat="50.686625009402633" lon="13.476828010752797">
        <ele>550.49000000000001</ele>
        <time>2013-09-04T11:55:52Z</time>
      </trkpt>
      <trkpt lat="50.687911966815591" lon="13.478635987266898">
        <ele>553.38</ele>
        <time>2013-09-04T11:56:01Z</time>
      </trkpt>
      <trkpt lat="50.688197035342455" lon="13.479009987786412">
        <ele>554.82000000000005</ele>
        <time>2013-09-04T11:56:03Z</time>
      </trkpt>
      <trkpt lat="50.688318992033601" lon="13.479222971946001">
        <ele>555.29999999999995</ele>
        <time>2013-09-04T11:56:04Z</time>
      </trkpt>
      <trkpt lat="50.689104963093996" lon="13.480888037011027">
        <ele>557.22000000000003</ele>
        <time>2013-09-04T11:56:11Z</time>
      </trkpt>
      <trkpt lat="50.689248964190483" lon="13.481034971773624">
        <ele>557.70000000000005</ele>
        <time>2013-09-04T11:56:12Z</time>
      </trkpt>
      <trkpt lat="50.689401011914015" lon="13.481163969263434">
        <ele>559.13999999999999</ele>
        <time>2013-09-04T11:56:13Z</time>
      </trkpt>
      <trkpt lat="50.689534032717347" lon="13.481275029480457">
        <ele>559.62</ele>
        <time>2013-09-04T11:56:14Z</time>
      </trkpt>
      <trkpt lat="50.689751040190458" lon="13.481504023075104">
        <ele>560.11000000000001</ele>
        <time>2013-09-04T11:56:16Z</time>
      </trkpt>
      <trkpt lat="50.689827986061573" lon="13.481653975322843">
        <ele>560.11000000000001</ele>
        <time>2013-09-04T11:56:17Z</time>
      </trkpt>
      <trkpt lat="50.689866039901972" lon="13.481844998896122">
        <ele>560.11000000000001</ele>
        <time>2013-09-04T11:56:18Z</time>
      </trkpt>
      <trkpt lat="50.689872996881604" lon="13.482068041339517">
        <ele>560.59000000000003</ele>
        <time>2013-09-04T11:56:19Z</time>
      </trkpt>
      <trkpt lat="50.689870985224843" lon="13.482297034934163">
        <ele>561.07000000000005</ele>
        <time>2013-09-04T11:56:20Z</time>
      </trkpt>
      <trkpt lat="50.689860004931688" lon="13.482558969408274">
        <ele>561.54999999999995</ele>
        <time>2013-09-04T11:56:21Z</time>
      </trkpt>
      <trkpt lat="50.689967963844538" lon="13.484426960349083">
        <ele>561.07000000000005</ele>
        <time>2013-09-04T11:56:28Z</time>
      </trkpt>
      <trkpt lat="50.690011968836188" lon="13.484673975035548">
        <ele>560.59000000000003</ele>
        <time>2013-09-04T11:56:29Z</time>
      </trkpt>
      <trkpt lat="50.69007801823318" lon="13.484892994165421">
        <ele>561.07000000000005</ele>
        <time>2013-09-04T11:56:30Z</time>
      </trkpt>
      <trkpt lat="50.690144989639521" lon="13.485094998031855">
        <ele>561.54999999999995</ele>
        <time>2013-09-04T11:56:31Z</time>
      </trkpt>
      <trkpt lat="50.690210033208132" lon="13.485286021605134">
        <ele>561.54999999999995</ele>
        <time>2013-09-04T11:56:32Z</time>
      </trkpt>
      <trkpt lat="50.69070003926754" lon="13.48710598424077">
        <ele>562.99000000000001</ele>
        <time>2013-09-04T11:56:41Z</time>
      </trkpt>
      <trkpt lat="50.690857032313943" lon="13.487441008910537">
        <ele>562.99000000000001</ele>
        <time>2013-09-04T11:56:43Z</time>
      </trkpt>
      <trkpt lat="50.690957028418779" lon="13.487573023885489">
        <ele>563.47000000000003</ele>
        <time>2013-09-04T11:56:44Z</time>
      </trkpt>
      <trkpt lat="50.691064987331629" lon="13.487671008333564">
        <ele>563.47000000000003</ele>
        <time>2013-09-04T11:56:45Z</time>
      </trkpt>
      <trkpt lat="50.691189961507916" lon="13.487723981961608">
        <ele>564.90999999999997</ele>
        <time>2013-09-04T11:56:46Z</time>
      </trkpt>
      <trkpt lat="50.691298004239798" lon="13.487773016095161">
        <ele>565.38999999999999</ele>
        <time>2013-09-04T11:56:47Z</time>
      </trkpt>
      <trkpt lat="50.691505959257483" lon="13.487906036898494">
        <ele>565.38999999999999</ele>
        <time>2013-09-04T11:56:49Z</time>
      </trkpt>
      <trkpt lat="50.691609978675842" lon="13.487981976941228">
        <ele>564.42999999999995</ele>
        <time>2013-09-04T11:56:50Z</time>
      </trkpt>
      <trkpt lat="50.691706035286188" lon="13.488082978874445">
        <ele>564.42999999999995</ele>
        <time>2013-09-04T11:56:51Z</time>
      </trkpt>
      <trkpt lat="50.691765965893865" lon="13.488196972757578">
        <ele>563.47000000000003</ele>
        <time>2013-09-04T11:56:52Z</time>
      </trkpt>
      <trkpt lat="50.691805025562644" lon="13.488283976912498">
        <ele>562.50999999999999</ele>
        <time>2013-09-04T11:56:53Z</time>
      </trkpt>
      <trkpt lat="50.691836038604379" lon="13.488340973854065">
        <ele>562.02999999999997</ele>
        <time>2013-09-04T11:56:54Z</time>
      </trkpt>
      <trkpt lat="50.69186101667583" lon="13.488382967188954">
        <ele>561.54999999999995</ele>
        <time>2013-09-04T11:56:55Z</time>
      </trkpt>
      <trkpt lat="50.691895969212055" lon="13.488387996330857">
        <ele>560.59000000000003</ele>
        <time>2013-09-04T11:56:56Z</time>
      </trkpt>
      <trkpt lat="50.691941985860467" lon="13.488365029916167">
        <ele>560.11000000000001</ele>
        <time>2013-09-04T11:56:57Z</time>
      </trkpt>
      <trkpt lat="50.691994037479162" lon="13.488293029367924">
        <ele>559.62</ele>
        <time>2013-09-04T11:56:58Z</time>
      </trkpt>
      <trkpt lat="50.692048016935587" lon="13.488205019384623">
        <ele>559.13999999999999</ele>
        <time>2013-09-04T11:56:59Z</time>
      </trkpt>
      <trkpt lat="50.692253960296512" lon="13.487901007756591">
        <ele>559.13999999999999</ele>
        <time>2013-09-04T11:57:02Z</time>
      </trkpt>
      <trkpt lat="50.693210000172257" lon="13.4870629850775">
        <ele>558.17999999999995</ele>
        <time>2013-09-04T11:57:11Z</time>
      </trkpt>
      <trkpt lat="50.693824980407953" lon="13.486772971227765">
        <ele>559.62</ele>
        <time>2013-09-04T11:57:16Z</time>
      </trkpt>
      <trkpt lat="50.693950960412621" lon="13.486776994541287">
        <ele>559.62</ele>
        <time>2013-09-04T11:57:17Z</time>
      </trkpt>
      <trkpt lat="50.694067971780896" lon="13.486827034503222">
        <ele>560.59000000000003</ele>
        <time>2013-09-04T11:57:18Z</time>
      </trkpt>
      <trkpt lat="50.694175008684397" lon="13.486909009516239">
        <ele>561.54999999999995</ele>
        <time>2013-09-04T11:57:19Z</time>
      </trkpt>
      <trkpt lat="50.694264024496078" lon="13.487010011449456">
        <ele>562.50999999999999</ele>
        <time>2013-09-04T11:57:20Z</time>
      </trkpt>
      <trkpt lat="50.694347005337477" lon="13.487130040302873">
        <ele>563.95000000000005</ele>
        <time>2013-09-04T11:57:21Z</time>
      </trkpt>
      <trkpt lat="50.6944390386343" lon="13.487245962023735">
        <ele>564.90999999999997</ele>
        <time>2013-09-04T11:57:22Z</time>
      </trkpt>
      <trkpt lat="50.694539034739137" lon="13.487345036119223">
        <ele>564.90999999999997</ele>
        <time>2013-09-04T11:57:23Z</time>
      </trkpt>
      <trkpt lat="50.694659985601902" lon="13.487368002533913">
        <ele>566.35000000000002</ele>
        <time>2013-09-04T11:57:24Z</time>
      </trkpt>
      <trkpt lat="50.694786971434951" lon="13.48736397922039">
        <ele>567.79999999999995</ele>
        <time>2013-09-04T11:57:25Z</time>
      </trkpt>
      <trkpt lat="50.694917980581522" lon="13.48729801364243">
        <ele>570.20000000000005</ele>
        <time>2013-09-04T11:57:26Z</time>
      </trkpt>
      <trkpt lat="50.695028034970164" lon="13.487221989780664">
        <ele>570.67999999999995</ele>
        <time>2013-09-04T11:57:27Z</time>
      </trkpt>
      <trkpt lat="50.695135993883014" lon="13.487140014767647">
        <ele>572.12</ele>
        <time>2013-09-04T11:57:28Z</time>
      </trkpt>
      <trkpt lat="50.696147019043565" lon="13.486382961273193">
        <ele>582.70000000000005</ele>
        <time>2013-09-04T11:57:36Z</time>
      </trkpt>
      <trkpt lat="50.6964370328933" lon="13.486305009573698">
        <ele>584.13999999999999</ele>
        <time>2013-09-04T11:57:38Z</time>
      </trkpt>
      <trkpt lat="50.697846030816436" lon="13.486124966293573">
        <ele>592.78999999999996</ele>
        <time>2013-09-04T11:57:48Z</time>
      </trkpt>
      <trkpt lat="50.698749013245106" lon="13.48572900518775">
        <ele>596.14999999999998</ele>
        <time>2013-09-04T11:57:55Z</time>
      </trkpt>
      <trkpt lat="50.69888798519969" lon="13.485746020451188">
        <ele>596.63999999999999</ele>
        <time>2013-09-04T11:57:56Z</time>
      </trkpt>
      <trkpt lat="50.6990169826895" lon="13.485826989635825">
        <ele>596.63999999999999</ele>
        <time>2013-09-04T11:57:57Z</time>
      </trkpt>
      <trkpt lat="50.699139023199677" lon="13.485951041802764">
        <ele>596.63999999999999</ele>
        <time>2013-09-04T11:57:58Z</time>
      </trkpt>
      <trkpt lat="50.699249999597669" lon="13.486083978787065">
        <ele>597.12</ele>
        <time>2013-09-04T11:57:59Z</time>
      </trkpt>
      <trkpt lat="50.700652040541172" lon="13.487504040822387">
        <ele>605.76999999999998</ele>
        <time>2013-09-04T11:58:10Z</time>
      </trkpt>
      <trkpt lat="50.701740011572838" lon="13.488463014364243">
        <ele>611.05999999999995</ele>
        <time>2013-09-04T11:58:18Z</time>
      </trkpt>
      <trkpt lat="50.702573005110025" lon="13.488849001005292">
        <ele>605.28999999999996</ele>
        <time>2013-09-04T11:58:24Z</time>
      </trkpt>
      <trkpt lat="50.703159989789128" lon="13.489492982625961">
        <ele>599.51999999999998</ele>
        <time>2013-09-04T11:58:29Z</time>
      </trkpt>
      <trkpt lat="50.703230984508991" lon="13.489689035341144">
        <ele>598.08000000000004</ele>
        <time>2013-09-04T11:58:30Z</time>
      </trkpt>
      <trkpt lat="50.703382026404142" lon="13.490049038082361">
        <ele>596.14999999999998</ele>
        <time>2013-09-04T11:58:32Z</time>
      </trkpt>
      <trkpt lat="50.703470036387444" lon="13.490197984501719">
        <ele>595.66999999999996</ele>
        <time>2013-09-04T11:58:33Z</time>
      </trkpt>
      <trkpt lat="50.703569026663899" lon="13.490316001698375">
        <ele>594.71000000000004</ele>
        <time>2013-09-04T11:58:34Z</time>
      </trkpt>
      <trkpt lat="50.703788967803121" lon="13.490553963929415">
        <ele>593.26999999999998</ele>
        <time>2013-09-04T11:58:36Z</time>
      </trkpt>
      <trkpt lat="50.703889969736338" lon="13.490690002217889">
        <ele>592.78999999999996</ele>
        <time>2013-09-04T11:58:37Z</time>
      </trkpt>
      <trkpt lat="50.704480977728963" lon="13.49155199714005">
        <ele>591.35000000000002</ele>
        <time>2013-09-04T11:58:43Z</time>
      </trkpt>
      <trkpt lat="50.704592959955335" lon="13.491661967709661">
        <ele>591.35000000000002</ele>
        <time>2013-09-04T11:58:44Z</time>
      </trkpt>
      <trkpt lat="50.704816002398729" lon="13.491878975182772">
        <ele>590.87</ele>
        <time>2013-09-04T11:58:46Z</time>
      </trkpt>
      <trkpt lat="50.704889008775353" lon="13.4920259937644">
        <ele>590.87</ele>
        <time>2013-09-04T11:58:47Z</time>
      </trkpt>
      <trkpt lat="50.704935025423765" lon="13.492210982367396">
        <ele>590.38999999999999</ele>
        <time>2013-09-04T11:58:48Z</time>
      </trkpt>
      <trkpt lat="50.705398041754961" lon="13.493693992495537">
        <ele>591.83000000000004</ele>
        <time>2013-09-04T11:58:56Z</time>
      </trkpt>
      <trkpt lat="50.705435005947948" lon="13.493903037160635">
        <ele>591.83000000000004</ele>
        <time>2013-09-04T11:58:57Z</time>
      </trkpt>
      <trkpt lat="50.705852005630732" lon="13.495928021147847">
        <ele>599.03999999999996</ele>
        <time>2013-09-04T11:59:07Z</time>
      </trkpt>
      <trkpt lat="50.705917971208692" lon="13.49610798060894">
        <ele>599.51999999999998</ele>
        <time>2013-09-04T11:59:08Z</time>
      </trkpt>
      <trkpt lat="50.70610698312521" lon="13.49664400331676">
        <ele>601.91999999999996</ele>
        <time>2013-09-04T11:59:11Z</time>
      </trkpt>
      <trkpt lat="50.706140007823706" lon="13.496843995526433">
        <ele>602.39999999999998</ele>
        <time>2013-09-04T11:59:12Z</time>
      </trkpt>
      <trkpt lat="50.706160962581635" lon="13.497044993564487">
        <ele>602.88</ele>
        <time>2013-09-04T11:59:13Z</time>
      </trkpt>
      <trkpt lat="50.706416023895144" lon="13.49896403029561">
        <ele>606.25</ele>
        <time>2013-09-04T11:59:22Z</time>
      </trkpt>
      <trkpt lat="50.706581985577941" lon="13.499535005539656">
        <ele>608.64999999999998</ele>
        <time>2013-09-04T11:59:25Z</time>
      </trkpt>
      <trkpt lat="50.706642000004649" lon="13.499704990535975">
        <ele>609.61000000000001</ele>
        <time>2013-09-04T11:59:26Z</time>
      </trkpt>
      <trkpt lat="50.706774014979601" lon="13.500000033527613">
        <ele>610.57000000000005</ele>
        <time>2013-09-04T11:59:28Z</time>
      </trkpt>
      <trkpt lat="50.706864958629012" lon="13.500118972733617">
        <ele>611.05999999999995</ele>
        <time>2013-09-04T11:59:29Z</time>
      </trkpt>
      <trkpt lat="50.706975013017654" lon="13.500220980495214">
        <ele>611.53999999999996</ele>
        <time>2013-09-04T11:59:30Z</time>
      </trkpt>
      <trkpt lat="50.707229990512133" lon="13.500369004905224">
        <ele>614.41999999999996</ele>
        <time>2013-09-04T11:59:32Z</time>
      </trkpt>
      <trkpt lat="50.707365022972226" lon="13.500412004068494">
        <ele>614.41999999999996</ele>
        <time>2013-09-04T11:59:33Z</time>
      </trkpt>
      <trkpt lat="50.707509024068713" lon="13.500401023775339">
        <ele>616.34000000000003</ele>
        <time>2013-09-04T11:59:34Z</time>
      </trkpt>
      <trkpt lat="50.708579979836941" lon="13.500429019331932">
        <ele>617.29999999999995</ele>
        <time>2013-09-04T11:59:42Z</time>
      </trkpt>
      <trkpt lat="50.709193032234907" lon="13.500544019043446">
        <ele>617.77999999999997</ele>
        <time>2013-09-04T11:59:47Z</time>
      </trkpt>
      <trkpt lat="50.709293028339744" lon="13.500604033470154">
        <ele>618.25999999999999</ele>
        <time>2013-09-04T11:59:48Z</time>
      </trkpt>
      <trkpt lat="50.709384977817535" lon="13.500691959634423">
        <ele>618.75</ele>
        <time>2013-09-04T11:59:49Z</time>
      </trkpt>
      <trkpt lat="50.709470976144075" lon="13.500800002366304">
        <ele>618.75</ele>
        <time>2013-09-04T11:59:50Z</time>
      </trkpt>
      <trkpt lat="50.709554040804505" lon="13.500928999856114">
        <ele>619.23000000000002</ele>
        <time>2013-09-04T11:59:51Z</time>
      </trkpt>
      <trkpt lat="50.709926029667258" lon="13.50160600617528">
        <ele>619.23000000000002</ele>
        <time>2013-09-04T11:59:56Z</time>
      </trkpt>
      <trkpt lat="50.709932986646891" lon="13.501766016706824">
        <ele>619.71000000000004</ele>
        <time>2013-09-04T11:59:57Z</time>
      </trkpt>
      <trkpt lat="50.709918988868594" lon="13.50194999948144">
        <ele>619.71000000000004</ele>
        <time>2013-09-04T11:59:58Z</time>
      </trkpt>
      <trkpt lat="50.709946984425187" lon="13.502639997750521">
        <ele>621.14999999999998</ele>
        <time>2013-09-04T12:00:02Z</time>
      </trkpt>
      <trkpt lat="50.710276979953051" lon="13.504312019795179">
        <ele>622.59000000000003</ele>
        <time>2013-09-04T12:00:11Z</time>
      </trkpt>
      <trkpt lat="50.710563976317644" lon="13.505442989990115">
        <ele>620.66999999999996</ele>
        <time>2013-09-04T12:00:17Z</time>
      </trkpt>
      <trkpt lat="50.710631031543016" lon="13.505611969158053">
        <ele>620.19000000000005</ele>
        <time>2013-09-04T12:00:18Z</time>
      </trkpt>
      <trkpt lat="50.71070303209126" lon="13.505772985517979">
        <ele>621.14999999999998</ele>
        <time>2013-09-04T12:00:19Z</time>
      </trkpt>
      <trkpt lat="50.710753994062543" lon="13.505956968292594">
        <ele>622.11000000000001</ele>
        <time>2013-09-04T12:00:20Z</time>
      </trkpt>
      <trkpt lat="50.710759023204446" lon="13.506164001300931">
        <ele>621.63</ele>
        <time>2013-09-04T12:00:21Z</time>
      </trkpt>
      <trkpt lat="50.710762040689588" lon="13.506366005167365">
        <ele>621.14999999999998</ele>
        <time>2013-09-04T12:00:22Z</time>
      </trkpt>
      <trkpt lat="50.710775032639503" lon="13.506565997377038">
        <ele>621.63</ele>
        <time>2013-09-04T12:00:23Z</time>
      </trkpt>
      <trkpt lat="50.710957003757358" lon="13.507742984220386">
        <ele>623.54999999999995</ele>
        <time>2013-09-04T12:00:29Z</time>
      </trkpt>
      <trkpt lat="50.711021041497588" lon="13.507927972823381">
        <ele>623.07000000000005</ele>
        <time>2013-09-04T12:00:30Z</time>
      </trkpt>
      <trkpt lat="50.711148027330637" lon="13.508248999714851">
        <ele>624.02999999999997</ele>
        <time>2013-09-04T12:00:32Z</time>
      </trkpt>
      <trkpt lat="50.711211981251836" lon="13.508381014689803">
        <ele>624.02999999999997</ele>
        <time>2013-09-04T12:00:33Z</time>
      </trkpt>
      <trkpt lat="50.711458995938301" lon="13.508862974122167">
        <ele>622.59000000000003</ele>
        <time>2013-09-04T12:00:38Z</time>
      </trkpt>
      <trkpt lat="50.711562009528279" lon="13.508942015469074">
        <ele>624.50999999999999</ele>
        <time>2013-09-04T12:00:45Z</time>
      </trkpt>
      <trkpt lat="50.711547005921602" lon="13.508949978277087">
        <ele>624.99000000000001</ele>
        <time>2013-09-04T12:01:35Z</time>
      </trkpt>
      <trkpt lat="50.711593022570014" lon="13.50897504016757">
        <ele>624.99000000000001</ele>
        <time>2013-09-04T12:01:51Z</time>
      </trkpt>
      <trkpt lat="50.712069030851126" lon="13.509354991838336">
        <ele>625.96000000000004</ele>
        <time>2013-09-04T12:01:59Z</time>
      </trkpt>
      <trkpt lat="50.712769003584981" lon="13.510111961513758">
        <ele>626.44000000000005</ele>
        <time>2013-09-04T12:02:09Z</time>
      </trkpt>
      <trkpt lat="50.712890960276127" lon="13.510261997580528">
        <ele>627.39999999999998</ele>
        <time>2013-09-04T12:02:11Z</time>
      </trkpt>
      <trkpt lat="50.712945023551583" lon="13.51035101339221">
        <ele>627.39999999999998</ele>
        <time>2013-09-04T12:02:12Z</time>
      </trkpt>
      <trkpt lat="50.712991040199995" lon="13.510453021153808">
        <ele>627.39999999999998</ele>
        <time>2013-09-04T12:02:13Z</time>
      </trkpt>
      <trkpt lat="50.713311983272433" lon="13.511232035234571">
        <ele>628.36000000000001</ele>
        <time>2013-09-04T12:02:20Z</time>
      </trkpt>
      <trkpt lat="50.713379038497806" lon="13.511349968612194">
        <ele>628.36000000000001</ele>
        <time>2013-09-04T12:02:21Z</time>
      </trkpt>
      <trkpt lat="50.713456990197301" lon="13.511457005515695">
        <ele>628.84000000000003</ele>
        <time>2013-09-04T12:02:22Z</time>
      </trkpt>
      <trkpt lat="50.713786985725164" lon="13.511902000755072">
        <ele>628.84000000000003</ele>
        <time>2013-09-04T12:02:26Z</time>
      </trkpt>
      <trkpt lat="50.71418596431613" lon="13.512260997667909">
        <ele>628.84000000000003</ele>
        <time>2013-09-04T12:02:30Z</time>
      </trkpt>
      <trkpt lat="50.714304987341166" lon="13.51230701431632">
        <ele>629.32000000000005</ele>
        <time>2013-09-04T12:02:31Z</time>
      </trkpt>
      <trkpt lat="50.714425016194582" lon="13.51232998073101">
        <ele>629.32000000000005</ele>
        <time>2013-09-04T12:02:32Z</time>
      </trkpt>
      <trkpt lat="50.714545967057347" lon="13.512326963245869">
        <ele>629.79999999999995</ele>
        <time>2013-09-04T12:02:33Z</time>
      </trkpt>
      <trkpt lat="50.714675970375538" lon="13.512311959639192">
        <ele>630.27999999999997</ele>
        <time>2013-09-04T12:02:34Z</time>
      </trkpt>
      <trkpt lat="50.714932959526777" lon="13.512310031801462">
        <ele>631.24000000000001</ele>
        <time>2013-09-04T12:02:36Z</time>
      </trkpt>
      <trkpt lat="50.715049970895052" lon="13.512354958802462">
        <ele>632.20000000000005</ele>
        <time>2013-09-04T12:02:37Z</time>
      </trkpt>
      <trkpt lat="50.715162036940455" lon="13.512425031512976">
        <ele>633.64999999999998</ele>
        <time>2013-09-04T12:02:38Z</time>
      </trkpt>
      <trkpt lat="50.715260021388531" lon="13.512552017346025">
        <ele>634.13</ele>
        <time>2013-09-04T12:02:39Z</time>
      </trkpt>
      <trkpt lat="50.715346019715071" lon="13.512732982635498">
        <ele>634.61000000000001</ele>
        <time>2013-09-04T12:02:40Z</time>
      </trkpt>
      <trkpt lat="50.715420031920075" lon="13.512960970401764">
        <ele>635.09000000000003</ele>
        <time>2013-09-04T12:02:41Z</time>
      </trkpt>
      <trkpt lat="50.715482980012894" lon="13.513234974816442">
        <ele>635.57000000000005</ele>
        <time>2013-09-04T12:02:42Z</time>
      </trkpt>
      <trkpt lat="50.715535031631589" lon="13.513540998101234">
        <ele>636.52999999999997</ele>
        <time>2013-09-04T12:02:43Z</time>
      </trkpt>
      <trkpt lat="50.715568978339434" lon="13.513876022771001">
        <ele>637.49000000000001</ele>
        <time>2013-09-04T12:02:44Z</time>
      </trkpt>
      <trkpt lat="50.715592028573155" lon="13.514203000813723">
        <ele>638.45000000000005</ele>
        <time>2013-09-04T12:02:45Z</time>
      </trkpt>
      <trkpt lat="50.715637039393187" lon="13.515169015154243">
        <ele>642.29999999999995</ele>
        <time>2013-09-04T12:02:48Z</time>
      </trkpt>
      <trkpt lat="50.715690013021231" lon="13.515484007075429">
        <ele>644.22000000000003</ele>
        <time>2013-09-04T12:02:49Z</time>
      </trkpt>
      <trkpt lat="50.715772993862629" lon="13.515795981511474">
        <ele>646.62</ele>
        <time>2013-09-04T12:02:50Z</time>
      </trkpt>
      <trkpt lat="50.71674101985991" lon="13.518328992649913">
        <ele>666.80999999999995</ele>
        <time>2013-09-04T12:02:59Z</time>
      </trkpt>
      <trkpt lat="50.71697898209095" lon="13.518861997872591">
        <ele>668.25</ele>
        <time>2013-09-04T12:03:01Z</time>
      </trkpt>
      <trkpt lat="50.717121977359056" lon="13.519114041700959">
        <ele>669.22000000000003</ele>
        <time>2013-09-04T12:03:02Z</time>
      </trkpt>
      <trkpt lat="50.717835025861859" lon="13.520318018272519">
        <ele>672.58000000000004</ele>
        <time>2013-09-04T12:03:07Z</time>
      </trkpt>
      <trkpt lat="50.717995958402753" lon="13.520505018532276">
        <ele>674.01999999999998</ele>
        <time>2013-09-04T12:03:08Z</time>
      </trkpt>
      <trkpt lat="50.718168960884213" lon="13.520638961344957">
        <ele>676.90999999999997</ele>
        <time>2013-09-04T12:03:09Z</time>
      </trkpt>
      <trkpt lat="50.718657961115241" lon="13.521012039855123">
        <ele>683.14999999999998</ele>
        <time>2013-09-04T12:03:12Z</time>
      </trkpt>
      <trkpt lat="50.71895501576364" lon="13.5211790073663">
        <ele>686.51999999999998</ele>
        <time>2013-09-04T12:03:14Z</time>
      </trkpt>
      <trkpt lat="50.719117037951946" lon="13.521185964345932">
        <ele>689.39999999999998</ele>
        <time>2013-09-04T12:03:15Z</time>
      </trkpt>
      <trkpt lat="50.719282999634743" lon="13.52115604095161">
        <ele>691.33000000000004</ele>
        <time>2013-09-04T12:03:16Z</time>
      </trkpt>
      <trkpt lat="50.719458013772964" lon="13.521084962412715">
        <ele>691.33000000000004</ele>
        <time>2013-09-04T12:03:17Z</time>
      </trkpt>
      <trkpt lat="50.719994036480784" lon="13.520868038758636">
        <ele>691.80999999999995</ele>
        <time>2013-09-04T12:03:20Z</time>
      </trkpt>
      <trkpt lat="50.720184976235032" lon="13.520874995738268">
        <ele>691.33000000000004</ele>
        <time>2013-09-04T12:03:21Z</time>
      </trkpt>
      <trkpt lat="50.720385974273086" lon="13.520951019600034">
        <ele>691.80999999999995</ele>
        <time>2013-09-04T12:03:22Z</time>
      </trkpt>
      <trkpt lat="50.720583032816648" lon="13.52107297629118">
        <ele>692.76999999999998</ele>
        <time>2013-09-04T12:03:23Z</time>
      </trkpt>
      <trkpt lat="50.720770033076406" lon="13.521213959902525">
        <ele>693.25</ele>
        <time>2013-09-04T12:03:24Z</time>
      </trkpt>
      <trkpt lat="50.721695981919765" lon="13.522008983418345">
        <ele>696.61000000000001</ele>
        <time>2013-09-04T12:03:29Z</time>
      </trkpt>
      <trkpt lat="50.721839983016253" lon="13.522225990891457">
        <ele>697.09000000000003</ele>
        <time>2013-09-04T12:03:30Z</time>
      </trkpt>
      <trkpt lat="50.722276009619236" lon="13.522910960018635">
        <ele>699.5</ele>
        <time>2013-09-04T12:03:33Z</time>
      </trkpt>
      <trkpt lat="50.722448006272316" lon="13.523096032440662">
        <ele>700.46000000000004</ele>
        <time>2013-09-04T12:03:34Z</time>
      </trkpt>
      <trkpt lat="50.723587023094296" lon="13.524519028142095">
        <ele>712.95000000000005</ele>
        <time>2013-09-04T12:03:41Z</time>
      </trkpt>
      <trkpt lat="50.723735969513655" lon="13.524673003703356">
        <ele>714.39999999999998</ele>
        <time>2013-09-04T12:03:42Z</time>
      </trkpt>
      <trkpt lat="50.723892962560058" lon="13.524779034778476">
        <ele>715.84000000000003</ele>
        <time>2013-09-04T12:03:43Z</time>
      </trkpt>
      <trkpt lat="50.724405013024807" lon="13.525035018101335">
        <ele>718.72000000000003</ele>
        <time>2013-09-04T12:03:46Z</time>
      </trkpt>
      <trkpt lat="50.724568041041493" lon="13.525192011147738">
        <ele>718.72000000000003</ele>
        <time>2013-09-04T12:03:47Z</time>
      </trkpt>
      <trkpt lat="50.725977038964629" lon="13.52646597661078">
        <ele>723.52999999999997</ele>
        <time>2013-09-04T12:03:55Z</time>
      </trkpt>
      <trkpt lat="50.727105997502804" lon="13.527533998712897">
        <ele>727.37</ele>
        <time>2013-09-04T12:04:02Z</time>
      </trkpt>
      <trkpt lat="50.727258967235684" lon="13.527607005089521">
        <ele>727.86000000000001</ele>
        <time>2013-09-04T12:04:03Z</time>
      </trkpt>
      <trkpt lat="50.72742098942399" lon="13.527652015909553">
        <ele>728.34000000000003</ele>
        <time>2013-09-04T12:04:04Z</time>
      </trkpt>
      <trkpt lat="50.727602960541844" lon="13.52764799259603">
        <ele>728.82000000000005</ele>
        <time>2013-09-04T12:04:05Z</time>
      </trkpt>
      <trkpt lat="50.727771017700434" lon="13.527645980939269">
        <ele>729.29999999999995</ele>
        <time>2013-09-04T12:04:06Z</time>
      </trkpt>
      <trkpt lat="50.728380968794227" lon="13.527509020641446">
        <ele>730.74000000000001</ele>
        <time>2013-09-04T12:04:10Z</time>
      </trkpt>
      <trkpt lat="50.728510972112417" lon="13.527469960972667">
        <ele>731.22000000000003</ele>
        <time>2013-09-04T12:04:11Z</time>
      </trkpt>
      <trkpt lat="50.72864399291575" lon="13.52745202369988">
        <ele>731.22000000000003</ele>
        <time>2013-09-04T12:04:12Z</time>
      </trkpt>
      <trkpt lat="50.728775002062321" lon="13.527470966801047">
        <ele>731.70000000000005</ele>
        <time>2013-09-04T12:04:13Z</time>
      </trkpt>
      <trkpt lat="50.728906011208892" lon="13.527528969570994">
        <ele>731.70000000000005</ele>
        <time>2013-09-04T12:04:14Z</time>
      </trkpt>
      <trkpt lat="50.729059986770153" lon="13.527658972889185">
        <ele>731.22000000000003</ele>
        <time>2013-09-04T12:04:15Z</time>
      </trkpt>
      <trkpt lat="50.729200970381498" lon="13.527699960395694">
        <ele>727.86000000000001</ele>
        <time>2013-09-04T12:04:16Z</time>
      </trkpt>
      <trkpt lat="50.729342959821224" lon="13.527858965098858">
        <ele>726.88999999999999</ele>
        <time>2013-09-04T12:04:17Z</time>
      </trkpt>
      <trkpt lat="50.729471035301685" lon="13.528020987287164">
        <ele>725.92999999999995</ele>
        <time>2013-09-04T12:04:18Z</time>
      </trkpt>
      <trkpt lat="50.729598021134734" lon="13.528186026960611">
        <ele>724.97000000000003</ele>
        <time>2013-09-04T12:04:19Z</time>
      </trkpt>
      <trkpt lat="50.729692988097668" lon="13.528391970321536">
        <ele>724.49000000000001</ele>
        <time>2013-09-04T12:04:20Z</time>
      </trkpt>
      <trkpt lat="50.729811005294323" lon="13.528553992509842">
        <ele>722.57000000000005</ele>
        <time>2013-09-04T12:04:21Z</time>
      </trkpt>
      <trkpt lat="50.729903960600495" lon="13.528709979727864">
        <ele>722.09000000000003</ele>
        <time>2013-09-04T12:04:22Z</time>
      </trkpt>
      <trkpt lat="50.729971015825868" lon="13.528869990259409">
        <ele>721.61000000000001</ele>
        <time>2013-09-04T12:04:23Z</time>
      </trkpt>
      <trkpt lat="50.7299779728055" lon="13.529092026874423">
        <ele>720.64999999999998</ele>
        <time>2013-09-04T12:04:24Z</time>
      </trkpt>
      <trkpt lat="50.729965986683965" lon="13.529302999377251">
        <ele>720.64999999999998</ele>
        <time>2013-09-04T12:04:25Z</time>
      </trkpt>
      <trkpt lat="50.72993203997612" lon="13.529477007687092">
        <ele>720.15999999999997</ele>
        <time>2013-09-04T12:04:26Z</time>
      </trkpt>
      <trkpt lat="50.72984897531569" lon="13.529682029038668">
        <ele>719.67999999999995</ele>
        <time>2013-09-04T12:04:27Z</time>
      </trkpt>
      <trkpt lat="50.729721989482641" lon="13.529918985441327">
        <ele>718.72000000000003</ele>
        <time>2013-09-04T12:04:28Z</time>
      </trkpt>
      <trkpt lat="50.729606989771128" lon="13.530092993751168">
        <ele>718.72000000000003</ele>
        <time>2013-09-04T12:04:29Z</time>
      </trkpt>
      <trkpt lat="50.72941898368299" lon="13.530437992885709">
        <ele>717.75999999999999</ele>
        <time>2013-09-04T12:04:31Z</time>
      </trkpt>
      <trkpt lat="50.729338014498353" lon="13.530605966225266">
        <ele>716.79999999999995</ele>
        <time>2013-09-04T12:04:32Z</time>
      </trkpt>
      <trkpt lat="50.729294009506702" lon="13.530814005061984">
        <ele>716.79999999999995</ele>
        <time>2013-09-04T12:04:33Z</time>
      </trkpt>
      <trkpt lat="50.729269031435251" lon="13.531008968129754">
        <ele>716.32000000000005</ele>
        <time>2013-09-04T12:04:34Z</time>
      </trkpt>
      <trkpt lat="50.729268025606871" lon="13.531220024451613">
        <ele>716.32000000000005</ele>
        <time>2013-09-04T12:04:35Z</time>
      </trkpt>
      <trkpt lat="50.729287974536419" lon="13.531435020267963">
        <ele>715.84000000000003</ele>
        <time>2013-09-04T12:04:36Z</time>
      </trkpt>
      <trkpt lat="50.729324016720057" lon="13.531639035791159">
        <ele>715.84000000000003</ele>
        <time>2013-09-04T12:04:37Z</time>
      </trkpt>
      <trkpt lat="50.729352012276649" lon="13.53185897693038">
        <ele>715.84000000000003</ele>
        <time>2013-09-04T12:04:38Z</time>
      </trkpt>
      <trkpt lat="50.729446979239583" lon="13.53222300298512">
        <ele>715.36000000000001</ele>
        <time>2013-09-04T12:04:40Z</time>
      </trkpt>
      <trkpt lat="50.729537000879645" lon="13.532388964667916">
        <ele>712.95000000000005</ele>
        <time>2013-09-04T12:04:41Z</time>
      </trkpt>
      <trkpt lat="50.729693993926048" lon="13.532705968245864">
        <ele>709.59000000000003</ele>
        <time>2013-09-04T12:04:43Z</time>
      </trkpt>
      <trkpt lat="50.729898009449244" lon="13.53299799375236">
        <ele>704.77999999999997</ele>
        <time>2013-09-04T12:04:46Z</time>
      </trkpt>
      <trkpt lat="50.729995993897319" lon="13.53306102566421">
        <ele>703.82000000000005</ele>
        <time>2013-09-04T12:04:47Z</time>
      </trkpt>
      <trkpt lat="50.730076041072607" lon="13.533140989020467">
        <ele>702.86000000000001</ele>
        <time>2013-09-04T12:04:48Z</time>
      </trkpt>
      <trkpt lat="50.730165978893638" lon="13.533180970698595">
        <ele>701.41999999999996</ele>
        <time>2013-09-04T12:04:49Z</time>
      </trkpt>
      <trkpt lat="50.730277039110661" lon="13.533205026760697">
        <ele>699.98000000000002</ele>
        <time>2013-09-04T12:04:50Z</time>
      </trkpt>
      <trkpt lat="50.730402013286948" lon="13.533213995397091">
        <ele>699.01999999999998</ele>
        <time>2013-09-04T12:04:51Z</time>
      </trkpt>
      <trkpt lat="50.730568980798125" lon="13.53321198374033">
        <ele>697.09000000000003</ele>
        <time>2013-09-04T12:04:52Z</time>
      </trkpt>
      <trkpt lat="50.731283035129309" lon="13.533237967640162">
        <ele>688.91999999999996</ele>
        <time>2013-09-04T12:04:56Z</time>
      </trkpt>
      <trkpt lat="50.731455031782389" lon="13.533293036743999">
        <ele>687.48000000000002</ele>
        <time>2013-09-04T12:04:57Z</time>
      </trkpt>
      <trkpt lat="50.732420040294528" lon="13.533591013401747">
        <ele>680.26999999999998</ele>
        <time>2013-09-04T12:05:03Z</time>
      </trkpt>
      <trkpt lat="50.73255599476397" lon="13.533583972603083">
        <ele>679.78999999999996</ele>
        <time>2013-09-04T12:05:04Z</time>
      </trkpt>
      <trkpt lat="50.732698990032077" lon="13.533539967611432">
        <ele>678.35000000000002</ele>
        <time>2013-09-04T12:05:05Z</time>
      </trkpt>
      <trkpt lat="50.732846008613706" lon="13.533467967063189">
        <ele>677.38999999999999</ele>
        <time>2013-09-04T12:05:06Z</time>
      </trkpt>
      <trkpt lat="50.732975006103516" lon="13.533388003706932">
        <ele>676.41999999999996</ele>
        <time>2013-09-04T12:05:07Z</time>
      </trkpt>
      <trkpt lat="50.733094029128551" lon="13.533282978460193">
        <ele>674.98000000000002</ele>
        <time>2013-09-04T12:05:08Z</time>
      </trkpt>
      <trkpt lat="50.733213974162936" lon="13.533156998455524">
        <ele>674.01999999999998</ele>
        <time>2013-09-04T12:05:09Z</time>
      </trkpt>
      <trkpt lat="50.733334003016353" lon="13.533045016229153">
        <ele>673.05999999999995</ele>
        <time>2013-09-04T12:05:10Z</time>
      </trkpt>
      <trkpt lat="50.733461994677782" lon="13.53293496184051">
        <ele>672.10000000000002</ele>
        <time>2013-09-04T12:05:11Z</time>
      </trkpt>
      <trkpt lat="50.733603984117508" lon="13.532860027626157">
        <ele>670.65999999999997</ele>
        <time>2013-09-04T12:05:12Z</time>
      </trkpt>
      <trkpt lat="50.733751002699137" lon="13.532819962128997">
        <ele>669.70000000000005</ele>
        <time>2013-09-04T12:05:13Z</time>
      </trkpt>
      <trkpt lat="50.733906989917159" lon="13.532819040119648">
        <ele>668.25</ele>
        <time>2013-09-04T12:05:14Z</time>
      </trkpt>
      <trkpt lat="50.734092984348536" lon="13.532853992655873">
        <ele>667.28999999999996</ele>
        <time>2013-09-04T12:05:15Z</time>
      </trkpt>
      <trkpt lat="50.73427202180028" lon="13.532881988212466">
        <ele>666.33000000000004</ele>
        <time>2013-09-04T12:05:16Z</time>
      </trkpt>
      <trkpt lat="50.73519897647202" lon="13.532848041504622">
        <ele>653.35000000000002</ele>
        <time>2013-09-04T12:05:20Z</time>
      </trkpt>
      <trkpt lat="50.735405003651977" lon="13.53293102234602">
        <ele>651.42999999999995</ele>
        <time>2013-09-04T12:05:21Z</time>
      </trkpt>
      <trkpt lat="50.735596027225256" lon="13.533043004572392">
        <ele>649.50999999999999</ele>
        <time>2013-09-04T12:05:22Z</time>
      </trkpt>
      <trkpt lat="50.735775986686349" lon="13.533163033425808">
        <ele>647.10000000000002</ele>
        <time>2013-09-04T12:05:23Z</time>
      </trkpt>
      <trkpt lat="50.735917976126075" lon="13.533236039802432">
        <ele>644.70000000000005</ele>
        <time>2013-09-04T12:05:24Z</time>
      </trkpt>
      <trkpt lat="50.735827032476664" lon="13.53301802650094">
        <ele>636.04999999999995</ele>
        <time>2013-09-04T12:05:25Z</time>
      </trkpt>
      <trkpt lat="50.735828960314393" lon="13.5330839920789">
        <ele>633.16999999999996</ele>
        <time>2013-09-04T12:05:26Z</time>
      </trkpt>
      <trkpt lat="50.736219976097345" lon="13.533225981518626">
        <ele>631.72000000000003</ele>
        <time>2013-09-04T12:05:27Z</time>
      </trkpt>
      <trkpt lat="50.736431032419205" lon="13.533368976786733">
        <ele>630.27999999999997</ele>
        <time>2013-09-04T12:05:28Z</time>
      </trkpt>
      <trkpt lat="50.736585007980466" lon="13.533482970669866">
        <ele>629.32000000000005</ele>
        <time>2013-09-04T12:05:29Z</time>
      </trkpt>
      <trkpt lat="50.736705958843231" lon="13.53362001478672">
        <ele>628.36000000000001</ele>
        <time>2013-09-04T12:05:30Z</time>
      </trkpt>
      <trkpt lat="50.73674401268363" lon="13.533846996724606">
        <ele>627.39999999999998</ele>
        <time>2013-09-04T12:05:31Z</time>
      </trkpt>
      <trkpt lat="50.736815007403493" lon="13.534039026126266">
        <ele>626.91999999999996</ele>
        <time>2013-09-04T12:05:32Z</time>
      </trkpt>
      <trkpt lat="50.736906034871936" lon="13.53419803082943">
        <ele>625.96000000000004</ele>
        <time>2013-09-04T12:05:33Z</time>
      </trkpt>
      <trkpt lat="50.737007036805153" lon="13.534343037754297">
        <ele>624.02999999999997</ele>
        <time>2013-09-04T12:05:34Z</time>
      </trkpt>
      <trkpt lat="50.73710803873837" lon="13.534514028578997">
        <ele>622.59000000000003</ele>
        <time>2013-09-04T12:05:35Z</time>
      </trkpt>
      <trkpt lat="50.737225972115993" lon="13.534637996926904">
        <ele>621.63</ele>
        <time>2013-09-04T12:05:36Z</time>
      </trkpt>
      <trkpt lat="50.73810095898807" lon="13.535916991531849">
        <ele>606.25</ele>
        <time>2013-09-04T12:05:45Z</time>
      </trkpt>
      <trkpt lat="50.738199027255177" lon="13.535994021221995">
        <ele>603.85000000000002</ele>
        <time>2013-09-04T12:05:46Z</time>
      </trkpt>
      <trkpt lat="50.738317966461182" lon="13.536008019000292">
        <ele>602.39999999999998</ele>
        <time>2013-09-04T12:05:47Z</time>
      </trkpt>
      <trkpt lat="50.738413017243147" lon="13.536016987636685">
        <ele>600.96000000000004</ele>
        <time>2013-09-04T12:05:48Z</time>
      </trkpt>
      <trkpt lat="50.738458028063178" lon="13.536042971536517">
        <ele>597.12</ele>
        <time>2013-09-04T12:05:49Z</time>
      </trkpt>
      <trkpt lat="50.738533968105912" lon="13.53596200235188">
        <ele>595.66999999999996</ele>
        <time>2013-09-04T12:05:50Z</time>
      </trkpt>
      <trkpt lat="50.738594988361001" lon="13.535850020125508">
        <ele>594.71000000000004</ele>
        <time>2013-09-04T12:05:51Z</time>
      </trkpt>
      <trkpt lat="50.738648967817426" lon="13.535729991272092">
        <ele>593.75</ele>
        <time>2013-09-04T12:05:52Z</time>
      </trkpt>
      <trkpt lat="50.738662965595722" lon="13.535576015710831">
        <ele>591.83000000000004</ele>
        <time>2013-09-04T12:05:53Z</time>
      </trkpt>
      <trkpt lat="50.738604040816426" lon="13.535499991849065">
        <ele>587.01999999999998</ele>
        <time>2013-09-04T12:05:54Z</time>
      </trkpt>
      <trkpt lat="50.73889103718102" lon="13.533830987289548">
        <ele>574.03999999999996</ele>
        <time>2013-09-04T12:06:04Z</time>
      </trkpt>
      <trkpt lat="50.739678014069796" lon="13.530730018392205">
        <ele>559.13999999999999</ele>
        <time>2013-09-04T12:06:21Z</time>
      </trkpt>
      <trkpt lat="50.739803994074464" lon="13.530169017612934">
        <ele>553.86000000000001</ele>
        <time>2013-09-04T12:06:25Z</time>
      </trkpt>
      <trkpt lat="50.739868031814694" lon="13.530102968215942">
        <ele>553.86000000000001</ele>
        <time>2013-09-04T12:06:26Z</time>
      </trkpt>
      <trkpt lat="50.739933997392654" lon="13.530072961002588">
        <ele>553.38</ele>
        <time>2013-09-04T12:06:27Z</time>
      </trkpt>
      <trkpt lat="50.740002980455756" lon="13.530092993751168">
        <ele>553.38</ele>
        <time>2013-09-04T12:06:28Z</time>
      </trkpt>
      <trkpt lat="50.740070035681129" lon="13.530146973207593">
        <ele>553.38</ele>
        <time>2013-09-04T12:06:29Z</time>
      </trkpt>
      <trkpt lat="50.740147987380624" lon="13.530208999291062">
        <ele>552.89999999999998</ele>
        <time>2013-09-04T12:06:30Z</time>
      </trkpt>
      <trkpt lat="50.740325013175607" lon="13.530323999002576">
        <ele>552.40999999999997</ele>
        <time>2013-09-04T12:06:32Z</time>
      </trkpt>
      <trkpt lat="50.740422997623682" lon="13.530374960973859">
        <ele>551.45000000000005</ele>
        <time>2013-09-04T12:06:33Z</time>
      </trkpt>
      <trkpt lat="50.740626007318497" lon="13.530448973178864">
        <ele>550.49000000000001</ele>
        <time>2013-09-04T12:06:35Z</time>
      </trkpt>
      <trkpt lat="50.741037977859378" lon="13.530566990375519">
        <ele>550.00999999999999</ele>
        <time>2013-09-04T12:06:39Z</time>
      </trkpt>
      <trkpt lat="50.741124982014298" lon="13.530633039772511">
        <ele>553.38</ele>
        <time>2013-09-04T12:06:40Z</time>
      </trkpt>
      <trkpt lat="50.741183990612626" lon="13.530748039484024">
        <ele>554.34000000000003</ele>
        <time>2013-09-04T12:06:41Z</time>
      </trkpt>
      <trkpt lat="50.74119103141129" lon="13.530883993953466">
        <ele>555.29999999999995</ele>
        <time>2013-09-04T12:06:42Z</time>
      </trkpt>
      <trkpt lat="50.741197988390923" lon="13.531024977564812">
        <ele>556.25999999999999</ele>
        <time>2013-09-04T12:06:43Z</time>
      </trkpt>
      <trkpt lat="50.741157000884414" lon="13.531188005581498">
        <ele>553.38</ele>
        <time>2013-09-04T12:06:44Z</time>
      </trkpt>
      <trkpt lat="50.741123976185918" lon="13.531352039426565">
        <ele>552.89999999999998</ele>
        <time>2013-09-04T12:06:45Z</time>
      </trkpt>
      <trkpt lat="50.741043007001281" lon="13.531662002205849">
        <ele>552.40999999999997</ele>
        <time>2013-09-04T12:06:47Z</time>
      </trkpt>
      <trkpt lat="50.740977041423321" lon="13.53179301135242">
        <ele>551.92999999999995</ele>
        <time>2013-09-04T12:06:48Z</time>
      </trkpt>
      <trkpt lat="50.740900011733174" lon="13.531919997185469">
        <ele>551.92999999999995</ele>
        <time>2013-09-04T12:06:49Z</time>
      </trkpt>
      <trkpt lat="50.740745030343533" lon="13.532192995771766">
        <ele>551.45000000000005</ele>
        <time>2013-09-04T12:06:51Z</time>
      </trkpt>
      <trkpt lat="50.740686021745205" lon="13.532359041273594">
        <ele>551.45000000000005</ele>
        <time>2013-09-04T12:06:52Z</time>
      </trkpt>
      <trkpt lat="50.740609997883439" lon="13.532557021826506">
        <ele>550.97000000000003</ele>
        <time>2013-09-04T12:06:53Z</time>
      </trkpt>
      <trkpt lat="50.740540008991957" lon="13.532755002379417">
        <ele>550.97000000000003</ele>
        <time>2013-09-04T12:06:54Z</time>
      </trkpt>
      <trkpt lat="50.740472031757236" lon="13.532964969053864">
        <ele>550.49000000000001</ele>
        <time>2013-09-04T12:06:55Z</time>
      </trkpt>
      <trkpt lat="50.740282014012337" lon="13.533925032243133">
        <ele>550.00999999999999</ele>
        <time>2013-09-04T12:06:59Z</time>
      </trkpt>
      <trkpt lat="50.740179000422359" lon="13.53473799303174">
        <ele>548.57000000000005</ele>
        <time>2013-09-04T12:07:02Z</time>
      </trkpt>
      <trkpt lat="50.740114962682128" lon="13.535009985789657">
        <ele>548.57000000000005</ele>
        <time>2013-09-04T12:07:03Z</time>
      </trkpt>
      <trkpt lat="50.739314993843436" lon="13.537517013028264">
        <ele>548.09000000000003</ele>
        <time>2013-09-04T12:07:12Z</time>
      </trkpt>
      <trkpt lat="50.738903023302555" lon="13.539143018424511">
        <ele>548.57000000000005</ele>
        <time>2013-09-04T12:07:18Z</time>
      </trkpt>
      <trkpt lat="50.738905034959316" lon="13.540266025811434">
        <ele>549.04999999999995</ele>
        <time>2013-09-04T12:07:22Z</time>
      </trkpt>
      <trkpt lat="50.739036966115236" lon="13.541681980714202">
        <ele>548.57000000000005</ele>
        <time>2013-09-04T12:07:27Z</time>
      </trkpt>
      <trkpt lat="50.739027997478843" lon="13.541952967643738">
        <ele>549.52999999999997</ele>
        <time>2013-09-04T12:07:28Z</time>
      </trkpt>
      <trkpt lat="50.739004025235772" lon="13.542222026735544">
        <ele>549.04999999999995</ele>
        <time>2013-09-04T12:07:29Z</time>
      </trkpt>
      <trkpt lat="50.738949039950967" lon="13.542499970644712">
        <ele>549.04999999999995</ele>
        <time>2013-09-04T12:07:30Z</time>
      </trkpt>
      <trkpt lat="50.738887013867497" lon="13.542772969231009">
        <ele>549.04999999999995</ele>
        <time>2013-09-04T12:07:31Z</time>
      </trkpt>
      <trkpt lat="50.738814007490873" lon="13.543049991130829">
        <ele>549.52999999999997</ele>
        <time>2013-09-04T12:07:32Z</time>
      </trkpt>
      <trkpt lat="50.738532962277532" lon="13.543875021860003">
        <ele>551.92999999999995</ele>
        <time>2013-09-04T12:07:35Z</time>
      </trkpt>
      <trkpt lat="50.738430032506585" lon="13.544136034324765">
        <ele>551.92999999999995</ele>
        <time>2013-09-04T12:07:36Z</time>
      </trkpt>
      <trkpt lat="50.737677002325654" lon="13.545929007232189">
        <ele>553.38</ele>
        <time>2013-09-04T12:07:43Z</time>
      </trkpt>
      <trkpt lat="50.737623022869229" lon="13.546203011646867">
        <ele>554.82000000000005</ele>
        <time>2013-09-04T12:07:44Z</time>
      </trkpt>
      <trkpt lat="50.737592009827495" lon="13.54649000801146">
        <ele>554.82000000000005</ele>
        <time>2013-09-04T12:07:45Z</time>
      </trkpt>
      <trkpt lat="50.73749796487391" lon="13.548466041684151">
        <ele>557.70000000000005</ele>
        <time>2013-09-04T12:07:53Z</time>
      </trkpt>
      <trkpt lat="50.737221026793122" lon="13.550365967676044">
        <ele>560.11000000000001</ele>
        <time>2013-09-04T12:08:02Z</time>
      </trkpt>
      <trkpt lat="50.736757004633546" lon="13.553299969062209">
        <ele>563.47000000000003</ele>
        <time>2013-09-04T12:08:16Z</time>
      </trkpt>
      <trkpt lat="50.736116962507367" lon="13.555627036839724">
        <ele>568.75999999999999</ele>
        <time>2013-09-04T12:08:28Z</time>
      </trkpt>
      <trkpt lat="50.735920993611217" lon="13.556154007092118">
        <ele>569.24000000000001</ele>
        <time>2013-09-04T12:08:31Z</time>
      </trkpt>
      <trkpt lat="50.735870031639934" lon="13.556353999301791">
        <ele>569.24000000000001</ele>
        <time>2013-09-04T12:08:32Z</time>
      </trkpt>
      <trkpt lat="50.73539100587368" lon="13.558590039610863">
        <ele>568.27999999999997</ele>
        <time>2013-09-04T12:08:43Z</time>
      </trkpt>
      <trkpt lat="50.734700001776218" lon="13.560402961447835">
        <ele>570.67999999999995</ele>
        <time>2013-09-04T12:08:53Z</time>
      </trkpt>
      <trkpt lat="50.734667982906103" lon="13.56060303747654">
        <ele>570.67999999999995</ele>
        <time>2013-09-04T12:08:54Z</time>
      </trkpt>
      <trkpt lat="50.734648033976555" lon="13.560808980837464">
        <ele>570.67999999999995</ele>
        <time>2013-09-04T12:08:55Z</time>
      </trkpt>
      <trkpt lat="50.734735960140824" lon="13.562732040882111">
        <ele>571.15999999999997</ele>
        <time>2013-09-04T12:09:04Z</time>
      </trkpt>
      <trkpt lat="50.735177015885711" lon="13.5643230099231">
        <ele>577.40999999999997</ele>
        <time>2013-09-04T12:09:12Z</time>
      </trkpt>
      <trkpt lat="50.73534800671041" lon="13.564912006258965">
        <ele>579.80999999999995</ele>
        <time>2013-09-04T12:09:15Z</time>
      </trkpt>
      <trkpt lat="50.735380025580525" lon="13.565131025388837">
        <ele>579.33000000000004</ele>
        <time>2013-09-04T12:09:16Z</time>
      </trkpt>
      <trkpt lat="50.735406009480357" lon="13.565349038690329">
        <ele>579.33000000000004</ele>
        <time>2013-09-04T12:09:17Z</time>
      </trkpt>
      <trkpt lat="50.735545987263322" lon="13.568223025649786">
        <ele>586.05999999999995</ele>
        <time>2013-09-04T12:09:30Z</time>
      </trkpt>
      <trkpt lat="50.735356975346804" lon="13.571317959576845">
        <ele>590.38999999999999</ele>
        <time>2013-09-04T12:09:44Z</time>
      </trkpt>
      <trkpt lat="50.735222026705742" lon="13.574643982574344">
        <ele>593.75</ele>
        <time>2013-09-04T12:09:59Z</time>
      </trkpt>
      <trkpt lat="50.735236024484038" lon="13.577770013362169">
        <ele>598.08000000000004</ele>
        <time>2013-09-04T12:10:13Z</time>
      </trkpt>
      <trkpt lat="50.735417995601892" lon="13.578856978565454">
        <ele>598.08000000000004</ele>
        <time>2013-09-04T12:10:18Z</time>
      </trkpt>
      <trkpt lat="50.735428975895047" lon="13.579078009352088">
        <ele>598.08000000000004</ele>
        <time>2013-09-04T12:10:19Z</time>
      </trkpt>
      <trkpt lat="50.73543400503695" lon="13.579293005168438">
        <ele>598.55999999999995</ele>
        <time>2013-09-04T12:10:20Z</time>
      </trkpt>
      <trkpt lat="50.735366027802229" lon="13.581784022971988">
        <ele>600.96000000000004</ele>
        <time>2013-09-04T12:10:31Z</time>
      </trkpt>
      <trkpt lat="50.73543299920857" lon="13.584149982780218">
        <ele>599.03999999999996</ele>
        <time>2013-09-04T12:10:41Z</time>
      </trkpt>
      <trkpt lat="50.735984025523067" lon="13.58634696342051">
        <ele>598.55999999999995</ele>
        <time>2013-09-04T12:10:51Z</time>
      </trkpt>
      <trkpt lat="50.736012021079659" lon="13.586576040834188">
        <ele>598.08000000000004</ele>
        <time>2013-09-04T12:10:52Z</time>
      </trkpt>
      <trkpt lat="50.736033981665969" lon="13.586802016943693">
        <ele>598.55999999999995</ele>
        <time>2013-09-04T12:10:53Z</time>
      </trkpt>
      <trkpt lat="50.736046973615885" lon="13.587025981396437">
        <ele>598.55999999999995</ele>
        <time>2013-09-04T12:10:54Z</time>
      </trkpt>
      <trkpt lat="50.736047979444265" lon="13.587252963334322">
        <ele>598.55999999999995</ele>
        <time>2013-09-04T12:10:55Z</time>
      </trkpt>
      <trkpt lat="50.736027024686337" lon="13.587494026869535">
        <ele>598.55999999999995</ele>
        <time>2013-09-04T12:10:56Z</time>
      </trkpt>
      <trkpt lat="50.736010009422898" lon="13.587714973837137">
        <ele>599.03999999999996</ele>
        <time>2013-09-04T12:10:57Z</time>
      </trkpt>
      <trkpt lat="50.735435010865331" lon="13.590087974444032">
        <ele>604.80999999999995</ele>
        <time>2013-09-04T12:11:08Z</time>
      </trkpt>
      <trkpt lat="50.734806032851338" lon="13.592847967520356">
        <ele>610.57000000000005</ele>
        <time>2013-09-04T12:11:20Z</time>
      </trkpt>
      <trkpt lat="50.734807038679719" lon="13.593129012733698">
        <ele>611.05999999999995</ele>
        <time>2013-09-04T12:11:21Z</time>
      </trkpt>
      <trkpt lat="50.734813995659351" lon="13.593399999663234">
        <ele>611.05999999999995</ele>
        <time>2013-09-04T12:11:22Z</time>
      </trkpt>
      <trkpt lat="50.734836040064692" lon="13.593666041269898">
        <ele>611.53999999999996</ele>
        <time>2013-09-04T12:11:23Z</time>
      </trkpt>
      <trkpt lat="50.734865963459015" lon="13.593926969915628">
        <ele>612.01999999999998</ele>
        <time>2013-09-04T12:11:24Z</time>
      </trkpt>
      <trkpt lat="50.734904017299414" lon="13.594169039279222">
        <ele>612.5</ele>
        <time>2013-09-04T12:11:25Z</time>
      </trkpt>
      <trkpt lat="50.734955985099077" lon="13.594385040923953">
        <ele>612.98000000000002</ele>
        <time>2013-09-04T12:11:26Z</time>
      </trkpt>
      <trkpt lat="50.735032008960843" lon="13.594586038962007">
        <ele>612.98000000000002</ele>
        <time>2013-09-04T12:11:27Z</time>
      </trkpt>
      <trkpt lat="50.735123958438635" lon="13.594770021736622">
        <ele>613.46000000000004</ele>
        <time>2013-09-04T12:11:28Z</time>
      </trkpt>
      <trkpt lat="50.735212974250317" lon="13.594969008117914">
        <ele>613.46000000000004</ele>
        <time>2013-09-04T12:11:29Z</time>
      </trkpt>
      <trkpt lat="50.735484967008233" lon="13.596049016341567">
        <ele>616.82000000000005</ele>
        <time>2013-09-04T12:11:34Z</time>
      </trkpt>
      <trkpt lat="50.735473986715078" lon="13.596259988844395">
        <ele>617.29999999999995</ele>
        <time>2013-09-04T12:11:35Z</time>
      </trkpt>
      <trkpt lat="50.735399974510074" lon="13.596519995480776">
        <ele>617.77999999999997</ele>
        <time>2013-09-04T12:11:36Z</time>
      </trkpt>
      <trkpt lat="50.735215991735458" lon="13.596857031807303">
        <ele>617.77999999999997</ele>
        <time>2013-09-04T12:11:37Z</time>
      </trkpt>
      <trkpt lat="50.735120018944144" lon="13.597083007916808">
        <ele>618.25999999999999</ele>
        <time>2013-09-04T12:11:38Z</time>
      </trkpt>
      <trkpt lat="50.73502304032445" lon="13.597601009532809">
        <ele>619.23000000000002</ele>
        <time>2013-09-04T12:11:40Z</time>
      </trkpt>
      <trkpt lat="50.734554994851351" lon="13.599950959905982">
        <ele>623.07000000000005</ele>
        <time>2013-09-04T12:11:48Z</time>
      </trkpt>
      <trkpt lat="50.734490035101771" lon="13.600453035905957">
        <ele>624.50999999999999</ele>
        <time>2013-09-04T12:11:50Z</time>
      </trkpt>
      <trkpt lat="50.734486011788249" lon="13.600686974823475">
        <ele>624.99000000000001</ele>
        <time>2013-09-04T12:11:51Z</time>
      </trkpt>
      <trkpt lat="50.734503027051687" lon="13.600940024480224">
        <ele>625.96000000000004</ele>
        <time>2013-09-04T12:11:52Z</time>
      </trkpt>
      <trkpt lat="50.734610985964537" lon="13.602999038994312">
        <ele>631.24000000000001</ele>
        <time>2013-09-04T12:11:59Z</time>
      </trkpt>
      <trkpt lat="50.734561029821634" lon="13.603536989539862">
        <ele>632.67999999999995</ele>
        <time>2013-09-04T12:12:01Z</time>
      </trkpt>
      <trkpt lat="50.73450998403132" lon="13.603833960369229">
        <ele>633.64999999999998</ele>
        <time>2013-09-04T12:12:02Z</time>
      </trkpt>
      <trkpt lat="50.734045961871743" lon="13.605994982644916">
        <ele>638.45000000000005</ele>
        <time>2013-09-04T12:12:10Z</time>
      </trkpt>
      <trkpt lat="50.733958035707474" lon="13.606192963197827">
        <ele>638.92999999999995</ele>
        <time>2013-09-04T12:12:11Z</time>
      </trkpt>
      <trkpt lat="50.733858961611986" lon="13.606385998427868">
        <ele>639.40999999999997</ele>
        <time>2013-09-04T12:12:12Z</time>
      </trkpt>
      <trkpt lat="50.733358981087804" lon="13.607071973383427">
        <ele>642.77999999999997</ele>
        <time>2013-09-04T12:12:16Z</time>
      </trkpt>
      <trkpt lat="50.733223026618361" lon="13.607203988358378">
        <ele>643.25999999999999</ele>
        <time>2013-09-04T12:12:17Z</time>
      </trkpt>
      <trkpt lat="50.73307097889483" lon="13.60731496475637">
        <ele>644.22000000000003</ele>
        <time>2013-09-04T12:12:18Z</time>
      </trkpt>
      <trkpt lat="50.731971021741629" lon="13.608340993523598">
        <ele>650.47000000000003</ele>
        <time>2013-09-04T12:12:25Z</time>
      </trkpt>
      <trkpt lat="50.731816962361336" lon="13.608464039862156">
        <ele>650.95000000000005</ele>
        <time>2013-09-04T12:12:26Z</time>
      </trkpt>
      <trkpt lat="50.731668015941978" lon="13.608559006825089">
        <ele>651.42999999999995</ele>
        <time>2013-09-04T12:12:27Z</time>
      </trkpt>
      <trkpt lat="50.731525020673871" lon="13.608619021251798">
        <ele>651.90999999999997</ele>
        <time>2013-09-04T12:12:28Z</time>
      </trkpt>
      <trkpt lat="50.73135201819241" lon="13.6086689773947">
        <ele>652.38999999999999</ele>
        <time>2013-09-04T12:12:29Z</time>
      </trkpt>
      <trkpt lat="50.729843024164438" lon="13.609177004545927">
        <ele>656.24000000000001</ele>
        <time>2013-09-04T12:12:37Z</time>
      </trkpt>
      <trkpt lat="50.729690976440907" lon="13.609332991763949">
        <ele>655.27999999999997</ele>
        <time>2013-09-04T12:12:38Z</time>
      </trkpt>
      <trkpt lat="50.729387970641255" lon="13.609640020877123">
        <ele>654.79999999999995</ele>
        <time>2013-09-04T12:12:40Z</time>
      </trkpt>
      <trkpt lat="50.728207966312766" lon="13.611055975779891">
        <ele>654.30999999999995</ele>
        <time>2013-09-04T12:12:48Z</time>
      </trkpt>
      <trkpt lat="50.728045022115111" lon="13.611121019348502">
        <ele>654.79999999999995</ele>
        <time>2013-09-04T12:12:49Z</time>
      </trkpt>
      <trkpt lat="50.727833965793252" lon="13.611179022118449">
        <ele>655.75999999999999</ele>
        <time>2013-09-04T12:12:50Z</time>
      </trkpt>
      <trkpt lat="50.72765601798892" lon="13.61120299436152">
        <ele>655.75999999999999</ele>
        <time>2013-09-04T12:12:51Z</time>
      </trkpt>
      <trkpt lat="50.727487960830331" lon="13.611238030716777">
        <ele>656.72000000000003</ele>
        <time>2013-09-04T12:12:52Z</time>
      </trkpt>
      <trkpt lat="50.726955039426684" lon="13.611356969922781">
        <ele>657.20000000000005</ele>
        <time>2013-09-04T12:12:55Z</time>
      </trkpt>
      <trkpt lat="50.726429997012019" lon="13.611628962680697">
        <ele>659.12</ele>
        <time>2013-09-04T12:12:58Z</time>
      </trkpt>
      <trkpt lat="50.726290019229054" lon="13.61178302206099">
        <ele>659.60000000000002</ele>
        <time>2013-09-04T12:12:59Z</time>
      </trkpt>
      <trkpt lat="50.726143000647426" lon="13.611959964036942">
        <ele>659.60000000000002</ele>
        <time>2013-09-04T12:13:00Z</time>
      </trkpt>
      <trkpt lat="50.726005034521222" lon="13.612155010923743">
        <ele>659.60000000000002</ele>
        <time>2013-09-04T12:13:01Z</time>
      </trkpt>
      <trkpt lat="50.725853992626071" lon="13.612379981204867">
        <ele>660.55999999999995</ele>
        <time>2013-09-04T12:13:02Z</time>
      </trkpt>
      <trkpt lat="50.725718960165977" lon="13.61261903308332">
        <ele>661.03999999999996</ele>
        <time>2013-09-04T12:13:03Z</time>
      </trkpt>
      <trkpt lat="50.725600020959973" lon="13.612875016406178">
        <ele>661.51999999999998</ele>
        <time>2013-09-04T12:13:04Z</time>
      </trkpt>
      <trkpt lat="50.725500024855137" lon="13.613142985850573">
        <ele>662.49000000000001</ele>
        <time>2013-09-04T12:13:05Z</time>
      </trkpt>
      <trkpt lat="50.725410003215075" lon="13.613426964730024">
        <ele>662.97000000000003</ele>
        <time>2013-09-04T12:13:06Z</time>
      </trkpt>
      <trkpt lat="50.725344037637115" lon="13.613708009943366">
        <ele>663.45000000000005</ele>
        <time>2013-09-04T12:13:07Z</time>
      </trkpt>
      <trkpt lat="50.725296009331942" lon="13.61399500630796">
        <ele>664.40999999999997</ele>
        <time>2013-09-04T12:13:08Z</time>
      </trkpt>
      <trkpt lat="50.72524999268353" lon="13.614285020157695">
        <ele>664.88999999999999</ele>
        <time>2013-09-04T12:13:09Z</time>
      </trkpt>
      <trkpt lat="50.725114038214087" lon="13.615347007289529">
        <ele>667.28999999999996</ele>
        <time>2013-09-04T12:13:13Z</time>
      </trkpt>
      <trkpt lat="50.725115966051817" lon="13.615627968683839">
        <ele>667.76999999999998</ele>
        <time>2013-09-04T12:13:14Z</time>
      </trkpt>
      <trkpt lat="50.725127030164003" lon="13.615907002240419">
        <ele>668.25</ele>
        <time>2013-09-04T12:13:15Z</time>
      </trkpt>
      <trkpt lat="50.725091993808746" lon="13.618325013667345">
        <ele>673.53999999999996</ele>
        <time>2013-09-04T12:13:23Z</time>
      </trkpt>
      <trkpt lat="50.725031979382038" lon="13.619121965020895">
        <ele>674.01999999999998</ele>
        <time>2013-09-04T12:13:26Z</time>
      </trkpt>
      <trkpt lat="50.724976994097233" lon="13.619362022727728">
        <ele>674.5</ele>
        <time>2013-09-04T12:13:27Z</time>
      </trkpt>
      <trkpt lat="50.724919997155666" lon="13.619576012715697">
        <ele>676.41999999999996</ele>
        <time>2013-09-04T12:13:28Z</time>
      </trkpt>
      <trkpt lat="50.724825030192733" lon="13.619794026017189">
        <ele>675.94000000000005</ele>
        <time>2013-09-04T12:13:29Z</time>
      </trkpt>
      <trkpt lat="50.724724028259516" lon="13.620000975206494">
        <ele>676.41999999999996</ele>
        <time>2013-09-04T12:13:30Z</time>
      </trkpt>
      <trkpt lat="50.723778968676925" lon="13.622339023277164">
        <ele>677.38999999999999</ele>
        <time>2013-09-04T12:13:40Z</time>
      </trkpt>
      <trkpt lat="50.723708979785442" lon="13.622620990499854">
        <ele>677.87</ele>
        <time>2013-09-04T12:13:41Z</time>
      </trkpt>
      <trkpt lat="50.723486021161079" lon="13.623717008158565">
        <ele>677.38999999999999</ele>
        <time>2013-09-04T12:13:45Z</time>
      </trkpt>
      <trkpt lat="50.723473029211164" lon="13.623975003138185">
        <ele>676.90999999999997</ele>
        <time>2013-09-04T12:13:46Z</time>
      </trkpt>
      <trkpt lat="50.723489038646221" lon="13.624396026134491">
        <ele>676.90999999999997</ele>
        <time>2013-09-04T12:13:48Z</time>
      </trkpt>
      <trkpt lat="50.723533965647221" lon="13.62454597838223">
        <ele>676.41999999999996</ele>
        <time>2013-09-04T12:13:49Z</time>
      </trkpt>
      <trkpt lat="50.723604960367084" lon="13.624655026942492">
        <ele>676.41999999999996</ele>
        <time>2013-09-04T12:13:50Z</time>
      </trkpt>
      <trkpt lat="50.723682995885611" lon="13.62473901361227">
        <ele>675.94000000000005</ele>
        <time>2013-09-04T12:13:51Z</time>
      </trkpt>
      <trkpt lat="50.72381098754704" lon="13.624743036925793">
        <ele>676.41999999999996</ele>
        <time>2013-09-04T12:13:52Z</time>
      </trkpt>
      <trkpt lat="50.723949959501624" lon="13.6247150413692">
        <ele>675.94000000000005</ele>
        <time>2013-09-04T12:13:53Z</time>
      </trkpt>
      <trkpt lat="50.724107036367059" lon="13.624649997800589">
        <ele>674.5</ele>
        <time>2013-09-04T12:13:54Z</time>
      </trkpt>
      <trkpt lat="50.724254976958036" lon="13.624565005302429">
        <ele>674.98000000000002</ele>
        <time>2013-09-04T12:13:55Z</time>
      </trkpt>
      <trkpt lat="50.724403001368046" lon="13.624470038339496">
        <ele>675.46000000000004</ele>
        <time>2013-09-04T12:13:56Z</time>
      </trkpt>
      <trkpt lat="50.724678011611104" lon="13.624302987009287">
        <ele>676.41999999999996</ele>
        <time>2013-09-04T12:13:58Z</time>
      </trkpt>
      <trkpt lat="50.724815977737308" lon="13.624270968139172">
        <ele>676.90999999999997</ele>
        <time>2013-09-04T12:13:59Z</time>
      </trkpt>
      <trkpt lat="50.724956961348653" lon="13.624263005331159">
        <ele>677.38999999999999</ele>
        <time>2013-09-04T12:14:00Z</time>
      </trkpt>
      <trkpt lat="50.725737987086177" lon="13.624322013929486">
        <ele>677.87</ele>
        <time>2013-09-04T12:14:05Z</time>
      </trkpt>
      <trkpt lat="50.725897997617722" lon="13.624408012256026">
        <ele>677.87</ele>
        <time>2013-09-04T12:14:06Z</time>
      </trkpt>
      <trkpt lat="50.726081980392337" lon="13.624573973938823">
        <ele>677.38999999999999</ele>
        <time>2013-09-04T12:14:07Z</time>
      </trkpt>
      <trkpt lat="50.726252971217036" lon="13.624750999733806">
        <ele>678.83000000000004</ele>
        <time>2013-09-04T12:14:08Z</time>
      </trkpt>
      <trkpt lat="50.726404013112187" lon="13.624884020537138">
        <ele>679.30999999999995</ele>
        <time>2013-09-04T12:14:09Z</time>
      </trkpt>
      <trkpt lat="50.727528026327491" lon="13.625560021027923">
        <ele>682.66999999999996</ele>
        <time>2013-09-04T12:14:15Z</time>
      </trkpt>
      <trkpt lat="50.728253982961178" lon="13.625891022384167">
        <ele>685.08000000000004</ele>
        <time>2013-09-04T12:14:19Z</time>
      </trkpt>
      <trkpt lat="50.729625010862947" lon="13.625818016007543">
        <ele>686.03999999999996</ele>
        <time>2013-09-04T12:14:26Z</time>
      </trkpt>
      <trkpt lat="50.730031030252576" lon="13.625842994078994">
        <ele>687.48000000000002</ele>
        <time>2013-09-04T12:14:28Z</time>
      </trkpt>
      <trkpt lat="50.731786033138633" lon="13.626326965168118">
        <ele>697.09000000000003</ele>
        <time>2013-09-04T12:14:37Z</time>
      </trkpt>
      <trkpt lat="50.732537973672152" lon="13.62708100117743">
        <ele>708.14999999999998</ele>
        <time>2013-09-04T12:14:41Z</time>
      </trkpt>
      <trkpt lat="50.732707036659122" lon="13.627259032800794">
        <ele>710.07000000000005</ele>
        <time>2013-09-04T12:14:42Z</time>
      </trkpt>
      <trkpt lat="50.733152031898499" lon="13.6278320197016">
        <ele>715.84000000000003</ele>
        <time>2013-09-04T12:14:45Z</time>
      </trkpt>
      <trkpt lat="50.733266025781631" lon="13.628072999417782">
        <ele>717.27999999999997</ele>
        <time>2013-09-04T12:14:46Z</time>
      </trkpt>
      <trkpt lat="50.733365016058087" lon="13.628337029367685">
        <ele>719.20000000000005</ele>
        <time>2013-09-04T12:14:47Z</time>
      </trkpt>
      <trkpt lat="50.733741028234363" lon="13.629413014277816">
        <ele>726.88999999999999</ele>
        <time>2013-09-04T12:14:51Z</time>
      </trkpt>
      <trkpt lat="50.734158027917147" lon="13.630363019183278">
        <ele>732.17999999999995</ele>
        <time>2013-09-04T12:14:55Z</time>
      </trkpt>
      <trkpt lat="50.734279984608293" lon="13.630549013614655">
        <ele>733.13999999999999</ele>
        <time>2013-09-04T12:14:56Z</time>
      </trkpt>
      <trkpt lat="50.734406970441341" lon="13.630716986954212">
        <ele>734.10000000000002</ele>
        <time>2013-09-04T12:14:57Z</time>
      </trkpt>
      <trkpt lat="50.734563963487744" lon="13.630794016644359">
        <ele>734.58000000000004</ele>
        <time>2013-09-04T12:14:58Z</time>
      </trkpt>
      <trkpt lat="50.734716011211276" lon="13.630889989435673">
        <ele>735.54999999999995</ele>
        <time>2013-09-04T12:14:59Z</time>
      </trkpt>
      <trkpt lat="50.735384970903397" lon="13.631404973566532">
        <ele>739.87</ele>
        <time>2013-09-04T12:15:04Z</time>
      </trkpt>
      <trkpt lat="50.735448002815247" lon="13.631626004353166">
        <ele>741.78999999999996</ele>
        <time>2013-09-04T12:15:05Z</time>
      </trkpt>
      <trkpt lat="50.735503993928432" lon="13.631885005161166">
        <ele>743.24000000000001</ele>
        <time>2013-09-04T12:15:06Z</time>
      </trkpt>
      <trkpt lat="50.736004980280995" lon="13.634174019098282">
        <ele>757.65999999999997</ele>
        <time>2013-09-04T12:15:14Z</time>
      </trkpt>
      <trkpt lat="50.736492974683642" lon="13.636191040277481">
        <ele>768.23000000000002</ele>
        <time>2013-09-04T12:15:21Z</time>
      </trkpt>
      <trkpt lat="50.737251034006476" lon="13.637902960181236">
        <ele>777.84000000000003</ele>
        <time>2013-09-04T12:15:28Z</time>
      </trkpt>
      <trkpt lat="50.737379025667906" lon="13.638069005683064">
        <ele>778.80999999999995</ele>
        <time>2013-09-04T12:15:29Z</time>
      </trkpt>
      <trkpt lat="50.737501988187432" lon="13.638199009001255">
        <ele>779.76999999999998</ele>
        <time>2013-09-04T12:15:30Z</time>
      </trkpt>
      <trkpt lat="50.737659987062216" lon="13.638266986235976">
        <ele>780.73000000000002</ele>
        <time>2013-09-04T12:15:31Z</time>
      </trkpt>
      <trkpt lat="50.737803988158703" lon="13.638319037854671">
        <ele>782.16999999999996</ele>
        <time>2013-09-04T12:15:32Z</time>
      </trkpt>
      <trkpt lat="50.737956035882235" lon="13.638351978734136">
        <ele>782.64999999999998</ele>
        <time>2013-09-04T12:15:33Z</time>
      </trkpt>
      <trkpt lat="50.738196009770036" lon="13.638501008972526">
        <ele>784.09000000000003</ele>
        <time>2013-09-04T12:15:35Z</time>
      </trkpt>
      <trkpt lat="50.73826901614666" lon="13.638642998412251">
        <ele>785.52999999999997</ele>
        <time>2013-09-04T12:15:36Z</time>
      </trkpt>
      <trkpt lat="50.73829198256135" lon="13.638805020600557">
        <ele>786.01999999999998</ele>
        <time>2013-09-04T12:15:37Z</time>
      </trkpt>
      <trkpt lat="50.738238003104925" lon="13.639013981446624">
        <ele>786.98000000000002</ele>
        <time>2013-09-04T12:15:38Z</time>
      </trkpt>
      <trkpt lat="50.738168014213443" lon="13.639186983928084">
        <ele>787.46000000000004</ele>
        <time>2013-09-04T12:15:39Z</time>
      </trkpt>
      <trkpt lat="50.738065000623465" lon="13.639373984187841">
        <ele>787.94000000000005</ele>
        <time>2013-09-04T12:15:40Z</time>
      </trkpt>
      <trkpt lat="50.737950000911951" lon="13.639532988891006">
        <ele>787.46000000000004</ele>
        <time>2013-09-04T12:15:41Z</time>
      </trkpt>
      <trkpt lat="50.737319011241198" lon="13.6405089776963">
        <ele>786.01999999999998</ele>
        <time>2013-09-04T12:15:46Z</time>
      </trkpt>
      <trkpt lat="50.736814001575112" lon="13.641222026199102">
        <ele>786.98000000000002</ele>
        <time>2013-09-04T12:15:50Z</time>
      </trkpt>
      <trkpt lat="50.736720040440559" lon="13.641439033672214">
        <ele>787.94000000000005</ele>
        <time>2013-09-04T12:15:51Z</time>
      </trkpt>
      <trkpt lat="50.736650973558426" lon="13.641671966761351">
        <ele>788.41999999999996</ele>
        <time>2013-09-04T12:15:52Z</time>
      </trkpt>
      <trkpt lat="50.736590959131718" lon="13.641903977841139">
        <ele>788.89999999999998</ele>
        <time>2013-09-04T12:15:53Z</time>
      </trkpt>
      <trkpt lat="50.736533962190151" lon="13.642128026112914">
        <ele>789.38</ele>
        <time>2013-09-04T12:15:54Z</time>
      </trkpt>
      <trkpt lat="50.736453998833895" lon="13.642342016100883">
        <ele>790.34000000000003</ele>
        <time>2013-09-04T12:15:55Z</time>
      </trkpt>
      <trkpt lat="50.736356014385819" lon="13.642520969733596">
        <ele>791.29999999999995</ele>
        <time>2013-09-04T12:15:56Z</time>
      </trkpt>
      <trkpt lat="50.736235985532403" lon="13.642692966386676">
        <ele>790.34000000000003</ele>
        <time>2013-09-04T12:15:57Z</time>
      </trkpt>
      <trkpt lat="50.736110005527735" lon="13.642860017716885">
        <ele>789.86000000000001</ele>
        <time>2013-09-04T12:15:58Z</time>
      </trkpt>
      <trkpt lat="50.735481027513742" lon="13.643894009292126">
        <ele>788.89999999999998</ele>
        <time>2013-09-04T12:16:04Z</time>
      </trkpt>
      <trkpt lat="50.73545303195715" lon="13.644085032865405">
        <ele>787.46000000000004</ele>
        <time>2013-09-04T12:16:05Z</time>
      </trkpt>
      <trkpt lat="50.735467029735446" lon="13.644271027296782">
        <ele>785.04999999999995</ele>
        <time>2013-09-04T12:16:06Z</time>
      </trkpt>
      <trkpt lat="50.735521009191871" lon="13.6444410122931">
        <ele>783.61000000000001</ele>
        <time>2013-09-04T12:16:07Z</time>
      </trkpt>
      <trkpt lat="50.735619999468327" lon="13.6445929761976">
        <ele>782.64999999999998</ele>
        <time>2013-09-04T12:16:08Z</time>
      </trkpt>
      <trkpt lat="50.735732987523079" lon="13.644731026142836">
        <ele>782.16999999999996</ele>
        <time>2013-09-04T12:16:09Z</time>
      </trkpt>
      <trkpt lat="50.735848993062973" lon="13.644866980612278">
        <ele>781.69000000000005</ele>
        <time>2013-09-04T12:16:10Z</time>
      </trkpt>
      <trkpt lat="50.737195964902639" lon="13.646554006263614">
        <ele>794.19000000000005</ele>
        <time>2013-09-04T12:16:22Z</time>
      </trkpt>
      <trkpt lat="50.737343989312649" lon="13.646736983209848">
        <ele>796.59000000000003</ele>
        <time>2013-09-04T12:16:24Z</time>
      </trkpt>
      <trkpt lat="50.737384976819158" lon="13.646830022335052">
        <ele>797.54999999999995</ele>
        <time>2013-09-04T12:16:25Z</time>
      </trkpt>
      <trkpt lat="50.737418001517653" lon="13.646907974034548">
        <ele>797.54999999999995</ele>
        <time>2013-09-04T12:16:26Z</time>
      </trkpt>
      <trkpt lat="50.737425964325666" lon="13.646995984017849">
        <ele>798.02999999999997</ele>
        <time>2013-09-04T12:16:27Z</time>
      </trkpt>
      <trkpt lat="50.737413978204131" lon="13.647117018699646">
        <ele>797.54999999999995</ele>
        <time>2013-09-04T12:16:28Z</time>
      </trkpt>
      <trkpt lat="50.737383970990777" lon="13.647265965119004">
        <ele>796.59000000000003</ele>
        <time>2013-09-04T12:16:29Z</time>
      </trkpt>
      <trkpt lat="50.737353041768074" lon="13.647437039762735">
        <ele>796.59000000000003</ele>
        <time>2013-09-04T12:16:30Z</time>
      </trkpt>
      <trkpt lat="50.737168975174427" lon="13.649175027385354">
        <ele>790.34000000000003</ele>
        <time>2013-09-04T12:16:37Z</time>
      </trkpt>
      <trkpt lat="50.737021034583449" lon="13.651924040168524">
        <ele>780.25</ele>
        <time>2013-09-04T12:16:47Z</time>
      </trkpt>
      <trkpt lat="50.737162018194795" lon="13.653384000062943">
        <ele>774.96000000000004</ele>
        <time>2013-09-04T12:16:53Z</time>
      </trkpt>
      <trkpt lat="50.737149026244879" lon="13.653597990050912">
        <ele>773.51999999999998</ele>
        <time>2013-09-04T12:16:54Z</time>
      </trkpt>
      <trkpt lat="50.737113989889622" lon="13.65378700196743">
        <ele>773.03999999999996</ele>
        <time>2013-09-04T12:16:55Z</time>
      </trkpt>
      <trkpt lat="50.737073002383113" lon="13.653941983357072">
        <ele>772.55999999999995</ele>
        <time>2013-09-04T12:16:56Z</time>
      </trkpt>
      <trkpt lat="50.737011982128024" lon="13.654090007767081">
        <ele>772.08000000000004</ele>
        <time>2013-09-04T12:16:57Z</time>
      </trkpt>
      <trkpt lat="50.736940987408161" lon="13.654226968064904">
        <ele>771.60000000000002</ele>
        <time>2013-09-04T12:16:58Z</time>
      </trkpt>
      <trkpt lat="50.736864963546395" lon="13.654350014403462">
        <ele>770.63</ele>
        <time>2013-09-04T12:16:59Z</time>
      </trkpt>
      <trkpt lat="50.736096007749438" lon="13.655565977096558">
        <ele>764.38999999999999</ele>
        <time>2013-09-04T12:17:09Z</time>
      </trkpt>
      <trkpt lat="50.736029958352447" lon="13.655724981799722">
        <ele>762.94000000000005</ele>
        <time>2013-09-04T12:17:10Z</time>
      </trkpt>
      <trkpt lat="50.735983019694686" lon="13.655908964574337">
        <ele>762.46000000000004</ele>
        <time>2013-09-04T12:17:11Z</time>
      </trkpt>
      <trkpt lat="50.735571971163154" lon="13.657867982983589">
        <ele>756.69000000000005</ele>
        <time>2013-09-04T12:17:20Z</time>
      </trkpt>
      <trkpt lat="50.735064027830958" lon="13.660391019657254">
        <ele>757.17999999999995</ele>
        <time>2013-09-04T12:17:32Z</time>
      </trkpt>
      <trkpt lat="50.735000995919108" lon="13.662668969482183">
        <ele>763.89999999999998</ele>
        <time>2013-09-04T12:17:42Z</time>
      </trkpt>
      <trkpt lat="50.734963025897741" lon="13.665021015331149">
        <ele>766.30999999999995</ele>
        <time>2013-09-04T12:17:51Z</time>
      </trkpt>
      <trkpt lat="50.734916003420949" lon="13.665952999144793">
        <ele>768.23000000000002</ele>
        <time>2013-09-04T12:17:54Z</time>
      </trkpt>
      <trkpt lat="50.734864035621285" lon="13.666258016601205">
        <ele>768.71000000000004</ele>
        <time>2013-09-04T12:17:55Z</time>
      </trkpt>
      <trkpt lat="50.734792035073042" lon="13.666555993258953">
        <ele>769.66999999999996</ele>
        <time>2013-09-04T12:17:56Z</time>
      </trkpt>
      <trkpt lat="50.73470301926136" lon="13.666846007108688">
        <ele>769.66999999999996</ele>
        <time>2013-09-04T12:17:57Z</time>
      </trkpt>
      <trkpt lat="50.734598999843001" lon="13.667125040665269">
        <ele>769.66999999999996</ele>
        <time>2013-09-04T12:17:58Z</time>
      </trkpt>
      <trkpt lat="50.734490035101771" lon="13.667394015938044">
        <ele>769.66999999999996</ele>
        <time>2013-09-04T12:17:59Z</time>
      </trkpt>
      <trkpt lat="50.733871031552553" lon="13.669085986912251">
        <ele>767.26999999999998</ele>
        <time>2013-09-04T12:18:05Z</time>
      </trkpt>
      <trkpt lat="50.733743039891124" lon="13.66934297606349">
        <ele>766.78999999999996</ele>
        <time>2013-09-04T12:18:06Z</time>
      </trkpt>
      <trkpt lat="50.73358797468245" lon="13.669570963829756">
        <ele>765.83000000000004</ele>
        <time>2013-09-04T12:18:07Z</time>
      </trkpt>
      <trkpt lat="50.733422012999654" lon="13.669777996838093">
        <ele>764.87</ele>
        <time>2013-09-04T12:18:08Z</time>
      </trkpt>
      <trkpt lat="50.733249010518193" lon="13.669958962127566">
        <ele>766.78999999999996</ele>
        <time>2013-09-04T12:18:09Z</time>
      </trkpt>
      <trkpt lat="50.73259899392724" lon="13.670678967610002">
        <ele>766.30999999999995</ele>
        <time>2013-09-04T12:18:13Z</time>
      </trkpt>
      <trkpt lat="50.732461027801037" lon="13.670906033366919">
        <ele>767.26999999999998</ele>
        <time>2013-09-04T12:18:14Z</time>
      </trkpt>
      <trkpt lat="50.732346028089523" lon="13.671166962012649">
        <ele>767.75</ele>
        <time>2013-09-04T12:18:15Z</time>
      </trkpt>
      <trkpt lat="50.732236979529262" lon="13.671435015276074">
        <ele>767.75</ele>
        <time>2013-09-04T12:18:16Z</time>
      </trkpt>
      <trkpt lat="50.732140000909567" lon="13.671729974448681">
        <ele>768.71000000000004</ele>
        <time>2013-09-04T12:18:17Z</time>
      </trkpt>
      <trkpt lat="50.731553016230464" lon="13.673676000908017">
        <ele>770.63</ele>
        <time>2013-09-04T12:18:24Z</time>
      </trkpt>
      <trkpt lat="50.730799986049533" lon="13.675104025751352">
        <ele>770.63</ele>
        <time>2013-09-04T12:18:31Z</time>
      </trkpt>
      <trkpt lat="50.729828020557761" lon="13.67688400670886">
        <ele>774.96000000000004</ele>
        <time>2013-09-04T12:18:39Z</time>
      </trkpt>
      <trkpt lat="50.729744033887982" lon="13.67714200168848">
        <ele>775.91999999999996</ele>
        <time>2013-09-04T12:18:40Z</time>
      </trkpt>
      <trkpt lat="50.729673039168119" lon="13.677436038851738">
        <ele>776.88</ele>
        <time>2013-09-04T12:18:41Z</time>
      </trkpt>
      <trkpt lat="50.729457037523389" lon="13.678888035938144">
        <ele>783.13</ele>
        <time>2013-09-04T12:18:46Z</time>
      </trkpt>
      <trkpt lat="50.729470029473305" lon="13.679174026474357">
        <ele>784.57000000000005</ele>
        <time>2013-09-04T12:18:47Z</time>
      </trkpt>
      <trkpt lat="50.729520991444588" lon="13.679659003391862">
        <ele>785.52999999999997</ele>
        <time>2013-09-04T12:18:49Z</time>
      </trkpt>
      <trkpt lat="50.729595003649592" lon="13.680231990292668">
        <ele>786.98000000000002</ele>
        <time>2013-09-04T12:18:52Z</time>
      </trkpt>
      <trkpt lat="50.729632973670959" lon="13.680413961410522">
        <ele>787.46000000000004</ele>
        <time>2013-09-04T12:18:53Z</time>
      </trkpt>
      <trkpt lat="50.729688964784145" lon="13.68059903383255">
        <ele>787.46000000000004</ele>
        <time>2013-09-04T12:18:54Z</time>
      </trkpt>
      <trkpt lat="50.729756020009518" lon="13.680803971365094">
        <ele>787.46000000000004</ele>
        <time>2013-09-04T12:18:55Z</time>
      </trkpt>
      <trkpt lat="50.729802036657929" lon="13.681055009365082">
        <ele>788.41999999999996</ele>
        <time>2013-09-04T12:18:56Z</time>
      </trkpt>
      <trkpt lat="50.730481976643205" lon="13.683419963344932">
        <ele>785.52999999999997</ele>
        <time>2013-09-04T12:19:05Z</time>
      </trkpt>
      <trkpt lat="50.731364004313946" lon="13.686261009424925">
        <ele>786.98000000000002</ele>
        <time>2013-09-04T12:19:15Z</time>
      </trkpt>
      <trkpt lat="50.731883011758327" lon="13.687860025092959">
        <ele>783.13</ele>
        <time>2013-09-04T12:19:21Z</time>
      </trkpt>
      <trkpt lat="50.731919975951314" lon="13.688116008415818">
        <ele>781.69000000000005</ele>
        <time>2013-09-04T12:19:22Z</time>
      </trkpt>
      <trkpt lat="50.731936991214752" lon="13.688376015052199">
        <ele>780.25</ele>
        <time>2013-09-04T12:19:23Z</time>
      </trkpt>
      <trkpt lat="50.731941014528275" lon="13.688634010031819">
        <ele>779.28999999999996</ele>
        <time>2013-09-04T12:19:24Z</time>
      </trkpt>
      <trkpt lat="50.731929028406739" lon="13.688883036375046">
        <ele>777.84000000000003</ele>
        <time>2013-09-04T12:19:25Z</time>
      </trkpt>
      <trkpt lat="50.731848981231451" lon="13.689586026594043">
        <ele>774</ele>
        <time>2013-09-04T12:19:28Z</time>
      </trkpt>
      <trkpt lat="50.731784021481872" lon="13.689807979390025">
        <ele>773.51999999999998</ele>
        <time>2013-09-04T12:19:29Z</time>
      </trkpt>
      <trkpt lat="50.730778025463223" lon="13.691905969753861">
        <ele>759.10000000000002</ele>
        <time>2013-09-04T12:19:38Z</time>
      </trkpt>
      <trkpt lat="50.729661975055933" lon="13.693945035338402">
        <ele>733.13999999999999</ele>
        <time>2013-09-04T12:19:47Z</time>
      </trkpt>
      <trkpt lat="50.729114972054958" lon="13.695165021345019">
        <ele>718.24000000000001</ele>
        <time>2013-09-04T12:19:54Z</time>
      </trkpt>
      <trkpt lat="50.729088988155127" lon="13.695378005504608">
        <ele>716.32000000000005</ele>
        <time>2013-09-04T12:19:55Z</time>
      </trkpt>
      <trkpt lat="50.729081025347114" lon="13.695599958300591">
        <ele>714.88</ele>
        <time>2013-09-04T12:19:56Z</time>
      </trkpt>
      <trkpt lat="50.729027967900038" lon="13.697373988106847">
        <ele>698.04999999999995</ele>
        <time>2013-09-04T12:20:04Z</time>
      </trkpt>
      <trkpt lat="50.728969965130091" lon="13.697568029165268">
        <ele>697.09000000000003</ele>
        <time>2013-09-04T12:20:05Z</time>
      </trkpt>
      <trkpt lat="50.728370994329453" lon="13.699224041774869">
        <ele>690.84000000000003</ele>
        <time>2013-09-04T12:20:14Z</time>
      </trkpt>
      <trkpt lat="50.728099001571536" lon="13.700207993388176">
        <ele>689.39999999999998</ele>
        <time>2013-09-04T12:20:21Z</time>
      </trkpt>
      <trkpt lat="50.728052984923124" lon="13.700370015576482">
        <ele>689.39999999999998</ele>
        <time>2013-09-04T12:20:25Z</time>
      </trkpt>
      <trkpt lat="50.7277209777385" lon="13.701062025502324">
        <ele>689.88</ele>
        <time>2013-09-04T12:20:32Z</time>
      </trkpt>
      <trkpt lat="50.727697005495429" lon="13.701217006891966">
        <ele>689.88</ele>
        <time>2013-09-04T12:20:33Z</time>
      </trkpt>
      <trkpt lat="50.727707985788584" lon="13.701383974403143">
        <ele>688.91999999999996</ele>
        <time>2013-09-04T12:20:34Z</time>
      </trkpt>
      <trkpt lat="50.727750984951854" lon="13.701533004641533">
        <ele>688.44000000000005</ele>
        <time>2013-09-04T12:20:35Z</time>
      </trkpt>
      <trkpt lat="50.727823991328478" lon="13.701657978817821">
        <ele>687.96000000000004</ele>
        <time>2013-09-04T12:20:36Z</time>
      </trkpt>
      <trkpt lat="50.727925999090075" lon="13.701743977144361">
        <ele>687.48000000000002</ele>
        <time>2013-09-04T12:20:37Z</time>
      </trkpt>
      <trkpt lat="50.728054996579885" lon="13.701820001006126">
        <ele>687.48000000000002</ele>
        <time>2013-09-04T12:20:38Z</time>
      </trkpt>
      <trkpt lat="50.728175025433302" lon="13.701902981847525">
        <ele>687.48000000000002</ele>
        <time>2013-09-04T12:20:39Z</time>
      </trkpt>
      <trkpt lat="50.728290025144815" lon="13.70199803262949">
        <ele>689.39999999999998</ele>
        <time>2013-09-04T12:20:40Z</time>
      </trkpt>
      <trkpt lat="50.728392032906413" lon="13.702110014855862">
        <ele>690.36000000000001</ele>
        <time>2013-09-04T12:20:41Z</time>
      </trkpt>
      <trkpt lat="50.72847300209105" lon="13.702225014567375">
        <ele>691.33000000000004</ele>
        <time>2013-09-04T12:20:42Z</time>
      </trkpt>
      <trkpt lat="50.728654973208904" lon="13.702531959861517">
        <ele>693.25</ele>
        <time>2013-09-04T12:20:45Z</time>
      </trkpt>
      <trkpt lat="50.728696966543794" lon="13.702636985108256">
        <ele>693.73000000000002</ele>
        <time>2013-09-04T12:20:46Z</time>
      </trkpt>
      <trkpt lat="50.728719010949135" lon="13.702748967334628">
        <ele>694.21000000000004</ele>
        <time>2013-09-04T12:20:47Z</time>
      </trkpt>
      <trkpt lat="50.728700989857316" lon="13.70288098230958">
        <ele>694.69000000000005</ele>
        <time>2013-09-04T12:20:48Z</time>
      </trkpt>
      <trkpt lat="50.728661008179188" lon="13.703035041689873">
        <ele>695.16999999999996</ele>
        <time>2013-09-04T12:20:49Z</time>
      </trkpt>
      <trkpt lat="50.728615997359157" lon="13.703195974230766">
        <ele>696.13</ele>
        <time>2013-09-04T12:20:50Z</time>
      </trkpt>
      <trkpt lat="50.72853896766901" lon="13.703519012778997">
        <ele>697.09000000000003</ele>
        <time>2013-09-04T12:20:52Z</time>
      </trkpt>
      <trkpt lat="50.7285360340029" lon="13.703688997775316">
        <ele>699.01999999999998</ele>
        <time>2013-09-04T12:20:53Z</time>
      </trkpt>
      <trkpt lat="50.728567969053984" lon="13.70384800247848">
        <ele>699.01999999999998</ele>
        <time>2013-09-04T12:20:54Z</time>
      </trkpt>
      <trkpt lat="50.728637035936117" lon="13.703988986089826">
        <ele>699.98000000000002</ele>
        <time>2013-09-04T12:20:55Z</time>
      </trkpt>
      <trkpt lat="50.728737032040954" lon="13.70408495888114">
        <ele>700.94000000000005</ele>
        <time>2013-09-04T12:20:56Z</time>
      </trkpt>
      <trkpt lat="50.728848008438945" lon="13.704136004671454">
        <ele>701.89999999999998</ele>
        <time>2013-09-04T12:20:57Z</time>
      </trkpt>
      <trkpt lat="50.728976000100374" lon="13.704159976914525">
        <ele>702.38</ele>
        <time>2013-09-04T12:20:58Z</time>
      </trkpt>
      <trkpt lat="50.729111032560468" lon="13.704174980521202">
        <ele>702.86000000000001</ele>
        <time>2013-09-04T12:20:59Z</time>
      </trkpt>
      <trkpt lat="50.729556027799845" lon="13.704154025763273">
        <ele>703.82000000000005</ele>
        <time>2013-09-04T12:21:02Z</time>
      </trkpt>
      <trkpt lat="50.729703968390822" lon="13.704074984416366">
        <ele>703.82000000000005</ele>
        <time>2013-09-04T12:21:03Z</time>
      </trkpt>
      <trkpt lat="50.729835983365774" lon="13.703965013846755">
        <ele>703.82000000000005</ele>
        <time>2013-09-04T12:21:04Z</time>
      </trkpt>
      <trkpt lat="50.729964980855584" lon="13.703806009143591">
        <ele>704.29999999999995</ele>
        <time>2013-09-04T12:21:05Z</time>
      </trkpt>
      <trkpt lat="50.73008400388062" lon="13.703618003055453">
        <ele>705.25999999999999</ele>
        <time>2013-09-04T12:21:06Z</time>
      </trkpt>
      <trkpt lat="50.730194980278611" lon="13.70339403860271">
        <ele>709.11000000000001</ele>
        <time>2013-09-04T12:21:07Z</time>
      </trkpt>
      <trkpt lat="50.730290031060576" lon="13.703155992552638">
        <ele>711.50999999999999</ele>
        <time>2013-09-04T12:21:08Z</time>
      </trkpt>
      <trkpt lat="50.730372006073594" lon="13.702931022271514">
        <ele>712.95000000000005</ele>
        <time>2013-09-04T12:21:09Z</time>
      </trkpt>
      <trkpt lat="50.730466973036528" lon="13.702714014798403">
        <ele>714.39999999999998</ele>
        <time>2013-09-04T12:21:10Z</time>
      </trkpt>
      <trkpt lat="50.730579039081931" lon="13.70251796208322">
        <ele>715.36000000000001</ele>
        <time>2013-09-04T12:21:11Z</time>
      </trkpt>
      <trkpt lat="50.731700034812093" lon="13.701166966930032">
        <ele>727.37</ele>
        <time>2013-09-04T12:21:19Z</time>
      </trkpt>
      <trkpt lat="50.733752008527517" lon="13.699800968170166">
        <ele>734.58000000000004</ele>
        <time>2013-09-04T12:21:30Z</time>
      </trkpt>
      <trkpt lat="50.735596027225256" lon="13.699102001264691">
        <ele>736.02999999999997</ele>
        <time>2013-09-04T12:21:39Z</time>
      </trkpt>
      <trkpt lat="50.737178027629852" lon="13.698834031820297">
        <ele>736.50999999999999</ele>
        <time>2013-09-04T12:21:47Z</time>
      </trkpt>
      <trkpt lat="50.738992961123586" lon="13.699252959340811">
        <ele>736.50999999999999</ele>
        <time>2013-09-04T12:21:56Z</time>
      </trkpt>
      <trkpt lat="50.739203011617064" lon="13.699468038976192">
        <ele>733.13999999999999</ele>
        <time>2013-09-04T12:21:57Z</time>
      </trkpt>
      <trkpt lat="50.7393669616431" lon="13.699647998437285">
        <ele>733.62</ele>
        <time>2013-09-04T12:21:58Z</time>
      </trkpt>
      <trkpt lat="50.739521021023393" lon="13.699828963726759">
        <ele>734.58000000000004</ele>
        <time>2013-09-04T12:21:59Z</time>
      </trkpt>
      <trkpt lat="50.739643983542919" lon="13.700061980634928">
        <ele>734.58000000000004</ele>
        <time>2013-09-04T12:22:00Z</time>
      </trkpt>
      <trkpt lat="50.739772981032729" lon="13.700316958129406">
        <ele>735.07000000000005</ele>
        <time>2013-09-04T12:22:01Z</time>
      </trkpt>
      <trkpt lat="50.73988001793623" lon="13.700592974200845">
        <ele>735.54999999999995</ele>
        <time>2013-09-04T12:22:02Z</time>
      </trkpt>
      <trkpt lat="50.739980014041066" lon="13.700867984443903">
        <ele>735.54999999999995</ele>
        <time>2013-09-04T12:22:03Z</time>
      </trkpt>
      <trkpt lat="50.740073975175619" lon="13.701153974980116">
        <ele>735.54999999999995</ele>
        <time>2013-09-04T12:22:04Z</time>
      </trkpt>
      <trkpt lat="50.740800015628338" lon="13.703221958130598">
        <ele>734.10000000000002</ele>
        <time>2013-09-04T12:22:11Z</time>
      </trkpt>
      <trkpt lat="50.742218988016248" lon="13.705895030871034">
        <ele>736.50999999999999</ele>
        <time>2013-09-04T12:22:21Z</time>
      </trkpt>
      <trkpt lat="50.742635987699032" lon="13.706526020541787">
        <ele>738.90999999999997</ele>
        <time>2013-09-04T12:22:25Z</time>
      </trkpt>
      <trkpt lat="50.742743024602532" lon="13.706569019705057">
        <ele>739.38999999999999</ele>
        <time>2013-09-04T12:22:26Z</time>
      </trkpt>
      <trkpt lat="50.742879984900355" lon="13.706523003056645">
        <ele>742.75999999999999</ele>
        <time>2013-09-04T12:22:27Z</time>
      </trkpt>
      <trkpt lat="50.742979981005192" lon="13.70646801777184">
        <ele>744.67999999999995</ele>
        <time>2013-09-04T12:22:28Z</time>
      </trkpt>
      <trkpt lat="50.743056004866958" lon="13.706368021667004">
        <ele>745.63999999999999</ele>
        <time>2013-09-04T12:22:29Z</time>
      </trkpt>
      <trkpt lat="50.743090035393834" lon="13.706212034448981">
        <ele>747.08000000000004</ele>
        <time>2013-09-04T12:22:30Z</time>
      </trkpt>
      <trkpt lat="50.743091041222215" lon="13.706074990332127">
        <ele>747.55999999999995</ele>
        <time>2013-09-04T12:22:31Z</time>
      </trkpt>
      <trkpt lat="50.74306002818048" lon="13.705913973972201">
        <ele>748.51999999999998</ele>
        <time>2013-09-04T12:22:32Z</time>
      </trkpt>
      <trkpt lat="50.743006970733404" lon="13.705747006461024">
        <ele>749.97000000000003</ele>
        <time>2013-09-04T12:22:33Z</time>
      </trkpt>
      <trkpt lat="50.74293396435678" lon="13.70556796900928">
        <ele>749.97000000000003</ele>
        <time>2013-09-04T12:22:34Z</time>
      </trkpt>
      <trkpt lat="50.742831034585834" lon="13.705192962661386">
        <ele>751.40999999999997</ele>
        <time>2013-09-04T12:22:36Z</time>
      </trkpt>
      <trkpt lat="50.742808990180492" lon="13.70500504039228">
        <ele>752.37</ele>
        <time>2013-09-04T12:22:37Z</time>
      </trkpt>
      <trkpt lat="50.742843020707369" lon="13.704784009605646">
        <ele>753.80999999999995</ele>
        <time>2013-09-04T12:22:38Z</time>
      </trkpt>
      <trkpt lat="50.742906974628568" lon="13.704587034881115">
        <ele>755.25</ele>
        <time>2013-09-04T12:22:39Z</time>
      </trkpt>
      <trkpt lat="50.742982998490334" lon="13.704446973279119">
        <ele>756.69000000000005</ele>
        <time>2013-09-04T12:22:40Z</time>
      </trkpt>
      <trkpt lat="50.743084000423551" lon="13.704339014366269">
        <ele>758.13999999999999</ele>
        <time>2013-09-04T12:22:41Z</time>
      </trkpt>
      <trkpt lat="50.743218027055264" lon="13.704265002161264">
        <ele>759.10000000000002</ele>
        <time>2013-09-04T12:22:42Z</time>
      </trkpt>
      <trkpt lat="50.743364961817861" lon="13.704204987734556">
        <ele>760.53999999999996</ele>
        <time>2013-09-04T12:22:43Z</time>
      </trkpt>
      <trkpt lat="50.743518015369773" lon="13.70414799079299">
        <ele>761.5</ele>
        <time>2013-09-04T12:22:44Z</time>
      </trkpt>
      <trkpt lat="50.74512398801744" lon="13.703769966959953">
        <ele>775.44000000000005</ele>
        <time>2013-09-04T12:22:53Z</time>
      </trkpt>
      <trkpt lat="50.745302019640803" lon="13.703785976395011">
        <ele>776.88</ele>
        <time>2013-09-04T12:22:54Z</time>
      </trkpt>
      <trkpt lat="50.745476027950644" lon="13.703842973336577">
        <ele>778.80999999999995</ele>
        <time>2013-09-04T12:22:55Z</time>
      </trkpt>
      <trkpt lat="50.745662022382021" lon="13.703941041603684">
        <ele>780.25</ele>
        <time>2013-09-04T12:22:56Z</time>
      </trkpt>
      <trkpt lat="50.745837958529592" lon="13.704070961102843">
        <ele>781.21000000000004</ele>
        <time>2013-09-04T12:22:57Z</time>
      </trkpt>
      <trkpt lat="50.746006015688181" lon="13.704203981906176">
        <ele>782.64999999999998</ele>
        <time>2013-09-04T12:22:58Z</time>
      </trkpt>
      <trkpt lat="50.747204963117838" lon="13.705132026225328">
        <ele>791.29999999999995</ele>
        <time>2013-09-04T12:23:05Z</time>
      </trkpt>
      <trkpt lat="50.747345024719834" lon="13.705307962372899">
        <ele>792.25999999999999</ele>
        <time>2013-09-04T12:23:06Z</time>
      </trkpt>
      <trkpt lat="50.7474659755826" lon="13.705546008422971">
        <ele>793.22000000000003</ele>
        <time>2013-09-04T12:23:07Z</time>
      </trkpt>
      <trkpt lat="50.748321013525128" lon="13.70730796828866">
        <ele>799.95000000000005</ele>
        <time>2013-09-04T12:23:14Z</time>
      </trkpt>
      <trkpt lat="50.749417031183839" lon="13.709642998874187">
        <ele>808.13</ele>
        <time>2013-09-04T12:23:23Z</time>
      </trkpt>
      <trkpt lat="50.749551979824901" lon="13.710194025188684">
        <ele>809.57000000000005</ele>
        <time>2013-09-04T12:23:25Z</time>
      </trkpt>
      <trkpt lat="50.750092025846243" lon="13.712715972214937">
        <ele>811.97000000000003</ele>
        <time>2013-09-04T12:23:33Z</time>
      </trkpt>
      <trkpt lat="50.750933988019824" lon="13.716871971264482">
        <ele>815.34000000000003</ele>
        <time>2013-09-04T12:23:45Z</time>
      </trkpt>
      <trkpt lat="50.752067975699902" lon="13.72210999019444">
        <ele>824.95000000000005</ele>
        <time>2013-09-04T12:24:00Z</time>
      </trkpt>
      <trkpt lat="50.752861993387341" lon="13.725885031744838">
        <ele>831.20000000000005</ele>
        <time>2013-09-04T12:24:11Z</time>
      </trkpt>
      <trkpt lat="50.753831025213003" lon="13.730417964980006">
        <ele>832.15999999999997</ele>
        <time>2013-09-04T12:24:24Z</time>
      </trkpt>
      <trkpt lat="50.754506019875407" lon="13.733333023265004">
        <ele>823.99000000000001</ele>
        <time>2013-09-04T12:24:33Z</time>
      </trkpt>
      <trkpt lat="50.754629988223314" lon="13.733578026294708">
        <ele>823.02999999999997</ele>
        <time>2013-09-04T12:24:34Z</time>
      </trkpt>
      <trkpt lat="50.755943013355136" lon="13.735848013311625">
        <ele>816.29999999999995</ele>
        <time>2013-09-04T12:24:43Z</time>
      </trkpt>
      <trkpt lat="50.757314041256905" lon="13.73826895840466">
        <ele>809.57000000000005</ele>
        <time>2013-09-04T12:24:53Z</time>
      </trkpt>
      <trkpt lat="50.757418982684612" lon="13.738522008061409">
        <ele>809.09000000000003</ele>
        <time>2013-09-04T12:24:54Z</time>
      </trkpt>
      <trkpt lat="50.757501963526011" lon="13.738797018304467">
        <ele>808.13</ele>
        <time>2013-09-04T12:24:55Z</time>
      </trkpt>
      <trkpt lat="50.757572036236525" lon="13.739069011062384">
        <ele>807.15999999999997</ele>
        <time>2013-09-04T12:24:56Z</time>
      </trkpt>
      <trkpt lat="50.757621992379427" lon="13.739359024912119">
        <ele>806.67999999999995</ele>
        <time>2013-09-04T12:24:57Z</time>
      </trkpt>
      <trkpt lat="50.757657028734684" lon="13.739649960771203">
        <ele>805.24000000000001</ele>
        <time>2013-09-04T12:24:58Z</time>
      </trkpt>
      <trkpt lat="50.757675971835852" lon="13.739927988499403">
        <ele>804.75999999999999</ele>
        <time>2013-09-04T12:24:59Z</time>
      </trkpt>
      <trkpt lat="50.757678989320993" lon="13.7402009870857">
        <ele>803.79999999999995</ele>
        <time>2013-09-04T12:25:00Z</time>
      </trkpt>
      <trkpt lat="50.757668009027839" lon="13.740470968186855">
        <ele>803.32000000000005</ele>
        <time>2013-09-04T12:25:01Z</time>
      </trkpt>
      <trkpt lat="50.757665997371078" lon="13.741289963945746">
        <ele>799.95000000000005</ele>
        <time>2013-09-04T12:25:04Z</time>
      </trkpt>
      <trkpt lat="50.757701033726335" lon="13.741564974188805">
        <ele>799.47000000000003</ele>
        <time>2013-09-04T12:25:05Z</time>
      </trkpt>
      <trkpt lat="50.75775995850563" lon="13.741831015795469">
        <ele>798.50999999999999</ele>
        <time>2013-09-04T12:25:06Z</time>
      </trkpt>
      <trkpt lat="50.758507959544659" lon="13.744438039138913">
        <ele>790.82000000000005</ele>
        <time>2013-09-04T12:25:16Z</time>
      </trkpt>
      <trkpt lat="50.758774001151323" lon="13.745177993550897">
        <ele>787.94000000000005</ele>
        <time>2013-09-04T12:25:19Z</time>
      </trkpt>
      <trkpt lat="50.758885983377695" lon="13.745401035994291">
        <ele>787.46000000000004</ele>
        <time>2013-09-04T12:25:20Z</time>
      </trkpt>
      <trkpt lat="50.759896002709866" lon="13.747198032215238">
        <ele>781.69000000000005</ele>
        <time>2013-09-04T12:25:29Z</time>
      </trkpt>
      <trkpt lat="50.760826980695128" lon="13.749002991244197">
        <ele>780.73000000000002</ele>
        <time>2013-09-04T12:25:39Z</time>
      </trkpt>
      <trkpt lat="50.761652011424303" lon="13.750431016087532">
        <ele>772.55999999999995</ele>
        <time>2013-09-04T12:25:48Z</time>
      </trkpt>
      <trkpt lat="50.761771034449339" lon="13.750535035505891">
        <ele>771.60000000000002</ele>
        <time>2013-09-04T12:25:49Z</time>
      </trkpt>
      <trkpt lat="50.761893996968865" lon="13.750623967498541">
        <ele>771.11000000000001</ele>
        <time>2013-09-04T12:25:50Z</time>
      </trkpt>
      <trkpt lat="50.763471974059939" lon="13.751875972375274">
        <ele>758.13999999999999</ele>
        <time>2013-09-04T12:26:03Z</time>
      </trkpt>
      <trkpt lat="50.765079958364367" lon="13.753501977771521">
        <ele>755.73000000000002</ele>
        <time>2013-09-04T12:26:17Z</time>
      </trkpt>
      <trkpt lat="50.765145001932979" lon="13.753626029938459">
        <ele>756.21000000000004</ele>
        <time>2013-09-04T12:26:23Z</time>
      </trkpt>
      <trkpt lat="50.765297971665859" lon="13.753931969404221">
        <ele>756.21000000000004</ele>
        <time>2013-09-04T12:26:52Z</time>
      </trkpt>
      <trkpt lat="50.76529998332262" lon="13.754046969115734">
        <ele>756.21000000000004</ele>
        <time>2013-09-04T12:26:53Z</time>
      </trkpt>
      <trkpt lat="50.765273999422789" lon="13.754194993525743">
        <ele>755.73000000000002</ele>
        <time>2013-09-04T12:26:54Z</time>
      </trkpt>
      <trkpt lat="50.765238963067532" lon="13.754336982965469">
        <ele>755.73000000000002</ele>
        <time>2013-09-04T12:26:55Z</time>
      </trkpt>
      <trkpt lat="50.765195963904262" lon="13.754486013203859">
        <ele>756.21000000000004</ele>
        <time>2013-09-04T12:26:56Z</time>
      </trkpt>
      <trkpt lat="50.764579977840185" lon="13.756719036027789">
        <ele>753.33000000000004</ele>
        <time>2013-09-04T12:27:09Z</time>
      </trkpt>
      <trkpt lat="50.763653023168445" lon="13.760083029046655">
        <ele>746.12</ele>
        <time>2013-09-04T12:27:27Z</time>
      </trkpt>
      <trkpt lat="50.762991020455956" lon="13.761968035250902">
        <ele>742.27999999999997</ele>
        <time>2013-09-04T12:27:38Z</time>
      </trkpt>
      <trkpt lat="50.762937040999532" lon="13.762147994711995">
        <ele>742.27999999999997</ele>
        <time>2013-09-04T12:27:39Z</time>
      </trkpt>
      <trkpt lat="50.762900998815894" lon="13.762337006628513">
        <ele>741.30999999999995</ele>
        <time>2013-09-04T12:27:40Z</time>
      </trkpt>
      <trkpt lat="50.762871997430921" lon="13.762512020766735">
        <ele>740.83000000000004</ele>
        <time>2013-09-04T12:27:41Z</time>
      </trkpt>
      <trkpt lat="50.762776024639606" lon="13.763346020132303">
        <ele>742.27999999999997</ele>
        <time>2013-09-04T12:27:46Z</time>
      </trkpt>
      <trkpt lat="50.762707041576505" lon="13.764117993414402">
        <ele>739.87</ele>
        <time>2013-09-04T12:27:50Z</time>
      </trkpt>
      <trkpt lat="50.762294987216592" lon="13.766388986259699">
        <ele>729.77999999999997</ele>
        <time>2013-09-04T12:28:01Z</time>
      </trkpt>
      <trkpt lat="50.761708002537489" lon="13.768128985539079">
        <ele>719.67999999999995</ele>
        <time>2013-09-04T12:28:10Z</time>
      </trkpt>
      <trkpt lat="50.761575987562537" lon="13.768527964130044">
        <ele>716.79999999999995</ele>
        <time>2013-09-04T12:28:12Z</time>
      </trkpt>
      <trkpt lat="50.761541035026312" lon="13.768730973824859">
        <ele>715.36000000000001</ele>
        <time>2013-09-04T12:28:13Z</time>
      </trkpt>
      <trkpt lat="50.761532988399267" lon="13.768944963812828">
        <ele>714.39999999999998</ele>
        <time>2013-09-04T12:28:14Z</time>
      </trkpt>
      <trkpt lat="50.761556960642338" lon="13.769173035398126">
        <ele>712.95000000000005</ele>
        <time>2013-09-04T12:28:15Z</time>
      </trkpt>
      <trkpt lat="50.761599959805608" lon="13.769404040649533">
        <ele>711.99000000000001</ele>
        <time>2013-09-04T12:28:16Z</time>
      </trkpt>
      <trkpt lat="50.761656034737825" lon="13.769621970131993">
        <ele>710.54999999999995</ele>
        <time>2013-09-04T12:28:17Z</time>
      </trkpt>
      <trkpt lat="50.761725017800927" lon="13.769835038110614">
        <ele>709.11000000000001</ele>
        <time>2013-09-04T12:28:18Z</time>
      </trkpt>
      <trkpt lat="50.761798024177551" lon="13.770046010613441">
        <ele>708.14999999999998</ele>
        <time>2013-09-04T12:28:19Z</time>
      </trkpt>
      <trkpt lat="50.762080997228622" lon="13.770900964736938">
        <ele>703.82000000000005</ele>
        <time>2013-09-04T12:28:23Z</time>
      </trkpt>
      <trkpt lat="50.762117961421609" lon="13.771150996908545">
        <ele>703.34000000000003</ele>
        <time>2013-09-04T12:28:24Z</time>
      </trkpt>
      <trkpt lat="50.762131959199905" lon="13.77139599993825">
        <ele>702.38</ele>
        <time>2013-09-04T12:28:25Z</time>
      </trkpt>
      <trkpt lat="50.762127013877034" lon="13.771651983261108">
        <ele>701.89999999999998</ele>
        <time>2013-09-04T12:28:26Z</time>
      </trkpt>
      <trkpt lat="50.762103041633964" lon="13.771907966583967">
        <ele>701.89999999999998</ele>
        <time>2013-09-04T12:28:27Z</time>
      </trkpt>
      <trkpt lat="50.762048978358507" lon="13.772181970998645">
        <ele>701.41999999999996</ele>
        <time>2013-09-04T12:28:28Z</time>
      </trkpt>
      <trkpt lat="50.762003967538476" lon="13.772454969584942">
        <ele>701.41999999999996</ele>
        <time>2013-09-04T12:28:29Z</time>
      </trkpt>
      <trkpt lat="50.761550003662705" lon="13.774915980175138">
        <ele>699.98000000000002</ele>
        <time>2013-09-04T12:28:37Z</time>
      </trkpt>
      <trkpt lat="50.761514967307448" lon="13.77554202452302">
        <ele>701.41999999999996</ele>
        <time>2013-09-04T12:28:39Z</time>
      </trkpt>
      <trkpt lat="50.761522008106112" lon="13.775860033929348">
        <ele>699.98000000000002</ele>
        <time>2013-09-04T12:28:40Z</time>
      </trkpt>
      <trkpt lat="50.76158001087606" lon="13.776154993101954">
        <ele>697.09000000000003</ele>
        <time>2013-09-04T12:28:41Z</time>
      </trkpt>
      <trkpt lat="50.761680006980896" lon="13.776423968374729">
        <ele>695.64999999999998</ele>
        <time>2013-09-04T12:28:42Z</time>
      </trkpt>
      <trkpt lat="50.7618179731071" lon="13.776666037738323">
        <ele>693.73000000000002</ele>
        <time>2013-09-04T12:28:43Z</time>
      </trkpt>
      <trkpt lat="50.761974966153502" lon="13.776883967220783">
        <ele>692.76999999999998</ele>
        <time>2013-09-04T12:28:44Z</time>
      </trkpt>
      <trkpt lat="50.762141011655331" lon="13.777094017714262">
        <ele>691.80999999999995</ele>
        <time>2013-09-04T12:28:45Z</time>
      </trkpt>
      <trkpt lat="50.763652017340064" lon="13.778302017599344">
        <ele>682.19000000000005</ele>
        <time>2013-09-04T12:28:53Z</time>
      </trkpt>
      <trkpt lat="50.763854021206498" lon="13.778334958478808">
        <ele>681.71000000000004</ele>
        <time>2013-09-04T12:28:54Z</time>
      </trkpt>
      <trkpt lat="50.764044038951397" lon="13.778335964307189">
        <ele>681.23000000000002</ele>
        <time>2013-09-04T12:28:55Z</time>
      </trkpt>
      <trkpt lat="50.76422500424087" lon="13.778304029256105">
        <ele>679.78999999999996</ele>
        <time>2013-09-04T12:28:56Z</time>
      </trkpt>
      <trkpt lat="50.764402030035853" lon="13.778232028707862">
        <ele>678.83000000000004</ele>
        <time>2013-09-04T12:28:57Z</time>
      </trkpt>
      <trkpt lat="50.764564974233508" lon="13.778146030381322">
        <ele>678.35000000000002</ele>
        <time>2013-09-04T12:28:58Z</time>
      </trkpt>
      <trkpt lat="50.764973005279899" lon="13.777988031506538">
        <ele>676.41999999999996</ele>
        <time>2013-09-04T12:29:01Z</time>
      </trkpt>
      <trkpt lat="50.765089010819793" lon="13.778045028448105">
        <ele>675.94000000000005</ele>
        <time>2013-09-04T12:29:02Z</time>
      </trkpt>
      <trkpt lat="50.765179032459855" lon="13.778153993189335">
        <ele>675.46000000000004</ele>
        <time>2013-09-04T12:29:03Z</time>
      </trkpt>
      <trkpt lat="50.765204010531306" lon="13.778343005105853">
        <ele>674.98000000000002</ele>
        <time>2013-09-04T12:29:04Z</time>
      </trkpt>
      <trkpt lat="50.765171991661191" lon="13.77853000536561">
        <ele>674.01999999999998</ele>
        <time>2013-09-04T12:29:05Z</time>
      </trkpt>
      <trkpt lat="50.765102002769709" lon="13.778682975098491">
        <ele>673.05999999999995</ele>
        <time>2013-09-04T12:29:06Z</time>
      </trkpt>
      <trkpt lat="50.76499798335135" lon="13.778815995901823">
        <ele>671.62</ele>
        <time>2013-09-04T12:29:07Z</time>
      </trkpt>
      <trkpt lat="50.764865968376398" lon="13.778925966471434">
        <ele>671.13999999999999</ele>
        <time>2013-09-04T12:29:08Z</time>
      </trkpt>
      <trkpt lat="50.76471802778542" lon="13.779030991718173">
        <ele>670.65999999999997</ele>
        <time>2013-09-04T12:29:09Z</time>
      </trkpt>
      <trkpt lat="50.764562040567398" lon="13.779125036671758">
        <ele>669.70000000000005</ele>
        <time>2013-09-04T12:29:10Z</time>
      </trkpt>
      <trkpt lat="50.762734031304717" lon="13.780032964423299">
        <ele>660.08000000000004</ele>
        <time>2013-09-04T12:29:20Z</time>
      </trkpt>
      <trkpt lat="50.762542001903057" lon="13.780060037970543">
        <ele>659.60000000000002</ele>
        <time>2013-09-04T12:29:21Z</time>
      </trkpt>
      <trkpt lat="50.762351984158158" lon="13.780060959979892">
        <ele>659.12</ele>
        <time>2013-09-04T12:29:22Z</time>
      </trkpt>
      <trkpt lat="50.76216003857553" lon="13.780036987736821">
        <ele>658.15999999999997</ele>
        <time>2013-09-04T12:29:23Z</time>
      </trkpt>
      <trkpt lat="50.760814994573593" lon="13.779580006375909">
        <ele>652.87</ele>
        <time>2013-09-04T12:29:30Z</time>
      </trkpt>
      <trkpt lat="50.76063796877861" lon="13.779450003057718">
        <ele>651.90999999999997</ele>
        <time>2013-09-04T12:29:31Z</time>
      </trkpt>
      <trkpt lat="50.760149974375963" lon="13.778947005048394">
        <ele>648.07000000000005</ele>
        <time>2013-09-04T12:29:34Z</time>
      </trkpt>
      <trkpt lat="50.760016031563282" lon="13.778735026717186">
        <ele>646.62</ele>
        <time>2013-09-04T12:29:35Z</time>
      </trkpt>
      <trkpt lat="50.759896002709866" lon="13.77850997261703">
        <ele>644.70000000000005</ele>
        <time>2013-09-04T12:29:36Z</time>
      </trkpt>
      <trkpt lat="50.759692993015051" lon="13.778102025389671">
        <ele>643.25999999999999</ele>
        <time>2013-09-04T12:29:38Z</time>
      </trkpt>
      <trkpt lat="50.759571036323905" lon="13.777963975444436">
        <ele>642.77999999999997</ele>
        <time>2013-09-04T12:29:39Z</time>
      </trkpt>
      <trkpt lat="50.75943298637867" lon="13.777889041230083">
        <ele>641.82000000000005</ele>
        <time>2013-09-04T12:29:40Z</time>
      </trkpt>
      <trkpt lat="50.759290996938944" lon="13.777894992381334">
        <ele>642.77999999999997</ele>
        <time>2013-09-04T12:29:41Z</time>
      </trkpt>
      <trkpt lat="50.759156970307231" lon="13.777957018464804">
        <ele>642.77999999999997</ele>
        <time>2013-09-04T12:29:42Z</time>
      </trkpt>
      <trkpt lat="50.759034007787704" lon="13.778063971549273">
        <ele>642.77999999999997</ele>
        <time>2013-09-04T12:29:43Z</time>
      </trkpt>
      <trkpt lat="50.75893803499639" lon="13.778245020657778">
        <ele>641.34000000000003</ele>
        <time>2013-09-04T12:29:44Z</time>
      </trkpt>
      <trkpt lat="50.758880032226443" lon="13.778449958190322">
        <ele>640.38</ele>
        <time>2013-09-04T12:29:45Z</time>
      </trkpt>
      <trkpt lat="50.758849019184709" lon="13.778684986755252">
        <ele>639.40999999999997</ele>
        <time>2013-09-04T12:29:46Z</time>
      </trkpt>
      <trkpt lat="50.758861005306244" lon="13.778935018926859">
        <ele>638.92999999999995</ele>
        <time>2013-09-04T12:29:47Z</time>
      </trkpt>
      <trkpt lat="50.758902998641133" lon="13.779203994199634">
        <ele>637.97000000000003</ele>
        <time>2013-09-04T12:29:48Z</time>
      </trkpt>
      <trkpt lat="50.759288985282183" lon="13.781782016158104">
        <ele>622.59000000000003</ele>
        <time>2013-09-04T12:29:57Z</time>
      </trkpt>
      <trkpt lat="50.759660974144936" lon="13.783200988546014">
        <ele>612.01999999999998</ele>
        <time>2013-09-04T12:30:03Z</time>
      </trkpt>
      <trkpt lat="50.759750995784998" lon="13.783370973542333">
        <ele>609.61000000000001</ele>
        <time>2013-09-04T12:30:04Z</time>
      </trkpt>
      <trkpt lat="50.759873958304524" lon="13.783498965203762">
        <ele>608.64999999999998</ele>
        <time>2013-09-04T12:30:05Z</time>
      </trkpt>
      <trkpt lat="50.760009996592999" lon="13.783604996278882">
        <ele>608.16999999999996</ele>
        <time>2013-09-04T12:30:06Z</time>
      </trkpt>
      <trkpt lat="50.760144023224711" lon="13.783688982948661">
        <ele>607.21000000000004</ele>
        <time>2013-09-04T12:30:07Z</time>
      </trkpt>
      <trkpt lat="50.760280983522534" lon="13.783758971840143">
        <ele>606.73000000000002</ele>
        <time>2013-09-04T12:30:08Z</time>
      </trkpt>
      <trkpt lat="50.761010041460395" lon="13.784206984564662">
        <ele>600.48000000000002</ele>
        <time>2013-09-04T12:30:14Z</time>
      </trkpt>
      <trkpt lat="50.76110802590847" lon="13.784306980669498">
        <ele>599.51999999999998</ele>
        <time>2013-09-04T12:30:15Z</time>
      </trkpt>
      <trkpt lat="50.76194697059691" lon="13.785726958885789">
        <ele>588.95000000000005</ele>
        <time>2013-09-04T12:30:26Z</time>
      </trkpt>
      <trkpt lat="50.762557005509734" lon="13.786734966561198">
        <ele>582.22000000000003</ele>
        <time>2013-09-04T12:30:34Z</time>
      </trkpt>
      <trkpt lat="50.762660019099712" lon="13.786814007908106">
        <ele>581.73000000000002</ele>
        <time>2013-09-04T12:30:35Z</time>
      </trkpt>
      <trkpt lat="50.762764038518071" lon="13.786877961829305">
        <ele>580.76999999999998</ele>
        <time>2013-09-04T12:30:36Z</time>
      </trkpt>
      <trkpt lat="50.76287099160254" lon="13.786923978477716">
        <ele>579.80999999999995</ele>
        <time>2013-09-04T12:30:37Z</time>
      </trkpt>
      <trkpt lat="50.762980040162802" lon="13.786954991519451">
        <ele>578.37</ele>
        <time>2013-09-04T12:30:38Z</time>
      </trkpt>
      <trkpt lat="50.763095961883664" lon="13.786975024268031">
        <ele>577.40999999999997</ele>
        <time>2013-09-04T12:30:39Z</time>
      </trkpt>
      <trkpt lat="50.763707002624869" lon="13.787073008716106">
        <ele>571.63999999999999</ele>
        <time>2013-09-04T12:30:44Z</time>
      </trkpt>
      <trkpt lat="50.764149986207485" lon="13.787255985662341">
        <ele>568.27999999999997</ele>
        <time>2013-09-04T12:30:48Z</time>
      </trkpt>
      <trkpt lat="50.764269009232521" lon="13.787256991490722">
        <ele>567.32000000000005</ele>
        <time>2013-09-04T12:30:49Z</time>
      </trkpt>
      <trkpt lat="50.765338037163019" lon="13.787203012034297">
        <ele>558.65999999999997</ele>
        <time>2013-09-04T12:30:57Z</time>
      </trkpt>
      <trkpt lat="50.765460999682546" lon="13.787239976227283">
        <ele>558.17999999999995</ele>
        <time>2013-09-04T12:30:58Z</time>
      </trkpt>
      <trkpt lat="50.765580022707582" lon="13.787307031452656">
        <ele>557.70000000000005</ele>
        <time>2013-09-04T12:30:59Z</time>
      </trkpt>
      <trkpt lat="50.765949999913573" lon="13.787586987018585">
        <ele>556.25999999999999</ele>
        <time>2013-09-04T12:31:02Z</time>
      </trkpt>
      <trkpt lat="50.766067011281848" lon="13.787712967023253">
        <ele>555.29999999999995</ele>
        <time>2013-09-04T12:31:03Z</time>
      </trkpt>
      <trkpt lat="50.766167007386684" lon="13.787859985604882">
        <ele>554.82000000000005</ele>
        <time>2013-09-04T12:31:04Z</time>
      </trkpt>
      <trkpt lat="50.766258034855127" lon="13.788014966994524">
        <ele>554.82000000000005</ele>
        <time>2013-09-04T12:31:05Z</time>
      </trkpt>
      <trkpt lat="50.766342021524906" lon="13.788174977526069">
        <ele>554.34000000000003</ele>
        <time>2013-09-04T12:31:06Z</time>
      </trkpt>
      <trkpt lat="50.767329996451735" lon="13.789640972390771">
        <ele>551.45000000000005</ele>
        <time>2013-09-04T12:31:15Z</time>
      </trkpt>
      <trkpt lat="50.768383014947176" lon="13.790963971987367">
        <ele>548.57000000000005</ele>
        <time>2013-09-04T12:31:23Z</time>
      </trkpt>
      <trkpt lat="50.768512012436986" lon="13.791067991405725">
        <ele>548.09000000000003</ele>
        <time>2013-09-04T12:31:24Z</time>
      </trkpt>
      <trkpt lat="50.768652996048331" lon="13.791159018874168">
        <ele>547.13</ele>
        <time>2013-09-04T12:31:25Z</time>
      </trkpt>
      <trkpt lat="50.768819963559508" lon="13.791219033300877">
        <ele>546.64999999999998</ele>
        <time>2013-09-04T12:31:26Z</time>
      </trkpt>
      <trkpt lat="50.769003024324775" lon="13.791286004707217">
        <ele>545.69000000000005</ele>
        <time>2013-09-04T12:31:27Z</time>
      </trkpt>
      <trkpt lat="50.770486034452915" lon="13.791847005486488">
        <ele>541.36000000000001</ele>
        <time>2013-09-04T12:31:35Z</time>
      </trkpt>
      <trkpt lat="50.770702958106995" lon="13.791851028800011">
        <ele>541.36000000000001</ele>
        <time>2013-09-04T12:31:36Z</time>
      </trkpt>
      <trkpt lat="50.770909991115332" lon="13.791822027415037">
        <ele>540.88</ele>
        <time>2013-09-04T12:31:37Z</time>
      </trkpt>
      <trkpt lat="50.771129010245204" lon="13.791771987453103">
        <ele>540.88</ele>
        <time>2013-09-04T12:31:38Z</time>
      </trkpt>
      <trkpt lat="50.771330008283257" lon="13.791713984683156">
        <ele>539.91999999999996</ele>
        <time>2013-09-04T12:31:39Z</time>
      </trkpt>
      <trkpt lat="50.773072019219398" lon="13.79142003133893">
        <ele>535.11000000000001</ele>
        <time>2013-09-04T12:31:47Z</time>
      </trkpt>
      <trkpt lat="50.775649035349488" lon="13.791471999138594">
        <ele>528.86000000000001</ele>
        <time>2013-09-04T12:31:59Z</time>
      </trkpt>
      <trkpt lat="50.777176972478628" lon="13.79152799025178">
        <ele>522.61000000000001</ele>
        <time>2013-09-04T12:32:08Z</time>
      </trkpt>
      <trkpt lat="50.777563964948058" lon="13.791674003005028">
        <ele>521.16999999999996</ele>
        <time>2013-09-04T12:32:11Z</time>
      </trkpt>
      <trkpt lat="50.778902973979712" lon="13.792655020952225">
        <ele>516.37</ele>
        <time>2013-09-04T12:32:22Z</time>
      </trkpt>
      <trkpt lat="50.779372025281191" lon="13.793093981221318">
        <ele>513.48000000000002</ele>
        <time>2013-09-04T12:32:26Z</time>
      </trkpt>
      <trkpt lat="50.779476966708899" lon="13.79324602894485">
        <ele>513</ele>
        <time>2013-09-04T12:32:27Z</time>
      </trkpt>
      <trkpt lat="50.779569000005722" lon="13.793414002284408">
        <ele>513.48000000000002</ele>
        <time>2013-09-04T12:32:28Z</time>
      </trkpt>
      <trkpt lat="50.779645023867488" lon="13.793596979230642">
        <ele>512.51999999999998</ele>
        <time>2013-09-04T12:32:29Z</time>
      </trkpt>
      <trkpt lat="50.779705038294196" lon="13.793788002803922">
        <ele>512.03999999999996</ele>
        <time>2013-09-04T12:32:30Z</time>
      </trkpt>
      <trkpt lat="50.779753988608718" lon="13.793998975306749">
        <ele>511.56</ele>
        <time>2013-09-04T12:32:31Z</time>
      </trkpt>
      <trkpt lat="50.779808973893523" lon="13.794220006093383">
        <ele>511.56</ele>
        <time>2013-09-04T12:32:32Z</time>
      </trkpt>
      <trkpt lat="50.780340973287821" lon="13.796054972335696">
        <ele>509.16000000000003</ele>
        <time>2013-09-04T12:32:39Z</time>
      </trkpt>
      <trkpt lat="50.781066007912159" lon="13.79913498647511">
        <ele>507.23000000000002</ele>
        <time>2013-09-04T12:32:49Z</time>
      </trkpt>
      <trkpt lat="50.78201400116086" lon="13.802409963682294">
        <ele>500.01999999999998</ele>
        <time>2013-09-04T12:33:00Z</time>
      </trkpt>
      <trkpt lat="50.782405016943812" lon="13.803913006559014">
        <ele>496.66000000000003</ele>
        <time>2013-09-04T12:33:05Z</time>
      </trkpt>
      <trkpt lat="50.782457990571856" lon="13.804233027622104">
        <ele>496.66000000000003</ele>
        <time>2013-09-04T12:33:06Z</time>
      </trkpt>
      <trkpt lat="50.782713973894715" lon="13.807690981775522">
        <ele>490.41000000000003</ele>
        <time>2013-09-04T12:33:17Z</time>
      </trkpt>
      <trkpt lat="50.782932993024588" lon="13.809749996289611">
        <ele>486.56</ele>
        <time>2013-09-04T12:33:24Z</time>
      </trkpt>
      <trkpt lat="50.783040029928088" lon="13.810015032067895">
        <ele>485.60000000000002</ele>
        <time>2013-09-04T12:33:25Z</time>
      </trkpt>
      <trkpt lat="50.783155029639602" lon="13.810267997905612">
        <ele>484.63999999999999</ele>
        <time>2013-09-04T12:33:26Z</time>
      </trkpt>
      <trkpt lat="50.784178962931037" lon="13.812077986076474">
        <ele>477.91000000000003</ele>
        <time>2013-09-04T12:33:35Z</time>
      </trkpt>
      <trkpt lat="50.784305026754737" lon="13.812231961637735">
        <ele>476.94999999999999</ele>
        <time>2013-09-04T12:33:36Z</time>
      </trkpt>
      <trkpt lat="50.785454018041492" lon="13.813430992886424">
        <ele>469.74000000000001</ele>
        <time>2013-09-04T12:33:46Z</time>
      </trkpt>
      <trkpt lat="50.785688040778041" lon="13.813692005351186">
        <ele>467.81999999999999</ele>
        <time>2013-09-04T12:33:49Z</time>
      </trkpt>
      <trkpt lat="50.785727016627789" lon="13.813769035041332">
        <ele>466.86000000000001</ele>
        <time>2013-09-04T12:33:50Z</time>
      </trkpt>
      <trkpt lat="50.785735985264182" lon="13.813855033367872">
        <ele>465.89999999999998</ele>
        <time>2013-09-04T12:33:51Z</time>
      </trkpt>
      <trkpt lat="50.785731039941311" lon="13.81393801420927">
        <ele>465.42000000000002</ele>
        <time>2013-09-04T12:33:52Z</time>
      </trkpt>
      <trkpt lat="50.785706983879209" lon="13.814026024192572">
        <ele>465.42000000000002</ele>
        <time>2013-09-04T12:33:53Z</time>
      </trkpt>
      <trkpt lat="50.785663984715939" lon="13.814105987548828">
        <ele>464.93000000000001</ele>
        <time>2013-09-04T12:33:54Z</time>
      </trkpt>
      <trkpt lat="50.785598019137979" lon="13.814201960340142">
        <ele>463.49000000000001</ele>
        <time>2013-09-04T12:33:55Z</time>
      </trkpt>
      <trkpt lat="50.785438008606434" lon="13.814498009160161">
        <ele>462.52999999999997</ele>
        <time>2013-09-04T12:33:58Z</time>
      </trkpt>
      <trkpt lat="50.785213960334659" lon="13.815010981634259">
        <ele>462.52999999999997</ele>
        <time>2013-09-04T12:34:02Z</time>
      </trkpt>
      <trkpt lat="50.785174984484911" lon="13.815192030742764">
        <ele>462.05000000000001</ele>
        <time>2013-09-04T12:34:03Z</time>
      </trkpt>
      <trkpt lat="50.785165010020137" lon="13.815384982153773">
        <ele>461.56999999999999</ele>
        <time>2013-09-04T12:34:04Z</time>
      </trkpt>
      <trkpt lat="50.785158975049853" lon="13.815581034868956">
        <ele>461.08999999999997</ele>
        <time>2013-09-04T12:34:05Z</time>
      </trkpt>
      <trkpt lat="50.785174984484911" lon="13.815773986279964">
        <ele>462.05000000000001</ele>
        <time>2013-09-04T12:34:06Z</time>
      </trkpt>
      <trkpt lat="50.785312028601766" lon="13.817580034956336">
        <ele>461.08999999999997</ele>
        <time>2013-09-04T12:34:14Z</time>
      </trkpt>
      <trkpt lat="50.785591984167695" lon="13.818760961294174">
        <ele>463.00999999999999</ele>
        <time>2013-09-04T12:34:19Z</time>
      </trkpt>
      <trkpt lat="50.785556025803089" lon="13.820342039689422">
        <ele>466.38</ele>
        <time>2013-09-04T12:34:27Z</time>
      </trkpt>
      <trkpt lat="50.78551797196269" lon="13.822185974568129">
        <ele>472.63</ele>
        <time>2013-09-04T12:34:38Z</time>
      </trkpt>
      <trkpt lat="50.785531969740987" lon="13.822468025609851">
        <ele>474.06999999999999</ele>
        <time>2013-09-04T12:34:40Z</time>
      </trkpt>
      <trkpt lat="50.785570023581386" lon="13.822597023099661">
        <ele>475.02999999999997</ele>
        <time>2013-09-04T12:34:41Z</time>
      </trkpt>
      <trkpt lat="50.78575300052762" lon="13.823366984724998">
        <ele>479.35000000000002</ele>
        <time>2013-09-04T12:34:48Z</time>
      </trkpt>
      <trkpt lat="50.785762974992394" lon="13.823480978608131">
        <ele>479.83999999999997</ele>
        <time>2013-09-04T12:34:49Z</time>
      </trkpt>
      <trkpt lat="50.785764986649156" lon="13.823592038825154">
        <ele>479.83999999999997</ele>
        <time>2013-09-04T12:34:50Z</time>
      </trkpt>
      <trkpt lat="50.785754006356001" lon="13.823701003566384">
        <ele>480.31999999999999</ele>
        <time>2013-09-04T12:34:51Z</time>
      </trkpt>
      <trkpt lat="50.785744031891227" lon="13.823809968307614">
        <ele>480.80000000000001</ele>
        <time>2013-09-04T12:34:52Z</time>
      </trkpt>
      <trkpt lat="50.785657027736306" lon="13.824395025148988">
        <ele>482.72000000000003</ele>
        <time>2013-09-04T12:34:56Z</time>
      </trkpt>
      <trkpt lat="50.785604976117611" lon="13.824584037065506">
        <ele>483.68000000000001</ele>
        <time>2013-09-04T12:34:57Z</time>
      </trkpt>
      <trkpt lat="50.785539010539651" lon="13.824761984869838">
        <ele>484.16000000000003</ele>
        <time>2013-09-04T12:34:58Z</time>
      </trkpt>
      <trkpt lat="50.785384029150009" lon="13.825118970125914">
        <ele>484.63999999999999</ele>
        <time>2013-09-04T12:35:00Z</time>
      </trkpt>
      <trkpt lat="50.785284033045173" lon="13.825260037556291">
        <ele>484.63999999999999</ele>
        <time>2013-09-04T12:35:01Z</time>
      </trkpt>
      <trkpt lat="50.785186970606446" lon="13.825376965105534">
        <ele>485.12</ele>
        <time>2013-09-04T12:35:02Z</time>
      </trkpt>
      <trkpt lat="50.785116981714964" lon="13.82545399479568">
        <ele>485.60000000000002</ele>
        <time>2013-09-04T12:35:03Z</time>
      </trkpt>
      <trkpt lat="50.785075994208455" lon="13.825503028929234">
        <ele>485.60000000000002</ele>
        <time>2013-09-04T12:35:04Z</time>
      </trkpt>
      <trkpt lat="50.784989995881915" lon="13.825585003942251">
        <ele>486.07999999999998</ele>
        <time>2013-09-04T12:35:06Z</time>
      </trkpt>
      <trkpt lat="50.784931993111968" lon="13.825606964528561">
        <ele>486.07999999999998</ele>
        <time>2013-09-04T12:35:07Z</time>
      </trkpt>
      <trkpt lat="50.78487197868526" lon="13.825633032247424">
        <ele>486.07999999999998</ele>
        <time>2013-09-04T12:35:08Z</time>
      </trkpt>
      <trkpt lat="50.784621024504304" lon="13.825688017532229">
        <ele>487.05000000000001</ele>
        <time>2013-09-04T12:35:11Z</time>
      </trkpt>
      <trkpt lat="50.784481968730688" lon="13.825692040845752">
        <ele>487.52999999999997</ele>
        <time>2013-09-04T12:35:12Z</time>
      </trkpt>
      <trkpt lat="50.784324975684285" lon="13.825662033632398">
        <ele>488.00999999999999</ele>
        <time>2013-09-04T12:35:13Z</time>
      </trkpt>
      <trkpt lat="50.783145977184176" lon="13.825586009770632">
        <ele>490.41000000000003</ele>
        <time>2013-09-04T12:35:21Z</time>
      </trkpt>
      <trkpt lat="50.783004993572831" lon="13.825649963691831">
        <ele>490.88999999999999</ele>
        <time>2013-09-04T12:35:22Z</time>
      </trkpt>
      <trkpt lat="50.782861998304725" lon="13.825719030573964">
        <ele>491.37</ele>
        <time>2013-09-04T12:35:23Z</time>
      </trkpt>
      <trkpt lat="50.782607020810246" lon="13.825912987813354">
        <ele>492.32999999999998</ele>
        <time>2013-09-04T12:35:25Z</time>
      </trkpt>
      <trkpt lat="50.782495038583875" lon="13.826048020273447">
        <ele>492.32999999999998</ele>
        <time>2013-09-04T12:35:26Z</time>
      </trkpt>
      <trkpt lat="50.782393030822277" lon="13.826198978349566">
        <ele>493.29000000000002</ele>
        <time>2013-09-04T12:35:27Z</time>
      </trkpt>
      <trkpt lat="50.782299991697073" lon="13.826366029679775">
        <ele>493.76999999999998</ele>
        <time>2013-09-04T12:35:28Z</time>
      </trkpt>
      <trkpt lat="50.782223967835307" lon="13.826558981090784">
        <ele>494.74000000000001</ele>
        <time>2013-09-04T12:35:29Z</time>
      </trkpt>
      <trkpt lat="50.782164959236979" lon="13.826768025755882">
        <ele>495.22000000000003</ele>
        <time>2013-09-04T12:35:30Z</time>
      </trkpt>
      <trkpt lat="50.782121038064361" lon="13.826982015743852">
        <ele>496.18000000000001</ele>
        <time>2013-09-04T12:35:31Z</time>
      </trkpt>
      <trkpt lat="50.782092958688736" lon="13.827199023216963">
        <ele>496.66000000000003</ele>
        <time>2013-09-04T12:35:32Z</time>
      </trkpt>
      <trkpt lat="50.782078960910439" lon="13.827423993498087">
        <ele>497.62</ele>
        <time>2013-09-04T12:35:33Z</time>
      </trkpt>
      <trkpt lat="50.782093964517117" lon="13.827660027891397">
        <ele>497.62</ele>
        <time>2013-09-04T12:35:34Z</time>
      </trkpt>
      <trkpt lat="50.78212003223598" lon="13.827869994565845">
        <ele>498.10000000000002</ele>
        <time>2013-09-04T12:35:35Z</time>
      </trkpt>
      <trkpt lat="50.782150961458683" lon="13.828064035624266">
        <ele>498.57999999999998</ele>
        <time>2013-09-04T12:35:36Z</time>
      </trkpt>
      <trkpt lat="50.782195972278714" lon="13.828477011993527">
        <ele>499.54000000000002</ele>
        <time>2013-09-04T12:35:38Z</time>
      </trkpt>
      <trkpt lat="50.782289011403918" lon="13.8288479950279">
        <ele>499.06</ele>
        <time>2013-09-04T12:35:40Z</time>
      </trkpt>
      <trkpt lat="50.782419014722109" lon="13.829042036086321">
        <ele>498.57999999999998</ele>
        <time>2013-09-04T12:35:41Z</time>
      </trkpt>
      <trkpt lat="50.782677009701729" lon="13.829624997451901">
        <ele>499.54000000000002</ele>
        <time>2013-09-04T12:35:44Z</time>
      </trkpt>
      <trkpt lat="50.782745992764831" lon="13.829844016581774">
        <ele>500.5</ele>
        <time>2013-09-04T12:35:45Z</time>
      </trkpt>
      <trkpt lat="50.782763008028269" lon="13.830058006569743">
        <ele>500.98000000000002</ele>
        <time>2013-09-04T12:35:46Z</time>
      </trkpt>
      <trkpt lat="50.782762002199888" lon="13.830278031527996">
        <ele>501.45999999999998</ele>
        <time>2013-09-04T12:35:47Z</time>
      </trkpt>
      <trkpt lat="50.782737024128437" lon="13.830486992374063">
        <ele>501.94999999999999</ele>
        <time>2013-09-04T12:35:48Z</time>
      </trkpt>
      <trkpt lat="50.782696958631277" lon="13.830693019554019">
        <ele>502.91000000000003</ele>
        <time>2013-09-04T12:35:49Z</time>
      </trkpt>
      <trkpt lat="50.782654965296388" lon="13.830892005935311">
        <ele>502.91000000000003</ele>
        <time>2013-09-04T12:35:50Z</time>
      </trkpt>
      <trkpt lat="50.782592017203569" lon="13.831086969003081">
        <ele>503.38999999999999</ele>
        <time>2013-09-04T12:35:51Z</time>
      </trkpt>
      <trkpt lat="50.782088013365865" lon="13.832173012197018">
        <ele>506.26999999999998</ele>
        <time>2013-09-04T12:35:57Z</time>
      </trkpt>
      <trkpt lat="50.781042035669088" lon="13.833453012630343">
        <ele>515.39999999999998</ele>
        <time>2013-09-04T12:36:05Z</time>
      </trkpt>
      <trkpt lat="50.780940027907491" lon="13.833607994019985">
        <ele>516.85000000000002</ele>
        <time>2013-09-04T12:36:06Z</time>
      </trkpt>
      <trkpt lat="50.780885964632034" lon="13.8337919767946">
        <ele>517.33000000000004</ele>
        <time>2013-09-04T12:36:07Z</time>
      </trkpt>
      <trkpt lat="50.780894011259079" lon="13.833975037559867">
        <ele>517.80999999999995</ele>
        <time>2013-09-04T12:36:08Z</time>
      </trkpt>
      <trkpt lat="50.780968023464084" lon="13.834116021171212">
        <ele>517.33000000000004</ele>
        <time>2013-09-04T12:36:09Z</time>
      </trkpt>
      <trkpt lat="50.781084029003978" lon="13.834183998405933">
        <ele>518.28999999999996</ele>
        <time>2013-09-04T12:36:10Z</time>
      </trkpt>
      <trkpt lat="50.781204979866743" lon="13.834193972870708">
        <ele>518.28999999999996</ele>
        <time>2013-09-04T12:36:11Z</time>
      </trkpt>
      <trkpt lat="50.781300030648708" lon="13.834086013957858">
        <ele>518.28999999999996</ele>
        <time>2013-09-04T12:36:12Z</time>
      </trkpt>
      <trkpt lat="50.781374964863062" lon="13.83383497595787">
        <ele>520.21000000000004</ele>
        <time>2013-09-04T12:36:13Z</time>
      </trkpt>
      <trkpt lat="50.781453000381589" lon="13.833620985969901">
        <ele>521.16999999999996</ele>
        <time>2013-09-04T12:36:14Z</time>
      </trkpt>
      <trkpt lat="50.78154101036489" lon="13.833402972668409">
        <ele>522.61000000000001</ele>
        <time>2013-09-04T12:36:15Z</time>
      </trkpt>
      <trkpt lat="50.7816700078547" lon="13.833250002935529">
        <ele>523.58000000000004</ele>
        <time>2013-09-04T12:36:16Z</time>
      </trkpt>
      <trkpt lat="50.781840998679399" lon="13.833119999617338">
        <ele>525.01999999999998</ele>
        <time>2013-09-04T12:36:17Z</time>
      </trkpt>
      <trkpt lat="50.782555975019932" lon="13.832691013813019">
        <ele>530.78999999999996</ele>
        <time>2013-09-04T12:36:21Z</time>
      </trkpt>
      <trkpt lat="50.782691007480025" lon="13.832572996616364">
        <ele>531.26999999999998</ele>
        <time>2013-09-04T12:36:22Z</time>
      </trkpt>
      <trkpt lat="50.782807013019919" lon="13.832452967762947">
        <ele>531.75</ele>
        <time>2013-09-04T12:36:23Z</time>
      </trkpt>
      <trkpt lat="50.782912038266659" lon="13.832345008850098">
        <ele>533.66999999999996</ele>
        <time>2013-09-04T12:36:24Z</time>
      </trkpt>
      <trkpt lat="50.783019997179508" lon="13.832307960838079">
        <ele>535.11000000000001</ele>
        <time>2013-09-04T12:36:25Z</time>
      </trkpt>
      <trkpt lat="50.783099038526416" lon="13.832347020506859">
        <ele>536.07000000000005</ele>
        <time>2013-09-04T12:36:26Z</time>
      </trkpt>
      <trkpt lat="50.783127034083009" lon="13.832460008561611">
        <ele>536.54999999999995</ele>
        <time>2013-09-04T12:36:27Z</time>
      </trkpt>
      <trkpt lat="50.783091997727752" lon="13.832579031586647">
        <ele>537.50999999999999</ele>
        <time>2013-09-04T12:36:28Z</time>
      </trkpt>
      <trkpt lat="50.783015973865986" lon="13.832675004377961">
        <ele>538.48000000000002</ele>
        <time>2013-09-04T12:36:29Z</time>
      </trkpt>
      <trkpt lat="50.782903991639614" lon="13.832756979390979">
        <ele>539.44000000000005</ele>
        <time>2013-09-04T12:36:30Z</time>
      </trkpt>
      <trkpt lat="50.782774994149804" lon="13.832826968282461">
        <ele>539.91999999999996</ele>
        <time>2013-09-04T12:36:31Z</time>
      </trkpt>
      <trkpt lat="50.782625041902065" lon="13.832895029336214">
        <ele>541.36000000000001</ele>
        <time>2013-09-04T12:36:32Z</time>
      </trkpt>
      <trkpt lat="50.782476011663675" lon="13.832988990470767">
        <ele>542.79999999999995</ele>
        <time>2013-09-04T12:36:33Z</time>
      </trkpt>
      <trkpt lat="50.782329998910427" lon="13.83312301710248">
        <ele>544.72000000000003</ele>
        <time>2013-09-04T12:36:34Z</time>
      </trkpt>
      <trkpt lat="50.782194966450334" lon="13.833311023190618">
        <ele>545.69000000000005</ele>
        <time>2013-09-04T12:36:35Z</time>
      </trkpt>
      <trkpt lat="50.782076027244329" lon="13.833515960723162">
        <ele>546.64999999999998</ele>
        <time>2013-09-04T12:36:36Z</time>
      </trkpt>
      <trkpt lat="50.781977958977222" lon="13.833757024258375">
        <ele>548.57000000000005</ele>
        <time>2013-09-04T12:36:37Z</time>
      </trkpt>
      <trkpt lat="50.781902018934488" lon="13.834030022844672">
        <ele>550.49000000000001</ele>
        <time>2013-09-04T12:36:38Z</time>
      </trkpt>
      <trkpt lat="50.781852984800935" lon="13.834320958703756">
        <ele>551.92999999999995</ele>
        <time>2013-09-04T12:36:39Z</time>
      </trkpt>
      <trkpt lat="50.781829012557864" lon="13.834622036665678">
        <ele>553.86000000000001</ele>
        <time>2013-09-04T12:36:40Z</time>
      </trkpt>
      <trkpt lat="50.781825995072722" lon="13.834927976131439">
        <ele>554.82000000000005</ele>
        <time>2013-09-04T12:36:41Z</time>
      </trkpt>
      <trkpt lat="50.781839992851019" lon="13.835241040214896">
        <ele>556.74000000000001</ele>
        <time>2013-09-04T12:36:42Z</time>
      </trkpt>
      <trkpt lat="50.781859019771218" lon="13.835545973852277">
        <ele>558.65999999999997</ele>
        <time>2013-09-04T12:36:43Z</time>
      </trkpt>
      <trkpt lat="50.781934959813952" lon="13.836171012371778">
        <ele>562.02999999999997</ele>
        <time>2013-09-04T12:36:45Z</time>
      </trkpt>
      <trkpt lat="50.781997991725802" lon="13.836471000686288">
        <ele>563.95000000000005</ele>
        <time>2013-09-04T12:36:46Z</time>
      </trkpt>
      <trkpt lat="50.782078960910439" lon="13.836751962080598">
        <ele>564.42999999999995</ele>
        <time>2013-09-04T12:36:47Z</time>
      </trkpt>
      <trkpt lat="50.782178035005927" lon="13.83701297454536">
        <ele>565.38999999999999</ele>
        <time>2013-09-04T12:36:48Z</time>
      </trkpt>
      <trkpt lat="50.78229496255517" lon="13.837260995060205">
        <ele>566.35000000000002</ele>
        <time>2013-09-04T12:36:49Z</time>
      </trkpt>
      <trkpt lat="50.782423038035631" lon="13.837503986433148">
        <ele>567.32000000000005</ele>
        <time>2013-09-04T12:36:50Z</time>
      </trkpt>
      <trkpt lat="50.782561004161835" lon="13.837731974199414">
        <ele>569.24000000000001</ele>
        <time>2013-09-04T12:36:51Z</time>
      </trkpt>
      <trkpt lat="50.78317497856915" lon="13.839335013180971">
        <ele>577.40999999999997</ele>
        <time>2013-09-04T12:36:57Z</time>
      </trkpt>
      <trkpt lat="50.783234992995858" lon="13.839653022587299">
        <ele>579.33000000000004</ele>
        <time>2013-09-04T12:36:58Z</time>
      </trkpt>
      <trkpt lat="50.783270029351115" lon="13.839987963438034">
        <ele>580.76999999999998</ele>
        <time>2013-09-04T12:36:59Z</time>
      </trkpt>
      <trkpt lat="50.783284027129412" lon="13.840328017249703">
        <ele>582.70000000000005</ele>
        <time>2013-09-04T12:37:00Z</time>
      </trkpt>
      <trkpt lat="50.783278997987509" lon="13.840661030262709">
        <ele>585.10000000000002</ele>
        <time>2013-09-04T12:37:01Z</time>
      </trkpt>
      <trkpt lat="50.783255025744438" lon="13.840989014133811">
        <ele>586.53999999999996</ele>
        <time>2013-09-04T12:37:02Z</time>
      </trkpt>
      <trkpt lat="50.783204985782504" lon="13.841314986348152">
        <ele>587.98000000000002</ele>
        <time>2013-09-04T12:37:03Z</time>
      </trkpt>
      <trkpt lat="50.783133991062641" lon="13.841629978269339">
        <ele>589.90999999999997</ele>
        <time>2013-09-04T12:37:04Z</time>
      </trkpt>
      <trkpt lat="50.783046986907721" lon="13.841939019039273">
        <ele>591.35000000000002</ele>
        <time>2013-09-04T12:37:05Z</time>
      </trkpt>
      <trkpt lat="50.782944979146123" lon="13.842239007353783">
        <ele>592.78999999999996</ele>
        <time>2013-09-04T12:37:06Z</time>
      </trkpt>
      <trkpt lat="50.782829979434609" lon="13.842532960698009">
        <ele>593.75</ele>
        <time>2013-09-04T12:37:07Z</time>
      </trkpt>
      <trkpt lat="50.782703999429941" lon="13.842815011739731">
        <ele>595.19000000000005</ele>
        <time>2013-09-04T12:37:08Z</time>
      </trkpt>
      <trkpt lat="50.781276980414987" lon="13.845426980406046">
        <ele>607.21000000000004</ele>
        <time>2013-09-04T12:37:18Z</time>
      </trkpt>
      <trkpt lat="50.780730983242393" lon="13.847203021869063">
        <ele>617.29999999999995</ele>
        <time>2013-09-04T12:37:24Z</time>
      </trkpt>
      <trkpt lat="50.780688989907503" lon="13.847503010183573">
        <ele>618.25999999999999</ele>
        <time>2013-09-04T12:37:25Z</time>
      </trkpt>
      <trkpt lat="50.780668035149574" lon="13.847797969356179">
        <ele>619.23000000000002</ele>
        <time>2013-09-04T12:37:26Z</time>
      </trkpt>
      <trkpt lat="50.78065998852253" lon="13.84809703566134">
        <ele>620.66999999999996</ele>
        <time>2013-09-04T12:37:27Z</time>
      </trkpt>
      <trkpt lat="50.780666023492813" lon="13.848390989005566">
        <ele>621.63</ele>
        <time>2013-09-04T12:37:28Z</time>
      </trkpt>
      <trkpt lat="50.780685972422361" lon="13.848681002855301">
        <ele>622.59000000000003</ele>
        <time>2013-09-04T12:37:29Z</time>
      </trkpt>
      <trkpt lat="50.780721008777618" lon="13.848967999219894">
        <ele>623.07000000000005</ele>
        <time>2013-09-04T12:37:30Z</time>
      </trkpt>
      <trkpt lat="50.780768031254411" lon="13.849262036383152">
        <ele>624.02999999999997</ele>
        <time>2013-09-04T12:37:31Z</time>
      </trkpt>
      <trkpt lat="50.780827961862087" lon="13.849553978070617">
        <ele>624.50999999999999</ele>
        <time>2013-09-04T12:37:32Z</time>
      </trkpt>
      <trkpt lat="50.780899962410331" lon="13.849836029112339">
        <ele>624.99000000000001</ele>
        <time>2013-09-04T12:37:33Z</time>
      </trkpt>
      <trkpt lat="50.780979003757238" lon="13.850114978849888">
        <ele>625.47000000000003</ele>
        <time>2013-09-04T12:37:34Z</time>
      </trkpt>
      <trkpt lat="50.781075982376933" lon="13.85037699714303">
        <ele>625.47000000000003</ele>
        <time>2013-09-04T12:37:35Z</time>
      </trkpt>
      <trkpt lat="50.781182013452053" lon="13.850620994344354">
        <ele>625.96000000000004</ele>
        <time>2013-09-04T12:37:36Z</time>
      </trkpt>
      <trkpt lat="50.781301958486438" lon="13.850847976282239">
        <ele>625.47000000000003</ele>
        <time>2013-09-04T12:37:37Z</time>
      </trkpt>
      <trkpt lat="50.78143103979528" lon="13.851069007068872">
        <ele>625.47000000000003</ele>
        <time>2013-09-04T12:37:38Z</time>
      </trkpt>
      <trkpt lat="50.782841965556145" lon="13.852920988574624">
        <ele>624.02999999999997</ele>
        <time>2013-09-04T12:37:47Z</time>
      </trkpt>
      <trkpt lat="50.783936977386475" lon="13.85415899567306">
        <ele>615.86000000000001</ele>
        <time>2013-09-04T12:37:53Z</time>
      </trkpt>
      <trkpt lat="50.784146022051573" lon="13.854270977899432">
        <ele>614.41999999999996</ele>
        <time>2013-09-04T12:37:54Z</time>
      </trkpt>
      <trkpt lat="50.78435598872602" lon="13.854354964569211">
        <ele>612.5</ele>
        <time>2013-09-04T12:37:55Z</time>
      </trkpt>
      <trkpt lat="50.784962000325322" lon="13.854603990912437">
        <ele>606.25</ele>
        <time>2013-09-04T12:37:58Z</time>
      </trkpt>
      <trkpt lat="50.785147994756699" lon="13.854743968695402">
        <ele>603.85000000000002</ele>
        <time>2013-09-04T12:37:59Z</time>
      </trkpt>
      <trkpt lat="50.785312028601766" lon="13.854903979226947">
        <ele>602.88</ele>
        <time>2013-09-04T12:38:00Z</time>
      </trkpt>
      <trkpt lat="50.786035973578691" lon="13.855748036876321">
        <ele>592.78999999999996</ele>
        <time>2013-09-04T12:38:06Z</time>
      </trkpt>
      <trkpt lat="50.786893023177981" lon="13.856677003204823">
        <ele>589.90999999999997</ele>
        <time>2013-09-04T12:38:15Z</time>
      </trkpt>
      <trkpt lat="50.786971980705857" lon="13.85680197738111">
        <ele>591.35000000000002</ele>
        <time>2013-09-04T12:38:16Z</time>
      </trkpt>
      <trkpt lat="50.787048004567623" lon="13.856942038983107">
        <ele>592.30999999999995</ele>
        <time>2013-09-04T12:38:17Z</time>
      </trkpt>
      <trkpt lat="50.787123022601008" lon="13.857096014544368">
        <ele>593.75</ele>
        <time>2013-09-04T12:38:18Z</time>
      </trkpt>
      <trkpt lat="50.787188988178968" lon="13.857258958742023">
        <ele>594.71000000000004</ele>
        <time>2013-09-04T12:38:19Z</time>
      </trkpt>
      <trkpt lat="50.787252020090818" lon="13.857431961223483">
        <ele>596.63999999999999</ele>
        <time>2013-09-04T12:38:20Z</time>
      </trkpt>
      <trkpt lat="50.787305999547243" lon="13.85761896148324">
        <ele>598.08000000000004</ele>
        <time>2013-09-04T12:38:21Z</time>
      </trkpt>
      <trkpt lat="50.787672959268093" lon="13.859443031251431">
        <ele>609.13</ele>
        <time>2013-09-04T12:38:28Z</time>
      </trkpt>
      <trkpt lat="50.787822995334864" lon="13.860065974295139">
        <ele>612.01999999999998</ele>
        <time>2013-09-04T12:38:30Z</time>
      </trkpt>
      <trkpt lat="50.788925969973207" lon="13.863271968439221">
        <ele>619.71000000000004</ele>
        <time>2013-09-04T12:38:40Z</time>
      </trkpt>
      <trkpt lat="50.789601970463991" lon="13.866034979000688">
        <ele>623.54999999999995</ele>
        <time>2013-09-04T12:38:48Z</time>
      </trkpt>
      <trkpt lat="50.790631016716361" lon="13.868945008143783">
        <ele>623.54999999999995</ele>
        <time>2013-09-04T12:38:57Z</time>
      </trkpt>
      <trkpt lat="50.791613962501287" lon="13.872001972049475">
        <ele>619.23000000000002</ele>
        <time>2013-09-04T12:39:06Z</time>
      </trkpt>
      <trkpt lat="50.793008040636778" lon="13.876301972195506">
        <ele>614.89999999999998</ele>
        <time>2013-09-04T12:39:19Z</time>
      </trkpt>
      <trkpt lat="50.794314024969935" lon="13.879592036828399">
        <ele>602.39999999999998</ele>
        <time>2013-09-04T12:39:29Z</time>
      </trkpt>
      <trkpt lat="50.795706007629633" lon="13.881274033337831">
        <ele>599.03999999999996</ele>
        <time>2013-09-04T12:39:36Z</time>
      </trkpt>
      <trkpt lat="50.79709799028933" lon="13.881994038820267">
        <ele>593.26999999999998</ele>
        <time>2013-09-04T12:39:42Z</time>
      </trkpt>
      <trkpt lat="50.798799013718963" lon="13.881952967494726">
        <ele>584.62</ele>
        <time>2013-09-04T12:39:49Z</time>
      </trkpt>
      <trkpt lat="50.800969004631042" lon="13.881113016977906">
        <ele>570.67999999999995</ele>
        <time>2013-09-04T12:39:58Z</time>
      </trkpt>
      <trkpt lat="50.804184973239899" lon="13.880484960973263">
        <ele>560.11000000000001</ele>
        <time>2013-09-04T12:40:11Z</time>
      </trkpt>
      <trkpt lat="50.805678963661194" lon="13.880463000386953">
        <ele>561.07000000000005</ele>
        <time>2013-09-04T12:40:18Z</time>
      </trkpt>
      <trkpt lat="50.808203006163239" lon="13.880823003128171">
        <ele>559.62</ele>
        <time>2013-09-04T12:40:31Z</time>
      </trkpt>
      <trkpt lat="50.810773987323046" lon="13.881591958925128">
        <ele>558.17999999999995</ele>
        <time>2013-09-04T12:40:43Z</time>
      </trkpt>
      <trkpt lat="50.812119031324983" lon="13.8816780410707">
        <ele>560.11000000000001</ele>
        <time>2013-09-04T12:40:50Z</time>
      </trkpt>
      <trkpt lat="50.812302008271217" lon="13.881761021912098">
        <ele>560.59000000000003</ele>
        <time>2013-09-04T12:40:51Z</time>
      </trkpt>
      <trkpt lat="50.812482973560691" lon="13.881866969168186">
        <ele>560.59000000000003</ele>
        <time>2013-09-04T12:40:52Z</time>
      </trkpt>
      <trkpt lat="50.812661005184054" lon="13.881996972486377">
        <ele>561.07000000000005</ele>
        <time>2013-09-04T12:40:53Z</time>
      </trkpt>
      <trkpt lat="50.812831996008754" lon="13.88215497136116">
        <ele>561.07000000000005</ele>
        <time>2013-09-04T12:40:54Z</time>
      </trkpt>
      <trkpt lat="50.81299401819706" lon="13.882340965792537">
        <ele>561.54999999999995</ele>
        <time>2013-09-04T12:40:55Z</time>
      </trkpt>
      <trkpt lat="50.813144976273179" lon="13.882550010457635">
        <ele>562.02999999999997</ele>
        <time>2013-09-04T12:40:56Z</time>
      </trkpt>
      <trkpt lat="50.813285037875175" lon="13.882777998223901">
        <ele>562.50999999999999</ele>
        <time>2013-09-04T12:40:57Z</time>
      </trkpt>
      <trkpt lat="50.813408000394702" lon="13.883017972111702">
        <ele>562.99000000000001</ele>
        <time>2013-09-04T12:40:58Z</time>
      </trkpt>
      <trkpt lat="50.813515037298203" lon="13.883266998454928">
        <ele>562.99000000000001</ele>
        <time>2013-09-04T12:40:59Z</time>
      </trkpt>
      <trkpt lat="50.813611010089517" lon="13.883519964292645">
        <ele>563.47000000000003</ele>
        <time>2013-09-04T12:41:00Z</time>
      </trkpt>
      <trkpt lat="50.813691979274154" lon="13.883769996464252">
        <ele>563.95000000000005</ele>
        <time>2013-09-04T12:41:01Z</time>
      </trkpt>
      <trkpt lat="50.813758028671145" lon="13.884009970352054">
        <ele>563.95000000000005</ele>
        <time>2013-09-04T12:41:02Z</time>
      </trkpt>
      <trkpt lat="50.813945028930902" lon="13.884770963340998">
        <ele>564.42999999999995</ele>
        <time>2013-09-04T12:41:06Z</time>
      </trkpt>
      <trkpt lat="50.813946034759283" lon="13.884917981922626">
        <ele>564.42999999999995</ele>
        <time>2013-09-04T12:41:07Z</time>
      </trkpt>
      <trkpt lat="50.813909992575645" lon="13.885039016604424">
        <ele>564.42999999999995</ele>
        <time>2013-09-04T12:41:08Z</time>
      </trkpt>
      <trkpt lat="50.81383396871388" lon="13.885137001052499">
        <ele>564.42999999999995</ele>
        <time>2013-09-04T12:41:09Z</time>
      </trkpt>
      <trkpt lat="50.813720980659127" lon="13.885226016864181">
        <ele>565.38999999999999</ele>
        <time>2013-09-04T12:41:10Z</time>
      </trkpt>
      <trkpt lat="50.813590977340937" lon="13.885274967178702">
        <ele>565.38999999999999</ele>
        <time>2013-09-04T12:41:11Z</time>
      </trkpt>
      <trkpt lat="50.813443036749959" lon="13.885274967178702">
        <ele>566.83000000000004</ele>
        <time>2013-09-04T12:41:12Z</time>
      </trkpt>
      <trkpt lat="50.813290989026427" lon="13.885221993550658">
        <ele>567.32000000000005</ele>
        <time>2013-09-04T12:41:13Z</time>
      </trkpt>
      <trkpt lat="50.813138019293547" lon="13.885111017152667">
        <ele>568.27999999999997</ele>
        <time>2013-09-04T12:41:14Z</time>
      </trkpt>
      <trkpt lat="50.812992006540298" lon="13.884969027712941">
        <ele>568.75999999999999</ele>
        <time>2013-09-04T12:41:15Z</time>
      </trkpt>
      <trkpt lat="50.812854040414095" lon="13.884810023009777">
        <ele>568.75999999999999</ele>
        <time>2013-09-04T12:41:16Z</time>
      </trkpt>
      <trkpt lat="50.812707021832466" lon="13.884655963629484">
        <ele>568.75999999999999</ele>
        <time>2013-09-04T12:41:17Z</time>
      </trkpt>
      <trkpt lat="50.812548017129302" lon="13.884523026645184">
        <ele>568.75999999999999</ele>
        <time>2013-09-04T12:41:18Z</time>
      </trkpt>
      <trkpt lat="50.812378032132983" lon="13.884414983913302">
        <ele>568.27999999999997</ele>
        <time>2013-09-04T12:41:19Z</time>
      </trkpt>
      <trkpt lat="50.812192959710956" lon="13.884334014728665">
        <ele>568.27999999999997</ele>
        <time>2013-09-04T12:41:20Z</time>
      </trkpt>
      <trkpt lat="50.811994979158044" lon="13.884281041100621">
        <ele>567.79999999999995</ele>
        <time>2013-09-04T12:41:21Z</time>
      </trkpt>
      <trkpt lat="50.811800016090274" lon="13.884266037493944">
        <ele>567.32000000000005</ele>
        <time>2013-09-04T12:41:22Z</time>
      </trkpt>
      <trkpt lat="50.811602035537362" lon="13.88428196310997">
        <ele>567.32000000000005</ele>
        <time>2013-09-04T12:41:23Z</time>
      </trkpt>
      <trkpt lat="50.811407994478941" lon="13.884333008900285">
        <ele>567.79999999999995</ele>
        <time>2013-09-04T12:41:24Z</time>
      </trkpt>
      <trkpt lat="50.811227029189467" lon="13.884426970034838">
        <ele>568.27999999999997</ele>
        <time>2013-09-04T12:41:25Z</time>
      </trkpt>
      <trkpt lat="50.811046985909343" lon="13.884554961696267">
        <ele>569.72000000000003</ele>
        <time>2013-09-04T12:41:26Z</time>
      </trkpt>
      <trkpt lat="50.810880018398166" lon="13.884701980277896">
        <ele>570.20000000000005</ele>
        <time>2013-09-04T12:41:27Z</time>
      </trkpt>
      <trkpt lat="50.810715984553099" lon="13.884854028001428">
        <ele>571.15999999999997</ele>
        <time>2013-09-04T12:41:28Z</time>
      </trkpt>
      <trkpt lat="50.809762962162495" lon="13.885895982384682">
        <ele>578.37</ele>
        <time>2013-09-04T12:41:35Z</time>
      </trkpt>
      <trkpt lat="50.809393990784883" lon="13.88645002618432">
        <ele>581.25</ele>
        <time>2013-09-04T12:41:39Z</time>
      </trkpt>
      <trkpt lat="50.809303969144821" lon="13.886533007025719">
        <ele>582.22000000000003</ele>
        <time>2013-09-04T12:41:40Z</time>
      </trkpt>
      <trkpt lat="50.809218976646662" lon="13.886575000360608">
        <ele>583.17999999999995</ele>
        <time>2013-09-04T12:41:41Z</time>
      </trkpt>
      <trkpt lat="50.809101965278387" lon="13.886544993147254">
        <ele>584.13999999999999</ele>
        <time>2013-09-04T12:41:42Z</time>
      </trkpt>
      <trkpt lat="50.808986965566874" lon="13.88651599176228">
        <ele>584.62</ele>
        <time>2013-09-04T12:41:43Z</time>
      </trkpt>
      <trkpt lat="50.808861991390586" lon="13.886504005640745">
        <ele>585.10000000000002</ele>
        <time>2013-09-04T12:41:44Z</time>
      </trkpt>
      <trkpt lat="50.808725031092763" lon="13.886527977883816">
        <ele>585.10000000000002</ele>
        <time>2013-09-04T12:41:45Z</time>
      </trkpt>
      <trkpt lat="50.808601984754205" lon="13.886573994532228">
        <ele>585.58000000000004</ele>
        <time>2013-09-04T12:41:46Z</time>
      </trkpt>
      <trkpt lat="50.808482961729169" lon="13.886654041707516">
        <ele>586.05999999999995</ele>
        <time>2013-09-04T12:41:47Z</time>
      </trkpt>
      <trkpt lat="50.808368967846036" lon="13.886756971478462">
        <ele>586.53999999999996</ele>
        <time>2013-09-04T12:41:48Z</time>
      </trkpt>
      <trkpt lat="50.808254973962903" lon="13.886871971189976">
        <ele>587.01999999999998</ele>
        <time>2013-09-04T12:41:49Z</time>
      </trkpt>
      <trkpt lat="50.807935036718845" lon="13.887240020558238">
        <ele>588.46000000000004</ele>
        <time>2013-09-04T12:41:52Z</time>
      </trkpt>
      <trkpt lat="50.807846020907164" lon="13.887399025261402">
        <ele>588.95000000000005</ele>
        <time>2013-09-04T12:41:53Z</time>
      </trkpt>
      <trkpt lat="50.807775026187301" lon="13.887560963630676">
        <ele>588.95000000000005</ele>
        <time>2013-09-04T12:41:54Z</time>
      </trkpt>
      <trkpt lat="50.807664971798658" lon="13.887908980250359">
        <ele>589.90999999999997</ele>
        <time>2013-09-04T12:41:56Z</time>
      </trkpt>
      <trkpt lat="50.807617027312517" lon="13.88810402713716">
        <ele>590.38999999999999</ele>
        <time>2013-09-04T12:41:57Z</time>
      </trkpt>
      <trkpt lat="50.807518037036061" lon="13.888506023213267">
        <ele>591.35000000000002</ele>
        <time>2013-09-04T12:41:59Z</time>
      </trkpt>
      <trkpt lat="50.807484006509185" lon="13.888710960745811">
        <ele>592.30999999999995</ele>
        <time>2013-09-04T12:42:00Z</time>
      </trkpt>
      <trkpt lat="50.807412005960941" lon="13.889578990638256">
        <ele>593.75</ele>
        <time>2013-09-04T12:42:04Z</time>
      </trkpt>
      <trkpt lat="50.80736598931253" lon="13.889790968969464">
        <ele>594.23000000000002</ele>
        <time>2013-09-04T12:42:05Z</time>
      </trkpt>
      <trkpt lat="50.807302035391331" lon="13.889990039169788">
        <ele>593.75</ele>
        <time>2013-09-04T12:42:06Z</time>
      </trkpt>
      <trkpt lat="50.80708796158433" lon="13.890567971393466">
        <ele>595.66999999999996</ele>
        <time>2013-09-04T12:42:09Z</time>
      </trkpt>
      <trkpt lat="50.806733993813396" lon="13.892402015626431">
        <ele>594.71000000000004</ele>
        <time>2013-09-04T12:42:18Z</time>
      </trkpt>
      <trkpt lat="50.806727958843112" lon="13.894000025466084">
        <ele>593.26999999999998</ele>
        <time>2013-09-04T12:42:26Z</time>
      </trkpt>
      <trkpt lat="50.806754026561975" lon="13.89594697393477">
        <ele>589.90999999999997</ele>
        <time>2013-09-04T12:42:35Z</time>
      </trkpt>
      <trkpt lat="50.806656964123249" lon="13.897426966577768">
        <ele>579.80999999999995</ele>
        <time>2013-09-04T12:42:42Z</time>
      </trkpt>
      <trkpt lat="50.80661597661674" lon="13.897632993757725">
        <ele>576.92999999999995</ele>
        <time>2013-09-04T12:42:43Z</time>
      </trkpt>
      <trkpt lat="50.806547999382019" lon="13.898002970963717">
        <ele>573.08000000000004</ele>
        <time>2013-09-04T12:42:45Z</time>
      </trkpt>
      <trkpt lat="50.806553028523922" lon="13.898187959566712">
        <ele>571.63999999999999</ele>
        <time>2013-09-04T12:42:46Z</time>
      </trkpt>
      <trkpt lat="50.806570965796709" lon="13.898570006713271">
        <ele>568.75999999999999</ele>
        <time>2013-09-04T12:42:48Z</time>
      </trkpt>
      <trkpt lat="50.806561997160316" lon="13.898763963952661">
        <ele>567.32000000000005</ele>
        <time>2013-09-04T12:42:49Z</time>
      </trkpt>
      <trkpt lat="50.806543976068497" lon="13.898951970040798">
        <ele>565.38999999999999</ele>
        <time>2013-09-04T12:42:50Z</time>
      </trkpt>
      <trkpt lat="50.80657297745347" lon="13.899313984438777">
        <ele>562.99000000000001</ele>
        <time>2013-09-04T12:42:52Z</time>
      </trkpt>
      <trkpt lat="50.807159962132573" lon="13.901519011706114">
        <ele>544.24000000000001</ele>
        <time>2013-09-04T12:43:04Z</time>
      </trkpt>
      <trkpt lat="50.807307986542583" lon="13.902059979736805">
        <ele>541.36000000000001</ele>
        <time>2013-09-04T12:43:07Z</time>
      </trkpt>
      <trkpt lat="50.807654997333884" lon="13.902973020449281">
        <ele>536.07000000000005</ele>
        <time>2013-09-04T12:43:12Z</time>
      </trkpt>
      <trkpt lat="50.808093035593629" lon="13.904716959223151">
        <ele>528.38</ele>
        <time>2013-09-04T12:43:20Z</time>
      </trkpt>
      <trkpt lat="50.808283975347877" lon="13.905345015227795">
        <ele>524.05999999999995</ele>
        <time>2013-09-04T12:43:23Z</time>
      </trkpt>
      <trkpt lat="50.808383971452713" lon="13.905519023537636">
        <ele>522.13</ele>
        <time>2013-09-04T12:43:24Z</time>
      </trkpt>
      <trkpt lat="50.808617994189262" lon="13.905810965225101">
        <ele>518.76999999999998</ele>
        <time>2013-09-04T12:43:26Z</time>
      </trkpt>
      <trkpt lat="50.808786973357201" lon="13.905934011563659">
        <ele>516.85000000000002</ele>
        <time>2013-09-04T12:43:27Z</time>
      </trkpt>
      <trkpt lat="50.808941032737494" lon="13.906034007668495">
        <ele>515.39999999999998</ele>
        <time>2013-09-04T12:43:28Z</time>
      </trkpt>
      <trkpt lat="50.809414023533463" lon="13.90630398876965">
        <ele>510.60000000000002</ele>
        <time>2013-09-04T12:43:31Z</time>
      </trkpt>
      <trkpt lat="50.810348019003868" lon="13.9067970123142">
        <ele>502.91000000000003</ele>
        <time>2013-09-04T12:43:37Z</time>
      </trkpt>
      <trkpt lat="50.810481961816549" lon="13.906922992318869">
        <ele>501.94999999999999</ele>
        <time>2013-09-04T12:43:38Z</time>
      </trkpt>
      <trkpt lat="50.810591010376811" lon="13.907048972323537">
        <ele>500.5</ele>
        <time>2013-09-04T12:43:39Z</time>
      </trkpt>
      <trkpt lat="50.810682037845254" lon="13.907218035310507">
        <ele>499.06</ele>
        <time>2013-09-04T12:43:40Z</time>
      </trkpt>
      <trkpt lat="50.810751020908356" lon="13.907411992549896">
        <ele>498.10000000000002</ele>
        <time>2013-09-04T12:43:41Z</time>
      </trkpt>
      <trkpt lat="50.810795025900006" lon="13.907631011679769">
        <ele>496.66000000000003</ele>
        <time>2013-09-04T12:43:42Z</time>
      </trkpt>
      <trkpt lat="50.810820003971457" lon="13.90787199139595">
        <ele>495.69999999999999</ele>
        <time>2013-09-04T12:43:43Z</time>
      </trkpt>
      <trkpt lat="50.810830984264612" lon="13.908139960840344">
        <ele>494.25999999999999</ele>
        <time>2013-09-04T12:43:44Z</time>
      </trkpt>
      <trkpt lat="50.810834001749754" lon="13.90840801410377">
        <ele>493.76999999999998</ele>
        <time>2013-09-04T12:43:45Z</time>
      </trkpt>
      <trkpt lat="50.810859985649586" lon="13.909982973709702">
        <ele>487.05000000000001</ele>
        <time>2013-09-04T12:43:51Z</time>
      </trkpt>
      <trkpt lat="50.8109110314399" lon="13.910240968689322">
        <ele>486.07999999999998</ele>
        <time>2013-09-04T12:43:52Z</time>
      </trkpt>
      <trkpt lat="50.810966016724706" lon="13.91072996892035">
        <ele>483.19999999999999</ele>
        <time>2013-09-04T12:43:54Z</time>
      </trkpt>
      <trkpt lat="50.810970962047577" lon="13.91126599162817">
        <ele>479.83999999999997</ele>
        <time>2013-09-04T12:43:57Z</time>
      </trkpt>
      <trkpt lat="50.810927962884307" lon="13.911393983289599">
        <ele>478.38999999999999</ele>
        <time>2013-09-04T12:43:58Z</time>
      </trkpt>
      <trkpt lat="50.810875995084643" lon="13.911517029628158">
        <ele>476.94999999999999</ele>
        <time>2013-09-04T12:43:59Z</time>
      </trkpt>
      <trkpt lat="50.810797959566116" lon="13.911624988541007">
        <ele>475.50999999999999</ele>
        <time>2013-09-04T12:44:00Z</time>
      </trkpt>
      <trkpt lat="50.810711039230227" lon="13.911719033494592">
        <ele>475.50999999999999</ele>
        <time>2013-09-04T12:44:01Z</time>
      </trkpt>
      <trkpt lat="50.810621017590165" lon="13.911791034042835">
        <ele>474.06999999999999</ele>
        <time>2013-09-04T12:44:02Z</time>
      </trkpt>
      <trkpt lat="50.810522027313709" lon="13.911850964650512">
        <ele>473.11000000000001</ele>
        <time>2013-09-04T12:44:03Z</time>
      </trkpt>
      <trkpt lat="50.810410967096686" lon="13.91188801266253">
        <ele>472.13999999999999</ele>
        <time>2013-09-04T12:44:04Z</time>
      </trkpt>
      <trkpt lat="50.810294961556792" lon="13.911908967420459">
        <ele>471.18000000000001</ele>
        <time>2013-09-04T12:44:05Z</time>
      </trkpt>
      <trkpt lat="50.810175016522408" lon="13.911936040967703">
        <ele>470.22000000000003</ele>
        <time>2013-09-04T12:44:06Z</time>
      </trkpt>
      <trkpt lat="50.809954991564155" lon="13.912020027637482">
        <ele>468.30000000000001</ele>
        <time>2013-09-04T12:44:08Z</time>
      </trkpt>
      <trkpt lat="50.809893971309066" lon="13.912131004035473">
        <ele>467.33999999999997</ele>
        <time>2013-09-04T12:44:09Z</time>
      </trkpt>
      <trkpt lat="50.809852983802557" lon="13.912257989868522">
        <ele>466.38</ele>
        <time>2013-09-04T12:44:10Z</time>
      </trkpt>
      <trkpt lat="50.809825994074345" lon="13.912399979308248">
        <ele>465.89999999999998</ele>
        <time>2013-09-04T12:44:11Z</time>
      </trkpt>
      <trkpt lat="50.809813002124429" lon="13.912499975413084">
        <ele>464.44999999999999</ele>
        <time>2013-09-04T12:44:12Z</time>
      </trkpt>
      <trkpt lat="50.80981501378119" lon="13.912600977346301">
        <ele>463.49000000000001</ele>
        <time>2013-09-04T12:44:13Z</time>
      </trkpt>
      <trkpt lat="50.809830017387867" lon="13.912689993157983">
        <ele>463.00999999999999</ele>
        <time>2013-09-04T12:44:14Z</time>
      </trkpt>
      <trkpt lat="50.80985801294446" lon="13.912744978442788">
        <ele>462.05000000000001</ele>
        <time>2013-09-04T12:44:15Z</time>
      </trkpt>
      <trkpt lat="50.80990201793611" lon="13.912774985656142">
        <ele>461.08999999999997</ele>
        <time>2013-09-04T12:44:16Z</time>
      </trkpt>
      <trkpt lat="50.809977035969496" lon="13.912805998697877">
        <ele>460.61000000000001</ele>
        <time>2013-09-04T12:44:17Z</time>
      </trkpt>
      <trkpt lat="50.810075020417571" lon="13.912841035053134">
        <ele>460.13</ele>
        <time>2013-09-04T12:44:18Z</time>
      </trkpt>
      <trkpt lat="50.810727970674634" lon="13.91309198923409">
        <ele>456.75999999999999</ele>
        <time>2013-09-04T12:44:23Z</time>
      </trkpt>
      <trkpt lat="50.811953991651535" lon="13.914243998005986">
        <ele>452.92000000000002</ele>
        <time>2013-09-04T12:44:31Z</time>
      </trkpt>
      <trkpt lat="50.812541982159019" lon="13.914988981559873">
        <ele>452.44</ele>
        <time>2013-09-04T12:44:35Z</time>
      </trkpt>
      <trkpt lat="50.812652036547661" lon="13.915229039266706">
        <ele>452.92000000000002</ele>
        <time>2013-09-04T12:44:36Z</time>
      </trkpt>
      <trkpt lat="50.813419986516237" lon="13.916902989149094">
        <ele>454.83999999999997</ele>
        <time>2013-09-04T12:44:43Z</time>
      </trkpt>
      <trkpt lat="50.813559964299202" lon="13.917074985802174">
        <ele>455.31999999999999</ele>
        <time>2013-09-04T12:44:44Z</time>
      </trkpt>
      <trkpt lat="50.813779989257455" lon="13.917146986350417">
        <ele>456.27999999999997</ele>
        <time>2013-09-04T12:44:45Z</time>
      </trkpt>
      <trkpt lat="50.813944023102522" lon="13.917244970798492">
        <ele>457.24000000000001</ele>
        <time>2013-09-04T12:44:46Z</time>
      </trkpt>
      <trkpt lat="50.814744997769594" lon="13.917780993506312">
        <ele>462.52999999999997</ele>
        <time>2013-09-04T12:44:51Z</time>
      </trkpt>
      <trkpt lat="50.814828984439373" lon="13.91796899959445">
        <ele>463.49000000000001</ele>
        <time>2013-09-04T12:44:52Z</time>
      </trkpt>
      <trkpt lat="50.814896039664745" lon="13.918188018724322">
        <ele>464.93000000000001</ele>
        <time>2013-09-04T12:44:53Z</time>
      </trkpt>
      <trkpt lat="50.814973991364241" lon="13.918350040912628">
        <ele>466.86000000000001</ele>
        <time>2013-09-04T12:44:54Z</time>
      </trkpt>
      <trkpt lat="50.814991006627679" lon="13.918598983436823">
        <ele>468.77999999999997</ele>
        <time>2013-09-04T12:44:55Z</time>
      </trkpt>
      <trkpt lat="50.815009027719498" lon="13.918829988688231">
        <ele>470.69999999999999</ele>
        <time>2013-09-04T12:44:56Z</time>
      </trkpt>
      <trkpt lat="50.815021013841033" lon="13.919078009203076">
        <ele>472.13999999999999</ele>
        <time>2013-09-04T12:44:57Z</time>
      </trkpt>
      <trkpt lat="50.815054038539529" lon="13.919564997777343">
        <ele>474.55000000000001</ele>
        <time>2013-09-04T12:44:59Z</time>
      </trkpt>
      <trkpt lat="50.815153028815985" lon="13.920292966067791">
        <ele>478.38999999999999</ele>
        <time>2013-09-04T12:45:02Z</time>
      </trkpt>
      <trkpt lat="50.815204996615648" lon="13.920537969097495">
        <ele>479.35000000000002</ele>
        <time>2013-09-04T12:45:03Z</time>
      </trkpt>
      <trkpt lat="50.815264005213976" lon="13.920765034854412">
        <ele>480.80000000000001</ele>
        <time>2013-09-04T12:45:04Z</time>
      </trkpt>
      <trkpt lat="50.815310021862388" lon="13.921009032055736">
        <ele>481.27999999999997</ele>
        <time>2013-09-04T12:45:05Z</time>
      </trkpt>
      <trkpt lat="50.815352015197277" lon="13.921250011771917">
        <ele>481.75999999999999</ele>
        <time>2013-09-04T12:45:06Z</time>
      </trkpt>
      <trkpt lat="50.815500039607286" lon="13.922195993363857">
        <ele>483.68000000000001</ele>
        <time>2013-09-04T12:45:10Z</time>
      </trkpt>
      <trkpt lat="50.815496016293764" lon="13.922413000836968">
        <ele>484.16000000000003</ele>
        <time>2013-09-04T12:45:11Z</time>
      </trkpt>
      <trkpt lat="50.815456034615636" lon="13.922621961683035">
        <ele>485.12</ele>
        <time>2013-09-04T12:45:12Z</time>
      </trkpt>
      <trkpt lat="50.815399037674069" lon="13.92282597720623">
        <ele>486.56</ele>
        <time>2013-09-04T12:45:13Z</time>
      </trkpt>
      <trkpt lat="50.815332988277078" lon="13.923023035749793">
        <ele>488.00999999999999</ele>
        <time>2013-09-04T12:45:14Z</time>
      </trkpt>
      <trkpt lat="50.815299041569233" lon="13.923202995210886">
        <ele>490.41000000000003</ele>
        <time>2013-09-04T12:45:15Z</time>
      </trkpt>
      <trkpt lat="50.815239027142525" lon="13.923397036269307">
        <ele>490.88999999999999</ele>
        <time>2013-09-04T12:45:16Z</time>
      </trkpt>
      <trkpt lat="50.815206002444029" lon="13.92359702847898">
        <ele>492.32999999999998</ele>
        <time>2013-09-04T12:45:17Z</time>
      </trkpt>
      <trkpt lat="50.815195022150874" lon="13.923804983496666">
        <ele>493.29000000000002</ele>
        <time>2013-09-04T12:45:18Z</time>
      </trkpt>
      <trkpt lat="50.815209019929171" lon="13.924003969877958">
        <ele>494.25999999999999</ele>
        <time>2013-09-04T12:45:19Z</time>
      </trkpt>
      <trkpt lat="50.815260987728834" lon="13.924187030643225">
        <ele>495.22000000000003</ele>
        <time>2013-09-04T12:45:20Z</time>
      </trkpt>
      <trkpt lat="50.815331982448697" lon="13.924336982890964">
        <ele>496.66000000000003</ele>
        <time>2013-09-04T12:45:21Z</time>
      </trkpt>
      <trkpt lat="50.815407000482082" lon="13.924470003694296">
        <ele>497.13999999999999</ele>
        <time>2013-09-04T12:45:22Z</time>
      </trkpt>
      <trkpt lat="50.81550900824368" lon="13.924569999799132">
        <ele>498.10000000000002</ele>
        <time>2013-09-04T12:45:23Z</time>
      </trkpt>
      <trkpt lat="50.815646974369884" lon="13.924643006175756">
        <ele>499.06</ele>
        <time>2013-09-04T12:45:24Z</time>
      </trkpt>
      <trkpt lat="50.815786030143499" lon="13.92469204030931">
        <ele>499.54000000000002</ele>
        <time>2013-09-04T12:45:25Z</time>
      </trkpt>
      <trkpt lat="50.815929025411606" lon="13.924734033644199">
        <ele>500.01999999999998</ele>
        <time>2013-09-04T12:45:26Z</time>
      </trkpt>
      <trkpt lat="50.816076966002584" lon="13.924778960645199">
        <ele>500.98000000000002</ele>
        <time>2013-09-04T12:45:27Z</time>
      </trkpt>
      <trkpt lat="50.816855980083346" lon="13.925066962838173">
        <ele>503.87</ele>
        <time>2013-09-04T12:45:32Z</time>
      </trkpt>
      <trkpt lat="50.817045997828245" lon="13.925195038318634">
        <ele>505.79000000000002</ele>
        <time>2013-09-04T12:45:33Z</time>
      </trkpt>
      <trkpt lat="50.817165020853281" lon="13.925396958366036">
        <ele>507.23000000000002</ele>
        <time>2013-09-04T12:45:34Z</time>
      </trkpt>
      <trkpt lat="50.817265016958117" lon="13.925633998587728">
        <ele>508.67000000000002</ele>
        <time>2013-09-04T12:45:35Z</time>
      </trkpt>
      <trkpt lat="50.817327965050936" lon="13.925887970253825">
        <ele>509.63999999999999</ele>
        <time>2013-09-04T12:45:36Z</time>
      </trkpt>
      <trkpt lat="50.817355960607529" lon="13.926164992153645">
        <ele>510.12</ele>
        <time>2013-09-04T12:45:37Z</time>
      </trkpt>
      <trkpt lat="50.817352021113038" lon="13.926447965204716">
        <ele>510.60000000000002</ele>
        <time>2013-09-04T12:45:38Z</time>
      </trkpt>
      <trkpt lat="50.817328970879316" lon="13.926732027903199">
        <ele>510.60000000000002</ele>
        <time>2013-09-04T12:45:39Z</time>
      </trkpt>
      <trkpt lat="50.817297035828233" lon="13.927018018439412">
        <ele>510.60000000000002</ele>
        <time>2013-09-04T12:45:40Z</time>
      </trkpt>
      <trkpt lat="50.816967040300369" lon="13.929653037339449">
        <ele>510.60000000000002</ele>
        <time>2013-09-04T12:45:49Z</time>
      </trkpt>
      <trkpt lat="50.816897973418236" lon="13.929925030097365">
        <ele>511.56</ele>
        <time>2013-09-04T12:45:50Z</time>
      </trkpt>
      <trkpt lat="50.816809041425586" lon="13.930180007591844">
        <ele>511.56</ele>
        <time>2013-09-04T12:45:51Z</time>
      </trkpt>
      <trkpt lat="50.816704016178846" lon="13.930399026721716">
        <ele>511.56</ele>
        <time>2013-09-04T12:45:52Z</time>
      </trkpt>
      <trkpt lat="50.816579964011908" lon="13.930599018931389">
        <ele>511.56</ele>
        <time>2013-09-04T12:45:53Z</time>
      </trkpt>
      <trkpt lat="50.816441997885704" lon="13.930761963129044">
        <ele>511.07999999999998</ele>
        <time>2013-09-04T12:45:54Z</time>
      </trkpt>
      <trkpt lat="50.816288022324443" lon="13.930893978103995">
        <ele>511.07999999999998</ele>
        <time>2013-09-04T12:45:55Z</time>
      </trkpt>
      <trkpt lat="50.816120970994234" lon="13.931003026664257">
        <ele>511.07999999999998</ele>
        <time>2013-09-04T12:45:56Z</time>
      </trkpt>
      <trkpt lat="50.815949980169535" lon="13.931091036647558">
        <ele>511.56</ele>
        <time>2013-09-04T12:45:57Z</time>
      </trkpt>
      <trkpt lat="50.815313961356878" lon="13.931385995820165">
        <ele>512.03999999999996</ele>
        <time>2013-09-04T12:46:01Z</time>
      </trkpt>
      <trkpt lat="50.815197033807635" lon="13.931509964168072">
        <ele>511.07999999999998</ele>
        <time>2013-09-04T12:46:02Z</time>
      </trkpt>
      <trkpt lat="50.815107012167573" lon="13.931663017719984">
        <ele>510.60000000000002</ele>
        <time>2013-09-04T12:46:03Z</time>
      </trkpt>
      <trkpt lat="50.815059989690781" lon="13.931839959695935">
        <ele>510.60000000000002</ele>
        <time>2013-09-04T12:46:04Z</time>
      </trkpt>
      <trkpt lat="50.815056972205639" lon="13.932032994925976">
        <ele>510.60000000000002</ele>
        <time>2013-09-04T12:46:05Z</time>
      </trkpt>
      <trkpt lat="50.815074993297458" lon="13.932233992964029">
        <ele>510.12</ele>
        <time>2013-09-04T12:46:06Z</time>
      </trkpt>
      <trkpt lat="50.815121009945869" lon="13.932452006265521">
        <ele>510.12</ele>
        <time>2013-09-04T12:46:07Z</time>
      </trkpt>
      <trkpt lat="50.815186975523829" lon="13.932661972939968">
        <ele>509.63999999999999</ele>
        <time>2013-09-04T12:46:08Z</time>
      </trkpt>
      <trkpt lat="50.815275991335511" lon="13.932875040918589">
        <ele>509.63999999999999</ele>
        <time>2013-09-04T12:46:09Z</time>
      </trkpt>
      <trkpt lat="50.815386967733502" lon="13.933079978451133">
        <ele>509.63999999999999</ele>
        <time>2013-09-04T12:46:10Z</time>
      </trkpt>
      <trkpt lat="50.815512025728822" lon="13.933273013681173">
        <ele>510.12</ele>
        <time>2013-09-04T12:46:11Z</time>
      </trkpt>
      <trkpt lat="50.815646974369884" lon="13.933455990627408">
        <ele>510.12</ele>
        <time>2013-09-04T12:46:12Z</time>
      </trkpt>
      <trkpt lat="50.815796004608274" lon="13.933625975623727">
        <ele>510.12</ele>
        <time>2013-09-04T12:46:13Z</time>
      </trkpt>
      <trkpt lat="50.815955009311438" lon="13.93378003500402">
        <ele>510.60000000000002</ele>
        <time>2013-09-04T12:46:14Z</time>
      </trkpt>
      <trkpt lat="50.816120970994234" lon="13.933915989473462">
        <ele>511.56</ele>
        <time>2013-09-04T12:46:15Z</time>
      </trkpt>
      <trkpt lat="50.816291039809585" lon="13.93403802998364">
        <ele>512.03999999999996</ele>
        <time>2013-09-04T12:46:16Z</time>
      </trkpt>
      <trkpt lat="50.816484997048974" lon="13.934138026088476">
        <ele>512.51999999999998</ele>
        <time>2013-09-04T12:46:17Z</time>
      </trkpt>
      <trkpt lat="50.816679960116744" lon="13.934221006929874">
        <ele>512.51999999999998</ele>
        <time>2013-09-04T12:46:18Z</time>
      </trkpt>
      <trkpt lat="50.816880036145449" lon="13.934285966679454">
        <ele>513.48000000000002</ele>
        <time>2013-09-04T12:46:19Z</time>
      </trkpt>
      <trkpt lat="50.817080028355122" lon="13.934330977499485">
        <ele>514.44000000000005</ele>
        <time>2013-09-04T12:46:20Z</time>
      </trkpt>
      <trkpt lat="50.817274991422892" lon="13.934347992762923">
        <ele>515.39999999999998</ele>
        <time>2013-09-04T12:46:21Z</time>
      </trkpt>
      <trkpt lat="50.817472971975803" lon="13.934315973892808">
        <ele>517.33000000000004</ele>
        <time>2013-09-04T12:46:22Z</time>
      </trkpt>
      <trkpt lat="50.817668018862605" lon="13.934245985001326">
        <ele>517.80999999999995</ele>
        <time>2013-09-04T12:46:23Z</time>
      </trkpt>
      <trkpt lat="50.817858958616853" lon="13.934152023866773">
        <ele>517.80999999999995</ele>
        <time>2013-09-04T12:46:24Z</time>
      </trkpt>
      <trkpt lat="50.818040007725358" lon="13.934010034427047">
        <ele>518.76999999999998</ele>
        <time>2013-09-04T12:46:25Z</time>
      </trkpt>
      <trkpt lat="50.818206975236535" lon="13.93382403999567">
        <ele>520.21000000000004</ele>
        <time>2013-09-04T12:46:26Z</time>
      </trkpt>
      <trkpt lat="50.818360028788447" lon="13.933626981452107">
        <ele>521.64999999999998</ele>
        <time>2013-09-04T12:46:27Z</time>
      </trkpt>
      <trkpt lat="50.818505035713315" lon="13.933405028656125">
        <ele>522.61000000000001</ele>
        <time>2013-09-04T12:46:28Z</time>
      </trkpt>
      <trkpt lat="50.818637972697616" lon="13.933162959292531">
        <ele>524.05999999999995</ele>
        <time>2013-09-04T12:46:29Z</time>
      </trkpt>
      <trkpt lat="50.818985989317298" lon="13.932501962408423">
        <ele>525.5</ele>
        <time>2013-09-04T12:46:32Z</time>
      </trkpt>
      <trkpt lat="50.819111969321966" lon="13.932339018210769">
        <ele>525.98000000000002</ele>
        <time>2013-09-04T12:46:33Z</time>
      </trkpt>
      <trkpt lat="50.81924700178206" lon="13.932237010449171">
        <ele>525.98000000000002</ele>
        <time>2013-09-04T12:46:34Z</time>
      </trkpt>
      <trkpt lat="50.819393014535308" lon="13.932199962437153">
        <ele>526.46000000000004</ele>
        <time>2013-09-04T12:46:35Z</time>
      </trkpt>
      <trkpt lat="50.81957096233964" lon="13.932229969650507">
        <ele>526.46000000000004</ele>
        <time>2013-09-04T12:46:36Z</time>
      </trkpt>
      <trkpt lat="50.819751005619764" lon="13.932306999340653">
        <ele>525.98000000000002</ele>
        <time>2013-09-04T12:46:37Z</time>
      </trkpt>
      <trkpt lat="50.819894000887871" lon="13.932501962408423">
        <ele>526.46000000000004</ele>
        <time>2013-09-04T12:46:38Z</time>
      </trkpt>
      <trkpt lat="50.820032972842455" lon="13.932713018730283">
        <ele>526.46000000000004</ele>
        <time>2013-09-04T12:46:39Z</time>
      </trkpt>
      <trkpt lat="50.82017102278769" lon="13.932936983183026">
        <ele>525.98000000000002</ele>
        <time>2013-09-04T12:46:40Z</time>
      </trkpt>
      <trkpt lat="50.820298008620739" lon="13.933211993426085">
        <ele>527.41999999999996</ele>
        <time>2013-09-04T12:46:41Z</time>
      </trkpt>
      <trkpt lat="50.821336023509502" lon="13.93543403595686">
        <ele>526.46000000000004</ele>
        <time>2013-09-04T12:46:49Z</time>
      </trkpt>
      <trkpt lat="50.821420010179281" lon="13.93575799651444">
        <ele>525.5</ele>
        <time>2013-09-04T12:46:50Z</time>
      </trkpt>
      <trkpt lat="50.821494022384286" lon="13.936092015355825">
        <ele>525.98000000000002</ele>
        <time>2013-09-04T12:46:51Z</time>
      </trkpt>
      <trkpt lat="50.821528974920511" lon="13.936439026147127">
        <ele>525.5</ele>
        <time>2013-09-04T12:46:52Z</time>
      </trkpt>
      <trkpt lat="50.821543978527188" lon="13.93678997643292">
        <ele>525.01999999999998</ele>
        <time>2013-09-04T12:46:53Z</time>
      </trkpt>
      <trkpt lat="50.821548001840711" lon="13.93713497556746">
        <ele>524.53999999999996</ele>
        <time>2013-09-04T12:46:54Z</time>
      </trkpt>
      <trkpt lat="50.821491004899144" lon="13.939098017290235">
        <ele>519.25</ele>
        <time>2013-09-04T12:47:00Z</time>
      </trkpt>
      <trkpt lat="50.821507014334202" lon="13.939404962584376">
        <ele>517.33000000000004</ele>
        <time>2013-09-04T12:47:01Z</time>
      </trkpt>
      <trkpt lat="50.821558982133865" lon="13.939708974212408">
        <ele>516.37</ele>
        <time>2013-09-04T12:47:02Z</time>
      </trkpt>
      <trkpt lat="50.821645986288786" lon="13.939987001940608">
        <ele>515.88</ele>
        <time>2013-09-04T12:47:03Z</time>
      </trkpt>
      <trkpt lat="50.82176199182868" lon="13.940224964171648">
        <ele>514.44000000000005</ele>
        <time>2013-09-04T12:47:04Z</time>
      </trkpt>
      <trkpt lat="50.821902975440025" lon="13.940426968038082">
        <ele>513</ele>
        <time>2013-09-04T12:47:05Z</time>
      </trkpt>
      <trkpt lat="50.822058040648699" lon="13.940585972741246">
        <ele>512.03999999999996</ele>
        <time>2013-09-04T12:47:06Z</time>
      </trkpt>
      <trkpt lat="50.822232970967889" lon="13.940699966624379">
        <ele>511.56</ele>
        <time>2013-09-04T12:47:07Z</time>
      </trkpt>
      <trkpt lat="50.822417037561536" lon="13.940776996314526">
        <ele>510.60000000000002</ele>
        <time>2013-09-04T12:47:08Z</time>
      </trkpt>
      <trkpt lat="50.822615018114448" lon="13.940828964114189">
        <ele>510.60000000000002</ele>
        <time>2013-09-04T12:47:09Z</time>
      </trkpt>
      <trkpt lat="50.822816016152501" lon="13.940855031833053">
        <ele>510.60000000000002</ele>
        <time>2013-09-04T12:47:10Z</time>
      </trkpt>
      <trkpt lat="50.823017014190555" lon="13.940865006297827">
        <ele>510.12</ele>
        <time>2013-09-04T12:47:11Z</time>
      </trkpt>
      <trkpt lat="50.824837982654572" lon="13.940778002142906">
        <ele>506.75</ele>
        <time>2013-09-04T12:47:20Z</time>
      </trkpt>
      <trkpt lat="50.825211983174086" lon="13.940831981599331">
        <ele>505.79000000000002</ele>
        <time>2013-09-04T12:47:22Z</time>
      </trkpt>
      <trkpt lat="50.82541398704052" lon="13.940902976319194">
        <ele>504.35000000000002</ele>
        <time>2013-09-04T12:47:23Z</time>
      </trkpt>
      <trkpt lat="50.825594030320644" lon="13.941008001565933">
        <ele>502.43000000000001</ele>
        <time>2013-09-04T12:47:24Z</time>
      </trkpt>
      <trkpt lat="50.82695902325213" lon="13.942214995622635">
        <ele>499.54000000000002</ele>
        <time>2013-09-04T12:47:32Z</time>
      </trkpt>
      <trkpt lat="50.828535994514823" lon="13.944381969049573">
        <ele>490.41000000000003</ele>
        <time>2013-09-04T12:47:42Z</time>
      </trkpt>
      <trkpt lat="50.829900987446308" lon="13.945325016975403">
        <ele>477.43000000000001</ele>
        <time>2013-09-04T12:47:50Z</time>
      </trkpt>
      <trkpt lat="50.831212000921369" lon="13.94564202055335">
        <ele>466.86000000000001</ele>
        <time>2013-09-04T12:47:57Z</time>
      </trkpt>
      <trkpt lat="50.832429975271225" lon="13.945581000298262">
        <ele>458.20999999999998</ele>
        <time>2013-09-04T12:48:05Z</time>
      </trkpt>
      <trkpt lat="50.8325279597193" lon="13.945600027218461">
        <ele>457.24000000000001</ele>
        <time>2013-09-04T12:48:06Z</time>
      </trkpt>
      <trkpt lat="50.832608006894588" lon="13.945668004453182">
        <ele>456.27999999999997</ele>
        <time>2013-09-04T12:48:07Z</time>
      </trkpt>
      <trkpt lat="50.832660980522633" lon="13.945779986679554">
        <ele>455.80000000000001</ele>
        <time>2013-09-04T12:48:08Z</time>
      </trkpt>
      <trkpt lat="50.832660980522633" lon="13.945903033018112">
        <ele>454.36000000000001</ele>
        <time>2013-09-04T12:48:09Z</time>
      </trkpt>
      <trkpt lat="50.832629967480898" lon="13.94602901302278">
        <ele>453.88</ele>
        <time>2013-09-04T12:48:10Z</time>
      </trkpt>
      <trkpt lat="50.832572970539331" lon="13.946165973320603">
        <ele>452.92000000000002</ele>
        <time>2013-09-04T12:48:11Z</time>
      </trkpt>
      <trkpt lat="50.832509016618133" lon="13.946322966367006">
        <ele>452.44</ele>
        <time>2013-09-04T12:48:12Z</time>
      </trkpt>
      <trkpt lat="50.831933012232184" lon="13.947918964549899">
        <ele>453.39999999999998</ele>
        <time>2013-09-04T12:48:19Z</time>
      </trkpt>
      <trkpt lat="50.831051990389824" lon="13.950741989538074">
        <ele>456.27999999999997</ele>
        <time>2013-09-04T12:48:29Z</time>
      </trkpt>
      <trkpt lat="50.830791983753443" lon="13.952464973554015">
        <ele>454.83999999999997</ele>
        <time>2013-09-04T12:48:35Z</time>
      </trkpt>
      <trkpt lat="50.830797012895346" lon="13.952739983797073">
        <ele>454.36000000000001</ele>
        <time>2013-09-04T12:48:36Z</time>
      </trkpt>
      <trkpt lat="50.830822996795177" lon="13.95301298238337">
        <ele>453.88</ele>
        <time>2013-09-04T12:48:37Z</time>
      </trkpt>
      <trkpt lat="50.830867001786828" lon="13.9532670378685">
        <ele>453.39999999999998</ele>
        <time>2013-09-04T12:48:38Z</time>
      </trkpt>
      <trkpt lat="50.830930033698678" lon="13.953510029241443">
        <ele>452.92000000000002</ele>
        <time>2013-09-04T12:48:39Z</time>
      </trkpt>
      <trkpt lat="50.831017959862947" lon="13.953754026442766">
        <ele>452.44</ele>
        <time>2013-09-04T12:48:40Z</time>
      </trkpt>
      <trkpt lat="50.831140000373125" lon="13.954009003937244">
        <ele>451.48000000000002</ele>
        <time>2013-09-04T12:48:41Z</time>
      </trkpt>
      <trkpt lat="50.831247037276626" lon="13.954266998916864">
        <ele>451</ele>
        <time>2013-09-04T12:48:42Z</time>
      </trkpt>
      <trkpt lat="50.831943992525339" lon="13.955629980191588">
        <ele>445.70999999999998</ele>
        <time>2013-09-04T12:48:47Z</time>
      </trkpt>
      <trkpt lat="50.833632024005055" lon="13.958397014066577">
        <ele>438.98000000000002</ele>
        <time>2013-09-04T12:48:57Z</time>
      </trkpt>
      <trkpt lat="50.835073962807655" lon="13.960687033832073">
        <ele>437.06</ele>
        <time>2013-09-04T12:49:06Z</time>
      </trkpt>
      <trkpt lat="50.835416028276086" lon="13.961365967988968">
        <ele>435.13</ele>
        <time>2013-09-04T12:49:09Z</time>
      </trkpt>
      <trkpt lat="50.835502026602626" lon="13.961620023474097">
        <ele>434.17000000000002</ele>
        <time>2013-09-04T12:49:10Z</time>
      </trkpt>
      <trkpt lat="50.835678968578577" lon="13.96252702921629">
        <ele>432.25</ele>
        <time>2013-09-04T12:49:13Z</time>
      </trkpt>
      <trkpt lat="50.835687015205622" lon="13.962799021974206">
        <ele>430.81</ele>
        <time>2013-09-04T12:49:14Z</time>
      </trkpt>
      <trkpt lat="50.835609985515475" lon="13.963075038045645">
        <ele>428.88999999999999</ele>
        <time>2013-09-04T12:49:15Z</time>
      </trkpt>
      <trkpt lat="50.835544019937515" lon="13.963347030803561">
        <ele>427.44</ele>
        <time>2013-09-04T12:49:16Z</time>
      </trkpt>
      <trkpt lat="50.835429020226002" lon="13.963589016348124">
        <ele>426</ele>
        <time>2013-09-04T12:49:17Z</time>
      </trkpt>
      <trkpt lat="50.835288036614656" lon="13.963812980800867">
        <ele>425.04000000000002</ele>
        <time>2013-09-04T12:49:18Z</time>
      </trkpt>
      <trkpt lat="50.835130037739873" lon="13.964048009365797">
        <ele>423.60000000000002</ele>
        <time>2013-09-04T12:49:19Z</time>
      </trkpt>
      <trkpt lat="50.833854982629418" lon="13.965575024485588">
        <ele>420.23000000000002</ele>
        <time>2013-09-04T12:49:27Z</time>
      </trkpt>
      <trkpt lat="50.833263974636793" lon="13.96639896556735">
        <ele>417.35000000000002</ele>
        <time>2013-09-04T12:49:33Z</time>
      </trkpt>
      <trkpt lat="50.833115028217435" lon="13.966656038537621">
        <ele>416.38999999999999</ele>
        <time>2013-09-04T12:49:39Z</time>
      </trkpt>
      <trkpt lat="50.832854015752673" lon="13.967057028785348">
        <ele>414.94999999999999</ele>
        <time>2013-09-04T12:49:43Z</time>
      </trkpt>
      <trkpt lat="50.832758964970708" lon="13.967226007953286">
        <ele>414.47000000000003</ele>
        <time>2013-09-04T12:49:44Z</time>
      </trkpt>
      <trkpt lat="50.832013981416821" lon="13.968772972002625">
        <ele>406.76999999999998</ele>
        <time>2013-09-04T12:49:51Z</time>
      </trkpt>
      <trkpt lat="50.831450968980789" lon="13.971270024776459">
        <ele>397.63999999999999</ele>
        <time>2013-09-04T12:50:00Z</time>
      </trkpt>
      <trkpt lat="50.83121401257813" lon="13.972815982997417">
        <ele>394.75999999999999</ele>
        <time>2013-09-04T12:50:07Z</time>
      </trkpt>
      <trkpt lat="50.831138994544744" lon="13.972994014620781">
        <ele>395.24000000000001</ele>
        <time>2013-09-04T12:50:08Z</time>
      </trkpt>
      <trkpt lat="50.83104302175343" lon="13.973115971311927">
        <ele>394.27999999999997</ele>
        <time>2013-09-04T12:50:09Z</time>
      </trkpt>
      <trkpt lat="50.830933973193169" lon="13.973199035972357">
        <ele>393.80000000000001</ele>
        <time>2013-09-04T12:50:10Z</time>
      </trkpt>
      <trkpt lat="50.830811010673642" lon="13.973233988508582">
        <ele>393.31999999999999</ele>
        <time>2013-09-04T12:50:11Z</time>
      </trkpt>
      <trkpt lat="50.83067798987031" lon="13.973225019872189">
        <ele>392.83999999999997</ele>
        <time>2013-09-04T12:50:12Z</time>
      </trkpt>
      <trkpt lat="50.830537006258965" lon="13.973202975466847">
        <ele>392.83999999999997</ele>
        <time>2013-09-04T12:50:13Z</time>
      </trkpt>
      <trkpt lat="50.829280978068709" lon="13.973257038742304">
        <ele>393.31999999999999</ele>
        <time>2013-09-04T12:50:22Z</time>
      </trkpt>
      <trkpt lat="50.829183999449015" lon="13.973288973793387">
        <ele>392.36000000000001</ele>
        <time>2013-09-04T12:50:23Z</time>
      </trkpt>
      <trkpt lat="50.829106969758868" lon="13.973323004320264">
        <ele>392.36000000000001</ele>
        <time>2013-09-04T12:50:24Z</time>
      </trkpt>
      <trkpt lat="50.829057013615966" lon="13.973386958241463">
        <ele>392.36000000000001</ele>
        <time>2013-09-04T12:50:25Z</time>
      </trkpt>
      <trkpt lat="50.829041004180908" lon="13.973478991538286">
        <ele>390.91000000000003</ele>
        <time>2013-09-04T12:50:26Z</time>
      </trkpt>
      <trkpt lat="50.829052990302444" lon="13.973559038713574">
        <ele>389.94999999999999</ele>
        <time>2013-09-04T12:50:27Z</time>
      </trkpt>
      <trkpt lat="50.829104958102107" lon="13.973622992634773">
        <ele>390.91000000000003</ele>
        <time>2013-09-04T12:50:28Z</time>
      </trkpt>
      <trkpt lat="50.829170001670718" lon="13.973674038425088">
        <ele>390.91000000000003</ele>
        <time>2013-09-04T12:50:29Z</time>
      </trkpt>
      <trkpt lat="50.829252982512116" lon="13.973721982911229">
        <ele>389.94999999999999</ele>
        <time>2013-09-04T12:50:30Z</time>
      </trkpt>
      <trkpt lat="50.829338980838656" lon="13.97376598790288">
        <ele>389.47000000000003</ele>
        <time>2013-09-04T12:50:31Z</time>
      </trkpt>
      <trkpt lat="50.829757992178202" lon="13.973979977890849">
        <ele>386.58999999999997</ele>
        <time>2013-09-04T12:50:36Z</time>
      </trkpt>
      <trkpt lat="50.829850025475025" lon="13.973997998982668">
        <ele>386.11000000000001</ele>
        <time>2013-09-04T12:50:37Z</time>
      </trkpt>
      <trkpt lat="50.829949015751481" lon="13.974004033952951">
        <ele>385.63</ele>
        <time>2013-09-04T12:50:38Z</time>
      </trkpt>
      <trkpt lat="50.830049011856318" lon="13.973994981497526">
        <ele>385.14999999999998</ele>
        <time>2013-09-04T12:50:39Z</time>
      </trkpt>
      <trkpt lat="50.830151019617915" lon="13.973962040618062">
        <ele>385.14999999999998</ele>
        <time>2013-09-04T12:50:40Z</time>
      </trkpt>
      <trkpt lat="50.830255039036274" lon="13.97393798455596">
        <ele>384.66000000000003</ele>
        <time>2013-09-04T12:50:41Z</time>
      </trkpt>
      <trkpt lat="50.830454025417566" lon="13.973909988999367">
        <ele>385.14999999999998</ele>
        <time>2013-09-04T12:50:43Z</time>
      </trkpt>
      <trkpt lat="50.830563995987177" lon="13.97391501814127">
        <ele>384.66000000000003</ele>
        <time>2013-09-04T12:50:44Z</time>
      </trkpt>
      <trkpt lat="50.831315014511347" lon="13.974063964560628">
        <ele>381.77999999999997</ele>
        <time>2013-09-04T12:50:50Z</time>
      </trkpt>
      <trkpt lat="50.831442000344396" lon="13.974122973158956">
        <ele>381.30000000000001</ele>
        <time>2013-09-04T12:50:51Z</time>
      </trkpt>
      <trkpt lat="50.831564962863922" lon="13.974207965657115">
        <ele>381.30000000000001</ele>
        <time>2013-09-04T12:50:52Z</time>
      </trkpt>
      <trkpt lat="50.831936029717326" lon="13.974549025297165">
        <ele>381.77999999999997</ele>
        <time>2013-09-04T12:50:55Z</time>
      </trkpt>
      <trkpt lat="50.832647988572717" lon="13.975640013813972">
        <ele>380.81999999999999</ele>
        <time>2013-09-04T12:51:02Z</time>
      </trkpt>
      <trkpt lat="50.832713032141328" lon="13.975831037387252">
        <ele>380.33999999999997</ele>
        <time>2013-09-04T12:51:03Z</time>
      </trkpt>
      <trkpt lat="50.832768017426133" lon="13.976035974919796">
        <ele>380.33999999999997</ele>
        <time>2013-09-04T12:51:04Z</time>
      </trkpt>
      <trkpt lat="50.832815961912274" lon="13.976254994049668">
        <ele>379.86000000000001</ele>
        <time>2013-09-04T12:51:05Z</time>
      </trkpt>
      <trkpt lat="50.832853009924293" lon="13.976472001522779">
        <ele>379.86000000000001</ele>
        <time>2013-09-04T12:51:06Z</time>
      </trkpt>
      <trkpt lat="50.832872036844492" lon="13.976699989289045">
        <ele>379.38</ele>
        <time>2013-09-04T12:51:07Z</time>
      </trkpt>
      <trkpt lat="50.832888968288898" lon="13.976934012025595">
        <ele>379.38</ele>
        <time>2013-09-04T12:51:08Z</time>
      </trkpt>
      <trkpt lat="50.833054007962346" lon="13.978546019643545">
        <ele>378.42000000000002</ele>
        <time>2013-09-04T12:51:15Z</time>
      </trkpt>
      <trkpt lat="50.833111004903913" lon="13.979016998782754">
        <ele>378.42000000000002</ele>
        <time>2013-09-04T12:51:17Z</time>
      </trkpt>
      <trkpt lat="50.833121985197067" lon="13.979252027347684">
        <ele>378.42000000000002</ele>
        <time>2013-09-04T12:51:18Z</time>
      </trkpt>
      <trkpt lat="50.833113016560674" lon="13.97948001511395">
        <ele>378.42000000000002</ele>
        <time>2013-09-04T12:51:19Z</time>
      </trkpt>
      <trkpt lat="50.833107987418771" lon="13.980626994743943">
        <ele>377.94</ele>
        <time>2013-09-04T12:51:24Z</time>
      </trkpt>
      <trkpt lat="50.833154004067183" lon="13.980830004438758">
        <ele>377.44999999999999</ele>
        <time>2013-09-04T12:51:25Z</time>
      </trkpt>
      <trkpt lat="50.833228016272187" lon="13.981002001091838">
        <ele>377.44999999999999</ele>
        <time>2013-09-04T12:51:26Z</time>
      </trkpt>
      <trkpt lat="50.833334969356656" lon="13.981151031330228">
        <ele>376.97000000000003</ele>
        <time>2013-09-04T12:51:27Z</time>
      </trkpt>
      <trkpt lat="50.833463966846466" lon="13.981269970536232">
        <ele>376.49000000000001</ele>
        <time>2013-09-04T12:51:28Z</time>
      </trkpt>
      <trkpt lat="50.833626994863153" lon="13.981376001611352">
        <ele>376.00999999999999</ele>
        <time>2013-09-04T12:51:29Z</time>
      </trkpt>
      <trkpt lat="50.833773007616401" lon="13.981465017423034">
        <ele>375.52999999999997</ele>
        <time>2013-09-04T12:51:30Z</time>
      </trkpt>
      <trkpt lat="50.835367999970913" lon="13.98227596655488">
        <ele>370.24000000000001</ele>
        <time>2013-09-04T12:51:41Z</time>
      </trkpt>
      <trkpt lat="50.836368966847658" lon="13.983309036120772">
        <ele>366.39999999999998</ele>
        <time>2013-09-04T12:51:50Z</time>
      </trkpt>
      <trkpt lat="50.837493985891342" lon="13.984040021896362">
        <ele>366.39999999999998</ele>
        <time>2013-09-04T12:51:59Z</time>
      </trkpt>
      <trkpt lat="50.838762000203133" lon="13.984804032370448">
        <ele>364.95999999999998</ele>
        <time>2013-09-04T12:52:09Z</time>
      </trkpt>
      <trkpt lat="50.839548977091908" lon="13.98594900034368">
        <ele>364.95999999999998</ele>
        <time>2013-09-04T12:52:17Z</time>
      </trkpt>
      <trkpt lat="50.840287003666162" lon="13.986844019964337">
        <ele>361.58999999999997</ele>
        <time>2013-09-04T12:52:24Z</time>
      </trkpt>
      <trkpt lat="50.840370990335941" lon="13.986993972212076">
        <ele>361.58999999999997</ele>
        <time>2013-09-04T12:52:25Z</time>
      </trkpt>
      <trkpt lat="50.84071297198534" lon="13.987596966326237">
        <ele>361.58999999999997</ele>
        <time>2013-09-04T12:52:29Z</time>
      </trkpt>
      <trkpt lat="50.840809028595686" lon="13.987726969644427">
        <ele>361.58999999999997</ele>
        <time>2013-09-04T12:52:30Z</time>
      </trkpt>
      <trkpt lat="50.841804966330528" lon="13.989075031131506">
        <ele>360.63</ele>
        <time>2013-09-04T12:52:40Z</time>
      </trkpt>
      <trkpt lat="50.841917032375932" lon="13.989159017801285">
        <ele>360.14999999999998</ele>
        <time>2013-09-04T12:52:41Z</time>
      </trkpt>
      <trkpt lat="50.842050975188613" lon="13.989196987822652">
        <ele>360.14999999999998</ele>
        <time>2013-09-04T12:52:42Z</time>
      </trkpt>
      <trkpt lat="50.842449031770229" lon="13.989297989755869">
        <ele>359.67000000000002</ele>
        <time>2013-09-04T12:52:45Z</time>
      </trkpt>
      <trkpt lat="50.842568976804614" lon="13.989397985860705">
        <ele>359.67000000000002</ele>
        <time>2013-09-04T12:52:46Z</time>
      </trkpt>
      <trkpt lat="50.842683976516128" lon="13.989522038027644">
        <ele>358.70999999999998</ele>
        <time>2013-09-04T12:52:47Z</time>
      </trkpt>
      <trkpt lat="50.842784978449345" lon="13.989658998325467">
        <ele>358.70999999999998</ele>
        <time>2013-09-04T12:52:48Z</time>
      </trkpt>
      <trkpt lat="50.842865025624633" lon="13.989827977493405">
        <ele>358.70999999999998</ele>
        <time>2013-09-04T12:52:49Z</time>
      </trkpt>
      <trkpt lat="50.842927973717451" lon="13.990013971924782">
        <ele>358.23000000000002</ele>
        <time>2013-09-04T12:52:50Z</time>
      </trkpt>
      <trkpt lat="50.842981031164527" lon="13.990210024639964">
        <ele>357.75</ele>
        <time>2013-09-04T12:52:51Z</time>
      </trkpt>
      <trkpt lat="50.843024030327797" lon="13.990423008799553">
        <ele>357.75</ele>
        <time>2013-09-04T12:52:52Z</time>
      </trkpt>
      <trkpt lat="50.843058982864022" lon="13.990645967423916">
        <ele>357.75</ele>
        <time>2013-09-04T12:52:53Z</time>
      </trkpt>
      <trkpt lat="50.84309502504766" lon="13.990864986553788">
        <ele>357.75</ele>
        <time>2013-09-04T12:52:54Z</time>
      </trkpt>
      <trkpt lat="50.843530967831612" lon="13.992670029401779">
        <ele>356.79000000000002</ele>
        <time>2013-09-04T12:53:03Z</time>
      </trkpt>
      <trkpt lat="50.843607997521758" lon="13.992835991084576">
        <ele>355.82999999999998</ele>
        <time>2013-09-04T12:53:04Z</time>
      </trkpt>
      <trkpt lat="50.843696007505059" lon="13.992989966645837">
        <ele>355.82999999999998</ele>
        <time>2013-09-04T12:53:05Z</time>
      </trkpt>
      <trkpt lat="50.843802038580179" lon="13.993130028247833">
        <ele>355.33999999999997</ele>
        <time>2013-09-04T12:53:06Z</time>
      </trkpt>
      <trkpt lat="50.843914020806551" lon="13.993263971060514">
        <ele>355.33999999999997</ele>
        <time>2013-09-04T12:53:07Z</time>
      </trkpt>
      <trkpt lat="50.844785990193486" lon="13.994493009522557">
        <ele>353.42000000000002</ele>
        <time>2013-09-04T12:53:16Z</time>
      </trkpt>
      <trkpt lat="50.845296029001474" lon="13.994987960904837">
        <ele>353.42000000000002</ele>
        <time>2013-09-04T12:53:22Z</time>
      </trkpt>
      <trkpt lat="50.845337016507983" lon="13.995068008080125">
        <ele>353.89999999999998</ele>
        <time>2013-09-04T12:53:23Z</time>
      </trkpt>
      <trkpt lat="50.84535101428628" lon="13.995168004184961">
        <ele>354.38</ele>
        <time>2013-09-04T12:53:24Z</time>
      </trkpt>
      <trkpt lat="50.845344979315996" lon="13.995285015553236">
        <ele>354.38</ele>
        <time>2013-09-04T12:53:25Z</time>
      </trkpt>
      <trkpt lat="50.845332993194461" lon="13.995430022478104">
        <ele>354.38</ele>
        <time>2013-09-04T12:53:26Z</time>
      </trkpt>
      <trkpt lat="50.845084972679615" lon="13.996831979602575">
        <ele>355.33999999999997</ele>
        <time>2013-09-04T12:53:33Z</time>
      </trkpt>
      <trkpt lat="50.845016995444894" lon="13.998252041637897">
        <ele>358.70999999999998</ele>
        <time>2013-09-04T12:53:39Z</time>
      </trkpt>
      <trkpt lat="50.845414968207479" lon="14.000567039474845">
        <ele>375.05000000000001</ele>
        <time>2013-09-04T12:53:48Z</time>
      </trkpt>
      <trkpt lat="50.845605991780758" lon="14.0036949981004">
        <ele>395.24000000000001</ele>
        <time>2013-09-04T12:53:59Z</time>
      </trkpt>
      <trkpt lat="50.8455899823457" lon="14.0039730258286">
        <ele>397.16000000000003</ele>
        <time>2013-09-04T12:54:00Z</time>
      </trkpt>
      <trkpt lat="50.845555029809475" lon="14.004244012758136">
        <ele>399.56999999999999</ele>
        <time>2013-09-04T12:54:01Z</time>
      </trkpt>
      <trkpt lat="50.845501972362399" lon="14.004498990252614">
        <ele>401.49000000000001</ele>
        <time>2013-09-04T12:54:02Z</time>
      </trkpt>
      <trkpt lat="50.845443969592452" lon="14.004746004939079">
        <ele>403.41000000000003</ele>
        <time>2013-09-04T12:54:03Z</time>
      </trkpt>
      <trkpt lat="50.845212964341044" lon="14.005629038438201">
        <ele>405.81</ele>
        <time>2013-09-04T12:54:07Z</time>
      </trkpt>
      <trkpt lat="50.845193015411496" lon="14.00584202259779">
        <ele>406.29000000000002</ele>
        <time>2013-09-04T12:54:08Z</time>
      </trkpt>
      <trkpt lat="50.845187986269593" lon="14.006067998707294">
        <ele>407.25999999999999</ele>
        <time>2013-09-04T12:54:09Z</time>
      </trkpt>
      <trkpt lat="50.845195027068257" lon="14.006288023665547">
        <ele>407.74000000000001</ele>
        <time>2013-09-04T12:54:10Z</time>
      </trkpt>
      <trkpt lat="50.845198966562748" lon="14.006492039188743">
        <ele>408.69999999999999</ele>
        <time>2013-09-04T12:54:11Z</time>
      </trkpt>
      <trkpt lat="50.84515898488462" lon="14.00670200586319">
        <ele>409.18000000000001</ele>
        <time>2013-09-04T12:54:12Z</time>
      </trkpt>
      <trkpt lat="50.84509301930666" lon="14.006913984194398">
        <ele>409.66000000000003</ele>
        <time>2013-09-04T12:54:13Z</time>
      </trkpt>
      <trkpt lat="50.845020012930036" lon="14.007142977789044">
        <ele>412.54000000000002</ele>
        <time>2013-09-04T12:54:14Z</time>
      </trkpt>
      <trkpt lat="50.844458006322384" lon="14.009264018386602">
        <ele>417.35000000000002</ele>
        <time>2013-09-04T12:54:21Z</time>
      </trkpt>
      <trkpt lat="50.843692990019917" lon="14.01181798428297">
        <ele>439.45999999999998</ele>
        <time>2013-09-04T12:54:29Z</time>
      </trkpt>
      <trkpt lat="50.842878017574549" lon="14.015048034489155">
        <ele>444.75</ele>
        <time>2013-09-04T12:54:39Z</time>
      </trkpt>
      <trkpt lat="50.842502005398273" lon="14.016303978860378">
        <ele>446.19</ele>
        <time>2013-09-04T12:54:44Z</time>
      </trkpt>
      <trkpt lat="50.842485995963216" lon="14.016520986333489">
        <ele>445.70999999999998</ele>
        <time>2013-09-04T12:54:45Z</time>
      </trkpt>
      <trkpt lat="50.842500999569893" lon="14.016730030998588">
        <ele>445.70999999999998</ele>
        <time>2013-09-04T12:54:46Z</time>
      </trkpt>
      <trkpt lat="50.842551039531827" lon="14.016918959096074">
        <ele>445.23000000000002</ele>
        <time>2013-09-04T12:54:47Z</time>
      </trkpt>
      <trkpt lat="50.84264500066638" lon="14.017105959355831">
        <ele>445.23000000000002</ele>
        <time>2013-09-04T12:54:48Z</time>
      </trkpt>
      <trkpt lat="50.842741979286075" lon="14.017306035384536">
        <ele>445.23000000000002</ele>
        <time>2013-09-04T12:54:49Z</time>
      </trkpt>
      <trkpt lat="50.843800026923418" lon="14.019204033538699">
        <ele>440.42000000000002</ele>
        <time>2013-09-04T12:54:57Z</time>
      </trkpt>
      <trkpt lat="50.845162002369761" lon="14.022124959155917">
        <ele>437.54000000000002</ele>
        <time>2013-09-04T12:55:08Z</time>
      </trkpt>
      <trkpt lat="50.845947973430157" lon="14.023582991212606">
        <ele>428.88999999999999</ele>
        <time>2013-09-04T12:55:14Z</time>
      </trkpt>
      <trkpt lat="50.84610203281045" lon="14.023730009794235">
        <ele>427.92000000000002</ele>
        <time>2013-09-04T12:55:15Z</time>
      </trkpt>
      <trkpt lat="50.846273023635149" lon="14.023836040869355">
        <ele>426.95999999999998</ele>
        <time>2013-09-04T12:55:16Z</time>
      </trkpt>
      <trkpt lat="50.846832012757659" lon="14.024161007255316">
        <ele>423.12</ele>
        <time>2013-09-04T12:55:19Z</time>
      </trkpt>
      <trkpt lat="50.847008032724261" lon="14.024311965331435">
        <ele>422.63999999999999</ele>
        <time>2013-09-04T12:55:20Z</time>
      </trkpt>
      <trkpt lat="50.847176006063819" lon="14.024485973641276">
        <ele>421.68000000000001</ele>
        <time>2013-09-04T12:55:21Z</time>
      </trkpt>
      <trkpt lat="50.848246039822698" lon="14.025711994618177">
        <ele>416.38999999999999</ele>
        <time>2013-09-04T12:55:28Z</time>
      </trkpt>
      <trkpt lat="50.848393980413675" lon="14.025787012651563">
        <ele>415.91000000000003</ele>
        <time>2013-09-04T12:55:29Z</time>
      </trkpt>
      <trkpt lat="50.848548961803317" lon="14.025821965187788">
        <ele>414.94999999999999</ele>
        <time>2013-09-04T12:55:30Z</time>
      </trkpt>
      <trkpt lat="50.848895972594619" lon="14.025892037898302">
        <ele>414.94999999999999</ele>
        <time>2013-09-04T12:55:32Z</time>
      </trkpt>
      <trkpt lat="50.849068975076079" lon="14.025978958234191">
        <ele>414.94999999999999</ele>
        <time>2013-09-04T12:55:33Z</time>
      </trkpt>
      <trkpt lat="50.849224040284753" lon="14.026076020672917">
        <ele>414.94999999999999</ele>
        <time>2013-09-04T12:55:34Z</time>
      </trkpt>
      <trkpt lat="50.849813036620617" lon="14.026522021740675">
        <ele>412.06</ele>
        <time>2013-09-04T12:55:38Z</time>
      </trkpt>
      <trkpt lat="50.849977992475033" lon="14.026565020903945">
        <ele>411.10000000000002</ele>
        <time>2013-09-04T12:55:39Z</time>
      </trkpt>
      <trkpt lat="50.850488031283021" lon="14.026660993695259">
        <ele>408.69999999999999</ele>
        <time>2013-09-04T12:55:42Z</time>
      </trkpt>
      <trkpt lat="50.851126983761787" lon="14.026891998946667">
        <ele>403.88999999999999</ele>
        <time>2013-09-04T12:55:46Z</time>
      </trkpt>
      <trkpt lat="50.851272996515036" lon="14.026859980076551">
        <ele>403.41000000000003</ele>
        <time>2013-09-04T12:55:47Z</time>
      </trkpt>
      <trkpt lat="50.851410962641239" lon="14.02679099701345">
        <ele>402.44999999999999</ele>
        <time>2013-09-04T12:55:48Z</time>
      </trkpt>
      <trkpt lat="50.851554963737726" lon="14.026732994243503">
        <ele>403.41000000000003</ele>
        <time>2013-09-04T12:55:49Z</time>
      </trkpt>
      <trkpt lat="50.851692007854581" lon="14.026626963168383">
        <ele>402.44999999999999</ele>
        <time>2013-09-04T12:55:50Z</time>
      </trkpt>
      <trkpt lat="50.85280504077673" lon="14.025963032618165">
        <ele>395.24000000000001</ele>
        <time>2013-09-04T12:55:58Z</time>
      </trkpt>
      <trkpt lat="50.852940995246172" lon="14.025964960455894">
        <ele>395.24000000000001</ele>
        <time>2013-09-04T12:55:59Z</time>
      </trkpt>
      <trkpt lat="50.853078961372375" lon="14.026012988761067">
        <ele>394.75999999999999</ele>
        <time>2013-09-04T12:56:00Z</time>
      </trkpt>
      <trkpt lat="50.853208964690566" lon="14.026093035936356">
        <ele>394.27999999999997</ele>
        <time>2013-09-04T12:56:01Z</time>
      </trkpt>
      <trkpt lat="50.853337040171027" lon="14.026186997070909">
        <ele>393.31999999999999</ele>
        <time>2013-09-04T12:56:02Z</time>
      </trkpt>
      <trkpt lat="50.855558998882771" lon="14.027733961120248">
        <ele>386.11000000000001</ele>
        <time>2013-09-04T12:56:19Z</time>
      </trkpt>
      <trkpt lat="50.856721987947822" lon="14.028782034292817">
        <ele>384.66000000000003</ele>
        <time>2013-09-04T12:56:27Z</time>
      </trkpt>
      <trkpt lat="50.859537972137332" lon="14.031361984089017">
        <ele>380.33999999999997</ele>
        <time>2013-09-04T12:56:42Z</time>
      </trkpt>
      <trkpt lat="50.861263973638415" lon="14.03289201669395">
        <ele>381.77999999999997</ele>
        <time>2013-09-04T12:56:52Z</time>
      </trkpt>
      <trkpt lat="50.86342197842896" lon="14.035001993179321">
        <ele>373.61000000000001</ele>
        <time>2013-09-04T12:57:04Z</time>
      </trkpt>
      <trkpt lat="50.865902015939355" lon="14.037503991276026">
        <ele>365.44</ele>
        <time>2013-09-04T12:57:18Z</time>
      </trkpt>
      <trkpt lat="50.868143001571298" lon="14.039579015225172">
        <ele>369.75999999999999</ele>
        <time>2013-09-04T12:57:31Z</time>
      </trkpt>
      <trkpt lat="50.869935974478722" lon="14.041050961241126">
        <ele>361.58999999999997</ele>
        <time>2013-09-04T12:57:41Z</time>
      </trkpt>
      <trkpt lat="50.871232990175486" lon="14.042120995000005">
        <ele>355.33999999999997</ele>
        <time>2013-09-04T12:57:50Z</time>
      </trkpt>
      <trkpt lat="50.871811006218195" lon="14.04258300550282">
        <ele>350.06</ele>
        <time>2013-09-04T12:57:57Z</time>
      </trkpt>
      <trkpt lat="50.871987026184797" lon="14.042796995490789">
        <ele>350.54000000000002</ele>
        <time>2013-09-04T12:58:04Z</time>
      </trkpt>
      <trkpt lat="50.872149970382452" lon="14.042931022122502">
        <ele>348.62</ele>
        <time>2013-09-04T12:58:06Z</time>
      </trkpt>
      <trkpt lat="50.872242003679276" lon="14.042996987700462">
        <ele>348.13</ele>
        <time>2013-09-04T12:58:07Z</time>
      </trkpt>
      <trkpt lat="50.873043984174728" lon="14.043475007638335">
        <ele>343.81</ele>
        <time>2013-09-04T12:58:17Z</time>
      </trkpt>
      <trkpt lat="50.873141968622804" lon="14.043494034558535">
        <ele>342.85000000000002</ele>
        <time>2013-09-04T12:58:18Z</time>
      </trkpt>
      <trkpt lat="50.874051991850138" lon="14.043572992086411">
        <ele>339.48000000000002</ele>
        <time>2013-09-04T12:58:25Z</time>
      </trkpt>
      <trkpt lat="50.875176005065441" lon="14.043585984036326">
        <ele>331.31</ele>
        <time>2013-09-04T12:58:34Z</time>
      </trkpt>
      <trkpt lat="50.876216031610966" lon="14.04348598793149">
        <ele>320.25999999999999</ele>
        <time>2013-09-04T12:58:43Z</time>
      </trkpt>
      <trkpt lat="50.876965960487723" lon="14.043228998780251">
        <ele>318.81</ele>
        <time>2013-09-04T12:58:52Z</time>
      </trkpt>
      <trkpt lat="50.877513969317079" lon="14.042760031297803">
        <ele>315.44999999999999</ele>
        <time>2013-09-04T12:59:00Z</time>
      </trkpt>
      <trkpt lat="50.877594016492367" lon="14.04273203574121">
        <ele>314.00999999999999</ele>
        <time>2013-09-04T12:59:01Z</time>
      </trkpt>
      <trkpt lat="50.877676997333765" lon="14.042731029912829">
        <ele>312.56999999999999</ele>
        <time>2013-09-04T12:59:02Z</time>
      </trkpt>
      <trkpt lat="50.87775201536715" lon="14.042742010205984">
        <ele>311.12</ele>
        <time>2013-09-04T12:59:03Z</time>
      </trkpt>
      <trkpt lat="50.877828039228916" lon="14.042776962742209">
        <ele>311.12</ele>
        <time>2013-09-04T12:59:04Z</time>
      </trkpt>
      <trkpt lat="50.877898028120399" lon="14.042827002704144">
        <ele>311.60000000000002</ele>
        <time>2013-09-04T12:59:05Z</time>
      </trkpt>
      <trkpt lat="50.877973968163133" lon="14.042909983545542">
        <ele>311.12</ele>
        <time>2013-09-04T12:59:06Z</time>
      </trkpt>
      <trkpt lat="50.87802903726697" lon="14.043010985478759">
        <ele>310.63999999999999</ele>
        <time>2013-09-04T12:59:07Z</time>
      </trkpt>
      <trkpt lat="50.878079999238253" lon="14.043134031817317">
        <ele>309.19999999999999</ele>
        <time>2013-09-04T12:59:08Z</time>
      </trkpt>
      <trkpt lat="50.878120986744761" lon="14.043264035135508">
        <ele>308.24000000000001</ele>
        <time>2013-09-04T12:59:09Z</time>
      </trkpt>
      <trkpt lat="50.878575034439564" lon="14.044686025008559">
        <ele>298.14999999999998</ele>
        <time>2013-09-04T12:59:18Z</time>
      </trkpt>
      <trkpt lat="50.879182973876595" lon="14.046499030664563">
        <ele>286.61000000000001</ele>
        <time>2013-09-04T12:59:27Z</time>
      </trkpt>
      <trkpt lat="50.879280036315322" lon="14.04664303176105">
        <ele>285.17000000000002</ele>
        <time>2013-09-04T12:59:28Z</time>
      </trkpt>
      <trkpt lat="50.879381038248539" lon="14.046767000108957">
        <ele>283.73000000000002</ele>
        <time>2013-09-04T12:59:29Z</time>
      </trkpt>
      <trkpt lat="50.879487991333008" lon="14.046866996213794">
        <ele>282.27999999999997</ele>
        <time>2013-09-04T12:59:30Z</time>
      </trkpt>
      <trkpt lat="50.879608020186424" lon="14.04694302007556">
        <ele>280.83999999999997</ele>
        <time>2013-09-04T12:59:31Z</time>
      </trkpt>
      <trkpt lat="50.87972603738308" lon="14.047003034502268">
        <ele>279.88</ele>
        <time>2013-09-04T12:59:32Z</time>
      </trkpt>
      <trkpt lat="50.879838019609451" lon="14.047047961503267">
        <ele>277.95999999999998</ele>
        <time>2013-09-04T12:59:33Z</time>
      </trkpt>
      <trkpt lat="50.88037496432662" lon="14.047220963984728">
        <ele>273.63</ele>
        <time>2013-09-04T12:59:40Z</time>
      </trkpt>
      <trkpt lat="50.88037203066051" lon="14.047237979248166">
        <ele>273.14999999999998</ele>
        <time>2013-09-04T12:59:41Z</time>
      </trkpt>
      <trkpt lat="50.880353003740311" lon="14.04726698063314">
        <ele>272.19</ele>
        <time>2013-09-04T12:59:42Z</time>
      </trkpt>
      <trkpt lat="50.88030799292028" lon="14.047272009775043">
        <ele>272.19</ele>
        <time>2013-09-04T12:59:43Z</time>
      </trkpt>
      <trkpt lat="50.880254013463855" lon="14.047259017825127">
        <ele>271.23000000000002</ele>
        <time>2013-09-04T12:59:44Z</time>
      </trkpt>
      <trkpt lat="50.879641966894269" lon="14.047127002850175">
        <ele>267.86000000000001</ele>
        <time>2013-09-04T12:59:50Z</time>
      </trkpt>
      <trkpt lat="50.879108039662242" lon="14.047027006745338">
        <ele>267.38</ele>
        <time>2013-09-04T12:59:54Z</time>
      </trkpt>
      <trkpt lat="50.87876002304256" lon="14.046932961791754">
        <ele>269.31</ele>
        <time>2013-09-04T12:59:56Z</time>
      </trkpt>
      <trkpt lat="50.877325041219592" lon="14.04696699231863">
        <ele>276.51999999999998</ele>
        <time>2013-09-04T13:00:07Z</time>
      </trkpt>
      <trkpt lat="50.876050991937518" lon="14.046828020364046">
        <ele>278.44</ele>
        <time>2013-09-04T13:00:16Z</time>
      </trkpt>
      <trkpt lat="50.874856989830732" lon="14.046733975410461">
        <ele>283.73000000000002</ele>
        <time>2013-09-04T13:00:24Z</time>
      </trkpt>
      <trkpt lat="50.873332992196083" lon="14.046632973477244">
        <ele>291.42000000000002</ele>
        <time>2013-09-04T13:00:34Z</time>
      </trkpt>
      <trkpt lat="50.872458005324006" lon="14.046669015660882">
        <ele>290.94</ele>
        <time>2013-09-04T13:00:40Z</time>
      </trkpt>
      <trkpt lat="50.87134899571538" lon="14.046389982104301">
        <ele>290.94</ele>
        <time>2013-09-04T13:00:47Z</time>
      </trkpt>
      <trkpt lat="50.871226033195853" lon="14.046314964070916">
        <ele>291.42000000000002</ele>
        <time>2013-09-04T13:00:48Z</time>
      </trkpt>
      <trkpt lat="50.871086977422237" lon="14.046204993501306">
        <ele>291.42000000000002</ele>
        <time>2013-09-04T13:00:49Z</time>
      </trkpt>
      <trkpt lat="50.869453009217978" lon="14.044698011130095">
        <ele>294.30000000000001</ele>
        <time>2013-09-04T13:01:01Z</time>
      </trkpt>
      <trkpt lat="50.868400996550918" lon="14.044137010350823">
        <ele>300.06999999999999</ele>
        <time>2013-09-04T13:01:08Z</time>
      </trkpt>
      <trkpt lat="50.867521986365318" lon="14.043802991509438">
        <ele>305.36000000000001</ele>
        <time>2013-09-04T13:01:15Z</time>
      </trkpt>
      <trkpt lat="50.867425007745624" lon="14.043787987902761">
        <ele>304.88</ele>
        <time>2013-09-04T13:01:16Z</time>
      </trkpt>
      <trkpt lat="50.867315959185362" lon="14.043788993731141">
        <ele>304.38999999999999</ele>
        <time>2013-09-04T13:01:17Z</time>
      </trkpt>
      <trkpt lat="50.866796029731631" lon="14.043762004002929">
        <ele>305.36000000000001</ele>
        <time>2013-09-04T13:01:21Z</time>
      </trkpt>
      <trkpt lat="50.866657979786396" lon="14.043707018718123">
        <ele>305.83999999999997</ele>
        <time>2013-09-04T13:01:22Z</time>
      </trkpt>
      <trkpt lat="50.865234984084964" lon="14.043034035712481">
        <ele>312.08999999999997</ele>
        <time>2013-09-04T13:01:31Z</time>
      </trkpt>
      <trkpt lat="50.864742966368794" lon="14.042792972177267">
        <ele>313.05000000000001</ele>
        <time>2013-09-04T13:01:34Z</time>
      </trkpt>
      <trkpt lat="50.864609023556113" lon="14.042680989950895">
        <ele>313.52999999999997</ele>
        <time>2013-09-04T13:01:35Z</time>
      </trkpt>
      <trkpt lat="50.864349016919732" lon="14.042455013841391">
        <ele>314.49000000000001</ele>
        <time>2013-09-04T13:01:37Z</time>
      </trkpt>
      <trkpt lat="50.864220019429922" lon="14.042386030778289">
        <ele>314.97000000000003</ele>
        <time>2013-09-04T13:01:38Z</time>
      </trkpt>
      <trkpt lat="50.864095967262983" lon="14.042364992201328">
        <ele>314.97000000000003</ele>
        <time>2013-09-04T13:01:39Z</time>
      </trkpt>
      <trkpt lat="50.86383000947535" lon="14.042343031615019">
        <ele>316.41000000000003</ele>
        <time>2013-09-04T13:01:41Z</time>
      </trkpt>
      <trkpt lat="50.863688020035625" lon="14.042258039116859">
        <ele>315.93000000000001</ele>
        <time>2013-09-04T13:01:42Z</time>
      </trkpt>
      <trkpt lat="50.863543013110757" lon="14.042104985564947">
        <ele>314.97000000000003</ele>
        <time>2013-09-04T13:01:43Z</time>
      </trkpt>
      <trkpt lat="50.862377006560564" lon="14.041038975119591">
        <ele>316.88999999999999</ele>
        <time>2013-09-04T13:01:51Z</time>
      </trkpt>
      <trkpt lat="50.861770994961262" lon="14.040689030662179">
        <ele>317.85000000000002</ele>
        <time>2013-09-04T13:01:55Z</time>
      </trkpt>
      <trkpt lat="50.861627999693155" lon="14.040647959336638">
        <ele>317.85000000000002</ele>
        <time>2013-09-04T13:01:56Z</time>
      </trkpt>
      <trkpt lat="50.861482992768288" lon="14.04065097682178">
        <ele>318.32999999999998</ele>
        <time>2013-09-04T13:01:57Z</time>
      </trkpt>
      <trkpt lat="50.861344020813704" lon="14.040695987641811">
        <ele>318.32999999999998</ele>
        <time>2013-09-04T13:01:58Z</time>
      </trkpt>
      <trkpt lat="50.861200019717216" lon="14.040766982361674">
        <ele>318.81</ele>
        <time>2013-09-04T13:01:59Z</time>
      </trkpt>
      <trkpt lat="50.860710013657808" lon="14.041044004261494">
        <ele>319.77999999999997</ele>
        <time>2013-09-04T13:02:03Z</time>
      </trkpt>
      <trkpt lat="50.86056299507618" lon="14.041083985939622">
        <ele>319.77999999999997</ele>
        <time>2013-09-04T13:02:04Z</time>
      </trkpt>
      <trkpt lat="50.860423017293215" lon="14.04109999537468">
        <ele>319.77999999999997</ele>
        <time>2013-09-04T13:02:05Z</time>
      </trkpt>
      <trkpt lat="50.860299970954657" lon="14.041102007031441">
        <ele>319.77999999999997</ele>
        <time>2013-09-04T13:02:06Z</time>
      </trkpt>
      <trkpt lat="50.860197963193059" lon="14.041117010638118">
        <ele>319.30000000000001</ele>
        <time>2013-09-04T13:02:07Z</time>
      </trkpt>
      <trkpt lat="50.86011003702879" lon="14.041134025901556">
        <ele>319.30000000000001</ele>
        <time>2013-09-04T13:02:08Z</time>
      </trkpt>
      <trkpt lat="50.859508970752358" lon="14.041136959567666">
        <ele>318.32999999999998</ele>
        <time>2013-09-04T13:02:13Z</time>
      </trkpt>
      <trkpt lat="50.859250975772738" lon="14.041231004521251">
        <ele>317.85000000000002</ele>
        <time>2013-09-04T13:02:15Z</time>
      </trkpt>
      <trkpt lat="50.859176041558385" lon="14.041354972869158">
        <ele>317.85000000000002</ele>
        <time>2013-09-04T13:02:16Z</time>
      </trkpt>
      <trkpt lat="50.85916799493134" lon="14.041590001434088">
        <ele>319.30000000000001</ele>
        <time>2013-09-04T13:02:17Z</time>
      </trkpt>
      <trkpt lat="50.859180986881256" lon="14.04178898781538">
        <ele>319.77999999999997</ele>
        <time>2013-09-04T13:02:18Z</time>
      </trkpt>
      <trkpt lat="50.859206970781088" lon="14.041995014995337">
        <ele>320.74000000000001</ele>
        <time>2013-09-04T13:02:19Z</time>
      </trkpt>
      <trkpt lat="50.859256004914641" lon="14.042217973619699">
        <ele>320.74000000000001</ele>
        <time>2013-09-04T13:02:20Z</time>
      </trkpt>
      <trkpt lat="50.859331022948027" lon="14.042889028787613">
        <ele>322.66000000000003</ele>
        <time>2013-09-04T13:02:23Z</time>
      </trkpt>
      <trkpt lat="50.85931601934135" lon="14.043135037645698">
        <ele>323.62</ele>
        <time>2013-09-04T13:02:24Z</time>
      </trkpt>
      <trkpt lat="50.859260028228164" lon="14.043366964906454">
        <ele>325.06</ele>
        <time>2013-09-04T13:02:25Z</time>
      </trkpt>
      <trkpt lat="50.859162965789437" lon="14.043576009571552">
        <ele>326.5</ele>
        <time>2013-09-04T13:02:26Z</time>
      </trkpt>
      <trkpt lat="50.85906196385622" lon="14.043791005387902">
        <ele>328.43000000000001</ele>
        <time>2013-09-04T13:02:27Z</time>
      </trkpt>
      <trkpt lat="50.858494006097317" lon="14.044688958674669">
        <ele>334.68000000000001</ele>
        <time>2013-09-04T13:02:32Z</time>
      </trkpt>
      <trkpt lat="50.858365008607507" lon="14.04481602832675">
        <ele>335.63999999999999</ele>
        <time>2013-09-04T13:02:33Z</time>
      </trkpt>
      <trkpt lat="50.858239028602839" lon="14.044922981411219">
        <ele>336.60000000000002</ele>
        <time>2013-09-04T13:02:34Z</time>
      </trkpt>
      <trkpt lat="50.85669700987637" lon="14.046223014593124">
        <ele>353.89999999999998</ele>
        <time>2013-09-04T13:02:46Z</time>
      </trkpt>
      <trkpt lat="50.855538966134191" lon="14.047464039176702">
        <ele>359.67000000000002</ele>
        <time>2013-09-04T13:02:56Z</time>
      </trkpt>
      <trkpt lat="50.85493597202003" lon="14.04838303104043">
        <ele>363.51999999999998</ele>
        <time>2013-09-04T13:03:02Z</time>
      </trkpt>
      <trkpt lat="50.854044975712895" lon="14.050841024145484">
        <ele>374.08999999999997</ele>
        <time>2013-09-04T13:03:15Z</time>
      </trkpt>
      <trkpt lat="50.853070998564363" lon="14.052793001756072">
        <ele>380.81999999999999</ele>
        <time>2013-09-04T13:03:27Z</time>
      </trkpt>
      <trkpt lat="50.853012995794415" lon="14.052871959283948">
        <ele>381.30000000000001</ele>
        <time>2013-09-04T13:03:28Z</time>
      </trkpt>
      <trkpt lat="50.852969996631145" lon="14.052930967882276">
        <ele>381.30000000000001</ele>
        <time>2013-09-04T13:03:29Z</time>
      </trkpt>
      <trkpt lat="50.852928003296256" lon="14.052956029772758">
        <ele>382.25999999999999</ele>
        <time>2013-09-04T13:03:30Z</time>
      </trkpt>
      <trkpt lat="50.852889027446508" lon="14.052984025329351">
        <ele>382.74000000000001</ele>
        <time>2013-09-04T13:03:31Z</time>
      </trkpt>
      <trkpt lat="50.852874023839831" lon="14.053023001179099">
        <ele>382.25999999999999</ele>
        <time>2013-09-04T13:03:32Z</time>
      </trkpt>
      <trkpt lat="50.852865977212787" lon="14.053044961765409">
        <ele>382.25999999999999</ele>
        <time>2013-09-04T13:03:33Z</time>
      </trkpt>
      <trkpt lat="50.852875029668212" lon="14.053062982857227">
        <ele>382.25999999999999</ele>
        <time>2013-09-04T13:03:34Z</time>
      </trkpt>
      <trkpt lat="50.85289103910327" lon="14.053058959543705">
        <ele>382.74000000000001</ele>
        <time>2013-09-04T13:03:35Z</time>
      </trkpt>
      <trkpt lat="50.85291400551796" lon="14.053031969815493">
        <ele>382.74000000000001</ele>
        <time>2013-09-04T13:03:36Z</time>
      </trkpt>
      <trkpt lat="50.853011989966035" lon="14.052901966497302">
        <ele>383.22000000000003</ele>
        <time>2013-09-04T13:03:38Z</time>
      </trkpt>
      <trkpt lat="50.853475006297231" lon="14.051924971863627">
        <ele>381.77999999999997</ele>
        <time>2013-09-04T13:03:45Z</time>
      </trkpt>
      <trkpt lat="50.854372959583998" lon="14.050015993416309">
        <ele>376.97000000000003</ele>
        <time>2013-09-04T13:03:57Z</time>
      </trkpt>
      <trkpt lat="50.855165971443057" lon="14.047852959483862">
        <ele>366.88</ele>
        <time>2013-09-04T13:04:09Z</time>
      </trkpt>
      <trkpt lat="50.855248030275106" lon="14.047710970044136">
        <ele>366.39999999999998</ele>
        <time>2013-09-04T13:04:10Z</time>
      </trkpt>
      <trkpt lat="50.85534299723804" lon="14.047576021403074">
        <ele>365.92000000000002</ele>
        <time>2013-09-04T13:04:11Z</time>
      </trkpt>
      <trkpt lat="50.855453973636031" lon="14.047461021691561">
        <ele>364.95999999999998</ele>
        <time>2013-09-04T13:04:12Z</time>
      </trkpt>
      <trkpt lat="50.856913011521101" lon="14.045983962714672">
        <ele>359.67000000000002</ele>
        <time>2013-09-04T13:04:25Z</time>
      </trkpt>
      <trkpt lat="50.858428040519357" lon="14.044695999473333">
        <ele>350.06</ele>
        <time>2013-09-04T13:04:37Z</time>
      </trkpt>
      <trkpt lat="50.859271008521318" lon="14.043222041800618">
        <ele>338.04000000000002</ele>
        <time>2013-09-04T13:04:46Z</time>
      </trkpt>
      <trkpt lat="50.859329011291265" lon="14.043025989085436">
        <ele>337.07999999999998</ele>
        <time>2013-09-04T13:04:47Z</time>
      </trkpt>
      <trkpt lat="50.859350971877575" lon="14.042799007147551">
        <ele>335.63999999999999</ele>
        <time>2013-09-04T13:04:48Z</time>
      </trkpt>
      <trkpt lat="50.859348960220814" lon="14.042569007724524">
        <ele>334.68000000000001</ele>
        <time>2013-09-04T13:04:49Z</time>
      </trkpt>
      <trkpt lat="50.85931601934135" lon="14.042344037443399">
        <ele>334.19999999999999</ele>
        <time>2013-09-04T13:04:50Z</time>
      </trkpt>
      <trkpt lat="50.859276037663221" lon="14.042129041627049">
        <ele>333.23000000000002</ele>
        <time>2013-09-04T13:04:51Z</time>
      </trkpt>
      <trkpt lat="50.859176041558385" lon="14.041500985622406">
        <ele>331.79000000000002</ele>
        <time>2013-09-04T13:04:54Z</time>
      </trkpt>
      <trkpt lat="50.859173024073243" lon="14.041306022554636">
        <ele>331.31</ele>
        <time>2013-09-04T13:04:55Z</time>
      </trkpt>
      <trkpt lat="50.859206970781088" lon="14.041135031729937">
        <ele>331.79000000000002</ele>
        <time>2013-09-04T13:04:56Z</time>
      </trkpt>
      <trkpt lat="50.85927695967257" lon="14.041012991219759">
        <ele>331.79000000000002</ele>
        <time>2013-09-04T13:04:57Z</time>
      </trkpt>
      <trkpt lat="50.859385002404451" lon="14.040935039520264">
        <ele>331.79000000000002</ele>
        <time>2013-09-04T13:04:58Z</time>
      </trkpt>
      <trkpt lat="50.85948801599443" lon="14.040888017043471">
        <ele>331.79000000000002</ele>
        <time>2013-09-04T13:04:59Z</time>
      </trkpt>
      <trkpt lat="50.859603015705943" lon="14.040866978466511">
        <ele>331.79000000000002</ele>
        <time>2013-09-04T13:05:00Z</time>
      </trkpt>
      <trkpt lat="50.859709968790412" lon="14.040877958759665">
        <ele>331.79000000000002</ele>
        <time>2013-09-04T13:05:01Z</time>
      </trkpt>
      <trkpt lat="50.85983200930059" lon="14.040894974023104">
        <ele>331.79000000000002</ele>
        <time>2013-09-04T13:05:02Z</time>
      </trkpt>
      <trkpt lat="50.860589984804392" lon="14.040974015370011">
        <ele>332.75</ele>
        <time>2013-09-04T13:05:08Z</time>
      </trkpt>
      <trkpt lat="50.860712025314569" lon="14.040924981236458">
        <ele>332.75</ele>
        <time>2013-09-04T13:05:09Z</time>
      </trkpt>
      <trkpt lat="50.861516017466784" lon="14.040623987093568">
        <ele>333.23000000000002</ele>
        <time>2013-09-04T13:05:15Z</time>
      </trkpt>
      <trkpt lat="50.861665969714522" lon="14.040648965165019">
        <ele>333.23000000000002</ele>
        <time>2013-09-04T13:05:16Z</time>
      </trkpt>
      <trkpt lat="50.861819023266435" lon="14.040716020390391">
        <ele>333.70999999999998</ele>
        <time>2013-09-04T13:05:17Z</time>
      </trkpt>
      <trkpt lat="50.861970987170935" lon="14.040797995403409">
        <ele>333.70999999999998</ele>
        <time>2013-09-04T13:05:18Z</time>
      </trkpt>
      <trkpt lat="50.86210903711617" lon="14.040888017043471">
        <ele>333.70999999999998</ele>
        <time>2013-09-04T13:05:19Z</time>
      </trkpt>
      <trkpt lat="50.86340001784265" lon="14.041998032480478">
        <ele>331.79000000000002</ele>
        <time>2013-09-04T13:05:28Z</time>
      </trkpt>
      <trkpt lat="50.863762032240629" lon="14.042336996644735">
        <ele>331.31</ele>
        <time>2013-09-04T13:05:31Z</time>
      </trkpt>
      <trkpt lat="50.863889018073678" lon="14.042392987757921">
        <ele>331.31</ele>
        <time>2013-09-04T13:05:32Z</time>
      </trkpt>
      <trkpt lat="50.864025978371501" lon="14.042419977486134">
        <ele>331.31</ele>
        <time>2013-09-04T13:05:33Z</time>
      </trkpt>
      <trkpt lat="50.864297971129417" lon="14.04243397526443">
        <ele>330.35000000000002</ele>
        <time>2013-09-04T13:05:35Z</time>
      </trkpt>
      <trkpt lat="50.864397967234254" lon="14.042503964155912">
        <ele>329.38999999999999</ele>
        <time>2013-09-04T13:05:36Z</time>
      </trkpt>
      <trkpt lat="50.865332968533039" lon="14.043118022382259">
        <ele>326.99000000000001</ele>
        <time>2013-09-04T13:05:43Z</time>
      </trkpt>
      <trkpt lat="50.866786977276206" lon="14.043806008994579">
        <ele>317.85000000000002</ele>
        <time>2013-09-04T13:05:53Z</time>
      </trkpt>
      <trkpt lat="50.86720397695899" lon="14.043888989835978">
        <ele>316.41000000000003</ele>
        <time>2013-09-04T13:05:56Z</time>
      </trkpt>
      <trkpt lat="50.867343032732606" lon="14.0438739862293">
        <ele>315.44999999999999</ele>
        <time>2013-09-04T13:05:57Z</time>
      </trkpt>
      <trkpt lat="50.868500992655754" lon="14.043684974312782">
        <ele>315.44999999999999</ele>
        <time>2013-09-04T13:06:04Z</time>
      </trkpt>
      <trkpt lat="50.868672989308834" lon="14.043720010668039">
        <ele>315.44999999999999</ele>
        <time>2013-09-04T13:06:05Z</time>
      </trkpt>
      <trkpt lat="50.870494041591883" lon="14.044268019497395">
        <ele>325.06</ele>
        <time>2013-09-04T13:06:15Z</time>
      </trkpt>
      <trkpt lat="50.870829988270998" lon="14.044362986460328">
        <ele>327.94999999999999</ele>
        <time>2013-09-04T13:06:17Z</time>
      </trkpt>
      <trkpt lat="50.870997961610556" lon="14.044363992288709">
        <ele>328.43000000000001</ele>
        <time>2013-09-04T13:06:18Z</time>
      </trkpt>
      <trkpt lat="50.871175993233919" lon="14.044359968975186">
        <ele>328.91000000000003</ele>
        <time>2013-09-04T13:06:19Z</time>
      </trkpt>
      <trkpt lat="50.871346984058619" lon="14.044327028095722">
        <ele>330.35000000000002</ele>
        <time>2013-09-04T13:06:20Z</time>
      </trkpt>
      <trkpt lat="50.871518980711699" lon="14.044301966205239">
        <ele>332.75</ele>
        <time>2013-09-04T13:06:21Z</time>
      </trkpt>
      <trkpt lat="50.872903000563383" lon="14.043794022873044">
        <ele>343.81</ele>
        <time>2013-09-04T13:06:30Z</time>
      </trkpt>
      <trkpt lat="50.87298396974802" lon="14.043685980141163">
        <ele>343.32999999999998</ele>
        <time>2013-09-04T13:06:31Z</time>
      </trkpt>
      <trkpt lat="50.873009031638503" lon="14.043553965166211">
        <ele>343.81</ele>
        <time>2013-09-04T13:06:32Z</time>
      </trkpt>
      <trkpt lat="50.87298003025353" lon="14.043440977111459">
        <ele>346.20999999999998</ele>
        <time>2013-09-04T13:06:33Z</time>
      </trkpt>
      <trkpt lat="50.872913980856538" lon="14.043351039290428">
        <ele>347.64999999999998</ele>
        <time>2013-09-04T13:06:34Z</time>
      </trkpt>
      <trkpt lat="50.872817002236843" lon="14.043274009600282">
        <ele>348.13</ele>
        <time>2013-09-04T13:06:35Z</time>
      </trkpt>
      <trkpt lat="50.87270300835371" lon="14.043197985738516">
        <ele>349.57999999999998</ele>
        <time>2013-09-04T13:06:36Z</time>
      </trkpt>
      <trkpt lat="50.872581973671913" lon="14.04311902821064">
        <ele>350.54000000000002</ele>
        <time>2013-09-04T13:06:37Z</time>
      </trkpt>
      <trkpt lat="50.872020972892642" lon="14.042760031297803">
        <ele>355.82999999999998</ele>
        <time>2013-09-04T13:06:42Z</time>
      </trkpt>
      <trkpt lat="50.871962970122695" lon="14.042676966637373">
        <ele>356.79000000000002</ele>
        <time>2013-09-04T13:06:43Z</time>
      </trkpt>
      <trkpt lat="50.871946038678288" lon="14.042571019381285">
        <ele>357.26999999999998</ele>
        <time>2013-09-04T13:06:44Z</time>
      </trkpt>
      <trkpt lat="50.871962970122695" lon="14.042458031326532">
        <ele>358.70999999999998</ele>
        <time>2013-09-04T13:06:45Z</time>
      </trkpt>
      <trkpt lat="50.872000018134713" lon="14.042328028008342">
        <ele>360.14999999999998</ele>
        <time>2013-09-04T13:06:46Z</time>
      </trkpt>
      <trkpt lat="50.872055003419518" lon="14.042185032740235">
        <ele>362.55000000000001</ele>
        <time>2013-09-04T13:06:47Z</time>
      </trkpt>
      <trkpt lat="50.87212298065424" lon="14.042037008330226">
        <ele>364</ele>
        <time>2013-09-04T13:06:48Z</time>
      </trkpt>
      <trkpt lat="50.872200010344386" lon="14.041879009455442">
        <ele>365.44</ele>
        <time>2013-09-04T13:06:49Z</time>
      </trkpt>
      <trkpt lat="50.873073991388083" lon="14.040153007954359">
        <ele>363.51999999999998</ele>
        <time>2013-09-04T13:07:00Z</time>
      </trkpt>
      <trkpt lat="50.873364005237818" lon="14.039006028324366">
        <ele>362.55000000000001</ele>
        <time>2013-09-04T13:07:09Z</time>
      </trkpt>
      <trkpt lat="50.873419996351004" lon="14.038901003077626">
        <ele>362.55000000000001</ele>
        <time>2013-09-04T13:07:10Z</time>
      </trkpt>
      <trkpt lat="50.873473975807428" lon="14.038806036114693">
        <ele>362.55000000000001</ele>
        <time>2013-09-04T13:07:11Z</time>
      </trkpt>
      <trkpt lat="50.873545976355672" lon="14.038734035566449">
        <ele>362.55000000000001</ele>
        <time>2013-09-04T13:07:12Z</time>
      </trkpt>
      <trkpt lat="50.873625017702579" lon="14.038671003654599">
        <ele>362.06999999999999</ele>
        <time>2013-09-04T13:07:13Z</time>
      </trkpt>
      <trkpt lat="50.873715961351991" lon="14.038611995056272">
        <ele>362.06999999999999</ele>
        <time>2013-09-04T13:07:14Z</time>
      </trkpt>
      <trkpt lat="50.873797014355659" lon="14.038556003943086">
        <ele>362.06999999999999</ele>
        <time>2013-09-04T13:07:15Z</time>
      </trkpt>
      <trkpt lat="50.874032964929938" lon="14.038404040038586">
        <ele>362.55000000000001</ele>
        <time>2013-09-04T13:07:18Z</time>
      </trkpt>
      <trkpt lat="50.874112006276846" lon="14.038309995085001">
        <ele>363.51999999999998</ele>
        <time>2013-09-04T13:07:19Z</time>
      </trkpt>
      <trkpt lat="50.874767974019051" lon="14.037372982129455">
        <ele>367.83999999999997</ele>
        <time>2013-09-04T13:07:25Z</time>
      </trkpt>
      <trkpt lat="50.874902000650764" lon="14.0372100379318">
        <ele>368.31999999999999</ele>
        <time>2013-09-04T13:07:26Z</time>
      </trkpt>
      <trkpt lat="50.87506502866745" lon="14.037089003250003">
        <ele>369.27999999999997</ele>
        <time>2013-09-04T13:07:27Z</time>
      </trkpt>
      <trkpt lat="50.875233002007008" lon="14.037028988823295">
        <ele>370.73000000000002</ele>
        <time>2013-09-04T13:07:28Z</time>
      </trkpt>
      <trkpt lat="50.87540902197361" lon="14.03701800853014">
        <ele>372.17000000000002</ele>
        <time>2013-09-04T13:07:29Z</time>
      </trkpt>
      <trkpt lat="50.875579006969929" lon="14.037029994651675">
        <ele>373.13</ele>
        <time>2013-09-04T13:07:30Z</time>
      </trkpt>
      <trkpt lat="50.875748991966248" lon="14.03703804127872">
        <ele>374.08999999999997</ele>
        <time>2013-09-04T13:07:31Z</time>
      </trkpt>
      <trkpt lat="50.875914031639695" lon="14.037031000480056">
        <ele>375.52999999999997</ele>
        <time>2013-09-04T13:07:32Z</time>
      </trkpt>
      <trkpt lat="50.876063983887434" lon="14.036991018801928">
        <ele>376.97000000000003</ele>
        <time>2013-09-04T13:07:33Z</time>
      </trkpt>
      <trkpt lat="50.876203961670399" lon="14.036923963576555">
        <ele>377.94</ele>
        <time>2013-09-04T13:07:34Z</time>
      </trkpt>
      <trkpt lat="50.877167964354157" lon="14.036261960864067">
        <ele>381.30000000000001</ele>
        <time>2013-09-04T13:07:40Z</time>
      </trkpt>
      <trkpt lat="50.877315988764167" lon="14.036068003624678">
        <ele>381.30000000000001</ele>
        <time>2013-09-04T13:07:41Z</time>
      </trkpt>
      <trkpt lat="50.878059966489673" lon="14.035067036747932">
        <ele>382.25999999999999</ele>
        <time>2013-09-04T13:07:46Z</time>
      </trkpt>
      <trkpt lat="50.878231041133404" lon="14.034941978752613">
        <ele>382.74000000000001</ele>
        <time>2013-09-04T13:07:47Z</time>
      </trkpt>
      <trkpt lat="50.878414018079638" lon="14.034864027053118">
        <ele>383.22000000000003</ele>
        <time>2013-09-04T13:07:48Z</time>
      </trkpt>
      <trkpt lat="50.878938976675272" lon="14.034653976559639">
        <ele>384.18000000000001</ele>
        <time>2013-09-04T13:07:51Z</time>
      </trkpt>
      <trkpt lat="50.879087001085281" lon="14.034519027918577">
        <ele>385.63</ele>
        <time>2013-09-04T13:07:52Z</time>
      </trkpt>
      <trkpt lat="50.879226978868246" lon="14.034336972981691">
        <ele>386.58999999999997</ele>
        <time>2013-09-04T13:07:53Z</time>
      </trkpt>
      <trkpt lat="50.879358993843198" lon="14.034133041277528">
        <ele>387.06999999999999</ele>
        <time>2013-09-04T13:07:54Z</time>
      </trkpt>
      <trkpt lat="50.879486985504627" lon="14.033911004662514">
        <ele>387.06999999999999</ele>
        <time>2013-09-04T13:07:55Z</time>
      </trkpt>
      <trkpt lat="50.880835969001055" lon="14.031836986541748">
        <ele>380.81999999999999</ele>
        <time>2013-09-04T13:08:04Z</time>
      </trkpt>
      <trkpt lat="50.882334988564253" lon="14.029740002006292">
        <ele>379.38</ele>
        <time>2013-09-04T13:08:14Z</time>
      </trkpt>
      <trkpt lat="50.883452966809273" lon="14.028150960803032">
        <ele>381.30000000000001</ele>
        <time>2013-09-04T13:08:22Z</time>
      </trkpt>
      <trkpt lat="50.883593028411269" lon="14.028020035475492">
        <ele>381.77999999999997</ele>
        <time>2013-09-04T13:08:23Z</time>
      </trkpt>
      <trkpt lat="50.883761001750827" lon="14.027934959158301">
        <ele>382.74000000000001</ele>
        <time>2013-09-04T13:08:24Z</time>
      </trkpt>
      <trkpt lat="50.883935010060668" lon="14.027836974710226">
        <ele>383.69999999999999</ele>
        <time>2013-09-04T13:08:25Z</time>
      </trkpt>
      <trkpt lat="50.884101977571845" lon="14.027720969170332">
        <ele>384.18000000000001</ele>
        <time>2013-09-04T13:08:26Z</time>
      </trkpt>
      <trkpt lat="50.88426198810339" lon="14.027557019144297">
        <ele>385.14999999999998</ele>
        <time>2013-09-04T13:08:27Z</time>
      </trkpt>
      <trkpt lat="50.884415041655302" lon="14.027388039976358">
        <ele>387.06999999999999</ele>
        <time>2013-09-04T13:08:28Z</time>
      </trkpt>
      <trkpt lat="50.884559964761138" lon="14.027161980047822">
        <ele>387.06999999999999</ele>
        <time>2013-09-04T13:08:29Z</time>
      </trkpt>
      <trkpt lat="50.885253986343741" lon="14.025962026789784">
        <ele>387.06999999999999</ele>
        <time>2013-09-04T13:08:34Z</time>
      </trkpt>
      <trkpt lat="50.885417014360428" lon="14.025779971852899">
        <ele>387.55000000000001</ele>
        <time>2013-09-04T13:08:35Z</time>
      </trkpt>
      <trkpt lat="50.885590016841888" lon="14.025618033483624">
        <ele>387.55000000000001</ele>
        <time>2013-09-04T13:08:36Z</time>
      </trkpt>
      <trkpt lat="50.88576695881784" lon="14.025471014901996">
        <ele>388.02999999999997</ele>
        <time>2013-09-04T13:08:37Z</time>
      </trkpt>
      <trkpt lat="50.885948007926345" lon="14.025335982441902">
        <ele>388.99000000000001</ele>
        <time>2013-09-04T13:08:38Z</time>
      </trkpt>
      <trkpt lat="50.886134002357721" lon="14.025211008265615">
        <ele>389.94999999999999</ele>
        <time>2013-09-04T13:08:39Z</time>
      </trkpt>
      <trkpt lat="50.887037990614772" lon="14.024479016661644">
        <ele>393.80000000000001</ele>
        <time>2013-09-04T13:08:44Z</time>
      </trkpt>
      <trkpt lat="50.887317024171352" lon="14.024064028635621">
        <ele>396.19999999999999</ele>
        <time>2013-09-04T13:08:46Z</time>
      </trkpt>
      <trkpt lat="50.887440992519259" lon="14.023835035040975">
        <ele>397.16000000000003</ele>
        <time>2013-09-04T13:08:47Z</time>
      </trkpt>
      <trkpt lat="50.887541994452477" lon="14.023572010919452">
        <ele>398.12</ele>
        <time>2013-09-04T13:08:48Z</time>
      </trkpt>
      <trkpt lat="50.887631010264158" lon="14.023291971534491">
        <ele>399.07999999999998</ele>
        <time>2013-09-04T13:08:49Z</time>
      </trkpt>
      <trkpt lat="50.887721031904221" lon="14.023011010140181">
        <ele>400.05000000000001</ele>
        <time>2013-09-04T13:08:50Z</time>
      </trkpt>
      <trkpt lat="50.888422010466456" lon="14.020311031490564">
        <ele>405.32999999999998</ele>
        <time>2013-09-04T13:08:59Z</time>
      </trkpt>
      <trkpt lat="50.889427000656724" lon="14.016768001019955">
        <ele>400.52999999999997</ele>
        <time>2013-09-04T13:09:11Z</time>
      </trkpt>
      <trkpt lat="50.889895968139172" lon="14.014947032555938">
        <ele>392.36000000000001</ele>
        <time>2013-09-04T13:09:18Z</time>
      </trkpt>
      <trkpt lat="50.889927987009287" lon="14.014670010656118">
        <ele>391.38999999999999</ele>
        <time>2013-09-04T13:09:19Z</time>
      </trkpt>
      <trkpt lat="50.889937961474061" lon="14.014387959614396">
        <ele>390.43000000000001</ele>
        <time>2013-09-04T13:09:20Z</time>
      </trkpt>
      <trkpt lat="50.890113981440663" lon="14.012443022802472">
        <ele>381.77999999999997</ele>
        <time>2013-09-04T13:09:27Z</time>
      </trkpt>
      <trkpt lat="50.890180030837655" lon="14.012177987024188">
        <ele>380.33999999999997</ele>
        <time>2013-09-04T13:09:28Z</time>
      </trkpt>
      <trkpt lat="50.890494016930461" lon="14.011203004047275">
        <ele>375.52999999999997</ele>
        <time>2013-09-04T13:09:32Z</time>
      </trkpt>
      <trkpt lat="50.890603987500072" lon="14.011006029322743">
        <ele>375.05000000000001</ele>
        <time>2013-09-04T13:09:33Z</time>
      </trkpt>
      <trkpt lat="50.890717981383204" lon="14.010836966335773">
        <ele>374.08999999999997</ele>
        <time>2013-09-04T13:09:34Z</time>
      </trkpt>
      <trkpt lat="50.890827029943466" lon="14.010688019916415">
        <ele>373.13</ele>
        <time>2013-09-04T13:09:35Z</time>
      </trkpt>
      <trkpt lat="50.890941023826599" lon="14.01054996997118">
        <ele>371.69</ele>
        <time>2013-09-04T13:09:36Z</time>
      </trkpt>
      <trkpt lat="50.892057996243238" lon="14.009020021185279">
        <ele>365.92000000000002</ele>
        <time>2013-09-04T13:09:47Z</time>
      </trkpt>
      <trkpt lat="50.892869029194117" lon="14.007930038496852">
        <ele>361.58999999999997</ele>
        <time>2013-09-04T13:09:55Z</time>
      </trkpt>
      <trkpt lat="50.892987968400121" lon="14.007831970229745">
        <ele>360.14999999999998</ele>
        <time>2013-09-04T13:09:56Z</time>
      </trkpt>
      <trkpt lat="50.893766982480884" lon="14.007521001622081">
        <ele>355.33999999999997</ele>
        <time>2013-09-04T13:10:02Z</time>
      </trkpt>
      <trkpt lat="50.893896985799074" lon="14.0075199957937">
        <ele>354.38</ele>
        <time>2013-09-04T13:10:03Z</time>
      </trkpt>
      <trkpt lat="50.894024977460504" lon="14.007552014663815">
        <ele>353.89999999999998</ele>
        <time>2013-09-04T13:10:04Z</time>
      </trkpt>
      <trkpt lat="50.894152969121933" lon="14.00760599412024">
        <ele>353.42000000000002</ele>
        <time>2013-09-04T13:10:05Z</time>
      </trkpt>
      <trkpt lat="50.894276015460491" lon="14.007687969133258">
        <ele>352.94</ele>
        <time>2013-09-04T13:10:06Z</time>
      </trkpt>
      <trkpt lat="50.894397972151637" lon="14.007780002430081">
        <ele>351.98000000000002</ele>
        <time>2013-09-04T13:10:07Z</time>
      </trkpt>
      <trkpt lat="50.895780986174941" lon="14.009032007306814">
        <ele>350.06</ele>
        <time>2013-09-04T13:10:18Z</time>
      </trkpt>
      <trkpt lat="50.896926959976554" lon="14.009983018040657">
        <ele>348.13</ele>
        <time>2013-09-04T13:10:26Z</time>
      </trkpt>
      <trkpt lat="50.898074023425579" lon="14.010371016338468">
        <ele>352.94</ele>
        <time>2013-09-04T13:10:33Z</time>
      </trkpt>
      <trkpt lat="50.898414999246597" lon="14.010380990803242">
        <ele>353.89999999999998</ele>
        <time>2013-09-04T13:10:35Z</time>
      </trkpt>
      <trkpt lat="50.898589007556438" lon="14.010322988033295">
        <ele>354.86000000000001</ele>
        <time>2013-09-04T13:10:36Z</time>
      </trkpt>
      <trkpt lat="50.89876301586628" lon="14.010214023292065">
        <ele>355.82999999999998</ele>
        <time>2013-09-04T13:10:37Z</time>
      </trkpt>
      <trkpt lat="50.898933000862598" lon="14.010062981396914">
        <ele>356.79000000000002</ele>
        <time>2013-09-04T13:10:38Z</time>
      </trkpt>
      <trkpt lat="50.899100974202156" lon="14.009889978915453">
        <ele>356.79000000000002</ele>
        <time>2013-09-04T13:10:39Z</time>
      </trkpt>
      <trkpt lat="50.899270959198475" lon="14.009726028889418">
        <ele>354.86000000000001</ele>
        <time>2013-09-04T13:10:40Z</time>
      </trkpt>
      <trkpt lat="50.900959996506572" lon="14.007935989648104">
        <ele>351.98000000000002</ele>
        <time>2013-09-04T13:10:51Z</time>
      </trkpt>
      <trkpt lat="50.901945037767291" lon="14.006936028599739">
        <ele>350.54000000000002</ele>
        <time>2013-09-04T13:10:59Z</time>
      </trkpt>
      <trkpt lat="50.902044028043747" lon="14.00689696893096">
        <ele>350.06</ele>
        <time>2013-09-04T13:11:00Z</time>
      </trkpt>
      <trkpt lat="50.902123991400003" lon="14.006908033043146">
        <ele>350.06</ele>
        <time>2013-09-04T13:11:01Z</time>
      </trkpt>
      <trkpt lat="50.902189034968615" lon="14.006991013884544">
        <ele>350.06</ele>
        <time>2013-09-04T13:11:02Z</time>
      </trkpt>
      <trkpt lat="50.902264975011349" lon="14.00711297057569">
        <ele>350.06</ele>
        <time>2013-09-04T13:11:03Z</time>
      </trkpt>
      <trkpt lat="50.902354996651411" lon="14.007264012470841">
        <ele>350.06</ele>
        <time>2013-09-04T13:11:04Z</time>
      </trkpt>
      <trkpt lat="50.903246998786926" lon="14.008758002892137">
        <ele>348.62</ele>
        <time>2013-09-04T13:11:12Z</time>
      </trkpt>
      <trkpt lat="50.904452987015247" lon="14.010740993544459">
        <ele>346.69</ele>
        <time>2013-09-04T13:11:20Z</time>
      </trkpt>
      <trkpt lat="50.905105015262961" lon="14.011977994814515">
        <ele>345.73000000000002</ele>
        <time>2013-09-04T13:11:25Z</time>
      </trkpt>
      <trkpt lat="50.905186990275979" lon="14.012272031977773">
        <ele>345.25</ele>
        <time>2013-09-04T13:11:26Z</time>
      </trkpt>
      <trkpt lat="50.905258990824223" lon="14.012585012242198">
        <ele>344.76999999999998</ele>
        <time>2013-09-04T13:11:27Z</time>
      </trkpt>
      <trkpt lat="50.905292015522718" lon="14.012918025255203">
        <ele>343.32999999999998</ele>
        <time>2013-09-04T13:11:28Z</time>
      </trkpt>
      <trkpt lat="50.905331997200847" lon="14.013243997469544">
        <ele>342.37</ele>
        <time>2013-09-04T13:11:29Z</time>
      </trkpt>
      <trkpt lat="50.90536099858582" lon="14.013574998825788">
        <ele>342.37</ele>
        <time>2013-09-04T13:11:30Z</time>
      </trkpt>
      <trkpt lat="50.905814040452242" lon="14.018238019198179">
        <ele>325.54000000000002</ele>
        <time>2013-09-04T13:11:44Z</time>
      </trkpt>
      <trkpt lat="50.905857961624861" lon="14.018529038876295">
        <ele>324.57999999999998</ele>
        <time>2013-09-04T13:11:45Z</time>
      </trkpt>
      <trkpt lat="50.905913030728698" lon="14.018802959471941">
        <ele>323.62</ele>
        <time>2013-09-04T13:11:46Z</time>
      </trkpt>
      <trkpt lat="50.905981007963419" lon="14.019045028835535">
        <ele>323.13999999999999</ele>
        <time>2013-09-04T13:11:47Z</time>
      </trkpt>
      <trkpt lat="50.906064994633198" lon="14.019288020208478">
        <ele>323.13999999999999</ele>
        <time>2013-09-04T13:11:48Z</time>
      </trkpt>
      <trkpt lat="50.906171025708318" lon="14.01950997300446">
        <ele>322.18000000000001</ele>
        <time>2013-09-04T13:11:49Z</time>
      </trkpt>
      <trkpt lat="50.906301029026508" lon="14.01972496882081">
        <ele>322.18000000000001</ele>
        <time>2013-09-04T13:11:50Z</time>
      </trkpt>
      <trkpt lat="50.90643497183919" lon="14.01993602514267">
        <ele>321.22000000000003</ele>
        <time>2013-09-04T13:11:51Z</time>
      </trkpt>
      <trkpt lat="50.908378986641765" lon="14.022742034867406">
        <ele>319.30000000000001</ele>
        <time>2013-09-04T13:12:04Z</time>
      </trkpt>
      <trkpt lat="50.90886496938765" lon="14.023659015074372">
        <ele>317.37</ele>
        <time>2013-09-04T13:12:08Z</time>
      </trkpt>
      <trkpt lat="50.909525966271758" lon="14.025742001831532">
        <ele>316.41000000000003</ele>
        <time>2013-09-04T13:12:17Z</time>
      </trkpt>
      <trkpt lat="50.909990994259715" lon="14.027357026934624">
        <ele>321.22000000000003</ele>
        <time>2013-09-04T13:12:26Z</time>
      </trkpt>
      <trkpt lat="50.910168020054698" lon="14.027795987203717">
        <ele>321.69999999999999</ele>
        <time>2013-09-04T13:12:29Z</time>
      </trkpt>
      <trkpt lat="50.910219987854362" lon="14.027910986915231">
        <ele>321.69999999999999</ele>
        <time>2013-09-04T13:12:30Z</time>
      </trkpt>
      <trkpt lat="50.910271033644676" lon="14.027989022433758">
        <ele>322.18000000000001</ele>
        <time>2013-09-04T13:12:31Z</time>
      </trkpt>
      <trkpt lat="50.910306992009282" lon="14.028045013546944">
        <ele>321.69999999999999</ele>
        <time>2013-09-04T13:12:32Z</time>
      </trkpt>
      <trkpt lat="50.910316966474056" lon="14.028072003275156">
        <ele>322.18000000000001</ele>
        <time>2013-09-04T13:12:33Z</time>
      </trkpt>
      <trkpt lat="50.910326018929482" lon="14.028090024366975">
        <ele>322.18000000000001</ele>
        <time>2013-09-04T13:12:34Z</time>
      </trkpt>
      <trkpt lat="50.910340016707778" lon="14.028116008266807">
        <ele>321.69999999999999</ele>
        <time>2013-09-04T13:12:35Z</time>
      </trkpt>
      <trkpt lat="50.91042903251946" lon="14.028169987723231">
        <ele>321.69999999999999</ele>
        <time>2013-09-04T13:12:37Z</time>
      </trkpt>
      <trkpt lat="50.910501033067703" lon="14.02818700298667">
        <ele>321.22000000000003</ele>
        <time>2013-09-04T13:12:38Z</time>
      </trkpt>
      <trkpt lat="50.910584013909101" lon="14.028175016865134">
        <ele>319.77999999999997</ele>
        <time>2013-09-04T13:12:39Z</time>
      </trkpt>
      <trkpt lat="50.911328997462988" lon="14.027947029098868">
        <ele>317.85000000000002</ele>
        <time>2013-09-04T13:12:45Z</time>
      </trkpt>
      <trkpt lat="50.912994984537363" lon="14.0274359844625">
        <ele>312.56999999999999</ele>
        <time>2013-09-04T13:12:57Z</time>
      </trkpt>
      <trkpt lat="50.914845038205385" lon="14.026859980076551">
        <ele>303.91000000000003</ele>
        <time>2013-09-04T13:13:11Z</time>
      </trkpt>
      <trkpt lat="50.916332993656397" lon="14.026903985068202">
        <ele>299.58999999999997</ele>
        <time>2013-09-04T13:13:22Z</time>
      </trkpt>
      <trkpt lat="50.917813992127776" lon="14.027267005294561">
        <ele>294.30000000000001</ele>
        <time>2013-09-04T13:13:33Z</time>
      </trkpt>
      <trkpt lat="50.917945001274347" lon="14.027230963110924">
        <ele>293.33999999999997</ele>
        <time>2013-09-04T13:13:34Z</time>
      </trkpt>
      <trkpt lat="50.91808196157217" lon="14.027175977826118">
        <ele>292.38</ele>
        <time>2013-09-04T13:13:35Z</time>
      </trkpt>
      <trkpt lat="50.918344985693693" lon="14.027016973122954">
        <ele>290.94</ele>
        <time>2013-09-04T13:13:37Z</time>
      </trkpt>
      <trkpt lat="50.918471971526742" lon="14.026925023645163">
        <ele>290.94</ele>
        <time>2013-09-04T13:13:38Z</time>
      </trkpt>
      <trkpt lat="50.918590994551778" lon="14.026795020326972">
        <ele>289.97000000000003</ele>
        <time>2013-09-04T13:13:39Z</time>
      </trkpt>
      <trkpt lat="50.918834991753101" lon="14.026499977335334">
        <ele>287.56999999999999</ele>
        <time>2013-09-04T13:13:41Z</time>
      </trkpt>
      <trkpt lat="50.919293984770775" lon="14.025925984606147">
        <ele>282.27999999999997</ele>
        <time>2013-09-04T13:13:45Z</time>
      </trkpt>
      <trkpt lat="50.919419964775443" lon="14.025848032906651">
        <ele>281.31999999999999</ele>
        <time>2013-09-04T13:13:46Z</time>
      </trkpt>
      <trkpt lat="50.919524990022182" lon="14.025801010429859">
        <ele>281.31999999999999</ele>
        <time>2013-09-04T13:13:47Z</time>
      </trkpt>
      <trkpt lat="50.9196259919554" lon="14.025778966024518">
        <ele>280.83999999999997</ele>
        <time>2013-09-04T13:13:48Z</time>
      </trkpt>
      <trkpt lat="50.919698998332024" lon="14.025785000994802">
        <ele>280.36000000000001</ele>
        <time>2013-09-04T13:13:49Z</time>
      </trkpt>
      <trkpt lat="50.919778039678931" lon="14.025835040956736">
        <ele>280.36000000000001</ele>
        <time>2013-09-04T13:13:50Z</time>
      </trkpt>
      <trkpt lat="50.919847022742033" lon="14.025927996262908">
        <ele>279.88</ele>
        <time>2013-09-04T13:13:51Z</time>
      </trkpt>
      <trkpt lat="50.919893961399794" lon="14.026053976267576">
        <ele>279.39999999999998</ele>
        <time>2013-09-04T13:13:52Z</time>
      </trkpt>
      <trkpt lat="50.919935032725334" lon="14.026236031204462">
        <ele>278.92000000000002</ele>
        <time>2013-09-04T13:13:53Z</time>
      </trkpt>
      <trkpt lat="50.919957999140024" lon="14.0264240372926">
        <ele>278.92000000000002</ele>
        <time>2013-09-04T13:13:54Z</time>
      </trkpt>
      <trkpt lat="50.91997099108994" lon="14.026615982875228">
        <ele>279.39999999999998</ele>
        <time>2013-09-04T13:13:55Z</time>
      </trkpt>
      <trkpt lat="50.920137036591768" lon="14.028476011008024">
        <ele>282.27999999999997</ele>
        <time>2013-09-04T13:14:02Z</time>
      </trkpt>
      <trkpt lat="50.920463008806109" lon="14.031225023791194">
        <ele>288.05000000000001</ele>
        <time>2013-09-04T13:14:10Z</time>
      </trkpt>
      <trkpt lat="50.92087397351861" lon="14.035090003162622">
        <ele>281.31999999999999</ele>
        <time>2013-09-04T13:14:21Z</time>
      </trkpt>
      <trkpt lat="50.921274963766336" lon="14.039609022438526">
        <ele>269.31</ele>
        <time>2013-09-04T13:14:34Z</time>
      </trkpt>
      <trkpt lat="50.921310000121593" lon="14.042641008272767">
        <ele>262.10000000000002</ele>
        <time>2013-09-04T13:14:43Z</time>
      </trkpt>
      <trkpt lat="50.921402033418417" lon="14.045395972207189">
        <ele>256.32999999999998</ele>
        <time>2013-09-04T13:14:52Z</time>
      </trkpt>
      <trkpt lat="50.921520972624421" lon="14.045970970764756">
        <ele>254.88999999999999</ele>
        <time>2013-09-04T13:14:54Z</time>
      </trkpt>
      <trkpt lat="50.921682994812727" lon="14.046485032886267">
        <ele>252</ele>
        <time>2013-09-04T13:14:56Z</time>
      </trkpt>
      <trkpt lat="50.921789025887847" lon="14.046716038137674">
        <ele>251.03999999999999</ele>
        <time>2013-09-04T13:14:57Z</time>
      </trkpt>
      <trkpt lat="50.92192598618567" lon="14.046935979276896">
        <ele>250.08000000000001</ele>
        <time>2013-09-04T13:14:58Z</time>
      </trkpt>
      <trkpt lat="50.922101000323892" lon="14.047147035598755">
        <ele>249.59999999999999</ele>
        <time>2013-09-04T13:14:59Z</time>
      </trkpt>
      <trkpt lat="50.922267967835069" lon="14.047329006716609">
        <ele>249.59999999999999</ele>
        <time>2013-09-04T13:15:00Z</time>
      </trkpt>
      <trkpt lat="50.922439964488149" lon="14.047493040561676">
        <ele>248.63999999999999</ele>
        <time>2013-09-04T13:15:01Z</time>
      </trkpt>
      <trkpt lat="50.922607015818357" lon="14.047635030001402">
        <ele>247.68000000000001</ele>
        <time>2013-09-04T13:15:02Z</time>
      </trkpt>
      <trkpt lat="50.922787981107831" lon="14.047766961157322">
        <ele>246.22999999999999</ele>
        <time>2013-09-04T13:15:03Z</time>
      </trkpt>
      <trkpt lat="50.924815982580185" lon="14.049134971573949">
        <ele>232.30000000000001</ele>
        <time>2013-09-04T13:15:14Z</time>
      </trkpt>
      <trkpt lat="50.92531998641789" lon="14.049606034532189">
        <ele>228.93000000000001</ele>
        <time>2013-09-04T13:15:17Z</time>
      </trkpt>
      <trkpt lat="50.925477985292673" lon="14.049808038398623">
        <ele>227.97</ele>
        <time>2013-09-04T13:15:18Z</time>
      </trkpt>
      <trkpt lat="50.925614023581147" lon="14.050023034214973">
        <ele>226.53</ele>
        <time>2013-09-04T13:15:19Z</time>
      </trkpt>
      <trkpt lat="50.925722988322377" lon="14.050259990617633">
        <ele>225.56999999999999</ele>
        <time>2013-09-04T13:15:20Z</time>
      </trkpt>
      <trkpt lat="50.925776967778802" lon="14.050495019182563">
        <ele>224.12</ele>
        <time>2013-09-04T13:15:21Z</time>
      </trkpt>
      <trkpt lat="50.92583597637713" lon="14.050739016383886">
        <ele>223.16</ele>
        <time>2013-09-04T13:15:22Z</time>
      </trkpt>
      <trkpt lat="50.925875036045909" lon="14.050996005535126">
        <ele>221.24000000000001</ele>
        <time>2013-09-04T13:15:23Z</time>
      </trkpt>
      <trkpt lat="50.925907976925373" lon="14.051275961101055">
        <ele>220.75999999999999</ele>
        <time>2013-09-04T13:15:24Z</time>
      </trkpt>
      <trkpt lat="50.925920968875289" lon="14.051563963294029">
        <ele>219.31999999999999</ele>
        <time>2013-09-04T13:15:25Z</time>
      </trkpt>
      <trkpt lat="50.925924992188811" lon="14.051845008507371">
        <ele>217.40000000000001</ele>
        <time>2013-09-04T13:15:26Z</time>
      </trkpt>
      <trkpt lat="50.925901019945741" lon="14.052135022357106">
        <ele>216.43000000000001</ele>
        <time>2013-09-04T13:15:27Z</time>
      </trkpt>
      <trkpt lat="50.925871012732387" lon="14.052425036206841">
        <ele>215.47</ele>
        <time>2013-09-04T13:15:28Z</time>
      </trkpt>
      <trkpt lat="50.92581401579082" lon="14.052704991772771">
        <ele>214.50999999999999</ele>
        <time>2013-09-04T13:15:29Z</time>
      </trkpt>
      <trkpt lat="50.925751989707351" lon="14.052978996187449">
        <ele>213.06999999999999</ele>
        <time>2013-09-04T13:15:30Z</time>
      </trkpt>
      <trkpt lat="50.925659034401178" lon="14.053236991167068">
        <ele>212.11000000000001</ele>
        <time>2013-09-04T13:15:31Z</time>
      </trkpt>
      <trkpt lat="50.925267012789845" lon="14.05418498441577">
        <ele>207.30000000000001</ele>
        <time>2013-09-04T13:15:35Z</time>
      </trkpt>
      <trkpt lat="50.925128040835261" lon="14.054391011595726">
        <ele>205.86000000000001</ele>
        <time>2013-09-04T13:15:36Z</time>
      </trkpt>
      <trkpt lat="50.923827001824975" lon="14.056426975876093">
        <ele>190</ele>
        <time>2013-09-04T13:15:46Z</time>
      </trkpt>
      <trkpt lat="50.923031978309155" lon="14.058048035949469">
        <ele>175.09999999999999</ele>
        <time>2013-09-04T13:15:53Z</time>
      </trkpt>
      <trkpt lat="50.921864965930581" lon="14.060695040971041">
        <ele>154.91</ele>
        <time>2013-09-04T13:16:03Z</time>
      </trkpt>
      <trkpt lat="50.920768026262522" lon="14.063222017139196">
        <ele>140.49000000000001</ele>
        <time>2013-09-04T13:16:13Z</time>
      </trkpt>
      <trkpt lat="50.920098982751369" lon="14.064925974234939">
        <ele>129.91999999999999</ele>
        <time>2013-09-04T13:16:21Z</time>
      </trkpt>
      <trkpt lat="50.920052966102958" lon="14.065140970051289">
        <ele>127.51000000000001</ele>
        <time>2013-09-04T13:16:22Z</time>
      </trkpt>
      <trkpt lat="50.919643007218838" lon="14.066748032346368">
        <ele>126.55</ele>
        <time>2013-09-04T13:16:30Z</time>
      </trkpt>
      <trkpt lat="50.919552985578775" lon="14.067298974841833">
        <ele>126.55</ele>
        <time>2013-09-04T13:16:33Z</time>
      </trkpt>
      <trkpt lat="50.919508980587125" lon="14.069061018526554">
        <ele>117.90000000000001</ele>
        <time>2013-09-04T13:16:44Z</time>
      </trkpt>
      <trkpt lat="50.919749960303307" lon="14.070099033415318">
        <ele>116.94</ele>
        <time>2013-09-04T13:16:51Z</time>
      </trkpt>
      <trkpt lat="50.919760018587112" lon="14.070242028683424">
        <ele>116.94</ele>
        <time>2013-09-04T13:16:52Z</time>
      </trkpt>
      <trkpt lat="50.919757001101971" lon="14.070390975102782">
        <ele>116.94</ele>
        <time>2013-09-04T13:16:53Z</time>
      </trkpt>
      <trkpt lat="50.91973596252501" lon="14.070542016997933">
        <ele>116.45999999999999</ele>
        <time>2013-09-04T13:16:54Z</time>
      </trkpt>
      <trkpt lat="50.91971299611032" lon="14.070699010044336">
        <ele>116.45999999999999</ele>
        <time>2013-09-04T13:16:55Z</time>
      </trkpt>
      <trkpt lat="50.919683994725347" lon="14.070852985605597">
        <ele>116.45999999999999</ele>
        <time>2013-09-04T13:16:56Z</time>
      </trkpt>
      <trkpt lat="50.919317035004497" lon="14.072735980153084">
        <ele>115.98</ele>
        <time>2013-09-04T13:17:10Z</time>
      </trkpt>
      <trkpt lat="50.919177979230881" lon="14.073447016999125">
        <ele>115.98</ele>
        <time>2013-09-04T13:17:20Z</time>
      </trkpt>
      <trkpt lat="50.919021992012858" lon="14.074141960591078">
        <ele>116.94</ele>
        <time>2013-09-04T13:17:30Z</time>
      </trkpt>
      <trkpt lat="50.918941022828221" lon="14.074331978335977">
        <ele>116.94</ele>
        <time>2013-09-04T13:17:34Z</time>
      </trkpt>
      <trkpt lat="50.91887203976512" lon="14.074401967227459">
        <ele>116.45999999999999</ele>
        <time>2013-09-04T13:17:36Z</time>
      </trkpt>
      <trkpt lat="50.918824011459947" lon="14.074389981105924">
        <ele>115.98</ele>
        <time>2013-09-04T13:17:37Z</time>
      </trkpt>
      <trkpt lat="50.918783023953438" lon="14.074357962235808">
        <ele>115.98</ele>
        <time>2013-09-04T13:17:38Z</time>
      </trkpt>
      <trkpt lat="50.918748993426561" lon="14.07431404106319">
        <ele>115.5</ele>
        <time>2013-09-04T13:17:39Z</time>
      </trkpt>
      <trkpt lat="50.918719992041588" lon="14.074267018586397">
        <ele>115.5</ele>
        <time>2013-09-04T13:17:40Z</time>
      </trkpt>
      <trkpt lat="50.918541038408875" lon="14.073813976719975">
        <ele>112.61</ele>
        <time>2013-09-04T13:17:48Z</time>
      </trkpt>
      <trkpt lat="50.918510025367141" lon="14.073745999485254">
        <ele>111.65000000000001</ele>
        <time>2013-09-04T13:17:50Z</time>
      </trkpt>
      <trkpt lat="50.918483035638928" lon="14.073722027242184">
        <ele>111.17</ele>
        <time>2013-09-04T13:17:51Z</time>
      </trkpt>
      <trkpt lat="50.918410029262304" lon="14.073664024472237">
        <ele>111.17</ele>
        <time>2013-09-04T13:17:53Z</time>
      </trkpt>
      <trkpt lat="50.918314978480339" lon="14.073620019480586">
        <ele>110.69</ele>
        <time>2013-09-04T13:17:56Z</time>
      </trkpt>
      <trkpt lat="50.918210037052631" lon="14.073618007823825">
        <ele>110.20999999999999</ele>
        <time>2013-09-04T13:17:57Z</time>
      </trkpt>
      <trkpt lat="50.918023036792874" lon="14.073608033359051">
        <ele>109.73</ele>
        <time>2013-09-04T13:18:00Z</time>
      </trkpt>
      <trkpt lat="50.917937960475683" lon="14.073567967861891">
        <ele>109.73</ele>
        <time>2013-09-04T13:18:05Z</time>
      </trkpt>
      <trkpt lat="50.918126972392201" lon="14.073591018095613">
        <ele>110.69</ele>
        <time>2013-09-04T13:18:09Z</time>
      </trkpt>
      <trkpt lat="50.918156979605556" lon="14.073626976460218">
        <ele>110.69</ele>
        <time>2013-09-04T13:18:10Z</time>
      </trkpt>
      <trkpt lat="50.918280025944114" lon="14.073759997263551">
        <ele>111.17</ele>
        <time>2013-09-04T13:18:12Z</time>
      </trkpt>
      <trkpt lat="50.918765002861619" lon="14.074501963332295">
        <ele>111.17</ele>
        <time>2013-09-04T13:18:21Z</time>
      </trkpt>
      <trkpt lat="50.918771037831903" lon="14.074561977759004">
        <ele>111.65000000000001</ele>
        <time>2013-09-04T13:18:22Z</time>
      </trkpt>
      <trkpt lat="50.918780006468296" lon="14.074647976085544">
        <ele>111.65000000000001</ele>
        <time>2013-09-04T13:18:23Z</time>
      </trkpt>
      <trkpt lat="50.91904697008431" lon="14.075652966275811">
        <ele>117.42</ele>
        <time>2013-09-04T13:18:33Z</time>
      </trkpt>
      <trkpt lat="50.919083012267947" lon="14.075837032869458">
        <ele>117.90000000000001</ele>
        <time>2013-09-04T13:18:34Z</time>
      </trkpt>
      <trkpt lat="50.919327009469271" lon="14.077441999688745">
        <ele>124.15000000000001</ele>
        <time>2013-09-04T13:18:43Z</time>
      </trkpt>
      <trkpt lat="50.919451983645558" lon="14.079594975337386">
        <ele>133.75999999999999</ele>
        <time>2013-09-04T13:18:54Z</time>
      </trkpt>
      <trkpt lat="50.919478973373771" lon="14.079803014174104">
        <ele>133.28</ele>
        <time>2013-09-04T13:18:55Z</time>
      </trkpt>
      <trkpt lat="50.919465981423855" lon="14.079994037747383">
        <ele>132.31999999999999</ele>
        <time>2013-09-04T13:18:56Z</time>
      </trkpt>
      <trkpt lat="50.919788014143705" lon="14.082681024447083">
        <ele>128.47</ele>
        <time>2013-09-04T13:19:09Z</time>
      </trkpt>
      <trkpt lat="50.919981971383095" lon="14.0840720012784">
        <ele>125.11</ele>
        <time>2013-09-04T13:19:17Z</time>
      </trkpt>
      <trkpt lat="50.920502990484238" lon="14.085735976696014">
        <ele>126.06999999999999</ele>
        <time>2013-09-04T13:19:26Z</time>
      </trkpt>
      <trkpt lat="50.921216960996389" lon="14.087544959038496">
        <ele>127.03</ele>
        <time>2013-09-04T13:19:36Z</time>
      </trkpt>
      <trkpt lat="50.922068981453776" lon="14.089184962213039">
        <ele>125.59</ele>
        <time>2013-09-04T13:19:46Z</time>
      </trkpt>
      <trkpt lat="50.922831986099482" lon="14.090820020064712">
        <ele>127.51000000000001</ele>
        <time>2013-09-04T13:19:56Z</time>
      </trkpt>
      <trkpt lat="50.923929009586573" lon="14.093412961810827">
        <ele>131.36000000000001</ele>
        <time>2013-09-04T13:20:11Z</time>
      </trkpt>
      <trkpt lat="50.924866022542119" lon="14.095623018220067">
        <ele>134.24000000000001</ele>
        <time>2013-09-04T13:20:23Z</time>
      </trkpt>
      <trkpt lat="50.925715025514364" lon="14.097598968073726">
        <ele>140.97</ele>
        <time>2013-09-04T13:20:34Z</time>
      </trkpt>
      <trkpt lat="50.926423966884613" lon="14.099554968997836">
        <ele>149.13999999999999</ele>
        <time>2013-09-04T13:20:42Z</time>
      </trkpt>
      <trkpt lat="50.927201975136995" lon="14.101912965998054">
        <ele>157.31</ele>
        <time>2013-09-04T13:20:51Z</time>
      </trkpt>
      <trkpt lat="50.927587039768696" lon="14.103597979992628">
        <ele>165.47999999999999</ele>
        <time>2013-09-04T13:20:58Z</time>
      </trkpt>
      <trkpt lat="50.927732968702912" lon="14.1046769823879">
        <ele>170.28999999999999</ele>
        <time>2013-09-04T13:21:02Z</time>
      </trkpt>
      <trkpt lat="50.9279840067029" lon="14.106850996613503">
        <ele>165.47999999999999</ele>
        <time>2013-09-04T13:21:09Z</time>
      </trkpt>
      <trkpt lat="50.927833970636129" lon="14.107682984322309">
        <ele>165</ele>
        <time>2013-09-04T13:21:12Z</time>
      </trkpt>
      <trkpt lat="50.927745038643479" lon="14.107932010665536">
        <ele>165</ele>
        <time>2013-09-04T13:21:13Z</time>
      </trkpt>
      <trkpt lat="50.927041964605451" lon="14.110719999298453">
        <ele>165.96000000000001</ele>
        <time>2013-09-04T13:21:23Z</time>
      </trkpt>
      <trkpt lat="50.926863010972738" lon="14.111560033634305">
        <ele>165</ele>
        <time>2013-09-04T13:21:26Z</time>
      </trkpt>
      <trkpt lat="50.92678003013134" lon="14.111812999472022">
        <ele>164.52000000000001</ele>
        <time>2013-09-04T13:21:27Z</time>
      </trkpt>
      <trkpt lat="50.926685985177755" lon="14.112064959481359">
        <ele>164.03999999999999</ele>
        <time>2013-09-04T13:21:28Z</time>
      </trkpt>
      <trkpt lat="50.926578026264906" lon="14.112292025238276">
        <ele>164.52000000000001</ele>
        <time>2013-09-04T13:21:29Z</time>
      </trkpt>
      <trkpt lat="50.926463026553392" lon="14.112508026883006">
        <ele>164.52000000000001</ele>
        <time>2013-09-04T13:21:30Z</time>
      </trkpt>
      <trkpt lat="50.926166977733374" lon="14.113144967705011">
        <ele>165</ele>
        <time>2013-09-04T13:21:33Z</time>
      </trkpt>
      <trkpt lat="50.925785014405847" lon="14.114244002848864">
        <ele>164.52000000000001</ele>
        <time>2013-09-04T13:21:38Z</time>
      </trkpt>
      <trkpt lat="50.924980016425252" lon="14.116016020998359">
        <ele>164.03999999999999</ele>
        <time>2013-09-04T13:21:47Z</time>
      </trkpt>
      <trkpt lat="50.924750017002225" lon="14.116866029798985">
        <ele>164.03999999999999</ele>
        <time>2013-09-04T13:21:51Z</time>
      </trkpt>
      <trkpt lat="50.92465597204864" lon="14.117018999531865">
        <ele>164.03999999999999</ele>
        <time>2013-09-04T13:21:52Z</time>
      </trkpt>
      <trkpt lat="50.92456896789372" lon="14.117155959829688">
        <ele>164.52000000000001</ele>
        <time>2013-09-04T13:21:53Z</time>
      </trkpt>
      <trkpt lat="50.92448003590107" lon="14.117270959541202">
        <ele>164.52000000000001</ele>
        <time>2013-09-04T13:21:54Z</time>
      </trkpt>
      <trkpt lat="50.924377022311091" lon="14.117372967302799">
        <ele>164.52000000000001</ele>
        <time>2013-09-04T13:21:55Z</time>
      </trkpt>
      <trkpt lat="50.924216005951166" lon="14.117619981989264">
        <ele>165.96000000000001</ele>
        <time>2013-09-04T13:21:57Z</time>
      </trkpt>
      <trkpt lat="50.924162026494741" lon="14.117770018056035">
        <ele>165.96000000000001</ele>
        <time>2013-09-04T13:21:58Z</time>
      </trkpt>
      <trkpt lat="50.924103017896414" lon="14.11793396808207">
        <ele>166.44999999999999</ele>
        <time>2013-09-04T13:21:59Z</time>
      </trkpt>
      <trkpt lat="50.924002015963197" lon="14.118244014680386">
        <ele>166.93000000000001</ele>
        <time>2013-09-04T13:22:01Z</time>
      </trkpt>
      <trkpt lat="50.923939989879727" lon="14.118362031877041">
        <ele>166.93000000000001</ele>
        <time>2013-09-04T13:22:02Z</time>
      </trkpt>
      <trkpt lat="50.923868995159864" lon="14.118460016325116">
        <ele>167.41</ele>
        <time>2013-09-04T13:22:03Z</time>
      </trkpt>
      <trkpt lat="50.92381501570344" lon="14.118588007986546">
        <ele>167.41</ele>
        <time>2013-09-04T13:22:04Z</time>
      </trkpt>
      <trkpt lat="50.923782996833324" lon="14.118745001032948">
        <ele>166.44999999999999</ele>
        <time>2013-09-04T13:22:05Z</time>
      </trkpt>
      <trkpt lat="50.923742009326816" lon="14.118906017392874">
        <ele>166.44999999999999</ele>
        <time>2013-09-04T13:22:06Z</time>
      </trkpt>
      <trkpt lat="50.923703033477068" lon="14.119081031531096">
        <ele>165.96000000000001</ele>
        <time>2013-09-04T13:22:07Z</time>
      </trkpt>
      <trkpt lat="50.923667997121811" lon="14.119270965456963">
        <ele>166.44999999999999</ele>
        <time>2013-09-04T13:22:08Z</time>
      </trkpt>
      <trkpt lat="50.92360102571547" lon="14.119678996503353">
        <ele>165.96000000000001</ele>
        <time>2013-09-04T13:22:10Z</time>
      </trkpt>
      <trkpt lat="50.923272036015987" lon="14.12076897919178">
        <ele>165</ele>
        <time>2013-09-04T13:22:15Z</time>
      </trkpt>
      <trkpt lat="50.922691002488136" lon="14.122907035052776">
        <ele>162.59999999999999</ele>
        <time>2013-09-04T13:22:23Z</time>
      </trkpt>
      <trkpt lat="50.922322031110525" lon="14.125320017337799">
        <ele>152.50999999999999</ele>
        <time>2013-09-04T13:22:31Z</time>
      </trkpt>
      <trkpt lat="50.922232009470463" lon="14.125872971490026">
        <ele>149.62</ele>
        <time>2013-09-04T13:22:33Z</time>
      </trkpt>
      <trkpt lat="50.922081973403692" lon="14.126370018348098">
        <ele>147.69999999999999</ele>
        <time>2013-09-04T13:22:35Z</time>
      </trkpt>
      <trkpt lat="50.921993963420391" lon="14.126586019992828">
        <ele>147.22</ele>
        <time>2013-09-04T13:22:36Z</time>
      </trkpt>
      <trkpt lat="50.921879969537258" lon="14.126774026080966">
        <ele>146.25999999999999</ele>
        <time>2013-09-04T13:22:37Z</time>
      </trkpt>
      <trkpt lat="50.92175398953259" lon="14.12693495862186">
        <ele>145.78</ele>
        <time>2013-09-04T13:22:38Z</time>
      </trkpt>
      <trkpt lat="50.921647036448121" lon="14.127088012173772">
        <ele>144.81999999999999</ele>
        <time>2013-09-04T13:22:39Z</time>
      </trkpt>
      <trkpt lat="50.92155902646482" lon="14.127265037968755">
        <ele>143.84999999999999</ele>
        <time>2013-09-04T13:22:40Z</time>
      </trkpt>
      <trkpt lat="50.921487025916576" lon="14.127442985773087">
        <ele>142.88999999999999</ele>
        <time>2013-09-04T13:22:41Z</time>
      </trkpt>
      <trkpt lat="50.921457018703222" lon="14.127630991861224">
        <ele>141.93000000000001</ele>
        <time>2013-09-04T13:22:42Z</time>
      </trkpt>
      <trkpt lat="50.92143296264112" lon="14.127829978242517">
        <ele>141.44999999999999</ele>
        <time>2013-09-04T13:22:43Z</time>
      </trkpt>
      <trkpt lat="50.921418964862823" lon="14.128029970452189">
        <ele>140.49000000000001</ele>
        <time>2013-09-04T13:22:44Z</time>
      </trkpt>
      <trkpt lat="50.921421982347965" lon="14.128225017338991">
        <ele>139.53</ele>
        <time>2013-09-04T13:22:45Z</time>
      </trkpt>
      <trkpt lat="50.921428017318249" lon="14.128430960699916">
        <ele>138.09</ele>
        <time>2013-09-04T13:22:46Z</time>
      </trkpt>
      <trkpt lat="50.92138996347785" lon="14.128827005624771">
        <ele>137.61000000000001</ele>
        <time>2013-09-04T13:22:48Z</time>
      </trkpt>
      <trkpt lat="50.921352999284863" lon="14.128991039469838">
        <ele>137.61000000000001</ele>
        <time>2013-09-04T13:22:49Z</time>
      </trkpt>
      <trkpt lat="50.921274963766336" lon="14.12938398309052">
        <ele>136.16</ele>
        <time>2013-09-04T13:22:52Z</time>
      </trkpt>
      <trkpt lat="50.921168010681868" lon="14.129671985283494">
        <ele>134.24000000000001</ele>
        <time>2013-09-04T13:22:55Z</time>
      </trkpt>
      <trkpt lat="50.921146972104907" lon="14.129740968346596">
        <ele>134.72</ele>
        <time>2013-09-04T13:22:56Z</time>
      </trkpt>
      <trkpt lat="50.921083018183708" lon="14.129911037161946">
        <ele>134.24000000000001</ele>
        <time>2013-09-04T13:22:59Z</time>
      </trkpt>
      <trkpt lat="50.921028032898903" lon="14.13041302934289">
        <ele>130.88</ele>
        <time>2013-09-04T13:23:09Z</time>
      </trkpt>
      <trkpt lat="50.920978998765349" lon="14.131009988486767">
        <ele>129.91999999999999</ele>
        <time>2013-09-04T13:23:20Z</time>
      </trkpt>
      <trkpt lat="50.920958966016769" lon="14.13138197734952">
        <ele>134.24000000000001</ele>
        <time>2013-09-04T13:23:27Z</time>
      </trkpt>
      <trkpt lat="50.920955026522279" lon="14.131447020918131">
        <ele>134.72</ele>
        <time>2013-09-04T13:23:28Z</time>
      </trkpt>
      <trkpt lat="50.920706000179052" lon="14.132037023082376">
        <ele>134.24000000000001</ele>
        <time>2013-09-04T13:23:40Z</time>
      </trkpt>
      <trkpt lat="50.920581026002765" lon="14.132693996652961">
        <ele>134.72</ele>
        <time>2013-09-04T13:23:51Z</time>
      </trkpt>
      <trkpt lat="50.920874979346991" lon="14.133454989641905">
        <ele>133.28</ele>
        <time>2013-09-04T13:23:59Z</time>
      </trkpt>
      <trkpt lat="50.921549974009395" lon="14.134875973686576">
        <ele>133.28</ele>
        <time>2013-09-04T13:24:10Z</time>
      </trkpt>
      <trkpt lat="50.922520011663437" lon="14.136875979602337">
        <ele>131.84</ele>
        <time>2013-09-04T13:24:23Z</time>
      </trkpt>
      <trkpt lat="50.922594023868442" lon="14.137045964598656">
        <ele>131.36000000000001</ele>
        <time>2013-09-04T13:24:24Z</time>
      </trkpt>
      <trkpt lat="50.922650014981627" lon="14.137231959030032">
        <ele>130.40000000000001</ele>
        <time>2013-09-04T13:24:25Z</time>
      </trkpt>
      <trkpt lat="50.922681028023362" lon="14.137430023401976">
        <ele>129.43000000000001</ele>
        <time>2013-09-04T13:24:26Z</time>
      </trkpt>
      <trkpt lat="50.922698965296149" lon="14.1376359667629">
        <ele>129.43000000000001</ele>
        <time>2013-09-04T13:24:27Z</time>
      </trkpt>
      <trkpt lat="50.92269703745842" lon="14.137834031134844">
        <ele>128.47</ele>
        <time>2013-09-04T13:24:28Z</time>
      </trkpt>
      <trkpt lat="50.922681028023362" lon="14.138026982545853">
        <ele>127.98999999999999</ele>
        <time>2013-09-04T13:24:29Z</time>
      </trkpt>
      <trkpt lat="50.922648003324866" lon="14.138206019997597">
        <ele>127.03</ele>
        <time>2013-09-04T13:24:30Z</time>
      </trkpt>
      <trkpt lat="50.922595029696822" lon="14.138381034135818">
        <ele>125.59</ele>
        <time>2013-09-04T13:24:31Z</time>
      </trkpt>
      <trkpt lat="50.922535015270114" lon="14.138565016910434">
        <ele>123.67</ele>
        <time>2013-09-04T13:24:32Z</time>
      </trkpt>
      <trkpt lat="50.921793971210718" lon="14.141018986701965">
        <ele>119.81999999999999</ele>
        <time>2013-09-04T13:24:45Z</time>
      </trkpt>
      <trkpt lat="50.921558020636439" lon="14.141861032694578">
        <ele>120.78</ele>
        <time>2013-09-04T13:24:50Z</time>
      </trkpt>
      <trkpt lat="50.921509992331266" lon="14.142021965235472">
        <ele>120.78</ele>
        <time>2013-09-04T13:24:51Z</time>
      </trkpt>
      <trkpt lat="50.921493982896209" lon="14.142201002687216">
        <ele>120.78</ele>
        <time>2013-09-04T13:24:52Z</time>
      </trkpt>
      <trkpt lat="50.921403961256146" lon="14.14296300150454">
        <ele>122.70999999999999</ele>
        <time>2013-09-04T13:24:56Z</time>
      </trkpt>
      <trkpt lat="50.921357022598386" lon="14.143150001764297">
        <ele>123.67</ele>
        <time>2013-09-04T13:24:57Z</time>
      </trkpt>
      <trkpt lat="50.921305976808071" lon="14.143330967053771">
        <ele>123.67</ele>
        <time>2013-09-04T13:24:58Z</time>
      </trkpt>
      <trkpt lat="50.921253003180027" lon="14.143515033647418">
        <ele>124.63</ele>
        <time>2013-09-04T13:24:59Z</time>
      </trkpt>
      <trkpt lat="50.921199023723602" lon="14.143699016422033">
        <ele>125.11</ele>
        <time>2013-09-04T13:25:00Z</time>
      </trkpt>
      <trkpt lat="50.920994002372026" lon="14.144604010507464">
        <ele>126.06999999999999</ele>
        <time>2013-09-04T13:25:05Z</time>
      </trkpt>
      <trkpt lat="50.920925019308925" lon="14.144747005775571">
        <ele>126.06999999999999</ele>
        <time>2013-09-04T13:25:06Z</time>
      </trkpt>
      <trkpt lat="50.920834997668862" lon="14.144867034628987">
        <ele>126.55</ele>
        <time>2013-09-04T13:25:07Z</time>
      </trkpt>
      <trkpt lat="50.920717986300588" lon="14.144962001591921">
        <ele>127.03</ele>
        <time>2013-09-04T13:25:08Z</time>
      </trkpt>
      <trkpt lat="50.920614972710609" lon="14.145055962726474">
        <ele>126.55</ele>
        <time>2013-09-04T13:25:09Z</time>
      </trkpt>
      <trkpt lat="50.920506007969379" lon="14.145136009901762">
        <ele>126.55</ele>
        <time>2013-09-04T13:25:10Z</time>
      </trkpt>
      <trkpt lat="50.920390002429485" lon="14.14521798491478">
        <ele>126.55</ele>
        <time>2013-09-04T13:25:11Z</time>
      </trkpt>
      <trkpt lat="50.920282965525985" lon="14.14532502181828">
        <ele>125.59</ele>
        <time>2013-09-04T13:25:12Z</time>
      </trkpt>
      <trkpt lat="50.920183975249529" lon="14.145455025136471">
        <ele>125.11</ele>
        <time>2013-09-04T13:25:13Z</time>
      </trkpt>
      <trkpt lat="50.920093031600118" lon="14.145611012354493">
        <ele>124.15000000000001</ele>
        <time>2013-09-04T13:25:14Z</time>
      </trkpt>
      <trkpt lat="50.919402027502656" lon="14.147337013855577">
        <ele>123.67</ele>
        <time>2013-09-04T13:25:24Z</time>
      </trkpt>
      <trkpt lat="50.918670035898685" lon="14.149286979809403">
        <ele>120.78</ele>
        <time>2013-09-04T13:25:36Z</time>
      </trkpt>
      <trkpt lat="50.918490998446941" lon="14.149826020002365">
        <ele>119.34</ele>
        <time>2013-09-04T13:25:43Z</time>
      </trkpt>
      <trkpt lat="50.918499967083335" lon="14.149916041642427">
        <ele>122.22</ele>
        <time>2013-09-04T13:25:55Z</time>
      </trkpt>
      <trkpt lat="50.918512037023902" lon="14.150021988898516">
        <ele>122.22</ele>
        <time>2013-09-04T13:25:58Z</time>
      </trkpt>
      <trkpt lat="50.918525028973818" lon="14.150047972798347">
        <ele>122.70999999999999</ele>
        <time>2013-09-04T13:26:11Z</time>
      </trkpt>
      <trkpt lat="50.918555036187172" lon="14.150062976405025">
        <ele>124.63</ele>
        <time>2013-09-04T13:26:31Z</time>
      </trkpt>
      <trkpt lat="50.918584959581494" lon="14.15007202886045">
        <ele>124.15000000000001</ele>
        <time>2013-09-04T13:27:01Z</time>
      </trkpt>
      <trkpt lat="50.91863801702857" lon="14.150140006095171">
        <ele>122.70999999999999</ele>
        <time>2013-09-04T13:27:28Z</time>
      </trkpt>
      <trkpt lat="50.918571967631578" lon="14.150093989446759">
        <ele>125.59</ele>
        <time>2013-09-04T13:27:57Z</time>
      </trkpt>
      <trkpt lat="50.918581020087004" lon="14.150092983618379">
        <ele>125.11</ele>
        <time>2013-09-04T13:28:26Z</time>
      </trkpt>
      <trkpt lat="50.918559981510043" lon="14.15009600110352">
        <ele>125.11</ele>
        <time>2013-09-04T13:28:59Z</time>
      </trkpt>
      <trkpt lat="50.918557969853282" lon="14.150103041902184">
        <ele>125.59</ele>
        <time>2013-09-04T13:29:24Z</time>
      </trkpt>
      <trkpt lat="50.918558975681663" lon="14.150108993053436">
        <ele>125.59</ele>
        <time>2013-09-04T13:29:29Z</time>
      </trkpt>
      <trkpt lat="50.918320007622242" lon="14.15078398771584">
        <ele>124.63</ele>
        <time>2013-09-04T13:29:37Z</time>
      </trkpt>
      <trkpt lat="50.917968973517418" lon="14.15203096345067">
        <ele>123.19</ele>
        <time>2013-09-04T13:29:47Z</time>
      </trkpt>
      <trkpt lat="50.917884986847639" lon="14.152446035295725">
        <ele>125.11</ele>
        <time>2013-09-04T13:29:54Z</time>
      </trkpt>
      <trkpt lat="50.917826984077692" lon="14.152582995593548">
        <ele>125.59</ele>
        <time>2013-09-04T13:29:58Z</time>
      </trkpt>
      <trkpt lat="50.917669991031289" lon="14.153026985004544">
        <ele>126.06999999999999</ele>
        <time>2013-09-04T13:30:09Z</time>
      </trkpt>
      <trkpt lat="50.917518027126789" lon="14.154029041528702">
        <ele>127.03</ele>
        <time>2013-09-04T13:49:22Z</time>
      </trkpt>
      <trkpt lat="50.917514003813267" lon="14.154117973521352">
        <ele>125.59</ele>
        <time>2013-09-04T13:49:23Z</time>
      </trkpt>
      <trkpt lat="50.917504029348493" lon="14.154216963797808">
        <ele>126.06999999999999</ele>
        <time>2013-09-04T13:49:24Z</time>
      </trkpt>
      <trkpt lat="50.917503023520112" lon="14.154325006529689">
        <ele>125.59</ele>
        <time>2013-09-04T13:49:25Z</time>
      </trkpt>
      <trkpt lat="50.917506963014603" lon="14.154437994584441">
        <ele>125.59</ele>
        <time>2013-09-04T13:49:26Z</time>
      </trkpt>
      <trkpt lat="50.917518027126789" lon="14.154566992074251">
        <ele>126.06999999999999</ele>
        <time>2013-09-04T13:49:27Z</time>
      </trkpt>
      <trkpt lat="50.91754199936986" lon="14.154687020927668">
        <ele>126.55</ele>
        <time>2013-09-04T13:49:28Z</time>
      </trkpt>
      <trkpt lat="50.917574018239975" lon="14.15480000898242">
        <ele>127.03</ele>
        <time>2013-09-04T13:49:29Z</time>
      </trkpt>
      <trkpt lat="50.917600002139807" lon="14.15490897372365">
        <ele>127.03</ele>
        <time>2013-09-04T13:49:30Z</time>
      </trkpt>
      <trkpt lat="50.9176279976964" lon="14.155008969828486">
        <ele>127.51000000000001</ele>
        <time>2013-09-04T13:49:31Z</time>
      </trkpt>
      <trkpt lat="50.917641995474696" lon="14.155116006731987">
        <ele>127.51000000000001</ele>
        <time>2013-09-04T13:49:32Z</time>
      </trkpt>
      <trkpt lat="50.91764903627336" lon="14.155248021706939">
        <ele>125.59</ele>
        <time>2013-09-04T13:49:33Z</time>
      </trkpt>
      <trkpt lat="50.91745600104332" lon="14.157049041241407">
        <ele>120.78</ele>
        <time>2013-09-04T13:49:48Z</time>
      </trkpt>
      <trkpt lat="50.917163975536823" lon="14.15770199149847">
        <ele>121.26000000000001</ele>
        <time>2013-09-04T13:49:53Z</time>
      </trkpt>
      <trkpt lat="50.916789975017309" lon="14.158292999491096">
        <ele>123.19</ele>
        <time>2013-09-04T13:49:58Z</time>
      </trkpt>
      <trkpt lat="50.916741024702787" lon="14.158428031951189">
        <ele>123.19</ele>
        <time>2013-09-04T13:49:59Z</time>
      </trkpt>
      <trkpt lat="50.916700959205627" lon="14.15856096893549">
        <ele>123.19</ele>
        <time>2013-09-04T13:50:00Z</time>
      </trkpt>
      <trkpt lat="50.916672963649035" lon="14.158708993345499">
        <ele>123.19</ele>
        <time>2013-09-04T13:50:01Z</time>
      </trkpt>
      <trkpt lat="50.916673969477415" lon="14.15886196307838">
        <ele>123.19</ele>
        <time>2013-09-04T13:50:02Z</time>
      </trkpt>
      <trkpt lat="50.91668201610446" lon="14.159016022458673">
        <ele>123.19</ele>
        <time>2013-09-04T13:50:03Z</time>
      </trkpt>
      <trkpt lat="50.916686961427331" lon="14.159330008551478">
        <ele>124.63</ele>
        <time>2013-09-04T13:50:05Z</time>
      </trkpt>
      <trkpt lat="50.916470037773252" lon="14.16077203117311">
        <ele>123.67</ele>
        <time>2013-09-04T13:50:14Z</time>
      </trkpt>
      <trkpt lat="50.916010038927197" lon="14.162735994905233">
        <ele>122.22</ele>
        <time>2013-09-04T13:50:26Z</time>
      </trkpt>
      <trkpt lat="50.915414001792669" lon="14.165606964379549">
        <ele>123.67</ele>
        <time>2013-09-04T13:50:44Z</time>
      </trkpt>
      <trkpt lat="50.914619984105229" lon="14.168610032647848">
        <ele>123.19</ele>
        <time>2013-09-04T13:51:04Z</time>
      </trkpt>
      <trkpt lat="50.914095025509596" lon="14.170581037178636">
        <ele>126.06999999999999</ele>
        <time>2013-09-04T13:51:18Z</time>
      </trkpt>
      <trkpt lat="50.913566965609789" lon="14.171672025695443">
        <ele>124.63</ele>
        <time>2013-09-04T13:51:27Z</time>
      </trkpt>
      <trkpt lat="50.913426987826824" lon="14.172033034265041">
        <ele>124.15000000000001</ele>
        <time>2013-09-04T13:51:30Z</time>
      </trkpt>
      <trkpt lat="50.913077965378761" lon="14.173354022204876">
        <ele>122.22</ele>
        <time>2013-09-04T13:51:39Z</time>
      </trkpt>
      <trkpt lat="50.912590976804495" lon="14.175500962883234">
        <ele>120.3</ele>
        <time>2013-09-04T13:51:51Z</time>
      </trkpt>
      <trkpt lat="50.911708027124405" lon="14.179006023332477">
        <ele>120.78</ele>
        <time>2013-09-04T13:52:10Z</time>
      </trkpt>
      <trkpt lat="50.911321034654975" lon="14.181131003424525">
        <ele>120.78</ele>
        <time>2013-09-04T13:52:21Z</time>
      </trkpt>
      <trkpt lat="50.910691972821951" lon="14.184109009802341">
        <ele>121.73999999999999</ele>
        <time>2013-09-04T13:52:37Z</time>
      </trkpt>
      <trkpt lat="50.910501033067703" lon="14.185226988047361">
        <ele>124.63</ele>
        <time>2013-09-04T13:52:43Z</time>
      </trkpt>
      <trkpt lat="50.910448981449008" lon="14.185409964993596">
        <ele>125.11</ele>
        <time>2013-09-04T13:52:44Z</time>
      </trkpt>
      <trkpt lat="50.9103889670223" lon="14.185586990788579">
        <ele>125.11</ele>
        <time>2013-09-04T13:52:45Z</time>
      </trkpt>
      <trkpt lat="50.910317972302437" lon="14.185749012976885">
        <ele>126.06999999999999</ele>
        <time>2013-09-04T13:52:46Z</time>
      </trkpt>
      <trkpt lat="50.910242032259703" lon="14.185911035165191">
        <ele>126.55</ele>
        <time>2013-09-04T13:52:47Z</time>
      </trkpt>
      <trkpt lat="50.910157039761543" lon="14.186059981584549">
        <ele>127.03</ele>
        <time>2013-09-04T13:52:48Z</time>
      </trkpt>
      <trkpt lat="50.91000197455287" lon="14.186397017911077">
        <ele>127.03</ele>
        <time>2013-09-04T13:52:50Z</time>
      </trkpt>
      <trkpt lat="50.909941038116813" lon="14.186579994857311">
        <ele>127.03</ele>
        <time>2013-09-04T13:52:51Z</time>
      </trkpt>
      <trkpt lat="50.90933402068913" lon="14.188991971313953">
        <ele>127.03</ele>
        <time>2013-09-04T13:53:03Z</time>
      </trkpt>
      <trkpt lat="50.908804032951593" lon="14.191666971892118">
        <ele>126.06999999999999</ele>
        <time>2013-09-04T13:53:16Z</time>
      </trkpt>
      <trkpt lat="50.90843397192657" lon="14.19364501722157">
        <ele>124.63</ele>
        <time>2013-09-04T13:53:26Z</time>
      </trkpt>
      <trkpt lat="50.907958969473839" lon="14.19620200060308">
        <ele>123.67</ele>
        <time>2013-09-04T13:53:39Z</time>
      </trkpt>
      <trkpt lat="50.907223038375378" lon="14.199418975040317">
        <ele>128.94999999999999</ele>
        <time>2013-09-04T13:53:55Z</time>
      </trkpt>
      <trkpt lat="50.906792962923646" lon="14.20122804120183">
        <ele>130.40000000000001</ele>
        <time>2013-09-04T13:54:02Z</time>
      </trkpt>
      <trkpt lat="50.905926022678614" lon="14.204434035345912">
        <ele>129.91999999999999</ele>
        <time>2013-09-04T13:54:13Z</time>
      </trkpt>
      <trkpt lat="50.90495397336781" lon="14.207536010071635">
        <ele>129.91999999999999</ele>
        <time>2013-09-04T13:54:24Z</time>
      </trkpt>
      <trkpt lat="50.904016038402915" lon="14.209978999570012">
        <ele>127.03</ele>
        <time>2013-09-04T13:54:33Z</time>
      </trkpt>
      <trkpt lat="50.903788972645998" lon="14.210503958165646">
        <ele>124.63</ele>
        <time>2013-09-04T13:54:35Z</time>
      </trkpt>
      <trkpt lat="50.902970982715487" lon="14.212965974584222">
        <ele>121.26000000000001</ele>
        <time>2013-09-04T13:54:44Z</time>
      </trkpt>
      <trkpt lat="50.902646016329527" lon="14.213753035292029">
        <ele>122.70999999999999</ele>
        <time>2013-09-04T13:54:47Z</time>
      </trkpt>
      <trkpt lat="50.901893991976976" lon="14.216007012873888">
        <ele>119.81999999999999</ele>
        <time>2013-09-04T13:54:55Z</time>
      </trkpt>
      <trkpt lat="50.901245987042785" lon="14.217932000756264">
        <ele>117.42</ele>
        <time>2013-09-04T13:55:02Z</time>
      </trkpt>
      <trkpt lat="50.901120007038116" lon="14.218175997957587">
        <ele>116.94</ele>
        <time>2013-09-04T13:55:03Z</time>
      </trkpt>
      <trkpt lat="50.899821985512972" lon="14.220539024099708">
        <ele>110.69</ele>
        <time>2013-09-04T13:55:13Z</time>
      </trkpt>
      <trkpt lat="50.898765027523041" lon="14.222646988928318">
        <ele>108.77</ele>
        <time>2013-09-04T13:55:22Z</time>
      </trkpt>
      <trkpt lat="50.897977966815233" lon="14.223738983273506">
        <ele>109.73</ele>
        <time>2013-09-04T13:55:29Z</time>
      </trkpt>
      <trkpt lat="50.896396972239017" lon="14.225620971992612">
        <ele>111.17</ele>
        <time>2013-09-04T13:55:44Z</time>
      </trkpt>
      <trkpt lat="50.895770005881786" lon="14.226424964144826">
        <ele>112.13</ele>
        <time>2013-09-04T13:55:50Z</time>
      </trkpt>
      <trkpt lat="50.895593985915184" lon="14.226750014349818">
        <ele>114.05</ele>
        <time>2013-09-04T13:55:52Z</time>
      </trkpt>
      <trkpt lat="50.895502036437392" lon="14.226910024881363">
        <ele>113.56999999999999</ele>
        <time>2013-09-04T13:55:53Z</time>
      </trkpt>
      <trkpt lat="50.895397011190653" lon="14.227039022371173">
        <ele>113.56999999999999</ele>
        <time>2013-09-04T13:55:54Z</time>
      </trkpt>
      <trkpt lat="50.893732029944658" lon="14.228831995278597">
        <ele>118.86</ele>
        <time>2013-09-04T13:56:09Z</time>
      </trkpt>
      <trkpt lat="50.892277015373111" lon="14.23014803789556">
        <ele>118.86</ele>
        <time>2013-09-04T13:56:22Z</time>
      </trkpt>
      <trkpt lat="50.891453996300697" lon="14.231078010052443">
        <ele>118.86</ele>
        <time>2013-09-04T13:56:32Z</time>
      </trkpt>
      <trkpt lat="50.890443976968527" lon="14.231978980824351">
        <ele>117.42</ele>
        <time>2013-09-04T13:56:42Z</time>
      </trkpt>
      <trkpt lat="50.888655027374625" lon="14.233464002609253">
        <ele>121.73999999999999</ele>
        <time>2013-09-04T13:56:58Z</time>
      </trkpt>
      <trkpt lat="50.887310989201069" lon="14.234576029703021">
        <ele>121.73999999999999</ele>
        <time>2013-09-04T13:57:09Z</time>
      </trkpt>
      <trkpt lat="50.886470032855868" lon="14.23528203740716">
        <ele>122.22</ele>
        <time>2013-09-04T13:57:17Z</time>
      </trkpt>
      <trkpt lat="50.886275991797447" lon="14.23541204072535">
        <ele>122.70999999999999</ele>
        <time>2013-09-04T13:57:20Z</time>
      </trkpt>
      <trkpt lat="50.88623802177608" lon="14.235423021018505">
        <ele>123.19</ele>
        <time>2013-09-04T13:57:21Z</time>
      </trkpt>
      <trkpt lat="50.886210026219487" lon="14.235461996868253">
        <ele>123.19</ele>
        <time>2013-09-04T13:57:22Z</time>
      </trkpt>
      <trkpt lat="50.885754972696304" lon="14.23588695935905">
        <ele>122.70999999999999</ele>
        <time>2013-09-04T13:57:29Z</time>
      </trkpt>
      <trkpt lat="50.884572034701705" lon="14.236579975113273">
        <ele>121.73999999999999</ele>
        <time>2013-09-04T13:57:39Z</time>
      </trkpt>
      <trkpt lat="50.882947035133839" lon="14.237096970900893">
        <ele>123.67</ele>
        <time>2013-09-04T13:57:52Z</time>
      </trkpt>
      <trkpt lat="50.881224973127246" lon="14.23762796446681">
        <ele>118.38</ele>
        <time>2013-09-04T13:58:07Z</time>
      </trkpt>
      <trkpt lat="50.879861991852522" lon="14.237937005236745">
        <ele>123.19</ele>
        <time>2013-09-04T13:58:19Z</time>
      </trkpt>
      <trkpt lat="50.878110006451607" lon="14.237607009708881">
        <ele>123.67</ele>
        <time>2013-09-04T13:58:34Z</time>
      </trkpt>
      <trkpt lat="50.876643005758524" lon="14.237161008641124">
        <ele>124.15000000000001</ele>
        <time>2013-09-04T13:58:47Z</time>
      </trkpt>
      <trkpt lat="50.875019012019038" lon="14.236500011757016">
        <ele>127.03</ele>
        <time>2013-09-04T13:59:01Z</time>
      </trkpt>
      <trkpt lat="50.874094991013408" lon="14.236019980162382">
        <ele>128.47</ele>
        <time>2013-09-04T13:59:11Z</time>
      </trkpt>
      <trkpt lat="50.874076969921589" lon="14.236096004024148">
        <ele>127.51000000000001</ele>
        <time>2013-09-04T13:59:12Z</time>
      </trkpt>
      <trkpt lat="50.874034976586699" lon="14.236136991530657">
        <ele>127.98999999999999</ele>
        <time>2013-09-04T13:59:13Z</time>
      </trkpt>
      <trkpt lat="50.874005975201726" lon="14.236194994300604">
        <ele>128.47</ele>
        <time>2013-09-04T13:59:14Z</time>
      </trkpt>
      <trkpt lat="50.87399298325181" lon="14.236291972920299">
        <ele>128.94999999999999</ele>
        <time>2013-09-04T13:59:15Z</time>
      </trkpt>
      <trkpt lat="50.873994994908571" lon="14.236420970410109">
        <ele>128.94999999999999</ele>
        <time>2013-09-04T13:59:16Z</time>
      </trkpt>
      <trkpt lat="50.873985020443797" lon="14.236558014526963">
        <ele>128.94999999999999</ele>
        <time>2013-09-04T13:59:17Z</time>
      </trkpt>
      <trkpt lat="50.873936992138624" lon="14.236860014498234">
        <ele>129.43000000000001</ele>
        <time>2013-09-04T13:59:19Z</time>
      </trkpt>
      <trkpt lat="50.873887035995722" lon="14.237014995887876">
        <ele>129.43000000000001</ele>
        <time>2013-09-04T13:59:20Z</time>
      </trkpt>
      <trkpt lat="50.87382098659873" lon="14.237180035561323">
        <ele>129.43000000000001</ele>
        <time>2013-09-04T13:59:21Z</time>
      </trkpt>
      <trkpt lat="50.873531978577375" lon="14.238038007169962">
        <ele>128.94999999999999</ele>
        <time>2013-09-04T13:59:26Z</time>
      </trkpt>
      <trkpt lat="50.873505994677544" lon="14.238228024914861">
        <ele>128.94999999999999</ele>
        <time>2013-09-04T13:59:27Z</time>
      </trkpt>
      <trkpt lat="50.873503983020782" lon="14.238432962447405">
        <ele>129.43000000000001</ele>
        <time>2013-09-04T13:59:28Z</time>
      </trkpt>
      <trkpt lat="50.873494008556008" lon="14.238627003505826">
        <ele>129.43000000000001</ele>
        <time>2013-09-04T13:59:29Z</time>
      </trkpt>
      <trkpt lat="50.873499037697911" lon="14.23882800154388">
        <ele>129.43000000000001</ele>
        <time>2013-09-04T13:59:30Z</time>
      </trkpt>
      <trkpt lat="50.87351999245584" lon="14.240220990031958">
        <ele>128.94999999999999</ele>
        <time>2013-09-04T13:59:37Z</time>
      </trkpt>
      <trkpt lat="50.873498031869531" lon="14.240589961409569">
        <ele>128.47</ele>
        <time>2013-09-04T13:59:39Z</time>
      </trkpt>
      <trkpt lat="50.873515969142318" lon="14.240767993032932">
        <ele>128.94999999999999</ele>
        <time>2013-09-04T13:59:40Z</time>
      </trkpt>
      <trkpt lat="50.873525021597743" lon="14.240924986079335">
        <ele>128.94999999999999</ele>
        <time>2013-09-04T13:59:41Z</time>
      </trkpt>
      <trkpt lat="50.873563997447491" lon="14.241087008267641">
        <ele>129.43000000000001</ele>
        <time>2013-09-04T13:59:42Z</time>
      </trkpt>
      <trkpt lat="50.87360599078238" lon="14.241250958293676">
        <ele>129.91999999999999</ele>
        <time>2013-09-04T13:59:43Z</time>
      </trkpt>
      <trkpt lat="50.873955013230443" lon="14.24258703365922">
        <ele>130.40000000000001</ele>
        <time>2013-09-04T13:59:52Z</time>
      </trkpt>
      <trkpt lat="50.874348962679505" lon="14.243378033861518">
        <ele>131.36000000000001</ele>
        <time>2013-09-04T13:59:59Z</time>
      </trkpt>
      <trkpt lat="50.874409982934594" lon="14.243523962795734">
        <ele>131.84</ele>
        <time>2013-09-04T14:00:00Z</time>
      </trkpt>
      <trkpt lat="50.874808039516211" lon="14.244659962132573">
        <ele>133.28</ele>
        <time>2013-09-04T14:00:07Z</time>
      </trkpt>
      <trkpt lat="50.8751539606601" lon="14.246685029938817">
        <ele>135.19999999999999</ele>
        <time>2013-09-04T14:00:18Z</time>
      </trkpt>
      <trkpt lat="50.875208023935556" lon="14.247460020706058">
        <ele>135.19999999999999</ele>
        <time>2013-09-04T14:00:22Z</time>
      </trkpt>
      <trkpt lat="50.875176005065441" lon="14.24763998016715">
        <ele>135.68000000000001</ele>
        <time>2013-09-04T14:00:23Z</time>
      </trkpt>
      <trkpt lat="50.875115990638733" lon="14.247812982648611">
        <ele>136.63999999999999</ele>
        <time>2013-09-04T14:00:24Z</time>
      </trkpt>
      <trkpt lat="50.875058993697166" lon="14.24800400622189">
        <ele>136.16</ele>
        <time>2013-09-04T14:00:25Z</time>
      </trkpt>
      <trkpt lat="50.874995039775968" lon="14.248166028410196">
        <ele>135.19999999999999</ele>
        <time>2013-09-04T14:00:26Z</time>
      </trkpt>
      <trkpt lat="50.874914992600679" lon="14.248326038941741">
        <ele>136.16</ele>
        <time>2013-09-04T14:00:27Z</time>
      </trkpt>
      <trkpt lat="50.874825976788998" lon="14.248459981754422">
        <ele>136.63999999999999</ele>
        <time>2013-09-04T14:00:28Z</time>
      </trkpt>
      <trkpt lat="50.874733021482825" lon="14.248568024486303">
        <ele>136.16</ele>
        <time>2013-09-04T14:00:29Z</time>
      </trkpt>
      <trkpt lat="50.87463797070086" lon="14.248662991449237">
        <ele>136.63999999999999</ele>
        <time>2013-09-04T14:00:30Z</time>
      </trkpt>
      <trkpt lat="50.874026007950306" lon="14.249501014128327">
        <ele>139.53</ele>
        <time>2013-09-04T14:00:37Z</time>
      </trkpt>
      <trkpt lat="50.873963981866837" lon="14.24965800717473">
        <ele>140.00999999999999</ele>
        <time>2013-09-04T14:00:38Z</time>
      </trkpt>
      <trkpt lat="50.873907990753651" lon="14.249838972464204">
        <ele>140.00999999999999</ele>
        <time>2013-09-04T14:00:39Z</time>
      </trkpt>
      <trkpt lat="50.873872032389045" lon="14.250007029622793">
        <ele>140.97</ele>
        <time>2013-09-04T14:00:40Z</time>
      </trkpt>
      <trkpt lat="50.873839007690549" lon="14.250167962163687">
        <ele>140.00999999999999</ele>
        <time>2013-09-04T14:00:41Z</time>
      </trkpt>
      <trkpt lat="50.873790979385376" lon="14.250453030690551">
        <ele>140.97</ele>
        <time>2013-09-04T14:00:43Z</time>
      </trkpt>
      <trkpt lat="50.873787961900234" lon="14.250575993210077">
        <ele>141.44999999999999</ele>
        <time>2013-09-04T14:00:44Z</time>
      </trkpt>
      <trkpt lat="50.87381998077035" lon="14.250687975436449">
        <ele>141.93000000000001</ele>
        <time>2013-09-04T14:00:45Z</time>
      </trkpt>
      <trkpt lat="50.873873038217425" lon="14.250797023996711">
        <ele>141.93000000000001</ele>
        <time>2013-09-04T14:00:46Z</time>
      </trkpt>
      <trkpt lat="50.873913019895554" lon="14.250910012051463">
        <ele>142.41</ele>
        <time>2013-09-04T14:00:47Z</time>
      </trkpt>
      <trkpt lat="50.873930035158992" lon="14.251045966520905">
        <ele>142.88999999999999</ele>
        <time>2013-09-04T14:00:48Z</time>
      </trkpt>
      <trkpt lat="50.873933974653482" lon="14.25120497122407">
        <ele>142.88999999999999</ele>
        <time>2013-09-04T14:00:49Z</time>
      </trkpt>
      <trkpt lat="50.873933974653482" lon="14.25137797370553">
        <ele>143.37</ele>
        <time>2013-09-04T14:00:50Z</time>
      </trkpt>
      <trkpt lat="50.873975967988372" lon="14.251897986978292">
        <ele>144.34</ele>
        <time>2013-09-04T14:00:53Z</time>
      </trkpt>
      <trkpt lat="50.874019972980022" lon="14.252065038308501">
        <ele>144.34</ele>
        <time>2013-09-04T14:00:54Z</time>
      </trkpt>
      <trkpt lat="50.874079987406731" lon="14.25221499055624">
        <ele>144.81999999999999</ele>
        <time>2013-09-04T14:00:55Z</time>
      </trkpt>
      <trkpt lat="50.874162968248129" lon="14.252353040501475">
        <ele>144.81999999999999</ele>
        <time>2013-09-04T14:00:56Z</time>
      </trkpt>
      <trkpt lat="50.874249972403049" lon="14.252481032162905">
        <ele>145.30000000000001</ele>
        <time>2013-09-04T14:00:57Z</time>
      </trkpt>
      <trkpt lat="50.874611986801028" lon="14.253022000193596">
        <ele>148.18000000000001</ele>
        <time>2013-09-04T14:01:01Z</time>
      </trkpt>
      <trkpt lat="50.874991016462445" lon="14.253633040934801">
        <ele>151.53999999999999</ele>
        <time>2013-09-04T14:01:05Z</time>
      </trkpt>
      <trkpt lat="50.875037033110857" lon="14.253847030922771">
        <ele>152.50999999999999</ele>
        <time>2013-09-04T14:01:06Z</time>
      </trkpt>
      <trkpt lat="50.875077014788985" lon="14.254069989547133">
        <ele>153.47</ele>
        <time>2013-09-04T14:01:07Z</time>
      </trkpt>
      <trkpt lat="50.875106016173959" lon="14.254293031990528">
        <ele>153.47</ele>
        <time>2013-09-04T14:01:08Z</time>
      </trkpt>
      <trkpt lat="50.875137029215693" lon="14.25453501753509">
        <ele>154.43000000000001</ele>
        <time>2013-09-04T14:01:09Z</time>
      </trkpt>
      <trkpt lat="50.875379014760256" lon="14.256483977660537">
        <ele>161.16</ele>
        <time>2013-09-04T14:01:18Z</time>
      </trkpt>
      <trkpt lat="50.875494014471769" lon="14.256870970129967">
        <ele>162.59999999999999</ele>
        <time>2013-09-04T14:01:20Z</time>
      </trkpt>
      <trkpt lat="50.875900033861399" lon="14.258233029395342">
        <ele>166.44999999999999</ele>
        <time>2013-09-04T14:01:27Z</time>
      </trkpt>
      <trkpt lat="50.876106983050704" lon="14.259535996243358">
        <ele>169.81</ele>
        <time>2013-09-04T14:01:33Z</time>
      </trkpt>
      <trkpt lat="50.876225000247359" lon="14.260165980085731">
        <ele>170.77000000000001</ele>
        <time>2013-09-04T14:01:36Z</time>
      </trkpt>
      <trkpt lat="50.876319967210293" lon="14.260330013930798">
        <ele>171.72999999999999</ele>
        <time>2013-09-04T14:01:37Z</time>
      </trkpt>
      <trkpt lat="50.8764180354774" lon="14.260475020855665">
        <ele>172.21000000000001</ele>
        <time>2013-09-04T14:01:38Z</time>
      </trkpt>
      <trkpt lat="50.876532029360533" lon="14.260609969496727">
        <ele>173.66</ele>
        <time>2013-09-04T14:01:39Z</time>
      </trkpt>
      <trkpt lat="50.876649040728807" lon="14.260740978643298">
        <ele>174.62</ele>
        <time>2013-09-04T14:01:40Z</time>
      </trkpt>
      <trkpt lat="50.877353958785534" lon="14.261643961071968">
        <ele>179.90000000000001</ele>
        <time>2013-09-04T14:01:46Z</time>
      </trkpt>
      <trkpt lat="50.878213020041585" lon="14.26250796765089">
        <ele>180.87</ele>
        <time>2013-09-04T14:01:53Z</time>
      </trkpt>
      <trkpt lat="50.878867981955409" lon="14.263898022472858">
        <ele>183.75</ele>
        <time>2013-09-04T14:02:00Z</time>
      </trkpt>
      <trkpt lat="50.879140980541706" lon="14.264552984386683">
        <ele>184.71000000000001</ele>
        <time>2013-09-04T14:02:03Z</time>
      </trkpt>
      <trkpt lat="50.879724025726318" lon="14.265529979020357">
        <ele>186.15000000000001</ele>
        <time>2013-09-04T14:02:08Z</time>
      </trkpt>
      <trkpt lat="50.879800971597433" lon="14.265774982050061">
        <ele>186.63</ele>
        <time>2013-09-04T14:02:09Z</time>
      </trkpt>
      <trkpt lat="50.879870038479567" lon="14.26603096537292">
        <ele>187.11000000000001</ele>
        <time>2013-09-04T14:02:10Z</time>
      </trkpt>
      <trkpt lat="50.879903985187411" lon="14.266279991716146">
        <ele>187.59</ele>
        <time>2013-09-04T14:02:11Z</time>
      </trkpt>
      <trkpt lat="50.8799650054425" lon="14.266571011394262">
        <ele>187.59</ele>
        <time>2013-09-04T14:02:12Z</time>
      </trkpt>
      <trkpt lat="50.880585014820099" lon="14.268931020051241">
        <ele>190</ele>
        <time>2013-09-04T14:02:21Z</time>
      </trkpt>
      <trkpt lat="50.880827000364661" lon="14.269793014973402">
        <ele>190.47999999999999</ele>
        <time>2013-09-04T14:02:25Z</time>
      </trkpt>
      <trkpt lat="50.880861030891538" lon="14.270008010789752">
        <ele>190.47999999999999</ele>
        <time>2013-09-04T14:02:26Z</time>
      </trkpt>
      <trkpt lat="50.880846027284861" lon="14.270226024091244">
        <ele>191.44</ele>
        <time>2013-09-04T14:02:27Z</time>
      </trkpt>
      <trkpt lat="50.880822977051139" lon="14.270459963008761">
        <ele>191.91999999999999</ele>
        <time>2013-09-04T14:02:28Z</time>
      </trkpt>
      <trkpt lat="50.880790036171675" lon="14.270694991573691">
        <ele>191.91999999999999</ele>
        <time>2013-09-04T14:02:29Z</time>
      </trkpt>
      <trkpt lat="50.880761034786701" lon="14.270938988775015">
        <ele>192.40000000000001</ele>
        <time>2013-09-04T14:02:30Z</time>
      </trkpt>
      <trkpt lat="50.880255019292235" lon="14.273968040943146">
        <ele>196.25</ele>
        <time>2013-09-04T14:02:41Z</time>
      </trkpt>
      <trkpt lat="50.880098026245832" lon="14.275356000289321">
        <ele>197.69</ele>
        <time>2013-09-04T14:02:46Z</time>
      </trkpt>
      <trkpt lat="50.880039017647505" lon="14.275588011369109">
        <ele>197.69</ele>
        <time>2013-09-04T14:02:47Z</time>
      </trkpt>
      <trkpt lat="50.879947990179062" lon="14.275785991922021">
        <ele>197.69</ele>
        <time>2013-09-04T14:02:48Z</time>
      </trkpt>
      <trkpt lat="50.879859980195761" lon="14.275961006060243">
        <ele>197.69</ele>
        <time>2013-09-04T14:02:49Z</time>
      </trkpt>
      <trkpt lat="50.879724025726318" lon="14.276104001328349">
        <ele>197.21000000000001</ele>
        <time>2013-09-04T14:02:50Z</time>
      </trkpt>
      <trkpt lat="50.879592010751367" lon="14.276251019909978">
        <ele>197.69</ele>
        <time>2013-09-04T14:02:51Z</time>
      </trkpt>
      <trkpt lat="50.879318006336689" lon="14.276574980467558">
        <ele>199.13</ele>
        <time>2013-09-04T14:02:53Z</time>
      </trkpt>
      <trkpt lat="50.879240976646543" lon="14.27681596018374">
        <ele>198.65000000000001</ele>
        <time>2013-09-04T14:02:54Z</time>
      </trkpt>
      <trkpt lat="50.879142992198467" lon="14.277034979313612">
        <ele>200.09</ele>
        <time>2013-09-04T14:02:55Z</time>
      </trkpt>
      <trkpt lat="50.879098987206817" lon="14.277296997606754">
        <ele>200.56999999999999</ele>
        <time>2013-09-04T14:02:56Z</time>
      </trkpt>
      <trkpt lat="50.879052970558405" lon="14.277536971494555">
        <ele>200.56999999999999</ele>
        <time>2013-09-04T14:02:57Z</time>
      </trkpt>
      <trkpt lat="50.878891032189131" lon="14.278208026662469">
        <ele>201.53</ele>
        <time>2013-09-04T14:03:00Z</time>
      </trkpt>
      <trkpt lat="50.878521976992488" lon="14.279120983555913">
        <ele>200.09</ele>
        <time>2013-09-04T14:03:05Z</time>
      </trkpt>
      <trkpt lat="50.878393985331059" lon="14.279317036271095">
        <ele>200.56999999999999</ele>
        <time>2013-09-04T14:03:06Z</time>
      </trkpt>
      <trkpt lat="50.878256019204855" lon="14.279515016824007">
        <ele>199.13</ele>
        <time>2013-09-04T14:03:07Z</time>
      </trkpt>
      <trkpt lat="50.877434005960822" lon="14.280735002830625">
        <ele>199.61000000000001</ele>
        <time>2013-09-04T14:03:13Z</time>
      </trkpt>
      <trkpt lat="50.876789018511772" lon="14.282420016825199">
        <ele>200.09</ele>
        <time>2013-09-04T14:03:20Z</time>
      </trkpt>
      <trkpt lat="50.87637796998024" lon="14.284006040543318">
        <ele>200.09</ele>
        <time>2013-09-04T14:03:26Z</time>
      </trkpt>
      <trkpt lat="50.876363972201943" lon="14.284254983067513">
        <ele>199.61000000000001</ele>
        <time>2013-09-04T14:03:27Z</time>
      </trkpt>
      <trkpt lat="50.87637503631413" lon="14.284497974440455">
        <ele>199.61000000000001</ele>
        <time>2013-09-04T14:03:28Z</time>
      </trkpt>
      <trkpt lat="50.876382999122143" lon="14.284712970256805">
        <ele>199.61000000000001</ele>
        <time>2013-09-04T14:03:29Z</time>
      </trkpt>
      <trkpt lat="50.876423986628652" lon="14.284907011315227">
        <ele>200.56999999999999</ele>
        <time>2013-09-04T14:03:30Z</time>
      </trkpt>
      <trkpt lat="50.876495987176895" lon="14.285069033503532">
        <ele>201.53</ele>
        <time>2013-09-04T14:03:31Z</time>
      </trkpt>
      <trkpt lat="50.876605035737157" lon="14.285225020721555">
        <ele>201.53</ele>
        <time>2013-09-04T14:03:32Z</time>
      </trkpt>
      <trkpt lat="50.876717017963529" lon="14.2853660043329">
        <ele>201.53</ele>
        <time>2013-09-04T14:03:33Z</time>
      </trkpt>
      <trkpt lat="50.876887002959847" lon="14.285660041496158">
        <ele>202.00999999999999</ele>
        <time>2013-09-04T14:03:35Z</time>
      </trkpt>
      <trkpt lat="50.876940982416272" lon="14.285826003178954">
        <ele>201.53</ele>
        <time>2013-09-04T14:03:36Z</time>
      </trkpt>
      <trkpt lat="50.876968977972865" lon="14.286005040630698">
        <ele>201.53</ele>
        <time>2013-09-04T14:03:37Z</time>
      </trkpt>
      <trkpt lat="50.877014994621277" lon="14.286183994263411">
        <ele>202.00999999999999</ele>
        <time>2013-09-04T14:03:38Z</time>
      </trkpt>
      <trkpt lat="50.877018012106419" lon="14.286399995908141">
        <ele>202.00999999999999</ele>
        <time>2013-09-04T14:03:39Z</time>
      </trkpt>
      <trkpt lat="50.87697995826602" lon="14.286637958139181">
        <ele>202.49000000000001</ele>
        <time>2013-09-04T14:03:40Z</time>
      </trkpt>
      <trkpt lat="50.87693402543664" lon="14.286890001967549">
        <ele>202.49000000000001</ele>
        <time>2013-09-04T14:03:41Z</time>
      </trkpt>
      <trkpt lat="50.876628002151847" lon="14.287941008806229">
        <ele>204.90000000000001</ele>
        <time>2013-09-04T14:03:45Z</time>
      </trkpt>
      <trkpt lat="50.876534041017294" lon="14.288208978250623">
        <ele>204.90000000000001</ele>
        <time>2013-09-04T14:03:46Z</time>
      </trkpt>
      <trkpt lat="50.87644100189209" lon="14.288475019857287">
        <ele>205.38</ele>
        <time>2013-09-04T14:03:47Z</time>
      </trkpt>
      <trkpt lat="50.875585963949561" lon="14.290430014953017">
        <ele>207.30000000000001</ele>
        <time>2013-09-04T14:03:55Z</time>
      </trkpt>
      <trkpt lat="50.875561991706491" lon="14.290705025196075">
        <ele>207.78</ele>
        <time>2013-09-04T14:03:56Z</time>
      </trkpt>
      <trkpt lat="50.875541036948562" lon="14.290990009903908">
        <ele>207.78</ele>
        <time>2013-09-04T14:03:57Z</time>
      </trkpt>
      <trkpt lat="50.875270972028375" lon="14.294039011001587">
        <ele>212.59</ele>
        <time>2013-09-04T14:04:07Z</time>
      </trkpt>
      <trkpt lat="50.874828994274139" lon="14.297334020957351">
        <ele>215.47</ele>
        <time>2013-09-04T14:04:18Z</time>
      </trkpt>
      <trkpt lat="50.874823965132236" lon="14.297598972916603">
        <ele>215.47</ele>
        <time>2013-09-04T14:04:19Z</time>
      </trkpt>
      <trkpt lat="50.874837962910533" lon="14.297839030623436">
        <ele>215.47</ele>
        <time>2013-09-04T14:04:20Z</time>
      </trkpt>
      <trkpt lat="50.874877022579312" lon="14.298072969540954">
        <ele>215.94999999999999</ele>
        <time>2013-09-04T14:04:21Z</time>
      </trkpt>
      <trkpt lat="50.874923039227724" lon="14.298303974792361">
        <ele>215.94999999999999</ele>
        <time>2013-09-04T14:04:22Z</time>
      </trkpt>
      <trkpt lat="50.874977018684149" lon="14.298520982265472">
        <ele>216.43000000000001</ele>
        <time>2013-09-04T14:04:23Z</time>
      </trkpt>
      <trkpt lat="50.875030998140574" lon="14.298711000010371">
        <ele>215.94999999999999</ele>
        <time>2013-09-04T14:04:24Z</time>
      </trkpt>
      <trkpt lat="50.875377003103495" lon="14.299878012388945">
        <ele>216.43000000000001</ele>
        <time>2013-09-04T14:04:30Z</time>
      </trkpt>
      <trkpt lat="50.87538898922503" lon="14.300137013196945">
        <ele>216.43000000000001</ele>
        <time>2013-09-04T14:04:31Z</time>
      </trkpt>
      <trkpt lat="50.87538898922503" lon="14.300425015389919">
        <ele>216.43000000000001</ele>
        <time>2013-09-04T14:04:32Z</time>
      </trkpt>
      <trkpt lat="50.875341966748238" lon="14.300733972340822">
        <ele>216.43000000000001</ele>
        <time>2013-09-04T14:04:33Z</time>
      </trkpt>
      <trkpt lat="50.875319000333548" lon="14.301058016717434">
        <ele>216.43000000000001</ele>
        <time>2013-09-04T14:04:34Z</time>
      </trkpt>
      <trkpt lat="50.875056982040405" lon="14.304318996146321">
        <ele>219.80000000000001</ele>
        <time>2013-09-04T14:04:44Z</time>
      </trkpt>
      <trkpt lat="50.874948017299175" lon="14.305807035416365">
        <ele>221.24000000000001</ele>
        <time>2013-09-04T14:04:49Z</time>
      </trkpt>
      <trkpt lat="50.874548032879829" lon="14.308238038793206">
        <ele>223.63999999999999</ele>
        <time>2013-09-04T14:04:57Z</time>
      </trkpt>
      <trkpt lat="50.874261036515236" lon="14.311440009623766">
        <ele>228.44999999999999</ele>
        <time>2013-09-04T14:05:07Z</time>
      </trkpt>
      <trkpt lat="50.874022990465164" lon="14.312954032793641">
        <ele>229.88999999999999</ele>
        <time>2013-09-04T14:05:12Z</time>
      </trkpt>
      <trkpt lat="50.87401301600039" lon="14.31325301527977">
        <ele>230.37</ele>
        <time>2013-09-04T14:05:13Z</time>
      </trkpt>
      <trkpt lat="50.874022990465164" lon="14.313549986109138">
        <ele>230.84999999999999</ele>
        <time>2013-09-04T14:05:14Z</time>
      </trkpt>
      <trkpt lat="50.873974040150642" lon="14.315238017588854">
        <ele>235.18000000000001</ele>
        <time>2013-09-04T14:05:20Z</time>
      </trkpt>
      <trkpt lat="50.873662987723947" lon="14.316782969981432">
        <ele>240.94999999999999</ele>
        <time>2013-09-04T14:05:27Z</time>
      </trkpt>
      <trkpt lat="50.873599033802748" lon="14.317501969635487">
        <ele>242.87</ele>
        <time>2013-09-04T14:05:31Z</time>
      </trkpt>
      <trkpt lat="50.87332402355969" lon="14.319556038826704">
        <ele>251.03999999999999</ele>
        <time>2013-09-04T14:05:41Z</time>
      </trkpt>
      <trkpt lat="50.873243976384401" lon="14.321238035336137">
        <ele>248.63999999999999</ele>
        <time>2013-09-04T14:05:48Z</time>
      </trkpt>
      <trkpt lat="50.873263003304601" lon="14.321493012830615">
        <ele>248.16</ele>
        <time>2013-09-04T14:05:49Z</time>
      </trkpt>
      <trkpt lat="50.873300973325968" lon="14.321744972839952">
        <ele>248.16</ele>
        <time>2013-09-04T14:05:50Z</time>
      </trkpt>
      <trkpt lat="50.873364005237818" lon="14.322004979476333">
        <ele>247.19999999999999</ele>
        <time>2013-09-04T14:05:51Z</time>
      </trkpt>
      <trkpt lat="50.874076969921589" lon="14.324042033404112">
        <ele>246.72</ele>
        <time>2013-09-04T14:06:00Z</time>
      </trkpt>
      <trkpt lat="50.874226000159979" lon="14.32440496981144">
        <ele>246.22999999999999</ele>
        <time>2013-09-04T14:06:02Z</time>
      </trkpt>
      <trkpt lat="50.874290037900209" lon="14.324593981727958">
        <ele>246.22999999999999</ele>
        <time>2013-09-04T14:06:03Z</time>
      </trkpt>
      <trkpt lat="50.874333959072828" lon="14.324787016957998">
        <ele>245.75</ele>
        <time>2013-09-04T14:06:04Z</time>
      </trkpt>
      <trkpt lat="50.874347034841776" lon="14.324996983632445">
        <ele>245.75</ele>
        <time>2013-09-04T14:06:05Z</time>
      </trkpt>
      <trkpt lat="50.874327002093196" lon="14.325246009975672">
        <ele>247.68000000000001</ele>
        <time>2013-09-04T14:06:06Z</time>
      </trkpt>
      <trkpt lat="50.874305041506886" lon="14.325455976650119">
        <ele>247.68000000000001</ele>
        <time>2013-09-04T14:06:07Z</time>
      </trkpt>
      <trkpt lat="50.874256007373333" lon="14.325648006051779">
        <ele>247.68000000000001</ele>
        <time>2013-09-04T14:06:08Z</time>
      </trkpt>
      <trkpt lat="50.874187024310231" lon="14.325852021574974">
        <ele>247.68000000000001</ele>
        <time>2013-09-04T14:06:09Z</time>
      </trkpt>
      <trkpt lat="50.874092979356647" lon="14.326043967157602">
        <ele>247.19999999999999</ele>
        <time>2013-09-04T14:06:10Z</time>
      </trkpt>
      <trkpt lat="50.874003041535616" lon="14.326246976852417">
        <ele>247.68000000000001</ele>
        <time>2013-09-04T14:06:11Z</time>
      </trkpt>
      <trkpt lat="50.873171975836158" lon="14.328119996935129">
        <ele>249.12</ele>
        <time>2013-09-04T14:06:19Z</time>
      </trkpt>
      <trkpt lat="50.872841980308294" lon="14.328635986894369">
        <ele>250.56</ele>
        <time>2013-09-04T14:06:22Z</time>
      </trkpt>
      <trkpt lat="50.87268196977675" lon="14.328732965514064">
        <ele>251.03999999999999</ele>
        <time>2013-09-04T14:06:23Z</time>
      </trkpt>
      <trkpt lat="50.872524976730347" lon="14.328817036002874">
        <ele>251.52000000000001</ele>
        <time>2013-09-04T14:06:24Z</time>
      </trkpt>
      <trkpt lat="50.871807988733053" lon="14.329233029857278">
        <ele>255.84999999999999</ele>
        <time>2013-09-04T14:06:29Z</time>
      </trkpt>
      <trkpt lat="50.87171696126461" lon="14.329359009861946">
        <ele>256.32999999999998</ele>
        <time>2013-09-04T14:06:30Z</time>
      </trkpt>
      <trkpt lat="50.871619982644916" lon="14.329484989866614">
        <ele>256.81</ele>
        <time>2013-09-04T14:06:31Z</time>
      </trkpt>
      <trkpt lat="50.87154203094542" lon="14.329653969034553">
        <ele>257.76999999999998</ele>
        <time>2013-09-04T14:06:32Z</time>
      </trkpt>
      <trkpt lat="50.871442034840584" lon="14.329852033406496">
        <ele>257.29000000000002</ele>
        <time>2013-09-04T14:06:33Z</time>
      </trkpt>
      <trkpt lat="50.871375985443592" lon="14.330080021172762">
        <ele>258.25</ele>
        <time>2013-09-04T14:06:34Z</time>
      </trkpt>
      <trkpt lat="50.871308008208871" lon="14.330310020595789">
        <ele>257.76999999999998</ele>
        <time>2013-09-04T14:06:35Z</time>
      </trkpt>
      <trkpt lat="50.870852032676339" lon="14.331827983260155">
        <ele>256.32999999999998</ele>
        <time>2013-09-04T14:06:42Z</time>
      </trkpt>
      <trkpt lat="50.870761005207896" lon="14.331955974921584">
        <ele>257.29000000000002</ele>
        <time>2013-09-04T14:06:43Z</time>
      </trkpt>
      <trkpt lat="50.870658997446299" lon="14.332021018490195">
        <ele>257.76999999999998</ele>
        <time>2013-09-04T14:06:44Z</time>
      </trkpt>
      <trkpt lat="50.870553972199559" lon="14.332019006833434">
        <ele>258.25</ele>
        <time>2013-09-04T14:06:45Z</time>
      </trkpt>
      <trkpt lat="50.870479037985206" lon="14.331965027377009">
        <ele>257.29000000000002</ele>
        <time>2013-09-04T14:06:46Z</time>
      </trkpt>
      <trkpt lat="50.870407037436962" lon="14.331850027665496">
        <ele>256.81</ele>
        <time>2013-09-04T14:06:47Z</time>
      </trkpt>
      <trkpt lat="50.870359009131789" lon="14.331690017133951">
        <ele>256.81</ele>
        <time>2013-09-04T14:06:48Z</time>
      </trkpt>
      <trkpt lat="50.870304023846984" lon="14.331460017710924">
        <ele>257.76999999999998</ele>
        <time>2013-09-04T14:06:49Z</time>
      </trkpt>
      <trkpt lat="50.870260018855333" lon="14.331243010237813">
        <ele>257.76999999999998</ele>
        <time>2013-09-04T14:06:50Z</time>
      </trkpt>
      <trkpt lat="50.869964975863695" lon="14.32988204061985">
        <ele>254.88999999999999</ele>
        <time>2013-09-04T14:06:56Z</time>
      </trkpt>
      <trkpt lat="50.869869003072381" lon="14.329704008996487">
        <ele>254.88999999999999</ele>
        <time>2013-09-04T14:06:57Z</time>
      </trkpt>
      <trkpt lat="50.869763977825642" lon="14.329572999849916">
        <ele>253.44</ele>
        <time>2013-09-04T14:06:58Z</time>
      </trkpt>
      <trkpt lat="50.869664987549186" lon="14.32947400957346">
        <ele>252</ele>
        <time>2013-09-04T14:06:59Z</time>
      </trkpt>
      <trkpt lat="50.869551999494433" lon="14.329423969611526">
        <ele>250.56</ele>
        <time>2013-09-04T14:07:00Z</time>
      </trkpt>
      <trkpt lat="50.869441023096442" lon="14.329441990703344">
        <ele>249.59999999999999</ele>
        <time>2013-09-04T14:07:01Z</time>
      </trkpt>
      <trkpt lat="50.869329962879419" lon="14.329556990414858">
        <ele>248.16</ele>
        <time>2013-09-04T14:07:02Z</time>
      </trkpt>
      <trkpt lat="50.869232984259725" lon="14.329679030925035">
        <ele>246.22999999999999</ele>
        <time>2013-09-04T14:07:03Z</time>
      </trkpt>
      <trkpt lat="50.869171964004636" lon="14.329852033406496">
        <ele>246.22999999999999</ele>
        <time>2013-09-04T14:07:04Z</time>
      </trkpt>
      <trkpt lat="50.869140028953552" lon="14.330028975382447">
        <ele>244.78999999999999</ele>
        <time>2013-09-04T14:07:05Z</time>
      </trkpt>
      <trkpt lat="50.869143968448043" lon="14.330209018662572">
        <ele>243.83000000000001</ele>
        <time>2013-09-04T14:07:06Z</time>
      </trkpt>
      <trkpt lat="50.869162995368242" lon="14.330384032800794">
        <ele>242.87</ele>
        <time>2013-09-04T14:07:07Z</time>
      </trkpt>
      <trkpt lat="50.869174981489778" lon="14.330561980605125">
        <ele>241.91</ele>
        <time>2013-09-04T14:07:08Z</time>
      </trkpt>
      <trkpt lat="50.86915603838861" lon="14.33074101805687">
        <ele>241.43000000000001</ele>
        <time>2013-09-04T14:07:09Z</time>
      </trkpt>
      <trkpt lat="50.869108010083437" lon="14.330901028588414">
        <ele>239.99000000000001</ele>
        <time>2013-09-04T14:07:10Z</time>
      </trkpt>
      <trkpt lat="50.869028968736529" lon="14.331028014421463">
        <ele>238.06</ele>
        <time>2013-09-04T14:07:11Z</time>
      </trkpt>
      <trkpt lat="50.868925033137202" lon="14.331119041889906">
        <ele>237.09999999999999</ele>
        <time>2013-09-04T14:07:12Z</time>
      </trkpt>
      <trkpt lat="50.868795029819012" lon="14.331161035224795">
        <ele>235.66</ele>
        <time>2013-09-04T14:07:13Z</time>
      </trkpt>
      <trkpt lat="50.868682041764259" lon="14.331240998581052">
        <ele>234.69999999999999</ele>
        <time>2013-09-04T14:07:14Z</time>
      </trkpt>
      <trkpt lat="50.868565030395985" lon="14.331334037706256">
        <ele>233.25999999999999</ele>
        <time>2013-09-04T14:07:15Z</time>
      </trkpt>
      <trkpt lat="50.868456987664104" lon="14.331436967477202">
        <ele>231.81</ele>
        <time>2013-09-04T14:07:16Z</time>
      </trkpt>
      <trkpt lat="50.868253977969289" lon="14.331713989377022">
        <ele>228.93000000000001</ele>
        <time>2013-09-04T14:07:18Z</time>
      </trkpt>
      <trkpt lat="50.868165967985988" lon="14.331895038485527">
        <ele>227.97</ele>
        <time>2013-09-04T14:07:19Z</time>
      </trkpt>
      <trkpt lat="50.868084998801351" lon="14.332078015431762">
        <ele>226.53</ele>
        <time>2013-09-04T14:07:20Z</time>
      </trkpt>
      <trkpt lat="50.867833038792014" lon="14.332528039813042">
        <ele>223.63999999999999</ele>
        <time>2013-09-04T14:07:23Z</time>
      </trkpt>
      <trkpt lat="50.867747040465474" lon="14.332637004554272">
        <ele>223.16</ele>
        <time>2013-09-04T14:07:24Z</time>
      </trkpt>
      <trkpt lat="50.86763396859169" lon="14.332720991224051">
        <ele>223.16</ele>
        <time>2013-09-04T14:07:25Z</time>
      </trkpt>
      <trkpt lat="50.867505976930261" lon="14.332792991772294">
        <ele>222.68000000000001</ele>
        <time>2013-09-04T14:07:26Z</time>
      </trkpt>
      <trkpt lat="50.867370022460818" lon="14.332860969007015">
        <ele>222.19999999999999</ele>
        <time>2013-09-04T14:07:27Z</time>
      </trkpt>
      <trkpt lat="50.86698797531426" lon="14.33314997702837">
        <ele>221.24000000000001</ele>
        <time>2013-09-04T14:07:30Z</time>
      </trkpt>
      <trkpt lat="50.866872975602746" lon="14.33327604085207">
        <ele>220.75999999999999</ele>
        <time>2013-09-04T14:07:31Z</time>
      </trkpt>
      <trkpt lat="50.866769962012768" lon="14.333425993099809">
        <ele>220.28</ele>
        <time>2013-09-04T14:07:32Z</time>
      </trkpt>
      <trkpt lat="50.866516996175051" lon="14.333808962255716">
        <ele>219.31999999999999</ele>
        <time>2013-09-04T14:07:35Z</time>
      </trkpt>
      <trkpt lat="50.866451030597091" lon="14.333885991945863">
        <ele>218.84</ele>
        <time>2013-09-04T14:07:36Z</time>
      </trkpt>
      <trkpt lat="50.866382969543338" lon="14.333914993330836">
        <ele>218.36000000000001</ele>
        <time>2013-09-04T14:07:37Z</time>
      </trkpt>
      <trkpt lat="50.866297977045178" lon="14.333851039409637">
        <ele>219.31999999999999</ele>
        <time>2013-09-04T14:07:38Z</time>
      </trkpt>
      <trkpt lat="50.866226982325315" lon="14.333778033033013">
        <ele>218.84</ele>
        <time>2013-09-04T14:07:39Z</time>
      </trkpt>
      <trkpt lat="50.866136960685253" lon="14.3336630333215">
        <ele>218.84</ele>
        <time>2013-09-04T14:07:40Z</time>
      </trkpt>
      <trkpt lat="50.866058003157377" lon="14.333535963669419">
        <ele>218.84</ele>
        <time>2013-09-04T14:07:41Z</time>
      </trkpt>
      <trkpt lat="50.865975022315979" lon="14.333443008363247">
        <ele>218.36000000000001</ele>
        <time>2013-09-04T14:07:42Z</time>
      </trkpt>
      <trkpt lat="50.865879971534014" lon="14.333380982279778">
        <ele>218.84</ele>
        <time>2013-09-04T14:07:43Z</time>
      </trkpt>
      <trkpt lat="50.865791039541364" lon="14.333371007815003">
        <ele>218.36000000000001</ele>
        <time>2013-09-04T14:07:44Z</time>
      </trkpt>
      <trkpt lat="50.865717027336359" lon="14.333411995321512">
        <ele>217.88</ele>
        <time>2013-09-04T14:07:45Z</time>
      </trkpt>
      <trkpt lat="50.865652989596128" lon="14.333506040275097">
        <ele>217.40000000000001</ele>
        <time>2013-09-04T14:07:46Z</time>
      </trkpt>
      <trkpt lat="50.865595992654562" lon="14.333626991137862">
        <ele>217.40000000000001</ele>
        <time>2013-09-04T14:07:47Z</time>
      </trkpt>
      <trkpt lat="50.865537989884615" lon="14.33375297114253">
        <ele>217.40000000000001</ele>
        <time>2013-09-04T14:07:48Z</time>
      </trkpt>
      <trkpt lat="50.86550303734839" lon="14.333947012200952">
        <ele>217.40000000000001</ele>
        <time>2013-09-04T14:07:49Z</time>
      </trkpt>
      <trkpt lat="50.865461966022849" lon="14.33413996361196">
        <ele>217.40000000000001</ele>
        <time>2013-09-04T14:07:50Z</time>
      </trkpt>
      <trkpt lat="50.865125013515353" lon="14.335143025964499">
        <ele>215.94999999999999</ele>
        <time>2013-09-04T14:07:55Z</time>
      </trkpt>
      <trkpt lat="50.863971998915076" lon="14.337044041603804">
        <ele>214.50999999999999</ele>
        <time>2013-09-04T14:08:05Z</time>
      </trkpt>
      <trkpt lat="50.863539995625615" lon="14.337656004354358">
        <ele>216.43000000000001</ele>
        <time>2013-09-04T14:08:09Z</time>
      </trkpt>
      <trkpt lat="50.863467995077372" lon="14.337829006835818">
        <ele>216.91</ele>
        <time>2013-09-04T14:08:10Z</time>
      </trkpt>
      <trkpt lat="50.863409992307425" lon="14.338005026802421">
        <ele>216.91</ele>
        <time>2013-09-04T14:08:11Z</time>
      </trkpt>
      <trkpt lat="50.863373028114438" lon="14.338192027062178">
        <ele>217.88</ele>
        <time>2013-09-04T14:08:12Z</time>
      </trkpt>
      <trkpt lat="50.863360036164522" lon="14.338384978473186">
        <ele>217.40000000000001</ele>
        <time>2013-09-04T14:08:13Z</time>
      </trkpt>
      <trkpt lat="50.86335701867938" lon="14.338576002046466">
        <ele>217.40000000000001</ele>
        <time>2013-09-04T14:08:14Z</time>
      </trkpt>
      <trkpt lat="50.863364981487393" lon="14.338751016184688">
        <ele>217.40000000000001</ele>
        <time>2013-09-04T14:08:15Z</time>
      </trkpt>
      <trkpt lat="50.863389037549496" lon="14.338915972039104">
        <ele>217.40000000000001</ele>
        <time>2013-09-04T14:08:16Z</time>
      </trkpt>
      <trkpt lat="50.863470006734133" lon="14.339065002277493">
        <ele>216.43000000000001</ele>
        <time>2013-09-04T14:08:17Z</time>
      </trkpt>
      <trkpt lat="50.863547036424279" lon="14.33918503113091">
        <ele>216.43000000000001</ele>
        <time>2013-09-04T14:08:18Z</time>
      </trkpt>
      <trkpt lat="50.863626999780536" lon="14.339291984215379">
        <ele>216.43000000000001</ele>
        <time>2013-09-04T14:08:19Z</time>
      </trkpt>
      <trkpt lat="50.863728001713753" lon="14.339415030553937">
        <ele>216.43000000000001</ele>
        <time>2013-09-04T14:08:20Z</time>
      </trkpt>
      <trkpt lat="50.86425899527967" lon="14.34023997746408">
        <ele>216.91</ele>
        <time>2013-09-04T14:08:25Z</time>
      </trkpt>
      <trkpt lat="50.864383969455957" lon="14.340625964105129">
        <ele>216.43000000000001</ele>
        <time>2013-09-04T14:08:27Z</time>
      </trkpt>
      <trkpt lat="50.864428980275989" lon="14.34082000516355">
        <ele>216.43000000000001</ele>
        <time>2013-09-04T14:08:28Z</time>
      </trkpt>
      <trkpt lat="50.864503998309374" lon="14.34122996404767">
        <ele>216.91</ele>
        <time>2013-09-04T14:08:30Z</time>
      </trkpt>
      <trkpt lat="50.864586979150772" lon="14.342223973944783">
        <ele>216.43000000000001</ele>
        <time>2013-09-04T14:08:34Z</time>
      </trkpt>
      <trkpt lat="50.864575998857617" lon="14.342480963096023">
        <ele>216.43000000000001</ele>
        <time>2013-09-04T14:08:35Z</time>
      </trkpt>
      <trkpt lat="50.864549009129405" lon="14.34273099526763">
        <ele>216.43000000000001</ele>
        <time>2013-09-04T14:08:36Z</time>
      </trkpt>
      <trkpt lat="50.864121029153466" lon="14.345276998355985">
        <ele>220.75999999999999</ele>
        <time>2013-09-04T14:08:45Z</time>
      </trkpt>
      <trkpt lat="50.863671004772186" lon="14.347956022247672">
        <ele>225.09</ele>
        <time>2013-09-04T14:08:54Z</time>
      </trkpt>
      <trkpt lat="50.863245036453009" lon="14.350700005888939">
        <ele>239.02000000000001</ele>
        <time>2013-09-04T14:09:03Z</time>
      </trkpt>
      <trkpt lat="50.862574987113476" lon="14.352946020662785">
        <ele>246.22999999999999</ele>
        <time>2013-09-04T14:09:11Z</time>
      </trkpt>
      <trkpt lat="50.862150024622679" lon="14.354348983615637">
        <ele>252.96000000000001</ele>
        <time>2013-09-04T14:09:18Z</time>
      </trkpt>
      <trkpt lat="50.862007029354572" lon="14.354752991348505">
        <ele>255.37</ele>
        <time>2013-09-04T14:09:21Z</time>
      </trkpt>
      <trkpt lat="50.861947014927864" lon="14.354862039908767">
        <ele>255.84999999999999</ele>
        <time>2013-09-04T14:09:22Z</time>
      </trkpt>
      <trkpt lat="50.861873002722859" lon="14.354937979951501">
        <ele>257.29000000000002</ele>
        <time>2013-09-04T14:09:23Z</time>
      </trkpt>
      <trkpt lat="50.861768983304501" lon="14.354963963851333">
        <ele>257.76999999999998</ele>
        <time>2013-09-04T14:09:24Z</time>
      </trkpt>
      <trkpt lat="50.861663036048412" lon="14.3549760337919">
        <ele>258.25</ele>
        <time>2013-09-04T14:09:25Z</time>
      </trkpt>
      <trkpt lat="50.861300015822053" lon="14.355031019076705">
        <ele>260.17000000000002</ele>
        <time>2013-09-04T14:09:28Z</time>
      </trkpt>
      <trkpt lat="50.860395021736622" lon="14.355156999081373">
        <ele>268.82999999999998</ele>
        <time>2013-09-04T14:09:35Z</time>
      </trkpt>
      <trkpt lat="50.860295025631785" lon="14.355071000754833">
        <ele>269.31</ele>
        <time>2013-09-04T14:09:36Z</time>
      </trkpt>
      <trkpt lat="50.860200980678201" lon="14.354916019365191">
        <ele>270.26999999999998</ele>
        <time>2013-09-04T14:09:37Z</time>
      </trkpt>
      <trkpt lat="50.859259022399783" lon="14.353280961513519">
        <ele>285.17000000000002</ele>
        <time>2013-09-04T14:09:47Z</time>
      </trkpt>
      <trkpt lat="50.85895299911499" lon="14.352891035377979">
        <ele>287.56999999999999</ele>
        <time>2013-09-04T14:09:50Z</time>
      </trkpt>
      <trkpt lat="50.858834981918335" lon="14.352780980989337">
        <ele>288.52999999999997</ele>
        <time>2013-09-04T14:09:51Z</time>
      </trkpt>
      <trkpt lat="50.857896041125059" lon="14.35192602686584">
        <ele>295.74000000000001</ele>
        <time>2013-09-04T14:09:58Z</time>
      </trkpt>
      <trkpt lat="50.85671603679657" lon="14.351122034713626">
        <ele>300.06999999999999</ele>
        <time>2013-09-04T14:10:06Z</time>
      </trkpt>
      <trkpt lat="50.856571029871702" lon="14.350977027788758">
        <ele>300.06999999999999</ele>
        <time>2013-09-04T14:10:07Z</time>
      </trkpt>
      <trkpt lat="50.856443960219622" lon="14.350802013650537">
        <ele>300.55000000000001</ele>
        <time>2013-09-04T14:10:08Z</time>
      </trkpt>
      <trkpt lat="50.856328960508108" lon="14.350607972592115">
        <ele>301.02999999999997</ele>
        <time>2013-09-04T14:10:09Z</time>
      </trkpt>
      <trkpt lat="50.856216978281736" lon="14.350413009524345">
        <ele>301.99000000000001</ele>
        <time>2013-09-04T14:10:10Z</time>
      </trkpt>
      <trkpt lat="50.856000976637006" lon="14.350098017603159">
        <ele>303.91000000000003</ele>
        <time>2013-09-04T14:10:12Z</time>
      </trkpt>
      <trkpt lat="50.855905003845692" lon="14.350030040368438">
        <ele>304.88</ele>
        <time>2013-09-04T14:10:13Z</time>
      </trkpt>
      <trkpt lat="50.855823028832674" lon="14.350033979862928">
        <ele>306.31999999999999</ele>
        <time>2013-09-04T14:10:14Z</time>
      </trkpt>
      <trkpt lat="50.855747004970908" lon="14.350105980411172">
        <ele>308.24000000000001</ele>
        <time>2013-09-04T14:10:15Z</time>
      </trkpt>
      <trkpt lat="50.855690008029342" lon="14.350205976516008">
        <ele>309.68000000000001</ele>
        <time>2013-09-04T14:10:16Z</time>
      </trkpt>
      <trkpt lat="50.855646003037691" lon="14.350324999541044">
        <ele>309.68000000000001</ele>
        <time>2013-09-04T14:10:17Z</time>
      </trkpt>
      <trkpt lat="50.855613984167576" lon="14.350458020344377">
        <ele>310.16000000000003</ele>
        <time>2013-09-04T14:10:18Z</time>
      </trkpt>
      <trkpt lat="50.855608033016324" lon="14.350617025047541">
        <ele>309.68000000000001</ele>
        <time>2013-09-04T14:10:19Z</time>
      </trkpt>
      <trkpt lat="50.855622030794621" lon="14.350794972851872">
        <ele>310.16000000000003</ele>
        <time>2013-09-04T14:10:20Z</time>
      </trkpt>
      <trkpt lat="50.855655977502465" lon="14.350984990596771">
        <ele>309.68000000000001</ele>
        <time>2013-09-04T14:10:21Z</time>
      </trkpt>
      <trkpt lat="50.855701994150877" lon="14.351177019998431">
        <ele>310.16000000000003</ele>
        <time>2013-09-04T14:10:22Z</time>
      </trkpt>
      <trkpt lat="50.855751028284431" lon="14.351376006379724">
        <ele>307.27999999999997</ele>
        <time>2013-09-04T14:10:23Z</time>
      </trkpt>
      <trkpt lat="50.856338012963533" lon="14.353650016710162">
        <ele>294.30000000000001</ele>
        <time>2013-09-04T14:10:32Z</time>
      </trkpt>
      <trkpt lat="50.856908988207579" lon="14.355808021500707">
        <ele>289.97000000000003</ele>
        <time>2013-09-04T14:10:41Z</time>
      </trkpt>
      <trkpt lat="50.856938995420933" lon="14.356024023145437">
        <ele>290.45999999999998</ele>
        <time>2013-09-04T14:10:42Z</time>
      </trkpt>
      <trkpt lat="50.856924997642636" lon="14.356237007305026">
        <ele>289.97000000000003</ele>
        <time>2013-09-04T14:10:43Z</time>
      </trkpt>
      <trkpt lat="50.856875041499734" lon="14.356448985636234">
        <ele>289.49000000000001</ele>
        <time>2013-09-04T14:10:44Z</time>
      </trkpt>
      <trkpt lat="50.856800023466349" lon="14.35667596757412">
        <ele>289.00999999999999</ele>
        <time>2013-09-04T14:10:45Z</time>
      </trkpt>
      <trkpt lat="50.856711007654667" lon="14.356906972825527">
        <ele>288.52999999999997</ele>
        <time>2013-09-04T14:10:46Z</time>
      </trkpt>
      <trkpt lat="50.855857981368899" lon="14.359556995332241">
        <ele>283.73000000000002</ele>
        <time>2013-09-04T14:10:56Z</time>
      </trkpt>
      <trkpt lat="50.855617001652718" lon="14.360561985522509">
        <ele>282.27999999999997</ele>
        <time>2013-09-04T14:11:00Z</time>
      </trkpt>
      <trkpt lat="50.855595041066408" lon="14.360825009644032">
        <ele>281.80000000000001</ele>
        <time>2013-09-04T14:11:01Z</time>
      </trkpt>
      <trkpt lat="50.855594035238028" lon="14.361097002401948">
        <ele>281.80000000000001</ele>
        <time>2013-09-04T14:11:02Z</time>
      </trkpt>
      <trkpt lat="50.855773994699121" lon="14.364218004047871">
        <ele>278.44</ele>
        <time>2013-09-04T14:11:12Z</time>
      </trkpt>
      <trkpt lat="50.855654971674085" lon="14.368020035326481">
        <ele>269.31</ele>
        <time>2013-09-04T14:11:24Z</time>
      </trkpt>
      <trkpt lat="50.855583976954222" lon="14.368928968906403">
        <ele>265.45999999999998</ele>
        <time>2013-09-04T14:11:28Z</time>
      </trkpt>
      <trkpt lat="50.855528991669416" lon="14.369090991094708">
        <ele>264.5</ele>
        <time>2013-09-04T14:11:29Z</time>
      </trkpt>
      <trkpt lat="50.855455985292792" lon="14.369233986362815">
        <ele>263.54000000000002</ele>
        <time>2013-09-04T14:11:30Z</time>
      </trkpt>
      <trkpt lat="50.855367975309491" lon="14.369345968589187">
        <ele>262.10000000000002</ele>
        <time>2013-09-04T14:11:31Z</time>
      </trkpt>
      <trkpt lat="50.855282982811332" lon="14.369454011321068">
        <ele>260.64999999999998</ele>
        <time>2013-09-04T14:11:32Z</time>
      </trkpt>
      <trkpt lat="50.855122972279787" lon="14.369617961347103">
        <ele>257.76999999999998</ele>
        <time>2013-09-04T14:11:34Z</time>
      </trkpt>
      <trkpt lat="50.855076033622026" lon="14.369717035442591">
        <ele>256.32999999999998</ele>
        <time>2013-09-04T14:11:35Z</time>
      </trkpt>
      <trkpt lat="50.855069998651743" lon="14.369853995740414">
        <ele>256.81</ele>
        <time>2013-09-04T14:11:36Z</time>
      </trkpt>
      <trkpt lat="50.855097994208336" lon="14.369977964088321">
        <ele>255.84999999999999</ele>
        <time>2013-09-04T14:11:37Z</time>
      </trkpt>
      <trkpt lat="50.855158008635044" lon="14.370126994326711">
        <ele>255.84999999999999</ele>
        <time>2013-09-04T14:11:38Z</time>
      </trkpt>
      <trkpt lat="50.855235960334539" lon="14.370260015130043">
        <ele>255.84999999999999</ele>
        <time>2013-09-04T14:11:39Z</time>
      </trkpt>
      <trkpt lat="50.855312990024686" lon="14.370405022054911">
        <ele>255.37</ele>
        <time>2013-09-04T14:11:40Z</time>
      </trkpt>
      <trkpt lat="50.855384990572929" lon="14.370581964030862">
        <ele>254.41</ele>
        <time>2013-09-04T14:11:41Z</time>
      </trkpt>
      <trkpt lat="50.855432013049722" lon="14.370779022574425">
        <ele>253.44</ele>
        <time>2013-09-04T14:11:42Z</time>
      </trkpt>
      <trkpt lat="50.855445004999638" lon="14.370988989248872">
        <ele>252</ele>
        <time>2013-09-04T14:11:43Z</time>
      </trkpt>
      <trkpt lat="50.855491021648049" lon="14.371213959529996">
        <ele>251.52000000000001</ele>
        <time>2013-09-04T14:11:44Z</time>
      </trkpt>
      <trkpt lat="50.855597974732518" lon="14.37188602052629">
        <ele>248.63999999999999</ele>
        <time>2013-09-04T14:11:47Z</time>
      </trkpt>
      <trkpt lat="50.855657989159226" lon="14.372091963887215">
        <ele>248.16</ele>
        <time>2013-09-04T14:11:48Z</time>
      </trkpt>
      <trkpt lat="50.855739964172244" lon="14.372290028259158">
        <ele>247.68000000000001</ele>
        <time>2013-09-04T14:11:49Z</time>
      </trkpt>
      <trkpt lat="50.855897041037679" lon="14.372677020728588">
        <ele>247.68000000000001</ele>
        <time>2013-09-04T14:11:51Z</time>
      </trkpt>
      <trkpt lat="50.855962000787258" lon="14.372881036251783">
        <ele>247.68000000000001</ele>
        <time>2013-09-04T14:11:52Z</time>
      </trkpt>
      <trkpt lat="50.856015980243683" lon="14.373072981834412">
        <ele>247.68000000000001</ele>
        <time>2013-09-04T14:11:53Z</time>
      </trkpt>
      <trkpt lat="50.856042969971895" lon="14.373254030942917">
        <ele>247.68000000000001</ele>
        <time>2013-09-04T14:11:54Z</time>
      </trkpt>
      <trkpt lat="50.856040036305785" lon="14.373423010110855">
        <ele>248.16</ele>
        <time>2013-09-04T14:11:55Z</time>
      </trkpt>
      <trkpt lat="50.856012040749192" lon="14.37360598705709">
        <ele>248.63999999999999</ele>
        <time>2013-09-04T14:11:56Z</time>
      </trkpt>
      <trkpt lat="50.855952026322484" lon="14.37379902228713">
        <ele>248.63999999999999</ele>
        <time>2013-09-04T14:11:57Z</time>
      </trkpt>
      <trkpt lat="50.855876002460718" lon="14.374004965648055">
        <ele>249.12</ele>
        <time>2013-09-04T14:11:58Z</time>
      </trkpt>
      <trkpt lat="50.855814982205629" lon="14.374206969514489">
        <ele>249.12</ele>
        <time>2013-09-04T14:11:59Z</time>
      </trkpt>
      <trkpt lat="50.855737030506134" lon="14.374598991125822">
        <ele>249.59999999999999</ele>
        <time>2013-09-04T14:12:01Z</time>
      </trkpt>
      <trkpt lat="50.855735018849373" lon="14.374780962243676">
        <ele>249.59999999999999</ele>
        <time>2013-09-04T14:12:02Z</time>
      </trkpt>
      <trkpt lat="50.855751028284431" lon="14.374992018565536">
        <ele>251.03999999999999</ele>
        <time>2013-09-04T14:12:03Z</time>
      </trkpt>
      <trkpt lat="50.855804001912475" lon="14.375177007168531">
        <ele>252</ele>
        <time>2013-09-04T14:12:04Z</time>
      </trkpt>
      <trkpt lat="50.855863010510802" lon="14.375383034348488">
        <ele>252.96000000000001</ele>
        <time>2013-09-04T14:12:05Z</time>
      </trkpt>
      <trkpt lat="50.856200968846679" lon="14.3764409981668">
        <ele>256.81</ele>
        <time>2013-09-04T14:12:11Z</time>
      </trkpt>
      <trkpt lat="50.856227036565542" lon="14.376576030626893">
        <ele>256.32999999999998</ele>
        <time>2013-09-04T14:12:12Z</time>
      </trkpt>
      <trkpt lat="50.856214966624975" lon="14.376683989539742">
        <ele>256.32999999999998</ele>
        <time>2013-09-04T14:12:13Z</time>
      </trkpt>
      <trkpt lat="50.856172973290086" lon="14.376768982037902">
        <ele>256.81</ele>
        <time>2013-09-04T14:12:14Z</time>
      </trkpt>
      <trkpt lat="50.85611798800528" lon="14.376825978979468">
        <ele>257.29000000000002</ele>
        <time>2013-09-04T14:12:15Z</time>
      </trkpt>
      <trkpt lat="50.856056967750192" lon="14.376852968707681">
        <ele>257.29000000000002</ele>
        <time>2013-09-04T14:12:16Z</time>
      </trkpt>
      <trkpt lat="50.856010029092431" lon="14.376853974536061">
        <ele>257.76999999999998</ele>
        <time>2013-09-04T14:12:17Z</time>
      </trkpt>
      <trkpt lat="50.855969963595271" lon="14.37682899646461">
        <ele>258.25</ele>
        <time>2013-09-04T14:12:18Z</time>
      </trkpt>
      <trkpt lat="50.855928976088762" lon="14.376795971766114">
        <ele>258.25</ele>
        <time>2013-09-04T14:12:19Z</time>
      </trkpt>
      <trkpt lat="50.855878014117479" lon="14.376734029501677">
        <ele>258.73000000000002</ele>
        <time>2013-09-04T14:12:20Z</time>
      </trkpt>
      <trkpt lat="50.855778018012643" lon="14.376621041446924">
        <ele>259.69</ele>
        <time>2013-09-04T14:12:21Z</time>
      </trkpt>
      <trkpt lat="50.855061030015349" lon="14.375609010457993">
        <ele>258.25</ele>
        <time>2013-09-04T14:12:28Z</time>
      </trkpt>
      <trkpt lat="50.854950975626707" lon="14.375476995483041">
        <ele>258.25</ele>
        <time>2013-09-04T14:12:29Z</time>
      </trkpt>
      <trkpt lat="50.854835975915194" lon="14.375363001599908">
        <ele>257.76999999999998</ele>
        <time>2013-09-04T14:12:30Z</time>
      </trkpt>
      <trkpt lat="50.854715025052428" lon="14.375285971909761">
        <ele>257.76999999999998</ele>
        <time>2013-09-04T14:12:31Z</time>
      </trkpt>
      <trkpt lat="50.854588961228728" lon="14.375179018825293">
        <ele>257.29000000000002</ele>
        <time>2013-09-04T14:12:32Z</time>
      </trkpt>
      <trkpt lat="50.85446298122406" lon="14.375168038532138">
        <ele>256.81</ele>
        <time>2013-09-04T14:12:33Z</time>
      </trkpt>
      <trkpt lat="50.854341024532914" lon="14.375193016603589">
        <ele>257.76999999999998</ele>
        <time>2013-09-04T14:12:34Z</time>
      </trkpt>
      <trkpt lat="50.854201968759298" lon="14.375240039080381">
        <ele>256.81</ele>
        <time>2013-09-04T14:12:35Z</time>
      </trkpt>
      <trkpt lat="50.854082023724914" lon="14.37532695941627">
        <ele>256.32999999999998</ele>
        <time>2013-09-04T14:12:36Z</time>
      </trkpt>
      <trkpt lat="50.853975992649794" lon="14.375460986047983">
        <ele>255.84999999999999</ele>
        <time>2013-09-04T14:12:37Z</time>
      </trkpt>
      <trkpt lat="50.853872979059815" lon="14.375605992972851">
        <ele>255.84999999999999</ele>
        <time>2013-09-04T14:12:38Z</time>
      </trkpt>
      <trkpt lat="50.853759991005063" lon="14.375758962705731">
        <ele>254.88999999999999</ele>
        <time>2013-09-04T14:12:39Z</time>
      </trkpt>
      <trkpt lat="50.853649014607072" lon="14.375924002379179">
        <ele>253.93000000000001</ele>
        <time>2013-09-04T14:12:40Z</time>
      </trkpt>
      <trkpt lat="50.853489004075527" lon="14.375898018479347">
        <ele>250.08000000000001</ele>
        <time>2013-09-04T14:12:41Z</time>
      </trkpt>
      <trkpt lat="50.853378027677536" lon="14.376060962677002">
        <ele>250.08000000000001</ele>
        <time>2013-09-04T14:12:42Z</time>
      </trkpt>
      <trkpt lat="50.853179963305593" lon="14.376280987635255">
        <ele>249.12</ele>
        <time>2013-09-04T14:12:44Z</time>
      </trkpt>
      <trkpt lat="50.853107962757349" lon="14.376438986510038">
        <ele>248.63999999999999</ele>
        <time>2013-09-04T14:12:45Z</time>
      </trkpt>
      <trkpt lat="50.853062029927969" lon="14.376631015911698">
        <ele>247.68000000000001</ele>
        <time>2013-09-04T14:12:46Z</time>
      </trkpt>
      <trkpt lat="50.853019030764699" lon="14.376767976209521">
        <ele>247.19999999999999</ele>
        <time>2013-09-04T14:12:47Z</time>
      </trkpt>
      <trkpt lat="50.853004027158022" lon="14.376927986741066">
        <ele>246.72</ele>
        <time>2013-09-04T14:12:48Z</time>
      </trkpt>
      <trkpt lat="50.853006960824132" lon="14.377069976180792">
        <ele>246.72</ele>
        <time>2013-09-04T14:12:49Z</time>
      </trkpt>
      <trkpt lat="50.853049959987402" lon="14.377238033339381">
        <ele>247.19999999999999</ele>
        <time>2013-09-04T14:12:50Z</time>
      </trkpt>
      <trkpt lat="50.853156996890903" lon="14.377925014123321">
        <ele>246.22999999999999</ele>
        <time>2013-09-04T14:12:54Z</time>
      </trkpt>
      <trkpt lat="50.853158002719283" lon="14.378089969977736">
        <ele>245.75</ele>
        <time>2013-09-04T14:12:55Z</time>
      </trkpt>
      <trkpt lat="50.85312900133431" lon="14.378317035734653">
        <ele>244.31</ele>
        <time>2013-09-04T14:12:56Z</time>
      </trkpt>
      <trkpt lat="50.852731028571725" lon="14.37994597479701">
        <ele>241.91</ele>
        <time>2013-09-04T14:13:05Z</time>
      </trkpt>
      <trkpt lat="50.852704960852861" lon="14.380130041390657">
        <ele>241.91</ele>
        <time>2013-09-04T14:13:06Z</time>
      </trkpt>
      <trkpt lat="50.852707978338003" lon="14.380335984751582">
        <ele>241.91</ele>
        <time>2013-09-04T14:13:07Z</time>
      </trkpt>
      <trkpt lat="50.852719964459538" lon="14.380529019981623">
        <ele>241.43000000000001</ele>
        <time>2013-09-04T14:13:08Z</time>
      </trkpt>
      <trkpt lat="50.852753994986415" lon="14.380728006362915">
        <ele>237.58000000000001</ele>
        <time>2013-09-04T14:13:09Z</time>
      </trkpt>
      <trkpt lat="50.852804034948349" lon="14.380929004400969">
        <ele>234.22</ele>
        <time>2013-09-04T14:13:10Z</time>
      </trkpt>
      <trkpt lat="50.852859020233154" lon="14.381135031580925">
        <ele>229.88999999999999</ele>
        <time>2013-09-04T14:13:11Z</time>
      </trkpt>
      <trkpt lat="50.853150961920619" lon="14.383146017789841">
        <ele>225.09</ele>
        <time>2013-09-04T14:13:21Z</time>
      </trkpt>
      <trkpt lat="50.85323603823781" lon="14.384166011586785">
        <ele>218.84</ele>
        <time>2013-09-04T14:13:26Z</time>
      </trkpt>
      <trkpt lat="50.8532780315727" lon="14.384368015453219">
        <ele>218.36000000000001</ele>
        <time>2013-09-04T14:13:27Z</time>
      </trkpt>
      <trkpt lat="50.853356989100575" lon="14.384763976559043">
        <ele>217.88</ele>
        <time>2013-09-04T14:13:29Z</time>
      </trkpt>
      <trkpt lat="50.853385990485549" lon="14.384985007345676">
        <ele>218.36000000000001</ele>
        <time>2013-09-04T14:13:30Z</time>
      </trkpt>
      <trkpt lat="50.853394959121943" lon="14.385198997333646">
        <ele>218.36000000000001</ele>
        <time>2013-09-04T14:13:31Z</time>
      </trkpt>
      <trkpt lat="50.853492021560669" lon="14.387124991044402">
        <ele>219.31999999999999</ele>
        <time>2013-09-04T14:13:41Z</time>
      </trkpt>
      <trkpt lat="50.853471988812089" lon="14.38746596686542">
        <ele>219.31999999999999</ele>
        <time>2013-09-04T14:13:43Z</time>
      </trkpt>
      <trkpt lat="50.853448016569018" lon="14.387640981003642">
        <ele>218.84</ele>
        <time>2013-09-04T14:13:44Z</time>
      </trkpt>
      <trkpt lat="50.853222040459514" lon="14.388727024197578">
        <ele>216.43000000000001</ele>
        <time>2013-09-04T14:13:50Z</time>
      </trkpt>
      <trkpt lat="50.853179041296244" lon="14.388898015022278">
        <ele>216.43000000000001</ele>
        <time>2013-09-04T14:13:51Z</time>
      </trkpt>
      <trkpt lat="50.853030011057854" lon="14.389380980283022">
        <ele>215.94999999999999</ele>
        <time>2013-09-04T14:13:54Z</time>
      </trkpt>
      <trkpt lat="50.852906964719296" lon="14.389856988564134">
        <ele>214.99000000000001</ele>
        <time>2013-09-04T14:13:57Z</time>
      </trkpt>
      <trkpt lat="50.852899001911283" lon="14.390025967732072">
        <ele>214.99000000000001</ele>
        <time>2013-09-04T14:13:58Z</time>
      </trkpt>
      <trkpt lat="50.852904031053185" lon="14.390206011012197">
        <ele>214.99000000000001</ele>
        <time>2013-09-04T14:13:59Z</time>
      </trkpt>
      <trkpt lat="50.852926997467875" lon="14.390772040933371">
        <ele>215.94999999999999</ele>
        <time>2013-09-04T14:14:02Z</time>
      </trkpt>
      <trkpt lat="50.852860026061535" lon="14.391726991161704">
        <ele>217.40000000000001</ele>
        <time>2013-09-04T14:14:07Z</time>
      </trkpt>
      <trkpt lat="50.852816021069884" lon="14.391891025006771">
        <ele>217.88</ele>
        <time>2013-09-04T14:14:08Z</time>
      </trkpt>
      <trkpt lat="50.852756006643176" lon="14.392041983082891">
        <ele>218.36000000000001</ele>
        <time>2013-09-04T14:14:09Z</time>
      </trkpt>
      <trkpt lat="50.852681994438171" lon="14.392170980572701">
        <ele>218.84</ele>
        <time>2013-09-04T14:14:10Z</time>
      </trkpt>
      <trkpt lat="50.852609993889928" lon="14.392307018861175">
        <ele>219.31999999999999</ele>
        <time>2013-09-04T14:14:11Z</time>
      </trkpt>
      <trkpt lat="50.852535981684923" lon="14.392458982765675">
        <ele>218.84</ele>
        <time>2013-09-04T14:14:12Z</time>
      </trkpt>
      <trkpt lat="50.852469010278583" lon="14.392623016610742">
        <ele>219.31999999999999</ele>
        <time>2013-09-04T14:14:13Z</time>
      </trkpt>
      <trkpt lat="50.85233498364687" lon="14.393128026276827">
        <ele>219.31999999999999</ele>
        <time>2013-09-04T14:14:16Z</time>
      </trkpt>
      <trkpt lat="50.852297013625503" lon="14.393502026796341">
        <ele>220.75999999999999</ele>
        <time>2013-09-04T14:14:18Z</time>
      </trkpt>
      <trkpt lat="50.852172039449215" lon="14.395514018833637">
        <ele>225.09</ele>
        <time>2013-09-04T14:14:29Z</time>
      </trkpt>
      <trkpt lat="50.852203974500299" lon="14.395824987441301">
        <ele>224.61000000000001</ele>
        <time>2013-09-04T14:14:33Z</time>
      </trkpt>
      <trkpt lat="50.852232975885272" lon="14.395930012688041">
        <ele>224.12</ele>
        <time>2013-09-04T14:14:34Z</time>
      </trkpt>
      <trkpt lat="50.85226901806891" lon="14.396044006571174">
        <ele>224.12</ele>
        <time>2013-09-04T14:14:35Z</time>
      </trkpt>
      <trkpt lat="50.85231201723218" lon="14.396312981843948">
        <ele>223.63999999999999</ele>
        <time>2013-09-04T14:14:37Z</time>
      </trkpt>
      <trkpt lat="50.852316040545702" lon="14.39646796323359">
        <ele>223.63999999999999</ele>
        <time>2013-09-04T14:14:38Z</time>
      </trkpt>
      <trkpt lat="50.852310005575418" lon="14.397560963407159">
        <ele>226.05000000000001</ele>
        <time>2013-09-04T14:14:44Z</time>
      </trkpt>
      <trkpt lat="50.852465992793441" lon="14.399322001263499">
        <ele>235.66</ele>
        <time>2013-09-04T14:14:53Z</time>
      </trkpt>
      <trkpt lat="50.852458029985428" lon="14.399490980431437">
        <ele>236.62</ele>
        <time>2013-09-04T14:14:54Z</time>
      </trkpt>
      <trkpt lat="50.852428022772074" lon="14.399663982912898">
        <ele>236.13999999999999</ele>
        <time>2013-09-04T14:14:55Z</time>
      </trkpt>
      <trkpt lat="50.852374965324998" lon="14.399830028414726">
        <ele>237.09999999999999</ele>
        <time>2013-09-04T14:14:56Z</time>
      </trkpt>
      <trkpt lat="50.852303970605135" lon="14.39998903311789">
        <ele>237.58000000000001</ele>
        <time>2013-09-04T14:14:57Z</time>
      </trkpt>
      <trkpt lat="50.852223001420498" lon="14.400134040042758">
        <ele>238.06</ele>
        <time>2013-09-04T14:14:58Z</time>
      </trkpt>
      <trkpt lat="50.852128034457564" lon="14.400245016440749">
        <ele>238.53999999999999</ele>
        <time>2013-09-04T14:14:59Z</time>
      </trkpt>
      <trkpt lat="50.852024015039206" lon="14.400351969525218">
        <ele>239.02000000000001</ele>
        <time>2013-09-04T14:15:00Z</time>
      </trkpt>
      <trkpt lat="50.851915972307324" lon="14.400450959801674">
        <ele>238.53999999999999</ele>
        <time>2013-09-04T14:15:01Z</time>
      </trkpt>
      <trkpt lat="50.851639034226537" lon="14.400743991136551">
        <ele>238.53999999999999</ele>
        <time>2013-09-04T14:15:04Z</time>
      </trkpt>
      <trkpt lat="50.851569967344403" lon="14.400883968919516">
        <ele>239.02000000000001</ele>
        <time>2013-09-04T14:15:05Z</time>
      </trkpt>
      <trkpt lat="50.851514982059598" lon="14.401051020249724">
        <ele>239.50999999999999</ele>
        <time>2013-09-04T14:15:06Z</time>
      </trkpt>
      <trkpt lat="50.851469971239567" lon="14.401224022731185">
        <ele>239.50999999999999</ele>
        <time>2013-09-04T14:15:07Z</time>
      </trkpt>
      <trkpt lat="50.851423032581806" lon="14.401402976363897">
        <ele>239.50999999999999</ele>
        <time>2013-09-04T14:15:08Z</time>
      </trkpt>
      <trkpt lat="50.85139000788331" lon="14.401593999937177">
        <ele>239.02000000000001</ele>
        <time>2013-09-04T14:15:09Z</time>
      </trkpt>
      <trkpt lat="50.851358994841576" lon="14.40179399214685">
        <ele>239.50999999999999</ele>
        <time>2013-09-04T14:15:10Z</time>
      </trkpt>
      <trkpt lat="50.851337034255266" lon="14.402000019326806">
        <ele>239.99000000000001</ele>
        <time>2013-09-04T14:15:11Z</time>
      </trkpt>
      <trkpt lat="50.851330999284983" lon="14.402916999533772">
        <ele>242.38999999999999</ele>
        <time>2013-09-04T14:15:15Z</time>
      </trkpt>
      <trkpt lat="50.851352959871292" lon="14.403158985078335">
        <ele>242.38999999999999</ele>
        <time>2013-09-04T14:15:16Z</time>
      </trkpt>
      <trkpt lat="50.85145597346127" lon="14.404676025733352">
        <ele>246.22999999999999</ele>
        <time>2013-09-04T14:15:22Z</time>
      </trkpt>
      <trkpt lat="50.851458990946412" lon="14.405858963727951">
        <ele>251.52000000000001</ele>
        <time>2013-09-04T14:15:27Z</time>
      </trkpt>
      <trkpt lat="50.851122960448265" lon="14.407877996563911">
        <ele>261.62</ele>
        <time>2013-09-04T14:15:35Z</time>
      </trkpt>
      <trkpt lat="50.850411001592875" lon="14.410408996045589">
        <ele>272.67000000000002</ele>
        <time>2013-09-04T14:15:45Z</time>
      </trkpt>
      <trkpt lat="50.850070025771856" lon="14.411189015954733">
        <ele>276.04000000000002</ele>
        <time>2013-09-04T14:15:49Z</time>
      </trkpt>
      <trkpt lat="50.850007999688387" lon="14.411411974579096">
        <ele>277</ele>
        <time>2013-09-04T14:15:50Z</time>
      </trkpt>
      <trkpt lat="50.849828040227294" lon="14.413462020456791">
        <ele>283.25</ele>
        <time>2013-09-04T14:15:58Z</time>
      </trkpt>
      <trkpt lat="50.849705999717116" lon="14.415107974782586">
        <ele>287.56999999999999</ele>
        <time>2013-09-04T14:16:05Z</time>
      </trkpt>
      <trkpt lat="50.849727038294077" lon="14.415305033326149">
        <ele>288.05000000000001</ele>
        <time>2013-09-04T14:16:06Z</time>
      </trkpt>
      <trkpt lat="50.84979803301394" lon="14.415498990565538">
        <ele>289.00999999999999</ele>
        <time>2013-09-04T14:16:07Z</time>
      </trkpt>
      <trkpt lat="50.84992703050375" lon="14.416142972186208">
        <ele>291.42000000000002</ele>
        <time>2013-09-04T14:16:11Z</time>
      </trkpt>
      <trkpt lat="50.849900962784886" lon="14.416294014081359">
        <ele>291.89999999999998</ele>
        <time>2013-09-04T14:16:12Z</time>
      </trkpt>
      <trkpt lat="50.849826028570533" lon="14.416458969935775">
        <ele>293.81999999999999</ele>
        <time>2013-09-04T14:16:13Z</time>
      </trkpt>
      <trkpt lat="50.849756961688399" lon="14.416599031537771">
        <ele>294.77999999999997</ele>
        <time>2013-09-04T14:16:14Z</time>
      </trkpt>
      <trkpt lat="50.849661994725466" lon="14.416743032634258">
        <ele>294.77999999999997</ele>
        <time>2013-09-04T14:16:15Z</time>
      </trkpt>
      <trkpt lat="50.849569039419293" lon="14.41687798127532">
        <ele>295.74000000000001</ele>
        <time>2013-09-04T14:16:16Z</time>
      </trkpt>
      <trkpt lat="50.84945697337389" lon="14.417013013735414">
        <ele>296.22000000000003</ele>
        <time>2013-09-04T14:16:17Z</time>
      </trkpt>
      <trkpt lat="50.849229991436005" lon="14.417244018986821">
        <ele>297.67000000000002</ele>
        <time>2013-09-04T14:16:19Z</time>
      </trkpt>
      <trkpt lat="50.848668990656734" lon="14.41780099645257">
        <ele>303.43000000000001</ele>
        <time>2013-09-04T14:16:24Z</time>
      </trkpt>
      <trkpt lat="50.848610987886786" lon="14.417933011427522">
        <ele>304.38999999999999</ele>
        <time>2013-09-04T14:16:25Z</time>
      </trkpt>
      <trkpt lat="50.848581986501813" lon="14.41807902418077">
        <ele>304.88</ele>
        <time>2013-09-04T14:16:26Z</time>
      </trkpt>
      <trkpt lat="50.848575029522181" lon="14.418234005570412">
        <ele>305.36000000000001</ele>
        <time>2013-09-04T14:16:27Z</time>
      </trkpt>
      <trkpt lat="50.848577041178942" lon="14.418386975303292">
        <ele>306.31999999999999</ele>
        <time>2013-09-04T14:16:28Z</time>
      </trkpt>
      <trkpt lat="50.848604030907154" lon="14.41853298805654">
        <ele>309.19999999999999</ele>
        <time>2013-09-04T14:16:29Z</time>
      </trkpt>
      <trkpt lat="50.848635965958238" lon="14.41866097971797">
        <ele>311.60000000000002</ele>
        <time>2013-09-04T14:16:30Z</time>
      </trkpt>
      <trkpt lat="50.848688017576933" lon="14.418791988864541">
        <ele>314.00999999999999</ele>
        <time>2013-09-04T14:16:31Z</time>
      </trkpt>
      <trkpt lat="50.848748032003641" lon="14.418911011889577">
        <ele>315.44999999999999</ele>
        <time>2013-09-04T14:16:32Z</time>
      </trkpt>
      <trkpt lat="50.848827995359898" lon="14.419014025479555">
        <ele>316.41000000000003</ele>
        <time>2013-09-04T14:16:33Z</time>
      </trkpt>
      <trkpt lat="50.848909970372915" lon="14.419127013534307">
        <ele>319.30000000000001</ele>
        <time>2013-09-04T14:16:34Z</time>
      </trkpt>
      <trkpt lat="50.849405005574226" lon="14.419615007936954">
        <ele>325.54000000000002</ele>
        <time>2013-09-04T14:16:39Z</time>
      </trkpt>
      <trkpt lat="50.849510030820966" lon="14.419663958251476">
        <ele>326.01999999999998</ele>
        <time>2013-09-04T14:16:40Z</time>
      </trkpt>
      <trkpt lat="50.849937004968524" lon="14.419851964339614">
        <ele>327.47000000000003</ele>
        <time>2013-09-04T14:16:44Z</time>
      </trkpt>
      <trkpt lat="50.85003700107336" lon="14.419941985979676">
        <ele>327.94999999999999</ele>
        <time>2013-09-04T14:16:45Z</time>
      </trkpt>
      <trkpt lat="50.850141020491719" lon="14.420049022883177">
        <ele>328.91000000000003</ele>
        <time>2013-09-04T14:16:46Z</time>
      </trkpt>
      <trkpt lat="50.850253002718091" lon="14.420189000666142">
        <ele>330.35000000000002</ele>
        <time>2013-09-04T14:16:47Z</time>
      </trkpt>
      <trkpt lat="50.850341012701392" lon="14.420351022854447">
        <ele>330.82999999999998</ele>
        <time>2013-09-04T14:16:48Z</time>
      </trkpt>
      <trkpt lat="50.850407984107733" lon="14.420510027557611">
        <ele>330.82999999999998</ele>
        <time>2013-09-04T14:16:49Z</time>
      </trkpt>
      <trkpt lat="50.850464981049299" lon="14.420683030039072">
        <ele>331.79000000000002</ele>
        <time>2013-09-04T14:16:50Z</time>
      </trkpt>
      <trkpt lat="50.850512003526092" lon="14.420861983671784">
        <ele>333.23000000000002</ele>
        <time>2013-09-04T14:16:51Z</time>
      </trkpt>
      <trkpt lat="50.850556008517742" lon="14.42104303278029">
        <ele>333.70999999999998</ele>
        <time>2013-09-04T14:16:52Z</time>
      </trkpt>
      <trkpt lat="50.850705960765481" lon="14.421574026346207">
        <ele>336.12</ele>
        <time>2013-09-04T14:16:55Z</time>
      </trkpt>
      <trkpt lat="50.850777039304376" lon="14.4217349588871">
        <ele>337.56</ele>
        <time>2013-09-04T14:16:56Z</time>
      </trkpt>
      <trkpt lat="50.850863037630916" lon="14.421892035752535">
        <ele>339.48000000000002</ele>
        <time>2013-09-04T14:16:57Z</time>
      </trkpt>
      <trkpt lat="50.850953981280327" lon="14.4220320135355">
        <ele>340.92000000000002</ele>
        <time>2013-09-04T14:16:58Z</time>
      </trkpt>
      <trkpt lat="50.851055989041924" lon="14.422166040167212">
        <ele>341.88999999999999</ele>
        <time>2013-09-04T14:16:59Z</time>
      </trkpt>
      <trkpt lat="50.851157996803522" lon="14.42229000851512">
        <ele>342.85000000000002</ele>
        <time>2013-09-04T14:17:00Z</time>
      </trkpt>
      <trkpt lat="50.852114036679268" lon="14.423262979835272">
        <ele>349.57999999999998</ele>
        <time>2013-09-04T14:17:09Z</time>
      </trkpt>
      <trkpt lat="50.852519972249866" lon="14.423750974237919">
        <ele>351.01999999999998</ele>
        <time>2013-09-04T14:17:14Z</time>
      </trkpt>
      <trkpt lat="50.85332497023046" lon="14.42450400441885">
        <ele>350.54000000000002</ele>
        <time>2013-09-04T14:17:22Z</time>
      </trkpt>
      <trkpt lat="50.85377398878336" lon="14.424996022135019">
        <ele>349.10000000000002</ele>
        <time>2013-09-04T14:17:26Z</time>
      </trkpt>
      <trkpt lat="50.853843977674842" lon="14.425158966332674">
        <ele>348.62</ele>
        <time>2013-09-04T14:17:27Z</time>
      </trkpt>
      <trkpt lat="50.853912038728595" lon="14.425330962985754">
        <ele>347.64999999999998</ele>
        <time>2013-09-04T14:17:28Z</time>
      </trkpt>
      <trkpt lat="50.853954032063484" lon="14.425500025972724">
        <ele>347.64999999999998</ele>
        <time>2013-09-04T14:17:29Z</time>
      </trkpt>
      <trkpt lat="50.853995019569993" lon="14.425675040110946">
        <ele>347.17000000000002</ele>
        <time>2013-09-04T14:17:30Z</time>
      </trkpt>
      <trkpt lat="50.854030977934599" lon="14.425842007622123">
        <ele>346.69</ele>
        <time>2013-09-04T14:17:31Z</time>
      </trkpt>
      <trkpt lat="50.854059979319572" lon="14.4260089751333">
        <ele>346.69</ele>
        <time>2013-09-04T14:17:32Z</time>
      </trkpt>
      <trkpt lat="50.854237005114555" lon="14.426801986992359">
        <ele>345.25</ele>
        <time>2013-09-04T14:17:37Z</time>
      </trkpt>
      <trkpt lat="50.854300959035754" lon="14.426940036937594">
        <ele>344.76999999999998</ele>
        <time>2013-09-04T14:17:38Z</time>
      </trkpt>
      <trkpt lat="50.854374971240759" lon="14.427079008892179">
        <ele>343.32999999999998</ele>
        <time>2013-09-04T14:17:39Z</time>
      </trkpt>
      <trkpt lat="50.854459041729569" lon="14.42716802470386">
        <ele>342.37</ele>
        <time>2013-09-04T14:17:40Z</time>
      </trkpt>
      <trkpt lat="50.854543028399348" lon="14.427217980846763">
        <ele>341.88999999999999</ele>
        <time>2013-09-04T14:17:41Z</time>
      </trkpt>
      <trkpt lat="50.854598013684154" lon="14.427242958918214">
        <ele>341.41000000000003</ele>
        <time>2013-09-04T14:17:42Z</time>
      </trkpt>
      <trkpt lat="50.854632966220379" lon="14.427248993888497">
        <ele>341.41000000000003</ele>
        <time>2013-09-04T14:17:43Z</time>
      </trkpt>
      <trkpt lat="50.854660039767623" lon="14.427244970574975">
        <ele>340.44</ele>
        <time>2013-09-04T14:17:44Z</time>
      </trkpt>
      <trkpt lat="50.854686023667455" lon="14.427247988060117">
        <ele>339.95999999999998</ele>
        <time>2013-09-04T14:17:45Z</time>
      </trkpt>
      <trkpt lat="50.854957010596991" lon="14.42725301720202">
        <ele>336.60000000000002</ele>
        <time>2013-09-04T14:17:51Z</time>
      </trkpt>
      <trkpt lat="50.855046026408672" lon="14.427286041900516">
        <ele>335.16000000000003</ele>
        <time>2013-09-04T14:17:53Z</time>
      </trkpt>
      <trkpt lat="50.855348026379943" lon="14.427240025252104">
        <ele>333.23000000000002</ele>
        <time>2013-09-04T14:18:00Z</time>
      </trkpt>
      <trkpt lat="50.855397982522845" lon="14.427185961976647">
        <ele>332.75</ele>
        <time>2013-09-04T14:18:01Z</time>
      </trkpt>
      <trkpt lat="50.855437964200974" lon="14.427135000005364">
        <ele>331.31</ele>
        <time>2013-09-04T14:18:02Z</time>
      </trkpt>
      <trkpt lat="50.855475012212992" lon="14.427046990022063">
        <ele>329.87</ele>
        <time>2013-09-04T14:18:03Z</time>
      </trkpt>
      <trkpt lat="50.855567967519164" lon="14.426649017259479">
        <ele>326.5</ele>
        <time>2013-09-04T14:18:07Z</time>
      </trkpt>
      <trkpt lat="50.855657989159226" lon="14.426336036995053">
        <ele>324.57999999999998</ele>
        <time>2013-09-04T14:18:10Z</time>
      </trkpt>
      <trkpt lat="50.855714986100793" lon="14.426191030070186">
        <ele>323.13999999999999</ele>
        <time>2013-09-04T14:18:12Z</time>
      </trkpt>
      <trkpt lat="50.855759996920824" lon="14.426166974008083">
        <ele>322.66000000000003</ele>
        <time>2013-09-04T14:18:13Z</time>
      </trkpt>
      <trkpt lat="50.855810958892107" lon="14.426193041726947">
        <ele>321.69999999999999</ele>
        <time>2013-09-04T14:18:14Z</time>
      </trkpt>
      <trkpt lat="50.855882037431002" lon="14.426268981769681">
        <ele>321.22000000000003</ele>
        <time>2013-09-04T14:18:15Z</time>
      </trkpt>
      <trkpt lat="50.855951020494103" lon="14.426362020894885">
        <ele>320.25999999999999</ele>
        <time>2013-09-04T14:18:16Z</time>
      </trkpt>
      <trkpt lat="50.856003994122148" lon="14.426461011171341">
        <ele>319.77999999999997</ele>
        <time>2013-09-04T14:18:17Z</time>
      </trkpt>
      <trkpt lat="50.856055039912462" lon="14.426571987569332">
        <ele>319.30000000000001</ele>
        <time>2013-09-04T14:18:18Z</time>
      </trkpt>
      <trkpt lat="50.856149001047015" lon="14.426925033330917">
        <ele>317.85000000000002</ele>
        <time>2013-09-04T14:18:21Z</time>
      </trkpt>
      <trkpt lat="50.856150006875396" lon="14.427075991407037">
        <ele>316.88999999999999</ele>
        <time>2013-09-04T14:18:22Z</time>
      </trkpt>
      <trkpt lat="50.856121005490422" lon="14.427284030243754">
        <ele>316.41000000000003</ele>
        <time>2013-09-04T14:18:23Z</time>
      </trkpt>
      <trkpt lat="50.856101978570223" lon="14.427440017461777">
        <ele>315.93000000000001</ele>
        <time>2013-09-04T14:18:24Z</time>
      </trkpt>
      <trkpt lat="50.856066020205617" lon="14.427569014951587">
        <ele>314.97000000000003</ele>
        <time>2013-09-04T14:18:25Z</time>
      </trkpt>
      <trkpt lat="50.856026038527489" lon="14.427701029926538">
        <ele>314.00999999999999</ele>
        <time>2013-09-04T14:18:26Z</time>
      </trkpt>
      <trkpt lat="50.85596602410078" lon="14.427840001881123">
        <ele>313.05000000000001</ele>
        <time>2013-09-04T14:18:27Z</time>
      </trkpt>
      <trkpt lat="50.855898968875408" lon="14.427977968007326">
        <ele>312.08999999999997</ele>
        <time>2013-09-04T14:18:28Z</time>
      </trkpt>
      <trkpt lat="50.855831997469068" lon="14.428105959668756">
        <ele>311.12</ele>
        <time>2013-09-04T14:18:29Z</time>
      </trkpt>
      <trkpt lat="50.855749016627669" lon="14.428224982693791">
        <ele>310.16000000000003</ele>
        <time>2013-09-04T14:18:30Z</time>
      </trkpt>
      <trkpt lat="50.855661006644368" lon="14.428350040689111">
        <ele>308.72000000000003</ele>
        <time>2013-09-04T14:18:31Z</time>
      </trkpt>
      <trkpt lat="50.855046026408672" lon="14.429529039189219">
        <ele>301.02999999999997</ele>
        <time>2013-09-04T14:18:38Z</time>
      </trkpt>
      <trkpt lat="50.854992968961596" lon="14.429736994206905">
        <ele>300.55000000000001</ele>
        <time>2013-09-04T14:18:39Z</time>
      </trkpt>
      <trkpt lat="50.854862965643406" lon="14.430344011634588">
        <ele>299.58999999999997</ele>
        <time>2013-09-04T14:18:42Z</time>
      </trkpt>
      <trkpt lat="50.854841005057096" lon="14.430579962208867">
        <ele>299.11000000000001</ele>
        <time>2013-09-04T14:18:43Z</time>
      </trkpt>
      <trkpt lat="50.854851985350251" lon="14.430818008258939">
        <ele>298.14999999999998</ele>
        <time>2013-09-04T14:18:44Z</time>
      </trkpt>
      <trkpt lat="50.854930020868778" lon="14.431055970489979">
        <ele>297.18000000000001</ele>
        <time>2013-09-04T14:18:45Z</time>
      </trkpt>
      <trkpt lat="50.855095982551575" lon="14.431368028745055">
        <ele>294.30000000000001</ele>
        <time>2013-09-04T14:18:46Z</time>
      </trkpt>
      <trkpt lat="50.855167983099818" lon="14.431608002632856">
        <ele>291.89999999999998</ele>
        <time>2013-09-04T14:18:47Z</time>
      </trkpt>
      <trkpt lat="50.855210982263088" lon="14.431841019541025">
        <ele>290.94</ele>
        <time>2013-09-04T14:18:48Z</time>
      </trkpt>
      <trkpt lat="50.85527996532619" lon="14.432008992880583">
        <ele>290.45999999999998</ele>
        <time>2013-09-04T14:18:49Z</time>
      </trkpt>
      <trkpt lat="50.855371998623013" lon="14.432145031169057">
        <ele>290.94</ele>
        <time>2013-09-04T14:18:50Z</time>
      </trkpt>
      <trkpt lat="50.855584982782602" lon="14.432387016713619">
        <ele>290.94</ele>
        <time>2013-09-04T14:18:52Z</time>
      </trkpt>
      <trkpt lat="50.855657989159226" lon="14.432530011981726">
        <ele>290.45999999999998</ele>
        <time>2013-09-04T14:18:53Z</time>
      </trkpt>
      <trkpt lat="50.855709034949541" lon="14.432707037776709">
        <ele>289.97000000000003</ele>
        <time>2013-09-04T14:18:54Z</time>
      </trkpt>
      <trkpt lat="50.855737030506134" lon="14.432909963652492">
        <ele>290.45999999999998</ele>
        <time>2013-09-04T14:18:55Z</time>
      </trkpt>
      <trkpt lat="50.855736024677753" lon="14.433127976953983">
        <ele>290.45999999999998</ele>
        <time>2013-09-04T14:18:56Z</time>
      </trkpt>
      <trkpt lat="50.855725966393948" lon="14.43335697054863">
        <ele>290.45999999999998</ele>
        <time>2013-09-04T14:18:57Z</time>
      </trkpt>
      <trkpt lat="50.855885976925492" lon="14.435579013079405">
        <ele>294.77999999999997</ele>
        <time>2013-09-04T14:19:06Z</time>
      </trkpt>
      <trkpt lat="50.855978010222316" lon="14.436786007136106">
        <ele>297.67000000000002</ele>
        <time>2013-09-04T14:19:11Z</time>
      </trkpt>
      <trkpt lat="50.856016986072063" lon="14.437006032094359">
        <ele>298.14999999999998</ele>
        <time>2013-09-04T14:19:12Z</time>
      </trkpt>
      <trkpt lat="50.856079012155533" lon="14.437219016253948">
        <ele>298.14999999999998</ele>
        <time>2013-09-04T14:19:13Z</time>
      </trkpt>
      <trkpt lat="50.856155036017299" lon="14.437419008463621">
        <ele>298.14999999999998</ele>
        <time>2013-09-04T14:19:14Z</time>
      </trkpt>
      <trkpt lat="50.85624597966671" lon="14.437600979581475">
        <ele>299.11000000000001</ele>
        <time>2013-09-04T14:19:15Z</time>
      </trkpt>
      <trkpt lat="50.856347987428308" lon="14.437776999548078">
        <ele>299.58999999999997</ele>
        <time>2013-09-04T14:19:16Z</time>
      </trkpt>
      <trkpt lat="50.856453012675047" lon="14.437944972887635">
        <ele>300.06999999999999</ele>
        <time>2013-09-04T14:19:17Z</time>
      </trkpt>
      <trkpt lat="50.856763981282711" lon="14.438336994498968">
        <ele>301.50999999999999</ele>
        <time>2013-09-04T14:19:20Z</time>
      </trkpt>
      <trkpt lat="50.856874035671353" lon="14.438403965905309">
        <ele>301.50999999999999</ele>
        <time>2013-09-04T14:19:21Z</time>
      </trkpt>
      <trkpt lat="50.856988029554486" lon="14.438412012532353">
        <ele>301.50999999999999</ele>
        <time>2013-09-04T14:19:22Z</time>
      </trkpt>
      <trkpt lat="50.857110992074013" lon="14.438379993662238">
        <ele>301.99000000000001</ele>
        <time>2013-09-04T14:19:23Z</time>
      </trkpt>
      <trkpt lat="50.857228003442287" lon="14.438330959528685">
        <ele>301.99000000000001</ele>
        <time>2013-09-04T14:19:24Z</time>
      </trkpt>
      <trkpt lat="50.85736102424562" lon="14.43825501948595">
        <ele>302.47000000000003</ele>
        <time>2013-09-04T14:19:25Z</time>
      </trkpt>
      <trkpt lat="50.857479963451624" lon="14.438143959268928">
        <ele>301.99000000000001</ele>
        <time>2013-09-04T14:19:26Z</time>
      </trkpt>
      <trkpt lat="50.857583982869983" lon="14.438028037548065">
        <ele>302.47000000000003</ele>
        <time>2013-09-04T14:19:27Z</time>
      </trkpt>
      <trkpt lat="50.857675010338426" lon="14.437887975946069">
        <ele>302.94999999999999</ele>
        <time>2013-09-04T14:19:28Z</time>
      </trkpt>
      <trkpt lat="50.857767965644598" lon="14.437739029526711">
        <ele>302.47000000000003</ele>
        <time>2013-09-04T14:19:29Z</time>
      </trkpt>
      <trkpt lat="50.857855975627899" lon="14.437577007338405">
        <ele>302.94999999999999</ele>
        <time>2013-09-04T14:19:30Z</time>
      </trkpt>
      <trkpt lat="50.858188988640904" lon="14.436888014897704">
        <ele>302.94999999999999</ele>
        <time>2013-09-04T14:19:34Z</time>
      </trkpt>
      <trkpt lat="50.858268029987812" lon="14.436773015186191">
        <ele>302.94999999999999</ele>
        <time>2013-09-04T14:19:35Z</time>
      </trkpt>
      <trkpt lat="50.85835101082921" lon="14.436694979667664">
        <ele>303.43000000000001</ele>
        <time>2013-09-04T14:19:36Z</time>
      </trkpt>
      <trkpt lat="50.858455030247569" lon="14.436680981889367">
        <ele>303.91000000000003</ele>
        <time>2013-09-04T14:19:37Z</time>
      </trkpt>
      <trkpt lat="50.858529964461923" lon="14.436689028516412">
        <ele>303.91000000000003</ele>
        <time>2013-09-04T14:19:38Z</time>
      </trkpt>
      <trkpt lat="50.858600037172437" lon="14.436748037114739">
        <ele>303.91000000000003</ele>
        <time>2013-09-04T14:19:39Z</time>
      </trkpt>
      <trkpt lat="50.858696009963751" lon="14.436849961057305">
        <ele>302.94999999999999</ele>
        <time>2013-09-04T14:19:40Z</time>
      </trkpt>
      <trkpt lat="50.858784019947052" lon="14.436999997124076">
        <ele>302.47000000000003</ele>
        <time>2013-09-04T14:19:41Z</time>
      </trkpt>
      <trkpt lat="50.858853003010154" lon="14.437169982120395">
        <ele>302.47000000000003</ele>
        <time>2013-09-04T14:19:42Z</time>
      </trkpt>
      <trkpt lat="50.858914023265243" lon="14.437349019572139">
        <ele>301.99000000000001</ele>
        <time>2013-09-04T14:19:43Z</time>
      </trkpt>
      <trkpt lat="50.858977977186441" lon="14.437550017610192">
        <ele>302.47000000000003</ele>
        <time>2013-09-04T14:19:44Z</time>
      </trkpt>
      <trkpt lat="50.859026005491614" lon="14.437755960971117">
        <ele>302.94999999999999</ele>
        <time>2013-09-04T14:19:45Z</time>
      </trkpt>
      <trkpt lat="50.859041009098291" lon="14.438000964000821">
        <ele>302.47000000000003</ele>
        <time>2013-09-04T14:19:46Z</time>
      </trkpt>
      <trkpt lat="50.859044026583433" lon="14.438232975080609">
        <ele>302.47000000000003</ele>
        <time>2013-09-04T14:19:47Z</time>
      </trkpt>
      <trkpt lat="50.859044026583433" lon="14.438490970060229">
        <ele>302.94999999999999</ele>
        <time>2013-09-04T14:19:48Z</time>
      </trkpt>
      <trkpt lat="50.859042014926672" lon="14.439375009387732">
        <ele>304.88</ele>
        <time>2013-09-04T14:19:52Z</time>
      </trkpt>
      <trkpt lat="50.859008990228176" lon="14.439572989940643">
        <ele>304.38999999999999</ele>
        <time>2013-09-04T14:19:53Z</time>
      </trkpt>
      <trkpt lat="50.858964985236526" lon="14.439771976321936">
        <ele>304.88</ele>
        <time>2013-09-04T14:19:54Z</time>
      </trkpt>
      <trkpt lat="50.858755018562078" lon="14.440860031172633">
        <ele>307.27999999999997</ele>
        <time>2013-09-04T14:20:00Z</time>
      </trkpt>
      <trkpt lat="50.858749989420176" lon="14.441050970926881">
        <ele>307.75999999999999</ele>
        <time>2013-09-04T14:20:01Z</time>
      </trkpt>
      <trkpt lat="50.858743032440543" lon="14.44124098867178">
        <ele>308.24000000000001</ele>
        <time>2013-09-04T14:20:02Z</time>
      </trkpt>
      <trkpt lat="50.858733979985118" lon="14.441845994442701">
        <ele>309.68000000000001</ele>
        <time>2013-09-04T14:20:05Z</time>
      </trkpt>
      <trkpt lat="50.858707996085286" lon="14.442067025229335">
        <ele>310.63999999999999</ele>
        <time>2013-09-04T14:20:06Z</time>
      </trkpt>
      <trkpt lat="50.858666002750397" lon="14.442279003560543">
        <ele>311.60000000000002</ele>
        <time>2013-09-04T14:20:07Z</time>
      </trkpt>
      <trkpt lat="50.858602970838547" lon="14.442473966628313">
        <ele>312.08999999999997</ele>
        <time>2013-09-04T14:20:08Z</time>
      </trkpt>
      <trkpt lat="50.858552008867264" lon="14.442664990201592">
        <ele>312.56999999999999</ele>
        <time>2013-09-04T14:20:09Z</time>
      </trkpt>
      <trkpt lat="50.858494006097317" lon="14.442993979901075">
        <ele>313.05000000000001</ele>
        <time>2013-09-04T14:20:11Z</time>
      </trkpt>
      <trkpt lat="50.858510015532374" lon="14.443117026239634">
        <ele>313.52999999999997</ele>
        <time>2013-09-04T14:20:12Z</time>
      </trkpt>
      <trkpt lat="50.858546979725361" lon="14.443203024566174">
        <ele>314.49000000000001</ele>
        <time>2013-09-04T14:20:13Z</time>
      </trkpt>
      <trkpt lat="50.858602970838547" lon="14.443247029557824">
        <ele>315.93000000000001</ele>
        <time>2013-09-04T14:20:14Z</time>
      </trkpt>
      <trkpt lat="50.85867396555841" lon="14.443273013457656">
        <ele>316.41000000000003</ele>
        <time>2013-09-04T14:20:15Z</time>
      </trkpt>
      <trkpt lat="50.858741020783782" lon="14.44323998875916">
        <ele>316.88999999999999</ele>
        <time>2013-09-04T14:20:16Z</time>
      </trkpt>
      <trkpt lat="50.858811009675264" lon="14.443189026787877">
        <ele>317.37</ele>
        <time>2013-09-04T14:20:17Z</time>
      </trkpt>
      <trkpt lat="50.858883010223508" lon="14.443118032068014">
        <ele>318.32999999999998</ele>
        <time>2013-09-04T14:20:18Z</time>
      </trkpt>
      <trkpt lat="50.858962973579764" lon="14.443041002377868">
        <ele>319.30000000000001</ele>
        <time>2013-09-04T14:20:19Z</time>
      </trkpt>
      <trkpt lat="50.8592339605093" lon="14.442930025979877">
        <ele>321.69999999999999</ele>
        <time>2013-09-04T14:20:22Z</time>
      </trkpt>
      <trkpt lat="50.859343009069562" lon="14.44295902736485">
        <ele>322.18000000000001</ele>
        <time>2013-09-04T14:20:23Z</time>
      </trkpt>
      <trkpt lat="50.860292008146644" lon="14.443343002349138">
        <ele>322.66000000000003</ele>
        <time>2013-09-04T14:20:30Z</time>
      </trkpt>
      <trkpt lat="50.86041396483779" lon="14.443451967090368">
        <ele>322.18000000000001</ele>
        <time>2013-09-04T14:20:31Z</time>
      </trkpt>
      <trkpt lat="50.860531982034445" lon="14.443579036742449">
        <ele>322.18000000000001</ele>
        <time>2013-09-04T14:20:32Z</time>
      </trkpt>
      <trkpt lat="50.860800035297871" lon="14.443933004513383">
        <ele>322.18000000000001</ele>
        <time>2013-09-04T14:20:35Z</time>
      </trkpt>
      <trkpt lat="50.860860971733928" lon="14.444054961204529">
        <ele>322.18000000000001</ele>
        <time>2013-09-04T14:20:36Z</time>
      </trkpt>
      <trkpt lat="50.860887039452791" lon="14.444232992827892">
        <ele>323.13999999999999</ele>
        <time>2013-09-04T14:20:37Z</time>
      </trkpt>
      <trkpt lat="50.860867006704211" lon="14.44444103166461">
        <ele>323.13999999999999</ele>
        <time>2013-09-04T14:20:38Z</time>
      </trkpt>
      <trkpt lat="50.860854014754295" lon="14.44470196031034">
        <ele>322.66000000000003</ele>
        <time>2013-09-04T14:20:39Z</time>
      </trkpt>
      <trkpt lat="50.860820990055799" lon="14.446626026183367">
        <ele>319.30000000000001</ele>
        <time>2013-09-04T14:20:47Z</time>
      </trkpt>
      <trkpt lat="50.860876981168985" lon="14.44706498645246">
        <ele>317.85000000000002</ele>
        <time>2013-09-04T14:20:49Z</time>
      </trkpt>
      <trkpt lat="50.860927021130919" lon="14.447288028895855">
        <ele>317.85000000000002</ele>
        <time>2013-09-04T14:20:50Z</time>
      </trkpt>
      <trkpt lat="50.861435970291495" lon="14.44848102517426">
        <ele>314.49000000000001</ele>
        <time>2013-09-04T14:20:56Z</time>
      </trkpt>
      <trkpt lat="50.862676994875073" lon="14.450434008613229">
        <ele>313.52999999999997</ele>
        <time>2013-09-04T14:21:08Z</time>
      </trkpt>
      <trkpt lat="50.862725023180246" lon="14.45058798417449">
        <ele>314.49000000000001</ele>
        <time>2013-09-04T14:21:09Z</time>
      </trkpt>
      <trkpt lat="50.862761987373233" lon="14.450743971392512">
        <ele>314.97000000000003</ele>
        <time>2013-09-04T14:21:10Z</time>
      </trkpt>
      <trkpt lat="50.862788977101445" lon="14.450896019116044">
        <ele>315.44999999999999</ele>
        <time>2013-09-04T14:21:11Z</time>
      </trkpt>
      <trkpt lat="50.862793000414968" lon="14.451068015769124">
        <ele>315.93000000000001</ele>
        <time>2013-09-04T14:21:12Z</time>
      </trkpt>
      <trkpt lat="50.862812027335167" lon="14.451248981058598">
        <ele>315.93000000000001</ele>
        <time>2013-09-04T14:21:13Z</time>
      </trkpt>
      <trkpt lat="50.862859971821308" lon="14.451406979933381">
        <ele>316.41000000000003</ele>
        <time>2013-09-04T14:21:14Z</time>
      </trkpt>
      <trkpt lat="50.862918980419636" lon="14.451546035706997">
        <ele>316.88999999999999</ele>
        <time>2013-09-04T14:21:15Z</time>
      </trkpt>
      <trkpt lat="50.863014031201601" lon="14.451649971306324">
        <ele>317.37</ele>
        <time>2013-09-04T14:21:16Z</time>
      </trkpt>
      <trkpt lat="50.863115033134818" lon="14.451720966026187">
        <ele>317.85000000000002</ele>
        <time>2013-09-04T14:21:17Z</time>
      </trkpt>
      <trkpt lat="50.863220980390906" lon="14.451777040958405">
        <ele>318.32999999999998</ele>
        <time>2013-09-04T14:21:18Z</time>
      </trkpt>
      <trkpt lat="50.863316031172872" lon="14.451819034293294">
        <ele>318.32999999999998</ele>
        <time>2013-09-04T14:21:19Z</time>
      </trkpt>
      <trkpt lat="50.863504037261009" lon="14.451978038996458">
        <ele>317.85000000000002</ele>
        <time>2013-09-04T14:21:21Z</time>
      </trkpt>
      <trkpt lat="50.863547958433628" lon="14.45209102705121">
        <ele>317.37</ele>
        <time>2013-09-04T14:21:22Z</time>
      </trkpt>
      <trkpt lat="50.863585006445646" lon="14.452235028147697">
        <ele>317.37</ele>
        <time>2013-09-04T14:21:23Z</time>
      </trkpt>
      <trkpt lat="50.863622976467013" lon="14.452390009537339">
        <ele>317.37</ele>
        <time>2013-09-04T14:21:24Z</time>
      </trkpt>
      <trkpt lat="50.863660024479032" lon="14.452552031725645">
        <ele>317.37</ele>
        <time>2013-09-04T14:21:25Z</time>
      </trkpt>
      <trkpt lat="50.86376597173512" lon="14.452943969517946">
        <ele>316.88999999999999</ele>
        <time>2013-09-04T14:21:28Z</time>
      </trkpt>
      <trkpt lat="50.863865967839956" lon="14.4532710313797">
        <ele>317.37</ele>
        <time>2013-09-04T14:21:31Z</time>
      </trkpt>
      <trkpt lat="50.863848030567169" lon="14.453402040526271">
        <ele>317.37</ele>
        <time>2013-09-04T14:21:32Z</time>
      </trkpt>
      <trkpt lat="50.863820035010576" lon="14.453541012480855">
        <ele>316.88999999999999</ele>
        <time>2013-09-04T14:21:33Z</time>
      </trkpt>
      <trkpt lat="50.863708974793553" lon="14.454077035188675">
        <ele>315.93000000000001</ele>
        <time>2013-09-04T14:21:37Z</time>
      </trkpt>
      <trkpt lat="50.863704029470682" lon="14.454222964122891">
        <ele>315.93000000000001</ele>
        <time>2013-09-04T14:21:38Z</time>
      </trkpt>
      <trkpt lat="50.863834032788873" lon="14.455588962882757">
        <ele>314.00999999999999</ele>
        <time>2013-09-04T14:21:47Z</time>
      </trkpt>
      <trkpt lat="50.864311968907714" lon="14.457578994333744">
        <ele>315.44999999999999</ele>
        <time>2013-09-04T14:22:00Z</time>
      </trkpt>
      <trkpt lat="50.864318003877997" lon="14.457740010693669">
        <ele>315.44999999999999</ele>
        <time>2013-09-04T14:22:01Z</time>
      </trkpt>
      <trkpt lat="50.864316998049617" lon="14.457906978204846">
        <ele>315.44999999999999</ele>
        <time>2013-09-04T14:22:02Z</time>
      </trkpt>
      <trkpt lat="50.8644749969244" lon="14.459776980802417">
        <ele>314.97000000000003</ele>
        <time>2013-09-04T14:22:13Z</time>
      </trkpt>
      <trkpt lat="50.864611035212874" lon="14.461014987900853">
        <ele>315.44999999999999</ele>
        <time>2013-09-04T14:22:21Z</time>
      </trkpt>
      <trkpt lat="50.864690998569131" lon="14.461461994796991">
        <ele>315.44999999999999</ele>
        <time>2013-09-04T14:22:24Z</time>
      </trkpt>
      <trkpt lat="50.864699967205524" lon="14.461602978408337">
        <ele>315.93000000000001</ele>
        <time>2013-09-04T14:22:25Z</time>
      </trkpt>
      <trkpt lat="50.864698961377144" lon="14.461758965626359">
        <ele>316.41000000000003</ele>
        <time>2013-09-04T14:22:26Z</time>
      </trkpt>
      <trkpt lat="50.864684041589499" lon="14.461920987814665">
        <ele>316.41000000000003</ele>
        <time>2013-09-04T14:22:27Z</time>
      </trkpt>
      <trkpt lat="50.864665014669299" lon="14.462087033316493">
        <ele>316.88999999999999</ele>
        <time>2013-09-04T14:22:28Z</time>
      </trkpt>
      <trkpt lat="50.864557977765799" lon="14.463210962712765">
        <ele>319.77999999999997</ele>
        <time>2013-09-04T14:22:35Z</time>
      </trkpt>
      <trkpt lat="50.864597959443927" lon="14.463522015139461">
        <ele>318.81</ele>
        <time>2013-09-04T14:22:37Z</time>
      </trkpt>
      <trkpt lat="50.864639030769467" lon="14.463671967387199">
        <ele>318.32999999999998</ele>
        <time>2013-09-04T14:22:38Z</time>
      </trkpt>
      <trkpt lat="50.864702984690666" lon="14.463838012889028">
        <ele>318.32999999999998</ele>
        <time>2013-09-04T14:22:39Z</time>
      </trkpt>
      <trkpt lat="50.864928960800171" lon="14.464476965367794">
        <ele>317.37</ele>
        <time>2013-09-04T14:22:42Z</time>
      </trkpt>
      <trkpt lat="50.864982018247247" lon="14.464705036953092">
        <ele>318.32999999999998</ele>
        <time>2013-09-04T14:22:43Z</time>
      </trkpt>
      <trkpt lat="50.865179998800159" lon="14.46549997664988">
        <ele>320.74000000000001</ele>
        <time>2013-09-04T14:22:47Z</time>
      </trkpt>
      <trkpt lat="50.865241019055247" lon="14.46566903963685">
        <ele>320.74000000000001</ele>
        <time>2013-09-04T14:22:48Z</time>
      </trkpt>
      <trkpt lat="50.86582800373435" lon="14.467227989807725">
        <ele>324.10000000000002</ele>
        <time>2013-09-04T14:22:57Z</time>
      </trkpt>
      <trkpt lat="50.866088010370731" lon="14.468145975843072">
        <ele>326.5</ele>
        <time>2013-09-04T14:23:02Z</time>
      </trkpt>
      <trkpt lat="50.866116005927324" lon="14.468344962224364">
        <ele>326.99000000000001</ele>
        <time>2013-09-04T14:23:03Z</time>
      </trkpt>
      <trkpt lat="50.866231005638838" lon="14.469500994309783">
        <ele>327.94999999999999</ele>
        <time>2013-09-04T14:23:09Z</time>
      </trkpt>
      <trkpt lat="50.866217007860541" lon="14.469690006226301">
        <ele>327.94999999999999</ele>
        <time>2013-09-04T14:23:10Z</time>
      </trkpt>
      <trkpt lat="50.866154981777072" lon="14.470271039754152">
        <ele>327.47000000000003</ele>
        <time>2013-09-04T14:23:13Z</time>
      </trkpt>
      <trkpt lat="50.866160010918975" lon="14.470469020307064">
        <ele>326.99000000000001</ele>
        <time>2013-09-04T14:23:14Z</time>
      </trkpt>
      <trkpt lat="50.866179037839174" lon="14.470658032223582">
        <ele>326.01999999999998</ele>
        <time>2013-09-04T14:23:15Z</time>
      </trkpt>
      <trkpt lat="50.866222037002444" lon="14.471250968053937">
        <ele>326.99000000000001</ele>
        <time>2013-09-04T14:23:18Z</time>
      </trkpt>
      <trkpt lat="50.866194041445851" lon="14.471444003283978">
        <ele>326.01999999999998</ele>
        <time>2013-09-04T14:23:19Z</time>
      </trkpt>
      <trkpt lat="50.865894975140691" lon="14.473161958158016">
        <ele>327.47000000000003</ele>
        <time>2013-09-04T14:23:28Z</time>
      </trkpt>
      <trkpt lat="50.865878965705633" lon="14.473351975902915">
        <ele>327.94999999999999</ele>
        <time>2013-09-04T14:23:29Z</time>
      </trkpt>
      <trkpt lat="50.86584996432066" lon="14.47372798807919">
        <ele>328.43000000000001</ele>
        <time>2013-09-04T14:23:31Z</time>
      </trkpt>
      <trkpt lat="50.865857005119324" lon="14.473911970853806">
        <ele>327.94999999999999</ele>
        <time>2013-09-04T14:23:32Z</time>
      </trkpt>
      <trkpt lat="50.865894975140691" lon="14.474471965804696">
        <ele>327.47000000000003</ele>
        <time>2013-09-04T14:23:35Z</time>
      </trkpt>
      <trkpt lat="50.865879971534014" lon="14.474661983549595">
        <ele>327.47000000000003</ele>
        <time>2013-09-04T14:23:36Z</time>
      </trkpt>
      <trkpt lat="50.86585097014904" lon="14.474848983809352">
        <ele>327.47000000000003</ele>
        <time>2013-09-04T14:23:37Z</time>
      </trkpt>
      <trkpt lat="50.865811994299293" lon="14.47503799572587">
        <ele>327.94999999999999</ele>
        <time>2013-09-04T14:23:38Z</time>
      </trkpt>
      <trkpt lat="50.8657649718225" lon="14.475218039005995">
        <ele>328.91000000000003</ele>
        <time>2013-09-04T14:23:39Z</time>
      </trkpt>
      <trkpt lat="50.86571803316474" lon="14.475397998467088">
        <ele>328.43000000000001</ele>
        <time>2013-09-04T14:23:40Z</time>
      </trkpt>
      <trkpt lat="50.865069022402167" lon="14.477372020483017">
        <ele>329.87</ele>
        <time>2013-09-04T14:23:51Z</time>
      </trkpt>
      <trkpt lat="50.864836005493999" lon="14.478262010961771">
        <ele>330.82999999999998</ele>
        <time>2013-09-04T14:23:56Z</time>
      </trkpt>
      <trkpt lat="50.864773979410529" lon="14.478414980694652">
        <ele>330.82999999999998</ele>
        <time>2013-09-04T14:23:57Z</time>
      </trkpt>
      <trkpt lat="50.864697033539414" lon="14.478551018983126">
        <ele>331.31</ele>
        <time>2013-09-04T14:23:58Z</time>
      </trkpt>
      <trkpt lat="50.864613968878984" lon="14.478683033958077">
        <ele>331.31</ele>
        <time>2013-09-04T14:23:59Z</time>
      </trkpt>
      <trkpt lat="50.864525958895683" lon="14.478802978992462">
        <ele>330.82999999999998</ele>
        <time>2013-09-04T14:24:00Z</time>
      </trkpt>
      <trkpt lat="50.864450018852949" lon="14.478946980088949">
        <ele>330.82999999999998</ele>
        <time>2013-09-04T14:24:01Z</time>
      </trkpt>
      <trkpt lat="50.864381035789847" lon="14.479099027812481">
        <ele>331.31</ele>
        <time>2013-09-04T14:24:02Z</time>
      </trkpt>
      <trkpt lat="50.863832021132112" lon="14.480104018002748">
        <ele>333.23000000000002</ele>
        <time>2013-09-04T14:24:09Z</time>
      </trkpt>
      <trkpt lat="50.863548964262009" lon="14.480432001873851">
        <ele>332.26999999999998</ele>
        <time>2013-09-04T14:24:12Z</time>
      </trkpt>
      <trkpt lat="50.863032974302769" lon="14.480821006000042">
        <ele>332.26999999999998</ele>
        <time>2013-09-04T14:24:17Z</time>
      </trkpt>
      <trkpt lat="50.862937001511455" lon="14.480885965749621">
        <ele>333.70999999999998</ele>
        <time>2013-09-04T14:24:18Z</time>
      </trkpt>
      <trkpt lat="50.86269199848175" lon="14.481216967105865">
        <ele>334.68000000000001</ele>
        <time>2013-09-04T14:24:22Z</time>
      </trkpt>
      <trkpt lat="50.86266802623868" lon="14.481296008452773">
        <ele>334.68000000000001</ele>
        <time>2013-09-04T14:24:23Z</time>
      </trkpt>
      <trkpt lat="50.862659979611635" lon="14.48135401122272">
        <ele>334.19999999999999</ele>
        <time>2013-09-04T14:24:24Z</time>
      </trkpt>
      <trkpt lat="50.862659979611635" lon="14.481388041749597">
        <ele>334.19999999999999</ele>
        <time>2013-09-04T14:24:25Z</time>
      </trkpt>
      <trkpt lat="50.862660985440016" lon="14.481388041749597">
        <ele>334.68000000000001</ele>
        <time>2013-09-04T14:24:39Z</time>
      </trkpt>
      <trkpt lat="50.862633995711803" lon="14.481417965143919">
        <ele>334.19999999999999</ele>
        <time>2013-09-04T14:24:57Z</time>
      </trkpt>
      <trkpt lat="50.862420005723834" lon="14.481226019561291">
        <ele>332.26999999999998</ele>
        <time>2013-09-04T14:25:02Z</time>
      </trkpt>
      <trkpt lat="50.86204600520432" lon="14.480847995728254">
        <ele>335.63999999999999</ele>
        <time>2013-09-04T14:25:08Z</time>
      </trkpt>
      <trkpt lat="50.861625988036394" lon="14.480226980522275">
        <ele>339.95999999999998</ele>
        <time>2013-09-04T14:25:14Z</time>
      </trkpt>
      <trkpt lat="50.861563039943576" lon="14.480205019935966">
        <ele>340.44</ele>
        <time>2013-09-04T14:25:15Z</time>
      </trkpt>
      <trkpt lat="50.861500008031726" lon="14.480239972472191">
        <ele>341.88999999999999</ele>
        <time>2013-09-04T14:25:16Z</time>
      </trkpt>
      <trkpt lat="50.861437981948256" lon="14.480310967192054">
        <ele>342.85000000000002</ele>
        <time>2013-09-04T14:25:17Z</time>
      </trkpt>
      <trkpt lat="50.861372016370296" lon="14.480405012145638">
        <ele>342.37</ele>
        <time>2013-09-04T14:25:18Z</time>
      </trkpt>
      <trkpt lat="50.861301021650434" lon="14.480511965230107">
        <ele>342.85000000000002</ele>
        <time>2013-09-04T14:25:19Z</time>
      </trkpt>
      <trkpt lat="50.860473979264498" lon="14.481808980926871">
        <ele>347.64999999999998</ele>
        <time>2013-09-04T14:25:29Z</time>
      </trkpt>
      <trkpt lat="50.859471000730991" lon="14.483574964106083">
        <ele>347.64999999999998</ele>
        <time>2013-09-04T14:25:41Z</time>
      </trkpt>
      <trkpt lat="50.858101984485984" lon="14.485519984737039">
        <ele>351.5</ele>
        <time>2013-09-04T14:25:55Z</time>
      </trkpt>
      <trkpt lat="50.858025038614869" lon="14.485690975561738">
        <ele>351.98000000000002</ele>
        <time>2013-09-04T14:25:56Z</time>
      </trkpt>
      <trkpt lat="50.857958989217877" lon="14.485874036327004">
        <ele>351.98000000000002</ele>
        <time>2013-09-04T14:25:57Z</time>
      </trkpt>
      <trkpt lat="50.857902998104692" lon="14.486065981909633">
        <ele>352.45999999999998</ele>
        <time>2013-09-04T14:25:58Z</time>
      </trkpt>
      <trkpt lat="50.857859998941422" lon="14.486249964684248">
        <ele>351.98000000000002</ele>
        <time>2013-09-04T14:25:59Z</time>
      </trkpt>
      <trkpt lat="50.857819011434913" lon="14.486438976600766">
        <ele>351.98000000000002</ele>
        <time>2013-09-04T14:26:00Z</time>
      </trkpt>
      <trkpt lat="50.857784980908036" lon="14.486628994345665">
        <ele>351.98000000000002</ele>
        <time>2013-09-04T14:26:01Z</time>
      </trkpt>
      <trkpt lat="50.857678027823567" lon="14.488621959462762">
        <ele>350.54000000000002</ele>
        <time>2013-09-04T14:26:11Z</time>
      </trkpt>
      <trkpt lat="50.857611978426576" lon="14.490411998704076">
        <ele>353.42000000000002</ele>
        <time>2013-09-04T14:26:20Z</time>
      </trkpt>
      <trkpt lat="50.857578031718731" lon="14.490604028105736">
        <ele>353.42000000000002</ele>
        <time>2013-09-04T14:26:21Z</time>
      </trkpt>
      <trkpt lat="50.857295980677009" lon="14.49196700938046">
        <ele>354.38</ele>
        <time>2013-09-04T14:26:28Z</time>
      </trkpt>
      <trkpt lat="50.857287012040615" lon="14.492173958569765">
        <ele>354.38</ele>
        <time>2013-09-04T14:26:29Z</time>
      </trkpt>
      <trkpt lat="50.857292041182518" lon="14.492378979921341">
        <ele>354.38</ele>
        <time>2013-09-04T14:26:30Z</time>
      </trkpt>
      <trkpt lat="50.857308972626925" lon="14.492584001272917">
        <ele>354.38</ele>
        <time>2013-09-04T14:26:31Z</time>
      </trkpt>
      <trkpt lat="50.857335040345788" lon="14.492789022624493">
        <ele>354.86000000000001</ele>
        <time>2013-09-04T14:26:32Z</time>
      </trkpt>
      <trkpt lat="50.857547018676996" lon="14.495064960792661">
        <ele>356.79000000000002</ele>
        <time>2013-09-04T14:26:43Z</time>
      </trkpt>
      <trkpt lat="50.857616001740098" lon="14.495682036504149">
        <ele>357.26999999999998</ele>
        <time>2013-09-04T14:26:46Z</time>
      </trkpt>
      <trkpt lat="50.857610972598195" lon="14.495886974036694">
        <ele>357.26999999999998</ele>
        <time>2013-09-04T14:26:47Z</time>
      </trkpt>
      <trkpt lat="50.857590017840266" lon="14.496080009266734">
        <ele>356.79000000000002</ele>
        <time>2013-09-04T14:26:48Z</time>
      </trkpt>
      <trkpt lat="50.857460014522076" lon="14.498107004910707">
        <ele>359.19</ele>
        <time>2013-09-04T14:26:58Z</time>
      </trkpt>
      <trkpt lat="50.857473006471992" lon="14.498711004853249">
        <ele>360.14999999999998</ele>
        <time>2013-09-04T14:27:01Z</time>
      </trkpt>
      <trkpt lat="50.857507959008217" lon="14.498902028426528">
        <ele>361.11000000000001</ele>
        <time>2013-09-04T14:27:02Z</time>
      </trkpt>
      <trkpt lat="50.857553975656629" lon="14.499091040343046">
        <ele>361.58999999999997</ele>
        <time>2013-09-04T14:27:03Z</time>
      </trkpt>
      <trkpt lat="50.85802897810936" lon="14.500376991927624">
        <ele>362.55000000000001</ele>
        <time>2013-09-04T14:27:10Z</time>
      </trkpt>
      <trkpt lat="50.858067031949759" lon="14.500571032986045">
        <ele>362.55000000000001</ele>
        <time>2013-09-04T14:27:11Z</time>
      </trkpt>
      <trkpt lat="50.858078012242913" lon="14.500764990225434">
        <ele>363.04000000000002</ele>
        <time>2013-09-04T14:27:12Z</time>
      </trkpt>
      <trkpt lat="50.858056973665953" lon="14.502490991726518">
        <ele>366.88</ele>
        <time>2013-09-04T14:27:21Z</time>
      </trkpt>
      <trkpt lat="50.858011040836573" lon="14.502645973116159">
        <ele>367.36000000000001</ele>
        <time>2013-09-04T14:27:22Z</time>
      </trkpt>
      <trkpt lat="50.857953038066626" lon="14.502772958949208">
        <ele>367.83999999999997</ele>
        <time>2013-09-04T14:27:23Z</time>
      </trkpt>
      <trkpt lat="50.857885982841253" lon="14.502879995852709">
        <ele>367.83999999999997</ele>
        <time>2013-09-04T14:27:24Z</time>
      </trkpt>
      <trkpt lat="50.857821023091674" lon="14.502958031371236">
        <ele>368.31999999999999</ele>
        <time>2013-09-04T14:27:25Z</time>
      </trkpt>
      <trkpt lat="50.857767965644598" lon="14.503012010827661">
        <ele>368.80000000000001</ele>
        <time>2013-09-04T14:27:26Z</time>
      </trkpt>
      <trkpt lat="50.857680961489677" lon="14.503077976405621">
        <ele>368.80000000000001</ele>
        <time>2013-09-04T14:27:28Z</time>
      </trkpt>
      <trkpt lat="50.857659000903368" lon="14.503149976953864">
        <ele>368.80000000000001</ele>
        <time>2013-09-04T14:27:29Z</time>
      </trkpt>
      <trkpt lat="50.857649026438594" lon="14.503247961401939">
        <ele>369.27999999999997</ele>
        <time>2013-09-04T14:27:30Z</time>
      </trkpt>
      <trkpt lat="50.857647014781833" lon="14.503351980820298">
        <ele>370.73000000000002</ele>
        <time>2013-09-04T14:27:31Z</time>
      </trkpt>
      <trkpt lat="50.857666963711381" lon="14.503471003845334">
        <ele>370.24000000000001</ele>
        <time>2013-09-04T14:27:32Z</time>
      </trkpt>
      <trkpt lat="50.857700994238257" lon="14.503610981628299">
        <ele>370.73000000000002</ele>
        <time>2013-09-04T14:27:33Z</time>
      </trkpt>
      <trkpt lat="50.857758997008204" lon="14.503897977992892">
        <ele>371.20999999999998</ele>
        <time>2013-09-04T14:27:35Z</time>
      </trkpt>
      <trkpt lat="50.857767965644598" lon="14.504069974645972">
        <ele>371.69</ele>
        <time>2013-09-04T14:27:36Z</time>
      </trkpt>
      <trkpt lat="50.857750028371811" lon="14.504253035411239">
        <ele>372.17000000000002</ele>
        <time>2013-09-04T14:27:37Z</time>
      </trkpt>
      <trkpt lat="50.857717003673315" lon="14.504441041499376">
        <ele>372.17000000000002</ele>
        <time>2013-09-04T14:27:38Z</time>
      </trkpt>
      <trkpt lat="50.857680039480329" lon="14.504625024273992">
        <ele>372.64999999999998</ele>
        <time>2013-09-04T14:27:39Z</time>
      </trkpt>
      <trkpt lat="50.857290029525757" lon="14.505878034979105">
        <ele>373.61000000000001</ele>
        <time>2013-09-04T14:27:46Z</time>
      </trkpt>
      <trkpt lat="50.857262033969164" lon="14.506069980561733">
        <ele>374.56999999999999</ele>
        <time>2013-09-04T14:27:47Z</time>
      </trkpt>
      <trkpt lat="50.857248036190867" lon="14.506275001913309">
        <ele>375.52999999999997</ele>
        <time>2013-09-04T14:27:48Z</time>
      </trkpt>
      <trkpt lat="50.857135970145464" lon="14.508463013917208">
        <ele>382.25999999999999</ele>
        <time>2013-09-04T14:27:58Z</time>
      </trkpt>
      <trkpt lat="50.856789965182543" lon="14.510190021246672">
        <ele>387.55000000000001</ele>
        <time>2013-09-04T14:28:06Z</time>
      </trkpt>
      <trkpt lat="50.856605982407928" lon="14.511899007484317">
        <ele>390.43000000000001</ele>
        <time>2013-09-04T14:28:14Z</time>
      </trkpt>
      <trkpt lat="50.856487965211272" lon="14.512234032154083">
        <ele>390.91000000000003</ele>
        <time>2013-09-04T14:28:16Z</time>
      </trkpt>
      <trkpt lat="50.856386963278055" lon="14.512707022950053">
        <ele>390.91000000000003</ele>
        <time>2013-09-04T14:28:19Z</time>
      </trkpt>
      <trkpt lat="50.856410013511777" lon="14.512882037088275">
        <ele>390.91000000000003</ele>
        <time>2013-09-04T14:28:20Z</time>
      </trkpt>
      <trkpt lat="50.856443038210273" lon="14.513046992942691">
        <ele>390.91000000000003</ele>
        <time>2013-09-04T14:28:21Z</time>
      </trkpt>
      <trkpt lat="50.856496011838317" lon="14.513210020959377">
        <ele>390.91000000000003</ele>
        <time>2013-09-04T14:28:22Z</time>
      </trkpt>
      <trkpt lat="50.856552002951503" lon="14.513371959328651">
        <ele>391.38999999999999</ele>
        <time>2013-09-04T14:28:23Z</time>
      </trkpt>
      <trkpt lat="50.856706984341145" lon="14.513884009793401">
        <ele>391.38999999999999</ele>
        <time>2013-09-04T14:28:26Z</time>
      </trkpt>
      <trkpt lat="50.856730034574866" lon="14.514081990346313">
        <ele>391.38999999999999</ele>
        <time>2013-09-04T14:28:27Z</time>
      </trkpt>
      <trkpt lat="50.85673900321126" lon="14.514276031404734">
        <ele>390.91000000000003</ele>
        <time>2013-09-04T14:28:28Z</time>
      </trkpt>
      <trkpt lat="50.856731962412596" lon="14.5144849922508">
        <ele>390.91000000000003</ele>
        <time>2013-09-04T14:28:29Z</time>
      </trkpt>
      <trkpt lat="50.856712013483047" lon="14.514670986682177">
        <ele>389.94999999999999</ele>
        <time>2013-09-04T14:28:30Z</time>
      </trkpt>
      <trkpt lat="50.856683012098074" lon="14.514853041619062">
        <ele>389.94999999999999</ele>
        <time>2013-09-04T14:28:31Z</time>
      </trkpt>
      <trkpt lat="50.856402972713113" lon="14.517059996724129">
        <ele>391.38999999999999</ele>
        <time>2013-09-04T14:28:44Z</time>
      </trkpt>
      <trkpt lat="50.856530964374542" lon="14.518602015450597">
        <ele>394.75999999999999</ele>
        <time>2013-09-04T14:28:55Z</time>
      </trkpt>
      <trkpt lat="50.856561977416277" lon="14.518729001283646">
        <ele>394.75999999999999</ele>
        <time>2013-09-04T14:28:56Z</time>
      </trkpt>
      <trkpt lat="50.856651999056339" lon="14.519100990146399">
        <ele>397.63999999999999</ele>
        <time>2013-09-04T14:28:59Z</time>
      </trkpt>
      <trkpt lat="50.856644958257675" lon="14.519214984029531">
        <ele>397.63999999999999</ele>
        <time>2013-09-04T14:29:00Z</time>
      </trkpt>
      <trkpt lat="50.856620986014605" lon="14.519333001226187">
        <ele>397.63999999999999</ele>
        <time>2013-09-04T14:29:01Z</time>
      </trkpt>
      <trkpt lat="50.856513027101755" lon="14.519632989540696">
        <ele>397.63999999999999</ele>
        <time>2013-09-04T14:29:04Z</time>
      </trkpt>
      <trkpt lat="50.856187976896763" lon="14.520484004169703">
        <ele>398.12</ele>
        <time>2013-09-04T14:29:12Z</time>
      </trkpt>
      <trkpt lat="50.85607498884201" lon="14.520969986915588">
        <ele>397.63999999999999</ele>
        <time>2013-09-04T14:29:16Z</time>
      </trkpt>
      <trkpt lat="50.856055961921811" lon="14.521104013547301">
        <ele>398.12</ele>
        <time>2013-09-04T14:29:17Z</time>
      </trkpt>
      <trkpt lat="50.856040958315134" lon="14.521238040179014">
        <ele>400.05000000000001</ele>
        <time>2013-09-04T14:29:18Z</time>
      </trkpt>
      <trkpt lat="50.856044981628656" lon="14.521387992426753">
        <ele>400.05000000000001</ele>
        <time>2013-09-04T14:29:19Z</time>
      </trkpt>
      <trkpt lat="50.856047999113798" lon="14.521540040150285">
        <ele>401.00999999999999</ele>
        <time>2013-09-04T14:29:20Z</time>
      </trkpt>
      <trkpt lat="50.856326026841998" lon="14.523428985849023">
        <ele>407.74000000000001</ele>
        <time>2013-09-04T14:29:32Z</time>
      </trkpt>
      <trkpt lat="50.856674965471029" lon="14.524412015452981">
        <ele>413.5</ele>
        <time>2013-09-04T14:29:40Z</time>
      </trkpt>
      <trkpt lat="50.857043014839292" lon="14.525150964036584">
        <ele>419.26999999999998</ele>
        <time>2013-09-04T14:29:48Z</time>
      </trkpt>
      <trkpt lat="50.857468983158469" lon="14.525767033919692">
        <ele>421.68000000000001</ele>
        <time>2013-09-04T14:29:53Z</time>
      </trkpt>
      <trkpt lat="50.857546012848616" lon="14.525862000882626">
        <ele>422.16000000000003</ele>
        <time>2013-09-04T14:29:54Z</time>
      </trkpt>
      <trkpt lat="50.85764299146831" lon="14.525931989774108">
        <ele>423.12</ele>
        <time>2013-09-04T14:29:55Z</time>
      </trkpt>
      <trkpt lat="50.858750995248556" lon="14.526488967239857">
        <ele>428.39999999999998</ele>
        <time>2013-09-04T14:30:05Z</time>
      </trkpt>
      <trkpt lat="50.859012007713318" lon="14.526693988591433">
        <ele>432.73000000000002</ele>
        <time>2013-09-04T14:30:10Z</time>
      </trkpt>
      <trkpt lat="50.859047966077924" lon="14.526713015511632">
        <ele>433.20999999999998</ele>
        <time>2013-09-04T14:30:11Z</time>
      </trkpt>
      <trkpt lat="50.859075961634517" lon="14.526770012453198">
        <ele>435.13</ele>
        <time>2013-09-04T14:30:12Z</time>
      </trkpt>
      <trkpt lat="50.859088031575084" lon="14.526890041306615">
        <ele>436.10000000000002</ele>
        <time>2013-09-04T14:30:14Z</time>
      </trkpt>
      <trkpt lat="50.859084008261561" lon="14.527135966345668">
        <ele>437.06</ele>
        <time>2013-09-04T14:30:19Z</time>
      </trkpt>
      <trkpt lat="50.859110997989774" lon="14.527148958295584">
        <ele>440.42000000000002</ele>
        <time>2013-09-04T14:30:24Z</time>
      </trkpt>
      <trkpt lat="50.859132036566734" lon="14.526990037411451">
        <ele>443.31</ele>
        <time>2013-09-04T14:30:35Z</time>
      </trkpt>
      <trkpt lat="50.860010040923953" lon="14.527086010202765">
        <ele>437.54000000000002</ele>
        <time>2013-09-04T14:34:07Z</time>
      </trkpt>
      <trkpt lat="50.86120898835361" lon="14.527793023735285">
        <ele>451</ele>
        <time>2013-09-04T14:34:16Z</time>
      </trkpt>
      <trkpt lat="50.862397039309144" lon="14.528929023072124">
        <ele>456.27999999999997</ele>
        <time>2013-09-04T14:34:25Z</time>
      </trkpt>
      <trkpt lat="50.863566985353827" lon="14.530016994103789">
        <ele>463.00999999999999</ele>
        <time>2013-09-04T14:34:35Z</time>
      </trkpt>
      <trkpt lat="50.863677961751819" lon="14.530079020187259">
        <ele>463.00999999999999</ele>
        <time>2013-09-04T14:34:36Z</time>
      </trkpt>
      <trkpt lat="50.863778041675687" lon="14.530111961066723">
        <ele>463.49000000000001</ele>
        <time>2013-09-04T14:34:37Z</time>
      </trkpt>
      <trkpt lat="50.863878037780523" lon="14.530109027400613">
        <ele>463.97000000000003</ele>
        <time>2013-09-04T14:34:38Z</time>
      </trkpt>
      <trkpt lat="50.86397903971374" lon="14.530088994652033">
        <ele>464.44999999999999</ele>
        <time>2013-09-04T14:34:39Z</time>
      </trkpt>
      <trkpt lat="50.864077024161816" lon="14.530042978003621">
        <ele>463.49000000000001</ele>
        <time>2013-09-04T14:34:40Z</time>
      </trkpt>
      <trkpt lat="50.864180959761143" lon="14.529976006597281">
        <ele>463.97000000000003</ele>
        <time>2013-09-04T14:34:41Z</time>
      </trkpt>
      <trkpt lat="50.864291014149785" lon="14.529904006049037">
        <ele>464.44999999999999</ele>
        <time>2013-09-04T14:34:42Z</time>
      </trkpt>
      <trkpt lat="50.865532960742712" lon="14.529081992805004">
        <ele>467.81999999999999</ele>
        <time>2013-09-04T14:34:52Z</time>
      </trkpt>
      <trkpt lat="50.865627005696297" lon="14.529049973934889">
        <ele>467.81999999999999</ele>
        <time>2013-09-04T14:34:53Z</time>
      </trkpt>
      <trkpt lat="50.865701017901301" lon="14.529045028612018">
        <ele>467.81999999999999</ele>
        <time>2013-09-04T14:34:54Z</time>
      </trkpt>
      <trkpt lat="50.86576396599412" lon="14.529059026390314">
        <ele>468.30000000000001</ele>
        <time>2013-09-04T14:34:55Z</time>
      </trkpt>
      <trkpt lat="50.866055991500616" lon="14.529160028323531">
        <ele>468.77999999999997</ele>
        <time>2013-09-04T14:35:00Z</time>
      </trkpt>
      <trkpt lat="50.866113994270563" lon="14.529120968654752">
        <ele>468.77999999999997</ele>
        <time>2013-09-04T14:35:01Z</time>
      </trkpt>
      <trkpt lat="50.866168979555368" lon="14.529053997248411">
        <ele>468.77999999999997</ele>
        <time>2013-09-04T14:35:02Z</time>
      </trkpt>
      <trkpt lat="50.86623796261847" lon="14.528973028063774">
        <ele>469.25999999999999</ele>
        <time>2013-09-04T14:35:03Z</time>
      </trkpt>
      <trkpt lat="50.866304012015462" lon="14.528880994766951">
        <ele>469.25999999999999</ele>
        <time>2013-09-04T14:35:04Z</time>
      </trkpt>
      <trkpt lat="50.86636696010828" lon="14.528776975348592">
        <ele>469.74000000000001</ele>
        <time>2013-09-04T14:35:05Z</time>
      </trkpt>
      <trkpt lat="50.866598971188068" lon="14.528457960113883">
        <ele>471.66000000000003</ele>
        <time>2013-09-04T14:35:08Z</time>
      </trkpt>
      <trkpt lat="50.866695027798414" lon="14.528359975665808">
        <ele>472.63</ele>
        <time>2013-09-04T14:35:09Z</time>
      </trkpt>
      <trkpt lat="50.866786977276206" lon="14.528279006481171">
        <ele>473.58999999999997</ele>
        <time>2013-09-04T14:35:10Z</time>
      </trkpt>
      <trkpt lat="50.867500025779009" lon="14.527652962133288">
        <ele>476.94999999999999</ele>
        <time>2013-09-04T14:35:17Z</time>
      </trkpt>
      <trkpt lat="50.868421029299498" lon="14.526426019147038">
        <ele>475.99000000000001</ele>
        <time>2013-09-04T14:35:25Z</time>
      </trkpt>
      <trkpt lat="50.869829021394253" lon="14.524287963286042">
        <ele>484.63999999999999</ele>
        <time>2013-09-04T14:35:37Z</time>
      </trkpt>
      <trkpt lat="50.871171969920397" lon="14.522492978721857">
        <ele>491.37</ele>
        <time>2013-09-04T14:35:47Z</time>
      </trkpt>
      <trkpt lat="50.871426025405526" lon="14.522201959043741">
        <ele>492.32999999999998</ele>
        <time>2013-09-04T14:35:49Z</time>
      </trkpt>
      <trkpt lat="50.871558962389827" lon="14.522086959332228">
        <ele>492.81</ele>
        <time>2013-09-04T14:35:50Z</time>
      </trkpt>
      <trkpt lat="50.871708998456597" lon="14.521996015682817">
        <ele>492.81</ele>
        <time>2013-09-04T14:35:51Z</time>
      </trkpt>
      <trkpt lat="50.873188991099596" lon="14.521286990493536">
        <ele>490.88999999999999</ele>
        <time>2013-09-04T14:35:59Z</time>
      </trkpt>
      <trkpt lat="50.875161001458764" lon="14.520567990839481">
        <ele>488.97000000000003</ele>
        <time>2013-09-04T14:36:09Z</time>
      </trkpt>
      <trkpt lat="50.877299979329109" lon="14.520288035273552">
        <ele>494.25999999999999</ele>
        <time>2013-09-04T14:36:20Z</time>
      </trkpt>
      <trkpt lat="50.877799959853292" lon="14.520289041101933">
        <ele>497.13999999999999</ele>
        <time>2013-09-04T14:36:23Z</time>
      </trkpt>
      <trkpt lat="50.878733033314347" lon="14.520491966977715">
        <ele>500.98000000000002</ele>
        <time>2013-09-04T14:36:29Z</time>
      </trkpt>
      <trkpt lat="50.879827039316297" lon="14.52024201862514">
        <ele>481.27999999999997</ele>
        <time>2013-09-04T14:36:37Z</time>
      </trkpt>
      <trkpt lat="50.879957964643836" lon="14.52024201862514">
        <ele>479.83999999999997</ele>
        <time>2013-09-04T14:36:38Z</time>
      </trkpt>
      <trkpt lat="50.880084028467536" lon="14.520265990868211">
        <ele>478.38999999999999</ele>
        <time>2013-09-04T14:36:39Z</time>
      </trkpt>
      <trkpt lat="50.880672018975019" lon="14.520443016663194">
        <ele>469.74000000000001</ele>
        <time>2013-09-04T14:36:46Z</time>
      </trkpt>
      <trkpt lat="50.880700014531612" lon="14.520474029704928">
        <ele>468.30000000000001</ele>
        <time>2013-09-04T14:36:47Z</time>
      </trkpt>
      <trkpt lat="50.880701020359993" lon="14.520525997504592">
        <ele>466.86000000000001</ele>
        <time>2013-09-04T14:36:48Z</time>
      </trkpt>
      <trkpt lat="50.880707977339625" lon="14.520603027194738">
        <ele>465.89999999999998</ele>
        <time>2013-09-04T14:36:49Z</time>
      </trkpt>
      <trkpt lat="50.880714012309909" lon="14.520677961409092">
        <ele>465.42000000000002</ele>
        <time>2013-09-04T14:36:50Z</time>
      </trkpt>
      <trkpt lat="50.880712000653148" lon="14.520754991099238">
        <ele>465.42000000000002</ele>
        <time>2013-09-04T14:36:51Z</time>
      </trkpt>
      <trkpt lat="50.880734967067838" lon="14.521023966372013">
        <ele>464.93000000000001</ele>
        <time>2013-09-04T14:36:54Z</time>
      </trkpt>
      <trkpt lat="50.880737984552979" lon="14.521141983568668">
        <ele>465.42000000000002</ele>
        <time>2013-09-04T14:36:55Z</time>
      </trkpt>
      <trkpt lat="50.880730021744967" lon="14.521612962707877">
        <ele>464.44999999999999</ele>
        <time>2013-09-04T14:36:58Z</time>
      </trkpt>
      <trkpt lat="50.880739996209741" lon="14.521801974624395">
        <ele>465.89999999999998</ele>
        <time>2013-09-04T14:36:59Z</time>
      </trkpt>
      <trkpt lat="50.880903024226427" lon="14.523758981376886">
        <ele>464.93000000000001</ele>
        <time>2013-09-04T14:37:07Z</time>
      </trkpt>
      <trkpt lat="50.881083989515901" lon="14.527493035420775">
        <ele>467.33999999999997</ele>
        <time>2013-09-04T14:37:19Z</time>
      </trkpt>
      <trkpt lat="50.881018023937941" lon="14.529705019667745">
        <ele>468.30000000000001</ele>
        <time>2013-09-04T14:37:26Z</time>
      </trkpt>
      <trkpt lat="50.881056999787688" lon="14.530004002153873">
        <ele>468.30000000000001</ele>
        <time>2013-09-04T14:37:27Z</time>
      </trkpt>
      <trkpt lat="50.881113996729255" lon="14.530295021831989">
        <ele>466.86000000000001</ele>
        <time>2013-09-04T14:37:28Z</time>
      </trkpt>
      <trkpt lat="50.881602996960282" lon="14.532691994681954">
        <ele>459.17000000000002</ele>
        <time>2013-09-04T14:37:36Z</time>
      </trkpt>
      <trkpt lat="50.882387962192297" lon="14.538659993559122">
        <ele>438.5</ele>
        <time>2013-09-04T14:37:55Z</time>
      </trkpt>
      <trkpt lat="50.882560964673758" lon="14.540124982595444">
        <ele>436.10000000000002</ele>
        <time>2013-09-04T14:38:00Z</time>
      </trkpt>
      <trkpt lat="50.882555013522506" lon="14.540687995031476">
        <ele>434.17000000000002</ele>
        <time>2013-09-04T14:38:02Z</time>
      </trkpt>
      <trkpt lat="50.882550990208983" lon="14.540958981961012">
        <ele>434.17000000000002</ele>
        <time>2013-09-04T14:38:03Z</time>
      </trkpt>
      <trkpt lat="50.882490975782275" lon="14.542202018201351">
        <ele>429.85000000000002</ele>
        <time>2013-09-04T14:38:08Z</time>
      </trkpt>
      <trkpt lat="50.882454011589289" lon="14.542410979047418">
        <ele>428.88999999999999</ele>
        <time>2013-09-04T14:38:09Z</time>
      </trkpt>
      <trkpt lat="50.88241302408278" lon="14.542613988742232">
        <ele>428.88999999999999</ele>
        <time>2013-09-04T14:38:10Z</time>
      </trkpt>
      <trkpt lat="50.882361978292465" lon="14.542805012315512">
        <ele>428.39999999999998</ele>
        <time>2013-09-04T14:38:11Z</time>
      </trkpt>
      <trkpt lat="50.88230699300766" lon="14.542988995090127">
        <ele>427.44</ele>
        <time>2013-09-04T14:38:12Z</time>
      </trkpt>
      <trkpt lat="50.881530996412039" lon="14.545335005968809">
        <ele>428.88999999999999</ele>
        <time>2013-09-04T14:38:25Z</time>
      </trkpt>
      <trkpt lat="50.881452038884163" lon="14.545490993186831">
        <ele>428.88999999999999</ele>
        <time>2013-09-04T14:38:26Z</time>
      </trkpt>
      <trkpt lat="50.881360005587339" lon="14.545632982626557">
        <ele>428.88999999999999</ele>
        <time>2013-09-04T14:38:27Z</time>
      </trkpt>
      <trkpt lat="50.880758017301559" lon="14.546469999477267">
        <ele>426.48000000000002</ele>
        <time>2013-09-04T14:38:33Z</time>
      </trkpt>
      <trkpt lat="50.880685010924935" lon="14.54664702527225">
        <ele>427.92000000000002</ele>
        <time>2013-09-04T14:38:34Z</time>
      </trkpt>
      <trkpt lat="50.880618039518595" lon="14.546823967248201">
        <ele>427.44</ele>
        <time>2013-09-04T14:38:35Z</time>
      </trkpt>
      <trkpt lat="50.880562970414758" lon="14.547025971114635">
        <ele>428.39999999999998</ele>
        <time>2013-09-04T14:38:36Z</time>
      </trkpt>
      <trkpt lat="50.880512008443475" lon="14.547234009951353">
        <ele>429.37</ele>
        <time>2013-09-04T14:38:37Z</time>
      </trkpt>
      <trkpt lat="50.87966401129961" lon="14.549894006922841">
        <ele>435.13</ele>
        <time>2013-09-04T14:38:51Z</time>
      </trkpt>
      <trkpt lat="50.879138968884945" lon="14.552152007818222">
        <ele>435.61000000000001</ele>
        <time>2013-09-04T14:39:02Z</time>
      </trkpt>
      <trkpt lat="50.878624990582466" lon="14.555831998586655">
        <ele>438.98000000000002</ele>
        <time>2013-09-04T14:39:19Z</time>
      </trkpt>
      <trkpt lat="50.878175972029567" lon="14.558316981419921">
        <ele>443.31</ele>
        <time>2013-09-04T14:39:30Z</time>
      </trkpt>
      <trkpt lat="50.877560991793871" lon="14.561091978102922">
        <ele>444.75</ele>
        <time>2013-09-04T14:39:40Z</time>
      </trkpt>
      <trkpt lat="50.877467030659318" lon="14.561338992789388">
        <ele>444.75</ele>
        <time>2013-09-04T14:39:41Z</time>
      </trkpt>
      <trkpt lat="50.877353958785534" lon="14.561569998040795">
        <ele>444.75</ele>
        <time>2013-09-04T14:39:42Z</time>
      </trkpt>
      <trkpt lat="50.876518031582236" lon="14.563527004793286">
        <ele>444.75</ele>
        <time>2013-09-04T14:39:50Z</time>
      </trkpt>
      <trkpt lat="50.87573298253119" lon="14.565980974584818">
        <ele>435.61000000000001</ele>
        <time>2013-09-04T14:39:59Z</time>
      </trkpt>
      <trkpt lat="50.875712027773261" lon="14.566274005919695">
        <ele>436.10000000000002</ele>
        <time>2013-09-04T14:40:00Z</time>
      </trkpt>
      <trkpt lat="50.875720996409655" lon="14.566566031426191">
        <ele>436.57999999999998</ele>
        <time>2013-09-04T14:40:01Z</time>
      </trkpt>
      <trkpt lat="50.87573298253119" lon="14.56890600733459">
        <ele>440.42000000000002</ele>
        <time>2013-09-04T14:40:09Z</time>
      </trkpt>
      <trkpt lat="50.875687971711159" lon="14.569351002573967">
        <ele>441.86000000000001</ele>
        <time>2013-09-04T14:40:11Z</time>
      </trkpt>
      <trkpt lat="50.875267032533884" lon="14.571036016568542">
        <ele>444.26999999999998</ele>
        <time>2013-09-04T14:40:20Z</time>
      </trkpt>
      <trkpt lat="50.875229984521866" lon="14.57122896797955">
        <ele>444.75</ele>
        <time>2013-09-04T14:40:21Z</time>
      </trkpt>
      <trkpt lat="50.875182962045074" lon="14.571615038439631">
        <ele>445.23000000000002</ele>
        <time>2013-09-04T14:40:23Z</time>
      </trkpt>
      <trkpt lat="50.875172987580299" lon="14.571810001507401">
        <ele>445.70999999999998</ele>
        <time>2013-09-04T14:40:24Z</time>
      </trkpt>
      <trkpt lat="50.875128982588649" lon="14.573942022398114">
        <ele>446.19</ele>
        <time>2013-09-04T14:40:36Z</time>
      </trkpt>
      <trkpt lat="50.875021023675799" lon="14.576174961403012">
        <ele>437.06</ele>
        <time>2013-09-04T14:40:48Z</time>
      </trkpt>
      <trkpt lat="50.87485296651721" lon="14.579017013311386">
        <ele>424.56</ele>
        <time>2013-09-04T14:41:01Z</time>
      </trkpt>
      <trkpt lat="50.874771997332573" lon="14.581958977505565">
        <ele>415.43000000000001</ele>
        <time>2013-09-04T14:41:12Z</time>
      </trkpt>
      <trkpt lat="50.874800998717546" lon="14.582181014120579">
        <ele>414.47000000000003</ele>
        <time>2013-09-04T14:41:13Z</time>
      </trkpt>
      <trkpt lat="50.874995039775968" lon="14.583262028172612">
        <ele>410.62</ele>
        <time>2013-09-04T14:41:19Z</time>
      </trkpt>
      <trkpt lat="50.874986993148923" lon="14.58340804092586">
        <ele>409.66000000000003</ele>
        <time>2013-09-04T14:41:20Z</time>
      </trkpt>
      <trkpt lat="50.87493896484375" lon="14.583534020930529">
        <ele>409.18000000000001</ele>
        <time>2013-09-04T14:41:21Z</time>
      </trkpt>
      <trkpt lat="50.874865036457777" lon="14.583649020642042">
        <ele>408.69999999999999</ele>
        <time>2013-09-04T14:41:22Z</time>
      </trkpt>
      <trkpt lat="50.874776020646095" lon="14.583744993433356">
        <ele>408.69999999999999</ele>
        <time>2013-09-04T14:41:23Z</time>
      </trkpt>
      <trkpt lat="50.874674012884498" lon="14.583826968446374">
        <ele>408.69999999999999</ele>
        <time>2013-09-04T14:41:24Z</time>
      </trkpt>
      <trkpt lat="50.874557001516223" lon="14.583901986479759">
        <ele>409.18000000000001</ele>
        <time>2013-09-04T14:41:25Z</time>
      </trkpt>
      <trkpt lat="50.873515969142318" lon="14.584487965330482">
        <ele>410.13999999999999</ele>
        <time>2013-09-04T14:41:34Z</time>
      </trkpt>
      <trkpt lat="50.873250011354685" lon="14.584661973640323">
        <ele>410.13999999999999</ele>
        <time>2013-09-04T14:41:37Z</time>
      </trkpt>
      <trkpt lat="50.873212041333318" lon="14.584733974188566">
        <ele>410.13999999999999</ele>
        <time>2013-09-04T14:41:38Z</time>
      </trkpt>
      <trkpt lat="50.873227966949344" lon="14.584895996376872">
        <ele>410.13999999999999</ele>
        <time>2013-09-04T14:41:40Z</time>
      </trkpt>
      <trkpt lat="50.873275995254517" lon="14.5849550049752">
        <ele>410.13999999999999</ele>
        <time>2013-09-04T14:41:41Z</time>
      </trkpt>
      <trkpt lat="50.87332796305418" lon="14.584988029673696">
        <ele>410.13999999999999</ele>
        <time>2013-09-04T14:41:42Z</time>
      </trkpt>
      <trkpt lat="50.873383032158017" lon="14.585006972774863">
        <ele>409.66000000000003</ele>
        <time>2013-09-04T14:41:43Z</time>
      </trkpt>
      <trkpt lat="50.87343298830092" lon="14.58502097055316">
        <ele>409.66000000000003</ele>
        <time>2013-09-04T14:41:44Z</time>
      </trkpt>
      <trkpt lat="50.873479004949331" lon="14.585018958896399">
        <ele>409.18000000000001</ele>
        <time>2013-09-04T14:41:45Z</time>
      </trkpt>
      <trkpt lat="50.87351999245584" lon="14.584993980824947">
        <ele>409.18000000000001</ele>
        <time>2013-09-04T14:41:46Z</time>
      </trkpt>
      <trkpt lat="50.873544970527291" lon="14.584962967783213">
        <ele>409.18000000000001</ele>
        <time>2013-09-04T14:41:47Z</time>
      </trkpt>
      <trkpt lat="50.873565003275871" lon="14.584929021075368">
        <ele>409.18000000000001</ele>
        <time>2013-09-04T14:41:48Z</time>
      </trkpt>
      <trkpt lat="50.873572966083884" lon="14.584905970841646">
        <ele>409.18000000000001</ele>
        <time>2013-09-04T14:41:49Z</time>
      </trkpt>
      <trkpt lat="50.873570032417774" lon="14.584872024133801">
        <ele>408.69999999999999</ele>
        <time>2013-09-04T14:42:03Z</time>
      </trkpt>
      <trkpt lat="50.873544970527291" lon="14.584791976958513">
        <ele>407.25999999999999</ele>
        <time>2013-09-04T14:42:35Z</time>
      </trkpt>
      <trkpt lat="50.873556034639478" lon="14.5848030410707">
        <ele>407.25999999999999</ele>
        <time>2013-09-04T14:43:12Z</time>
      </trkpt>
      <trkpt lat="50.873606996610761" lon="14.584817038848996">
        <ele>406.76999999999998</ele>
        <time>2013-09-04T14:43:39Z</time>
      </trkpt>
      <trkpt lat="50.873985020443797" lon="14.584793988615274">
        <ele>375.52999999999997</ele>
        <time>2013-09-04T14:46:10Z</time>
      </trkpt>
      <trkpt lat="50.87360599078238" lon="14.584480002522469">
        <ele>410.13999999999999</ele>
        <time>2013-09-04T14:46:24Z</time>
      </trkpt>
      <trkpt lat="50.873559974133968" lon="14.584417976438999">
        <ele>410.62</ele>
        <time>2013-09-04T14:46:26Z</time>
      </trkpt>
      <trkpt lat="50.873500965535641" lon="14.584412025287747">
        <ele>409.66000000000003</ele>
        <time>2013-09-04T14:46:27Z</time>
      </trkpt>
      <trkpt lat="50.873418990522623" lon="14.584424011409283">
        <ele>409.18000000000001</ele>
        <time>2013-09-04T14:46:28Z</time>
      </trkpt>
      <trkpt lat="50.873326035216451" lon="14.584472039714456">
        <ele>408.69999999999999</ele>
        <time>2013-09-04T14:46:29Z</time>
      </trkpt>
      <trkpt lat="50.873215980827808" lon="14.584538005292416">
        <ele>408.22000000000003</ele>
        <time>2013-09-04T14:46:30Z</time>
      </trkpt>
      <trkpt lat="50.872077969834208" lon="14.585202019661665">
        <ele>408.22000000000003</ele>
        <time>2013-09-04T14:46:38Z</time>
      </trkpt>
      <trkpt lat="50.870746001601219" lon="14.586210027337074">
        <ele>410.13999999999999</ele>
        <time>2013-09-04T14:46:46Z</time>
      </trkpt>
      <trkpt lat="50.870623961091042" lon="14.586401972919703">
        <ele>410.13999999999999</ele>
        <time>2013-09-04T14:46:47Z</time>
      </trkpt>
      <trkpt lat="50.870092967525125" lon="14.587180987000465">
        <ele>410.13999999999999</ele>
        <time>2013-09-04T14:46:51Z</time>
      </trkpt>
      <trkpt lat="50.869928011670709" lon="14.587294980883598">
        <ele>410.13999999999999</ele>
        <time>2013-09-04T14:46:52Z</time>
      </trkpt>
      <trkpt lat="50.8697609603405" lon="14.587375028058887">
        <ele>410.62</ele>
        <time>2013-09-04T14:46:53Z</time>
      </trkpt>
      <trkpt lat="50.869576977565885" lon="14.587409980595112">
        <ele>410.62</ele>
        <time>2013-09-04T14:46:54Z</time>
      </trkpt>
      <trkpt lat="50.869402969256043" lon="14.58744702860713">
        <ele>411.57999999999998</ele>
        <time>2013-09-04T14:46:55Z</time>
      </trkpt>
      <trkpt lat="50.868238974362612" lon="14.587582983076572">
        <ele>417.82999999999998</ele>
        <time>2013-09-04T14:47:03Z</time>
      </trkpt>
      <trkpt lat="50.865476969629526" lon="14.587837038561702">
        <ele>424.07999999999998</ele>
        <time>2013-09-04T14:47:23Z</time>
      </trkpt>
      <trkpt lat="50.863838978111744" lon="14.587615001946688">
        <ele>428.88999999999999</ele>
        <time>2013-09-04T14:47:35Z</time>
      </trkpt>
      <trkpt lat="50.862867012619972" lon="14.587493967264891">
        <ele>431.29000000000002</ele>
        <time>2013-09-04T14:47:42Z</time>
      </trkpt>
      <trkpt lat="50.862730974331498" lon="14.587525986135006">
        <ele>431.76999999999998</ele>
        <time>2013-09-04T14:47:43Z</time>
      </trkpt>
      <trkpt lat="50.862598959356546" lon="14.587579965591431">
        <ele>432.25</ele>
        <time>2013-09-04T14:47:44Z</time>
      </trkpt>
      <trkpt lat="50.860893996432424" lon="14.588389992713928">
        <ele>437.06</ele>
        <time>2013-09-04T14:47:56Z</time>
      </trkpt>
      <trkpt lat="50.858709001913667" lon="14.589433958753943">
        <ele>443.79000000000002</ele>
        <time>2013-09-04T14:48:08Z</time>
      </trkpt>
      <trkpt lat="50.856511015444994" lon="14.590442972257733">
        <ele>454.83999999999997</ele>
        <time>2013-09-04T14:48:20Z</time>
      </trkpt>
      <trkpt lat="50.854899007827044" lon="14.591110004112124">
        <ele>458.69</ele>
        <time>2013-09-04T14:48:29Z</time>
      </trkpt>
      <trkpt lat="50.854718964546919" lon="14.591141017153859">
        <ele>459.64999999999998</ele>
        <time>2013-09-04T14:48:30Z</time>
      </trkpt>
      <trkpt lat="50.853505013510585" lon="14.591093994677067">
        <ele>464.93000000000001</ele>
        <time>2013-09-04T14:48:38Z</time>
      </trkpt>
      <trkpt lat="50.852157035842538" lon="14.591049989685416">
        <ele>471.18000000000001</ele>
        <time>2013-09-04T14:48:47Z</time>
      </trkpt>
      <trkpt lat="50.849990984424949" lon="14.590952005237341">
        <ele>484.16000000000003</ele>
        <time>2013-09-04T14:49:00Z</time>
      </trkpt>
      <trkpt lat="50.848300019279122" lon="14.590819990262389">
        <ele>497.62</ele>
        <time>2013-09-04T14:49:08Z</time>
      </trkpt>
      <trkpt lat="50.845293011516333" lon="14.590704990550876">
        <ele>525.5</ele>
        <time>2013-09-04T14:49:22Z</time>
      </trkpt>
      <trkpt lat="50.842385999858379" lon="14.59067003801465">
        <ele>549.04999999999995</ele>
        <time>2013-09-04T14:49:36Z</time>
      </trkpt>
      <trkpt lat="50.84221500903368" lon="14.590738015249372">
        <ele>551.45000000000005</ele>
        <time>2013-09-04T14:49:37Z</time>
      </trkpt>
      <trkpt lat="50.842059021815658" lon="14.590858966112137">
        <ele>553.38</ele>
        <time>2013-09-04T14:49:38Z</time>
      </trkpt>
      <trkpt lat="50.841918960213661" lon="14.591012019664049">
        <ele>556.25999999999999</ele>
        <time>2013-09-04T14:49:39Z</time>
      </trkpt>
      <trkpt lat="50.84180798381567" lon="14.591219974681735">
        <ele>557.70000000000005</ele>
        <time>2013-09-04T14:49:40Z</time>
      </trkpt>
      <trkpt lat="50.841711005195975" lon="14.591452991589904">
        <ele>558.65999999999997</ele>
        <time>2013-09-04T14:49:41Z</time>
      </trkpt>
      <trkpt lat="50.841619977727532" lon="14.59170101210475">
        <ele>559.62</ele>
        <time>2013-09-04T14:49:42Z</time>
      </trkpt>
      <trkpt lat="50.84060300141573" lon="14.594055991619825">
        <ele>574.52999999999997</ele>
        <time>2013-09-04T14:49:51Z</time>
      </trkpt>
      <trkpt lat="50.840054992586374" lon="14.595264997333288">
        <ele>584.62</ele>
        <time>2013-09-04T14:49:56Z</time>
      </trkpt>
      <trkpt lat="50.839928006753325" lon="14.595461972057819">
        <ele>587.01999999999998</ele>
        <time>2013-09-04T14:49:57Z</time>
      </trkpt>
      <trkpt lat="50.839790040627122" lon="14.595606978982687">
        <ele>587.98000000000002</ele>
        <time>2013-09-04T14:49:58Z</time>
      </trkpt>
      <trkpt lat="50.839648973196745" lon="14.59569901227951">
        <ele>589.42999999999995</ele>
        <time>2013-09-04T14:49:59Z</time>
      </trkpt>
      <trkpt lat="50.839501032605767" lon="14.595739999786019">
        <ele>589.42999999999995</ele>
        <time>2013-09-04T14:50:00Z</time>
      </trkpt>
      <trkpt lat="50.839345967397094" lon="14.595746034756303">
        <ele>588.95000000000005</ele>
        <time>2013-09-04T14:50:01Z</time>
      </trkpt>
      <trkpt lat="50.8391850348562" lon="14.595745028927922">
        <ele>588.46000000000004</ele>
        <time>2013-09-04T14:50:02Z</time>
      </trkpt>
      <trkpt lat="50.837664976716042" lon="14.595530033111572">
        <ele>582.70000000000005</ele>
        <time>2013-09-04T14:50:10Z</time>
      </trkpt>
      <trkpt lat="50.835758009925485" lon="14.594988981261849">
        <ele>571.63999999999999</ele>
        <time>2013-09-04T14:50:19Z</time>
      </trkpt>
      <trkpt lat="50.834465017542243" lon="14.593664975836873">
        <ele>566.83000000000004</ele>
        <time>2013-09-04T14:50:26Z</time>
      </trkpt>
      <trkpt lat="50.83235302940011" lon="14.591475035995245">
        <ele>552.40999999999997</ele>
        <time>2013-09-04T14:50:38Z</time>
      </trkpt>
      <trkpt lat="50.831388020887971" lon="14.590902971103787">
        <ele>549.04999999999995</ele>
        <time>2013-09-04T14:50:45Z</time>
      </trkpt>
      <trkpt lat="50.831306967884302" lon="14.590896014124155">
        <ele>548.57000000000005</ele>
        <time>2013-09-04T14:50:46Z</time>
      </trkpt>
      <trkpt lat="50.831243013963103" lon="14.590943036600947">
        <ele>548.57000000000005</ele>
        <time>2013-09-04T14:50:47Z</time>
      </trkpt>
      <trkpt lat="50.831195991486311" lon="14.591039009392262">
        <ele>548.09000000000003</ele>
        <time>2013-09-04T14:50:48Z</time>
      </trkpt>
      <trkpt lat="50.831167995929718" lon="14.591177981346846">
        <ele>547.61000000000001</ele>
        <time>2013-09-04T14:50:49Z</time>
      </trkpt>
      <trkpt lat="50.831145029515028" lon="14.591346038505435">
        <ele>546.64999999999998</ele>
        <time>2013-09-04T14:50:50Z</time>
      </trkpt>
      <trkpt lat="50.83112801425159" lon="14.59155298769474">
        <ele>545.69000000000005</ele>
        <time>2013-09-04T14:50:51Z</time>
      </trkpt>
      <trkpt lat="50.830986024811864" lon="14.593411004170775">
        <ele>538.48000000000002</ele>
        <time>2013-09-04T14:50:58Z</time>
      </trkpt>
      <trkpt lat="50.830582017078996" lon="14.598036976531148">
        <ele>534.14999999999998</ele>
        <time>2013-09-04T14:51:13Z</time>
      </trkpt>
      <trkpt lat="50.830456037074327" lon="14.59904900752008">
        <ele>536.54999999999995</ele>
        <time>2013-09-04T14:51:17Z</time>
      </trkpt>
      <trkpt lat="50.830401973798871" lon="14.599231984466314">
        <ele>537.02999999999997</ele>
        <time>2013-09-04T14:51:18Z</time>
      </trkpt>
      <trkpt lat="50.830332990735769" lon="14.599389983341098">
        <ele>537.02999999999997</ele>
        <time>2013-09-04T14:51:19Z</time>
      </trkpt>
      <trkpt lat="50.83024799823761" lon="14.599510012194514">
        <ele>536.54999999999995</ele>
        <time>2013-09-04T14:51:20Z</time>
      </trkpt>
      <trkpt lat="50.830135010182858" lon="14.599598022177815">
        <ele>536.54999999999995</ele>
        <time>2013-09-04T14:51:21Z</time>
      </trkpt>
      <trkpt lat="50.830005006864667" lon="14.59967396222055">
        <ele>536.07000000000005</ele>
        <time>2013-09-04T14:51:22Z</time>
      </trkpt>
      <trkpt lat="50.828905971720815" lon="14.600191963836551">
        <ele>536.07000000000005</ele>
        <time>2013-09-04T14:51:29Z</time>
      </trkpt>
      <trkpt lat="50.826890040189028" lon="14.601142974570394">
        <ele>522.61000000000001</ele>
        <time>2013-09-04T14:51:41Z</time>
      </trkpt>
      <trkpt lat="50.826099961996078" lon="14.601755021139979">
        <ele>517.80999999999995</ele>
        <time>2013-09-04T14:51:46Z</time>
      </trkpt>
      <trkpt lat="50.825967025011778" lon="14.601925006136298">
        <ele>517.80999999999995</ele>
        <time>2013-09-04T14:51:47Z</time>
      </trkpt>
      <trkpt lat="50.825097989290953" lon="14.603296034038067">
        <ele>519.25</ele>
        <time>2013-09-04T14:51:54Z</time>
      </trkpt>
      <trkpt lat="50.824290979653597" lon="14.605179028585553">
        <ele>517.80999999999995</ele>
        <time>2013-09-04T14:52:02Z</time>
      </trkpt>
      <trkpt lat="50.824226019904017" lon="14.605417996644974">
        <ele>519.73000000000002</ele>
        <time>2013-09-04T14:52:03Z</time>
      </trkpt>
      <trkpt lat="50.824095010757446" lon="14.606369007378817">
        <ele>522.61000000000001</ele>
        <time>2013-09-04T14:52:07Z</time>
      </trkpt>
      <trkpt lat="50.824105991050601" lon="14.606619039550424">
        <ele>523.09000000000003</ele>
        <time>2013-09-04T14:52:08Z</time>
      </trkpt>
      <trkpt lat="50.824129963293672" lon="14.606862030923367">
        <ele>524.53999999999996</ele>
        <time>2013-09-04T14:52:09Z</time>
      </trkpt>
      <trkpt lat="50.824557021260262" lon="14.608964966610074">
        <ele>531.75</ele>
        <time>2013-09-04T14:52:17Z</time>
      </trkpt>
      <trkpt lat="50.825083991512656" lon="14.611354982480407">
        <ele>538.96000000000004</ele>
        <time>2013-09-04T14:52:25Z</time>
      </trkpt>
      <trkpt lat="50.825460003688931" lon="14.613288016989827">
        <ele>551.45000000000005</ele>
        <time>2013-09-04T14:52:32Z</time>
      </trkpt>
      <trkpt lat="50.825524963438511" lon="14.613498989492655">
        <ele>553.86000000000001</ele>
        <time>2013-09-04T14:52:33Z</time>
      </trkpt>
      <trkpt lat="50.825602998957038" lon="14.613700993359089">
        <ele>556.25999999999999</ele>
        <time>2013-09-04T14:52:34Z</time>
      </trkpt>
      <trkpt lat="50.826260978356004" lon="14.615070009604096">
        <ele>555.77999999999997</ele>
        <time>2013-09-04T14:52:40Z</time>
      </trkpt>
      <trkpt lat="50.827417010441422" lon="14.617663035169244">
        <ele>547.61000000000001</ele>
        <time>2013-09-04T14:52:50Z</time>
      </trkpt>
      <trkpt lat="50.828219996765256" lon="14.619488026946783">
        <ele>540.39999999999998</ele>
        <time>2013-09-04T14:52:57Z</time>
      </trkpt>
      <trkpt lat="50.829661013558507" lon="14.622709024697542">
        <ele>525.01999999999998</ele>
        <time>2013-09-04T14:53:09Z</time>
      </trkpt>
      <trkpt lat="50.830740015953779" lon="14.62502402253449">
        <ele>517.33000000000004</ele>
        <time>2013-09-04T14:53:18Z</time>
      </trkpt>
      <trkpt lat="50.831206971779466" lon="14.626396978273988">
        <ele>523.58000000000004</ele>
        <time>2013-09-04T14:53:24Z</time>
      </trkpt>
      <trkpt lat="50.83121501840651" lon="14.626603005453944">
        <ele>524.53999999999996</ele>
        <time>2013-09-04T14:53:25Z</time>
      </trkpt>
      <trkpt lat="50.831206971779466" lon="14.626780031248927">
        <ele>524.53999999999996</ele>
        <time>2013-09-04T14:53:26Z</time>
      </trkpt>
      <trkpt lat="50.831122985109687" lon="14.626999972388148">
        <ele>524.05999999999995</ele>
        <time>2013-09-04T14:53:27Z</time>
      </trkpt>
      <trkpt lat="50.831067999824882" lon="14.627212034538388">
        <ele>524.53999999999996</ele>
        <time>2013-09-04T14:53:28Z</time>
      </trkpt>
      <trkpt lat="50.830457964912057" lon="14.629351012408733">
        <ele>527.41999999999996</ele>
        <time>2013-09-04T14:53:36Z</time>
      </trkpt>
      <trkpt lat="50.829512989148498" lon="14.632663037627935">
        <ele>535.11000000000001</ele>
        <time>2013-09-04T14:53:47Z</time>
      </trkpt>
      <trkpt lat="50.828803963959217" lon="14.635413978248835">
        <ele>537.99000000000001</ele>
        <time>2013-09-04T14:53:57Z</time>
      </trkpt>
      <trkpt lat="50.828772028908134" lon="14.635620005428791">
        <ele>538.96000000000004</ele>
        <time>2013-09-04T14:53:58Z</time>
      </trkpt>
      <trkpt lat="50.828777980059385" lon="14.635856039822102">
        <ele>538.96000000000004</ele>
        <time>2013-09-04T14:53:59Z</time>
      </trkpt>
      <trkpt lat="50.828802036121488" lon="14.636092996224761">
        <ele>539.91999999999996</ele>
        <time>2013-09-04T14:54:00Z</time>
      </trkpt>
      <trkpt lat="50.829096995294094" lon="14.63826097548008">
        <ele>542.32000000000005</ele>
        <time>2013-09-04T14:54:08Z</time>
      </trkpt>
      <trkpt lat="50.829287013038993" lon="14.639348024502397">
        <ele>548.09000000000003</ele>
        <time>2013-09-04T14:54:12Z</time>
      </trkpt>
      <trkpt lat="50.829362031072378" lon="14.639598978683352">
        <ele>550.97000000000003</ele>
        <time>2013-09-04T14:54:13Z</time>
      </trkpt>
      <trkpt lat="50.829451968893409" lon="14.639843981713057">
        <ele>550.97000000000003</ele>
        <time>2013-09-04T14:54:14Z</time>
      </trkpt>
      <trkpt lat="50.830289991572499" lon="14.64193501509726">
        <ele>550.00999999999999</ele>
        <time>2013-09-04T14:54:22Z</time>
      </trkpt>
      <trkpt lat="50.831014020368457" lon="14.643574012443423">
        <ele>552.40999999999997</ele>
        <time>2013-09-04T14:54:29Z</time>
      </trkpt>
      <trkpt lat="50.831116028130054" lon="14.643722036853433">
        <ele>553.38</ele>
        <time>2013-09-04T14:54:30Z</time>
      </trkpt>
      <trkpt lat="50.831232033669949" lon="14.643855979666114">
        <ele>553.86000000000001</ele>
        <time>2013-09-04T14:54:31Z</time>
      </trkpt>
      <trkpt lat="50.831347033381462" lon="14.643994029611349">
        <ele>555.29999999999995</ele>
        <time>2013-09-04T14:54:32Z</time>
      </trkpt>
      <trkpt lat="50.831475025042892" lon="14.644099976867437">
        <ele>555.77999999999997</ele>
        <time>2013-09-04T14:54:33Z</time>
      </trkpt>
      <trkpt lat="50.831591030582786" lon="14.644226040691137">
        <ele>556.74000000000001</ele>
        <time>2013-09-04T14:54:34Z</time>
      </trkpt>
      <trkpt lat="50.83170703612268" lon="14.644376998767257">
        <ele>557.22000000000003</ele>
        <time>2013-09-04T14:54:35Z</time>
      </trkpt>
      <trkpt lat="50.831789011135697" lon="14.644584031775594">
        <ele>557.70000000000005</ele>
        <time>2013-09-04T14:54:36Z</time>
      </trkpt>
      <trkpt lat="50.831862017512321" lon="14.644806990399957">
        <ele>559.13999999999999</ele>
        <time>2013-09-04T14:54:37Z</time>
      </trkpt>
      <trkpt lat="50.831931000575423" lon="14.645037995651364">
        <ele>560.11000000000001</ele>
        <time>2013-09-04T14:54:38Z</time>
      </trkpt>
      <trkpt lat="50.83207500167191" lon="14.64573503471911">
        <ele>562.99000000000001</ele>
        <time>2013-09-04T14:54:41Z</time>
      </trkpt>
      <trkpt lat="50.832110038027167" lon="14.645963022485375">
        <ele>562.99000000000001</ele>
        <time>2013-09-04T14:54:42Z</time>
      </trkpt>
      <trkpt lat="50.832130992785096" lon="14.646210037171841">
        <ele>563.47000000000003</ele>
        <time>2013-09-04T14:54:43Z</time>
      </trkpt>
      <trkpt lat="50.832141973078251" lon="14.646484963595867">
        <ele>564.42999999999995</ele>
        <time>2013-09-04T14:54:44Z</time>
      </trkpt>
      <trkpt lat="50.83213996142149" lon="14.646767014637589">
        <ele>564.90999999999997</ele>
        <time>2013-09-04T14:54:45Z</time>
      </trkpt>
      <trkpt lat="50.832120012491941" lon="14.648857964202762">
        <ele>565.87</ele>
        <time>2013-09-04T14:54:53Z</time>
      </trkpt>
      <trkpt lat="50.832148008048534" lon="14.649576041847467">
        <ele>562.50999999999999</ele>
        <time>2013-09-04T14:54:56Z</time>
      </trkpt>
      <trkpt lat="50.83218002691865" lon="14.649787014350295">
        <ele>561.54999999999995</ele>
        <time>2013-09-04T14:54:57Z</time>
      </trkpt>
      <trkpt lat="50.832230988889933" lon="14.649978959932923">
        <ele>560.59000000000003</ele>
        <time>2013-09-04T14:54:58Z</time>
      </trkpt>
      <trkpt lat="50.83231296390295" lon="14.65012296102941">
        <ele>561.07000000000005</ele>
        <time>2013-09-04T14:54:59Z</time>
      </trkpt>
      <trkpt lat="50.832407008856535" lon="14.650211976841092">
        <ele>561.07000000000005</ele>
        <time>2013-09-04T14:55:00Z</time>
      </trkpt>
      <trkpt lat="50.832515973597765" lon="14.650246007367969">
        <ele>560.59000000000003</ele>
        <time>2013-09-04T14:55:01Z</time>
      </trkpt>
      <trkpt lat="50.832634996622801" lon="14.650247013196349">
        <ele>561.54999999999995</ele>
        <time>2013-09-04T14:55:02Z</time>
      </trkpt>
      <trkpt lat="50.832756031304598" lon="14.650233015418053">
        <ele>561.54999999999995</ele>
        <time>2013-09-04T14:55:03Z</time>
      </trkpt>
      <trkpt lat="50.832882011309266" lon="14.650208037346601">
        <ele>562.02999999999997</ele>
        <time>2013-09-04T14:55:04Z</time>
      </trkpt>
      <trkpt lat="50.833702012896538" lon="14.649962028488517">
        <ele>562.02999999999997</ele>
        <time>2013-09-04T14:55:12Z</time>
      </trkpt>
      <trkpt lat="50.833778036758304" lon="14.649988012388349">
        <ele>561.54999999999995</ele>
        <time>2013-09-04T14:55:13Z</time>
      </trkpt>
      <trkpt lat="50.833838973194361" lon="14.650061018764973">
        <ele>561.54999999999995</ele>
        <time>2013-09-04T14:55:14Z</time>
      </trkpt>
      <trkpt lat="50.833882978186011" lon="14.650152968242764">
        <ele>561.54999999999995</ele>
        <time>2013-09-04T14:55:15Z</time>
      </trkpt>
      <trkpt lat="50.833908040076494" lon="14.650276014581323">
        <ele>560.59000000000003</ele>
        <time>2013-09-04T14:55:16Z</time>
      </trkpt>
      <trkpt lat="50.833908962085843" lon="14.650429990142584">
        <ele>559.62</ele>
        <time>2013-09-04T14:55:17Z</time>
      </trkpt>
      <trkpt lat="50.833909967914224" lon="14.650597041472793">
        <ele>558.17999999999995</ele>
        <time>2013-09-04T14:55:18Z</time>
      </trkpt>
      <trkpt lat="50.83392002619803" lon="14.650925025343895">
        <ele>555.29999999999995</ele>
        <time>2013-09-04T14:55:20Z</time>
      </trkpt>
      <trkpt lat="50.833968976512551" lon="14.651620974764228">
        <ele>550.00999999999999</ele>
        <time>2013-09-04T14:55:24Z</time>
      </trkpt>
      <trkpt lat="50.833949027583003" lon="14.651800012215972">
        <ele>548.57000000000005</ele>
        <time>2013-09-04T14:55:25Z</time>
      </trkpt>
      <trkpt lat="50.833534961566329" lon="14.654022976756096">
        <ele>537.02999999999997</ele>
        <time>2013-09-04T14:55:37Z</time>
      </trkpt>
      <trkpt lat="50.833429014310241" lon="14.654845995828509">
        <ele>533.66999999999996</ele>
        <time>2013-09-04T14:55:41Z</time>
      </trkpt>
      <trkpt lat="50.833429014310241" lon="14.655055962502956">
        <ele>533.19000000000005</ele>
        <time>2013-09-04T14:55:42Z</time>
      </trkpt>
      <trkpt lat="50.833571003749967" lon="14.656272009015083">
        <ele>526.46000000000004</ele>
        <time>2013-09-04T14:55:48Z</time>
      </trkpt>
      <trkpt lat="50.833675023168325" lon="14.656666964292526">
        <ele>523.58000000000004</ele>
        <time>2013-09-04T14:55:50Z</time>
      </trkpt>
      <trkpt lat="50.83402999676764" lon="14.658041009679437">
        <ele>508.19</ele>
        <time>2013-09-04T14:55:57Z</time>
      </trkpt>
      <trkpt lat="50.834012981504202" lon="14.658251982182264">
        <ele>504.82999999999998</ele>
        <time>2013-09-04T14:55:58Z</time>
      </trkpt>
      <trkpt lat="50.833946010097861" lon="14.660027017816901">
        <ele>495.22000000000003</ele>
        <time>2013-09-04T14:56:06Z</time>
      </trkpt>
      <trkpt lat="50.833913991227746" lon="14.660227010026574">
        <ele>493.76999999999998</ele>
        <time>2013-09-04T14:56:07Z</time>
      </trkpt>
      <trkpt lat="50.83385800011456" lon="14.660421973094344">
        <ele>492.81</ele>
        <time>2013-09-04T14:56:08Z</time>
      </trkpt>
      <trkpt lat="50.833649961277843" lon="14.661032008007169">
        <ele>487.52999999999997</ele>
        <time>2013-09-04T14:56:11Z</time>
      </trkpt>
      <trkpt lat="50.833612997084856" lon="14.661261001601815">
        <ele>486.56</ele>
        <time>2013-09-04T14:56:12Z</time>
      </trkpt>
      <trkpt lat="50.833595981821418" lon="14.661517990753055">
        <ele>485.12</ele>
        <time>2013-09-04T14:56:13Z</time>
      </trkpt>
      <trkpt lat="50.833609979599714" lon="14.664688026532531">
        <ele>462.52999999999997</ele>
        <time>2013-09-04T14:56:25Z</time>
      </trkpt>
      <trkpt lat="50.833582989871502" lon="14.665168980136514">
        <ele>458.20999999999998</ele>
        <time>2013-09-04T14:56:27Z</time>
      </trkpt>
      <trkpt lat="50.833538984879851" lon="14.665380958467722">
        <ele>456.75999999999999</ele>
        <time>2013-09-04T14:56:28Z</time>
      </trkpt>
      <trkpt lat="50.833472013473511" lon="14.665582040324807">
        <ele>455.31999999999999</ele>
        <time>2013-09-04T14:56:29Z</time>
      </trkpt>
      <trkpt lat="50.833249976858497" lon="14.666310008615255">
        <ele>448.58999999999997</ele>
        <time>2013-09-04T14:56:33Z</time>
      </trkpt>
      <trkpt lat="50.833218041807413" lon="14.666498014703393">
        <ele>448.11000000000001</ele>
        <time>2013-09-04T14:56:34Z</time>
      </trkpt>
      <trkpt lat="50.833141012117267" lon="14.667071001604199">
        <ele>447.63</ele>
        <time>2013-09-04T14:56:38Z</time>
      </trkpt>
      <trkpt lat="50.833089966326952" lon="14.667140990495682">
        <ele>447.63</ele>
        <time>2013-09-04T14:56:39Z</time>
      </trkpt>
      <trkpt lat="50.833004973828793" lon="14.667165968567133">
        <ele>446.67000000000002</ele>
        <time>2013-09-04T14:56:40Z</time>
      </trkpt>
      <trkpt lat="50.83187903277576" lon="14.66735296882689">
        <ele>442.33999999999997</ele>
        <time>2013-09-04T14:56:49Z</time>
      </trkpt>
      <trkpt lat="50.830990970134735" lon="14.667581040412188">
        <ele>439.45999999999998</ele>
        <time>2013-09-04T14:56:56Z</time>
      </trkpt>
      <trkpt lat="50.83052895963192" lon="14.667865019291639">
        <ele>438.01999999999998</ele>
        <time>2013-09-04T14:57:00Z</time>
      </trkpt>
      <trkpt lat="50.830411026254296" lon="14.667907012626529">
        <ele>437.54000000000002</ele>
        <time>2013-09-04T14:57:01Z</time>
      </trkpt>
      <trkpt lat="50.829635029658675" lon="14.667961997911334">
        <ele>435.61000000000001</ele>
        <time>2013-09-04T14:57:07Z</time>
      </trkpt>
      <trkpt lat="50.828018998727202" lon="14.667668966576457">
        <ele>431.76999999999998</ele>
        <time>2013-09-04T14:57:19Z</time>
      </trkpt>
      <trkpt lat="50.826277993619442" lon="14.667610041797161">
        <ele>424.07999999999998</ele>
        <time>2013-09-04T14:57:32Z</time>
      </trkpt>
      <trkpt lat="50.82455400377512" lon="14.667948000133038">
        <ele>420.70999999999998</ele>
        <time>2013-09-04T14:57:45Z</time>
      </trkpt>
      <trkpt lat="50.824443027377129" lon="14.667964009568095">
        <ele>420.70999999999998</ele>
        <time>2013-09-04T14:57:46Z</time>
      </trkpt>
      <trkpt lat="50.824338002130389" lon="14.668000973761082">
        <ele>420.70999999999998</ele>
        <time>2013-09-04T14:57:47Z</time>
      </trkpt>
      <trkpt lat="50.824243035167456" lon="14.66808202676475">
        <ele>420.70999999999998</ele>
        <time>2013-09-04T14:57:48Z</time>
      </trkpt>
      <trkpt lat="50.824155025184155" lon="14.668198032304645">
        <ele>420.23000000000002</ele>
        <time>2013-09-04T14:57:49Z</time>
      </trkpt>
      <trkpt lat="50.824071038514376" lon="14.668341027572751">
        <ele>419.75</ele>
        <time>2013-09-04T14:57:50Z</time>
      </trkpt>
      <trkpt lat="50.823983028531075" lon="14.668502965942025">
        <ele>419.26999999999998</ele>
        <time>2013-09-04T14:57:51Z</time>
      </trkpt>
      <trkpt lat="50.82317903637886" lon="14.669853961095214">
        <ele>414.94999999999999</ele>
        <time>2013-09-04T14:57:59Z</time>
      </trkpt>
      <trkpt lat="50.823109969496727" lon="14.670065017417073">
        <ele>412.06</ele>
        <time>2013-09-04T14:58:00Z</time>
      </trkpt>
      <trkpt lat="50.823045009747148" lon="14.670275989919901">
        <ele>411.57999999999998</ele>
        <time>2013-09-04T14:58:01Z</time>
      </trkpt>
      <trkpt lat="50.822861026972532" lon="14.67083397321403">
        <ele>410.13999999999999</ele>
        <time>2013-09-04T14:58:04Z</time>
      </trkpt>
      <trkpt lat="50.822773016989231" lon="14.670989960432053">
        <ele>409.66000000000003</ele>
        <time>2013-09-04T14:58:05Z</time>
      </trkpt>
      <trkpt lat="50.822672015056014" lon="14.67113102786243">
        <ele>409.18000000000001</ele>
        <time>2013-09-04T14:58:06Z</time>
      </trkpt>
      <trkpt lat="50.822328021749854" lon="14.671568982303143">
        <ele>407.25999999999999</ele>
        <time>2013-09-04T14:58:09Z</time>
      </trkpt>
      <trkpt lat="50.822216039523482" lon="14.671738967299461">
        <ele>407.25999999999999</ele>
        <time>2013-09-04T14:58:10Z</time>
      </trkpt>
      <trkpt lat="50.821715975180268" lon="14.672560980543494">
        <ele>404.37</ele>
        <time>2013-09-04T14:58:15Z</time>
      </trkpt>
      <trkpt lat="50.821611033752561" lon="14.672648990526795">
        <ele>403.41000000000003</ele>
        <time>2013-09-04T14:58:16Z</time>
      </trkpt>
      <trkpt lat="50.821488993242383" lon="14.672711016610265">
        <ele>403.41000000000003</ele>
        <time>2013-09-04T14:58:17Z</time>
      </trkpt>
      <trkpt lat="50.821351027116179" lon="14.672749992460012">
        <ele>403.41000000000003</ele>
        <time>2013-09-04T14:58:18Z</time>
      </trkpt>
      <trkpt lat="50.821209037676454" lon="14.672790979966521">
        <ele>402.93000000000001</ele>
        <time>2013-09-04T14:58:19Z</time>
      </trkpt>
      <trkpt lat="50.820867978036404" lon="14.672854011878371">
        <ele>402.44999999999999</ele>
        <time>2013-09-04T14:58:21Z</time>
      </trkpt>
      <trkpt lat="50.819383962079883" lon="14.673647023737431">
        <ele>398.60000000000002</ele>
        <time>2013-09-04T14:58:30Z</time>
      </trkpt>
      <trkpt lat="50.818432029336691" lon="14.67396997846663">
        <ele>399.56999999999999</ele>
        <time>2013-09-04T14:58:36Z</time>
      </trkpt>
      <trkpt lat="50.818274030461907" lon="14.673971990123391">
        <ele>399.56999999999999</ele>
        <time>2013-09-04T14:58:37Z</time>
      </trkpt>
      <trkpt lat="50.817978987470269" lon="14.673950029537082">
        <ele>399.56999999999999</ele>
        <time>2013-09-04T14:58:39Z</time>
      </trkpt>
      <trkpt lat="50.817846972495317" lon="14.673884985968471">
        <ele>399.07999999999998</ele>
        <time>2013-09-04T14:58:40Z</time>
      </trkpt>
      <trkpt lat="50.817715041339397" lon="14.673765040934086">
        <ele>399.56999999999999</ele>
        <time>2013-09-04T14:58:41Z</time>
      </trkpt>
      <trkpt lat="50.817595012485981" lon="14.673636965453625">
        <ele>399.07999999999998</ele>
        <time>2013-09-04T14:58:42Z</time>
      </trkpt>
      <trkpt lat="50.817483030259609" lon="14.673498999327421">
        <ele>399.07999999999998</ele>
        <time>2013-09-04T14:58:43Z</time>
      </trkpt>
      <trkpt lat="50.817162003368139" lon="14.673036988824606">
        <ele>399.56999999999999</ele>
        <time>2013-09-04T14:58:46Z</time>
      </trkpt>
      <trkpt lat="50.816979026421905" lon="14.672724008560181">
        <ele>399.07999999999998</ele>
        <time>2013-09-04T14:58:48Z</time>
      </trkpt>
      <trkpt lat="50.816872995346785" lon="14.672585036605597">
        <ele>399.56999999999999</ele>
        <time>2013-09-04T14:58:49Z</time>
      </trkpt>
      <trkpt lat="50.816746009513736" lon="14.672477999702096">
        <ele>399.56999999999999</ele>
        <time>2013-09-04T14:58:50Z</time>
      </trkpt>
      <trkpt lat="50.815659966319799" lon="14.671728992834687">
        <ele>398.60000000000002</ele>
        <time>2013-09-04T14:58:58Z</time>
      </trkpt>
      <trkpt lat="50.815003998577595" lon="14.671523971483111">
        <ele>398.60000000000002</ele>
        <time>2013-09-04T14:59:02Z</time>
      </trkpt>
      <trkpt lat="50.814506029710174" lon="14.671310987323523">
        <ele>400.52999999999997</ele>
        <time>2013-09-04T14:59:05Z</time>
      </trkpt>
      <trkpt lat="50.814148960635066" lon="14.671267988160253">
        <ele>401.00999999999999</ele>
        <time>2013-09-04T14:59:07Z</time>
      </trkpt>
      <trkpt lat="50.813965983688831" lon="14.671208979561925">
        <ele>399.56999999999999</ele>
        <time>2013-09-04T14:59:08Z</time>
      </trkpt>
      <trkpt lat="50.813440019264817" lon="14.670986020937562">
        <ele>398.12</ele>
        <time>2013-09-04T14:59:11Z</time>
      </trkpt>
      <trkpt lat="50.813256036490202" lon="14.670985015109181">
        <ele>396.68000000000001</ele>
        <time>2013-09-04T14:59:12Z</time>
      </trkpt>
      <trkpt lat="50.813072975724936" lon="14.671044023707509">
        <ele>396.19999999999999</ele>
        <time>2013-09-04T14:59:13Z</time>
      </trkpt>
      <trkpt lat="50.81288899295032" lon="14.671133039519191">
        <ele>394.75999999999999</ele>
        <time>2013-09-04T14:59:14Z</time>
      </trkpt>
      <trkpt lat="50.812712972983718" lon="14.671232029795647">
        <ele>394.75999999999999</ele>
        <time>2013-09-04T14:59:15Z</time>
      </trkpt>
      <trkpt lat="50.811239015311003" lon="14.671873999759555">
        <ele>388.99000000000001</ele>
        <time>2013-09-04T14:59:23Z</time>
      </trkpt>
      <trkpt lat="50.811070958152413" lon="14.671866958960891">
        <ele>388.50999999999999</ele>
        <time>2013-09-04T14:59:24Z</time>
      </trkpt>
      <trkpt lat="50.810758983716369" lon="14.67181901447475">
        <ele>388.99000000000001</ele>
        <time>2013-09-04T14:59:26Z</time>
      </trkpt>
      <trkpt lat="50.810614982619882" lon="14.671835023909807">
        <ele>389.47000000000003</ele>
        <time>2013-09-04T14:59:27Z</time>
      </trkpt>
      <trkpt lat="50.81048003397882" lon="14.671887997537851">
        <ele>389.47000000000003</ele>
        <time>2013-09-04T14:59:28Z</time>
      </trkpt>
      <trkpt lat="50.810356987640262" lon="14.671968966722488">
        <ele>388.99000000000001</ele>
        <time>2013-09-04T14:59:29Z</time>
      </trkpt>
      <trkpt lat="50.810240982100368" lon="14.672058988362551">
        <ele>388.99000000000001</ele>
        <time>2013-09-04T14:59:30Z</time>
      </trkpt>
      <trkpt lat="50.810125982388854" lon="14.672148004174232">
        <ele>387.55000000000001</ele>
        <time>2013-09-04T14:59:31Z</time>
      </trkpt>
      <trkpt lat="50.810021040961146" lon="14.672252023592591">
        <ele>387.55000000000001</ele>
        <time>2013-09-04T14:59:32Z</time>
      </trkpt>
      <trkpt lat="50.809926996007562" lon="14.672393007203937">
        <ele>387.06999999999999</ele>
        <time>2013-09-04T14:59:33Z</time>
      </trkpt>
      <trkpt lat="50.808903984725475" lon="14.674475993961096">
        <ele>385.14999999999998</ele>
        <time>2013-09-04T14:59:46Z</time>
      </trkpt>
      <trkpt lat="50.808525960892439" lon="14.676051959395409">
        <ele>384.18000000000001</ele>
        <time>2013-09-04T14:59:55Z</time>
      </trkpt>
      <trkpt lat="50.808271989226341" lon="14.676799960434437">
        <ele>383.22000000000003</ele>
        <time>2013-09-04T15:00:01Z</time>
      </trkpt>
      <trkpt lat="50.808267965912819" lon="14.676923006772995">
        <ele>382.74000000000001</ele>
        <time>2013-09-04T15:00:02Z</time>
      </trkpt>
      <trkpt lat="50.808279030025005" lon="14.677043035626411">
        <ele>383.22000000000003</ele>
        <time>2013-09-04T15:00:03Z</time>
      </trkpt>
      <trkpt lat="50.808246005326509" lon="14.677357021719217">
        <ele>381.77999999999997</ele>
        <time>2013-09-04T15:00:06Z</time>
      </trkpt>
      <trkpt lat="50.808193031698465" lon="14.677472021430731">
        <ele>381.77999999999997</ele>
        <time>2013-09-04T15:00:07Z</time>
      </trkpt>
      <trkpt lat="50.807372024282813" lon="14.678445998579264">
        <ele>378.89999999999998</ele>
        <time>2013-09-04T15:00:16Z</time>
      </trkpt>
      <trkpt lat="50.80685100518167" lon="14.678991995751858">
        <ele>376.97000000000003</ele>
        <time>2013-09-04T15:00:21Z</time>
      </trkpt>
      <trkpt lat="50.806761989369988" lon="14.679137002676725">
        <ele>376.97000000000003</ele>
        <time>2013-09-04T15:00:22Z</time>
      </trkpt>
      <trkpt lat="50.805953973904252" lon="14.680501995608211">
        <ele>375.52999999999997</ele>
        <time>2013-09-04T15:00:32Z</time>
      </trkpt>
      <trkpt lat="50.805906029418111" lon="14.680609032511711">
        <ele>375.05000000000001</ele>
        <time>2013-09-04T15:00:33Z</time>
      </trkpt>
      <trkpt lat="50.805873004719615" lon="14.680717997252941">
        <ele>375.05000000000001</ele>
        <time>2013-09-04T15:00:34Z</time>
      </trkpt>
      <trkpt lat="50.80586101859808" lon="14.680859986692667">
        <ele>375.52999999999997</ele>
        <time>2013-09-04T15:00:35Z</time>
      </trkpt>
      <trkpt lat="50.805874010547996" lon="14.681014968082309">
        <ele>375.52999999999997</ele>
        <time>2013-09-04T15:00:36Z</time>
      </trkpt>
      <trkpt lat="50.805893959477544" lon="14.681181013584137">
        <ele>376.00999999999999</ele>
        <time>2013-09-04T15:00:37Z</time>
      </trkpt>
      <trkpt lat="50.806065034121275" lon="14.6829719748348">
        <ele>380.33999999999997</ele>
        <time>2013-09-04T15:00:45Z</time>
      </trkpt>
      <trkpt lat="50.806052964180708" lon="14.68378602527082">
        <ele>381.77999999999997</ele>
        <time>2013-09-04T15:00:48Z</time>
      </trkpt>
      <trkpt lat="50.806023040786386" lon="14.684068998321891">
        <ele>381.30000000000001</ele>
        <time>2013-09-04T15:00:49Z</time>
      </trkpt>
      <trkpt lat="50.805974006652832" lon="14.684355994686484">
        <ele>380.81999999999999</ele>
        <time>2013-09-04T15:00:50Z</time>
      </trkpt>
      <trkpt lat="50.805357014760375" lon="14.688060963526368">
        <ele>389.94999999999999</ele>
        <time>2013-09-04T15:01:02Z</time>
      </trkpt>
      <trkpt lat="50.805343016982079" lon="14.688367992639542">
        <ele>391.87</ele>
        <time>2013-09-04T15:01:03Z</time>
      </trkpt>
      <trkpt lat="50.805343016982079" lon="14.688674015924335">
        <ele>393.80000000000001</ele>
        <time>2013-09-04T15:01:04Z</time>
      </trkpt>
      <trkpt lat="50.805273028090596" lon="14.691168973222375">
        <ele>397.16000000000003</ele>
        <time>2013-09-04T15:01:12Z</time>
      </trkpt>
      <trkpt lat="50.805212007835507" lon="14.691465022042394">
        <ele>396.68000000000001</ele>
        <time>2013-09-04T15:01:13Z</time>
      </trkpt>
      <trkpt lat="50.805123997852206" lon="14.69175897538662">
        <ele>397.16000000000003</ele>
        <time>2013-09-04T15:01:14Z</time>
      </trkpt>
      <trkpt lat="50.804238030686975" lon="14.695125985890627">
        <ele>402.44999999999999</ele>
        <time>2013-09-04T15:01:25Z</time>
      </trkpt>
      <trkpt lat="50.80416502431035" lon="14.695382975041866">
        <ele>403.41000000000003</ele>
        <time>2013-09-04T15:01:26Z</time>
      </trkpt>
      <trkpt lat="50.804072991013527" lon="14.695601994171739">
        <ele>403.88999999999999</ele>
        <time>2013-09-04T15:01:27Z</time>
      </trkpt>
      <trkpt lat="50.803958997130394" lon="14.69577700830996">
        <ele>404.37</ele>
        <time>2013-09-04T15:01:28Z</time>
      </trkpt>
      <trkpt lat="50.803831005468965" lon="14.695929978042841">
        <ele>404.85000000000002</ele>
        <time>2013-09-04T15:01:29Z</time>
      </trkpt>
      <trkpt lat="50.80369396135211" lon="14.696084037423134">
        <ele>404.37</ele>
        <time>2013-09-04T15:01:30Z</time>
      </trkpt>
      <trkpt lat="50.80345599912107" lon="14.696380002424121">
        <ele>403.88999999999999</ele>
        <time>2013-09-04T15:01:32Z</time>
      </trkpt>
      <trkpt lat="50.803357008844614" lon="14.696569014340639">
        <ele>402.93000000000001</ele>
        <time>2013-09-04T15:01:33Z</time>
      </trkpt>
      <trkpt lat="50.803273022174835" lon="14.696784010156989">
        <ele>401.49000000000001</ele>
        <time>2013-09-04T15:01:34Z</time>
      </trkpt>
      <trkpt lat="50.803200015798211" lon="14.69702297821641">
        <ele>400.05000000000001</ele>
        <time>2013-09-04T15:01:35Z</time>
      </trkpt>
      <trkpt lat="50.803121980279684" lon="14.697273010388017">
        <ele>398.12</ele>
        <time>2013-09-04T15:01:36Z</time>
      </trkpt>
      <trkpt lat="50.802681008353829" lon="14.698769012466073">
        <ele>389.94999999999999</ele>
        <time>2013-09-04T15:01:41Z</time>
      </trkpt>
      <trkpt lat="50.801707031205297" lon="14.700873959809542">
        <ele>383.69999999999999</ele>
        <time>2013-09-04T15:01:49Z</time>
      </trkpt>
      <trkpt lat="50.801634024828672" lon="14.7011489700526">
        <ele>384.18000000000001</ele>
        <time>2013-09-04T15:01:50Z</time>
      </trkpt>
      <trkpt lat="50.801592031493783" lon="14.701442001387477">
        <ele>384.66000000000003</ele>
        <time>2013-09-04T15:01:51Z</time>
      </trkpt>
      <trkpt lat="50.801565041765571" lon="14.701744001358747">
        <ele>384.18000000000001</ele>
        <time>2013-09-04T15:01:52Z</time>
      </trkpt>
      <trkpt lat="50.801547020673752" lon="14.702053964138031">
        <ele>383.69999999999999</ele>
        <time>2013-09-04T15:01:53Z</time>
      </trkpt>
      <trkpt lat="50.801427997648716" lon="14.704775987192988">
        <ele>378.89999999999998</ele>
        <time>2013-09-04T15:02:02Z</time>
      </trkpt>
      <trkpt lat="50.801000017672777" lon="14.707520976662636">
        <ele>374.08999999999997</ele>
        <time>2013-09-04T15:02:11Z</time>
      </trkpt>
      <trkpt lat="50.80064102075994" lon="14.709302969276905">
        <ele>373.61000000000001</ele>
        <time>2013-09-04T15:02:17Z</time>
      </trkpt>
      <trkpt lat="50.800550999119878" lon="14.709566999226809">
        <ele>373.61000000000001</ele>
        <time>2013-09-04T15:02:18Z</time>
      </trkpt>
      <trkpt lat="50.800449997186661" lon="14.709808984771371">
        <ele>373.13</ele>
        <time>2013-09-04T15:02:19Z</time>
      </trkpt>
      <trkpt lat="50.799316009506583" lon="14.712125994265079">
        <ele>375.05000000000001</ele>
        <time>2013-09-04T15:02:29Z</time>
      </trkpt>
      <trkpt lat="50.798521991819143" lon="14.713751999661326">
        <ele>369.27999999999997</ele>
        <time>2013-09-04T15:02:36Z</time>
      </trkpt>
      <trkpt lat="50.798456026241183" lon="14.713998008519411">
        <ele>367.83999999999997</ele>
        <time>2013-09-04T15:02:37Z</time>
      </trkpt>
      <trkpt lat="50.798414032906294" lon="14.714262960478663">
        <ele>367.36000000000001</ele>
        <time>2013-09-04T15:02:38Z</time>
      </trkpt>
      <trkpt lat="50.79838695935905" lon="14.714537970721722">
        <ele>367.36000000000001</ele>
        <time>2013-09-04T15:02:39Z</time>
      </trkpt>
      <trkpt lat="50.798367010429502" lon="14.714823961257935">
        <ele>366.88</ele>
        <time>2013-09-04T15:02:40Z</time>
      </trkpt>
      <trkpt lat="50.798066016286612" lon="14.717895006760955">
        <ele>361.11000000000001</ele>
        <time>2013-09-04T15:02:51Z</time>
      </trkpt>
      <trkpt lat="50.798015976324677" lon="14.718155013397336">
        <ele>360.14999999999998</ele>
        <time>2013-09-04T15:02:52Z</time>
      </trkpt>
      <trkpt lat="50.797682041302323" lon="14.71941196359694">
        <ele>356.79000000000002</ele>
        <time>2013-09-04T15:02:58Z</time>
      </trkpt>
      <trkpt lat="50.797540973871946" lon="14.719741037115455">
        <ele>355.33999999999997</ele>
        <time>2013-09-04T15:03:00Z</time>
      </trkpt>
      <trkpt lat="50.797451036050916" lon="14.719876991584897">
        <ele>355.33999999999997</ele>
        <time>2013-09-04T15:03:01Z</time>
      </trkpt>
      <trkpt lat="50.797347016632557" lon="14.720005989074707">
        <ele>354.86000000000001</ele>
        <time>2013-09-04T15:03:02Z</time>
      </trkpt>
      <trkpt lat="50.796800013631582" lon="14.720569001510739">
        <ele>353.42000000000002</ele>
        <time>2013-09-04T15:03:07Z</time>
      </trkpt>
      <trkpt lat="50.796710997819901" lon="14.720697999000549">
        <ele>352.94</ele>
        <time>2013-09-04T15:03:08Z</time>
      </trkpt>
      <trkpt lat="50.796638997271657" lon="14.72085197456181">
        <ele>352.94</ele>
        <time>2013-09-04T15:03:09Z</time>
      </trkpt>
      <trkpt lat="50.796572025865316" lon="14.721034029498696">
        <ele>352.45999999999998</ele>
        <time>2013-09-04T15:03:10Z</time>
      </trkpt>
      <trkpt lat="50.796508993953466" lon="14.721221029758453">
        <ele>351.98000000000002</ele>
        <time>2013-09-04T15:03:11Z</time>
      </trkpt>
      <trkpt lat="50.796201964840293" lon="14.722116971388459">
        <ele>348.62</ele>
        <time>2013-09-04T15:03:16Z</time>
      </trkpt>
      <trkpt lat="50.796120995655656" lon="14.722254015505314">
        <ele>348.13</ele>
        <time>2013-09-04T15:03:17Z</time>
      </trkpt>
      <trkpt lat="50.796018987894058" lon="14.722362980246544">
        <ele>347.64999999999998</ele>
        <time>2013-09-04T15:03:18Z</time>
      </trkpt>
      <trkpt lat="50.794730018824339" lon="14.723788993433118">
        <ele>345.73000000000002</ele>
        <time>2013-09-04T15:03:30Z</time>
      </trkpt>
      <trkpt lat="50.79464603215456" lon="14.72394104115665">
        <ele>345.73000000000002</ele>
        <time>2013-09-04T15:03:31Z</time>
      </trkpt>
      <trkpt lat="50.794573025777936" lon="14.724122006446123">
        <ele>345.25</ele>
        <time>2013-09-04T15:03:32Z</time>
      </trkpt>
      <trkpt lat="50.793908005580306" lon="14.725974993780255">
        <ele>340.44</ele>
        <time>2013-09-04T15:03:42Z</time>
      </trkpt>
      <trkpt lat="50.793449012562633" lon="14.727047039195895">
        <ele>338.04000000000002</ele>
        <time>2013-09-04T15:03:48Z</time>
      </trkpt>
      <trkpt lat="50.793395033106208" lon="14.727239990606904">
        <ele>337.56</ele>
        <time>2013-09-04T15:03:49Z</time>
      </trkpt>
      <trkpt lat="50.792861022055149" lon="14.729620032012463">
        <ele>335.63999999999999</ele>
        <time>2013-09-04T15:04:01Z</time>
      </trkpt>
      <trkpt lat="50.79204898327589" lon="14.732368960976601">
        <ele>331.79000000000002</ele>
        <time>2013-09-04T15:04:15Z</time>
      </trkpt>
      <trkpt lat="50.791831975802779" lon="14.733356013894081">
        <ele>329.38999999999999</ele>
        <time>2013-09-04T15:04:20Z</time>
      </trkpt>
      <trkpt lat="50.791771961376071" lon="14.733524993062019">
        <ele>328.43000000000001</ele>
        <time>2013-09-04T15:04:21Z</time>
      </trkpt>
      <trkpt lat="50.791685041040182" lon="14.733669999986887">
        <ele>328.43000000000001</ele>
        <time>2013-09-04T15:04:22Z</time>
      </trkpt>
      <trkpt lat="50.790865961462259" lon="14.734758976846933">
        <ele>326.5</ele>
        <time>2013-09-04T15:04:30Z</time>
      </trkpt>
      <trkpt lat="50.790749033913016" lon="14.734830977395177">
        <ele>325.54000000000002</ele>
        <time>2013-09-04T15:04:31Z</time>
      </trkpt>
      <trkpt lat="50.790619030594826" lon="14.734843969345093">
        <ele>326.5</ele>
        <time>2013-09-04T15:04:32Z</time>
      </trkpt>
      <trkpt lat="50.790483998134732" lon="14.734827959910035">
        <ele>326.5</ele>
        <time>2013-09-04T15:04:33Z</time>
      </trkpt>
      <trkpt lat="50.790347037836909" lon="14.734804993495345">
        <ele>326.01999999999998</ele>
        <time>2013-09-04T15:04:34Z</time>
      </trkpt>
      <trkpt lat="50.790204964578152" lon="14.734797030687332">
        <ele>326.5</ele>
        <time>2013-09-04T15:04:35Z</time>
      </trkpt>
      <trkpt lat="50.790064986795187" lon="14.734800970181823">
        <ele>326.01999999999998</ele>
        <time>2013-09-04T15:04:36Z</time>
      </trkpt>
      <trkpt lat="50.789652010425925" lon="14.734896020963788">
        <ele>326.01999999999998</ele>
        <time>2013-09-04T15:04:39Z</time>
      </trkpt>
      <trkpt lat="50.789514966309071" lon="14.734895015135407">
        <ele>326.01999999999998</ele>
        <time>2013-09-04T15:04:40Z</time>
      </trkpt>
      <trkpt lat="50.789378006011248" lon="14.734846986830235">
        <ele>326.99000000000001</ele>
        <time>2013-09-04T15:04:41Z</time>
      </trkpt>
      <trkpt lat="50.789246996864676" lon="14.734761994332075">
        <ele>327.94999999999999</ele>
        <time>2013-09-04T15:04:42Z</time>
      </trkpt>
      <trkpt lat="50.789110958576202" lon="14.734655963256955">
        <ele>328.43000000000001</ele>
        <time>2013-09-04T15:04:43Z</time>
      </trkpt>
      <trkpt lat="50.787326032295823" lon="14.733297005295753">
        <ele>331.31</ele>
        <time>2013-09-04T15:04:54Z</time>
      </trkpt>
      <trkpt lat="50.787155041471124" lon="14.733239002525806">
        <ele>331.31</ele>
        <time>2013-09-04T15:04:55Z</time>
      </trkpt>
      <trkpt lat="50.786987990140915" lon="14.733231039717793">
        <ele>331.31</ele>
        <time>2013-09-04T15:04:56Z</time>
      </trkpt>
      <trkpt lat="50.786820016801357" lon="14.733273033052683">
        <ele>331.79000000000002</ele>
        <time>2013-09-04T15:04:57Z</time>
      </trkpt>
      <trkpt lat="50.786648020148277" lon="14.733340004459023">
        <ele>331.79000000000002</ele>
        <time>2013-09-04T15:04:58Z</time>
      </trkpt>
      <trkpt lat="50.786473006010056" lon="14.733415022492409">
        <ele>331.31</ele>
        <time>2013-09-04T15:04:59Z</time>
      </trkpt>
      <trkpt lat="50.784642985090613" lon="14.734496036544442">
        <ele>328.43000000000001</ele>
        <time>2013-09-04T15:05:09Z</time>
      </trkpt>
      <trkpt lat="50.78274498693645" lon="14.736465029418468">
        <ele>321.22000000000003</ele>
        <time>2013-09-04T15:05:21Z</time>
      </trkpt>
      <trkpt lat="50.782349025830626" lon="14.737016977742314">
        <ele>318.81</ele>
        <time>2013-09-04T15:05:24Z</time>
      </trkpt>
      <trkpt lat="50.782257998362184" lon="14.737253012135625">
        <ele>318.32999999999998</ele>
        <time>2013-09-04T15:05:25Z</time>
      </trkpt>
      <trkpt lat="50.781705966219306" lon="14.738563019782305">
        <ele>315.93000000000001</ele>
        <time>2013-09-04T15:05:31Z</time>
      </trkpt>
      <trkpt lat="50.781586021184921" lon="14.738741973415017">
        <ele>315.44999999999999</ele>
        <time>2013-09-04T15:05:32Z</time>
      </trkpt>
      <trkpt lat="50.781453000381589" lon="14.73891899921">
        <ele>314.97000000000003</ele>
        <time>2013-09-04T15:05:33Z</time>
      </trkpt>
      <trkpt lat="50.780550017952919" lon="14.739915020763874">
        <ele>313.05000000000001</ele>
        <time>2013-09-04T15:05:39Z</time>
      </trkpt>
      <trkpt lat="50.780372992157936" lon="14.740018034353852">
        <ele>312.56999999999999</ele>
        <time>2013-09-04T15:05:40Z</time>
      </trkpt>
      <trkpt lat="50.779120987281203" lon="14.740597978234291">
        <ele>310.63999999999999</ele>
        <time>2013-09-04T15:05:47Z</time>
      </trkpt>
      <trkpt lat="50.778969023376703" lon="14.740730999037623">
        <ele>310.63999999999999</ele>
        <time>2013-09-04T15:05:48Z</time>
      </trkpt>
      <trkpt lat="50.778822004795074" lon="14.740888997912407">
        <ele>310.63999999999999</ele>
        <time>2013-09-04T15:05:49Z</time>
      </trkpt>
      <trkpt lat="50.777984987944365" lon="14.742133039981127">
        <ele>309.19999999999999</ele>
        <time>2013-09-04T15:05:56Z</time>
      </trkpt>
      <trkpt lat="50.777924973517656" lon="14.742373013868928">
        <ele>309.68000000000001</ele>
        <time>2013-09-04T15:05:57Z</time>
      </trkpt>
      <trkpt lat="50.777887003496289" lon="14.742619022727013">
        <ele>310.16000000000003</ele>
        <time>2013-09-04T15:05:58Z</time>
      </trkpt>
      <trkpt lat="50.777837969362736" lon="14.742860002443194">
        <ele>310.16000000000003</ele>
        <time>2013-09-04T15:05:59Z</time>
      </trkpt>
      <trkpt lat="50.777769992128015" lon="14.743093019351363">
        <ele>310.16000000000003</ele>
        <time>2013-09-04T15:06:00Z</time>
      </trkpt>
      <trkpt lat="50.777691034600139" lon="14.743309020996094">
        <ele>309.68000000000001</ele>
        <time>2013-09-04T15:06:01Z</time>
      </trkpt>
      <trkpt lat="50.777605036273599" lon="14.743481017649174">
        <ele>309.19999999999999</ele>
        <time>2013-09-04T15:06:02Z</time>
      </trkpt>
      <trkpt lat="50.777495987713337" lon="14.743644967675209">
        <ele>309.19999999999999</ele>
        <time>2013-09-04T15:06:03Z</time>
      </trkpt>
      <trkpt lat="50.777374031022191" lon="14.743806989863515">
        <ele>308.72000000000003</ele>
        <time>2013-09-04T15:06:04Z</time>
      </trkpt>
      <trkpt lat="50.776281030848622" lon="14.745270973071456">
        <ele>308.24000000000001</ele>
        <time>2013-09-04T15:06:12Z</time>
      </trkpt>
      <trkpt lat="50.775834023952484" lon="14.745817976072431">
        <ele>307.27999999999997</ele>
        <time>2013-09-04T15:06:15Z</time>
      </trkpt>
      <trkpt lat="50.775664960965514" lon="14.745953008532524">
        <ele>307.27999999999997</ele>
        <time>2013-09-04T15:06:16Z</time>
      </trkpt>
      <trkpt lat="50.773900989443064" lon="14.746907036751509">
        <ele>304.38999999999999</ele>
        <time>2013-09-04T15:06:26Z</time>
      </trkpt>
      <trkpt lat="50.773723963648081" lon="14.746925979852676">
        <ele>303.91000000000003</ele>
        <time>2013-09-04T15:06:27Z</time>
      </trkpt>
      <trkpt lat="50.771914981305599" lon="14.746930003166199">
        <ele>304.38999999999999</ele>
        <time>2013-09-04T15:06:37Z</time>
      </trkpt>
      <trkpt lat="50.771763017401099" lon="14.74697501398623">
        <ele>303.91000000000003</ele>
        <time>2013-09-04T15:06:38Z</time>
      </trkpt>
      <trkpt lat="50.771623961627483" lon="14.74706101231277">
        <ele>303.91000000000003</ele>
        <time>2013-09-04T15:06:39Z</time>
      </trkpt>
      <trkpt lat="50.771492030471563" lon="14.747195038944483">
        <ele>303.91000000000003</ele>
        <time>2013-09-04T15:06:40Z</time>
      </trkpt>
      <trkpt lat="50.771360015496612" lon="14.747349014505744">
        <ele>303.91000000000003</ele>
        <time>2013-09-04T15:06:41Z</time>
      </trkpt>
      <trkpt lat="50.770415039733052" lon="14.748447965830564">
        <ele>303.43000000000001</ele>
        <time>2013-09-04T15:06:49Z</time>
      </trkpt>
      <trkpt lat="50.770042967051268" lon="14.748632032424212">
        <ele>304.88</ele>
        <time>2013-09-04T15:06:55Z</time>
      </trkpt>
      <trkpt lat="50.769977001473308" lon="14.748697998002172">
        <ele>305.36000000000001</ele>
        <time>2013-09-04T15:06:59Z</time>
      </trkpt>
      <trkpt lat="50.769952023401856" lon="14.748807968571782">
        <ele>305.36000000000001</ele>
        <time>2013-09-04T15:07:00Z</time>
      </trkpt>
      <trkpt lat="50.76994095928967" lon="14.748949036002159">
        <ele>305.36000000000001</ele>
        <time>2013-09-04T15:07:01Z</time>
      </trkpt>
      <trkpt lat="50.769940037280321" lon="14.749118015170097">
        <ele>305.36000000000001</ele>
        <time>2013-09-04T15:07:02Z</time>
      </trkpt>
      <trkpt lat="50.769940037280321" lon="14.749309038743377">
        <ele>304.88</ele>
        <time>2013-09-04T15:07:03Z</time>
      </trkpt>
      <trkpt lat="50.769944982603192" lon="14.751117015257478">
        <ele>304.88</ele>
        <time>2013-09-04T15:07:10Z</time>
      </trkpt>
      <trkpt lat="50.770141035318375" lon="14.754799017682672">
        <ele>309.19999999999999</ele>
        <time>2013-09-04T15:07:21Z</time>
      </trkpt>
      <trkpt lat="50.770683009177446" lon="14.758846974000335">
        <ele>309.68000000000001</ele>
        <time>2013-09-04T15:07:33Z</time>
      </trkpt>
      <trkpt lat="50.77163896523416" lon="14.762799041345716">
        <ele>304.88</ele>
        <time>2013-09-04T15:07:46Z</time>
      </trkpt>
      <trkpt lat="50.77303497120738" lon="14.766578022390604">
        <ele>317.37</ele>
        <time>2013-09-04T15:07:59Z</time>
      </trkpt>
      <trkpt lat="50.774585036560893" lon="14.770081993192434">
        <ele>327.94999999999999</ele>
        <time>2013-09-04T15:08:12Z</time>
      </trkpt>
      <trkpt lat="50.775884985923767" lon="14.772898983210325">
        <ele>326.01999999999998</ele>
        <time>2013-09-04T15:08:23Z</time>
      </trkpt>
      <trkpt lat="50.777558013796806" lon="14.776650974527001">
        <ele>312.08999999999997</ele>
        <time>2013-09-04T15:08:36Z</time>
      </trkpt>
      <trkpt lat="50.780074009671807" lon="14.782116981223226">
        <ele>315.44999999999999</ele>
        <time>2013-09-04T15:08:55Z</time>
      </trkpt>
      <trkpt lat="50.781032983213663" lon="14.783718008548021">
        <ele>314.00999999999999</ele>
        <time>2013-09-04T15:09:03Z</time>
      </trkpt>
      <trkpt lat="50.781474960967898" lon="14.7845100145787">
        <ele>312.56999999999999</ele>
        <time>2013-09-04T15:09:08Z</time>
      </trkpt>
      <trkpt lat="50.781533969566226" lon="14.784676982089877">
        <ele>312.56999999999999</ele>
        <time>2013-09-04T15:09:09Z</time>
      </trkpt>
      <trkpt lat="50.78158400952816" lon="14.784853002056479">
        <ele>312.08999999999997</ele>
        <time>2013-09-04T15:09:10Z</time>
      </trkpt>
      <trkpt lat="50.78162700869143" lon="14.785042013972998">
        <ele>312.56999999999999</ele>
        <time>2013-09-04T15:09:11Z</time>
      </trkpt>
      <trkpt lat="50.781658021733165" lon="14.78524100035429">
        <ele>312.08999999999997</ele>
        <time>2013-09-04T15:09:12Z</time>
      </trkpt>
      <trkpt lat="50.781677970662713" lon="14.785451972857118">
        <ele>312.08999999999997</ele>
        <time>2013-09-04T15:09:13Z</time>
      </trkpt>
      <trkpt lat="50.781688028946519" lon="14.785669986158609">
        <ele>312.08999999999997</ele>
        <time>2013-09-04T15:09:14Z</time>
      </trkpt>
      <trkpt lat="50.781679982319474" lon="14.785886993631721">
        <ele>312.08999999999997</ele>
        <time>2013-09-04T15:09:15Z</time>
      </trkpt>
      <trkpt lat="50.781661039218307" lon="14.786095032468438">
        <ele>311.60000000000002</ele>
        <time>2013-09-04T15:09:16Z</time>
      </trkpt>
      <trkpt lat="50.78145501203835" lon="14.788682023063302">
        <ele>314.00999999999999</ele>
        <time>2013-09-04T15:09:28Z</time>
      </trkpt>
      <trkpt lat="50.781475966796279" lon="14.788897018879652">
        <ele>314.49000000000001</ele>
        <time>2013-09-04T15:09:29Z</time>
      </trkpt>
      <trkpt lat="50.781509997323155" lon="14.789102040231228">
        <ele>314.49000000000001</ele>
        <time>2013-09-04T15:09:30Z</time>
      </trkpt>
      <trkpt lat="50.781865976750851" lon="14.790275003761053">
        <ele>316.41000000000003</ele>
        <time>2013-09-04T15:09:36Z</time>
      </trkpt>
      <trkpt lat="50.781952980905771" lon="14.790433002635837">
        <ele>316.41000000000003</ele>
        <time>2013-09-04T15:09:37Z</time>
      </trkpt>
      <trkpt lat="50.782049037516117" lon="14.790575997903943">
        <ele>316.88999999999999</ele>
        <time>2013-09-04T15:09:38Z</time>
      </trkpt>
      <trkpt lat="50.782153978943825" lon="14.790694015100598">
        <ele>316.88999999999999</ele>
        <time>2013-09-04T15:09:39Z</time>
      </trkpt>
      <trkpt lat="50.782268978655338" lon="14.790788982063532">
        <ele>316.88999999999999</ele>
        <time>2013-09-04T15:09:40Z</time>
      </trkpt>
      <trkpt lat="50.782392024993896" lon="14.790872968733311">
        <ele>316.88999999999999</ele>
        <time>2013-09-04T15:09:41Z</time>
      </trkpt>
      <trkpt lat="50.782520016655326" lon="14.790951004251838">
        <ele>316.88999999999999</ele>
        <time>2013-09-04T15:09:42Z</time>
      </trkpt>
      <trkpt lat="50.783329959958792" lon="14.791377978399396">
        <ele>317.85000000000002</ele>
        <time>2013-09-04T15:09:48Z</time>
      </trkpt>
      <trkpt lat="50.783464992418885" lon="14.791412008926272">
        <ele>317.85000000000002</ele>
        <time>2013-09-04T15:09:49Z</time>
      </trkpt>
      <trkpt lat="50.78360203653574" lon="14.79142801836133">
        <ele>318.32999999999998</ele>
        <time>2013-09-04T15:09:50Z</time>
      </trkpt>
      <trkpt lat="50.783736985176802" lon="14.79142801836133">
        <ele>318.81</ele>
        <time>2013-09-04T15:09:51Z</time>
      </trkpt>
      <trkpt lat="50.783876962959766" lon="14.791425000876188">
        <ele>319.30000000000001</ele>
        <time>2013-09-04T15:09:52Z</time>
      </trkpt>
      <trkpt lat="50.784589005634189" lon="14.791435981169343">
        <ele>321.69999999999999</ele>
        <time>2013-09-04T15:09:57Z</time>
      </trkpt>
      <trkpt lat="50.784725965932012" lon="14.791479986160994">
        <ele>322.18000000000001</ele>
        <time>2013-09-04T15:09:58Z</time>
      </trkpt>
      <trkpt lat="50.784856975078583" lon="14.791537988930941">
        <ele>322.66000000000003</ele>
        <time>2013-09-04T15:09:59Z</time>
      </trkpt>
      <trkpt lat="50.784983960911632" lon="14.791608983650804">
        <ele>323.13999999999999</ele>
        <time>2013-09-04T15:10:00Z</time>
      </trkpt>
      <trkpt lat="50.78510801307857" lon="14.791693976148963">
        <ele>323.62</ele>
        <time>2013-09-04T15:10:01Z</time>
      </trkpt>
      <trkpt lat="50.785346981137991" lon="14.791906038299203">
        <ele>324.57999999999998</ele>
        <time>2013-09-04T15:10:03Z</time>
      </trkpt>
      <trkpt lat="50.785458041355014" lon="14.792042998597026">
        <ele>325.06</ele>
        <time>2013-09-04T15:10:04Z</time>
      </trkpt>
      <trkpt lat="50.785552002489567" lon="14.792203009128571">
        <ele>325.54000000000002</ele>
        <time>2013-09-04T15:10:05Z</time>
      </trkpt>
      <trkpt lat="50.785633977502584" lon="14.792383974418044">
        <ele>326.01999999999998</ele>
        <time>2013-09-04T15:10:06Z</time>
      </trkpt>
      <trkpt lat="50.78570899553597" lon="14.792576003819704">
        <ele>326.5</ele>
        <time>2013-09-04T15:10:07Z</time>
      </trkpt>
      <trkpt lat="50.785776972770691" lon="14.792779013514519">
        <ele>326.99000000000001</ele>
        <time>2013-09-04T15:10:08Z</time>
      </trkpt>
      <trkpt lat="50.786273013800383" lon="14.795046988874674">
        <ele>332.26999999999998</ele>
        <time>2013-09-04T15:10:18Z</time>
      </trkpt>
      <trkpt lat="50.786690013483167" lon="14.79733700864017">
        <ele>333.23000000000002</ele>
        <time>2013-09-04T15:10:26Z</time>
      </trkpt>
      <trkpt lat="50.786680039018393" lon="14.797612018883228">
        <ele>332.75</ele>
        <time>2013-09-04T15:10:27Z</time>
      </trkpt>
      <trkpt lat="50.786634022369981" lon="14.797868002206087">
        <ele>332.26999999999998</ele>
        <time>2013-09-04T15:10:28Z</time>
      </trkpt>
      <trkpt lat="50.786554981023073" lon="14.798121973872185">
        <ele>331.79000000000002</ele>
        <time>2013-09-04T15:10:29Z</time>
      </trkpt>
      <trkpt lat="50.786474011838436" lon="14.798377035185695">
        <ele>331.79000000000002</ele>
        <time>2013-09-04T15:10:30Z</time>
      </trkpt>
      <trkpt lat="50.786399999633431" lon="14.798646010458469">
        <ele>330.82999999999998</ele>
        <time>2013-09-04T15:10:31Z</time>
      </trkpt>
      <trkpt lat="50.786349037662148" lon="14.798924038186669">
        <ele>329.87</ele>
        <time>2013-09-04T15:10:32Z</time>
      </trkpt>
      <trkpt lat="50.786329004913568" lon="14.799199970439076">
        <ele>329.87</ele>
        <time>2013-09-04T15:10:33Z</time>
      </trkpt>
      <trkpt lat="50.786321964114904" lon="14.799475986510515">
        <ele>328.91000000000003</ele>
        <time>2013-09-04T15:10:34Z</time>
      </trkpt>
      <trkpt lat="50.786333028227091" lon="14.79974202811718">
        <ele>327.94999999999999</ele>
        <time>2013-09-04T15:10:35Z</time>
      </trkpt>
      <trkpt lat="50.786349037662148" lon="14.80000102892518">
        <ele>326.99000000000001</ele>
        <time>2013-09-04T15:10:36Z</time>
      </trkpt>
      <trkpt lat="50.786594040691853" lon="14.803138040006161">
        <ele>319.30000000000001</ele>
        <time>2013-09-04T15:10:48Z</time>
      </trkpt>
      <trkpt lat="50.786833008751273" lon="14.806025018915534">
        <ele>317.85000000000002</ele>
        <time>2013-09-04T15:10:59Z</time>
      </trkpt>
      <trkpt lat="50.787241961807013" lon="14.811084000393748">
        <ele>323.62</ele>
        <time>2013-09-04T15:11:18Z</time>
      </trkpt>
      <trkpt lat="50.787668013945222" lon="14.813737040385604">
        <ele>334.68000000000001</ele>
        <time>2013-09-04T15:11:29Z</time>
      </trkpt>
      <trkpt lat="50.788387013599277" lon="14.815506041049957">
        <ele>342.37</ele>
        <time>2013-09-04T15:11:39Z</time>
      </trkpt>
      <trkpt lat="50.788706028833985" lon="14.817203963175416">
        <ele>340.92000000000002</ele>
        <time>2013-09-04T15:11:49Z</time>
      </trkpt>
      <trkpt lat="50.788960000500083" lon="14.819584004580975">
        <ele>342.85000000000002</ele>
        <time>2013-09-04T15:12:02Z</time>
      </trkpt>
      <trkpt lat="50.789329977706075" lon="14.821620974689722">
        <ele>349.57999999999998</ele>
        <time>2013-09-04T15:12:12Z</time>
      </trkpt>
      <trkpt lat="50.790037997066975" lon="14.824069999158382">
        <ele>350.54000000000002</ele>
        <time>2013-09-04T15:12:21Z</time>
      </trkpt>
      <trkpt lat="50.791096966713667" lon="14.827569024637341">
        <ele>346.69</ele>
        <time>2013-09-04T15:12:33Z</time>
      </trkpt>
      <trkpt lat="50.792319970205426" lon="14.831716977059841">
        <ele>342.85000000000002</ele>
        <time>2013-09-04T15:12:46Z</time>
      </trkpt>
      <trkpt lat="50.79458300024271" lon="14.839344006031752">
        <ele>346.20999999999998</ele>
        <time>2013-09-04T15:13:09Z</time>
      </trkpt>
      <trkpt lat="50.795355979353189" lon="14.842913020402193">
        <ele>350.54000000000002</ele>
        <time>2013-09-04T15:13:19Z</time>
      </trkpt>
      <trkpt lat="50.795424040406942" lon="14.845919022336602">
        <ele>353.89999999999998</ele>
        <time>2013-09-04T15:13:27Z</time>
      </trkpt>
      <trkpt lat="50.795078035444021" lon="14.850377021357417">
        <ele>359.19</ele>
        <time>2013-09-04T15:13:40Z</time>
      </trkpt>
      <trkpt lat="50.794748039916158" lon="14.85438097268343">
        <ele>368.80000000000001</ele>
        <time>2013-09-04T15:13:54Z</time>
      </trkpt>
      <trkpt lat="50.794821968302131" lon="14.857018003240228">
        <ele>376.00999999999999</ele>
        <time>2013-09-04T15:14:02Z</time>
      </trkpt>
      <trkpt lat="50.795418005436659" lon="14.85936401411891">
        <ele>384.18000000000001</ele>
        <time>2013-09-04T15:14:09Z</time>
      </trkpt>
      <trkpt lat="50.796486027538776" lon="14.86127701587975">
        <ele>392.83999999999997</ele>
        <time>2013-09-04T15:14:16Z</time>
      </trkpt>
      <trkpt lat="50.798875959590077" lon="14.86499497666955">
        <ele>409.66000000000003</ele>
        <time>2013-09-04T15:14:30Z</time>
      </trkpt>
      <trkpt lat="50.800429964438081" lon="14.868391994386911">
        <ele>413.01999999999998</ele>
        <time>2013-09-04T15:14:41Z</time>
      </trkpt>
      <trkpt lat="50.801353985443711" lon="14.871367989107966">
        <ele>412.06</ele>
        <time>2013-09-04T15:14:50Z</time>
      </trkpt>
      <trkpt lat="50.801925966516137" lon="14.874944966286421">
        <ele>405.32999999999998</ele>
        <time>2013-09-04T15:15:00Z</time>
      </trkpt>
      <trkpt lat="50.802337015047669" lon="14.879565993323922">
        <ele>407.25999999999999</ele>
        <time>2013-09-04T15:15:12Z</time>
      </trkpt>
      <trkpt lat="50.802836995571852" lon="14.884109990671277">
        <ele>404.85000000000002</ele>
        <time>2013-09-04T15:15:24Z</time>
      </trkpt>
      <trkpt lat="50.803707959130406" lon="14.886485002934933">
        <ele>401.49000000000001</ele>
        <time>2013-09-04T15:15:31Z</time>
      </trkpt>
      <trkpt lat="50.805005980655551" lon="14.888373026624322">
        <ele>393.80000000000001</ele>
        <time>2013-09-04T15:15:38Z</time>
      </trkpt>
      <trkpt lat="50.806355969980359" lon="14.889414981007576">
        <ele>384.66000000000003</ele>
        <time>2013-09-04T15:15:44Z</time>
      </trkpt>
      <trkpt lat="50.808007959276438" lon="14.890234982594848">
        <ele>375.52999999999997</ele>
        <time>2013-09-04T15:15:51Z</time>
      </trkpt>
      <trkpt lat="50.808234019204974" lon="14.890412008389831">
        <ele>373.13</ele>
        <time>2013-09-04T15:15:52Z</time>
      </trkpt>
      <trkpt lat="50.808458989486098" lon="14.890614012256265">
        <ele>371.69</ele>
        <time>2013-09-04T15:15:53Z</time>
      </trkpt>
      <trkpt lat="50.80865697003901" lon="14.890851974487305">
        <ele>369.75999999999999</ele>
        <time>2013-09-04T15:15:54Z</time>
      </trkpt>
      <trkpt lat="50.808840030804276" lon="14.891117010265589">
        <ele>366.39999999999998</ele>
        <time>2013-09-04T15:15:55Z</time>
      </trkpt>
      <trkpt lat="50.809013033285737" lon="14.891403000801802">
        <ele>364.95999999999998</ele>
        <time>2013-09-04T15:15:56Z</time>
      </trkpt>
      <trkpt lat="50.809173965826631" lon="14.891698965802789">
        <ele>363.04000000000002</ele>
        <time>2013-09-04T15:15:57Z</time>
      </trkpt>
      <trkpt lat="50.809310004115105" lon="14.89202200435102">
        <ele>361.58999999999997</ele>
        <time>2013-09-04T15:15:58Z</time>
      </trkpt>
      <trkpt lat="50.809420980513096" lon="14.89238603040576">
        <ele>359.67000000000002</ele>
        <time>2013-09-04T15:15:59Z</time>
      </trkpt>
      <trkpt lat="50.809511002153158" lon="14.892751984298229">
        <ele>357.75</ele>
        <time>2013-09-04T15:16:00Z</time>
      </trkpt>
      <trkpt lat="50.809586020186543" lon="14.893152974545956">
        <ele>355.82999999999998</ele>
        <time>2013-09-04T15:16:01Z</time>
      </trkpt>
      <trkpt lat="50.809661960229278" lon="14.89352697506547">
        <ele>355.33999999999997</ele>
        <time>2013-09-04T15:16:02Z</time>
      </trkpt>
      <trkpt lat="50.810366962105036" lon="14.896468017250299">
        <ele>345.25</ele>
        <time>2013-09-04T15:16:10Z</time>
      </trkpt>
      <trkpt lat="50.811459040269256" lon="14.898017998784781">
        <ele>341.41000000000003</ele>
        <time>2013-09-04T15:16:16Z</time>
      </trkpt>
      <trkpt lat="50.81239596940577" lon="14.899118961766362">
        <ele>340.44</ele>
        <time>2013-09-04T15:16:21Z</time>
      </trkpt>
      <trkpt lat="50.812548017129302" lon="14.899379974231124">
        <ele>339.48000000000002</ele>
        <time>2013-09-04T15:16:22Z</time>
      </trkpt>
      <trkpt lat="50.812687994912267" lon="14.899664958938956">
        <ele>339</ele>
        <time>2013-09-04T15:16:23Z</time>
      </trkpt>
      <trkpt lat="50.812811041250825" lon="14.899957990273833">
        <ele>337.56</ele>
        <time>2013-09-04T15:16:24Z</time>
      </trkpt>
      <trkpt lat="50.812925035133958" lon="14.900267031043768">
        <ele>337.07999999999998</ele>
        <time>2013-09-04T15:16:25Z</time>
      </trkpt>
      <trkpt lat="50.813023019582033" lon="14.900585040450096">
        <ele>337.07999999999998</ele>
        <time>2013-09-04T15:16:26Z</time>
      </trkpt>
      <trkpt lat="50.813101977109909" lon="14.900919981300831">
        <ele>336.60000000000002</ele>
        <time>2013-09-04T15:16:27Z</time>
      </trkpt>
      <trkpt lat="50.81316601485014" lon="14.90126296877861">
        <ele>336.12</ele>
        <time>2013-09-04T15:16:28Z</time>
      </trkpt>
      <trkpt lat="50.813213037326932" lon="14.901619032025337">
        <ele>336.60000000000002</ele>
        <time>2013-09-04T15:16:29Z</time>
      </trkpt>
      <trkpt lat="50.813239021226764" lon="14.901976017281413">
        <ele>337.07999999999998</ele>
        <time>2013-09-04T15:16:30Z</time>
      </trkpt>
      <trkpt lat="50.81325201317668" lon="14.902326967567205">
        <ele>337.07999999999998</ele>
        <time>2013-09-04T15:16:31Z</time>
      </trkpt>
      <trkpt lat="50.813150005415082" lon="14.904672978445888">
        <ele>337.07999999999998</ele>
        <time>2013-09-04T15:16:38Z</time>
      </trkpt>
      <trkpt lat="50.813222005963326" lon="14.90847802720964">
        <ele>330.82999999999998</ele>
        <time>2013-09-04T15:16:49Z</time>
      </trkpt>
      <trkpt lat="50.813852995634079" lon="14.911394007503986">
        <ele>324.10000000000002</ele>
        <time>2013-09-04T15:16:58Z</time>
      </trkpt>
      <trkpt lat="50.814925963059068" lon="14.913887958973646">
        <ele>314.49000000000001</ele>
        <time>2013-09-04T15:17:07Z</time>
      </trkpt>
      <trkpt lat="50.817392002791166" lon="14.918412007391453">
        <ele>301.50999999999999</ele>
        <time>2013-09-04T15:17:25Z</time>
      </trkpt>
      <trkpt lat="50.818433035165071" lon="14.920966979116201">
        <ele>294.77999999999997</ele>
        <time>2013-09-04T15:17:34Z</time>
      </trkpt>
      <trkpt lat="50.819053966552019" lon="14.924011034891009">
        <ele>289.97000000000003</ele>
        <time>2013-09-04T15:17:43Z</time>
      </trkpt>
      <trkpt lat="50.819193022325635" lon="14.92708601988852">
        <ele>287.56999999999999</ele>
        <time>2013-09-04T15:17:52Z</time>
      </trkpt>
      <trkpt lat="50.818888004869223" lon="14.930430985987186">
        <ele>283.73000000000002</ele>
        <time>2013-09-04T15:18:02Z</time>
      </trkpt>
      <trkpt lat="50.818179985508323" lon="14.934044005349278">
        <ele>286.61000000000001</ele>
        <time>2013-09-04T15:18:13Z</time>
      </trkpt>
      <trkpt lat="50.817628959193826" lon="14.938171003013849">
        <ele>295.25999999999999</ele>
        <time>2013-09-04T15:18:25Z</time>
      </trkpt>
      <trkpt lat="50.817638011649251" lon="14.941698024049401">
        <ele>305.83999999999997</ele>
        <time>2013-09-04T15:18:35Z</time>
      </trkpt>
      <trkpt lat="50.81772300414741" lon="14.946090979501605">
        <ele>310.63999999999999</ele>
        <time>2013-09-04T15:18:48Z</time>
      </trkpt>
      <trkpt lat="50.817450005561113" lon="14.951232019811869">
        <ele>312.56999999999999</ele>
        <time>2013-09-04T15:19:03Z</time>
      </trkpt>
      <trkpt lat="50.816824967041612" lon="14.957396993413568">
        <ele>293.33999999999997</ele>
        <time>2013-09-04T15:19:21Z</time>
      </trkpt>
      <trkpt lat="50.816470999270678" lon="14.959075972437859">
        <ele>289.97000000000003</ele>
        <time>2013-09-04T15:19:26Z</time>
      </trkpt>
      <trkpt lat="50.815532980486751" lon="14.961072038859129">
        <ele>291.89999999999998</ele>
        <time>2013-09-04T15:19:33Z</time>
      </trkpt>
      <trkpt lat="50.814043013378978" lon="14.962770966812968">
        <ele>295.25999999999999</ele>
        <time>2013-09-04T15:19:41Z</time>
      </trkpt>
      <trkpt lat="50.811872016638517" lon="14.965411014854908">
        <ele>307.75999999999999</ele>
        <time>2013-09-04T15:19:53Z</time>
      </trkpt>
      <trkpt lat="50.809101965278387" lon="14.969770023599267">
        <ele>333.23000000000002</ele>
        <time>2013-09-04T15:20:10Z</time>
      </trkpt>
      <trkpt lat="50.806272989138961" lon="14.974303040653467">
        <ele>346.20999999999998</ele>
        <time>2013-09-04T15:20:27Z</time>
      </trkpt>
      <trkpt lat="50.803937036544085" lon="14.978473037481308">
        <ele>346.20999999999998</ele>
        <time>2013-09-04T15:20:42Z</time>
      </trkpt>
      <trkpt lat="50.80242401920259" lon="14.982494004070759">
        <ele>345.25</ele>
        <time>2013-09-04T15:20:55Z</time>
      </trkpt>
      <trkpt lat="50.800244975835085" lon="14.98851103708148">
        <ele>348.62</ele>
        <time>2013-09-04T15:21:14Z</time>
      </trkpt>
      <trkpt lat="50.797606017440557" lon="14.995679995045066">
        <ele>365.92000000000002</ele>
        <time>2013-09-04T15:21:37Z</time>
      </trkpt>
      <trkpt lat="50.796119989827275" lon="14.999596020206809">
        <ele>360.14999999999998</ele>
        <time>2013-09-04T15:21:50Z</time>
      </trkpt>
      <trkpt lat="50.794586017727852" lon="15.00320803374052">
        <ele>346.69</ele>
        <time>2013-09-04T15:22:03Z</time>
      </trkpt>
      <trkpt lat="50.793266035616398" lon="15.00462600030005">
        <ele>337.56</ele>
        <time>2013-09-04T15:22:10Z</time>
      </trkpt>
      <trkpt lat="50.791503991931677" lon="15.006381003186107">
        <ele>326.99000000000001</ele>
        <time>2013-09-04T15:22:19Z</time>
      </trkpt>
      <trkpt lat="50.79060897231102" lon="15.00855996273458">
        <ele>322.66000000000003</ele>
        <time>2013-09-04T15:22:26Z</time>
      </trkpt>
      <trkpt lat="50.79041400924325" lon="15.009599989280105">
        <ele>322.66000000000003</ele>
        <time>2013-09-04T15:22:29Z</time>
      </trkpt>
      <trkpt lat="50.790419038385153" lon="15.012140963226557">
        <ele>323.62</ele>
        <time>2013-09-04T15:22:36Z</time>
      </trkpt>
      <trkpt lat="50.790610983967781" lon="15.015601012855768">
        <ele>325.54000000000002</ele>
        <time>2013-09-04T15:22:46Z</time>
      </trkpt>
      <trkpt lat="50.790158025920391" lon="15.017800005152822">
        <ele>326.99000000000001</ele>
        <time>2013-09-04T15:22:53Z</time>
      </trkpt>
      <trkpt lat="50.789267029613256" lon="15.01955701969564">
        <ele>328.91000000000003</ele>
        <time>2013-09-04T15:23:00Z</time>
      </trkpt>
      <trkpt lat="50.787587966769934" lon="15.021483013406396">
        <ele>335.16000000000003</ele>
        <time>2013-09-04T15:23:10Z</time>
      </trkpt>
      <trkpt lat="50.78592399135232" lon="15.022857980802655">
        <ele>338.04000000000002</ele>
        <time>2013-09-04T15:23:19Z</time>
      </trkpt>
      <trkpt lat="50.783876040950418" lon="15.023612016811967">
        <ele>334.19999999999999</ele>
        <time>2013-09-04T15:23:29Z</time>
      </trkpt>
      <trkpt lat="50.782159008085728" lon="15.024798978120089">
        <ele>335.16000000000003</ele>
        <time>2013-09-04T15:23:38Z</time>
      </trkpt>
      <trkpt lat="50.781838987022638" lon="15.025226036086679">
        <ele>336.12</ele>
        <time>2013-09-04T15:23:40Z</time>
      </trkpt>
      <trkpt lat="50.781696997582912" lon="15.025462992489338">
        <ele>337.07999999999998</ele>
        <time>2013-09-04T15:23:41Z</time>
      </trkpt>
      <trkpt lat="50.780952014029026" lon="15.027296030893922">
        <ele>339</ele>
        <time>2013-09-04T15:23:48Z</time>
      </trkpt>
      <trkpt lat="50.780004020780325" lon="15.029929038137197">
        <ele>344.76999999999998</ele>
        <time>2013-09-04T15:23:58Z</time>
      </trkpt>
      <trkpt lat="50.77838396653533" lon="15.032550981268287">
        <ele>350.06</ele>
        <time>2013-09-04T15:24:10Z</time>
      </trkpt>
      <trkpt lat="50.777507973834872" lon="15.033657979220152">
        <ele>353.42000000000002</ele>
        <time>2013-09-04T15:24:17Z</time>
      </trkpt>
      <trkpt lat="50.777184013277292" lon="15.03393298946321">
        <ele>355.82999999999998</ele>
        <time>2013-09-04T15:24:20Z</time>
      </trkpt>
      <trkpt lat="50.777067001909018" lon="15.033980011940002">
        <ele>356.31</ele>
        <time>2013-09-04T15:24:21Z</time>
      </trkpt>
      <trkpt lat="50.776947978883982" lon="15.034009013324976">
        <ele>356.79000000000002</ele>
        <time>2013-09-04T15:24:22Z</time>
      </trkpt>
      <trkpt lat="50.776380021125078" lon="15.034083025529981">
        <ele>358.23000000000002</ele>
        <time>2013-09-04T15:24:27Z</time>
      </trkpt>
      <trkpt lat="50.776284970343113" lon="15.03412501886487">
        <ele>357.75</ele>
        <time>2013-09-04T15:24:28Z</time>
      </trkpt>
      <trkpt lat="50.776197966188192" lon="15.03419098444283">
        <ele>357.75</ele>
        <time>2013-09-04T15:24:29Z</time>
      </trkpt>
      <trkpt lat="50.776121020317078" lon="15.034271031618118">
        <ele>357.26999999999998</ele>
        <time>2013-09-04T15:24:30Z</time>
      </trkpt>
      <trkpt lat="50.776054970920086" lon="15.034353006631136">
        <ele>356.79000000000002</ele>
        <time>2013-09-04T15:24:31Z</time>
      </trkpt>
      <trkpt lat="50.775999985635281" lon="15.034431964159012">
        <ele>356.31</ele>
        <time>2013-09-04T15:24:32Z</time>
      </trkpt>
      <trkpt lat="50.775805022567511" lon="15.034685013815761">
        <ele>354.38</ele>
        <time>2013-09-04T15:24:39Z</time>
      </trkpt>
      <trkpt lat="50.775736039504409" lon="15.034715021029115">
        <ele>353.89999999999998</ele>
        <time>2013-09-04T15:24:41Z</time>
      </trkpt>
      <trkpt lat="50.775677030906081" lon="15.034723989665508">
        <ele>353.42000000000002</ele>
        <time>2013-09-04T15:24:42Z</time>
      </trkpt>
      <trkpt lat="50.775565970689058" lon="15.034772017970681">
        <ele>353.42000000000002</ele>
        <time>2013-09-04T15:24:44Z</time>
      </trkpt>
      <trkpt lat="50.775530012324452" lon="15.03483597189188">
        <ele>352.45999999999998</ele>
        <time>2013-09-04T15:24:45Z</time>
      </trkpt>
      <trkpt lat="50.775514002889395" lon="15.034922976046801">
        <ele>351.5</ele>
        <time>2013-09-04T15:24:46Z</time>
      </trkpt>
      <trkpt lat="50.775516014546156" lon="15.03502800129354">
        <ele>351.5</ele>
        <time>2013-09-04T15:24:47Z</time>
      </trkpt>
      <trkpt lat="50.775552978739142" lon="15.035121962428093">
        <ele>351.98000000000002</ele>
        <time>2013-09-04T15:24:48Z</time>
      </trkpt>
      <trkpt lat="50.775598995387554" lon="15.035208966583014">
        <ele>351.98000000000002</ele>
        <time>2013-09-04T15:24:49Z</time>
      </trkpt>
      <trkpt lat="50.775643000379205" lon="15.035297982394695">
        <ele>352.45999999999998</ele>
        <time>2013-09-04T15:24:50Z</time>
      </trkpt>
      <trkpt lat="50.775709971785545" lon="15.035499986261129">
        <ele>352.94</ele>
        <time>2013-09-04T15:24:52Z</time>
      </trkpt>
      <trkpt lat="50.775727992877364" lon="15.035621020942926">
        <ele>352.94</ele>
        <time>2013-09-04T15:24:53Z</time>
      </trkpt>
      <trkpt lat="50.775735033676028" lon="15.035752030089498">
        <ele>352.94</ele>
        <time>2013-09-04T15:24:54Z</time>
      </trkpt>
      <trkpt lat="50.775773003697395" lon="15.035947998985648">
        <ele>353.42000000000002</ele>
        <time>2013-09-04T15:24:56Z</time>
      </trkpt>
      <trkpt lat="50.775816002860665" lon="15.036029973998666">
        <ele>352.94</ele>
        <time>2013-09-04T15:24:57Z</time>
      </trkpt>
      <trkpt lat="50.775870988145471" lon="15.036097029224038">
        <ele>352.45999999999998</ele>
        <time>2013-09-04T15:24:58Z</time>
      </trkpt>
      <trkpt lat="50.775979030877352" lon="15.036343960091472">
        <ele>350.54000000000002</ele>
        <time>2013-09-04T15:25:01Z</time>
      </trkpt>
      <trkpt lat="50.776033010333776" lon="15.036493996158242">
        <ele>350.54000000000002</ele>
        <time>2013-09-04T15:25:03Z</time>
      </trkpt>
      <trkpt lat="50.776182040572166" lon="15.03700696863234">
        <ele>350.06</ele>
        <time>2013-09-04T15:25:09Z</time>
      </trkpt>
      <trkpt lat="50.776239959523082" lon="15.0370919611305">
        <ele>349.57999999999998</ele>
        <time>2013-09-04T15:25:10Z</time>
      </trkpt>
      <trkpt lat="50.77632000669837" lon="15.037168990820646">
        <ele>349.57999999999998</ele>
        <time>2013-09-04T15:25:11Z</time>
      </trkpt>
      <trkpt lat="50.777241010218859" lon="15.038233995437622">
        <ele>342.37</ele>
        <time>2013-09-04T15:25:21Z</time>
      </trkpt>
      <trkpt lat="50.777412001043558" lon="15.038440022617579">
        <ele>341.41000000000003</ele>
        <time>2013-09-04T15:25:23Z</time>
      </trkpt>
      <trkpt lat="50.777577962726355" lon="15.038631968200207">
        <ele>339.95999999999998</ele>
        <time>2013-09-04T15:25:25Z</time>
      </trkpt>
      <trkpt lat="50.777664966881275" lon="15.038711009547114">
        <ele>339.48000000000002</ele>
        <time>2013-09-04T15:25:26Z</time>
      </trkpt>
      <trkpt lat="50.778239965438843" lon="15.039182994514704">
        <ele>338.51999999999998</ele>
        <time>2013-09-04T15:25:32Z</time>
      </trkpt>
      <trkpt lat="50.778349013999104" lon="15.039235968142748">
        <ele>339</ele>
        <time>2013-09-04T15:25:33Z</time>
      </trkpt>
      <trkpt lat="50.778454961255193" lon="15.039268992841244">
        <ele>339</ele>
        <time>2013-09-04T15:25:34Z</time>
      </trkpt>
      <trkpt lat="50.779763963073492" lon="15.039605023339391">
        <ele>343.32999999999998</ele>
        <time>2013-09-04T15:25:46Z</time>
      </trkpt>
      <trkpt lat="50.779902013018727" lon="15.039593037217855">
        <ele>345.73000000000002</ele>
        <time>2013-09-04T15:25:48Z</time>
      </trkpt>
      <trkpt lat="50.779935037717223" lon="15.039552971720695">
        <ele>345.73000000000002</ele>
        <time>2013-09-04T15:25:49Z</time>
      </trkpt>
      <trkpt lat="50.779921039938927" lon="15.039507038891315">
        <ele>344.29000000000002</ele>
        <time>2013-09-04T15:25:50Z</time>
      </trkpt>
      <trkpt lat="50.779895978048444" lon="15.03949698060751">
        <ele>342.85000000000002</ele>
        <time>2013-09-04T15:25:51Z</time>
      </trkpt>
      <trkpt lat="50.779877034947276" lon="15.039511984214187">
        <ele>342.37</ele>
        <time>2013-09-04T15:25:52Z</time>
      </trkpt>
      <trkpt lat="50.77986303716898" lon="15.039526987820864">
        <ele>342.85000000000002</ele>
        <time>2013-09-04T15:25:53Z</time>
      </trkpt>
      <trkpt lat="50.779829006642103" lon="15.039552971720695">
        <ele>342.37</ele>
        <time>2013-09-04T15:25:54Z</time>
      </trkpt>
      <trkpt lat="50.779776033014059" lon="15.03956101834774">
        <ele>341.41000000000003</ele>
        <time>2013-09-04T15:25:55Z</time>
      </trkpt>
      <trkpt lat="50.779710989445448" lon="15.039547020569444">
        <ele>340.44</ele>
        <time>2013-09-04T15:25:56Z</time>
      </trkpt>
      <trkpt lat="50.779635971412063" lon="15.039531011134386">
        <ele>340.44</ele>
        <time>2013-09-04T15:25:57Z</time>
      </trkpt>
      <trkpt lat="50.778692001476884" lon="15.039269998669624">
        <ele>339</ele>
        <time>2013-09-04T15:26:07Z</time>
      </trkpt>
      <trkpt lat="50.778179029002786" lon="15.039057014510036">
        <ele>341.88999999999999</ele>
        <time>2013-09-04T15:26:12Z</time>
      </trkpt>
      <trkpt lat="50.778086995705962" lon="15.038987025618553">
        <ele>341.88999999999999</ele>
        <time>2013-09-04T15:26:13Z</time>
      </trkpt>
      <trkpt lat="50.777705032378435" lon="15.038646971806884">
        <ele>342.37</ele>
        <time>2013-09-04T15:26:17Z</time>
      </trkpt>
      <trkpt lat="50.776731977239251" lon="15.03745699301362">
        <ele>345.73000000000002</ele>
        <time>2013-09-04T15:26:29Z</time>
      </trkpt>
      <trkpt lat="50.776671962812543" lon="15.03734802827239">
        <ele>346.20999999999998</ele>
        <time>2013-09-04T15:26:36Z</time>
      </trkpt>
      <trkpt lat="50.776668023318052" lon="15.037350039929152">
        <ele>346.20999999999998</ele>
        <time>2013-09-04T15:26:40Z</time>
      </trkpt>
      <trkpt lat="50.77664103358984" lon="15.037366971373558">
        <ele>346.69</ele>
        <time>2013-09-04T15:26:41Z</time>
      </trkpt>
      <trkpt lat="50.776604991406202" lon="15.037407958880067">
        <ele>346.69</ele>
        <time>2013-09-04T15:26:42Z</time>
      </trkpt>
      <trkpt lat="50.776571966707706" lon="15.037447018548846">
        <ele>346.69</ele>
        <time>2013-09-04T15:26:43Z</time>
      </trkpt>
      <trkpt lat="50.776530979201198" lon="15.037463027983904">
        <ele>346.69</ele>
        <time>2013-09-04T15:26:44Z</time>
      </trkpt>
      <trkpt lat="50.776489991694689" lon="15.037467973306775">
        <ele>346.69</ele>
        <time>2013-09-04T15:26:45Z</time>
      </trkpt>
      <trkpt lat="50.776452021673322" lon="15.0374770257622">
        <ele>346.69</ele>
        <time>2013-09-04T15:26:46Z</time>
      </trkpt>
      <trkpt lat="50.776420002803206" lon="15.037495968863368">
        <ele>346.69</ele>
        <time>2013-09-04T15:26:47Z</time>
      </trkpt>
      <trkpt lat="50.776393013074994" lon="15.037526981905103">
        <ele>346.20999999999998</ele>
        <time>2013-09-04T15:26:48Z</time>
      </trkpt>
      <trkpt lat="50.776373986154795" lon="15.037564029917121">
        <ele>346.20999999999998</ele>
        <time>2013-09-04T15:26:49Z</time>
      </trkpt>
      <trkpt lat="50.776332998648286" lon="15.037615997716784">
        <ele>349.57999999999998</ele>
        <time>2013-09-04T15:27:00Z</time>
      </trkpt>
    </trkseg>
  </trk>

  <trk>
    <name>Track vom: 05 SEP 2013 08:39</name>
    <trkseg>
      <trkpt lat="50.775985987856984" lon="15.03818797878921">
        <ele>339.48000000000002</ele>
        <time>2013-09-05T06:39:38Z</time>
      </trkpt>
      <trkpt lat="50.775978025048971" lon="15.03829400986433">
        <ele>339.95999999999998</ele>
        <time>2013-09-05T06:39:39Z</time>
      </trkpt>
      <trkpt lat="50.775994034484029" lon="15.038762977346778">
        <ele>350.54000000000002</ele>
        <time>2013-09-05T06:39:45Z</time>
      </trkpt>
      <trkpt lat="50.77595598064363" lon="15.038798013702035">
        <ele>355.82999999999998</ele>
        <time>2013-09-05T06:39:46Z</time>
      </trkpt>
      <trkpt lat="50.775908958166838" lon="15.038797007873654">
        <ele>357.26999999999998</ele>
        <time>2013-09-05T06:39:47Z</time>
      </trkpt>
      <trkpt lat="50.775849027559161" lon="15.038760965690017">
        <ele>356.79000000000002</ele>
        <time>2013-09-05T06:39:48Z</time>
      </trkpt>
      <trkpt lat="50.775795970112085" lon="15.038733975961804">
        <ele>354.86000000000001</ele>
        <time>2013-09-05T06:39:49Z</time>
      </trkpt>
      <trkpt lat="50.775727992877364" lon="15.038697011768818">
        <ele>353.42000000000002</ele>
        <time>2013-09-05T06:39:50Z</time>
      </trkpt>
      <trkpt lat="50.775666972622275" lon="15.038665998727083">
        <ele>351.01999999999998</ele>
        <time>2013-09-05T06:39:51Z</time>
      </trkpt>
      <trkpt lat="50.775608969852328" lon="15.038648983463645">
        <ele>355.33999999999997</ele>
        <time>2013-09-05T06:39:52Z</time>
      </trkpt>
      <trkpt lat="50.775342006236315" lon="15.03848603926599">
        <ele>359.19</ele>
        <time>2013-09-05T06:40:01Z</time>
      </trkpt>
      <trkpt lat="50.775358015671372" lon="15.038455026224256">
        <ele>362.55000000000001</ele>
        <time>2013-09-05T06:40:10Z</time>
      </trkpt>
      <trkpt lat="50.775365978479385" lon="15.038413032889366">
        <ele>362.55000000000001</ele>
        <time>2013-09-05T06:40:11Z</time>
      </trkpt>
      <trkpt lat="50.775399003177881" lon="15.038351006805897">
        <ele>362.06999999999999</ele>
        <time>2013-09-05T06:40:12Z</time>
      </trkpt>
      <trkpt lat="50.775929996743798" lon="15.037570986896753">
        <ele>355.33999999999997</ele>
        <time>2013-09-05T06:40:20Z</time>
      </trkpt>
      <trkpt lat="50.776072992011905" lon="15.03741298802197">
        <ele>353.42000000000002</ele>
        <time>2013-09-05T06:40:26Z</time>
      </trkpt>
      <trkpt lat="50.776207018643618" lon="15.037235962226987">
        <ele>354.86000000000001</ele>
        <time>2013-09-05T06:40:36Z</time>
      </trkpt>
      <trkpt lat="50.776393013074994" lon="15.03704602830112">
        <ele>357.75</ele>
        <time>2013-09-05T06:40:45Z</time>
      </trkpt>
      <trkpt lat="50.776437018066645" lon="15.03696396946907">
        <ele>358.70999999999998</ele>
        <time>2013-09-05T06:40:46Z</time>
      </trkpt>
      <trkpt lat="50.776455039158463" lon="15.036873025819659">
        <ele>359.19</ele>
        <time>2013-09-05T06:40:47Z</time>
      </trkpt>
      <trkpt lat="50.776441963389516" lon="15.036779986694455">
        <ele>359.67000000000002</ele>
        <time>2013-09-05T06:40:48Z</time>
      </trkpt>
      <trkpt lat="50.776403993368149" lon="15.03670203499496">
        <ele>361.11000000000001</ele>
        <time>2013-09-05T06:40:49Z</time>
      </trkpt>
      <trkpt lat="50.776344984769821" lon="15.036645960062742">
        <ele>361.58999999999997</ele>
        <time>2013-09-05T06:40:50Z</time>
      </trkpt>
      <trkpt lat="50.776283964514732" lon="15.036601033061743">
        <ele>361.58999999999997</ele>
        <time>2013-09-05T06:40:51Z</time>
      </trkpt>
      <trkpt lat="50.776241971179843" lon="15.036536995321512">
        <ele>362.06999999999999</ele>
        <time>2013-09-05T06:40:52Z</time>
      </trkpt>
      <trkpt lat="50.776208024471998" lon="15.036445967853069">
        <ele>362.06999999999999</ele>
        <time>2013-09-05T06:40:53Z</time>
      </trkpt>
      <trkpt lat="50.77619100920856" lon="15.036326022818685">
        <ele>362.06999999999999</ele>
        <time>2013-09-05T06:40:54Z</time>
      </trkpt>
      <trkpt lat="50.776196960359812" lon="15.036196019500494">
        <ele>362.55000000000001</ele>
        <time>2013-09-05T06:40:55Z</time>
      </trkpt>
      <trkpt lat="50.776226967573166" lon="15.036056041717529">
        <ele>362.55000000000001</ele>
        <time>2013-09-05T06:40:56Z</time>
      </trkpt>
      <trkpt lat="50.776276001706719" lon="15.035920003429055">
        <ele>363.04000000000002</ele>
        <time>2013-09-05T06:40:57Z</time>
      </trkpt>
      <trkpt lat="50.776340961456299" lon="15.035799974575639">
        <ele>363.04000000000002</ele>
        <time>2013-09-05T06:40:58Z</time>
      </trkpt>
      <trkpt lat="50.776418996974826" lon="15.035658990964293">
        <ele>363.51999999999998</ele>
        <time>2013-09-05T06:40:59Z</time>
      </trkpt>
      <trkpt lat="50.776508012786508" lon="15.035534016788006">
        <ele>364.48000000000002</ele>
        <time>2013-09-05T06:41:00Z</time>
      </trkpt>
      <trkpt lat="50.777482995763421" lon="15.034213028848171">
        <ele>364</ele>
        <time>2013-09-05T06:41:09Z</time>
      </trkpt>
      <trkpt lat="50.778156984597445" lon="15.033336030319333">
        <ele>361.58999999999997</ele>
        <time>2013-09-05T06:41:14Z</time>
      </trkpt>
      <trkpt lat="50.779336988925934" lon="15.031556971371174">
        <ele>357.26999999999998</ele>
        <time>2013-09-05T06:41:22Z</time>
      </trkpt>
      <trkpt lat="50.780882025137544" lon="15.02845399081707">
        <ele>351.5</ele>
        <time>2013-09-05T06:41:33Z</time>
      </trkpt>
      <trkpt lat="50.781592978164554" lon="15.02619699575007">
        <ele>347.17000000000002</ele>
        <time>2013-09-05T06:41:40Z</time>
      </trkpt>
      <trkpt lat="50.781727004796267" lon="15.025893989950418">
        <ele>346.69</ele>
        <time>2013-09-05T06:41:41Z</time>
      </trkpt>
      <trkpt lat="50.781876035034657" lon="15.025603976100683">
        <ele>346.69</ele>
        <time>2013-09-05T06:41:42Z</time>
      </trkpt>
      <trkpt lat="50.78203403390944" lon="15.025333994999528">
        <ele>346.20999999999998</ele>
        <time>2013-09-05T06:41:43Z</time>
      </trkpt>
      <trkpt lat="50.782196978107095" lon="15.025076000019908">
        <ele>345.73000000000002</ele>
        <time>2013-09-05T06:41:44Z</time>
      </trkpt>
      <trkpt lat="50.782381966710091" lon="15.024833008646965">
        <ele>345.25</ele>
        <time>2013-09-05T06:41:45Z</time>
      </trkpt>
      <trkpt lat="50.782569972798228" lon="15.024616001173854">
        <ele>344.76999999999998</ele>
        <time>2013-09-05T06:41:46Z</time>
      </trkpt>
      <trkpt lat="50.782766025513411" lon="15.02441399730742">
        <ele>344.29000000000002</ele>
        <time>2013-09-05T06:41:47Z</time>
      </trkpt>
      <trkpt lat="50.782970041036606" lon="15.024228002876043">
        <ele>343.32999999999998</ele>
        <time>2013-09-05T06:41:48Z</time>
      </trkpt>
      <trkpt lat="50.783185036852956" lon="15.024073021486402">
        <ele>342.85000000000002</ele>
        <time>2013-09-05T06:41:49Z</time>
      </trkpt>
      <trkpt lat="50.783412018790841" lon="15.023929020389915">
        <ele>342.85000000000002</ele>
        <time>2013-09-05T06:41:50Z</time>
      </trkpt>
      <trkpt lat="50.783640006557107" lon="15.023816032335162">
        <ele>342.85000000000002</ele>
        <time>2013-09-05T06:41:51Z</time>
      </trkpt>
      <trkpt lat="50.786012001335621" lon="15.02299795858562">
        <ele>339.95999999999998</ele>
        <time>2013-09-05T06:42:01Z</time>
      </trkpt>
      <trkpt lat="50.787773039191961" lon="15.021584015339613">
        <ele>339</ele>
        <time>2013-09-05T06:42:09Z</time>
      </trkpt>
      <trkpt lat="50.789850996807218" lon="15.019164998084307">
        <ele>340.44</ele>
        <time>2013-09-05T06:42:20Z</time>
      </trkpt>
      <trkpt lat="50.790591035038233" lon="15.017800005152822">
        <ele>341.41000000000003</ele>
        <time>2013-09-05T06:42:27Z</time>
      </trkpt>
      <trkpt lat="50.790895968675613" lon="15.017050998285413">
        <ele>341.88999999999999</ele>
        <time>2013-09-05T06:42:31Z</time>
      </trkpt>
      <trkpt lat="50.790941985324025" lon="15.016833990812302">
        <ele>342.37</ele>
        <time>2013-09-05T06:42:32Z</time>
      </trkpt>
      <trkpt lat="50.791151029989123" lon="15.014826022088528">
        <ele>342.85000000000002</ele>
        <time>2013-09-05T06:42:40Z</time>
      </trkpt>
      <trkpt lat="50.790892029181123" lon="15.012761978432536">
        <ele>338.51999999999998</ele>
        <time>2013-09-05T06:42:48Z</time>
      </trkpt>
      <trkpt lat="50.790664041414857" lon="15.011148964986205">
        <ele>339</ele>
        <time>2013-09-05T06:42:54Z</time>
      </trkpt>
      <trkpt lat="50.790664041414857" lon="15.010585030540824">
        <ele>339.95999999999998</ele>
        <time>2013-09-05T06:42:56Z</time>
      </trkpt>
      <trkpt lat="50.790688013657928" lon="15.010313037782907">
        <ele>340.44</ele>
        <time>2013-09-05T06:42:57Z</time>
      </trkpt>
      <trkpt lat="50.790723972022533" lon="15.010067028924823">
        <ele>340.92000000000002</ele>
        <time>2013-09-05T06:42:58Z</time>
      </trkpt>
      <trkpt lat="50.790775017812848" lon="15.009841974824667">
        <ele>341.88999999999999</ele>
        <time>2013-09-05T06:42:59Z</time>
      </trkpt>
      <trkpt lat="50.790834026411176" lon="15.009634019806981">
        <ele>342.37</ele>
        <time>2013-09-05T06:43:00Z</time>
      </trkpt>
      <trkpt lat="50.790894962847233" lon="15.009447019547224">
        <ele>342.85000000000002</ele>
        <time>2013-09-05T06:43:01Z</time>
      </trkpt>
      <trkpt lat="50.790966963395476" lon="15.009290026500821">
        <ele>342.85000000000002</ele>
        <time>2013-09-05T06:43:02Z</time>
      </trkpt>
      <trkpt lat="50.791044998914003" lon="15.009148037061095">
        <ele>343.32999999999998</ele>
        <time>2013-09-05T06:43:03Z</time>
      </trkpt>
      <trkpt lat="50.791136026382446" lon="15.009068995714188">
        <ele>343.32999999999998</ele>
        <time>2013-09-05T06:43:04Z</time>
      </trkpt>
      <trkpt lat="50.791238034144044" lon="15.009038988500834">
        <ele>343.81</ele>
        <time>2013-09-05T06:43:05Z</time>
      </trkpt>
      <trkpt lat="50.791354961693287" lon="15.009046029299498">
        <ele>344.29000000000002</ele>
        <time>2013-09-05T06:43:06Z</time>
      </trkpt>
      <trkpt lat="50.791492005810142" lon="15.009077964350581">
        <ele>344.76999999999998</ele>
        <time>2013-09-05T06:43:07Z</time>
      </trkpt>
      <trkpt lat="50.791635001078248" lon="15.009120963513851">
        <ele>344.76999999999998</ele>
        <time>2013-09-05T06:43:08Z</time>
      </trkpt>
      <trkpt lat="50.791788976639509" lon="15.009143007919192">
        <ele>345.25</ele>
        <time>2013-09-05T06:43:09Z</time>
      </trkpt>
      <trkpt lat="50.791947981342673" lon="15.009125992655754">
        <ele>345.25</ele>
        <time>2013-09-05T06:43:10Z</time>
      </trkpt>
      <trkpt lat="50.792108997702599" lon="15.009071007370949">
        <ele>344.76999999999998</ele>
        <time>2013-09-05T06:43:11Z</time>
      </trkpt>
      <trkpt lat="50.792275965213776" lon="15.008990038186312">
        <ele>344.76999999999998</ele>
        <time>2013-09-05T06:43:12Z</time>
      </trkpt>
      <trkpt lat="50.792441004887223" lon="15.008889958262444">
        <ele>345.73000000000002</ele>
        <time>2013-09-05T06:43:13Z</time>
      </trkpt>
      <trkpt lat="50.793742965906858" lon="15.008543031290174">
        <ele>351.5</ele>
        <time>2013-09-05T06:43:20Z</time>
      </trkpt>
      <trkpt lat="50.793931977823377" lon="15.008596004918218">
        <ele>352.45999999999998</ele>
        <time>2013-09-05T06:43:21Z</time>
      </trkpt>
      <trkpt lat="50.794121995568275" lon="15.008674040436745">
        <ele>352.94</ele>
        <time>2013-09-05T06:43:22Z</time>
      </trkpt>
      <trkpt lat="50.794316958636045" lon="15.008758027106524">
        <ele>353.89999999999998</ele>
        <time>2013-09-05T06:43:23Z</time>
      </trkpt>
      <trkpt lat="50.794499013572931" lon="15.008876966312528">
        <ele>354.86000000000001</ele>
        <time>2013-09-05T06:43:24Z</time>
      </trkpt>
      <trkpt lat="50.794674027711153" lon="15.009022979065776">
        <ele>355.82999999999998</ele>
        <time>2013-09-05T06:43:25Z</time>
      </trkpt>
      <trkpt lat="50.794850969687104" lon="15.009186007082462">
        <ele>356.79000000000002</ele>
        <time>2013-09-05T06:43:26Z</time>
      </trkpt>
      <trkpt lat="50.795008968561888" lon="15.009381975978613">
        <ele>358.23000000000002</ele>
        <time>2013-09-05T06:43:27Z</time>
      </trkpt>
      <trkpt lat="50.795155987143517" lon="15.009605018422008">
        <ele>359.19</ele>
        <time>2013-09-05T06:43:28Z</time>
      </trkpt>
      <trkpt lat="50.795281967148185" lon="15.009862007573247">
        <ele>360.14999999999998</ele>
        <time>2013-09-05T06:43:29Z</time>
      </trkpt>
      <trkpt lat="50.795394033193588" lon="15.01014799810946">
        <ele>361.58999999999997</ele>
        <time>2013-09-05T06:43:30Z</time>
      </trkpt>
      <trkpt lat="50.79548598267138" lon="15.010437006130815">
        <ele>362.55000000000001</ele>
        <time>2013-09-05T06:43:31Z</time>
      </trkpt>
      <trkpt lat="50.795567035675049" lon="15.010740011930466">
        <ele>364</ele>
        <time>2013-09-05T06:43:32Z</time>
      </trkpt>
      <trkpt lat="50.795628977939487" lon="15.011056009680033">
        <ele>364.95999999999998</ele>
        <time>2013-09-05T06:43:33Z</time>
      </trkpt>
      <trkpt lat="50.795689998194575" lon="15.0113720074296">
        <ele>365.44</ele>
        <time>2013-09-05T06:43:34Z</time>
      </trkpt>
      <trkpt lat="50.796230966225266" lon="15.015213014557958">
        <ele>365.44</ele>
        <time>2013-09-05T06:43:45Z</time>
      </trkpt>
      <trkpt lat="50.79711701720953" lon="15.021800016984344">
        <ele>370.73000000000002</ele>
        <time>2013-09-05T06:44:03Z</time>
      </trkpt>
      <trkpt lat="50.797731997445226" lon="15.02447702921927">
        <ele>372.17000000000002</ele>
        <time>2013-09-05T06:44:11Z</time>
      </trkpt>
      <trkpt lat="50.798613019287586" lon="15.026178974658251">
        <ele>375.05000000000001</ele>
        <time>2013-09-05T06:44:18Z</time>
      </trkpt>
      <trkpt lat="50.79978397116065" lon="15.027343975380063">
        <ele>380.33999999999997</ele>
        <time>2013-09-05T06:44:26Z</time>
      </trkpt>
      <trkpt lat="50.801123986020684" lon="15.027883015573025">
        <ele>383.22000000000003</ele>
        <time>2013-09-05T06:44:32Z</time>
      </trkpt>
      <trkpt lat="50.803188029676676" lon="15.028091976419091">
        <ele>389.94999999999999</ele>
        <time>2013-09-05T06:44:41Z</time>
      </trkpt>
      <trkpt lat="50.806026980280876" lon="15.028386013582349">
        <ele>398.12</ele>
        <time>2013-09-05T06:44:53Z</time>
      </trkpt>
      <trkpt lat="50.809500021860003" lon="15.028752973303199">
        <ele>409.66000000000003</ele>
        <time>2013-09-05T06:45:08Z</time>
      </trkpt>
      <trkpt lat="50.812687994912267" lon="15.029435008764267">
        <ele>420.23000000000002</ele>
        <time>2013-09-05T06:45:22Z</time>
      </trkpt>
      <trkpt lat="50.814600996673107" lon="15.03071098588407">
        <ele>419.75</ele>
        <time>2013-09-05T06:45:31Z</time>
      </trkpt>
      <trkpt lat="50.816032039001584" lon="15.032398011535406">
        <ele>417.35000000000002</ele>
        <time>2013-09-05T06:45:39Z</time>
      </trkpt>
      <trkpt lat="50.817599035799503" lon="15.034647965803742">
        <ele>409.18000000000001</ele>
        <time>2013-09-05T06:45:50Z</time>
      </trkpt>
      <trkpt lat="50.818270007148385" lon="15.035619009286165">
        <ele>405.32999999999998</ele>
        <time>2013-09-05T06:45:56Z</time>
      </trkpt>
      <trkpt lat="50.818346031010151" lon="15.035783965140581">
        <ele>405.32999999999998</ele>
        <time>2013-09-05T06:45:57Z</time>
      </trkpt>
      <trkpt lat="50.818408979102969" lon="15.035944981500506">
        <ele>404.85000000000002</ele>
        <time>2013-09-05T06:45:58Z</time>
      </trkpt>
      <trkpt lat="50.818545017391443" lon="15.036222003400326">
        <ele>404.37</ele>
        <time>2013-09-05T06:46:00Z</time>
      </trkpt>
      <trkpt lat="50.818633027374744" lon="15.036351000890136">
        <ele>404.37</ele>
        <time>2013-09-05T06:46:01Z</time>
      </trkpt>
      <trkpt lat="50.818715002387762" lon="15.036517968401313">
        <ele>403.88999999999999</ele>
        <time>2013-09-05T06:46:02Z</time>
      </trkpt>
      <trkpt lat="50.818787002936006" lon="15.036719972267747">
        <ele>403.88999999999999</ele>
        <time>2013-09-05T06:46:03Z</time>
      </trkpt>
      <trkpt lat="50.818854980170727" lon="15.03694100305438">
        <ele>402.93000000000001</ele>
        <time>2013-09-05T06:46:04Z</time>
      </trkpt>
      <trkpt lat="50.819331994280219" lon="15.038329968228936">
        <ele>399.07999999999998</ele>
        <time>2013-09-05T06:46:10Z</time>
      </trkpt>
      <trkpt lat="50.820218967273831" lon="15.04018203355372">
        <ele>395.24000000000001</ele>
        <time>2013-09-05T06:46:21Z</time>
      </trkpt>
      <trkpt lat="50.820492971688509" lon="15.04074496217072">
        <ele>394.27999999999997</ele>
        <time>2013-09-05T06:46:28Z</time>
      </trkpt>
      <trkpt lat="50.820519039407372" lon="15.040856022387743">
        <ele>395.72000000000003</ele>
        <time>2013-09-05T06:46:37Z</time>
      </trkpt>
      <trkpt lat="50.820718025788665" lon="15.041178977116942">
        <ele>395.72000000000003</ele>
        <time>2013-09-05T06:46:47Z</time>
      </trkpt>
      <trkpt lat="50.821486981585622" lon="15.041987998411059">
        <ele>392.83999999999997</ele>
        <time>2013-09-05T06:46:56Z</time>
      </trkpt>
      <trkpt lat="50.822670003399253" lon="15.042815962806344">
        <ele>390.43000000000001</ele>
        <time>2013-09-05T06:47:06Z</time>
      </trkpt>
      <trkpt lat="50.822978038340807" lon="15.043229022994637">
        <ele>389.47000000000003</ele>
        <time>2013-09-05T06:47:09Z</time>
      </trkpt>
      <trkpt lat="50.823062025010586" lon="15.043404037132859">
        <ele>389.47000000000003</ele>
        <time>2013-09-05T06:47:10Z</time>
      </trkpt>
      <trkpt lat="50.823597041890025" lon="15.045182006433606">
        <ele>388.02999999999997</ele>
        <time>2013-09-05T06:47:19Z</time>
      </trkpt>
      <trkpt lat="50.824172040447593" lon="15.046219015493989">
        <ele>385.14999999999998</ele>
        <time>2013-09-05T06:47:25Z</time>
      </trkpt>
      <trkpt lat="50.824301037937403" lon="15.046347007155418">
        <ele>385.14999999999998</ele>
        <time>2013-09-05T06:47:26Z</time>
      </trkpt>
      <trkpt lat="50.824934961274266" lon="15.046956036239862">
        <ele>383.22000000000003</ele>
        <time>2013-09-05T06:47:31Z</time>
      </trkpt>
      <trkpt lat="50.825008973479271" lon="15.047169020399451">
        <ele>382.74000000000001</ele>
        <time>2013-09-05T06:47:32Z</time>
      </trkpt>
      <trkpt lat="50.825080974027514" lon="15.047377981245518">
        <ele>382.25999999999999</ele>
        <time>2013-09-05T06:47:33Z</time>
      </trkpt>
      <trkpt lat="50.825163032859564" lon="15.047567998990417">
        <ele>381.77999999999997</ele>
        <time>2013-09-05T06:47:34Z</time>
      </trkpt>
      <trkpt lat="50.8252630289644" lon="15.047724992036819">
        <ele>381.30000000000001</ele>
        <time>2013-09-05T06:47:35Z</time>
      </trkpt>
      <trkpt lat="50.825366964563727" lon="15.047881985083222">
        <ele>380.81999999999999</ele>
        <time>2013-09-05T06:47:36Z</time>
      </trkpt>
      <trkpt lat="50.825485987588763" lon="15.048018023371696">
        <ele>380.33999999999997</ele>
        <time>2013-09-05T06:47:37Z</time>
      </trkpt>
      <trkpt lat="50.826646964997053" lon="15.04935803823173">
        <ele>380.81999999999999</ele>
        <time>2013-09-05T06:47:47Z</time>
      </trkpt>
      <trkpt lat="50.826773028820753" lon="15.049456022679806">
        <ele>380.81999999999999</ele>
        <time>2013-09-05T06:47:48Z</time>
      </trkpt>
      <trkpt lat="50.826891968026757" lon="15.04952902905643">
        <ele>380.81999999999999</ele>
        <time>2013-09-05T06:47:49Z</time>
      </trkpt>
      <trkpt lat="50.828087981790304" lon="15.049893977120519">
        <ele>380.33999999999997</ele>
        <time>2013-09-05T06:47:59Z</time>
      </trkpt>
      <trkpt lat="50.829402012750506" lon="15.050311982631683">
        <ele>377.44999999999999</ele>
        <time>2013-09-05T06:48:08Z</time>
      </trkpt>
      <trkpt lat="50.829538973048329" lon="15.050397980958223">
        <ele>377.94</ele>
        <time>2013-09-05T06:48:09Z</time>
      </trkpt>
      <trkpt lat="50.830356040969491" lon="15.051002986729145">
        <ele>376.97000000000003</ele>
        <time>2013-09-05T06:48:16Z</time>
      </trkpt>
      <trkpt lat="50.831699995324016" lon="15.051477989181876">
        <ele>376.49000000000001</ele>
        <time>2013-09-05T06:48:26Z</time>
      </trkpt>
      <trkpt lat="50.832555033266544" lon="15.051744030788541">
        <ele>376.00999999999999</ele>
        <time>2013-09-05T06:48:33Z</time>
      </trkpt>
      <trkpt lat="50.832654023543" lon="15.051732966676354">
        <ele>376.49000000000001</ele>
        <time>2013-09-05T06:48:34Z</time>
      </trkpt>
      <trkpt lat="50.832737004384398" lon="15.051688039675355">
        <ele>376.49000000000001</ele>
        <time>2013-09-05T06:48:35Z</time>
      </trkpt>
      <trkpt lat="50.832906989380717" lon="15.051515037193894">
        <ele>375.52999999999997</ele>
        <time>2013-09-05T06:48:40Z</time>
      </trkpt>
      <trkpt lat="50.833386015146971" lon="15.050790002569556">
        <ele>376.49000000000001</ele>
        <time>2013-09-05T06:48:46Z</time>
      </trkpt>
      <trkpt lat="50.834097974002361" lon="15.049369018524885">
        <ele>376.49000000000001</ele>
        <time>2013-09-05T06:48:54Z</time>
      </trkpt>
      <trkpt lat="50.834210040047765" lon="15.049218982458115">
        <ele>376.49000000000001</ele>
        <time>2013-09-05T06:48:55Z</time>
      </trkpt>
      <trkpt lat="50.834325039759278" lon="15.049105994403362">
        <ele>376.49000000000001</ele>
        <time>2013-09-05T06:48:56Z</time>
      </trkpt>
      <trkpt lat="50.834455965086818" lon="15.049024019390345">
        <ele>376.00999999999999</ele>
        <time>2013-09-05T06:48:57Z</time>
      </trkpt>
      <trkpt lat="50.834598038345575" lon="15.048964004963636">
        <ele>375.52999999999997</ele>
        <time>2013-09-05T06:48:58Z</time>
      </trkpt>
      <trkpt lat="50.834747990593314" lon="15.048923017457128">
        <ele>375.52999999999997</ele>
        <time>2013-09-05T06:48:59Z</time>
      </trkpt>
      <trkpt lat="50.835551982745528" lon="15.048694023862481">
        <ele>375.05000000000001</ele>
        <time>2013-09-05T06:49:05Z</time>
      </trkpt>
      <trkpt lat="50.835669999942183" lon="15.048588998615742">
        <ele>374.08999999999997</ele>
        <time>2013-09-05T06:49:06Z</time>
      </trkpt>
      <trkpt lat="50.835779970511794" lon="15.048453966155648">
        <ele>375.05000000000001</ele>
        <time>2013-09-05T06:49:07Z</time>
      </trkpt>
      <trkpt lat="50.836873976513743" lon="15.046667028218508">
        <ele>373.13</ele>
        <time>2013-09-05T06:49:18Z</time>
      </trkpt>
      <trkpt lat="50.837816018611193" lon="15.044133011251688">
        <ele>373.61000000000001</ele>
        <time>2013-09-05T06:49:31Z</time>
      </trkpt>
      <trkpt lat="50.838749008253217" lon="15.041575022041798">
        <ele>373.13</ele>
        <time>2013-09-05T06:49:44Z</time>
      </trkpt>
      <trkpt lat="50.838804999366403" lon="15.041382992640138">
        <ele>373.13</ele>
        <time>2013-09-05T06:49:45Z</time>
      </trkpt>
      <trkpt lat="50.838872976601124" lon="15.041194986552">
        <ele>373.61000000000001</ele>
        <time>2013-09-05T06:49:46Z</time>
      </trkpt>
      <trkpt lat="50.838951012119651" lon="15.041018966585398">
        <ele>373.61000000000001</ele>
        <time>2013-09-05T06:49:47Z</time>
      </trkpt>
      <trkpt lat="50.839030975475907" lon="15.040853004902601">
        <ele>373.61000000000001</ele>
        <time>2013-09-05T06:49:48Z</time>
      </trkpt>
      <trkpt lat="50.839330963790417" lon="15.040369033813477">
        <ele>376.00999999999999</ele>
        <time>2013-09-05T06:49:51Z</time>
      </trkpt>
      <trkpt lat="50.83944202400744" lon="15.040251016616821">
        <ele>376.49000000000001</ele>
        <time>2013-09-05T06:49:52Z</time>
      </trkpt>
      <trkpt lat="50.839578984305263" lon="15.040166024118662">
        <ele>377.44999999999999</ele>
        <time>2013-09-05T06:49:53Z</time>
      </trkpt>
      <trkpt lat="50.839740000665188" lon="15.0400760024786">
        <ele>378.89999999999998</ele>
        <time>2013-09-05T06:49:54Z</time>
      </trkpt>
      <trkpt lat="50.839874027296901" lon="15.03996997140348">
        <ele>379.86000000000001</ele>
        <time>2013-09-05T06:49:55Z</time>
      </trkpt>
      <trkpt lat="50.839983997866511" lon="15.03983804024756">
        <ele>380.81999999999999</ele>
        <time>2013-09-05T06:49:56Z</time>
      </trkpt>
      <trkpt lat="50.840061027556658" lon="15.039664031937718">
        <ele>381.77999999999997</ele>
        <time>2013-09-05T06:49:57Z</time>
      </trkpt>
      <trkpt lat="50.840098997578025" lon="15.039456998929381">
        <ele>382.74000000000001</ele>
        <time>2013-09-05T06:49:58Z</time>
      </trkpt>
      <trkpt lat="50.840081982314587" lon="15.039223982021213">
        <ele>383.22000000000003</ele>
        <time>2013-09-05T06:49:59Z</time>
      </trkpt>
      <trkpt lat="50.840054992586374" lon="15.039000017568469">
        <ele>383.69999999999999</ele>
        <time>2013-09-05T06:50:00Z</time>
      </trkpt>
      <trkpt lat="50.840032026171684" lon="15.038779992610216">
        <ele>384.66000000000003</ele>
        <time>2013-09-05T06:50:01Z</time>
      </trkpt>
      <trkpt lat="50.840036971494555" lon="15.038563990965486">
        <ele>385.63</ele>
        <time>2013-09-05T06:50:02Z</time>
      </trkpt>
      <trkpt lat="50.840076031163335" lon="15.038348995149136">
        <ele>386.58999999999997</ele>
        <time>2013-09-05T06:50:03Z</time>
      </trkpt>
      <trkpt lat="50.840147025883198" lon="15.038139028474689">
        <ele>387.06999999999999</ele>
        <time>2013-09-05T06:50:04Z</time>
      </trkpt>
      <trkpt lat="50.840204022824764" lon="15.037903999909759">
        <ele>388.50999999999999</ele>
        <time>2013-09-05T06:50:05Z</time>
      </trkpt>
      <trkpt lat="50.840258002281189" lon="15.037634018808603">
        <ele>389.94999999999999</ele>
        <time>2013-09-05T06:50:06Z</time>
      </trkpt>
      <trkpt lat="50.840277029201388" lon="15.037389015778899">
        <ele>391.38999999999999</ele>
        <time>2013-09-05T06:50:07Z</time>
      </trkpt>
      <trkpt lat="50.840327991172671" lon="15.037146024405956">
        <ele>392.36000000000001</ele>
        <time>2013-09-05T06:50:08Z</time>
      </trkpt>
      <trkpt lat="50.8403679728508" lon="15.036923987790942">
        <ele>393.80000000000001</ele>
        <time>2013-09-05T06:50:09Z</time>
      </trkpt>
      <trkpt lat="50.84045497700572" lon="15.036733970046043">
        <ele>394.75999999999999</ele>
        <time>2013-09-05T06:50:10Z</time>
      </trkpt>
      <trkpt lat="50.840569976717234" lon="15.036547975614667">
        <ele>395.72000000000003</ele>
        <time>2013-09-05T06:50:11Z</time>
      </trkpt>
      <trkpt lat="50.840692017227411" lon="15.03640498034656">
        <ele>396.68000000000001</ele>
        <time>2013-09-05T06:50:12Z</time>
      </trkpt>
      <trkpt lat="50.840829983353615" lon="15.036273971199989">
        <ele>397.16000000000003</ele>
        <time>2013-09-05T06:50:13Z</time>
      </trkpt>
      <trkpt lat="50.840981025248766" lon="15.036175986751914">
        <ele>397.63999999999999</ele>
        <time>2013-09-05T06:50:14Z</time>
      </trkpt>
      <trkpt lat="50.841148998588324" lon="15.036127958446741">
        <ele>398.60000000000002</ele>
        <time>2013-09-05T06:50:15Z</time>
      </trkpt>
      <trkpt lat="50.841337004676461" lon="15.036117983981967">
        <ele>400.52999999999997</ele>
        <time>2013-09-05T06:50:16Z</time>
      </trkpt>
      <trkpt lat="50.841538002714515" lon="15.036125024780631">
        <ele>400.52999999999997</ele>
        <time>2013-09-05T06:50:17Z</time>
      </trkpt>
      <trkpt lat="50.841726008802652" lon="15.036184033378959">
        <ele>402.44999999999999</ele>
        <time>2013-09-05T06:50:18Z</time>
      </trkpt>
      <trkpt lat="50.841901022940874" lon="15.036258967593312">
        <ele>402.93000000000001</ele>
        <time>2013-09-05T06:50:19Z</time>
      </trkpt>
      <trkpt lat="50.842096991837025" lon="15.036280006170273">
        <ele>404.37</ele>
        <time>2013-09-05T06:50:20Z</time>
      </trkpt>
      <trkpt lat="50.842284997925162" lon="15.036276988685131">
        <ele>403.88999999999999</ele>
        <time>2013-09-05T06:50:21Z</time>
      </trkpt>
      <trkpt lat="50.842804005369544" lon="15.036280006170273">
        <ele>407.25999999999999</ele>
        <time>2013-09-05T06:50:24Z</time>
      </trkpt>
      <trkpt lat="50.842943983152509" lon="15.036364998668432">
        <ele>408.22000000000003</ele>
        <time>2013-09-05T06:50:25Z</time>
      </trkpt>
      <trkpt lat="50.843065017834306" lon="15.036502964794636">
        <ele>409.66000000000003</ele>
        <time>2013-09-05T06:50:26Z</time>
      </trkpt>
      <trkpt lat="50.843158978968859" lon="15.036701029166579">
        <ele>410.62</ele>
        <time>2013-09-05T06:50:27Z</time>
      </trkpt>
      <trkpt lat="50.843237014487386" lon="15.036935973912477">
        <ele>410.62</ele>
        <time>2013-09-05T06:50:28Z</time>
      </trkpt>
      <trkpt lat="50.843324018642306" lon="15.037165973335505">
        <ele>411.57999999999998</ele>
        <time>2013-09-05T06:50:29Z</time>
      </trkpt>
      <trkpt lat="50.843506995588541" lon="15.037590013816953">
        <ele>412.54000000000002</ele>
        <time>2013-09-05T06:50:31Z</time>
      </trkpt>
      <trkpt lat="50.843629036098719" lon="15.03773401491344">
        <ele>413.5</ele>
        <time>2013-09-05T06:50:32Z</time>
      </trkpt>
      <trkpt lat="50.843755016103387" lon="15.0377999804914">
        <ele>414.47000000000003</ele>
        <time>2013-09-05T06:50:33Z</time>
      </trkpt>
      <trkpt lat="50.84389298222959" lon="15.03782001323998">
        <ele>414.94999999999999</ele>
        <time>2013-09-05T06:50:34Z</time>
      </trkpt>
      <trkpt lat="50.844045029953122" lon="15.037808027118444">
        <ele>415.43000000000001</ele>
        <time>2013-09-05T06:50:35Z</time>
      </trkpt>
      <trkpt lat="50.844208979979157" lon="15.037765027955174">
        <ele>415.91000000000003</ele>
        <time>2013-09-05T06:50:36Z</time>
      </trkpt>
      <trkpt lat="50.844380976632237" lon="15.037707025185227">
        <ele>416.38999999999999</ele>
        <time>2013-09-05T06:50:37Z</time>
      </trkpt>
      <trkpt lat="50.844962010160089" lon="15.037411982193589">
        <ele>416.87</ele>
        <time>2013-09-05T06:50:41Z</time>
      </trkpt>
      <trkpt lat="50.845085978507996" lon="15.037309974431992">
        <ele>416.87</ele>
        <time>2013-09-05T06:50:42Z</time>
      </trkpt>
      <trkpt lat="50.845177005976439" lon="15.037158010527492">
        <ele>416.87</ele>
        <time>2013-09-05T06:50:43Z</time>
      </trkpt>
      <trkpt lat="50.845241965726018" lon="15.03696103580296">
        <ele>416.38999999999999</ele>
        <time>2013-09-05T06:50:44Z</time>
      </trkpt>
      <trkpt lat="50.845252024009824" lon="15.036685019731522">
        <ele>416.38999999999999</ele>
        <time>2013-09-05T06:50:45Z</time>
      </trkpt>
      <trkpt lat="50.845241965726018" lon="15.036405986174941">
        <ele>416.38999999999999</ele>
        <time>2013-09-05T06:50:46Z</time>
      </trkpt>
      <trkpt lat="50.845234002918005" lon="15.036129970103502">
        <ele>416.87</ele>
        <time>2013-09-05T06:50:47Z</time>
      </trkpt>
      <trkpt lat="50.845282031223178" lon="15.033743977546692">
        <ele>412.54000000000002</ele>
        <time>2013-09-05T06:50:55Z</time>
      </trkpt>
      <trkpt lat="50.84528798237443" lon="15.033469973132014">
        <ele>412.06</ele>
        <time>2013-09-05T06:50:56Z</time>
      </trkpt>
      <trkpt lat="50.845303991809487" lon="15.033218013122678">
        <ele>411.57999999999998</ele>
        <time>2013-09-05T06:50:57Z</time>
      </trkpt>
      <trkpt lat="50.845346990972757" lon="15.032976027578115">
        <ele>411.57999999999998</ele>
        <time>2013-09-05T06:50:58Z</time>
      </trkpt>
      <trkpt lat="50.845418991521001" lon="15.032774023711681">
        <ele>411.57999999999998</ele>
        <time>2013-09-05T06:50:59Z</time>
      </trkpt>
      <trkpt lat="50.84552301093936" lon="15.032633962109685">
        <ele>410.62</ele>
        <time>2013-09-05T06:51:00Z</time>
      </trkpt>
      <trkpt lat="50.845665000379086" lon="15.032503958791494">
        <ele>411.57999999999998</ele>
        <time>2013-09-05T06:51:01Z</time>
      </trkpt>
      <trkpt lat="50.845801960676908" lon="15.032399017363787">
        <ele>411.57999999999998</ele>
        <time>2013-09-05T06:51:02Z</time>
      </trkpt>
      <trkpt lat="50.845945039764047" lon="15.03229801543057">
        <ele>411.57999999999998</ele>
        <time>2013-09-05T06:51:03Z</time>
      </trkpt>
      <trkpt lat="50.847315983846784" lon="15.031750006601214">
        <ele>415.91000000000003</ele>
        <time>2013-09-05T06:51:11Z</time>
      </trkpt>
      <trkpt lat="50.849171988666058" lon="15.031229993328452">
        <ele>423.12</ele>
        <time>2013-09-05T06:51:21Z</time>
      </trkpt>
      <trkpt lat="50.850991029292345" lon="15.031341975554824">
        <ele>432.25</ele>
        <time>2013-09-05T06:51:30Z</time>
      </trkpt>
      <trkpt lat="50.85323796607554" lon="15.031572980806231">
        <ele>443.31</ele>
        <time>2013-09-05T06:51:41Z</time>
      </trkpt>
      <trkpt lat="50.855207964777946" lon="15.031628971919417">
        <ele>453.88</ele>
        <time>2013-09-05T06:51:51Z</time>
      </trkpt>
      <trkpt lat="50.855367975309491" lon="15.031534004956484">
        <ele>455.31999999999999</ele>
        <time>2013-09-05T06:51:52Z</time>
      </trkpt>
      <trkpt lat="50.855519017204642" lon="15.031380029395223">
        <ele>456.75999999999999</ele>
        <time>2013-09-05T06:51:53Z</time>
      </trkpt>
      <trkpt lat="50.855646003037691" lon="15.031209960579872">
        <ele>458.20999999999998</ele>
        <time>2013-09-05T06:51:54Z</time>
      </trkpt>
      <trkpt lat="50.85577298887074" lon="15.030993958935142">
        <ele>459.17000000000002</ele>
        <time>2013-09-05T06:51:55Z</time>
      </trkpt>
      <trkpt lat="50.855874996632338" lon="15.030761025846004">
        <ele>461.08999999999997</ele>
        <time>2013-09-05T06:51:56Z</time>
      </trkpt>
      <trkpt lat="50.855962000787258" lon="15.03049498423934">
        <ele>463.00999999999999</ele>
        <time>2013-09-05T06:51:57Z</time>
      </trkpt>
      <trkpt lat="50.856016986072063" lon="15.030198013409972">
        <ele>465.42000000000002</ele>
        <time>2013-09-05T06:51:58Z</time>
      </trkpt>
      <trkpt lat="50.856055039912462" lon="15.029898025095463">
        <ele>466.86000000000001</ele>
        <time>2013-09-05T06:51:59Z</time>
      </trkpt>
      <trkpt lat="50.856083035469055" lon="15.029600970447063">
        <ele>468.77999999999997</ele>
        <time>2013-09-05T06:52:00Z</time>
      </trkpt>
      <trkpt lat="50.856362991034985" lon="15.028133969753981">
        <ele>476.47000000000003</ele>
        <time>2013-09-05T06:52:06Z</time>
      </trkpt>
      <trkpt lat="50.856435997411609" lon="15.027993991971016">
        <ele>476.94999999999999</ele>
        <time>2013-09-05T06:52:07Z</time>
      </trkpt>
      <trkpt lat="50.856545967981219" lon="15.027954010292888">
        <ele>477.91000000000003</ele>
        <time>2013-09-05T06:52:08Z</time>
      </trkpt>
      <trkpt lat="50.856646969914436" lon="15.027987034991384">
        <ele>478.87</ele>
        <time>2013-09-05T06:52:09Z</time>
      </trkpt>
      <trkpt lat="50.856731040403247" lon="15.028092982247472">
        <ele>479.35000000000002</ele>
        <time>2013-09-05T06:52:10Z</time>
      </trkpt>
      <trkpt lat="50.856806980445981" lon="15.028247963637114">
        <ele>478.87</ele>
        <time>2013-09-05T06:52:11Z</time>
      </trkpt>
      <trkpt lat="50.856876969337463" lon="15.028443010523915">
        <ele>479.83999999999997</ele>
        <time>2013-09-05T06:52:12Z</time>
      </trkpt>
      <trkpt lat="50.856940001249313" lon="15.028660017997026">
        <ele>479.83999999999997</ele>
        <time>2013-09-05T06:52:13Z</time>
      </trkpt>
      <trkpt lat="50.857590017840266" lon="15.030352994799614">
        <ele>484.16000000000003</ele>
        <time>2013-09-05T06:52:20Z</time>
      </trkpt>
      <trkpt lat="50.857995031401515" lon="15.031042993068695">
        <ele>484.63999999999999</ele>
        <time>2013-09-05T06:52:23Z</time>
      </trkpt>
      <trkpt lat="50.858156969770789" lon="15.031238961964846">
        <ele>486.07999999999998</ele>
        <time>2013-09-05T06:52:24Z</time>
      </trkpt>
      <trkpt lat="50.859492961317301" lon="15.032646032050252">
        <ele>494.74000000000001</ele>
        <time>2013-09-05T06:52:33Z</time>
      </trkpt>
      <trkpt lat="50.860551008954644" lon="15.034057041630149">
        <ele>500.5</ele>
        <time>2013-09-05T06:52:42Z</time>
      </trkpt>
      <trkpt lat="50.861730007454753" lon="15.035208966583014">
        <ele>507.23000000000002</ele>
        <time>2013-09-05T06:52:51Z</time>
      </trkpt>
      <trkpt lat="50.863412003964186" lon="15.035815984010696">
        <ele>515.88</ele>
        <time>2013-09-05T06:53:02Z</time>
      </trkpt>
      <trkpt lat="50.865613007918" lon="15.036549987271428">
        <ele>525.98000000000002</ele>
        <time>2013-09-05T06:53:16Z</time>
      </trkpt>
      <trkpt lat="50.86623796261847" lon="15.036803036928177">
        <ele>526.94000000000005</ele>
        <time>2013-09-05T06:53:20Z</time>
      </trkpt>
      <trkpt lat="50.866381041705608" lon="15.036937985569239">
        <ele>526.94000000000005</ele>
        <time>2013-09-05T06:53:21Z</time>
      </trkpt>
      <trkpt lat="50.867732958868146" lon="15.038381014019251">
        <ele>522.61000000000001</ele>
        <time>2013-09-05T06:53:30Z</time>
      </trkpt>
      <trkpt lat="50.868411976844072" lon="15.038999011740088">
        <ele>521.16999999999996</ele>
        <time>2013-09-05T06:53:35Z</time>
      </trkpt>
      <trkpt lat="50.868540974333882" lon="15.039018038660288">
        <ele>520.69000000000005</ele>
        <time>2013-09-05T06:53:36Z</time>
      </trkpt>
      <trkpt lat="50.868658991530538" lon="15.038989037275314">
        <ele>517.33000000000004</ele>
        <time>2013-09-05T06:53:37Z</time>
      </trkpt>
      <trkpt lat="50.86877197958529" lon="15.038889041170478">
        <ele>515.88</ele>
        <time>2013-09-05T06:53:38Z</time>
      </trkpt>
      <trkpt lat="50.86885797791183" lon="15.038714027032256">
        <ele>513</ele>
        <time>2013-09-05T06:53:39Z</time>
      </trkpt>
      <trkpt lat="50.868914974853396" lon="15.038482015952468">
        <ele>512.51999999999998</ele>
        <time>2013-09-05T06:53:40Z</time>
      </trkpt>
      <trkpt lat="50.868972977623343" lon="15.038248999044299">
        <ele>511.56</ele>
        <time>2013-09-05T06:53:41Z</time>
      </trkpt>
      <trkpt lat="50.869047995656729" lon="15.038009025156498">
        <ele>510.60000000000002</ele>
        <time>2013-09-05T06:53:42Z</time>
      </trkpt>
      <trkpt lat="50.86913701146841" lon="15.037775002419949">
        <ele>509.16000000000003</ele>
        <time>2013-09-05T06:53:43Z</time>
      </trkpt>
      <trkpt lat="50.869240025058389" lon="15.037550032138824">
        <ele>507.23000000000002</ele>
        <time>2013-09-05T06:53:44Z</time>
      </trkpt>
      <trkpt lat="50.869357958436012" lon="15.037353979423642">
        <ele>506.26999999999998</ele>
        <time>2013-09-05T06:53:45Z</time>
      </trkpt>
      <trkpt lat="50.869489973410964" lon="15.037168990820646">
        <ele>506.26999999999998</ele>
        <time>2013-09-05T06:53:46Z</time>
      </trkpt>
      <trkpt lat="50.869622994214296" lon="15.037001017481089">
        <ele>504.82999999999998</ele>
        <time>2013-09-05T06:53:47Z</time>
      </trkpt>
      <trkpt lat="50.869770012795925" lon="15.036846036091447">
        <ele>503.87</ele>
        <time>2013-09-05T06:53:48Z</time>
      </trkpt>
      <trkpt lat="50.869935974478722" lon="15.03672500140965">
        <ele>501.94999999999999</ele>
        <time>2013-09-05T06:53:49Z</time>
      </trkpt>
      <trkpt lat="50.870115011930466" lon="15.036628022789955">
        <ele>501.45999999999998</ele>
        <time>2013-09-05T06:53:50Z</time>
      </trkpt>
      <trkpt lat="50.8702979888767" lon="15.036569014191628">
        <ele>500.5</ele>
        <time>2013-09-05T06:53:51Z</time>
      </trkpt>
      <trkpt lat="50.870470991358161" lon="15.036557028070092">
        <ele>499.54000000000002</ele>
        <time>2013-09-05T06:53:52Z</time>
      </trkpt>
      <trkpt lat="50.870653968304396" lon="15.036557028070092">
        <ele>499.06</ele>
        <time>2013-09-05T06:53:53Z</time>
      </trkpt>
      <trkpt lat="50.870796041563153" lon="15.036632968112826">
        <ele>498.10000000000002</ele>
        <time>2013-09-05T06:53:54Z</time>
      </trkpt>
      <trkpt lat="50.87203798815608" lon="15.036689965054393">
        <ele>491.37</ele>
        <time>2013-09-05T06:54:02Z</time>
      </trkpt>
      <trkpt lat="50.872159022837877" lon="15.036647971719503">
        <ele>491.37</ele>
        <time>2013-09-05T06:54:03Z</time>
      </trkpt>
      <trkpt lat="50.872257007285953" lon="15.036581000313163">
        <ele>489.93000000000001</ele>
        <time>2013-09-05T06:54:04Z</time>
      </trkpt>
      <trkpt lat="50.872353985905647" lon="15.036470023915172">
        <ele>489.93000000000001</ele>
        <time>2013-09-05T06:54:05Z</time>
      </trkpt>
      <trkpt lat="50.872426992282271" lon="15.036320993676782">
        <ele>489.44999999999999</ele>
        <time>2013-09-05T06:54:06Z</time>
      </trkpt>
      <trkpt lat="50.872482983395457" lon="15.036159977316856">
        <ele>488.97000000000003</ele>
        <time>2013-09-05T06:54:07Z</time>
      </trkpt>
      <trkpt lat="50.87253101170063" lon="15.036009019240737">
        <ele>488.97000000000003</ele>
        <time>2013-09-05T06:54:08Z</time>
      </trkpt>
      <trkpt lat="50.872665038332343" lon="15.0355239585042">
        <ele>485.60000000000002</ele>
        <time>2013-09-05T06:54:14Z</time>
      </trkpt>
      <trkpt lat="50.872780960053205" lon="15.03507100045681">
        <ele>483.68000000000001</ele>
        <time>2013-09-05T06:54:23Z</time>
      </trkpt>
      <trkpt lat="50.872870981693268" lon="15.034723989665508">
        <ele>483.19999999999999</ele>
        <time>2013-09-05T06:54:56Z</time>
      </trkpt>
      <trkpt lat="50.873237019404769" lon="15.033392021432519">
        <ele>477.43000000000001</ele>
        <time>2013-09-05T06:55:02Z</time>
      </trkpt>
      <trkpt lat="50.873792991042137" lon="15.031532999128103">
        <ele>468.77999999999997</ele>
        <time>2013-09-05T06:55:10Z</time>
      </trkpt>
      <trkpt lat="50.873902961611748" lon="15.031451024115086">
        <ele>467.81999999999999</ele>
        <time>2013-09-05T06:55:11Z</time>
      </trkpt>
      <trkpt lat="50.874021984636784" lon="15.031454963609576">
        <ele>466.86000000000001</ele>
        <time>2013-09-05T06:55:12Z</time>
      </trkpt>
      <trkpt lat="50.874132039025426" lon="15.031538028270006">
        <ele>466.38</ele>
        <time>2013-09-05T06:55:13Z</time>
      </trkpt>
      <trkpt lat="50.874234968796372" lon="15.031669959425926">
        <ele>465.89999999999998</ele>
        <time>2013-09-05T06:55:14Z</time>
      </trkpt>
      <trkpt lat="50.874332031235099" lon="15.031844973564148">
        <ele>464.93000000000001</ele>
        <time>2013-09-05T06:55:15Z</time>
      </trkpt>
      <trkpt lat="50.874425992369652" lon="15.032042032107711">
        <ele>464.44999999999999</ele>
        <time>2013-09-05T06:55:16Z</time>
      </trkpt>
      <trkpt lat="50.875309025868773" lon="15.033968025818467">
        <ele>456.75999999999999</ele>
        <time>2013-09-05T06:55:24Z</time>
      </trkpt>
      <trkpt lat="50.876104971393943" lon="15.035598976537585">
        <ele>449.06999999999999</ele>
        <time>2013-09-05T06:55:32Z</time>
      </trkpt>
      <trkpt lat="50.876198010519147" lon="15.035673994570971">
        <ele>448.58999999999997</ele>
        <time>2013-09-05T06:55:33Z</time>
      </trkpt>
      <trkpt lat="50.876303035765886" lon="15.035621020942926">
        <ele>445.70999999999998</ele>
        <time>2013-09-05T06:55:34Z</time>
      </trkpt>
      <trkpt lat="50.876387022435665" lon="15.035506021231413">
        <ele>445.70999999999998</ele>
        <time>2013-09-05T06:55:35Z</time>
      </trkpt>
      <trkpt lat="50.87646497413516" lon="15.03532899543643">
        <ele>445.23000000000002</ele>
        <time>2013-09-05T06:55:36Z</time>
      </trkpt>
      <trkpt lat="50.876552984118462" lon="15.035125985741615">
        <ele>444.26999999999998</ele>
        <time>2013-09-05T06:55:37Z</time>
      </trkpt>
      <trkpt lat="50.877373991534114" lon="15.033144000917673">
        <ele>436.57999999999998</ele>
        <time>2013-09-05T06:55:45Z</time>
      </trkpt>
      <trkpt lat="50.878174966201186" lon="15.031232004985213">
        <ele>426.95999999999998</ele>
        <time>2013-09-05T06:55:54Z</time>
      </trkpt>
      <trkpt lat="50.878278985619545" lon="15.031092027202249">
        <ele>426.48000000000002</ele>
        <time>2013-09-05T06:55:55Z</time>
      </trkpt>
      <trkpt lat="50.878405971452594" lon="15.031047016382217">
        <ele>426</ele>
        <time>2013-09-05T06:55:56Z</time>
      </trkpt>
      <trkpt lat="50.878531029447913" lon="15.03109403885901">
        <ele>425.51999999999998</ele>
        <time>2013-09-05T06:55:57Z</time>
      </trkpt>
      <trkpt lat="50.87863496504724" lon="15.03122697584331">
        <ele>425.51999999999998</ele>
        <time>2013-09-05T06:55:58Z</time>
      </trkpt>
      <trkpt lat="50.878694979473948" lon="15.031430991366506">
        <ele>424.56</ele>
        <time>2013-09-05T06:55:59Z</time>
      </trkpt>
      <trkpt lat="50.878748958930373" lon="15.031663002446294">
        <ele>424.07999999999998</ele>
        <time>2013-09-05T06:56:00Z</time>
      </trkpt>
      <trkpt lat="50.878794975578785" lon="15.031925020739436">
        <ele>423.12</ele>
        <time>2013-09-05T06:56:01Z</time>
      </trkpt>
      <trkpt lat="50.879414984956384" lon="15.035170996561646">
        <ele>409.66000000000003</ele>
        <time>2013-09-05T06:56:12Z</time>
      </trkpt>
      <trkpt lat="50.879667028784752" lon="15.036333985626698">
        <ele>406.29000000000002</ele>
        <time>2013-09-05T06:56:16Z</time>
      </trkpt>
      <trkpt lat="50.879769958555698" lon="15.03659600391984">
        <ele>406.76999999999998</ele>
        <time>2013-09-05T06:56:17Z</time>
      </trkpt>
      <trkpt lat="50.880722980946302" lon="15.038131987676024">
        <ele>400.52999999999997</ele>
        <time>2013-09-05T06:56:24Z</time>
      </trkpt>
      <trkpt lat="50.881251962855458" lon="15.038581006228924">
        <ele>397.16000000000003</ele>
        <time>2013-09-05T06:56:27Z</time>
      </trkpt>
      <trkpt lat="50.881433011963964" lon="15.038685025647283">
        <ele>396.68000000000001</ele>
        <time>2013-09-05T06:56:28Z</time>
      </trkpt>
      <trkpt lat="50.881624035537243" lon="15.03874302841723">
        <ele>395.72000000000003</ele>
        <time>2013-09-05T06:56:29Z</time>
      </trkpt>
      <trkpt lat="50.881822016090155" lon="15.038770018145442">
        <ele>394.75999999999999</ele>
        <time>2013-09-05T06:56:30Z</time>
      </trkpt>
      <trkpt lat="50.88202603161335" lon="15.038784015923738">
        <ele>393.31999999999999</ele>
        <time>2013-09-05T06:56:31Z</time>
      </trkpt>
      <trkpt lat="50.883064968511462" lon="15.038979984819889">
        <ele>389.47000000000003</ele>
        <time>2013-09-05T06:56:36Z</time>
      </trkpt>
      <trkpt lat="50.883267978206277" lon="15.039098002016544">
        <ele>389.47000000000003</ele>
        <time>2013-09-05T06:56:37Z</time>
      </trkpt>
      <trkpt lat="50.883457995951176" lon="15.039235968142748">
        <ele>388.50999999999999</ele>
        <time>2013-09-05T06:56:38Z</time>
      </trkpt>
      <trkpt lat="50.884814020246267" lon="15.040583023801446">
        <ele>385.63</ele>
        <time>2013-09-05T06:56:46Z</time>
      </trkpt>
      <trkpt lat="50.886640017852187" lon="15.042437016963959">
        <ele>381.30000000000001</ele>
        <time>2013-09-05T06:56:57Z</time>
      </trkpt>
      <trkpt lat="50.88901100680232" lon="15.044912025332451">
        <ele>375.05000000000001</ele>
        <time>2013-09-05T06:57:10Z</time>
      </trkpt>
      <trkpt lat="50.890490999445319" lon="15.046469969674945">
        <ele>372.17000000000002</ele>
        <time>2013-09-05T06:57:19Z</time>
      </trkpt>
      <trkpt lat="50.892755035310984" lon="15.048846993595362">
        <ele>367.36000000000001</ele>
        <time>2013-09-05T06:57:34Z</time>
      </trkpt>
      <trkpt lat="50.896050967276096" lon="15.05221500992775">
        <ele>370.24000000000001</ele>
        <time>2013-09-05T06:57:56Z</time>
      </trkpt>
      <trkpt lat="50.897487960755825" lon="15.053699025884271">
        <ele>371.69</ele>
        <time>2013-09-05T06:58:04Z</time>
      </trkpt>
      <trkpt lat="50.899976966902614" lon="15.056264977902174">
        <ele>375.52999999999997</ele>
        <time>2013-09-05T06:58:17Z</time>
      </trkpt>
      <trkpt lat="50.903437016531825" lon="15.05986500531435">
        <ele>382.25999999999999</ele>
        <time>2013-09-05T06:58:35Z</time>
      </trkpt>
      <trkpt lat="50.906802015379071" lon="15.063577014952898">
        <ele>380.81999999999999</ele>
        <time>2013-09-05T06:58:53Z</time>
      </trkpt>
      <trkpt lat="50.908126020804048" lon="15.065435031428933">
        <ele>376.49000000000001</ele>
        <time>2013-09-05T06:59:01Z</time>
      </trkpt>
      <trkpt lat="50.908313021063805" lon="15.065575009211898">
        <ele>375.52999999999997</ele>
        <time>2013-09-05T06:59:02Z</time>
      </trkpt>
      <trkpt lat="50.908506978303194" lon="15.065693026408553">
        <ele>374.08999999999997</ele>
        <time>2013-09-05T06:59:03Z</time>
      </trkpt>
      <trkpt lat="50.908703031018376" lon="15.065775001421571">
        <ele>372.17000000000002</ele>
        <time>2013-09-05T06:59:04Z</time>
      </trkpt>
      <trkpt lat="50.90890503488481" lon="15.065814983099699">
        <ele>370.73000000000002</ele>
        <time>2013-09-05T06:59:05Z</time>
      </trkpt>
      <trkpt lat="50.909105027094483" lon="15.065824035555124">
        <ele>368.80000000000001</ele>
        <time>2013-09-05T06:59:06Z</time>
      </trkpt>
      <trkpt lat="50.909300995990634" lon="15.065826969221234">
        <ele>367.83999999999997</ele>
        <time>2013-09-05T06:59:07Z</time>
      </trkpt>
      <trkpt lat="50.909691005945206" lon="15.065781036391854">
        <ele>365.92000000000002</ele>
        <time>2013-09-05T06:59:09Z</time>
      </trkpt>
      <trkpt lat="50.909875994548202" lon="15.065720016136765">
        <ele>364.48000000000002</ele>
        <time>2013-09-05T06:59:10Z</time>
      </trkpt>
      <trkpt lat="50.910054026171565" lon="15.065612979233265">
        <ele>363.04000000000002</ele>
        <time>2013-09-05T06:59:11Z</time>
      </trkpt>
      <trkpt lat="50.910220993682742" lon="15.065465960651636">
        <ele>361.58999999999997</ele>
        <time>2013-09-05T06:59:12Z</time>
      </trkpt>
      <trkpt lat="50.91038703918457" lon="15.065311985090375">
        <ele>360.14999999999998</ele>
        <time>2013-09-05T06:59:13Z</time>
      </trkpt>
      <trkpt lat="50.912296017631888" lon="15.06354097276926">
        <ele>351.5</ele>
        <time>2013-09-05T06:59:25Z</time>
      </trkpt>
      <trkpt lat="50.91242803260684" lon="15.063369981944561">
        <ele>351.5</ele>
        <time>2013-09-05T06:59:26Z</time>
      </trkpt>
      <trkpt lat="50.912538003176451" lon="15.063179964199662">
        <ele>350.54000000000002</ele>
        <time>2013-09-05T06:59:27Z</time>
      </trkpt>
      <trkpt lat="50.912639005109668" lon="15.062985001131892">
        <ele>350.06</ele>
        <time>2013-09-05T06:59:28Z</time>
      </trkpt>
      <trkpt lat="50.912709999829531" lon="15.062767993658781">
        <ele>349.10000000000002</ele>
        <time>2013-09-05T06:59:29Z</time>
      </trkpt>
      <trkpt lat="50.912739001214504" lon="15.062532965093851">
        <ele>347.64999999999998</ele>
        <time>2013-09-05T06:59:30Z</time>
      </trkpt>
      <trkpt lat="50.912752998992801" lon="15.062307994812727">
        <ele>347.64999999999998</ele>
        <time>2013-09-05T06:59:31Z</time>
      </trkpt>
      <trkpt lat="50.912782000377774" lon="15.062079001218081">
        <ele>347.17000000000002</ele>
        <time>2013-09-05T06:59:32Z</time>
      </trkpt>
      <trkpt lat="50.912832962349057" lon="15.06188303232193">
        <ele>346.20999999999998</ele>
        <time>2013-09-05T06:59:33Z</time>
      </trkpt>
      <trkpt lat="50.912906974554062" lon="15.061727967113256">
        <ele>345.73000000000002</ele>
        <time>2013-09-05T06:59:34Z</time>
      </trkpt>
      <trkpt lat="50.91300898231566" lon="15.061619002372026">
        <ele>345.25</ele>
        <time>2013-09-05T06:59:35Z</time>
      </trkpt>
      <trkpt lat="50.913115013390779" lon="15.061564017087221">
        <ele>344.76999999999998</ele>
        <time>2013-09-05T06:59:36Z</time>
      </trkpt>
      <trkpt lat="50.913193970918655" lon="15.061538033187389">
        <ele>345.25</ele>
        <time>2013-09-05T06:59:37Z</time>
      </trkpt>
      <trkpt lat="50.913273012265563" lon="15.061523029580712">
        <ele>345.25</ele>
        <time>2013-09-05T06:59:38Z</time>
      </trkpt>
      <trkpt lat="50.913363033905625" lon="15.061520012095571">
        <ele>344.76999999999998</ele>
        <time>2013-09-05T06:59:39Z</time>
      </trkpt>
      <trkpt lat="50.913469986990094" lon="15.061525041237473">
        <ele>344.76999999999998</ele>
        <time>2013-09-05T06:59:40Z</time>
      </trkpt>
      <trkpt lat="50.914519988000393" lon="15.061766020953655">
        <ele>337.07999999999998</ele>
        <time>2013-09-05T06:59:47Z</time>
      </trkpt>
      <trkpt lat="50.916323019191623" lon="15.062275975942612">
        <ele>325.54000000000002</ele>
        <time>2013-09-05T06:59:58Z</time>
      </trkpt>
      <trkpt lat="50.917678037658334" lon="15.063052978366613">
        <ele>318.81</ele>
        <time>2013-09-05T07:00:08Z</time>
      </trkpt>
      <trkpt lat="50.918342974036932" lon="15.063340980559587">
        <ele>316.41000000000003</ele>
        <time>2013-09-05T07:00:14Z</time>
      </trkpt>
      <trkpt lat="50.918727032840252" lon="15.063571985810995">
        <ele>314.00999999999999</ele>
        <time>2013-09-05T07:00:19Z</time>
      </trkpt>
      <trkpt lat="50.918774977326393" lon="15.063676005229354">
        <ele>313.52999999999997</ele>
        <time>2013-09-05T07:00:20Z</time>
      </trkpt>
      <trkpt lat="50.918823005631566" lon="15.0637979619205">
        <ele>312.56999999999999</ele>
        <time>2013-09-05T07:00:21Z</time>
      </trkpt>
      <trkpt lat="50.918863993138075" lon="15.063931988552213">
        <ele>312.08999999999997</ele>
        <time>2013-09-05T07:00:22Z</time>
      </trkpt>
      <trkpt lat="50.918892994523048" lon="15.064070960506797">
        <ele>312.08999999999997</ele>
        <time>2013-09-05T07:00:23Z</time>
      </trkpt>
      <trkpt lat="50.9189179725945" lon="15.064227031543851">
        <ele>310.63999999999999</ele>
        <time>2013-09-05T07:00:24Z</time>
      </trkpt>
      <trkpt lat="50.919269006699324" lon="15.066168028861284">
        <ele>305.83999999999997</ele>
        <time>2013-09-05T07:00:35Z</time>
      </trkpt>
      <trkpt lat="50.919695980846882" lon="15.068362997844815">
        <ele>298.63</ele>
        <time>2013-09-05T07:00:48Z</time>
      </trkpt>
      <trkpt lat="50.919838976114988" lon="15.069819018244743">
        <ele>295.74000000000001</ele>
        <time>2013-09-05T07:00:59Z</time>
      </trkpt>
      <trkpt lat="50.920043997466564" lon="15.071845008060336">
        <ele>289.97000000000003</ele>
        <time>2013-09-05T07:01:12Z</time>
      </trkpt>
      <trkpt lat="50.920273996889591" lon="15.072709014639258">
        <ele>287.56999999999999</ele>
        <time>2013-09-05T07:01:17Z</time>
      </trkpt>
      <trkpt lat="50.920517994090915" lon="15.073432959616184">
        <ele>287.56999999999999</ele>
        <time>2013-09-05T07:01:21Z</time>
      </trkpt>
      <trkpt lat="50.920535009354353" lon="15.073629012331367">
        <ele>287.08999999999997</ele>
        <time>2013-09-05T07:01:22Z</time>
      </trkpt>
      <trkpt lat="50.920527968555689" lon="15.073838979005814">
        <ele>287.56999999999999</ele>
        <time>2013-09-05T07:01:23Z</time>
      </trkpt>
      <trkpt lat="50.920365024358034" lon="15.076136961579323">
        <ele>293.81999999999999</ele>
        <time>2013-09-05T07:01:35Z</time>
      </trkpt>
      <trkpt lat="50.920107029378414" lon="15.078240986913443">
        <ele>299.11000000000001</ele>
        <time>2013-09-05T07:01:46Z</time>
      </trkpt>
      <trkpt lat="50.919715007767081" lon="15.079871015623212">
        <ele>300.06999999999999</ele>
        <time>2013-09-05T07:01:55Z</time>
      </trkpt>
      <trkpt lat="50.919629009440541" lon="15.080007975921035">
        <ele>300.55000000000001</ele>
        <time>2013-09-05T07:01:56Z</time>
      </trkpt>
      <trkpt lat="50.919547034427524" lon="15.080131022259593">
        <ele>300.55000000000001</ele>
        <time>2013-09-05T07:01:57Z</time>
      </trkpt>
      <trkpt lat="50.919252997264266" lon="15.080645000562072">
        <ele>302.94999999999999</ele>
        <time>2013-09-05T07:02:02Z</time>
      </trkpt>
      <trkpt lat="50.919252997264266" lon="15.08077098056674">
        <ele>303.43000000000001</ele>
        <time>2013-09-05T07:02:03Z</time>
      </trkpt>
      <trkpt lat="50.919277975335717" lon="15.08087701164186">
        <ele>303.43000000000001</ele>
        <time>2013-09-05T07:02:04Z</time>
      </trkpt>
      <trkpt lat="50.919321980327368" lon="15.080972984433174">
        <ele>302.94999999999999</ele>
        <time>2013-09-05T07:02:05Z</time>
      </trkpt>
      <trkpt lat="50.919371014460921" lon="15.081077003851533">
        <ele>302.47000000000003</ele>
        <time>2013-09-05T07:02:06Z</time>
      </trkpt>
      <trkpt lat="50.919421976432204" lon="15.081201978027821">
        <ele>301.02999999999997</ele>
        <time>2013-09-05T07:02:07Z</time>
      </trkpt>
      <trkpt lat="50.919965039938688" lon="15.082628997042775">
        <ele>295.74000000000001</ele>
        <time>2013-09-05T07:02:17Z</time>
      </trkpt>
      <trkpt lat="50.92055001296103" lon="15.084492964670062">
        <ele>295.25999999999999</ele>
        <time>2013-09-05T07:02:28Z</time>
      </trkpt>
      <trkpt lat="50.920614972710609" lon="15.084613999351859">
        <ele>295.74000000000001</ele>
        <time>2013-09-05T07:02:29Z</time>
      </trkpt>
      <trkpt lat="50.920689990743995" lon="15.084708966314793">
        <ele>296.22000000000003</ele>
        <time>2013-09-05T07:02:30Z</time>
      </trkpt>
      <trkpt lat="50.920771965757012" lon="15.084784990176558">
        <ele>296.22000000000003</ele>
        <time>2013-09-05T07:02:31Z</time>
      </trkpt>
      <trkpt lat="50.920853018760681" lon="15.08485397323966">
        <ele>296.69999999999999</ele>
        <time>2013-09-05T07:02:32Z</time>
      </trkpt>
      <trkpt lat="50.921892039477825" lon="15.085684033110738">
        <ele>302.47000000000003</ele>
        <time>2013-09-05T07:02:43Z</time>
      </trkpt>
      <trkpt lat="50.922655966132879" lon="15.086301025003195">
        <ele>308.72000000000003</ele>
        <time>2013-09-05T07:02:50Z</time>
      </trkpt>
      <trkpt lat="50.923722982406616" lon="15.086930003017187">
        <ele>314.49000000000001</ele>
        <time>2013-09-05T07:02:59Z</time>
      </trkpt>
      <trkpt lat="50.924817994236946" lon="15.088042030110955">
        <ele>323.13999999999999</ele>
        <time>2013-09-05T07:03:10Z</time>
      </trkpt>
      <trkpt lat="50.924840038642287" lon="15.088163986802101">
        <ele>322.66000000000003</ele>
        <time>2013-09-05T07:03:11Z</time>
      </trkpt>
      <trkpt lat="50.924853030592203" lon="15.088285021483898">
        <ele>323.62</ele>
        <time>2013-09-05T07:03:12Z</time>
      </trkpt>
      <trkpt lat="50.924811037257314" lon="15.088444026187062">
        <ele>323.62</ele>
        <time>2013-09-05T07:03:13Z</time>
      </trkpt>
      <trkpt lat="50.924755968153477" lon="15.088613005355">
        <ele>324.57999999999998</ele>
        <time>2013-09-05T07:03:14Z</time>
      </trkpt>
      <trkpt lat="50.924694025889039" lon="15.088769998401403">
        <ele>324.57999999999998</ele>
        <time>2013-09-05T07:03:15Z</time>
      </trkpt>
      <trkpt lat="50.923889027908444" lon="15.091025987640023">
        <ele>331.79000000000002</ele>
        <time>2013-09-05T07:03:27Z</time>
      </trkpt>
      <trkpt lat="50.923086041584611" lon="15.093379039317369">
        <ele>331.79000000000002</ele>
        <time>2013-09-05T07:03:38Z</time>
      </trkpt>
      <trkpt lat="50.922272996976972" lon="15.096169039607048">
        <ele>344.76999999999998</ele>
        <time>2013-09-05T07:03:48Z</time>
      </trkpt>
      <trkpt lat="50.922218011692166" lon="15.097126001492143">
        <ele>348.62</ele>
        <time>2013-09-05T07:03:51Z</time>
      </trkpt>
      <trkpt lat="50.922488998621702" lon="15.100169973447919">
        <ele>350.06</ele>
        <time>2013-09-05T07:04:00Z</time>
      </trkpt>
      <trkpt lat="50.92250601388514" lon="15.100861983373761">
        <ele>348.62</ele>
        <time>2013-09-05T07:04:02Z</time>
      </trkpt>
      <trkpt lat="50.922492016106844" lon="15.101208994165063">
        <ele>348.62</ele>
        <time>2013-09-05T07:04:03Z</time>
      </trkpt>
      <trkpt lat="50.922121033072472" lon="15.104721011593938">
        <ele>351.98000000000002</ele>
        <time>2013-09-05T07:04:13Z</time>
      </trkpt>
      <trkpt lat="50.921536982059479" lon="15.110702002421021">
        <ele>357.26999999999998</ele>
        <time>2013-09-05T07:04:30Z</time>
      </trkpt>
      <trkpt lat="50.921738985925913" lon="15.114599000662565">
        <ele>355.82999999999998</ele>
        <time>2013-09-05T07:04:41Z</time>
      </trkpt>
      <trkpt lat="50.922193033620715" lon="15.117363017052412">
        <ele>357.75</ele>
        <time>2013-09-05T07:04:49Z</time>
      </trkpt>
      <trkpt lat="50.922537026926875" lon="15.11868903413415">
        <ele>357.26999999999998</ele>
        <time>2013-09-05T07:04:53Z</time>
      </trkpt>
      <trkpt lat="50.922583965584636" lon="15.11903302744031">
        <ele>357.26999999999998</ele>
        <time>2013-09-05T07:04:54Z</time>
      </trkpt>
      <trkpt lat="50.922612966969609" lon="15.119379032403231">
        <ele>357.26999999999998</ele>
        <time>2013-09-05T07:04:55Z</time>
      </trkpt>
      <trkpt lat="50.922628976404667" lon="15.119729982689023">
        <ele>357.75</ele>
        <time>2013-09-05T07:04:56Z</time>
      </trkpt>
      <trkpt lat="50.922631993889809" lon="15.120094008743763">
        <ele>358.23000000000002</ele>
        <time>2013-09-05T07:04:57Z</time>
      </trkpt>
      <trkpt lat="50.922626964747906" lon="15.120448982343078">
        <ele>359.19</ele>
        <time>2013-09-05T07:04:58Z</time>
      </trkpt>
      <trkpt lat="50.922873979434371" lon="15.122876968234777">
        <ele>361.58999999999997</ele>
        <time>2013-09-05T07:05:05Z</time>
      </trkpt>
      <trkpt lat="50.923075983300805" lon="15.123474011197686">
        <ele>362.55000000000001</ele>
        <time>2013-09-05T07:05:07Z</time>
      </trkpt>
      <trkpt lat="50.924290018156171" lon="15.126197040081024">
        <ele>373.61000000000001</ele>
        <time>2013-09-05T07:05:17Z</time>
      </trkpt>
      <trkpt lat="50.924969958141446" lon="15.127983978018165">
        <ele>378.42000000000002</ele>
        <time>2013-09-05T07:05:24Z</time>
      </trkpt>
      <trkpt lat="50.925622992217541" lon="15.13108603656292">
        <ele>385.14999999999998</ele>
        <time>2013-09-05T07:05:35Z</time>
      </trkpt>
      <trkpt lat="50.925645958632231" lon="15.131383007392287">
        <ele>385.63</ele>
        <time>2013-09-05T07:05:36Z</time>
      </trkpt>
      <trkpt lat="50.925658028572798" lon="15.13169196434319">
        <ele>387.06999999999999</ele>
        <time>2013-09-05T07:05:37Z</time>
      </trkpt>
      <trkpt lat="50.925726005807519" lon="15.13469603843987">
        <ele>388.99000000000001</ele>
        <time>2013-09-05T07:05:46Z</time>
      </trkpt>
      <trkpt lat="50.926267979666591" lon="15.139198964461684">
        <ele>388.02999999999997</ele>
        <time>2013-09-05T07:05:59Z</time>
      </trkpt>
      <trkpt lat="50.926971975713968" lon="15.143020022660494">
        <ele>387.55000000000001</ele>
        <time>2013-09-05T07:06:10Z</time>
      </trkpt>
      <trkpt lat="50.928507959470153" lon="15.149016017094254">
        <ele>384.66000000000003</ele>
        <time>2013-09-05T07:06:28Z</time>
      </trkpt>
      <trkpt lat="50.929164011031389" lon="15.151925962418318">
        <ele>387.55000000000001</ele>
        <time>2013-09-05T07:06:38Z</time>
      </trkpt>
      <trkpt lat="50.930008990690112" lon="15.154202990233898">
        <ele>388.02999999999997</ele>
        <time>2013-09-05T07:06:46Z</time>
      </trkpt>
      <trkpt lat="50.931177008897066" lon="15.155768981203437">
        <ele>388.99000000000001</ele>
        <time>2013-09-05T07:06:53Z</time>
      </trkpt>
      <trkpt lat="50.931323021650314" lon="15.15603200532496">
        <ele>389.47000000000003</ele>
        <time>2013-09-05T07:06:54Z</time>
      </trkpt>
      <trkpt lat="50.931468028575182" lon="15.156308021396399">
        <ele>389.94999999999999</ele>
        <time>2013-09-05T07:06:55Z</time>
      </trkpt>
      <trkpt lat="50.931591996923089" lon="15.15661496669054">
        <ele>390.91000000000003</ele>
        <time>2013-09-05T07:06:56Z</time>
      </trkpt>
      <trkpt lat="50.931704984977841" lon="15.156930964440107">
        <ele>391.38999999999999</ele>
        <time>2013-09-05T07:06:57Z</time>
      </trkpt>
      <trkpt lat="50.931794000789523" lon="15.157265989109874">
        <ele>391.87</ele>
        <time>2013-09-05T07:06:58Z</time>
      </trkpt>
      <trkpt lat="50.932438988238573" lon="15.160730984061956">
        <ele>394.75999999999999</ele>
        <time>2013-09-05T07:07:08Z</time>
      </trkpt>
      <trkpt lat="50.933674983680248" lon="15.167908994480968">
        <ele>400.05000000000001</ele>
        <time>2013-09-05T07:07:29Z</time>
      </trkpt>
      <trkpt lat="50.933679006993771" lon="15.170451980084181">
        <ele>397.16000000000003</ele>
        <time>2013-09-05T07:07:36Z</time>
      </trkpt>
      <trkpt lat="50.933166034519672" lon="15.173207027837634">
        <ele>400.52999999999997</ele>
        <time>2013-09-05T07:07:44Z</time>
      </trkpt>
      <trkpt lat="50.931581016629934" lon="15.180646972730756">
        <ele>409.66000000000003</ele>
        <time>2013-09-05T07:08:06Z</time>
      </trkpt>
      <trkpt lat="50.930525986477733" lon="15.185634037479758">
        <ele>413.01999999999998</ele>
        <time>2013-09-05T07:08:21Z</time>
      </trkpt>
      <trkpt lat="50.92981000430882" lon="15.188998030498624">
        <ele>413.98000000000002</ele>
        <time>2013-09-05T07:08:32Z</time>
      </trkpt>
      <trkpt lat="50.929456036537886" lon="15.190311977639794">
        <ele>415.43000000000001</ele>
        <time>2013-09-05T07:08:38Z</time>
      </trkpt>
      <trkpt lat="50.929437009617686" lon="15.190529990941286">
        <ele>415.91000000000003</ele>
        <time>2013-09-05T07:08:39Z</time>
      </trkpt>
      <trkpt lat="50.929354028776288" lon="15.192783968523145">
        <ele>421.68000000000001</ele>
        <time>2013-09-05T07:08:48Z</time>
      </trkpt>
      <trkpt lat="50.929404990747571" lon="15.193002987653017">
        <ele>422.63999999999999</ele>
        <time>2013-09-05T07:08:49Z</time>
      </trkpt>
      <trkpt lat="50.929490989074111" lon="15.193208009004593">
        <ele>423.60000000000002</ele>
        <time>2013-09-05T07:08:50Z</time>
      </trkpt>
      <trkpt lat="50.930323982611299" lon="15.194980027154088">
        <ele>426.95999999999998</ele>
        <time>2013-09-05T07:08:59Z</time>
      </trkpt>
      <trkpt lat="50.93069102615118" lon="15.19642598927021">
        <ele>430.32999999999998</ele>
        <time>2013-09-05T07:09:07Z</time>
      </trkpt>
      <trkpt lat="50.931199975311756" lon="15.199129991233349">
        <ele>433.69</ele>
        <time>2013-09-05T07:09:21Z</time>
      </trkpt>
      <trkpt lat="50.93135898001492" lon="15.200125006958842">
        <ele>434.17000000000002</ele>
        <time>2013-09-05T07:09:26Z</time>
      </trkpt>
      <trkpt lat="50.931354034692049" lon="15.200346037745476">
        <ele>435.13</ele>
        <time>2013-09-05T07:09:27Z</time>
      </trkpt>
      <trkpt lat="50.931349005550146" lon="15.200531026348472">
        <ele>435.13</ele>
        <time>2013-09-05T07:09:28Z</time>
      </trkpt>
      <trkpt lat="50.931162005290389" lon="15.202292986214161">
        <ele>434.17000000000002</ele>
        <time>2013-09-05T07:09:37Z</time>
      </trkpt>
      <trkpt lat="50.931297959759831" lon="15.204018987715244">
        <ele>431.76999999999998</ele>
        <time>2013-09-05T07:09:45Z</time>
      </trkpt>
      <trkpt lat="50.93183197081089" lon="15.206516962498426">
        <ele>435.61000000000001</ele>
        <time>2013-09-05T07:09:57Z</time>
      </trkpt>
      <trkpt lat="50.932176969945431" lon="15.208638003095984">
        <ele>434.17000000000002</ele>
        <time>2013-09-05T07:10:06Z</time>
      </trkpt>
      <trkpt lat="50.932586006820202" lon="15.211549960076809">
        <ele>440.42000000000002</ele>
        <time>2013-09-05T07:10:17Z</time>
      </trkpt>
      <trkpt lat="50.932751968502998" lon="15.212777992710471">
        <ele>441.86000000000001</ele>
        <time>2013-09-05T07:10:22Z</time>
      </trkpt>
      <trkpt lat="50.932751968502998" lon="15.212992988526821">
        <ele>442.33999999999997</ele>
        <time>2013-09-05T07:10:23Z</time>
      </trkpt>
      <trkpt lat="50.932739982381463" lon="15.213202033191919">
        <ele>442.33999999999997</ele>
        <time>2013-09-05T07:10:24Z</time>
      </trkpt>
      <trkpt lat="50.932713998481631" lon="15.213407976552844">
        <ele>442.33999999999997</ele>
        <time>2013-09-05T07:10:25Z</time>
      </trkpt>
      <trkpt lat="50.932674016803503" lon="15.213602017611265">
        <ele>442.33999999999997</ele>
        <time>2013-09-05T07:10:26Z</time>
      </trkpt>
      <trkpt lat="50.93262498266995" lon="15.2137849945575">
        <ele>442.81999999999999</ele>
        <time>2013-09-05T07:10:27Z</time>
      </trkpt>
      <trkpt lat="50.932586006820202" lon="15.213961014524102">
        <ele>443.31</ele>
        <time>2013-09-05T07:10:28Z</time>
      </trkpt>
      <trkpt lat="50.932568991556764" lon="15.214296039193869">
        <ele>443.31</ele>
        <time>2013-09-05T07:10:30Z</time>
      </trkpt>
      <trkpt lat="50.932597992941737" lon="15.214442973956466">
        <ele>444.26999999999998</ele>
        <time>2013-09-05T07:10:31Z</time>
      </trkpt>
      <trkpt lat="50.932712992653251" lon="15.215058960020542">
        <ele>446.19</ele>
        <time>2013-09-05T07:10:35Z</time>
      </trkpt>
      <trkpt lat="50.93260302208364" lon="15.217022001743317">
        <ele>449.06999999999999</ele>
        <time>2013-09-05T07:10:47Z</time>
      </trkpt>
      <trkpt lat="50.932521969079971" lon="15.217502033337951">
        <ele>447.14999999999998</ele>
        <time>2013-09-05T07:10:50Z</time>
      </trkpt>
      <trkpt lat="50.932463966310024" lon="15.218022968620062">
        <ele>447.14999999999998</ele>
        <time>2013-09-05T07:10:53Z</time>
      </trkpt>
      <trkpt lat="50.932150986045599" lon="15.220886981114745">
        <ele>449.06999999999999</ele>
        <time>2013-09-05T07:11:10Z</time>
      </trkpt>
      <trkpt lat="50.931972032412887" lon="15.222167987376451">
        <ele>450.02999999999997</ele>
        <time>2013-09-05T07:11:17Z</time>
      </trkpt>
      <trkpt lat="50.931234005838633" lon="15.224258014932275">
        <ele>451.48000000000002</ele>
        <time>2013-09-05T07:11:29Z</time>
      </trkpt>
      <trkpt lat="50.930437976494431" lon="15.225695008412004">
        <ele>448.58999999999997</ele>
        <time>2013-09-05T07:11:39Z</time>
      </trkpt>
      <trkpt lat="50.929557038471103" lon="15.226749032735825">
        <ele>449.55000000000001</ele>
        <time>2013-09-05T07:11:48Z</time>
      </trkpt>
      <trkpt lat="50.929472967982292" lon="15.226885993033648">
        <ele>449.55000000000001</ele>
        <time>2013-09-05T07:11:49Z</time>
      </trkpt>
      <trkpt lat="50.929023027420044" lon="15.227645980194211">
        <ele>452.92000000000002</ele>
        <time>2013-09-05T07:11:55Z</time>
      </trkpt>
      <trkpt lat="50.928205959498882" lon="15.228302031755447">
        <ele>461.56999999999999</ele>
        <time>2013-09-05T07:12:05Z</time>
      </trkpt>
      <trkpt lat="50.927587961778045" lon="15.228491965681314">
        <ele>464.93000000000001</ele>
        <time>2013-09-05T07:12:11Z</time>
      </trkpt>
      <trkpt lat="50.927156964316964" lon="15.228614006191492">
        <ele>469.25999999999999</ele>
        <time>2013-09-05T07:12:16Z</time>
      </trkpt>
      <trkpt lat="50.927092004567385" lon="15.228649964556098">
        <ele>469.74000000000001</ele>
        <time>2013-09-05T07:12:17Z</time>
      </trkpt>
      <trkpt lat="50.926929982379079" lon="15.228680977597833">
        <ele>471.18000000000001</ele>
        <time>2013-09-05T07:12:19Z</time>
      </trkpt>
      <trkpt lat="50.926730995997787" lon="15.22873898036778">
        <ele>470.69999999999999</ele>
        <time>2013-09-05T07:12:22Z</time>
      </trkpt>
      <trkpt lat="50.925988024100661" lon="15.228983983397484">
        <ele>471.66000000000003</ele>
        <time>2013-09-05T07:12:30Z</time>
      </trkpt>
      <trkpt lat="50.925156958401203" lon="15.229267040267587">
        <ele>473.11000000000001</ele>
        <time>2013-09-05T07:12:39Z</time>
      </trkpt>
      <trkpt lat="50.925055034458637" lon="15.229329988360405">
        <ele>473.58999999999997</ele>
        <time>2013-09-05T07:12:41Z</time>
      </trkpt>
      <trkpt lat="50.925015974789858" lon="15.229379022493958">
        <ele>474.06999999999999</ele>
        <time>2013-09-05T07:12:42Z</time>
      </trkpt>
      <trkpt lat="50.925000971183181" lon="15.229476001113653">
        <ele>474.55000000000001</ele>
        <time>2013-09-05T07:12:43Z</time>
      </trkpt>
      <trkpt lat="50.924992002546787" lon="15.229540038853884">
        <ele>475.02999999999997</ele>
        <time>2013-09-05T07:12:44Z</time>
      </trkpt>
      <trkpt lat="50.924990996718407" lon="15.229637017473578">
        <ele>475.50999999999999</ele>
        <time>2013-09-05T07:12:45Z</time>
      </trkpt>
      <trkpt lat="50.925004994496703" lon="15.229764003306627">
        <ele>475.50999999999999</ele>
        <time>2013-09-05T07:12:46Z</time>
      </trkpt>
      <trkpt lat="50.925050005316734" lon="15.230258032679558">
        <ele>475.02999999999997</ele>
        <time>2013-09-05T07:12:50Z</time>
      </trkpt>
      <trkpt lat="50.925252009183168" lon="15.231812037527561">
        <ele>477.43000000000001</ele>
        <time>2013-09-05T07:13:00Z</time>
      </trkpt>
      <trkpt lat="50.925596002489328" lon="15.234512016177177">
        <ele>480.31999999999999</ele>
        <time>2013-09-05T07:13:14Z</time>
      </trkpt>
      <trkpt lat="50.925659034401178" lon="15.236248997971416">
        <ele>479.35000000000002</ele>
        <time>2013-09-05T07:13:23Z</time>
      </trkpt>
      <trkpt lat="50.925617041066289" lon="15.236563989892602">
        <ele>478.87</ele>
        <time>2013-09-05T07:13:25Z</time>
      </trkpt>
      <trkpt lat="50.925563983619213" lon="15.23668896406889">
        <ele>478.87</ele>
        <time>2013-09-05T07:13:26Z</time>
      </trkpt>
      <trkpt lat="50.925486031919718" lon="15.236787032335997">
        <ele>478.87</ele>
        <time>2013-09-05T07:13:27Z</time>
      </trkpt>
      <trkpt lat="50.925390981137753" lon="15.236874958500266">
        <ele>479.35000000000002</ele>
        <time>2013-09-05T07:13:28Z</time>
      </trkpt>
      <trkpt lat="50.925290985032916" lon="15.236969003453851">
        <ele>479.83999999999997</ele>
        <time>2013-09-05T07:13:29Z</time>
      </trkpt>
      <trkpt lat="50.924392025917768" lon="15.238231988623738">
        <ele>482.72000000000003</ele>
        <time>2013-09-05T07:13:39Z</time>
      </trkpt>
      <trkpt lat="50.923829013481736" lon="15.240035019814968">
        <ele>487.05000000000001</ele>
        <time>2013-09-05T07:13:49Z</time>
      </trkpt>
      <trkpt lat="50.923181008547544" lon="15.242774980142713">
        <ele>496.66000000000003</ele>
        <time>2013-09-05T07:14:02Z</time>
      </trkpt>
      <trkpt lat="50.922879008576274" lon="15.245250994339585">
        <ele>503.87</ele>
        <time>2013-09-05T07:14:12Z</time>
      </trkpt>
      <trkpt lat="50.92287196777761" lon="15.24549700319767">
        <ele>504.35000000000002</ele>
        <time>2013-09-05T07:14:13Z</time>
      </trkpt>
      <trkpt lat="50.922879008576274" lon="15.245745023712516">
        <ele>505.31</ele>
        <time>2013-09-05T07:14:14Z</time>
      </trkpt>
      <trkpt lat="50.922901974990964" lon="15.245997989550233">
        <ele>505.79000000000002</ele>
        <time>2013-09-05T07:14:15Z</time>
      </trkpt>
      <trkpt lat="50.922943968325853" lon="15.246254978701472">
        <ele>506.26999999999998</ele>
        <time>2013-09-05T07:14:16Z</time>
      </trkpt>
      <trkpt lat="50.922994008287787" lon="15.24650702252984">
        <ele>507.23000000000002</ele>
        <time>2013-09-05T07:14:17Z</time>
      </trkpt>
      <trkpt lat="50.923049999400973" lon="15.246752025559545">
        <ele>508.67000000000002</ele>
        <time>2013-09-05T07:14:18Z</time>
      </trkpt>
      <trkpt lat="50.923111019656062" lon="15.246989987790585">
        <ele>509.16000000000003</ele>
        <time>2013-09-05T07:14:19Z</time>
      </trkpt>
      <trkpt lat="50.923734968528152" lon="15.250225989148021">
        <ele>512.51999999999998</ele>
        <time>2013-09-05T07:14:32Z</time>
      </trkpt>
      <trkpt lat="50.923575041815639" lon="15.252184001728892">
        <ele>516.37</ele>
        <time>2013-09-05T07:14:40Z</time>
      </trkpt>
      <trkpt lat="50.922851013019681" lon="15.254458012059331">
        <ele>521.16999999999996</ele>
        <time>2013-09-05T07:14:50Z</time>
      </trkpt>
      <trkpt lat="50.921791959553957" lon="15.257395030930638">
        <ele>526.94000000000005</ele>
        <time>2013-09-05T07:15:03Z</time>
      </trkpt>
      <trkpt lat="50.921097015962005" lon="15.259523028507829">
        <ele>531.26999999999998</ele>
        <time>2013-09-05T07:15:12Z</time>
      </trkpt>
      <trkpt lat="50.920740030705929" lon="15.262183025479317">
        <ele>539.91999999999996</ele>
        <time>2013-09-05T07:15:22Z</time>
      </trkpt>
      <trkpt lat="50.920696025714278" lon="15.264260983094573">
        <ele>544.72000000000003</ele>
        <time>2013-09-05T07:15:30Z</time>
      </trkpt>
      <trkpt lat="50.920875985175371" lon="15.266460981220007">
        <ele>544.24000000000001</ele>
        <time>2013-09-05T07:15:40Z</time>
      </trkpt>
      <trkpt lat="50.921040019020438" lon="15.268472973257303">
        <ele>540.39999999999998</ele>
        <time>2013-09-05T07:15:52Z</time>
      </trkpt>
      <trkpt lat="50.921216960996389" lon="15.270360996946692">
        <ele>540.39999999999998</ele>
        <time>2013-09-05T07:16:01Z</time>
      </trkpt>
      <trkpt lat="50.92136699706316" lon="15.272408025339246">
        <ele>545.20000000000005</ele>
        <time>2013-09-05T07:16:10Z</time>
      </trkpt>
      <trkpt lat="50.921531030908227" lon="15.274218013510108">
        <ele>547.13</ele>
        <time>2013-09-05T07:16:18Z</time>
      </trkpt>
      <trkpt lat="50.921523990109563" lon="15.276412982493639">
        <ele>546.64999999999998</ele>
        <time>2013-09-05T07:16:26Z</time>
      </trkpt>
      <trkpt lat="50.921477973461151" lon="15.277450997382402">
        <ele>547.13</ele>
        <time>2013-09-05T07:16:30Z</time>
      </trkpt>
      <trkpt lat="50.921489959582686" lon="15.278146024793386">
        <ele>547.13</ele>
        <time>2013-09-05T07:16:33Z</time>
      </trkpt>
      <trkpt lat="50.921513009816408" lon="15.278375018388033">
        <ele>547.61000000000001</ele>
        <time>2013-09-05T07:16:34Z</time>
      </trkpt>
      <trkpt lat="50.921578975394368" lon="15.278797969222069">
        <ele>546.64999999999998</ele>
        <time>2013-09-05T07:16:36Z</time>
      </trkpt>
      <trkpt lat="50.922165038064122" lon="15.281255962327123">
        <ele>534.63</ele>
        <time>2013-09-05T07:16:48Z</time>
      </trkpt>
      <trkpt lat="50.92254901304841" lon="15.28324599377811">
        <ele>524.53999999999996</ele>
        <time>2013-09-05T07:16:58Z</time>
      </trkpt>
      <trkpt lat="50.922610033303499" lon="15.283430982381105">
        <ele>523.58000000000004</ele>
        <time>2013-09-05T07:16:59Z</time>
      </trkpt>
      <trkpt lat="50.923425005748868" lon="15.285097975283861">
        <ele>508.19</ele>
        <time>2013-09-05T07:17:09Z</time>
      </trkpt>
      <trkpt lat="50.923507986590266" lon="15.285252034664154">
        <ele>507.23000000000002</ele>
        <time>2013-09-05T07:17:10Z</time>
      </trkpt>
      <trkpt lat="50.923563977703452" lon="15.285413973033428">
        <ele>506.75</ele>
        <time>2013-09-05T07:17:11Z</time>
      </trkpt>
      <trkpt lat="50.923587027937174" lon="15.285572977736592">
        <ele>505.79000000000002</ele>
        <time>2013-09-05T07:17:12Z</time>
      </trkpt>
      <trkpt lat="50.923588033765554" lon="15.285730976611376">
        <ele>506.26999999999998</ele>
        <time>2013-09-05T07:17:13Z</time>
      </trkpt>
      <trkpt lat="50.923574035987258" lon="15.285902973264456">
        <ele>507.70999999999998</ele>
        <time>2013-09-05T07:17:14Z</time>
      </trkpt>
      <trkpt lat="50.923551991581917" lon="15.286095002666116">
        <ele>508.19</ele>
        <time>2013-09-05T07:17:15Z</time>
      </trkpt>
      <trkpt lat="50.923460964113474" lon="15.287548005580902">
        <ele>509.63999999999999</ele>
        <time>2013-09-05T07:17:22Z</time>
      </trkpt>
      <trkpt lat="50.923124011605978" lon="15.289643984287977">
        <ele>514.44000000000005</ele>
        <time>2013-09-05T07:17:32Z</time>
      </trkpt>
      <trkpt lat="50.922553036361933" lon="15.292830029502511">
        <ele>529.82000000000005</ele>
        <time>2013-09-05T07:17:47Z</time>
      </trkpt>
      <trkpt lat="50.922539960592985" lon="15.293042007833719">
        <ele>529.82000000000005</ele>
        <time>2013-09-05T07:17:48Z</time>
      </trkpt>
      <trkpt lat="50.922543983906507" lon="15.293249962851405">
        <ele>530.78999999999996</ele>
        <time>2013-09-05T07:17:49Z</time>
      </trkpt>
      <trkpt lat="50.922559993341565" lon="15.293463030830026">
        <ele>529.82000000000005</ele>
        <time>2013-09-05T07:17:50Z</time>
      </trkpt>
      <trkpt lat="50.922612966969609" lon="15.294351009652019">
        <ele>528.86000000000001</ele>
        <time>2013-09-05T07:17:54Z</time>
      </trkpt>
      <trkpt lat="50.922454968094826" lon="15.297000026330352">
        <ele>523.09000000000003</ele>
        <time>2013-09-05T07:18:06Z</time>
      </trkpt>
      <trkpt lat="50.922050960361958" lon="15.299864960834384">
        <ele>514.44000000000005</ele>
        <time>2013-09-05T07:18:19Z</time>
      </trkpt>
      <trkpt lat="50.921929003670812" lon="15.301553998142481">
        <ele>507.23000000000002</ele>
        <time>2013-09-05T07:18:27Z</time>
      </trkpt>
      <trkpt lat="50.921918023377657" lon="15.30172498896718">
        <ele>507.23000000000002</ele>
        <time>2013-09-05T07:18:28Z</time>
      </trkpt>
      <trkpt lat="50.921938978135586" lon="15.301903020590544">
        <ele>506.75</ele>
        <time>2013-09-05T07:18:29Z</time>
      </trkpt>
      <trkpt lat="50.921980971470475" lon="15.302059007808566">
        <ele>506.75</ele>
        <time>2013-09-05T07:18:30Z</time>
      </trkpt>
      <trkpt lat="50.922036040574312" lon="15.302206026390195">
        <ele>506.26999999999998</ele>
        <time>2013-09-05T07:18:31Z</time>
      </trkpt>
      <trkpt lat="50.922106029465795" lon="15.30234701000154">
        <ele>505.79000000000002</ele>
        <time>2013-09-05T07:18:32Z</time>
      </trkpt>
      <trkpt lat="50.922179035842419" lon="15.302477013319731">
        <ele>505.79000000000002</ele>
        <time>2013-09-05T07:18:33Z</time>
      </trkpt>
      <trkpt lat="50.923201041296124" lon="15.303961029276252">
        <ele>499.06</ele>
        <time>2013-09-05T07:18:45Z</time>
      </trkpt>
      <trkpt lat="50.924234027042985" lon="15.305416965857148">
        <ele>494.25999999999999</ele>
        <time>2013-09-05T07:18:57Z</time>
      </trkpt>
      <trkpt lat="50.924736019223928" lon="15.306187011301517">
        <ele>490.88999999999999</ele>
        <time>2013-09-05T07:19:03Z</time>
      </trkpt>
      <trkpt lat="50.92482696287334" lon="15.30627703294158">
        <ele>490.41000000000003</ele>
        <time>2013-09-05T07:19:04Z</time>
      </trkpt>
      <trkpt lat="50.924926036968827" lon="15.306350039318204">
        <ele>490.41000000000003</ele>
        <time>2013-09-05T07:19:05Z</time>
      </trkpt>
      <trkpt lat="50.926015013828874" lon="15.306989997625351">
        <ele>487.52999999999997</ele>
        <time>2013-09-05T07:19:15Z</time>
      </trkpt>
      <trkpt lat="50.927028972655535" lon="15.30797797255218">
        <ele>482.24000000000001</ele>
        <time>2013-09-05T07:19:25Z</time>
      </trkpt>
      <trkpt lat="50.927947964519262" lon="15.309210028499365">
        <ele>474.55000000000001</ele>
        <time>2013-09-05T07:19:35Z</time>
      </trkpt>
      <trkpt lat="50.928830998018384" lon="15.310813989490271">
        <ele>469.74000000000001</ele>
        <time>2013-09-05T07:19:45Z</time>
      </trkpt>
      <trkpt lat="50.929714031517506" lon="15.313392011448741">
        <ele>463.97000000000003</ele>
        <time>2013-09-05T07:19:58Z</time>
      </trkpt>
      <trkpt lat="50.929988035932183" lon="15.314918020740151">
        <ele>460.61000000000001</ele>
        <time>2013-09-05T07:20:05Z</time>
      </trkpt>
      <trkpt lat="50.929759964346886" lon="15.31667897477746">
        <ele>458.20999999999998</ele>
        <time>2013-09-05T07:20:13Z</time>
      </trkpt>
      <trkpt lat="50.929491994902492" lon="15.317438039928675">
        <ele>456.75999999999999</ele>
        <time>2013-09-05T07:20:17Z</time>
      </trkpt>
      <trkpt lat="50.929286973550916" lon="15.31800901517272">
        <ele>455.80000000000001</ele>
        <time>2013-09-05T07:20:20Z</time>
      </trkpt>
      <trkpt lat="50.929238023236394" lon="15.318213030695915">
        <ele>455.31999999999999</ele>
        <time>2013-09-05T07:20:21Z</time>
      </trkpt>
      <trkpt lat="50.929200975224376" lon="15.318428026512265">
        <ele>454.83999999999997</ele>
        <time>2013-09-05T07:20:22Z</time>
      </trkpt>
      <trkpt lat="50.92907901853323" lon="15.320647973567247">
        <ele>452.92000000000002</ele>
        <time>2013-09-05T07:20:32Z</time>
      </trkpt>
      <trkpt lat="50.929105002433062" lon="15.321534024551511">
        <ele>451.48000000000002</ele>
        <time>2013-09-05T07:20:36Z</time>
      </trkpt>
      <trkpt lat="50.929275993257761" lon="15.32258695922792">
        <ele>450.02999999999997</ele>
        <time>2013-09-05T07:20:41Z</time>
      </trkpt>
      <trkpt lat="50.929290996864438" lon="15.323005970567465">
        <ele>448.11000000000001</ele>
        <time>2013-09-05T07:20:43Z</time>
      </trkpt>
      <trkpt lat="50.929264007136226" lon="15.323219038546085">
        <ele>447.63</ele>
        <time>2013-09-05T07:20:44Z</time>
      </trkpt>
      <trkpt lat="50.929228970780969" lon="15.323434034362435">
        <ele>446.67000000000002</ele>
        <time>2013-09-05T07:20:45Z</time>
      </trkpt>
      <trkpt lat="50.929185971617699" lon="15.323641989380121">
        <ele>446.19</ele>
        <time>2013-09-05T07:20:46Z</time>
      </trkpt>
      <trkpt lat="50.929135009646416" lon="15.323842987418175">
        <ele>445.70999999999998</ele>
        <time>2013-09-05T07:20:47Z</time>
      </trkpt>
      <trkpt lat="50.929012969136238" lon="15.324448999017477">
        <ele>446.67000000000002</ele>
        <time>2013-09-05T07:20:50Z</time>
      </trkpt>
      <trkpt lat="50.928996037691832" lon="15.324655026197433">
        <ele>447.14999999999998</ele>
        <time>2013-09-05T07:20:51Z</time>
      </trkpt>
      <trkpt lat="50.929002994671464" lon="15.324867004528642">
        <ele>447.14999999999998</ele>
        <time>2013-09-05T07:20:52Z</time>
      </trkpt>
      <trkpt lat="50.929028978571296" lon="15.325076971203089">
        <ele>447.63</ele>
        <time>2013-09-05T07:20:53Z</time>
      </trkpt>
      <trkpt lat="50.929056974127889" lon="15.325291967019439">
        <ele>447.63</ele>
        <time>2013-09-05T07:20:54Z</time>
      </trkpt>
      <trkpt lat="50.929289991036057" lon="15.328051960095763">
        <ele>446.67000000000002</ele>
        <time>2013-09-05T07:21:07Z</time>
      </trkpt>
      <trkpt lat="50.929269036278129" lon="15.328263016417623">
        <ele>446.67000000000002</ele>
        <time>2013-09-05T07:21:08Z</time>
      </trkpt>
      <trkpt lat="50.928853964433074" lon="15.330304009839892">
        <ele>449.06999999999999</ele>
        <time>2013-09-05T07:21:18Z</time>
      </trkpt>
      <trkpt lat="50.928825968876481" lon="15.330525962635875">
        <ele>449.55000000000001</ele>
        <time>2013-09-05T07:21:19Z</time>
      </trkpt>
      <trkpt lat="50.928756985813379" lon="15.333233987912536">
        <ele>449.06999999999999</ele>
        <time>2013-09-05T07:21:31Z</time>
      </trkpt>
      <trkpt lat="50.928876008838415" lon="15.336565962061286">
        <ele>452.92000000000002</ele>
        <time>2013-09-05T07:21:45Z</time>
      </trkpt>
      <trkpt lat="50.928918002173305" lon="15.336838960647583">
        <ele>452.44</ele>
        <time>2013-09-05T07:21:46Z</time>
      </trkpt>
      <trkpt lat="50.929324021562934" lon="15.339269964024425">
        <ele>448.11000000000001</ele>
        <time>2013-09-05T07:21:54Z</time>
      </trkpt>
      <trkpt lat="50.929297031834722" lon="15.341775985434651">
        <ele>447.63</ele>
        <time>2013-09-05T07:22:02Z</time>
      </trkpt>
      <trkpt lat="50.929512027651072" lon="15.344147980213165">
        <ele>446.19</ele>
        <time>2013-09-05T07:22:10Z</time>
      </trkpt>
      <trkpt lat="50.93013103120029" lon="15.347377024590969">
        <ele>440.42000000000002</ele>
        <time>2013-09-05T07:22:21Z</time>
      </trkpt>
      <trkpt lat="50.930471001192927" lon="15.349827976897359">
        <ele>435.13</ele>
        <time>2013-09-05T07:22:30Z</time>
      </trkpt>
      <trkpt lat="50.930688008666039" lon="15.352398036047816">
        <ele>425.51999999999998</ele>
        <time>2013-09-05T07:22:40Z</time>
      </trkpt>
      <trkpt lat="50.930808959528804" lon="15.354284970089793">
        <ele>413.5</ele>
        <time>2013-09-05T07:22:50Z</time>
      </trkpt>
      <trkpt lat="50.930802002549171" lon="15.354399969801307">
        <ele>413.01999999999998</ele>
        <time>2013-09-05T07:22:51Z</time>
      </trkpt>
      <trkpt lat="50.930783981457353" lon="15.354501977562904">
        <ele>413.5</ele>
        <time>2013-09-05T07:22:52Z</time>
      </trkpt>
      <trkpt lat="50.93075598590076" lon="15.354572972282767">
        <ele>413.5</ele>
        <time>2013-09-05T07:22:53Z</time>
      </trkpt>
      <trkpt lat="50.930714998394251" lon="15.354604991152883">
        <ele>413.01999999999998</ele>
        <time>2013-09-05T07:22:54Z</time>
      </trkpt>
      <trkpt lat="50.930652972310781" lon="15.354613959789276">
        <ele>413.01999999999998</ele>
        <time>2013-09-05T07:22:55Z</time>
      </trkpt>
      <trkpt lat="50.930581977590919" lon="15.354611026123166">
        <ele>413.01999999999998</ele>
        <time>2013-09-05T07:22:56Z</time>
      </trkpt>
      <trkpt lat="50.930501008406281" lon="15.354599040001631">
        <ele>413.5</ele>
        <time>2013-09-05T07:22:57Z</time>
      </trkpt>
      <trkpt lat="50.930409980937839" lon="15.354572972282767">
        <ele>413.5</ele>
        <time>2013-09-05T07:22:58Z</time>
      </trkpt>
      <trkpt lat="50.92916501685977" lon="15.354235013946891">
        <ele>415.43000000000001</ele>
        <time>2013-09-05T07:23:09Z</time>
      </trkpt>
      <trkpt lat="50.928489016368985" lon="15.354033010080457">
        <ele>418.79000000000002</ele>
        <time>2013-09-05T07:23:15Z</time>
      </trkpt>
      <trkpt lat="50.928381979465485" lon="15.353957992047071">
        <ele>419.26999999999998</ele>
        <time>2013-09-05T07:23:16Z</time>
      </trkpt>
      <trkpt lat="50.928279971703887" lon="15.35386897623539">
        <ele>419.26999999999998</ele>
        <time>2013-09-05T07:23:17Z</time>
      </trkpt>
      <trkpt lat="50.927328038960695" lon="15.352831967175007">
        <ele>424.07999999999998</ele>
        <time>2013-09-05T07:23:27Z</time>
      </trkpt>
      <trkpt lat="50.925962962210178" lon="15.351338982582092">
        <ele>430.81</ele>
        <time>2013-09-05T07:23:41Z</time>
      </trkpt>
      <trkpt lat="50.925845028832555" lon="15.351235968992114">
        <ele>430.32999999999998</ele>
        <time>2013-09-05T07:23:42Z</time>
      </trkpt>
      <trkpt lat="50.925708990544081" lon="15.351153993979096">
        <ele>429.85000000000002</ele>
        <time>2013-09-05T07:23:43Z</time>
      </trkpt>
      <trkpt lat="50.925571024417877" lon="15.351090040057898">
        <ele>429.85000000000002</ele>
        <time>2013-09-05T07:23:44Z</time>
      </trkpt>
      <trkpt lat="50.925204986706376" lon="15.350921982899308">
        <ele>429.37</ele>
        <time>2013-09-05T07:23:47Z</time>
      </trkpt>
      <trkpt lat="50.92510599642992" lon="15.350802959874272">
        <ele>429.85000000000002</ele>
        <time>2013-09-05T07:23:48Z</time>
      </trkpt>
      <trkpt lat="50.92501999810338" lon="15.35066700540483">
        <ele>429.85000000000002</ele>
        <time>2013-09-05T07:23:49Z</time>
      </trkpt>
      <trkpt lat="50.92493299394846" lon="15.350526021793485">
        <ele>430.32999999999998</ele>
        <time>2013-09-05T07:23:50Z</time>
      </trkpt>
      <trkpt lat="50.924831992015243" lon="15.350387971848249">
        <ele>430.81</ele>
        <time>2013-09-05T07:23:51Z</time>
      </trkpt>
      <trkpt lat="50.924729984253645" lon="15.350265009328723">
        <ele>431.29000000000002</ele>
        <time>2013-09-05T07:23:52Z</time>
      </trkpt>
      <trkpt lat="50.924549018964171" lon="15.349980024620891">
        <ele>432.25</ele>
        <time>2013-09-05T07:23:54Z</time>
      </trkpt>
      <trkpt lat="50.92448104172945" lon="15.349798975512385">
        <ele>431.76999999999998</ele>
        <time>2013-09-05T07:23:55Z</time>
      </trkpt>
      <trkpt lat="50.924151968210936" lon="15.348858023062348">
        <ele>433.20999999999998</ele>
        <time>2013-09-05T07:24:00Z</time>
      </trkpt>
      <trkpt lat="50.924070999026299" lon="15.348699018359184">
        <ele>433.20999999999998</ele>
        <time>2013-09-05T07:24:01Z</time>
      </trkpt>
      <trkpt lat="50.923184026032686" lon="15.347364032641053">
        <ele>434.64999999999998</ele>
        <time>2013-09-05T07:24:10Z</time>
      </trkpt>
      <trkpt lat="50.923058968037367" lon="15.347274011000991">
        <ele>434.64999999999998</ele>
        <time>2013-09-05T07:24:11Z</time>
      </trkpt>
      <trkpt lat="50.922922007739544" lon="15.347236962988973">
        <ele>434.64999999999998</ele>
        <time>2013-09-05T07:24:12Z</time>
      </trkpt>
      <trkpt lat="50.922770965844393" lon="15.347277028486133">
        <ele>434.64999999999998</ele>
        <time>2013-09-05T07:24:13Z</time>
      </trkpt>
      <trkpt lat="50.922626964747906" lon="15.347279040142894">
        <ele>435.13</ele>
        <time>2013-09-05T07:24:14Z</time>
      </trkpt>
      <trkpt lat="50.922358995303512" lon="15.347264958545566">
        <ele>434.64999999999998</ele>
        <time>2013-09-05T07:24:16Z</time>
      </trkpt>
      <trkpt lat="50.922229997813702" lon="15.347216008231044">
        <ele>435.13</ele>
        <time>2013-09-05T07:24:17Z</time>
      </trkpt>
      <trkpt lat="50.922095971181989" lon="15.347135039046407">
        <ele>435.61000000000001</ele>
        <time>2013-09-05T07:24:18Z</time>
      </trkpt>
      <trkpt lat="50.921978959813714" lon="15.34703403711319">
        <ele>436.10000000000002</ele>
        <time>2013-09-05T07:24:19Z</time>
      </trkpt>
      <trkpt lat="50.921852979809046" lon="15.346931023523211">
        <ele>436.10000000000002</ele>
        <time>2013-09-05T07:24:20Z</time>
      </trkpt>
      <trkpt lat="50.921598002314568" lon="15.346741005778313">
        <ele>436.10000000000002</ele>
        <time>2013-09-05T07:24:22Z</time>
      </trkpt>
      <trkpt lat="50.921006994321942" lon="15.346258962526917">
        <ele>437.54000000000002</ele>
        <time>2013-09-05T07:24:27Z</time>
      </trkpt>
      <trkpt lat="50.920918984338641" lon="15.346102975308895">
        <ele>437.54000000000002</ele>
        <time>2013-09-05T07:24:28Z</time>
      </trkpt>
      <trkpt lat="50.920841032639146" lon="15.345935001969337">
        <ele>438.01999999999998</ele>
        <time>2013-09-05T07:24:29Z</time>
      </trkpt>
      <trkpt lat="50.920494021847844" lon="15.345278028398752">
        <ele>439.45999999999998</ele>
        <time>2013-09-05T07:24:33Z</time>
      </trkpt>
      <trkpt lat="50.920392014086246" lon="15.345149030908942">
        <ele>439.94</ele>
        <time>2013-09-05T07:24:34Z</time>
      </trkpt>
      <trkpt lat="50.920276008546352" lon="15.3450389765203">
        <ele>440.89999999999998</ele>
        <time>2013-09-05T07:24:35Z</time>
      </trkpt>
      <trkpt lat="50.920152040198445" lon="15.344949038699269">
        <ele>441.38</ele>
        <time>2013-09-05T07:24:36Z</time>
      </trkpt>
      <trkpt lat="50.920031005516648" lon="15.344861028715968">
        <ele>441.38</ele>
        <time>2013-09-05T07:24:37Z</time>
      </trkpt>
      <trkpt lat="50.91964703053236" lon="15.344548970460892">
        <ele>442.33999999999997</ele>
        <time>2013-09-05T07:24:40Z</time>
      </trkpt>
      <trkpt lat="50.91954099945724" lon="15.344403963536024">
        <ele>442.81999999999999</ele>
        <time>2013-09-05T07:24:41Z</time>
      </trkpt>
      <trkpt lat="50.919439997524023" lon="15.344245964661241">
        <ele>442.81999999999999</ele>
        <time>2013-09-05T07:24:42Z</time>
      </trkpt>
      <trkpt lat="50.918469959869981" lon="15.342749040573835">
        <ele>444.26999999999998</ele>
        <time>2013-09-05T07:24:52Z</time>
      </trkpt>
      <trkpt lat="50.918118003755808" lon="15.342448968440294">
        <ele>444.75</ele>
        <time>2013-09-05T07:24:55Z</time>
      </trkpt>
      <trkpt lat="50.916853006929159" lon="15.341946976259351">
        <ele>448.58999999999997</ele>
        <time>2013-09-05T07:25:05Z</time>
      </trkpt>
      <trkpt lat="50.915088029578328" lon="15.341920992359519">
        <ele>453.88</ele>
        <time>2013-09-05T07:25:18Z</time>
      </trkpt>
      <trkpt lat="50.913621028885245" lon="15.341096967458725">
        <ele>463.00999999999999</ele>
        <time>2013-09-05T07:25:30Z</time>
      </trkpt>
      <trkpt lat="50.913419025018811" lon="15.340898986905813">
        <ele>463.49000000000001</ele>
        <time>2013-09-05T07:25:32Z</time>
      </trkpt>
      <trkpt lat="50.913339983671904" lon="15.340760014951229">
        <ele>463.97000000000003</ele>
        <time>2013-09-05T07:25:33Z</time>
      </trkpt>
      <trkpt lat="50.913278041407466" lon="15.340598998591304">
        <ele>464.44999999999999</ele>
        <time>2013-09-05T07:25:34Z</time>
      </trkpt>
      <trkpt lat="50.913236970081925" lon="15.340427001938224">
        <ele>464.93000000000001</ele>
        <time>2013-09-05T07:25:35Z</time>
      </trkpt>
      <trkpt lat="50.913222972303629" lon="15.34026900306344">
        <ele>465.89999999999998</ele>
        <time>2013-09-05T07:25:36Z</time>
      </trkpt>
      <trkpt lat="50.913189025595784" lon="15.340128019452095">
        <ele>466.86000000000001</ele>
        <time>2013-09-05T07:25:37Z</time>
      </trkpt>
      <trkpt lat="50.913143008947372" lon="15.340022994205356">
        <ele>467.33999999999997</ele>
        <time>2013-09-05T07:25:38Z</time>
      </trkpt>
      <trkpt lat="50.913074025884271" lon="15.339938001707196">
        <ele>468.30000000000001</ele>
        <time>2013-09-05T07:25:39Z</time>
      </trkpt>
      <trkpt lat="50.91298601590097" lon="15.339909000322223">
        <ele>468.77999999999997</ele>
        <time>2013-09-05T07:25:40Z</time>
      </trkpt>
      <trkpt lat="50.912897000089288" lon="15.339928027242422">
        <ele>468.77999999999997</ele>
        <time>2013-09-05T07:25:41Z</time>
      </trkpt>
      <trkpt lat="50.912813013419509" lon="15.339991981163621">
        <ele>469.25999999999999</ele>
        <time>2013-09-05T07:25:42Z</time>
      </trkpt>
      <trkpt lat="50.912731038406491" lon="15.340068005025387">
        <ele>469.74000000000001</ele>
        <time>2013-09-05T07:25:43Z</time>
      </trkpt>
      <trkpt lat="50.912531968206167" lon="15.340189039707184">
        <ele>468.77999999999997</ele>
        <time>2013-09-05T07:25:45Z</time>
      </trkpt>
      <trkpt lat="50.912415962666273" lon="15.340229021385312">
        <ele>468.77999999999997</ele>
        <time>2013-09-05T07:25:46Z</time>
      </trkpt>
      <trkpt lat="50.91230096295476" lon="15.340257016941905">
        <ele>468.77999999999997</ele>
        <time>2013-09-05T07:25:47Z</time>
      </trkpt>
      <trkpt lat="50.912186969071627" lon="15.340264979749918">
        <ele>468.30000000000001</ele>
        <time>2013-09-05T07:25:48Z</time>
      </trkpt>
      <trkpt lat="50.912072975188494" lon="15.340257016941905">
        <ele>467.81999999999999</ele>
        <time>2013-09-05T07:25:49Z</time>
      </trkpt>
      <trkpt lat="50.911946995183825" lon="15.340229021385312">
        <ele>467.81999999999999</ele>
        <time>2013-09-05T07:25:50Z</time>
      </trkpt>
      <trkpt lat="50.911092041060328" lon="15.340240001678467">
        <ele>467.33999999999997</ele>
        <time>2013-09-05T07:25:57Z</time>
      </trkpt>
      <trkpt lat="50.911000007763505" lon="15.340341003611684">
        <ele>466.86000000000001</ele>
        <time>2013-09-05T07:25:58Z</time>
      </trkpt>
      <trkpt lat="50.910922978073359" lon="15.340456003323197">
        <ele>466.86000000000001</ele>
        <time>2013-09-05T07:25:59Z</time>
      </trkpt>
      <trkpt lat="50.910848965868354" lon="15.340601010248065">
        <ele>466.86000000000001</ele>
        <time>2013-09-05T07:26:00Z</time>
      </trkpt>
      <trkpt lat="50.91077696532011" lon="15.340755991637707">
        <ele>467.33999999999997</ele>
        <time>2013-09-05T07:26:01Z</time>
      </trkpt>
      <trkpt lat="50.910620978102088" lon="15.341068971902132">
        <ele>466.38</ele>
        <time>2013-09-05T07:26:03Z</time>
      </trkpt>
      <trkpt lat="50.91055803000927" lon="15.341225964948535">
        <ele>466.38</ele>
        <time>2013-09-05T07:26:04Z</time>
      </trkpt>
      <trkpt lat="50.910318978130817" lon="15.341910012066364">
        <ele>467.81999999999999</ele>
        <time>2013-09-05T07:26:08Z</time>
      </trkpt>
      <trkpt lat="50.910251000896096" lon="15.342068010941148">
        <ele>467.81999999999999</ele>
        <time>2013-09-05T07:26:09Z</time>
      </trkpt>
      <trkpt lat="50.910171959549189" lon="15.342217041179538">
        <ele>467.81999999999999</ele>
        <time>2013-09-05T07:26:10Z</time>
      </trkpt>
      <trkpt lat="50.910079004243016" lon="15.342346960678697">
        <ele>467.81999999999999</ele>
        <time>2013-09-05T07:26:11Z</time>
      </trkpt>
      <trkpt lat="50.909976996481419" lon="15.342448968440294">
        <ele>468.30000000000001</ele>
        <time>2013-09-05T07:26:12Z</time>
      </trkpt>
      <trkpt lat="50.909868031740189" lon="15.342536978423595">
        <ele>468.77999999999997</ele>
        <time>2013-09-05T07:26:13Z</time>
      </trkpt>
      <trkpt lat="50.909767029806972" lon="15.34263102337718">
        <ele>469.25999999999999</ele>
        <time>2013-09-05T07:26:14Z</time>
      </trkpt>
      <trkpt lat="50.909132016822696" lon="15.343246003612876">
        <ele>472.13999999999999</ele>
        <time>2013-09-05T07:26:20Z</time>
      </trkpt>
      <trkpt lat="50.908565986901522" lon="15.343586979433894">
        <ele>474.55000000000001</ele>
        <time>2013-09-05T07:26:25Z</time>
      </trkpt>
      <trkpt lat="50.907770963385701" lon="15.343862995505333">
        <ele>476.47000000000003</ele>
        <time>2013-09-05T07:26:32Z</time>
      </trkpt>
      <trkpt lat="50.907333008944988" lon="15.343832988291979">
        <ele>479.35000000000002</ele>
        <time>2013-09-05T07:26:36Z</time>
      </trkpt>
      <trkpt lat="50.907108038663864" lon="15.343822007998824">
        <ele>480.80000000000001</ele>
        <time>2013-09-05T07:26:38Z</time>
      </trkpt>
      <trkpt lat="50.906998990103602" lon="15.343851009383798">
        <ele>480.80000000000001</ele>
        <time>2013-09-05T07:26:39Z</time>
      </trkpt>
      <trkpt lat="50.905569959431887" lon="15.344349984079599">
        <ele>474.55000000000001</ele>
        <time>2013-09-05T07:26:51Z</time>
      </trkpt>
      <trkpt lat="50.903575988486409" lon="15.344840995967388">
        <ele>478.38999999999999</ele>
        <time>2013-09-05T07:27:07Z</time>
      </trkpt>
      <trkpt lat="50.902744000777602" lon="15.345238968729973">
        <ele>479.35000000000002</ele>
        <time>2013-09-05T07:27:14Z</time>
      </trkpt>
      <trkpt lat="50.902638975530863" lon="15.345343993976712">
        <ele>479.35000000000002</ele>
        <time>2013-09-05T07:27:15Z</time>
      </trkpt>
      <trkpt lat="50.902553983032703" lon="15.345464022830129">
        <ele>479.83999999999997</ele>
        <time>2013-09-05T07:27:16Z</time>
      </trkpt>
      <trkpt lat="50.902243014425039" lon="15.346039021387696">
        <ele>480.31999999999999</ele>
        <time>2013-09-05T07:27:20Z</time>
      </trkpt>
      <trkpt lat="50.902186017483473" lon="15.346203977242112">
        <ele>479.83999999999997</ele>
        <time>2013-09-05T07:27:21Z</time>
      </trkpt>
      <trkpt lat="50.9021379891783" lon="15.346399024128914">
        <ele>480.31999999999999</ele>
        <time>2013-09-05T07:27:22Z</time>
      </trkpt>
      <trkpt lat="50.902098007500172" lon="15.346575966104865">
        <ele>479.83999999999997</ele>
        <time>2013-09-05T07:27:23Z</time>
      </trkpt>
      <trkpt lat="50.902074035257101" lon="15.346776964142919">
        <ele>479.83999999999997</ele>
        <time>2013-09-05T07:27:24Z</time>
      </trkpt>
      <trkpt lat="50.901648988947272" lon="15.349848009645939">
        <ele>487.05000000000001</ele>
        <time>2013-09-05T07:27:40Z</time>
      </trkpt>
      <trkpt lat="50.901402980089188" lon="15.350708998739719">
        <ele>488.97000000000003</ele>
        <time>2013-09-05T07:27:45Z</time>
      </trkpt>
      <trkpt lat="50.901341959834099" lon="15.350879989564419">
        <ele>491.37</ele>
        <time>2013-09-05T07:27:46Z</time>
      </trkpt>
      <trkpt lat="50.900086015462875" lon="15.3531379904598">
        <ele>500.5</ele>
        <time>2013-09-05T07:28:01Z</time>
      </trkpt>
      <trkpt lat="50.898865023627877" lon="15.355428010225296">
        <ele>506.26999999999998</ele>
        <time>2013-09-05T07:28:15Z</time>
      </trkpt>
      <trkpt lat="50.898346016183496" lon="15.357403960078955">
        <ele>504.35000000000002</ele>
        <time>2013-09-05T07:28:25Z</time>
      </trkpt>
      <trkpt lat="50.89797000400722" lon="15.359364990144968">
        <ele>501.94999999999999</ele>
        <time>2013-09-05T07:28:35Z</time>
      </trkpt>
      <trkpt lat="50.897499024868011" lon="15.361016979441047">
        <ele>503.38999999999999</ele>
        <time>2013-09-05T07:28:44Z</time>
      </trkpt>
      <trkpt lat="50.896584978327155" lon="15.362788997590542">
        <ele>504.82999999999998</ele>
        <time>2013-09-05T07:28:55Z</time>
      </trkpt>
      <trkpt lat="50.895344959571958" lon="15.365885021165013">
        <ele>513</ele>
        <time>2013-09-05T07:29:13Z</time>
      </trkpt>
      <trkpt lat="50.8945950306952" lon="15.367310028523207">
        <ele>516.85000000000002</ele>
        <time>2013-09-05T07:29:22Z</time>
      </trkpt>
      <trkpt lat="50.894009973853827" lon="15.369171984493732">
        <ele>520.21000000000004</ele>
        <time>2013-09-05T07:29:32Z</time>
      </trkpt>
      <trkpt lat="50.893208999186754" lon="15.371088003739715">
        <ele>524.53999999999996</ele>
        <time>2013-09-05T07:29:43Z</time>
      </trkpt>
      <trkpt lat="50.892558982595801" lon="15.372128030285239">
        <ele>529.82000000000005</ele>
        <time>2013-09-05T07:29:50Z</time>
      </trkpt>
      <trkpt lat="50.892458986490965" lon="15.372272031381726">
        <ele>530.29999999999995</ele>
        <time>2013-09-05T07:29:51Z</time>
      </trkpt>
      <trkpt lat="50.89158701710403" lon="15.373841039836407">
        <ele>538.96000000000004</ele>
        <time>2013-09-05T07:30:00Z</time>
      </trkpt>
      <trkpt lat="50.890704989433289" lon="15.375813972204924">
        <ele>540.39999999999998</ele>
        <time>2013-09-05T07:30:08Z</time>
      </trkpt>
      <trkpt lat="50.890518995001912" lon="15.376674039289355">
        <ele>539.91999999999996</ele>
        <time>2013-09-05T07:30:11Z</time>
      </trkpt>
      <trkpt lat="50.890197968110442" lon="15.3795659635216">
        <ele>538.48000000000002</ele>
        <time>2013-09-05T07:30:21Z</time>
      </trkpt>
      <trkpt lat="50.890033012256026" lon="15.380329973995686">
        <ele>539.44000000000005</ele>
        <time>2013-09-05T07:30:24Z</time>
      </trkpt>
      <trkpt lat="50.889937961474061" lon="15.380568020045757">
        <ele>539.91999999999996</ele>
        <time>2013-09-05T07:30:25Z</time>
      </trkpt>
      <trkpt lat="50.889822961762547" lon="15.380791984498501">
        <ele>540.39999999999998</ele>
        <time>2013-09-05T07:30:26Z</time>
      </trkpt>
      <trkpt lat="50.888553019613028" lon="15.382783021777868">
        <ele>541.84000000000003</ele>
        <time>2013-09-05T07:30:35Z</time>
      </trkpt>
      <trkpt lat="50.886673964560032" lon="15.385738983750343">
        <ele>546.16999999999996</ele>
        <time>2013-09-05T07:30:48Z</time>
      </trkpt>
      <trkpt lat="50.886556031182408" lon="15.385994967073202">
        <ele>546.64999999999998</ele>
        <time>2013-09-05T07:30:49Z</time>
      </trkpt>
      <trkpt lat="50.886454023420811" lon="15.38626603782177">
        <ele>547.61000000000001</ele>
        <time>2013-09-05T07:30:50Z</time>
      </trkpt>
      <trkpt lat="50.886391997337341" lon="15.38657097145915">
        <ele>548.57000000000005</ele>
        <time>2013-09-05T07:30:51Z</time>
      </trkpt>
      <trkpt lat="50.88632402010262" lon="15.386867020279169">
        <ele>549.52999999999997</ele>
        <time>2013-09-05T07:30:52Z</time>
      </trkpt>
      <trkpt lat="50.886269034817815" lon="15.38716902025044">
        <ele>550.00999999999999</ele>
        <time>2013-09-05T07:30:53Z</time>
      </trkpt>
      <trkpt lat="50.886215977370739" lon="15.387474959716201">
        <ele>550.00999999999999</ele>
        <time>2013-09-05T07:30:54Z</time>
      </trkpt>
      <trkpt lat="50.885897967964411" lon="15.389973018318415">
        <ele>554.82000000000005</ele>
        <time>2013-09-05T07:31:02Z</time>
      </trkpt>
      <trkpt lat="50.885166982188821" lon="15.392650030553341">
        <ele>572.60000000000002</ele>
        <time>2013-09-05T07:31:11Z</time>
      </trkpt>
      <trkpt lat="50.883992007002234" lon="15.396365979686379">
        <ele>590.38999999999999</ele>
        <time>2013-09-05T07:31:24Z</time>
      </trkpt>
      <trkpt lat="50.883570984005928" lon="15.397802973166108">
        <ele>594.71000000000004</ele>
        <time>2013-09-05T07:31:29Z</time>
      </trkpt>
      <trkpt lat="50.883453972637653" lon="15.398071026429534">
        <ele>595.19000000000005</ele>
        <time>2013-09-05T07:31:30Z</time>
      </trkpt>
      <trkpt lat="50.88333897292614" lon="15.398341007530689">
        <ele>596.63999999999999</ele>
        <time>2013-09-05T07:31:31Z</time>
      </trkpt>
      <trkpt lat="50.882642017677426" lon="15.399471977725625">
        <ele>601.44000000000005</ele>
        <time>2013-09-05T07:31:36Z</time>
      </trkpt>
      <trkpt lat="50.881316000595689" lon="15.400979965925217">
        <ele>606.73000000000002</ele>
        <time>2013-09-05T07:31:44Z</time>
      </trkpt>
      <trkpt lat="50.881167976185679" lon="15.401212982833385">
        <ele>606.73000000000002</ele>
        <time>2013-09-05T07:31:45Z</time>
      </trkpt>
      <trkpt lat="50.881059011444449" lon="15.401493022218347">
        <ele>608.16999999999996</ele>
        <time>2013-09-05T07:31:46Z</time>
      </trkpt>
      <trkpt lat="50.880627008154988" lon="15.403310973197222">
        <ele>606.25</ele>
        <time>2013-09-05T07:31:52Z</time>
      </trkpt>
      <trkpt lat="50.880154017359018" lon="15.406088987365365">
        <ele>609.13</ele>
        <time>2013-09-05T07:32:01Z</time>
      </trkpt>
      <trkpt lat="50.880038011819124" lon="15.406345976516604">
        <ele>610.09000000000003</ele>
        <time>2013-09-05T07:32:02Z</time>
      </trkpt>
      <trkpt lat="50.879913037642837" lon="15.406595002859831">
        <ele>610.09000000000003</ele>
        <time>2013-09-05T07:32:03Z</time>
      </trkpt>
      <trkpt lat="50.879778005182743" lon="15.406825002282858">
        <ele>611.05999999999995</ele>
        <time>2013-09-05T07:32:04Z</time>
      </trkpt>
      <trkpt lat="50.879631992429495" lon="15.407035974785686">
        <ele>610.57000000000005</ele>
        <time>2013-09-05T07:32:05Z</time>
      </trkpt>
      <trkpt lat="50.879477011039853" lon="15.40723797865212">
        <ele>610.57000000000005</ele>
        <time>2013-09-05T07:32:06Z</time>
      </trkpt>
      <trkpt lat="50.879307026043534" lon="15.4074099753052">
        <ele>610.57000000000005</ele>
        <time>2013-09-05T07:32:07Z</time>
      </trkpt>
      <trkpt lat="50.879132011905313" lon="15.407564034685493">
        <ele>611.53999999999996</ele>
        <time>2013-09-05T07:32:08Z</time>
      </trkpt>
      <trkpt lat="50.878950962796807" lon="15.407704012468457">
        <ele>612.01999999999998</ele>
        <time>2013-09-05T07:32:09Z</time>
      </trkpt>
      <trkpt lat="50.877464013174176" lon="15.408773962408304">
        <ele>620.19000000000005</ele>
        <time>2013-09-05T07:32:17Z</time>
      </trkpt>
      <trkpt lat="50.87730199098587" lon="15.408974960446358">
        <ele>620.19000000000005</ele>
        <time>2013-09-05T07:32:18Z</time>
      </trkpt>
      <trkpt lat="50.875787967815995" lon="15.411291969940066">
        <ele>628.36000000000001</ele>
        <time>2013-09-05T07:32:28Z</time>
      </trkpt>
      <trkpt lat="50.874404031783342" lon="15.413742000237107">
        <ele>639.40999999999997</ele>
        <time>2013-09-05T07:32:38Z</time>
      </trkpt>
      <trkpt lat="50.873524015769362" lon="15.41712099686265">
        <ele>649.50999999999999</ele>
        <time>2013-09-05T07:32:49Z</time>
      </trkpt>
      <trkpt lat="50.872632013633847" lon="15.420120041817427">
        <ele>660.08000000000004</ele>
        <time>2013-09-05T07:32:59Z</time>
      </trkpt>
      <trkpt lat="50.871685026213527" lon="15.423168037086725">
        <ele>674.5</ele>
        <time>2013-09-05T07:33:09Z</time>
      </trkpt>
      <trkpt lat="50.870974995195866" lon="15.426741996780038">
        <ele>692.28999999999996</ele>
        <time>2013-09-05T07:33:20Z</time>
      </trkpt>
      <trkpt lat="50.870147030800581" lon="15.429806001484394">
        <ele>707.19000000000005</ele>
        <time>2013-09-05T07:33:30Z</time>
      </trkpt>
      <trkpt lat="50.869014970958233" lon="15.434227036312222">
        <ele>722.57000000000005</ele>
        <time>2013-09-05T07:33:44Z</time>
      </trkpt>
      <trkpt lat="50.867892969399691" lon="15.438553020358086">
        <ele>740.35000000000002</ele>
        <time>2013-09-05T07:33:58Z</time>
      </trkpt>
      <trkpt lat="50.86690197698772" lon="15.442380029708147">
        <ele>754.28999999999996</ele>
        <time>2013-09-05T07:34:10Z</time>
      </trkpt>
      <trkpt lat="50.865875026211143" lon="15.446216007694602">
        <ele>768.71000000000004</ele>
        <time>2013-09-05T07:34:22Z</time>
      </trkpt>
      <trkpt lat="50.865014959126711" lon="15.447869002819061">
        <ele>770.63</ele>
        <time>2013-09-05T07:34:29Z</time>
      </trkpt>
      <trkpt lat="50.863062981516123" lon="15.45066000893712">
        <ele>767.26999999999998</ele>
        <time>2013-09-05T07:34:41Z</time>
      </trkpt>
      <trkpt lat="50.861430019140244" lon="15.453036027029157">
        <ele>767.26999999999998</ele>
        <time>2013-09-05T07:34:51Z</time>
      </trkpt>
      <trkpt lat="50.859995959326625" lon="15.455182967707515">
        <ele>772.55999999999995</ele>
        <time>2013-09-05T07:35:00Z</time>
      </trkpt>
      <trkpt lat="50.859377039596438" lon="15.457020029425621">
        <ele>774.96000000000004</ele>
        <time>2013-09-05T07:35:06Z</time>
      </trkpt>
      <trkpt lat="50.8583739772439" lon="15.461667962372303">
        <ele>773.03999999999996</ele>
        <time>2013-09-05T07:35:20Z</time>
      </trkpt>
      <trkpt lat="50.857694037258625" lon="15.464548990130424">
        <ele>770.63</ele>
        <time>2013-09-05T07:35:29Z</time>
      </trkpt>
      <trkpt lat="50.857351971790195" lon="15.467104967683554">
        <ele>772.08000000000004</ele>
        <time>2013-09-05T07:35:37Z</time>
      </trkpt>
      <trkpt lat="50.85719296708703" lon="15.469789020717144">
        <ele>773.51999999999998</ele>
        <time>2013-09-05T07:35:45Z</time>
      </trkpt>
      <trkpt lat="50.856753000989556" lon="15.473116971552372">
        <ele>774.96000000000004</ele>
        <time>2013-09-05T07:35:55Z</time>
      </trkpt>
      <trkpt lat="50.85641898214817" lon="15.47532401047647">
        <ele>775.44000000000005</ele>
        <time>2013-09-05T07:36:04Z</time>
      </trkpt>
      <trkpt lat="50.856129974126816" lon="15.477505987510085">
        <ele>777.84000000000003</ele>
        <time>2013-09-05T07:36:13Z</time>
      </trkpt>
      <trkpt lat="50.855853036046028" lon="15.479424018412828">
        <ele>780.25</ele>
        <time>2013-09-05T07:36:19Z</time>
      </trkpt>
      <trkpt lat="50.855617001652718" lon="15.482169007882476">
        <ele>778.80999999999995</ele>
        <time>2013-09-05T07:36:27Z</time>
      </trkpt>
      <trkpt lat="50.855325981974602" lon="15.485862996429205">
        <ele>778.32000000000005</ele>
        <time>2013-09-05T07:36:38Z</time>
      </trkpt>
      <trkpt lat="50.855022976174951" lon="15.489494958892465">
        <ele>782.64999999999998</ele>
        <time>2013-09-05T07:36:49Z</time>
      </trkpt>
      <trkpt lat="50.855057006701827" lon="15.492430971935391">
        <ele>783.61000000000001</ele>
        <time>2013-09-05T07:36:58Z</time>
      </trkpt>
      <trkpt lat="50.855209976434708" lon="15.494703976437449">
        <ele>785.04999999999995</ele>
        <time>2013-09-05T07:37:05Z</time>
      </trkpt>
      <trkpt lat="50.855178963392973" lon="15.495028020814061">
        <ele>786.01999999999998</ele>
        <time>2013-09-05T07:37:06Z</time>
      </trkpt>
      <trkpt lat="50.85512800142169" lon="15.49534996971488">
        <ele>786.5</ele>
        <time>2013-09-05T07:37:07Z</time>
      </trkpt>
      <trkpt lat="50.854609999805689" lon="15.497838975861669">
        <ele>786.98000000000002</ele>
        <time>2013-09-05T07:37:15Z</time>
      </trkpt>
      <trkpt lat="50.854478990659118" lon="15.498113986104727">
        <ele>785.52999999999997</ele>
        <time>2013-09-05T07:37:16Z</time>
      </trkpt>
      <trkpt lat="50.852853991091251" lon="15.501353004947305">
        <ele>776.88</ele>
        <time>2013-09-05T07:37:28Z</time>
      </trkpt>
      <trkpt lat="50.85192896425724" lon="15.504030017182231">
        <ele>775.91999999999996</ele>
        <time>2013-09-05T07:37:37Z</time>
      </trkpt>
      <trkpt lat="50.85143300704658" lon="15.507027972489595">
        <ele>774.48000000000002</ele>
        <time>2013-09-05T07:37:46Z</time>
      </trkpt>
      <trkpt lat="50.851177023723722" lon="15.510040009394288">
        <ele>776.39999999999998</ele>
        <time>2013-09-05T07:37:55Z</time>
      </trkpt>
      <trkpt lat="50.851011984050274" lon="15.513749001547694">
        <ele>781.69000000000005</ele>
        <time>2013-09-05T07:38:06Z</time>
      </trkpt>
      <trkpt lat="50.850746026262641" lon="15.517082987353206">
        <ele>787.94000000000005</ele>
        <time>2013-09-05T07:38:16Z</time>
      </trkpt>
      <trkpt lat="50.850446037948132" lon="15.520140035077929">
        <ele>789.38</ele>
        <time>2013-09-05T07:38:25Z</time>
      </trkpt>
      <trkpt lat="50.850329026579857" lon="15.522719984874129">
        <ele>789.38</ele>
        <time>2013-09-05T07:38:33Z</time>
      </trkpt>
      <trkpt lat="50.850241016596556" lon="15.522986026480794">
        <ele>787.46000000000004</ele>
        <time>2013-09-05T07:38:34Z</time>
      </trkpt>
      <trkpt lat="50.850149989128113" lon="15.523249972611666">
        <ele>787.94000000000005</ele>
        <time>2013-09-05T07:38:35Z</time>
      </trkpt>
      <trkpt lat="50.849741036072373" lon="15.524636004120111">
        <ele>787.46000000000004</ele>
        <time>2013-09-05T07:38:40Z</time>
      </trkpt>
      <trkpt lat="50.849699964746833" lon="15.524931969121099">
        <ele>787.94000000000005</ele>
        <time>2013-09-05T07:38:41Z</time>
      </trkpt>
      <trkpt lat="50.849668029695749" lon="15.52753203548491">
        <ele>788.41999999999996</ele>
        <time>2013-09-05T07:38:49Z</time>
      </trkpt>
      <trkpt lat="50.849613966420293" lon="15.530006038025022">
        <ele>788.89999999999998</ele>
        <time>2013-09-05T07:38:57Z</time>
      </trkpt>
      <trkpt lat="50.849322024732828" lon="15.531971007585526">
        <ele>789.86000000000001</ele>
        <time>2013-09-05T07:39:05Z</time>
      </trkpt>
      <trkpt lat="50.84939201362431" lon="15.534153990447521">
        <ele>792.25999999999999</ele>
        <time>2013-09-05T07:39:14Z</time>
      </trkpt>
      <trkpt lat="50.849446998909116" lon="15.535457041114569">
        <ele>793.71000000000004</ele>
        <time>2013-09-05T07:39:20Z</time>
      </trkpt>
      <trkpt lat="50.849402993917465" lon="15.535659966990352">
        <ele>794.19000000000005</ele>
        <time>2013-09-05T07:39:21Z</time>
      </trkpt>
      <trkpt lat="50.849328981712461" lon="15.536037990823388">
        <ele>795.14999999999998</ele>
        <time>2013-09-05T07:39:23Z</time>
      </trkpt>
      <trkpt lat="50.849282965064049" lon="15.536200013011694">
        <ele>795.63</ele>
        <time>2013-09-05T07:39:24Z</time>
      </trkpt>
      <trkpt lat="50.849228985607624" lon="15.536333033815026">
        <ele>795.63</ele>
        <time>2013-09-05T07:39:25Z</time>
      </trkpt>
      <trkpt lat="50.849158996716142" lon="15.536409979686141">
        <ele>795.63</ele>
        <time>2013-09-05T07:39:26Z</time>
      </trkpt>
      <trkpt lat="50.849063023924828" lon="15.53640503436327">
        <ele>795.63</ele>
        <time>2013-09-05T07:39:27Z</time>
      </trkpt>
      <trkpt lat="50.84894098341465" lon="15.536297997459769">
        <ele>796.11000000000001</ele>
        <time>2013-09-05T07:39:28Z</time>
      </trkpt>
      <trkpt lat="50.848862025886774" lon="15.536146033555269">
        <ele>796.11000000000001</ele>
        <time>2013-09-05T07:39:29Z</time>
      </trkpt>
      <trkpt lat="50.848797988146544" lon="15.535946041345596">
        <ele>796.59000000000003</ele>
        <time>2013-09-05T07:39:30Z</time>
      </trkpt>
      <trkpt lat="50.848753983154893" lon="15.535753006115556">
        <ele>796.59000000000003</ele>
        <time>2013-09-05T07:39:31Z</time>
      </trkpt>
      <trkpt lat="50.848700003698468" lon="15.535540021955967">
        <ele>796.59000000000003</ele>
        <time>2013-09-05T07:39:32Z</time>
      </trkpt>
      <trkpt lat="50.848640995100141" lon="15.535314967855811">
        <ele>796.59000000000003</ele>
        <time>2013-09-05T07:39:33Z</time>
      </trkpt>
      <trkpt lat="50.848604030907154" lon="15.535094020888209">
        <ele>796.59000000000003</ele>
        <time>2013-09-05T07:39:34Z</time>
      </trkpt>
      <trkpt lat="50.848586009815335" lon="15.534853041172028">
        <ele>797.07000000000005</ele>
        <time>2013-09-05T07:39:35Z</time>
      </trkpt>
      <trkpt lat="50.848563965409994" lon="15.532380966469646">
        <ele>798.02999999999997</ele>
        <time>2013-09-05T07:39:45Z</time>
      </trkpt>
      <trkpt lat="50.848527001217008" lon="15.532126994803548">
        <ele>798.50999999999999</ele>
        <time>2013-09-05T07:39:46Z</time>
      </trkpt>
      <trkpt lat="50.848479978740215" lon="15.53189498372376">
        <ele>798.02999999999997</ele>
        <time>2013-09-05T07:39:47Z</time>
      </trkpt>
      <trkpt lat="50.848422981798649" lon="15.531675964593887">
        <ele>798.50999999999999</ele>
        <time>2013-09-05T07:39:48Z</time>
      </trkpt>
      <trkpt lat="50.847929958254099" lon="15.530188009142876">
        <ele>798.02999999999997</ele>
        <time>2013-09-05T07:39:55Z</time>
      </trkpt>
      <trkpt lat="50.84728597663343" lon="15.528364023193717">
        <ele>795.63</ele>
        <time>2013-09-05T07:40:03Z</time>
      </trkpt>
      <trkpt lat="50.846620034426451" lon="15.526983020827174">
        <ele>788.41999999999996</ele>
        <time>2013-09-05T07:40:10Z</time>
      </trkpt>
      <trkpt lat="50.84539501927793" lon="15.525056021288037">
        <ele>779.28999999999996</ele>
        <time>2013-09-05T07:40:20Z</time>
      </trkpt>
      <trkpt lat="50.84449103102088" lon="15.524350013583899">
        <ele>774.96000000000004</ele>
        <time>2013-09-05T07:40:27Z</time>
      </trkpt>
      <trkpt lat="50.843228967860341" lon="15.523464968428016">
        <ele>761.01999999999998</ele>
        <time>2013-09-05T07:40:37Z</time>
      </trkpt>
      <trkpt lat="50.842953035607934" lon="15.523100020363927">
        <ele>759.10000000000002</ele>
        <time>2013-09-05T07:40:40Z</time>
      </trkpt>
      <trkpt lat="50.841773031279445" lon="15.521022984758019">
        <ele>741.30999999999995</ele>
        <time>2013-09-05T07:40:55Z</time>
      </trkpt>
      <trkpt lat="50.841522999107838" lon="15.520620988681912">
        <ele>739.38999999999999</ele>
        <time>2013-09-05T07:40:58Z</time>
      </trkpt>
      <trkpt lat="50.841180011630058" lon="15.520189991220832">
        <ele>737.47000000000003</ele>
        <time>2013-09-05T07:41:02Z</time>
      </trkpt>
      <trkpt lat="50.839716028422117" lon="15.518857017159462">
        <ele>724.97000000000003</ele>
        <time>2013-09-05T07:41:16Z</time>
      </trkpt>
      <trkpt lat="50.839499020949006" lon="15.518742017447948">
        <ele>724.00999999999999</ele>
        <time>2013-09-05T07:41:18Z</time>
      </trkpt>
      <trkpt lat="50.839386032894254" lon="15.518721984699368">
        <ele>723.52999999999997</ele>
        <time>2013-09-05T07:41:19Z</time>
      </trkpt>
      <trkpt lat="50.839258963242173" lon="15.518736988306046">
        <ele>723.04999999999995</ele>
        <time>2013-09-05T07:41:20Z</time>
      </trkpt>
      <trkpt lat="50.839146981015801" lon="15.518804965540767">
        <ele>722.09000000000003</ele>
        <time>2013-09-05T07:41:21Z</time>
      </trkpt>
      <trkpt lat="50.839041033759713" lon="15.51891703158617">
        <ele>721.13</ele>
        <time>2013-09-05T07:41:22Z</time>
      </trkpt>
      <trkpt lat="50.838951012119651" lon="15.519065978005528">
        <ele>719.20000000000005</ele>
        <time>2013-09-05T07:41:23Z</time>
      </trkpt>
      <trkpt lat="50.838869959115982" lon="15.519233029335737">
        <ele>717.27999999999997</ele>
        <time>2013-09-05T07:41:24Z</time>
      </trkpt>
      <trkpt lat="50.838278029114008" lon="15.520553011447191">
        <ele>708.63</ele>
        <time>2013-09-05T07:41:32Z</time>
      </trkpt>
      <trkpt lat="50.838181972503662" lon="15.520682008937001">
        <ele>707.66999999999996</ele>
        <time>2013-09-05T07:41:33Z</time>
      </trkpt>
      <trkpt lat="50.838072001934052" lon="15.520797008648515">
        <ele>707.19000000000005</ele>
        <time>2013-09-05T07:41:34Z</time>
      </trkpt>
      <trkpt lat="50.837958008050919" lon="15.52089499309659">
        <ele>706.71000000000004</ele>
        <time>2013-09-05T07:41:35Z</time>
      </trkpt>
      <trkpt lat="50.837833033874631" lon="15.520978979766369">
        <ele>706.23000000000002</ele>
        <time>2013-09-05T07:41:36Z</time>
      </trkpt>
      <trkpt lat="50.837699007242918" lon="15.521069001406431">
        <ele>705.75</ele>
        <time>2013-09-05T07:41:37Z</time>
      </trkpt>
      <trkpt lat="50.836175009608269" lon="15.522062005475163">
        <ele>704.77999999999997</ele>
        <time>2013-09-05T07:41:48Z</time>
      </trkpt>
      <trkpt lat="50.835277978330851" lon="15.522579001262784">
        <ele>704.29999999999995</ele>
        <time>2013-09-05T07:41:55Z</time>
      </trkpt>
      <trkpt lat="50.835139006376266" lon="15.522565003484488">
        <ele>704.77999999999997</ele>
        <time>2013-09-05T07:41:56Z</time>
      </trkpt>
      <trkpt lat="50.83501897752285" lon="15.522538013756275">
        <ele>705.25999999999999</ele>
        <time>2013-09-05T07:41:57Z</time>
      </trkpt>
      <trkpt lat="50.834900960326195" lon="15.522491997107863">
        <ele>705.25999999999999</ele>
        <time>2013-09-05T07:41:58Z</time>
      </trkpt>
      <trkpt lat="50.834780009463429" lon="15.522429971024394">
        <ele>705.75</ele>
        <time>2013-09-05T07:41:59Z</time>
      </trkpt>
      <trkpt lat="50.833616014569998" lon="15.521595971658826">
        <ele>707.19000000000005</ele>
        <time>2013-09-05T07:42:09Z</time>
      </trkpt>
      <trkpt lat="50.832208022475243" lon="15.520970011129975">
        <ele>699.98000000000002</ele>
        <time>2013-09-05T07:42:21Z</time>
      </trkpt>
      <trkpt lat="50.832104003056884" lon="15.520922988653183">
        <ele>698.52999999999997</ele>
        <time>2013-09-05T07:42:22Z</time>
      </trkpt>
      <trkpt lat="50.832001995295286" lon="15.520863980054855">
        <ele>698.04999999999995</ele>
        <time>2013-09-05T07:42:23Z</time>
      </trkpt>
      <trkpt lat="50.831726985052228" lon="15.520714027807117">
        <ele>696.13</ele>
        <time>2013-09-05T07:42:26Z</time>
      </trkpt>
      <trkpt lat="50.831648027524352" lon="15.520736994221807">
        <ele>695.64999999999998</ele>
        <time>2013-09-05T07:42:27Z</time>
      </trkpt>
      <trkpt lat="50.831589018926024" lon="15.520801031962037">
        <ele>694.69000000000005</ele>
        <time>2013-09-05T07:42:28Z</time>
      </trkpt>
      <trkpt lat="50.831534033641219" lon="15.520888036116958">
        <ele>694.21000000000004</ele>
        <time>2013-09-05T07:42:29Z</time>
      </trkpt>
      <trkpt lat="50.831490028649569" lon="15.520990965887904">
        <ele>693.73000000000002</ele>
        <time>2013-09-05T07:42:30Z</time>
      </trkpt>
      <trkpt lat="50.831434037536383" lon="15.521080987527966">
        <ele>693.25</ele>
        <time>2013-09-05T07:42:31Z</time>
      </trkpt>
      <trkpt lat="50.831368993967772" lon="15.521142007783055">
        <ele>692.76999999999998</ele>
        <time>2013-09-05T07:42:32Z</time>
      </trkpt>
      <trkpt lat="50.83130001090467" lon="15.521149970591068">
        <ele>691.80999999999995</ele>
        <time>2013-09-05T07:42:33Z</time>
      </trkpt>
      <trkpt lat="50.831247959285975" lon="15.521092973649502">
        <ele>690.84000000000003</ele>
        <time>2013-09-05T07:42:34Z</time>
      </trkpt>
      <trkpt lat="50.831228010356426" lon="15.520994989201427">
        <ele>690.36000000000001</ele>
        <time>2013-09-05T07:42:35Z</time>
      </trkpt>
      <trkpt lat="50.831229016184807" lon="15.5208720266819">
        <ele>689.88</ele>
        <time>2013-09-05T07:42:36Z</time>
      </trkpt>
      <trkpt lat="50.831241002306342" lon="15.520724002271891">
        <ele>689.88</ele>
        <time>2013-09-05T07:42:37Z</time>
      </trkpt>
      <trkpt lat="50.831244019791484" lon="15.520560974255204">
        <ele>689.39999999999998</ele>
        <time>2013-09-05T07:42:38Z</time>
      </trkpt>
      <trkpt lat="50.831278972327709" lon="15.519125992432237">
        <ele>683.63</ele>
        <time>2013-09-05T07:42:46Z</time>
      </trkpt>
      <trkpt lat="50.831309985369444" lon="15.518955001607537">
        <ele>682.66999999999996</ele>
        <time>2013-09-05T07:42:47Z</time>
      </trkpt>
      <trkpt lat="50.831347033381462" lon="15.518789039924741">
        <ele>683.14999999999998</ele>
        <time>2013-09-05T07:42:48Z</time>
      </trkpt>
      <trkpt lat="50.8315350394696" lon="15.518108010292053">
        <ele>679.78999999999996</ele>
        <time>2013-09-05T07:42:52Z</time>
      </trkpt>
      <trkpt lat="50.831720028072596" lon="15.517573999240994">
        <ele>675.94000000000005</ele>
        <time>2013-09-05T07:42:56Z</time>
      </trkpt>
      <trkpt lat="50.831725979223847" lon="15.517479032278061">
        <ele>674.98000000000002</ele>
        <time>2013-09-05T07:42:57Z</time>
      </trkpt>
      <trkpt lat="50.831676023080945" lon="15.517411977052689">
        <ele>674.01999999999998</ele>
        <time>2013-09-05T07:42:58Z</time>
      </trkpt>
      <trkpt lat="50.831637969240546" lon="15.517378030344844">
        <ele>674.5</ele>
        <time>2013-09-05T07:42:59Z</time>
      </trkpt>
      <trkpt lat="50.831586001440883" lon="15.517390016466379">
        <ele>674.5</ele>
        <time>2013-09-05T07:43:00Z</time>
      </trkpt>
      <trkpt lat="50.831521963700652" lon="15.517453970387578">
        <ele>672.10000000000002</ele>
        <time>2013-09-05T07:43:01Z</time>
      </trkpt>
      <trkpt lat="50.831448035314679" lon="15.517544997856021">
        <ele>672.10000000000002</ele>
        <time>2013-09-05T07:43:02Z</time>
      </trkpt>
      <trkpt lat="50.831369999796152" lon="15.517635019496083">
        <ele>670.65999999999997</ele>
        <time>2013-09-05T07:43:03Z</time>
      </trkpt>
      <trkpt lat="50.83121401257813" lon="15.517793018370867">
        <ele>669.22000000000003</ele>
        <time>2013-09-05T07:43:05Z</time>
      </trkpt>
      <trkpt lat="50.831137988716364" lon="15.517850015312433">
        <ele>668.73000000000002</ele>
        <time>2013-09-05T07:43:06Z</time>
      </trkpt>
      <trkpt lat="50.831060037016869" lon="15.5178879853338">
        <ele>667.28999999999996</ele>
        <time>2013-09-05T07:43:07Z</time>
      </trkpt>
      <trkpt lat="50.830973032861948" lon="15.517896031960845">
        <ele>666.80999999999995</ele>
        <time>2013-09-05T07:43:08Z</time>
      </trkpt>
      <trkpt lat="50.830861972644925" lon="15.517848003655672">
        <ele>665.85000000000002</ele>
        <time>2013-09-05T07:43:09Z</time>
      </trkpt>
      <trkpt lat="50.830762982368469" lon="15.517815984785557">
        <ele>664.88999999999999</ele>
        <time>2013-09-05T07:43:10Z</time>
      </trkpt>
      <trkpt lat="50.830559972673655" lon="15.51784498617053">
        <ele>663.45000000000005</ele>
        <time>2013-09-05T07:43:12Z</time>
      </trkpt>
      <trkpt lat="50.830072984099388" lon="15.518041038885713">
        <ele>660.55999999999995</ele>
        <time>2013-09-05T07:43:17Z</time>
      </trkpt>
      <trkpt lat="50.829994026571512" lon="15.518035003915429">
        <ele>660.55999999999995</ele>
        <time>2013-09-05T07:43:18Z</time>
      </trkpt>
      <trkpt lat="50.829930994659662" lon="15.518012959510088">
        <ele>660.08000000000004</ele>
        <time>2013-09-05T07:43:19Z</time>
      </trkpt>
      <trkpt lat="50.829777019098401" lon="15.518001979216933">
        <ele>657.67999999999995</ele>
        <time>2013-09-05T07:43:22Z</time>
      </trkpt>
      <trkpt lat="50.829720022156835" lon="15.518054030835629">
        <ele>657.20000000000005</ele>
        <time>2013-09-05T07:43:23Z</time>
      </trkpt>
      <trkpt lat="50.829660007730126" lon="15.51812200807035">
        <ele>656.72000000000003</ele>
        <time>2013-09-05T07:43:24Z</time>
      </trkpt>
      <trkpt lat="50.829521035775542" lon="15.51827497780323">
        <ele>657.20000000000005</ele>
        <time>2013-09-05T07:43:26Z</time>
      </trkpt>
      <trkpt lat="50.829433025792241" lon="15.518342033028603">
        <ele>657.20000000000005</ele>
        <time>2013-09-05T07:43:27Z</time>
      </trkpt>
      <trkpt lat="50.829079980030656" lon="15.518602039664984">
        <ele>659.60000000000002</ele>
        <time>2013-09-05T07:43:31Z</time>
      </trkpt>
      <trkpt lat="50.828989958390594" lon="15.518643027171493">
        <ele>659.60000000000002</ele>
        <time>2013-09-05T07:43:32Z</time>
      </trkpt>
      <trkpt lat="50.828719977289438" lon="15.518774036318064">
        <ele>658.63999999999999</ele>
        <time>2013-09-05T07:43:35Z</time>
      </trkpt>
      <trkpt lat="50.828470028936863" lon="15.518996994942427">
        <ele>652.87</ele>
        <time>2013-09-05T07:43:38Z</time>
      </trkpt>
      <trkpt lat="50.828377995640039" lon="15.519101014360785">
        <ele>650.95000000000005</ele>
        <time>2013-09-05T07:43:39Z</time>
      </trkpt>
      <trkpt lat="50.827853037044406" lon="15.519839962944388">
        <ele>648.54999999999995</ele>
        <time>2013-09-05T07:43:46Z</time>
      </trkpt>
      <trkpt lat="50.827768966555595" lon="15.519916992634535">
        <ele>648.07000000000005</ele>
        <time>2013-09-05T07:43:47Z</time>
      </trkpt>
      <trkpt lat="50.827099001035094" lon="15.520661976188421">
        <ele>641.34000000000003</ele>
        <time>2013-09-05T07:43:56Z</time>
      </trkpt>
      <trkpt lat="50.827049966901541" lon="15.520783010870218">
        <ele>640.38</ele>
        <time>2013-09-05T07:43:57Z</time>
      </trkpt>
      <trkpt lat="50.826997999101877" lon="15.520906979218125">
        <ele>640.86000000000001</ele>
        <time>2013-09-05T07:43:58Z</time>
      </trkpt>
      <trkpt lat="50.82691702991724" lon="15.521358009427786">
        <ele>639.40999999999997</ele>
        <time>2013-09-05T07:44:01Z</time>
      </trkpt>
      <trkpt lat="50.826901020482183" lon="15.521510979160666">
        <ele>638.92999999999995</ele>
        <time>2013-09-05T07:44:02Z</time>
      </trkpt>
      <trkpt lat="50.826910994946957" lon="15.521679036319256">
        <ele>637.97000000000003</ele>
        <time>2013-09-05T07:44:03Z</time>
      </trkpt>
      <trkpt lat="50.826925998553634" lon="15.521836029365659">
        <ele>637.49000000000001</ele>
        <time>2013-09-05T07:44:04Z</time>
      </trkpt>
      <trkpt lat="50.826948964968324" lon="15.521982964128256">
        <ele>637.00999999999999</ele>
        <time>2013-09-05T07:44:05Z</time>
      </trkpt>
      <trkpt lat="50.826986012980342" lon="15.522121014073491">
        <ele>636.52999999999997</ele>
        <time>2013-09-05T07:44:06Z</time>
      </trkpt>
      <trkpt lat="50.827022977173328" lon="15.522255040705204">
        <ele>637.00999999999999</ele>
        <time>2013-09-05T07:44:07Z</time>
      </trkpt>
      <trkpt lat="50.827580960467458" lon="15.524237025529146">
        <ele>630.27999999999997</ele>
        <time>2013-09-05T07:44:20Z</time>
      </trkpt>
      <trkpt lat="50.827599987387657" lon="15.524397036060691">
        <ele>628.36000000000001</ele>
        <time>2013-09-05T07:44:21Z</time>
      </trkpt>
      <trkpt lat="50.827611973509192" lon="15.524575989693403">
        <ele>627.88</ele>
        <time>2013-09-05T07:44:22Z</time>
      </trkpt>
      <trkpt lat="50.827609039843082" lon="15.524749998003244">
        <ele>626.91999999999996</ele>
        <time>2013-09-05T07:44:23Z</time>
      </trkpt>
      <trkpt lat="50.827586995437741" lon="15.524931969121099">
        <ele>626.44000000000005</ele>
        <time>2013-09-05T07:44:24Z</time>
      </trkpt>
      <trkpt lat="50.827550031244755" lon="15.525114024057984">
        <ele>626.44000000000005</ele>
        <time>2013-09-05T07:44:25Z</time>
      </trkpt>
      <trkpt lat="50.827512983232737" lon="15.52529901266098">
        <ele>625.47000000000003</ele>
        <time>2013-09-05T07:44:26Z</time>
      </trkpt>
      <trkpt lat="50.827395971864462" lon="15.525852972641587">
        <ele>622.11000000000001</ele>
        <time>2013-09-05T07:44:29Z</time>
      </trkpt>
      <trkpt lat="50.82739002071321" lon="15.526057993993163">
        <ele>620.66999999999996</ele>
        <time>2013-09-05T07:44:30Z</time>
      </trkpt>
      <trkpt lat="50.827406030148268" lon="15.526259997859597">
        <ele>620.19000000000005</ele>
        <time>2013-09-05T07:44:31Z</time>
      </trkpt>
      <trkpt lat="50.82743301987648" lon="15.52645898424089">
        <ele>618.75</ele>
        <time>2013-09-05T07:44:32Z</time>
      </trkpt>
      <trkpt lat="50.827471995726228" lon="15.52665201947093">
        <ele>618.75</ele>
        <time>2013-09-05T07:44:33Z</time>
      </trkpt>
      <trkpt lat="50.827508037909865" lon="15.526840025559068">
        <ele>618.25999999999999</ele>
        <time>2013-09-05T07:44:34Z</time>
      </trkpt>
      <trkpt lat="50.82792897708714" lon="15.528614977374673">
        <ele>612.98000000000002</ele>
        <time>2013-09-05T07:44:42Z</time>
      </trkpt>
      <trkpt lat="50.828032996505499" lon="15.530597968026996">
        <ele>608.64999999999998</ele>
        <time>2013-09-05T07:44:49Z</time>
      </trkpt>
      <trkpt lat="50.827816994860768" lon="15.53183002397418">
        <ele>605.76999999999998</ele>
        <time>2013-09-05T07:44:54Z</time>
      </trkpt>
      <trkpt lat="50.827802997082472" lon="15.532065974548459">
        <ele>605.28999999999996</ele>
        <time>2013-09-05T07:44:55Z</time>
      </trkpt>
      <trkpt lat="50.82782001234591" lon="15.532310977578163">
        <ele>604.80999999999995</ele>
        <time>2013-09-05T07:44:56Z</time>
      </trkpt>
      <trkpt lat="50.827868962660432" lon="15.532557992264628">
        <ele>604.80999999999995</ele>
        <time>2013-09-05T07:44:57Z</time>
      </trkpt>
      <trkpt lat="50.827945992350578" lon="15.532793020829558">
        <ele>603.85000000000002</ele>
        <time>2013-09-05T07:44:58Z</time>
      </trkpt>
      <trkpt lat="50.828037019819021" lon="15.533012039959431">
        <ele>603.36000000000001</ele>
        <time>2013-09-05T07:44:59Z</time>
      </trkpt>
      <trkpt lat="50.828142967075109" lon="15.533228041604161">
        <ele>602.88</ele>
        <time>2013-09-05T07:45:00Z</time>
      </trkpt>
      <trkpt lat="50.828255033120513" lon="15.533455023542047">
        <ele>602.39999999999998</ele>
        <time>2013-09-05T07:45:01Z</time>
      </trkpt>
      <trkpt lat="50.829145023599267" lon="15.534984972327948">
        <ele>599.03999999999996</ele>
        <time>2013-09-05T07:45:08Z</time>
      </trkpt>
      <trkpt lat="50.829243008047342" lon="15.535227963700891">
        <ele>599.03999999999996</ele>
        <time>2013-09-05T07:45:09Z</time>
      </trkpt>
      <trkpt lat="50.829290030524135" lon="15.535514960065484">
        <ele>598.08000000000004</ele>
        <time>2013-09-05T07:45:10Z</time>
      </trkpt>
      <trkpt lat="50.829311991110444" lon="15.535789970308542">
        <ele>597.12</ele>
        <time>2013-09-05T07:45:11Z</time>
      </trkpt>
      <trkpt lat="50.829304028302431" lon="15.536069003865123">
        <ele>596.14999999999998</ele>
        <time>2013-09-05T07:45:12Z</time>
      </trkpt>
      <trkpt lat="50.829296987503767" lon="15.536345019936562">
        <ele>595.19000000000005</ele>
        <time>2013-09-05T07:45:13Z</time>
      </trkpt>
      <trkpt lat="50.829215012490749" lon="15.536899985745549">
        <ele>593.26999999999998</ele>
        <time>2013-09-05T07:45:15Z</time>
      </trkpt>
      <trkpt lat="50.829141000285745" lon="15.537164015695453">
        <ele>592.30999999999995</ele>
        <time>2013-09-05T07:45:16Z</time>
      </trkpt>
      <trkpt lat="50.829038992524147" lon="15.537403989583254">
        <ele>591.83000000000004</ele>
        <time>2013-09-05T07:45:17Z</time>
      </trkpt>
      <trkpt lat="50.828918963670731" lon="15.537617979571223">
        <ele>589.90999999999997</ele>
        <time>2013-09-05T07:45:18Z</time>
      </trkpt>
      <trkpt lat="50.828794995322824" lon="15.537819983437657">
        <ele>588.46000000000004</ele>
        <time>2013-09-05T07:45:19Z</time>
      </trkpt>
      <trkpt lat="50.828270958736539" lon="15.538774011656642">
        <ele>581.73000000000002</ele>
        <time>2013-09-05T07:45:24Z</time>
      </trkpt>
      <trkpt lat="50.828216979280114" lon="15.538986995816231">
        <ele>580.76999999999998</ele>
        <time>2013-09-05T07:45:25Z</time>
      </trkpt>
      <trkpt lat="50.828218990936875" lon="15.539215989410877">
        <ele>580.28999999999996</ele>
        <time>2013-09-05T07:45:26Z</time>
      </trkpt>
      <trkpt lat="50.828258972615004" lon="15.539437020197511">
        <ele>579.33000000000004</ele>
        <time>2013-09-05T07:45:27Z</time>
      </trkpt>
      <trkpt lat="50.828309012576938" lon="15.539638018235564">
        <ele>579.33000000000004</ele>
        <time>2013-09-05T07:45:28Z</time>
      </trkpt>
      <trkpt lat="50.828360980376601" lon="15.539826024323702">
        <ele>578.85000000000002</ele>
        <time>2013-09-05T07:45:29Z</time>
      </trkpt>
      <trkpt lat="50.828411020338535" lon="15.540004977956414">
        <ele>578.37</ele>
        <time>2013-09-05T07:45:30Z</time>
      </trkpt>
      <trkpt lat="50.828974032774568" lon="15.541512966156006">
        <ele>572.60000000000002</ele>
        <time>2013-09-05T07:45:38Z</time>
      </trkpt>
      <trkpt lat="50.829497985541821" lon="15.543453963473439">
        <ele>563.47000000000003</ele>
        <time>2013-09-05T07:45:48Z</time>
      </trkpt>
      <trkpt lat="50.829766038805246" lon="15.544400028884411">
        <ele>558.65999999999997</ele>
        <time>2013-09-05T07:45:53Z</time>
      </trkpt>
      <trkpt lat="50.829778024926782" lon="15.544609995558858">
        <ele>557.70000000000005</ele>
        <time>2013-09-05T07:45:54Z</time>
      </trkpt>
      <trkpt lat="50.829782970249653" lon="15.544821973890066">
        <ele>556.74000000000001</ele>
        <time>2013-09-05T07:45:55Z</time>
      </trkpt>
      <trkpt lat="50.829764027148485" lon="15.545028001070023">
        <ele>556.74000000000001</ele>
        <time>2013-09-05T07:45:56Z</time>
      </trkpt>
      <trkpt lat="50.829709963873029" lon="15.545217012986541">
        <ele>555.77999999999997</ele>
        <time>2013-09-05T07:45:57Z</time>
      </trkpt>
      <trkpt lat="50.829621031880379" lon="15.54536503739655">
        <ele>555.29999999999995</ele>
        <time>2013-09-05T07:45:58Z</time>
      </trkpt>
      <trkpt lat="50.829522041603923" lon="15.545482970774174">
        <ele>555.77999999999997</ele>
        <time>2013-09-05T07:45:59Z</time>
      </trkpt>
      <trkpt lat="50.829391032457352" lon="15.545548014342785">
        <ele>554.82000000000005</ele>
        <time>2013-09-05T07:46:00Z</time>
      </trkpt>
      <trkpt lat="50.829258011654019" lon="15.545593025162816">
        <ele>554.34000000000003</ele>
        <time>2013-09-05T07:46:01Z</time>
      </trkpt>
      <trkpt lat="50.829114010557532" lon="15.545596964657307">
        <ele>552.89999999999998</ele>
        <time>2013-09-05T07:46:02Z</time>
      </trkpt>
      <trkpt lat="50.828975038602948" lon="15.545604005455971">
        <ele>551.92999999999995</ele>
        <time>2013-09-05T07:46:03Z</time>
      </trkpt>
      <trkpt lat="50.828848974779248" lon="15.545624038204551">
        <ele>551.92999999999995</ele>
        <time>2013-09-05T07:46:04Z</time>
      </trkpt>
      <trkpt lat="50.828730035573244" lon="15.545678017660975">
        <ele>550.97000000000003</ele>
        <time>2013-09-05T07:46:05Z</time>
      </trkpt>
      <trkpt lat="50.828599026426673" lon="15.545772984623909">
        <ele>551.45000000000005</ele>
        <time>2013-09-05T07:46:06Z</time>
      </trkpt>
      <trkpt lat="50.828480003401637" lon="15.545909022912383">
        <ele>550.49000000000001</ele>
        <time>2013-09-05T07:46:07Z</time>
      </trkpt>
      <trkpt lat="50.828384030610323" lon="15.546090994030237">
        <ele>550.00999999999999</ele>
        <time>2013-09-05T07:46:08Z</time>
      </trkpt>
      <trkpt lat="50.828308006748557" lon="15.546288974583149">
        <ele>548.57000000000005</ele>
        <time>2013-09-05T07:46:09Z</time>
      </trkpt>
      <trkpt lat="50.828265007585287" lon="15.546490978449583">
        <ele>548.09000000000003</ele>
        <time>2013-09-05T07:46:10Z</time>
      </trkpt>
      <trkpt lat="50.82825000397861" lon="15.546713015064597">
        <ele>546.64999999999998</ele>
        <time>2013-09-05T07:46:11Z</time>
      </trkpt>
      <trkpt lat="50.828279005363584" lon="15.546946031972766">
        <ele>545.69000000000005</ele>
        <time>2013-09-05T07:46:12Z</time>
      </trkpt>
      <trkpt lat="50.828334996476769" lon="15.547180976718664">
        <ele>545.69000000000005</ele>
        <time>2013-09-05T07:46:13Z</time>
      </trkpt>
      <trkpt lat="50.828406997025013" lon="15.547399995848536">
        <ele>545.20000000000005</ele>
        <time>2013-09-05T07:46:14Z</time>
      </trkpt>
      <trkpt lat="50.82848796620965" lon="15.547618009150028">
        <ele>545.20000000000005</ele>
        <time>2013-09-05T07:46:15Z</time>
      </trkpt>
      <trkpt lat="50.828656023368239" lon="15.548006007447839">
        <ele>544.24000000000001</ele>
        <time>2013-09-05T07:46:17Z</time>
      </trkpt>
      <trkpt lat="50.828766999766231" lon="15.548154031857848">
        <ele>544.24000000000001</ele>
        <time>2013-09-05T07:46:18Z</time>
      </trkpt>
      <trkpt lat="50.828891973942518" lon="15.548267019912601">
        <ele>543.27999999999997</ele>
        <time>2013-09-05T07:46:19Z</time>
      </trkpt>
      <trkpt lat="50.829060031101108" lon="15.548362992703915">
        <ele>542.79999999999995</ele>
        <time>2013-09-05T07:46:20Z</time>
      </trkpt>
      <trkpt lat="50.829230016097426" lon="15.548433987423778">
        <ele>542.79999999999995</ele>
        <time>2013-09-05T07:46:21Z</time>
      </trkpt>
      <trkpt lat="50.829402012750506" lon="15.548483021557331">
        <ele>542.32000000000005</ele>
        <time>2013-09-05T07:46:22Z</time>
      </trkpt>
      <trkpt lat="50.829580966383219" lon="15.548529960215092">
        <ele>541.84000000000003</ele>
        <time>2013-09-05T07:46:23Z</time>
      </trkpt>
      <trkpt lat="50.830423012375832" lon="15.548822991549969">
        <ele>539.44000000000005</ele>
        <time>2013-09-05T07:46:28Z</time>
      </trkpt>
      <trkpt lat="50.83046299405396" lon="15.548765994608402">
        <ele>539.44000000000005</ele>
        <time>2013-09-05T07:46:29Z</time>
      </trkpt>
      <trkpt lat="50.8305489923805" lon="15.548898009583354">
        <ele>538.96000000000004</ele>
        <time>2013-09-05T07:46:30Z</time>
      </trkpt>
      <trkpt lat="50.830616969615221" lon="15.54910303093493">
        <ele>538.96000000000004</ele>
        <time>2013-09-05T07:46:31Z</time>
      </trkpt>
      <trkpt lat="50.830673966556787" lon="15.54938499815762">
        <ele>538.96000000000004</ele>
        <time>2013-09-05T07:46:32Z</time>
      </trkpt>
      <trkpt lat="50.830767005681992" lon="15.550231989473104">
        <ele>537.99000000000001</ele>
        <time>2013-09-05T07:46:35Z</time>
      </trkpt>
      <trkpt lat="50.830700034275651" lon="15.551694966852665">
        <ele>534.63</ele>
        <time>2013-09-05T07:46:41Z</time>
      </trkpt>
      <trkpt lat="50.830736998468637" lon="15.551951033994555">
        <ele>533.66999999999996</ele>
        <time>2013-09-05T07:46:42Z</time>
      </trkpt>
      <trkpt lat="50.830804975703359" lon="15.55219603702426">
        <ele>534.14999999999998</ele>
        <time>2013-09-05T07:46:43Z</time>
      </trkpt>
      <trkpt lat="50.831459015607834" lon="15.554041983559728">
        <ele>531.26999999999998</ele>
        <time>2013-09-05T07:46:50Z</time>
      </trkpt>
      <trkpt lat="50.831862017512321" lon="15.555792041122913">
        <ele>528.38</ele>
        <time>2013-09-05T07:46:57Z</time>
      </trkpt>
      <trkpt lat="50.831865034997463" lon="15.557455010712147">
        <ele>522.61000000000001</ele>
        <time>2013-09-05T07:47:04Z</time>
      </trkpt>
      <trkpt lat="50.831898981705308" lon="15.557666989043355">
        <ele>521.64999999999998</ele>
        <time>2013-09-05T07:47:05Z</time>
      </trkpt>
      <trkpt lat="50.83196897059679" lon="15.557866981253028">
        <ele>520.69000000000005</ele>
        <time>2013-09-05T07:47:06Z</time>
      </trkpt>
      <trkpt lat="50.832041976973414" lon="15.558044007048011">
        <ele>520.21000000000004</ele>
        <time>2013-09-05T07:47:07Z</time>
      </trkpt>
      <trkpt lat="50.832147002220154" lon="15.558208040893078">
        <ele>519.25</ele>
        <time>2013-09-05T07:47:08Z</time>
      </trkpt>
      <trkpt lat="50.83224699832499" lon="15.558372996747494">
        <ele>518.28999999999996</ele>
        <time>2013-09-05T07:47:09Z</time>
      </trkpt>
      <trkpt lat="50.832464005798101" lon="15.55872998200357">
        <ele>516.85000000000002</ele>
        <time>2013-09-05T07:47:11Z</time>
      </trkpt>
      <trkpt lat="50.833061970770359" lon="15.560269989073277">
        <ele>513.96000000000004</ele>
        <time>2013-09-05T07:47:18Z</time>
      </trkpt>
      <trkpt lat="50.833174958825111" lon="15.560434022918344">
        <ele>513.96000000000004</ele>
        <time>2013-09-05T07:47:19Z</time>
      </trkpt>
      <trkpt lat="50.833336981013417" lon="15.560560002923012">
        <ele>513</ele>
        <time>2013-09-05T07:47:20Z</time>
      </trkpt>
      <trkpt lat="50.833504032343626" lon="15.560652036219835">
        <ele>512.51999999999998</ele>
        <time>2013-09-05T07:47:21Z</time>
      </trkpt>
      <trkpt lat="50.833678962662816" lon="15.560719007626176">
        <ele>511.56</ele>
        <time>2013-09-05T07:47:22Z</time>
      </trkpt>
      <trkpt lat="50.833849031478167" lon="15.560740968212485">
        <ele>511.07999999999998</ele>
        <time>2013-09-05T07:47:23Z</time>
      </trkpt>
      <trkpt lat="50.834025973454118" lon="15.560768041759729">
        <ele>511.07999999999998</ele>
        <time>2013-09-05T07:47:24Z</time>
      </trkpt>
      <trkpt lat="50.834171986207366" lon="15.560721019282937">
        <ele>510.60000000000002</ele>
        <time>2013-09-05T07:47:25Z</time>
      </trkpt>
      <trkpt lat="50.834633996710181" lon="15.560738034546375">
        <ele>509.63999999999999</ele>
        <time>2013-09-05T07:47:28Z</time>
      </trkpt>
      <trkpt lat="50.834771040827036" lon="15.560783967375755">
        <ele>509.16000000000003</ele>
        <time>2013-09-05T07:47:29Z</time>
      </trkpt>
      <trkpt lat="50.834903977811337" lon="15.560935009270906">
        <ele>509.16000000000003</ele>
        <time>2013-09-05T07:47:30Z</time>
      </trkpt>
      <trkpt lat="50.835017971694469" lon="15.561147993430495">
        <ele>508.19</ele>
        <time>2013-09-05T07:47:31Z</time>
      </trkpt>
      <trkpt lat="50.835105981677771" lon="15.561376987025142">
        <ele>507.70999999999998</ele>
        <time>2013-09-05T07:47:32Z</time>
      </trkpt>
      <trkpt lat="50.835171025246382" lon="15.561603968963027">
        <ele>506.75</ele>
        <time>2013-09-05T07:47:33Z</time>
      </trkpt>
      <trkpt lat="50.835188962519169" lon="15.56182399392128">
        <ele>505.79000000000002</ele>
        <time>2013-09-05T07:47:34Z</time>
      </trkpt>
      <trkpt lat="50.83518804050982" lon="15.561986016109586">
        <ele>503.38999999999999</ele>
        <time>2013-09-05T07:47:35Z</time>
      </trkpt>
      <trkpt lat="50.835163984447718" lon="15.562128005549312">
        <ele>502.91000000000003</ele>
        <time>2013-09-05T07:47:36Z</time>
      </trkpt>
      <trkpt lat="50.835136994719505" lon="15.56212599389255">
        <ele>498.10000000000002</ele>
        <time>2013-09-05T07:47:37Z</time>
      </trkpt>
      <trkpt lat="50.835106987506151" lon="15.56216899305582">
        <ele>496.18000000000001</ele>
        <time>2013-09-05T07:47:38Z</time>
      </trkpt>
      <trkpt lat="50.835015038028359" lon="15.562304025515914">
        <ele>491.85000000000002</ele>
        <time>2013-09-05T07:47:48Z</time>
      </trkpt>
      <trkpt lat="50.834960974752903" lon="15.562287010252476">
        <ele>490.41000000000003</ele>
        <time>2013-09-05T07:48:09Z</time>
      </trkpt>
      <trkpt lat="50.834964998066425" lon="15.562286004424095">
        <ele>490.41000000000003</ele>
        <time>2013-09-05T07:49:31Z</time>
      </trkpt>
      <trkpt lat="50.834969021379948" lon="15.562287010252476">
        <ele>490.41000000000003</ele>
        <time>2013-09-05T07:51:15Z</time>
      </trkpt>
      <trkpt lat="50.834970027208328" lon="15.562292039394379">
        <ele>490.41000000000003</ele>
        <time>2013-09-05T07:52:48Z</time>
      </trkpt>
      <trkpt lat="50.834971033036709" lon="15.562294973060489">
        <ele>490.41000000000003</ele>
        <time>2013-09-05T07:54:08Z</time>
      </trkpt>
      <trkpt lat="50.834976984187961" lon="15.562323974445462">
        <ele>490.41000000000003</ele>
        <time>2013-09-05T07:54:09Z</time>
      </trkpt>
      <trkpt lat="50.834971033036709" lon="15.562389018014073">
        <ele>490.41000000000003</ele>
        <time>2013-09-05T07:54:11Z</time>
      </trkpt>
      <trkpt lat="50.834946976974607" lon="15.56244702078402">
        <ele>490.41000000000003</ele>
        <time>2013-09-05T07:54:12Z</time>
      </trkpt>
      <trkpt lat="50.834896015003324" lon="15.562798976898193">
        <ele>490.41000000000003</ele>
        <time>2013-09-05T07:54:15Z</time>
      </trkpt>
      <trkpt lat="50.834904983639717" lon="15.563175994902849">
        <ele>490.41000000000003</ele>
        <time>2013-09-05T07:54:17Z</time>
      </trkpt>
      <trkpt lat="50.834925016388297" lon="15.563602969050407">
        <ele>490.41000000000003</ele>
        <time>2013-09-05T07:54:19Z</time>
      </trkpt>
      <trkpt lat="50.834947982802987" lon="15.563829028978944">
        <ele>490.41000000000003</ele>
        <time>2013-09-05T07:54:20Z</time>
      </trkpt>
      <trkpt lat="50.835122996941209" lon="15.564971985295415">
        <ele>491.37</ele>
        <time>2013-09-05T07:54:25Z</time>
      </trkpt>
      <trkpt lat="50.835228022187948" lon="15.565365012735128">
        <ele>491.37</ele>
        <time>2013-09-05T07:54:27Z</time>
      </trkpt>
      <trkpt lat="50.835328018292785" lon="15.565603980794549">
        <ele>491.37</ele>
        <time>2013-09-05T07:54:28Z</time>
      </trkpt>
      <trkpt lat="50.835933024063706" lon="15.566972997039557">
        <ele>490.88999999999999</ele>
        <time>2013-09-05T07:54:35Z</time>
      </trkpt>
      <trkpt lat="50.835999995470047" lon="15.567184975370765">
        <ele>491.37</ele>
        <time>2013-09-05T07:54:36Z</time>
      </trkpt>
      <trkpt lat="50.836047017946839" lon="15.567397037521005">
        <ele>491.37</ele>
        <time>2013-09-05T07:54:37Z</time>
      </trkpt>
      <trkpt lat="50.836078030988574" lon="15.567614967003465">
        <ele>491.37</ele>
        <time>2013-09-05T07:54:38Z</time>
      </trkpt>
      <trkpt lat="50.836074007675052" lon="15.567842032760382">
        <ele>491.85000000000002</ele>
        <time>2013-09-05T07:54:39Z</time>
      </trkpt>
      <trkpt lat="50.836060009896755" lon="15.568062979727983">
        <ele>491.37</ele>
        <time>2013-09-05T07:54:40Z</time>
      </trkpt>
      <trkpt lat="50.836065961048007" lon="15.568257020786405">
        <ele>491.37</ele>
        <time>2013-09-05T07:54:41Z</time>
      </trkpt>
      <trkpt lat="50.836047017946839" lon="15.568431029096246">
        <ele>491.85000000000002</ele>
        <time>2013-09-05T07:54:42Z</time>
      </trkpt>
      <trkpt lat="50.836044000461698" lon="15.568626997992396">
        <ele>492.32999999999998</ele>
        <time>2013-09-05T07:54:43Z</time>
      </trkpt>
      <trkpt lat="50.836056992411613" lon="15.568818021565676">
        <ele>492.32999999999998</ele>
        <time>2013-09-05T07:54:44Z</time>
      </trkpt>
      <trkpt lat="50.836082976311445" lon="15.569004015997052">
        <ele>492.32999999999998</ele>
        <time>2013-09-05T07:54:45Z</time>
      </trkpt>
      <trkpt lat="50.836129998788238" lon="15.569175006821752">
        <ele>492.81</ele>
        <time>2013-09-05T07:54:46Z</time>
      </trkpt>
      <trkpt lat="50.836192024871707" lon="15.569327976554632">
        <ele>493.29000000000002</ele>
        <time>2013-09-05T07:54:47Z</time>
      </trkpt>
      <trkpt lat="50.836269976571202" lon="15.56945001706481">
        <ele>494.25999999999999</ele>
        <time>2013-09-05T07:54:48Z</time>
      </trkpt>
      <trkpt lat="50.836368966847658" lon="15.569549007341266">
        <ele>495.22000000000003</ele>
        <time>2013-09-05T07:54:49Z</time>
      </trkpt>
      <trkpt lat="50.836473992094398" lon="15.569612961262465">
        <ele>496.18000000000001</ele>
        <time>2013-09-05T07:54:50Z</time>
      </trkpt>
      <trkpt lat="50.836588991805911" lon="15.569640034809709">
        <ele>497.13999999999999</ele>
        <time>2013-09-05T07:54:51Z</time>
      </trkpt>
      <trkpt lat="50.836684964597225" lon="15.569609021767974">
        <ele>497.62</ele>
        <time>2013-09-05T07:54:52Z</time>
      </trkpt>
      <trkpt lat="50.836768029257655" lon="15.569501984864473">
        <ele>498.57999999999998</ele>
        <time>2013-09-05T07:54:53Z</time>
      </trkpt>
      <trkpt lat="50.836856039240956" lon="15.56936502456665">
        <ele>499.06</ele>
        <time>2013-09-05T07:54:54Z</time>
      </trkpt>
      <trkpt lat="50.83697497844696" lon="15.569269973784685">
        <ele>499.54000000000002</ele>
        <time>2013-09-05T07:54:55Z</time>
      </trkpt>
      <trkpt lat="50.837067011743784" lon="15.569119015708566">
        <ele>500.01999999999998</ele>
        <time>2013-09-05T07:54:56Z</time>
      </trkpt>
      <trkpt lat="50.837590964511037" lon="15.568395992740989">
        <ele>500.5</ele>
        <time>2013-09-05T07:55:01Z</time>
      </trkpt>
      <trkpt lat="50.837877038866282" lon="15.568174039945006">
        <ele>499.54000000000002</ele>
        <time>2013-09-05T07:55:03Z</time>
      </trkpt>
      <trkpt lat="50.839148992672563" lon="15.567306010052562">
        <ele>487.05000000000001</ele>
        <time>2013-09-05T07:55:12Z</time>
      </trkpt>
      <trkpt lat="50.840672990307212" lon="15.566920023411512">
        <ele>484.63999999999999</ele>
        <time>2013-09-05T07:55:23Z</time>
      </trkpt>
      <trkpt lat="50.84081799723208" lon="15.566965034231544">
        <ele>484.16000000000003</ele>
        <time>2013-09-05T07:55:24Z</time>
      </trkpt>
      <trkpt lat="50.842144014313817" lon="15.567734995856881">
        <ele>483.19999999999999</ele>
        <time>2013-09-05T07:55:34Z</time>
      </trkpt>
      <trkpt lat="50.843337010592222" lon="15.568127017468214">
        <ele>480.31999999999999</ele>
        <time>2013-09-05T07:55:42Z</time>
      </trkpt>
      <trkpt lat="50.844581974670291" lon="15.568714002147317">
        <ele>479.83999999999997</ele>
        <time>2013-09-05T07:55:51Z</time>
      </trkpt>
      <trkpt lat="50.846025003120303" lon="15.569664007052779">
        <ele>473.58999999999997</ele>
        <time>2013-09-05T07:56:01Z</time>
      </trkpt>
      <trkpt lat="50.847615972161293" lon="15.570808975026011">
        <ele>462.05000000000001</ele>
        <time>2013-09-05T07:56:11Z</time>
      </trkpt>
      <trkpt lat="50.848864037543535" lon="15.571576002985239">
        <ele>445.70999999999998</ele>
        <time>2013-09-05T07:56:20Z</time>
      </trkpt>
      <trkpt lat="50.849616983905435" lon="15.572154019027948">
        <ele>433.69</ele>
        <time>2013-09-05T07:56:28Z</time>
      </trkpt>
      <trkpt lat="50.84965000860393" lon="15.572244040668011">
        <ele>432.73000000000002</ele>
        <time>2013-09-05T07:56:29Z</time>
      </trkpt>
      <trkpt lat="50.849643973633647" lon="15.57235099375248">
        <ele>432.25</ele>
        <time>2013-09-05T07:56:30Z</time>
      </trkpt>
      <trkpt lat="50.84960600361228" lon="15.572683000937104">
        <ele>428.88999999999999</ele>
        <time>2013-09-05T07:56:33Z</time>
      </trkpt>
      <trkpt lat="50.849722009152174" lon="15.573825035244226">
        <ele>424.07999999999998</ele>
        <time>2013-09-05T07:56:40Z</time>
      </trkpt>
      <trkpt lat="50.849713962525129" lon="15.573998037725687">
        <ele>423.60000000000002</ele>
        <time>2013-09-05T07:56:41Z</time>
      </trkpt>
      <trkpt lat="50.849694013595581" lon="15.574175985530019">
        <ele>423.12</ele>
        <time>2013-09-05T07:56:42Z</time>
      </trkpt>
      <trkpt lat="50.849660988897085" lon="15.574346976354718">
        <ele>422.16000000000003</ele>
        <time>2013-09-05T07:56:43Z</time>
      </trkpt>
      <trkpt lat="50.849615978077054" lon="15.574506986886263">
        <ele>421.19</ele>
        <time>2013-09-05T07:56:44Z</time>
      </trkpt>
      <trkpt lat="50.849551018327475" lon="15.574658028781414">
        <ele>420.70999999999998</ele>
        <time>2013-09-05T07:56:45Z</time>
      </trkpt>
      <trkpt lat="50.849470971152186" lon="15.574792977422476">
        <ele>420.23000000000002</ele>
        <time>2013-09-05T07:56:46Z</time>
      </trkpt>
      <trkpt lat="50.849382961168885" lon="15.574913006275892">
        <ele>419.26999999999998</ele>
        <time>2013-09-05T07:56:47Z</time>
      </trkpt>
      <trkpt lat="50.848743002861738" lon="15.575765026733279">
        <ele>414.94999999999999</ele>
        <time>2013-09-05T07:56:54Z</time>
      </trkpt>
      <trkpt lat="50.848527001217008" lon="15.57593802921474">
        <ele>413.01999999999998</ele>
        <time>2013-09-05T07:56:56Z</time>
      </trkpt>
      <trkpt lat="50.848202034831047" lon="15.576135003939271">
        <ele>411.57999999999998</ele>
        <time>2013-09-05T07:56:59Z</time>
      </trkpt>
      <trkpt lat="50.848116036504507" lon="15.576252015307546">
        <ele>411.57999999999998</ele>
        <time>2013-09-05T07:57:00Z</time>
      </trkpt>
      <trkpt lat="50.848036995157599" lon="15.576379001140594">
        <ele>411.10000000000002</ele>
        <time>2013-09-05T07:57:01Z</time>
      </trkpt>
      <trkpt lat="50.847976980730891" lon="15.576528031378984">
        <ele>410.62</ele>
        <time>2013-09-05T07:57:02Z</time>
      </trkpt>
      <trkpt lat="50.847926018759608" lon="15.576688963919878">
        <ele>410.62</ele>
        <time>2013-09-05T07:57:03Z</time>
      </trkpt>
      <trkpt lat="50.847878996282816" lon="15.576857021078467">
        <ele>410.62</ele>
        <time>2013-09-05T07:57:04Z</time>
      </trkpt>
      <trkpt lat="50.847588982433081" lon="15.578071977943182">
        <ele>407.74000000000001</ele>
        <time>2013-09-05T07:57:11Z</time>
      </trkpt>
      <trkpt lat="50.847574984654784" lon="15.578243974596262">
        <ele>408.22000000000003</ele>
        <time>2013-09-05T07:57:12Z</time>
      </trkpt>
      <trkpt lat="50.847575990483165" lon="15.578413037583232">
        <ele>408.22000000000003</ele>
        <time>2013-09-05T07:57:13Z</time>
      </trkpt>
      <trkpt lat="50.847729966044426" lon="15.579375028610229">
        <ele>405.81</ele>
        <time>2013-09-05T07:57:19Z</time>
      </trkpt>
      <trkpt lat="50.847786962985992" lon="15.579501008614898">
        <ele>404.85000000000002</ele>
        <time>2013-09-05T07:57:20Z</time>
      </trkpt>
      <trkpt lat="50.847859969362617" lon="15.579606033861637">
        <ele>405.32999999999998</ele>
        <time>2013-09-05T07:57:21Z</time>
      </trkpt>
      <trkpt lat="50.847945967689157" lon="15.579687003046274">
        <ele>405.32999999999998</ele>
        <time>2013-09-05T07:57:22Z</time>
      </trkpt>
      <trkpt lat="50.848040012642741" lon="15.579746011644602">
        <ele>406.29000000000002</ele>
        <time>2013-09-05T07:57:23Z</time>
      </trkpt>
      <trkpt lat="50.848133973777294" lon="15.579792028293014">
        <ele>404.85000000000002</ele>
        <time>2013-09-05T07:57:24Z</time>
      </trkpt>
      <trkpt lat="50.848214020952582" lon="15.579867968335748">
        <ele>403.88999999999999</ele>
        <time>2013-09-05T07:57:25Z</time>
      </trkpt>
      <trkpt lat="50.848275041207671" lon="15.57997802272439">
        <ele>402.44999999999999</ele>
        <time>2013-09-05T07:57:26Z</time>
      </trkpt>
      <trkpt lat="50.848334971815348" lon="15.580097967758775">
        <ele>401.97000000000003</ele>
        <time>2013-09-05T07:57:27Z</time>
      </trkpt>
      <trkpt lat="50.848468998447061" lon="15.580339031293988">
        <ele>399.56999999999999</ele>
        <time>2013-09-05T07:57:29Z</time>
      </trkpt>
      <trkpt lat="50.848551979288459" lon="15.58045101352036">
        <ele>399.07999999999998</ele>
        <time>2013-09-05T07:57:30Z</time>
      </trkpt>
      <trkpt lat="50.848647030070424" lon="15.580542040988803">
        <ele>398.12</ele>
        <time>2013-09-05T07:57:31Z</time>
      </trkpt>
      <trkpt lat="50.848751971498132" lon="15.580614041537046">
        <ele>398.12</ele>
        <time>2013-09-05T07:57:32Z</time>
      </trkpt>
      <trkpt lat="50.848859008401632" lon="15.580671038478613">
        <ele>398.12</ele>
        <time>2013-09-05T07:57:33Z</time>
      </trkpt>
      <trkpt lat="50.84917601197958" lon="15.580848986282945">
        <ele>397.16000000000003</ele>
        <time>2013-09-05T07:57:36Z</time>
      </trkpt>
      <trkpt lat="50.849269973114133" lon="15.580956023186445">
        <ele>397.16000000000003</ele>
        <time>2013-09-05T07:57:37Z</time>
      </trkpt>
      <trkpt lat="50.850050998851657" lon="15.582096967846155">
        <ele>392.83999999999997</ele>
        <time>2013-09-05T07:57:46Z</time>
      </trkpt>
      <trkpt lat="50.850119981914759" lon="15.582252033054829">
        <ele>392.83999999999997</ele>
        <time>2013-09-05T07:57:47Z</time>
      </trkpt>
      <trkpt lat="50.850174967199564" lon="15.582413971424103">
        <ele>392.36000000000001</ele>
        <time>2013-09-05T07:57:48Z</time>
      </trkpt>
      <trkpt lat="50.850221989676356" lon="15.582594014704227">
        <ele>392.36000000000001</ele>
        <time>2013-09-05T07:57:49Z</time>
      </trkpt>
      <trkpt lat="50.850268006324768" lon="15.582780009135604">
        <ele>393.31999999999999</ele>
        <time>2013-09-05T07:57:50Z</time>
      </trkpt>
      <trkpt lat="50.850588027387857" lon="15.584235023707151">
        <ele>394.75999999999999</ele>
        <time>2013-09-05T07:57:58Z</time>
      </trkpt>
      <trkpt lat="50.850600013509393" lon="15.584413977339864">
        <ele>392.83999999999997</ele>
        <time>2013-09-05T07:57:59Z</time>
      </trkpt>
      <trkpt lat="50.850674025714397" lon="15.585937974974513">
        <ele>390.43000000000001</ele>
        <time>2013-09-05T07:58:07Z</time>
      </trkpt>
      <trkpt lat="50.850676959380507" lon="15.586136039346457">
        <ele>390.91000000000003</ele>
        <time>2013-09-05T07:58:08Z</time>
      </trkpt>
      <trkpt lat="50.85063898935914" lon="15.586712965741754">
        <ele>390.91000000000003</ele>
        <time>2013-09-05T07:58:11Z</time>
      </trkpt>
      <trkpt lat="50.850602025166154" lon="15.586886974051595">
        <ele>390.91000000000003</ele>
        <time>2013-09-05T07:58:12Z</time>
      </trkpt>
      <trkpt lat="50.850168010219932" lon="15.589094012975693">
        <ele>387.06999999999999</ele>
        <time>2013-09-05T07:58:24Z</time>
      </trkpt>
      <trkpt lat="50.849727960303426" lon="15.591041967272758">
        <ele>386.58999999999997</ele>
        <time>2013-09-05T07:58:35Z</time>
      </trkpt>
      <trkpt lat="50.849640034139156" lon="15.591389983892441">
        <ele>386.11000000000001</ele>
        <time>2013-09-05T07:58:37Z</time>
      </trkpt>
      <trkpt lat="50.848938971757889" lon="15.593380015343428">
        <ele>385.14999999999998</ele>
        <time>2013-09-05T07:58:49Z</time>
      </trkpt>
      <trkpt lat="50.848631020635366" lon="15.594374025240541">
        <ele>384.66000000000003</ele>
        <time>2013-09-05T07:58:55Z</time>
      </trkpt>
      <trkpt lat="50.84859699010849" lon="15.594550967216492">
        <ele>384.66000000000003</ele>
        <time>2013-09-05T07:58:56Z</time>
      </trkpt>
      <trkpt lat="50.848576035350561" lon="15.594730004668236">
        <ele>384.66000000000003</ele>
        <time>2013-09-05T07:58:57Z</time>
      </trkpt>
      <trkpt lat="50.848566982895136" lon="15.594908036291599">
        <ele>383.69999999999999</ele>
        <time>2013-09-05T07:58:58Z</time>
      </trkpt>
      <trkpt lat="50.848567988723516" lon="15.595096964389086">
        <ele>383.69999999999999</ele>
        <time>2013-09-05T07:58:59Z</time>
      </trkpt>
      <trkpt lat="50.848572012037039" lon="15.595270972698927">
        <ele>383.22000000000003</ele>
        <time>2013-09-05T07:59:00Z</time>
      </trkpt>
      <trkpt lat="50.848605036735535" lon="15.595800038427114">
        <ele>382.74000000000001</ele>
        <time>2013-09-05T07:59:03Z</time>
      </trkpt>
      <trkpt lat="50.848630014806986" lon="15.595973962917924">
        <ele>382.25999999999999</ele>
        <time>2013-09-05T07:59:04Z</time>
      </trkpt>
      <trkpt lat="50.848671002313495" lon="15.596145959571004">
        <ele>382.25999999999999</ele>
        <time>2013-09-05T07:59:05Z</time>
      </trkpt>
      <trkpt lat="50.848724981769919" lon="15.596315022557974">
        <ele>381.77999999999997</ele>
        <time>2013-09-05T07:59:06Z</time>
      </trkpt>
      <trkpt lat="50.84878901951015" lon="15.596478972584009">
        <ele>381.30000000000001</ele>
        <time>2013-09-05T07:59:07Z</time>
      </trkpt>
      <trkpt lat="50.84885498508811" lon="15.596640994772315">
        <ele>380.81999999999999</ele>
        <time>2013-09-05T07:59:08Z</time>
      </trkpt>
      <trkpt lat="50.849483963102102" lon="15.598218971863389">
        <ele>378.42000000000002</ele>
        <time>2013-09-05T07:59:18Z</time>
      </trkpt>
      <trkpt lat="50.849507013335824" lon="15.598379988223314">
        <ele>377.44999999999999</ele>
        <time>2013-09-05T07:59:19Z</time>
      </trkpt>
      <trkpt lat="50.849484968930483" lon="15.598507979884744">
        <ele>376.49000000000001</ele>
        <time>2013-09-05T07:59:20Z</time>
      </trkpt>
      <trkpt lat="50.849433001130819" lon="15.598624991253018">
        <ele>376.49000000000001</ele>
        <time>2013-09-05T07:59:21Z</time>
      </trkpt>
      <trkpt lat="50.84934800863266" lon="15.598711995407939">
        <ele>376.00999999999999</ele>
        <time>2013-09-05T07:59:22Z</time>
      </trkpt>
      <trkpt lat="50.849257986992598" lon="15.598751977086067">
        <ele>376.97000000000003</ele>
        <time>2013-09-05T07:59:23Z</time>
      </trkpt>
      <trkpt lat="50.849151033908129" lon="15.598769998177886">
        <ele>376.97000000000003</ele>
        <time>2013-09-05T07:59:24Z</time>
      </trkpt>
      <trkpt lat="50.849048020318151" lon="15.59877703897655">
        <ele>376.00999999999999</ele>
        <time>2013-09-05T07:59:25Z</time>
      </trkpt>
      <trkpt lat="50.848856996744871" lon="15.598844010382891">
        <ele>376.49000000000001</ele>
        <time>2013-09-05T07:59:27Z</time>
      </trkpt>
      <trkpt lat="50.848782984539866" lon="15.598923973739147">
        <ele>376.00999999999999</ele>
        <time>2013-09-05T07:59:28Z</time>
      </trkpt>
      <trkpt lat="50.848720036447048" lon="15.599049031734467">
        <ele>375.05000000000001</ele>
        <time>2013-09-05T07:59:29Z</time>
      </trkpt>
      <trkpt lat="50.848665973171592" lon="15.599191021174192">
        <ele>375.52999999999997</ele>
        <time>2013-09-05T07:59:30Z</time>
      </trkpt>
      <trkpt lat="50.848620040342212" lon="15.599339967593551">
        <ele>375.52999999999997</ele>
        <time>2013-09-05T07:59:31Z</time>
      </trkpt>
      <trkpt lat="50.848162975162268" lon="15.600795987993479">
        <ele>372.64999999999998</ele>
        <time>2013-09-05T07:59:40Z</time>
      </trkpt>
      <trkpt lat="50.848132967948914" lon="15.600976031273603">
        <ele>372.17000000000002</ele>
        <time>2013-09-05T07:59:41Z</time>
      </trkpt>
      <trkpt lat="50.84805803373456" lon="15.601512975990772">
        <ele>371.69</ele>
        <time>2013-09-05T07:59:44Z</time>
      </trkpt>
      <trkpt lat="50.8480179682374" lon="15.601688995957375">
        <ele>371.69</ele>
        <time>2013-09-05T07:59:45Z</time>
      </trkpt>
      <trkpt lat="50.847959965467453" lon="15.601855041459203">
        <ele>371.69</ele>
        <time>2013-09-05T07:59:46Z</time>
      </trkpt>
      <trkpt lat="50.847901962697506" lon="15.602024020627141">
        <ele>371.20999999999998</ele>
        <time>2013-09-05T07:59:47Z</time>
      </trkpt>
      <trkpt lat="50.847874972969294" lon="15.602202974259853">
        <ele>373.13</ele>
        <time>2013-09-05T07:59:48Z</time>
      </trkpt>
      <trkpt lat="50.84784303791821" lon="15.602376982569695">
        <ele>372.64999999999998</ele>
        <time>2013-09-05T07:59:49Z</time>
      </trkpt>
      <trkpt lat="50.847820993512869" lon="15.602559959515929">
        <ele>372.64999999999998</ele>
        <time>2013-09-05T07:59:50Z</time>
      </trkpt>
      <trkpt lat="50.847810013219714" lon="15.602750983089209">
        <ele>372.64999999999998</ele>
        <time>2013-09-05T07:59:51Z</time>
      </trkpt>
      <trkpt lat="50.847699958831072" lon="15.605337973684072">
        <ele>371.69</ele>
        <time>2013-09-05T08:00:04Z</time>
      </trkpt>
      <trkpt lat="50.847726026549935" lon="15.605747010558844">
        <ele>372.17000000000002</ele>
        <time>2013-09-05T08:00:06Z</time>
      </trkpt>
      <trkpt lat="50.847724014893174" lon="15.605948008596897">
        <ele>372.17000000000002</ele>
        <time>2013-09-05T08:00:07Z</time>
      </trkpt>
      <trkpt lat="50.847767014056444" lon="15.607707034796476">
        <ele>374.56999999999999</ele>
        <time>2013-09-05T08:00:16Z</time>
      </trkpt>
      <trkpt lat="50.847799032926559" lon="15.60786603949964">
        <ele>374.56999999999999</ele>
        <time>2013-09-05T08:00:17Z</time>
      </trkpt>
      <trkpt lat="50.847853012382984" lon="15.608151024207473">
        <ele>375.05000000000001</ele>
        <time>2013-09-05T08:00:19Z</time>
      </trkpt>
      <trkpt lat="50.847839014604688" lon="15.608269963413477">
        <ele>374.56999999999999</ele>
        <time>2013-09-05T08:00:20Z</time>
      </trkpt>
      <trkpt lat="50.847787968814373" lon="15.608388986438513">
        <ele>374.56999999999999</ele>
        <time>2013-09-05T08:00:21Z</time>
      </trkpt>
      <trkpt lat="50.847712028771639" lon="15.608486970886588">
        <ele>375.05000000000001</ele>
        <time>2013-09-05T08:00:22Z</time>
      </trkpt>
      <trkpt lat="50.847618989646435" lon="15.608577998355031">
        <ele>375.52999999999997</ele>
        <time>2013-09-05T08:00:23Z</time>
      </trkpt>
      <trkpt lat="50.847525028511882" lon="15.608658967539668">
        <ele>375.52999999999997</ele>
        <time>2013-09-05T08:00:24Z</time>
      </trkpt>
      <trkpt lat="50.847266027703881" lon="15.608979994431138">
        <ele>376.00999999999999</ele>
        <time>2013-09-05T08:00:27Z</time>
      </trkpt>
      <trkpt lat="50.847201989963651" lon="15.609131036326289">
        <ele>376.49000000000001</ele>
        <time>2013-09-05T08:00:28Z</time>
      </trkpt>
      <trkpt lat="50.847158990800381" lon="15.609304960817099">
        <ele>376.49000000000001</ele>
        <time>2013-09-05T08:00:29Z</time>
      </trkpt>
      <trkpt lat="50.846590027213097" lon="15.611092988401651">
        <ele>379.38</ele>
        <time>2013-09-05T08:00:39Z</time>
      </trkpt>
      <trkpt lat="50.846002958714962" lon="15.61231398023665">
        <ele>382.25999999999999</ele>
        <time>2013-09-05T08:00:46Z</time>
      </trkpt>
      <trkpt lat="50.845929030328989" lon="15.612523024901748">
        <ele>382.74000000000001</ele>
        <time>2013-09-05T08:00:47Z</time>
      </trkpt>
      <trkpt lat="50.845858035609126" lon="15.612752018496394">
        <ele>382.74000000000001</ele>
        <time>2013-09-05T08:00:48Z</time>
      </trkpt>
      <trkpt lat="50.845212964341044" lon="15.614853026345372">
        <ele>387.06999999999999</ele>
        <time>2013-09-05T08:00:56Z</time>
      </trkpt>
      <trkpt lat="50.844607036560774" lon="15.617079008370638">
        <ele>391.38999999999999</ele>
        <time>2013-09-05T08:01:04Z</time>
      </trkpt>
      <trkpt lat="50.844588009640574" lon="15.617380002513528">
        <ele>390.91000000000003</ele>
        <time>2013-09-05T08:01:05Z</time>
      </trkpt>
      <trkpt lat="50.8445780351758" lon="15.61768501996994">
        <ele>390.43000000000001</ele>
        <time>2013-09-05T08:01:06Z</time>
      </trkpt>
      <trkpt lat="50.844400003552437" lon="15.619874959811568">
        <ele>385.63</ele>
        <time>2013-09-05T08:01:13Z</time>
      </trkpt>
      <trkpt lat="50.844352981075644" lon="15.620482983067632">
        <ele>384.18000000000001</ele>
        <time>2013-09-05T08:01:15Z</time>
      </trkpt>
      <trkpt lat="50.844372007995844" lon="15.620782971382141">
        <ele>384.66000000000003</ele>
        <time>2013-09-05T08:01:16Z</time>
      </trkpt>
      <trkpt lat="50.844649029895663" lon="15.623856028541923">
        <ele>382.25999999999999</ele>
        <time>2013-09-05T08:01:26Z</time>
      </trkpt>
      <trkpt lat="50.844981959089637" lon="15.62772000208497">
        <ele>382.25999999999999</ele>
        <time>2013-09-05T08:01:38Z</time>
      </trkpt>
      <trkpt lat="50.845456039533019" lon="15.631940038874745">
        <ele>378.42000000000002</ele>
        <time>2013-09-05T08:01:51Z</time>
      </trkpt>
      <trkpt lat="50.845971023663878" lon="15.635825973004103">
        <ele>371.69</ele>
        <time>2013-09-05T08:02:03Z</time>
      </trkpt>
      <trkpt lat="50.845964988693595" lon="15.637481985613704">
        <ele>374.56999999999999</ele>
        <time>2013-09-05T08:02:10Z</time>
      </trkpt>
      <trkpt lat="50.845971023663878" lon="15.637862021103501">
        <ele>372.64999999999998</ele>
        <time>2013-09-05T08:02:12Z</time>
      </trkpt>
      <trkpt lat="50.84599600173533" lon="15.638050027191639">
        <ele>372.64999999999998</ele>
        <time>2013-09-05T08:02:13Z</time>
      </trkpt>
      <trkpt lat="50.846028020605445" lon="15.638225041329861">
        <ele>371.69</ele>
        <time>2013-09-05T08:02:14Z</time>
      </trkpt>
      <trkpt lat="50.846070013940334" lon="15.638380022719502">
        <ele>371.69</ele>
        <time>2013-09-05T08:02:15Z</time>
      </trkpt>
      <trkpt lat="50.84612499922514" lon="15.63852796331048">
        <ele>371.20999999999998</ele>
        <time>2013-09-05T08:02:16Z</time>
      </trkpt>
      <trkpt lat="50.8461909648031" lon="15.638661989942193">
        <ele>371.20999999999998</ele>
        <time>2013-09-05T08:02:17Z</time>
      </trkpt>
      <trkpt lat="50.846266988664865" lon="15.638795010745525">
        <ele>370.73000000000002</ele>
        <time>2013-09-05T08:02:18Z</time>
      </trkpt>
      <trkpt lat="50.846335971727967" lon="15.638907998800278">
        <ele>370.24000000000001</ele>
        <time>2013-09-05T08:02:19Z</time>
      </trkpt>
      <trkpt lat="50.84644703194499" lon="15.639011012390256">
        <ele>369.27999999999997</ele>
        <time>2013-09-05T08:02:20Z</time>
      </trkpt>
      <trkpt lat="50.846538981422782" lon="15.639117965474725">
        <ele>369.27999999999997</ele>
        <time>2013-09-05T08:02:21Z</time>
      </trkpt>
      <trkpt lat="50.847149016335607" lon="15.639862027019262">
        <ele>365.44</ele>
        <time>2013-09-05T08:02:28Z</time>
      </trkpt>
      <trkpt lat="50.84720098413527" lon="15.639968980103731">
        <ele>364.48000000000002</ele>
        <time>2013-09-05T08:02:29Z</time>
      </trkpt>
      <trkpt lat="50.847223028540611" lon="15.640118010342121">
        <ele>364.95999999999998</ele>
        <time>2013-09-05T08:02:30Z</time>
      </trkpt>
      <trkpt lat="50.847222022712231" lon="15.640253964811563">
        <ele>363.51999999999998</ele>
        <time>2013-09-05T08:02:31Z</time>
      </trkpt>
      <trkpt lat="50.847210036590695" lon="15.640387991443276">
        <ele>363.04000000000002</ele>
        <time>2013-09-05T08:02:32Z</time>
      </trkpt>
      <trkpt lat="50.847185980528593" lon="15.640527969226241">
        <ele>361.58999999999997</ele>
        <time>2013-09-05T08:02:33Z</time>
      </trkpt>
      <trkpt lat="50.847192015498877" lon="15.640994003042579">
        <ele>359.19</ele>
        <time>2013-09-05T08:02:36Z</time>
      </trkpt>
      <trkpt lat="50.847136024385691" lon="15.641463976353407">
        <ele>356.79000000000002</ele>
        <time>2013-09-05T08:02:39Z</time>
      </trkpt>
      <trkpt lat="50.847085984423757" lon="15.641613006591797">
        <ele>356.31</ele>
        <time>2013-09-05T08:02:40Z</time>
      </trkpt>
      <trkpt lat="50.847017001360655" lon="15.641757007688284">
        <ele>355.82999999999998</ele>
        <time>2013-09-05T08:02:41Z</time>
      </trkpt>
      <trkpt lat="50.846947012469172" lon="15.641890028491616">
        <ele>355.82999999999998</ele>
        <time>2013-09-05T08:02:42Z</time>
      </trkpt>
      <trkpt lat="50.846875011920929" lon="15.642013996839523">
        <ele>355.82999999999998</ele>
        <time>2013-09-05T08:02:43Z</time>
      </trkpt>
      <trkpt lat="50.846660016104579" lon="15.64237198792398">
        <ele>355.33999999999997</ele>
        <time>2013-09-05T08:02:47Z</time>
      </trkpt>
      <trkpt lat="50.846604024991393" lon="15.642385985702276">
        <ele>355.33999999999997</ele>
        <time>2013-09-05T08:02:48Z</time>
      </trkpt>
      <trkpt lat="50.846558008342981" lon="15.642366036772728">
        <ele>353.89999999999998</ele>
        <time>2013-09-05T08:02:49Z</time>
      </trkpt>
      <trkpt lat="50.846415013074875" lon="15.642232010141015">
        <ele>356.31</ele>
        <time>2013-09-05T08:02:57Z</time>
      </trkpt>
      <trkpt lat="50.846302025020123" lon="15.642102006822824">
        <ele>356.79000000000002</ele>
        <time>2013-09-05T08:03:00Z</time>
      </trkpt>
      <trkpt lat="50.845642033964396" lon="15.641484009101987">
        <ele>359.19</ele>
        <time>2013-09-05T08:03:09Z</time>
      </trkpt>
      <trkpt lat="50.845167031511664" lon="15.640958966687322">
        <ele>360.63</ele>
        <time>2013-09-05T08:03:15Z</time>
      </trkpt>
      <trkpt lat="50.845090001821518" lon="15.640930971130729">
        <ele>361.11000000000001</ele>
        <time>2013-09-05T08:03:16Z</time>
      </trkpt>
      <trkpt lat="50.84500702098012" lon="15.64095301553607">
        <ele>362.55000000000001</ele>
        <time>2013-09-05T08:03:17Z</time>
      </trkpt>
      <trkpt lat="50.844913981854916" lon="15.641002971678972">
        <ele>362.55000000000001</ele>
        <time>2013-09-05T08:03:18Z</time>
      </trkpt>
      <trkpt lat="50.844831001013517" lon="15.641068015247583">
        <ele>363.04000000000002</ele>
        <time>2013-09-05T08:03:19Z</time>
      </trkpt>
      <trkpt lat="50.844506034627557" lon="15.641403961926699">
        <ele>362.55000000000001</ele>
        <time>2013-09-05T08:03:23Z</time>
      </trkpt>
      <trkpt lat="50.843567010015249" lon="15.642339969053864">
        <ele>364.48000000000002</ele>
        <time>2013-09-05T08:03:34Z</time>
      </trkpt>
      <trkpt lat="50.843487968668342" lon="15.642430996522307">
        <ele>364.95999999999998</ele>
        <time>2013-09-05T08:03:35Z</time>
      </trkpt>
      <trkpt lat="50.843424014747143" lon="15.642539961263537">
        <ele>365.44</ele>
        <time>2013-09-05T08:03:36Z</time>
      </trkpt>
      <trkpt lat="50.843155961483717" lon="15.643024016171694">
        <ele>366.39999999999998</ele>
        <time>2013-09-05T08:03:41Z</time>
      </trkpt>
      <trkpt lat="50.843122014775872" lon="15.643113031983376">
        <ele>366.39999999999998</ele>
        <time>2013-09-05T08:03:42Z</time>
      </trkpt>
      <trkpt lat="50.843102987855673" lon="15.64323197118938">
        <ele>366.39999999999998</ele>
        <time>2013-09-05T08:03:43Z</time>
      </trkpt>
      <trkpt lat="50.843087984248996" lon="15.643375972285867">
        <ele>366.39999999999998</ele>
        <time>2013-09-05T08:03:44Z</time>
      </trkpt>
      <trkpt lat="50.843067029491067" lon="15.643529025837779">
        <ele>366.39999999999998</ele>
        <time>2013-09-05T08:03:45Z</time>
      </trkpt>
      <trkpt lat="50.842856978997588" lon="15.645200964063406">
        <ele>365.44</ele>
        <time>2013-09-05T08:03:54Z</time>
      </trkpt>
      <trkpt lat="50.842575011774898" lon="15.647989958524704">
        <ele>363.04000000000002</ele>
        <time>2013-09-05T08:04:06Z</time>
      </trkpt>
      <trkpt lat="50.842159017920494" lon="15.650855982676148">
        <ele>359.19</ele>
        <time>2013-09-05T08:04:17Z</time>
      </trkpt>
      <trkpt lat="50.841327030211687" lon="15.65292002633214">
        <ele>357.26999999999998</ele>
        <time>2013-09-05T08:04:25Z</time>
      </trkpt>
      <trkpt lat="50.83998198620975" lon="15.655940026044846">
        <ele>358.70999999999998</ele>
        <time>2013-09-05T08:04:37Z</time>
      </trkpt>
      <trkpt lat="50.838723024353385" lon="15.658286958932877">
        <ele>359.19</ele>
        <time>2013-09-05T08:04:47Z</time>
      </trkpt>
      <trkpt lat="50.837808977812529" lon="15.659736022353172">
        <ele>357.26999999999998</ele>
        <time>2013-09-05T08:04:54Z</time>
      </trkpt>
      <trkpt lat="50.837669000029564" lon="15.65988102927804">
        <ele>355.82999999999998</ele>
        <time>2013-09-05T08:04:55Z</time>
      </trkpt>
      <trkpt lat="50.837281001731753" lon="15.660305991768837">
        <ele>354.86000000000001</ele>
        <time>2013-09-05T08:04:58Z</time>
      </trkpt>
      <trkpt lat="50.8371870405972" lon="15.660460973158479">
        <ele>354.86000000000001</ele>
        <time>2013-09-05T08:04:59Z</time>
      </trkpt>
      <trkpt lat="50.836346000432968" lon="15.662270961329341">
        <ele>356.31</ele>
        <time>2013-09-05T08:05:10Z</time>
      </trkpt>
      <trkpt lat="50.836249021813273" lon="15.662400964647532">
        <ele>357.26999999999998</ele>
        <time>2013-09-05T08:05:11Z</time>
      </trkpt>
      <trkpt lat="50.835953978821635" lon="15.662800027057528">
        <ele>357.75</ele>
        <time>2013-09-05T08:05:14Z</time>
      </trkpt>
      <trkpt lat="50.835879966616631" lon="15.662952996790409">
        <ele>357.75</ele>
        <time>2013-09-05T08:05:15Z</time>
      </trkpt>
      <trkpt lat="50.835821963846684" lon="15.663133962079883">
        <ele>356.79000000000002</ele>
        <time>2013-09-05T08:05:16Z</time>
      </trkpt>
      <trkpt lat="50.835782987996936" lon="15.663326997309923">
        <ele>355.33999999999997</ele>
        <time>2013-09-05T08:05:17Z</time>
      </trkpt>
      <trkpt lat="50.835748035460711" lon="15.663531012833118">
        <ele>355.33999999999997</ele>
        <time>2013-09-05T08:05:18Z</time>
      </trkpt>
      <trkpt lat="50.835518036037683" lon="15.664968006312847">
        <ele>355.33999999999997</ele>
        <time>2013-09-05T08:05:25Z</time>
      </trkpt>
      <trkpt lat="50.835514012724161" lon="15.665191970765591">
        <ele>355.33999999999997</ele>
        <time>2013-09-05T08:05:26Z</time>
      </trkpt>
      <trkpt lat="50.835613003000617" lon="15.668182969093323">
        <ele>352.45999999999998</ele>
        <time>2013-09-05T08:05:38Z</time>
      </trkpt>
      <trkpt lat="50.835674023255706" lon="15.669725993648171">
        <ele>350.54000000000002</ele>
        <time>2013-09-05T08:05:44Z</time>
      </trkpt>
      <trkpt lat="50.835708975791931" lon="15.669982982799411">
        <ele>349.57999999999998</ele>
        <time>2013-09-05T08:05:45Z</time>
      </trkpt>
      <trkpt lat="50.835765972733498" lon="15.67023603245616">
        <ele>348.62</ele>
        <time>2013-09-05T08:05:46Z</time>
      </trkpt>
      <trkpt lat="50.836572982370853" lon="15.673108007758856">
        <ele>348.62</ele>
        <time>2013-09-05T08:05:58Z</time>
      </trkpt>
      <trkpt lat="50.83710297010839" lon="15.674915984272957">
        <ele>350.06</ele>
        <time>2013-09-05T08:06:07Z</time>
      </trkpt>
      <trkpt lat="50.837185028940439" lon="15.675092004239559">
        <ele>350.54000000000002</ele>
        <time>2013-09-05T08:06:08Z</time>
      </trkpt>
      <trkpt lat="50.837288964539766" lon="15.675246985629201">
        <ele>351.01999999999998</ele>
        <time>2013-09-05T08:06:09Z</time>
      </trkpt>
      <trkpt lat="50.83740497007966" lon="15.675389980897307">
        <ele>351.5</ele>
        <time>2013-09-05T08:06:10Z</time>
      </trkpt>
      <trkpt lat="50.837532039731741" lon="15.675529036670923">
        <ele>351.5</ele>
        <time>2013-09-05T08:06:11Z</time>
      </trkpt>
      <trkpt lat="50.837786011397839" lon="15.675840005278587">
        <ele>351.01999999999998</ele>
        <time>2013-09-05T08:06:13Z</time>
      </trkpt>
      <trkpt lat="50.83789698779583" lon="15.6760189589113">
        <ele>351.98000000000002</ele>
        <time>2013-09-05T08:06:14Z</time>
      </trkpt>
      <trkpt lat="50.838870964944363" lon="15.677662985399365">
        <ele>348.62</ele>
        <time>2013-09-05T08:06:24Z</time>
      </trkpt>
      <trkpt lat="50.838986970484257" lon="15.677905976772308">
        <ele>347.64999999999998</ele>
        <time>2013-09-05T08:06:26Z</time>
      </trkpt>
      <trkpt lat="50.839013960212469" lon="15.678050983697176">
        <ele>348.13</ele>
        <time>2013-09-05T08:06:27Z</time>
      </trkpt>
      <trkpt lat="50.83899300545454" lon="15.678170006722212">
        <ele>347.64999999999998</ele>
        <time>2013-09-05T08:06:28Z</time>
      </trkpt>
      <trkpt lat="50.838938020169735" lon="15.678267991170287">
        <ele>347.64999999999998</ele>
        <time>2013-09-05T08:06:29Z</time>
      </trkpt>
      <trkpt lat="50.838853027671576" lon="15.678345020860434">
        <ele>347.64999999999998</ele>
        <time>2013-09-05T08:06:30Z</time>
      </trkpt>
      <trkpt lat="50.838758982717991" lon="15.678419033065438">
        <ele>347.17000000000002</ele>
        <time>2013-09-05T08:06:31Z</time>
      </trkpt>
      <trkpt lat="50.838653035461903" lon="15.678502013906837">
        <ele>347.64999999999998</ele>
        <time>2013-09-05T08:06:32Z</time>
      </trkpt>
      <trkpt lat="50.837367000058293" lon="15.679427962750196">
        <ele>348.62</ele>
        <time>2013-09-05T08:06:43Z</time>
      </trkpt>
      <trkpt lat="50.836191019043326" lon="15.680577037855983">
        <ele>349.57999999999998</ele>
        <time>2013-09-05T08:06:53Z</time>
      </trkpt>
      <trkpt lat="50.834374995902181" lon="15.683162016794086">
        <ele>351.01999999999998</ele>
        <time>2013-09-05T08:07:11Z</time>
      </trkpt>
      <trkpt lat="50.833396995440125" lon="15.683864001184702">
        <ele>354.38</ele>
        <time>2013-09-05T08:07:19Z</time>
      </trkpt>
      <trkpt lat="50.831553982570767" lon="15.684833033010364">
        <ele>358.23000000000002</ele>
        <time>2013-09-05T08:07:33Z</time>
      </trkpt>
      <trkpt lat="50.829176036641002" lon="15.68602804094553">
        <ele>364.95999999999998</ele>
        <time>2013-09-05T08:07:51Z</time>
      </trkpt>
      <trkpt lat="50.827377028763294" lon="15.68689196370542">
        <ele>371.20999999999998</ele>
        <time>2013-09-05T08:08:05Z</time>
      </trkpt>
      <trkpt lat="50.825956966727972" lon="15.68759897723794">
        <ele>377.44999999999999</ele>
        <time>2013-09-05T08:08:17Z</time>
      </trkpt>
      <trkpt lat="50.825725961476564" lon="15.687673995271325">
        <ele>377.94</ele>
        <time>2013-09-05T08:08:19Z</time>
      </trkpt>
      <trkpt lat="50.825615990906954" lon="15.687677012756467">
        <ele>378.89999999999998</ele>
        <time>2013-09-05T08:08:20Z</time>
      </trkpt>
      <trkpt lat="50.825511971488595" lon="15.687643988057971">
        <ele>378.89999999999998</ele>
        <time>2013-09-05T08:08:21Z</time>
      </trkpt>
      <trkpt lat="50.825421027839184" lon="15.687595037743449">
        <ele>379.38</ele>
        <time>2013-09-05T08:08:22Z</time>
      </trkpt>
      <trkpt lat="50.82534902729094" lon="15.687517002224922">
        <ele>378.89999999999998</ele>
        <time>2013-09-05T08:08:23Z</time>
      </trkpt>
      <trkpt lat="50.825268980115652" lon="15.687423963099718">
        <ele>379.38</ele>
        <time>2013-09-05T08:08:24Z</time>
      </trkpt>
      <trkpt lat="50.825221035629511" lon="15.687345005571842">
        <ele>381.30000000000001</ele>
        <time>2013-09-05T08:08:25Z</time>
      </trkpt>
      <trkpt lat="50.825181975960732" lon="15.687266970053315">
        <ele>382.74000000000001</ele>
        <time>2013-09-05T08:08:26Z</time>
      </trkpt>
      <trkpt lat="50.825140988454223" lon="15.687188012525439">
        <ele>384.66000000000003</ele>
        <time>2013-09-05T08:08:27Z</time>
      </trkpt>
      <trkpt lat="50.824665986001492" lon="15.686291987076402">
        <ele>388.50999999999999</ele>
        <time>2013-09-05T08:08:36Z</time>
      </trkpt>
      <trkpt lat="50.824542017653584" lon="15.686100041493773">
        <ele>387.06999999999999</ele>
        <time>2013-09-05T08:08:38Z</time>
      </trkpt>
      <trkpt lat="50.824474962428212" lon="15.686023011803627">
        <ele>386.58999999999997</ele>
        <time>2013-09-05T08:08:39Z</time>
      </trkpt>
      <trkpt lat="50.824390975758433" lon="15.685969032347202">
        <ele>387.06999999999999</ele>
        <time>2013-09-05T08:08:40Z</time>
      </trkpt>
      <trkpt lat="50.8242960087955" lon="15.685937013477087">
        <ele>388.02999999999997</ele>
        <time>2013-09-05T08:08:41Z</time>
      </trkpt>
      <trkpt lat="50.824201963841915" lon="15.685913963243365">
        <ele>388.99000000000001</ele>
        <time>2013-09-05T08:08:42Z</time>
      </trkpt>
      <trkpt lat="50.823696032166481" lon="15.685841962695122">
        <ele>390.43000000000001</ele>
        <time>2013-09-05T08:08:47Z</time>
      </trkpt>
      <trkpt lat="50.822961023077369" lon="15.685509033501148">
        <ele>394.27999999999997</ele>
        <time>2013-09-05T08:08:55Z</time>
      </trkpt>
      <trkpt lat="50.822908971458673" lon="15.68542898632586">
        <ele>396.68000000000001</ele>
        <time>2013-09-05T08:08:56Z</time>
      </trkpt>
      <trkpt lat="50.822832025587559" lon="15.685336031019688">
        <ele>397.16000000000003</ele>
        <time>2013-09-05T08:08:57Z</time>
      </trkpt>
      <trkpt lat="50.822676038369536" lon="15.685132015496492">
        <ele>397.63999999999999</ele>
        <time>2013-09-05T08:08:59Z</time>
      </trkpt>
      <trkpt lat="50.822594985365868" lon="15.685050040483475">
        <ele>397.63999999999999</ele>
        <time>2013-09-05T08:09:00Z</time>
      </trkpt>
      <trkpt lat="50.822517033666372" lon="15.684989020228386">
        <ele>397.16000000000003</ele>
        <time>2013-09-05T08:09:01Z</time>
      </trkpt>
      <trkpt lat="50.822415025904775" lon="15.684943003579974">
        <ele>398.12</ele>
        <time>2013-09-05T08:09:02Z</time>
      </trkpt>
      <trkpt lat="50.822308994829655" lon="15.684893969446421">
        <ele>399.07999999999998</ele>
        <time>2013-09-05T08:09:03Z</time>
      </trkpt>
      <trkpt lat="50.822046976536512" lon="15.684716021642089">
        <ele>400.05000000000001</ele>
        <time>2013-09-05T08:09:06Z</time>
      </trkpt>
      <trkpt lat="50.821966007351875" lon="15.684658018872142">
        <ele>399.56999999999999</ele>
        <time>2013-09-05T08:09:07Z</time>
      </trkpt>
      <trkpt lat="50.821888977661729" lon="15.684572020545602">
        <ele>399.56999999999999</ele>
        <time>2013-09-05T08:09:08Z</time>
      </trkpt>
      <trkpt lat="50.821802979335189" lon="15.684466995298862">
        <ele>400.52999999999997</ele>
        <time>2013-09-05T08:09:09Z</time>
      </trkpt>
      <trkpt lat="50.821717986837029" lon="15.684372028335929">
        <ele>400.05000000000001</ele>
        <time>2013-09-05T08:09:10Z</time>
      </trkpt>
      <trkpt lat="50.820779968053102" lon="15.683249020949006">
        <ele>403.41000000000003</ele>
        <time>2013-09-05T08:09:21Z</time>
      </trkpt>
      <trkpt lat="50.819651009514928" lon="15.681849997490644">
        <ele>412.54000000000002</ele>
        <time>2013-09-05T08:09:34Z</time>
      </trkpt>
      <trkpt lat="50.818736040964723" lon="15.680341003462672">
        <ele>420.23000000000002</ele>
        <time>2013-09-05T08:09:46Z</time>
      </trkpt>
      <trkpt lat="50.818526996299624" lon="15.679859966039658">
        <ele>422.63999999999999</ele>
        <time>2013-09-05T08:09:50Z</time>
      </trkpt>
      <trkpt lat="50.818405961617827" lon="15.679743038490415">
        <ele>425.51999999999998</ele>
        <time>2013-09-05T08:09:54Z</time>
      </trkpt>
      <trkpt lat="50.81836799159646" lon="15.679774973541498">
        <ele>425.04000000000002</ele>
        <time>2013-09-05T08:09:55Z</time>
      </trkpt>
      <trkpt lat="50.818316023796797" lon="15.679835993796587">
        <ele>425.04000000000002</ele>
        <time>2013-09-05T08:09:56Z</time>
      </trkpt>
      <trkpt lat="50.818106979131699" lon="15.680064987391233">
        <ele>426</ele>
        <time>2013-09-05T08:09:59Z</time>
      </trkpt>
      <trkpt lat="50.818031961098313" lon="15.680131036788225">
        <ele>425.51999999999998</ele>
        <time>2013-09-05T08:10:00Z</time>
      </trkpt>
      <trkpt lat="50.817940011620522" lon="15.68018602207303">
        <ele>425.04000000000002</ele>
        <time>2013-09-05T08:10:01Z</time>
      </trkpt>
      <trkpt lat="50.817673970013857" lon="15.680398000404239">
        <ele>424.56</ele>
        <time>2013-09-05T08:10:04Z</time>
      </trkpt>
      <trkpt lat="50.817431984469295" lon="15.680666975677013">
        <ele>425.04000000000002</ele>
        <time>2013-09-05T08:10:07Z</time>
      </trkpt>
      <trkpt lat="50.81733601167798" lon="15.680729001760483">
        <ele>425.51999999999998</ele>
        <time>2013-09-05T08:10:08Z</time>
      </trkpt>
      <trkpt lat="50.817224029451609" lon="15.680780969560146">
        <ele>426</ele>
        <time>2013-09-05T08:10:09Z</time>
      </trkpt>
      <trkpt lat="50.816372008994222" lon="15.681454036384821">
        <ele>432.73000000000002</ele>
        <time>2013-09-05T08:10:16Z</time>
      </trkpt>
      <trkpt lat="50.816285004839301" lon="15.681619998067617">
        <ele>434.64999999999998</ele>
        <time>2013-09-05T08:10:17Z</time>
      </trkpt>
      <trkpt lat="50.815874040126801" lon="15.682234978303313">
        <ele>439.94</ele>
        <time>2013-09-05T08:10:21Z</time>
      </trkpt>
      <trkpt lat="50.815755017101765" lon="15.682346960529685">
        <ele>440.89999999999998</ele>
        <time>2013-09-05T08:10:22Z</time>
      </trkpt>
      <trkpt lat="50.815639011561871" lon="15.68244100548327">
        <ele>441.86000000000001</ele>
        <time>2013-09-05T08:10:23Z</time>
      </trkpt>
      <trkpt lat="50.815516971051693" lon="15.682504959404469">
        <ele>442.33999999999997</ele>
        <time>2013-09-05T08:10:24Z</time>
      </trkpt>
      <trkpt lat="50.815387973561883" lon="15.682561034336686">
        <ele>444.26999999999998</ele>
        <time>2013-09-05T08:10:25Z</time>
      </trkpt>
      <trkpt lat="50.815231986343861" lon="15.682589029893279">
        <ele>445.70999999999998</ele>
        <time>2013-09-05T08:10:26Z</time>
      </trkpt>
      <trkpt lat="50.815065018832684" lon="15.68263697437942">
        <ele>447.14999999999998</ele>
        <time>2013-09-05T08:10:27Z</time>
      </trkpt>
      <trkpt lat="50.813561975955963" lon="15.682773012667894">
        <ele>456.27999999999997</ele>
        <time>2013-09-05T08:10:36Z</time>
      </trkpt>
      <trkpt lat="50.813414035364985" lon="15.682748034596443">
        <ele>455.31999999999999</ele>
        <time>2013-09-05T08:10:37Z</time>
      </trkpt>
      <trkpt lat="50.813265005126595" lon="15.6826760340482">
        <ele>455.80000000000001</ele>
        <time>2013-09-05T08:10:38Z</time>
      </trkpt>
      <trkpt lat="50.813110023736954" lon="15.682599004358053">
        <ele>457.24000000000001</ele>
        <time>2013-09-05T08:10:39Z</time>
      </trkpt>
      <trkpt lat="50.812963005155325" lon="15.682503031566739">
        <ele>457.72000000000003</ele>
        <time>2013-09-05T08:10:40Z</time>
      </trkpt>
      <trkpt lat="50.812815986573696" lon="15.682365987449884">
        <ele>457.24000000000001</ele>
        <time>2013-09-05T08:10:41Z</time>
      </trkpt>
      <trkpt lat="50.811209008097649" lon="15.681119011715055">
        <ele>461.56999999999999</ele>
        <time>2013-09-05T08:10:51Z</time>
      </trkpt>
      <trkpt lat="50.810209969058633" lon="15.680197002366185">
        <ele>466.86000000000001</ele>
        <time>2013-09-05T08:10:58Z</time>
      </trkpt>
      <trkpt lat="50.810081977397203" lon="15.680109998211265">
        <ele>466.86000000000001</ele>
        <time>2013-09-05T08:10:59Z</time>
      </trkpt>
      <trkpt lat="50.809940993785858" lon="15.680071022361517">
        <ele>467.33999999999997</ele>
        <time>2013-09-05T08:11:00Z</time>
      </trkpt>
      <trkpt lat="50.809785006567836" lon="15.680113015696406">
        <ele>467.81999999999999</ele>
        <time>2013-09-05T08:11:01Z</time>
      </trkpt>
      <trkpt lat="50.809630025178194" lon="15.680184010416269">
        <ele>468.77999999999997</ele>
        <time>2013-09-05T08:11:02Z</time>
      </trkpt>
      <trkpt lat="50.809465991333127" lon="15.680277971550822">
        <ele>470.69999999999999</ele>
        <time>2013-09-05T08:11:03Z</time>
      </trkpt>
      <trkpt lat="50.808612965047359" lon="15.680363969877362">
        <ele>475.99000000000001</ele>
        <time>2013-09-05T08:11:09Z</time>
      </trkpt>
      <trkpt lat="50.808324040845037" lon="15.680356007069349">
        <ele>478.38999999999999</ele>
        <time>2013-09-05T08:11:11Z</time>
      </trkpt>
      <trkpt lat="50.808162018656731" lon="15.680386014282703">
        <ele>478.87</ele>
        <time>2013-09-05T08:11:12Z</time>
      </trkpt>
      <trkpt lat="50.808003013953567" lon="15.680417027324438">
        <ele>480.31999999999999</ele>
        <time>2013-09-05T08:11:13Z</time>
      </trkpt>
      <trkpt lat="50.807835962623358" lon="15.680424990132451">
        <ele>481.27999999999997</ele>
        <time>2013-09-05T08:11:14Z</time>
      </trkpt>
      <trkpt lat="50.807674024254084" lon="15.680391965433955">
        <ele>482.24000000000001</ele>
        <time>2013-09-05T08:11:15Z</time>
      </trkpt>
      <trkpt lat="50.807513007894158" lon="15.68033798597753">
        <ele>483.68000000000001</ele>
        <time>2013-09-05T08:11:16Z</time>
      </trkpt>
      <trkpt lat="50.807364983484149" lon="15.680270008742809">
        <ele>484.16000000000003</ele>
        <time>2013-09-05T08:11:17Z</time>
      </trkpt>
      <trkpt lat="50.806941026821733" lon="15.680071022361517">
        <ele>487.05000000000001</ele>
        <time>2013-09-05T08:11:20Z</time>
      </trkpt>
      <trkpt lat="50.806832984089851" lon="15.679979994893074">
        <ele>487.52999999999997</ele>
        <time>2013-09-05T08:11:21Z</time>
      </trkpt>
      <trkpt lat="50.806724019348621" lon="15.679828030988574">
        <ele>488.00999999999999</ele>
        <time>2013-09-05T08:11:22Z</time>
      </trkpt>
      <trkpt lat="50.806531989946961" lon="15.679397033527493">
        <ele>489.93000000000001</ele>
        <time>2013-09-05T08:11:24Z</time>
      </trkpt>
      <trkpt lat="50.806450014933944" lon="15.679168039932847">
        <ele>491.85000000000002</ele>
        <time>2013-09-05T08:11:25Z</time>
      </trkpt>
      <trkpt lat="50.806396035477519" lon="15.678948014974594">
        <ele>492.81</ele>
        <time>2013-09-05T08:11:26Z</time>
      </trkpt>
      <trkpt lat="50.806317999958992" lon="15.678705023601651">
        <ele>494.74000000000001</ele>
        <time>2013-09-05T08:11:27Z</time>
      </trkpt>
      <trkpt lat="50.806258991360664" lon="15.678517017513514">
        <ele>494.74000000000001</ele>
        <time>2013-09-05T08:11:28Z</time>
      </trkpt>
      <trkpt lat="50.806187996640801" lon="15.678368993103504">
        <ele>495.22000000000003</ele>
        <time>2013-09-05T08:11:29Z</time>
      </trkpt>
      <trkpt lat="50.806109039112926" lon="15.678278971463442">
        <ele>496.18000000000001</ele>
        <time>2013-09-05T08:11:30Z</time>
      </trkpt>
      <trkpt lat="50.805981969460845" lon="15.678262962028384">
        <ele>496.66000000000003</ele>
        <time>2013-09-05T08:11:31Z</time>
      </trkpt>
      <trkpt lat="50.805888008326292" lon="15.678286012262106">
        <ele>497.62</ele>
        <time>2013-09-05T08:11:32Z</time>
      </trkpt>
      <trkpt lat="50.805809972807765" lon="15.678408974781632">
        <ele>498.10000000000002</ele>
        <time>2013-09-05T08:11:33Z</time>
      </trkpt>
      <trkpt lat="50.805770996958017" lon="15.678547024726868">
        <ele>499.06</ele>
        <time>2013-09-05T08:11:34Z</time>
      </trkpt>
      <trkpt lat="50.805739983916283" lon="15.678704017773271">
        <ele>499.54000000000002</ele>
        <time>2013-09-05T08:11:35Z</time>
      </trkpt>
      <trkpt lat="50.805701008066535" lon="15.678877020254731">
        <ele>500.01999999999998</ele>
        <time>2013-09-05T08:11:36Z</time>
      </trkpt>
      <trkpt lat="50.805581985041499" lon="15.679473979398608">
        <ele>501.94999999999999</ele>
        <time>2013-09-05T08:11:39Z</time>
      </trkpt>
      <trkpt lat="50.805098013952374" lon="15.680675022304058">
        <ele>508.19</ele>
        <time>2013-09-05T08:11:45Z</time>
      </trkpt>
      <trkpt lat="50.804973961785436" lon="15.680844001471996">
        <ele>509.63999999999999</ele>
        <time>2013-09-05T08:11:46Z</time>
      </trkpt>
      <trkpt lat="50.804833984002471" lon="15.681005017831922">
        <ele>510.60000000000002</ele>
        <time>2013-09-05T08:11:47Z</time>
      </trkpt>
      <trkpt lat="50.803534034639597" lon="15.682517029345036">
        <ele>521.16999999999996</ele>
        <time>2013-09-05T08:11:56Z</time>
      </trkpt>
      <trkpt lat="50.803055008873343" lon="15.682926988229156">
        <ele>525.5</ele>
        <time>2013-09-05T08:11:59Z</time>
      </trkpt>
      <trkpt lat="50.801856983453035" lon="15.68422400392592">
        <ele>536.54999999999995</ele>
        <time>2013-09-05T08:12:07Z</time>
      </trkpt>
      <trkpt lat="50.801072018221021" lon="15.685365032404661">
        <ele>545.20000000000005</ele>
        <time>2013-09-05T08:12:13Z</time>
      </trkpt>
      <trkpt lat="50.800993982702494" lon="15.685674995183945">
        <ele>545.20000000000005</ele>
        <time>2013-09-05T08:12:14Z</time>
      </trkpt>
      <trkpt lat="50.800802959129214" lon="15.686201965436339">
        <ele>545.20000000000005</ele>
        <time>2013-09-05T08:12:16Z</time>
      </trkpt>
      <trkpt lat="50.800714027136564" lon="15.686464989557862">
        <ele>547.13</ele>
        <time>2013-09-05T08:12:17Z</time>
      </trkpt>
      <trkpt lat="50.800412027165294" lon="15.687218019738793">
        <ele>551.92999999999995</ele>
        <time>2013-09-05T08:12:20Z</time>
      </trkpt>
      <trkpt lat="50.800213040784001" lon="15.687635019421577">
        <ele>553.86000000000001</ele>
        <time>2013-09-05T08:12:22Z</time>
      </trkpt>
      <trkpt lat="50.800091000273824" lon="15.687801986932755">
        <ele>554.82000000000005</ele>
        <time>2013-09-05T08:12:23Z</time>
      </trkpt>
      <trkpt lat="50.799809033051133" lon="15.688058976083994">
        <ele>558.65999999999997</ele>
        <time>2013-09-05T08:12:25Z</time>
      </trkpt>
      <trkpt lat="50.799665031954646" lon="15.688152015209198">
        <ele>560.11000000000001</ele>
        <time>2013-09-05T08:12:26Z</time>
      </trkpt>
      <trkpt lat="50.79954500310123" lon="15.688214963302016">
        <ele>561.54999999999995</ele>
        <time>2013-09-05T08:12:27Z</time>
      </trkpt>
      <trkpt lat="50.799423968419433" lon="15.688217980787158">
        <ele>563.47000000000003</ele>
        <time>2013-09-05T08:12:28Z</time>
      </trkpt>
      <trkpt lat="50.79931098036468" lon="15.688180010765791">
        <ele>564.90999999999997</ele>
        <time>2013-09-05T08:12:29Z</time>
      </trkpt>
      <trkpt lat="50.799175025895238" lon="15.688055958598852">
        <ele>564.42999999999995</ele>
        <time>2013-09-05T08:12:30Z</time>
      </trkpt>
      <trkpt lat="50.79907201230526" lon="15.687898965552449">
        <ele>564.42999999999995</ele>
        <time>2013-09-05T08:12:31Z</time>
      </trkpt>
      <trkpt lat="50.79896598123014" lon="15.687755970284343">
        <ele>564.90999999999997</ele>
        <time>2013-09-05T08:12:32Z</time>
      </trkpt>
      <trkpt lat="50.798890963196754" lon="15.687651028856635">
        <ele>565.38999999999999</ele>
        <time>2013-09-05T08:12:33Z</time>
      </trkpt>
      <trkpt lat="50.79877202399075" lon="15.687591014429927">
        <ele>565.87</ele>
        <time>2013-09-05T08:12:34Z</time>
      </trkpt>
      <trkpt lat="50.798636991530657" lon="15.687603000551462">
        <ele>565.87</ele>
        <time>2013-09-05T08:12:35Z</time>
      </trkpt>
      <trkpt lat="50.798528026789427" lon="15.687715988606215">
        <ele>567.79999999999995</ele>
        <time>2013-09-05T08:12:36Z</time>
      </trkpt>
      <trkpt lat="50.798401962965727" lon="15.687795029953122">
        <ele>570.67999999999995</ele>
        <time>2013-09-05T08:12:37Z</time>
      </trkpt>
      <trkpt lat="50.798291992396116" lon="15.687925033271313">
        <ele>571.63999999999999</ele>
        <time>2013-09-05T08:12:38Z</time>
      </trkpt>
      <trkpt lat="50.7981719635427" lon="15.688067022711039">
        <ele>572.60000000000002</ele>
        <time>2013-09-05T08:12:39Z</time>
      </trkpt>
      <trkpt lat="50.798078002408147" lon="15.688253017142415">
        <ele>574.52999999999997</ele>
        <time>2013-09-05T08:12:40Z</time>
      </trkpt>
      <trkpt lat="50.797985969111323" lon="15.688444962725043">
        <ele>575.49000000000001</ele>
        <time>2013-09-05T08:12:41Z</time>
      </trkpt>
      <trkpt lat="50.797894019633532" lon="15.688643027096987">
        <ele>576.45000000000005</ele>
        <time>2013-09-05T08:12:42Z</time>
      </trkpt>
      <trkpt lat="50.797810032963753" lon="15.688877971842885">
        <ele>576.92999999999995</ele>
        <time>2013-09-05T08:12:43Z</time>
      </trkpt>
      <trkpt lat="50.797084998339415" lon="15.690123019739985">
        <ele>580.28999999999996</ele>
        <time>2013-09-05T08:12:50Z</time>
      </trkpt>
      <trkpt lat="50.796776041388512" lon="15.690693994984031">
        <ele>582.70000000000005</ele>
        <time>2013-09-05T08:12:54Z</time>
      </trkpt>
      <trkpt lat="50.796736981719732" lon="15.690852999687195">
        <ele>582.22000000000003</ele>
        <time>2013-09-05T08:12:55Z</time>
      </trkpt>
      <trkpt lat="50.796473035588861" lon="15.691774003207684">
        <ele>588.46000000000004</ele>
        <time>2013-09-05T08:13:00Z</time>
      </trkpt>
      <trkpt lat="50.796443028375506" lon="15.691999979317188">
        <ele>588.95000000000005</ele>
        <time>2013-09-05T08:13:01Z</time>
      </trkpt>
      <trkpt lat="50.796405980363488" lon="15.6921979598701">
        <ele>589.90999999999997</ele>
        <time>2013-09-05T08:13:02Z</time>
      </trkpt>
      <trkpt lat="50.796353006735444" lon="15.692386971786618">
        <ele>590.87</ele>
        <time>2013-09-05T08:13:03Z</time>
      </trkpt>
      <trkpt lat="50.796287041157484" lon="15.692553017288446">
        <ele>592.30999999999995</ele>
        <time>2013-09-05T08:13:04Z</time>
      </trkpt>
      <trkpt lat="50.796114038676023" lon="15.692867003381252">
        <ele>595.19000000000005</ele>
        <time>2013-09-05T08:13:06Z</time>
      </trkpt>
      <trkpt lat="50.796010019257665" lon="15.693019973114133">
        <ele>596.63999999999999</ele>
        <time>2013-09-05T08:13:07Z</time>
      </trkpt>
      <trkpt lat="50.795783959329128" lon="15.693338988348842">
        <ele>600.48000000000002</ele>
        <time>2013-09-05T08:13:09Z</time>
      </trkpt>
      <trkpt lat="50.795679017901421" lon="15.693504028022289">
        <ele>602.39999999999998</ele>
        <time>2013-09-05T08:13:10Z</time>
      </trkpt>
      <trkpt lat="50.795551026239991" lon="15.693627996370196">
        <ele>603.85000000000002</ele>
        <time>2013-09-05T08:13:11Z</time>
      </trkpt>
      <trkpt lat="50.794843006879091" lon="15.694254962727427">
        <ele>612.5</ele>
        <time>2013-09-05T08:13:17Z</time>
      </trkpt>
      <trkpt lat="50.794749967753887" lon="15.694369040429592">
        <ele>613.94000000000005</ele>
        <time>2013-09-05T08:13:18Z</time>
      </trkpt>
      <trkpt lat="50.794664975255728" lon="15.694499965757132">
        <ele>615.38</ele>
        <time>2013-09-05T08:13:19Z</time>
      </trkpt>
      <trkpt lat="50.794592974707484" lon="15.694656036794186">
        <ele>616.82000000000005</ele>
        <time>2013-09-05T08:13:20Z</time>
      </trkpt>
      <trkpt lat="50.794509993866086" lon="15.694837002083659">
        <ele>618.75</ele>
        <time>2013-09-05T08:13:21Z</time>
      </trkpt>
      <trkpt lat="50.79423900693655" lon="15.695576034486294">
        <ele>623.07000000000005</ele>
        <time>2013-09-05T08:13:25Z</time>
      </trkpt>
      <trkpt lat="50.794204976409674" lon="15.695753982290626">
        <ele>625.47000000000003</ele>
        <time>2013-09-05T08:13:26Z</time>
      </trkpt>
      <trkpt lat="50.794164994731545" lon="15.695941988378763">
        <ele>626.91999999999996</ele>
        <time>2013-09-05T08:13:27Z</time>
      </trkpt>
      <trkpt lat="50.794101962819695" lon="15.696379020810127">
        <ele>630.75999999999999</ele>
        <time>2013-09-05T08:13:29Z</time>
      </trkpt>
      <trkpt lat="50.794027028605342" lon="15.697059966623783">
        <ele>636.52999999999997</ele>
        <time>2013-09-05T08:13:32Z</time>
      </trkpt>
      <trkpt lat="50.794006995856762" lon="15.69773898459971">
        <ele>642.77999999999997</ele>
        <time>2013-09-05T08:13:36Z</time>
      </trkpt>
      <trkpt lat="50.794058963656425" lon="15.697877034544945">
        <ele>643.25999999999999</ele>
        <time>2013-09-05T08:13:37Z</time>
      </trkpt>
      <trkpt lat="50.794125013053417" lon="15.698030004277825">
        <ele>643.25999999999999</ele>
        <time>2013-09-05T08:13:38Z</time>
      </trkpt>
      <trkpt lat="50.794234983623028" lon="15.698156990110874">
        <ele>644.22000000000003</ele>
        <time>2013-09-05T08:13:39Z</time>
      </trkpt>
      <trkpt lat="50.794337997213006" lon="15.6982989795506">
        <ele>644.70000000000005</ele>
        <time>2013-09-05T08:13:40Z</time>
      </trkpt>
      <trkpt lat="50.794877959415317" lon="15.699028959497809">
        <ele>655.27999999999997</ele>
        <time>2013-09-05T08:13:45Z</time>
      </trkpt>
      <trkpt lat="50.795140983536839" lon="15.699403965845704">
        <ele>658.15999999999997</ele>
        <time>2013-09-05T08:13:48Z</time>
      </trkpt>
      <trkpt lat="50.795252965763211" lon="15.699482001364231">
        <ele>657.20000000000005</ele>
        <time>2013-09-05T08:13:49Z</time>
      </trkpt>
      <trkpt lat="50.795382969081402" lon="15.699526006355882">
        <ele>655.75999999999999</ele>
        <time>2013-09-05T08:13:50Z</time>
      </trkpt>
      <trkpt lat="50.796606978401542" lon="15.699971001595259">
        <ele>644.70000000000005</ele>
        <time>2013-09-05T08:13:58Z</time>
      </trkpt>
      <trkpt lat="50.79692498780787" lon="15.70003897882998">
        <ele>640.38</ele>
        <time>2013-09-05T08:14:00Z</time>
      </trkpt>
      <trkpt lat="50.797087009996176" lon="15.700043002143502">
        <ele>639.40999999999997</ele>
        <time>2013-09-05T08:14:01Z</time>
      </trkpt>
      <trkpt lat="50.798607990145683" lon="15.699963038787246">
        <ele>634.61000000000001</ele>
        <time>2013-09-05T08:14:10Z</time>
      </trkpt>
      <trkpt lat="50.798755008727312" lon="15.700046019628644">
        <ele>634.13</ele>
        <time>2013-09-05T08:14:11Z</time>
      </trkpt>
      <trkpt lat="50.798903033137321" lon="15.700140986591578">
        <ele>632.67999999999995</ele>
        <time>2013-09-05T08:14:12Z</time>
      </trkpt>
      <trkpt lat="50.79902901314199" lon="15.700280964374542">
        <ele>633.16999999999996</ele>
        <time>2013-09-05T08:14:13Z</time>
      </trkpt>
      <trkpt lat="50.799148958176374" lon="15.700434017926455">
        <ele>633.64999999999998</ele>
        <time>2013-09-05T08:14:14Z</time>
      </trkpt>
      <trkpt lat="50.799790006130934" lon="15.701076993718743">
        <ele>634.61000000000001</ele>
        <time>2013-09-05T08:14:19Z</time>
      </trkpt>
      <trkpt lat="50.799935013055801" lon="15.701132984831929">
        <ele>635.57000000000005</ele>
        <time>2013-09-05T08:14:20Z</time>
      </trkpt>
      <trkpt lat="50.800080019980669" lon="15.70115402340889">
        <ele>635.57000000000005</ele>
        <time>2013-09-05T08:14:21Z</time>
      </trkpt>
      <trkpt lat="50.800224021077156" lon="15.701145976781845">
        <ele>636.52999999999997</ele>
        <time>2013-09-05T08:14:22Z</time>
      </trkpt>
      <trkpt lat="50.80038201995194" lon="15.701146982610226">
        <ele>637.97000000000003</ele>
        <time>2013-09-05T08:14:23Z</time>
      </trkpt>
      <trkpt lat="50.800538007169962" lon="15.701161986216903">
        <ele>638.45000000000005</ele>
        <time>2013-09-05T08:14:24Z</time>
      </trkpt>
      <trkpt lat="50.800690976902843" lon="15.701206997036934">
        <ele>638.45000000000005</ele>
        <time>2013-09-05T08:14:25Z</time>
      </trkpt>
      <trkpt lat="50.801592031493783" lon="15.701702032238245">
        <ele>640.38</ele>
        <time>2013-09-05T08:14:31Z</time>
      </trkpt>
      <trkpt lat="50.801723040640354" lon="15.701851984485984">
        <ele>640.38</ele>
        <time>2013-09-05T08:14:32Z</time>
      </trkpt>
      <trkpt lat="50.80326396971941" lon="15.703415963798761">
        <ele>632.67999999999995</ele>
        <time>2013-09-05T08:14:42Z</time>
      </trkpt>
      <trkpt lat="50.804326040670276" lon="15.70442003197968">
        <ele>630.27999999999997</ele>
        <time>2013-09-05T08:14:50Z</time>
      </trkpt>
      <trkpt lat="50.804686965420842" lon="15.704772993922234">
        <ele>631.24000000000001</ele>
        <time>2013-09-05T08:14:56Z</time>
      </trkpt>
      <trkpt lat="50.80478997901082" lon="15.704881036654115">
        <ele>631.72000000000003</ele>
        <time>2013-09-05T08:14:59Z</time>
      </trkpt>
      <trkpt lat="50.80511100590229" lon="15.705159986391664">
        <ele>630.75999999999999</ele>
        <time>2013-09-05T08:15:04Z</time>
      </trkpt>
      <trkpt lat="50.805244026705623" lon="15.705365007743239">
        <ele>630.75999999999999</ele>
        <time>2013-09-05T08:15:06Z</time>
      </trkpt>
      <trkpt lat="50.80530303530395" lon="15.705490987747908">
        <ele>630.75999999999999</ele>
        <time>2013-09-05T08:15:07Z</time>
      </trkpt>
      <trkpt lat="50.805351985618472" lon="15.705627026036382">
        <ele>630.27999999999997</ele>
        <time>2013-09-05T08:15:08Z</time>
      </trkpt>
      <trkpt lat="50.805395990610123" lon="15.705787036567926">
        <ele>630.75999999999999</ele>
        <time>2013-09-05T08:15:09Z</time>
      </trkpt>
      <trkpt lat="50.805423986166716" lon="15.705946041271091">
        <ele>630.75999999999999</ele>
        <time>2013-09-05T08:15:10Z</time>
      </trkpt>
      <trkpt lat="50.805445024743676" lon="15.706100016832352">
        <ele>630.27999999999997</ele>
        <time>2013-09-05T08:15:11Z</time>
      </trkpt>
      <trkpt lat="50.805459022521973" lon="15.706273019313812">
        <ele>630.27999999999997</ele>
        <time>2013-09-05T08:15:12Z</time>
      </trkpt>
      <trkpt lat="50.805464973673224" lon="15.706444010138512">
        <ele>629.79999999999995</ele>
        <time>2013-09-05T08:15:13Z</time>
      </trkpt>
      <trkpt lat="50.805465979501605" lon="15.706605026498437">
        <ele>629.79999999999995</ele>
        <time>2013-09-05T08:15:14Z</time>
      </trkpt>
      <trkpt lat="50.805306974798441" lon="15.708014024421573">
        <ele>628.36000000000001</ele>
        <time>2013-09-05T08:15:22Z</time>
      </trkpt>
      <trkpt lat="50.805190969258547" lon="15.709722004830837">
        <ele>625.96000000000004</ele>
        <time>2013-09-05T08:15:32Z</time>
      </trkpt>
      <trkpt lat="50.805122992023826" lon="15.710060968995094">
        <ele>624.50999999999999</ele>
        <time>2013-09-05T08:15:34Z</time>
      </trkpt>
      <trkpt lat="50.805082004517317" lon="15.710205975919962">
        <ele>624.02999999999997</ele>
        <time>2013-09-05T08:15:35Z</time>
      </trkpt>
      <trkpt lat="50.805035987868905" lon="15.710346959531307">
        <ele>623.54999999999995</ele>
        <time>2013-09-05T08:15:36Z</time>
      </trkpt>
      <trkpt lat="50.805036993697286" lon="15.710669998079538">
        <ele>621.63</ele>
        <time>2013-09-05T08:15:38Z</time>
      </trkpt>
      <trkpt lat="50.805057026445866" lon="15.710848029702902">
        <ele>619.71000000000004</ele>
        <time>2013-09-05T08:15:39Z</time>
      </trkpt>
      <trkpt lat="50.805092984810472" lon="15.711003011092544">
        <ele>619.23000000000002</ele>
        <time>2013-09-05T08:15:40Z</time>
      </trkpt>
      <trkpt lat="50.805139001458883" lon="15.711165033280849">
        <ele>618.25999999999999</ele>
        <time>2013-09-05T08:15:41Z</time>
      </trkpt>
      <trkpt lat="50.805179988965392" lon="15.71134096942842">
        <ele>616.82000000000005</ele>
        <time>2013-09-05T08:15:42Z</time>
      </trkpt>
      <trkpt lat="50.805246960371733" lon="15.711514977738261">
        <ele>615.86000000000001</ele>
        <time>2013-09-05T08:15:43Z</time>
      </trkpt>
      <trkpt lat="50.805457010865211" lon="15.712148984894156">
        <ele>612.98000000000002</ele>
        <time>2013-09-05T08:15:47Z</time>
      </trkpt>
      <trkpt lat="50.80551702529192" lon="15.712563972920179">
        <ele>611.53999999999996</ele>
        <time>2013-09-05T08:15:50Z</time>
      </trkpt>
      <trkpt lat="50.805611992254853" lon="15.713369976729155">
        <ele>606.73000000000002</ele>
        <time>2013-09-05T08:15:56Z</time>
      </trkpt>
      <trkpt lat="50.805648034438491" lon="15.713478019461036">
        <ele>606.25</ele>
        <time>2013-09-05T08:15:57Z</time>
      </trkpt>
      <trkpt lat="50.805703019723296" lon="15.713582038879395">
        <ele>604.80999999999995</ele>
        <time>2013-09-05T08:15:58Z</time>
      </trkpt>
      <trkpt lat="50.80579798668623" lon="15.71368102915585">
        <ele>604.80999999999995</ele>
        <time>2013-09-05T08:15:59Z</time>
      </trkpt>
      <trkpt lat="50.805874010547996" lon="15.713817989453673">
        <ele>603.36000000000001</ele>
        <time>2013-09-05T08:16:00Z</time>
      </trkpt>
      <trkpt lat="50.80599102191627" lon="15.713930977508426">
        <ele>602.88</ele>
        <time>2013-09-05T08:16:01Z</time>
      </trkpt>
      <trkpt lat="50.806259997189045" lon="15.714312018826604">
        <ele>600</ele>
        <time>2013-09-05T08:16:04Z</time>
      </trkpt>
      <trkpt lat="50.806310959160328" lon="15.714453002437949">
        <ele>599.03999999999996</ele>
        <time>2013-09-05T08:16:05Z</time>
      </trkpt>
      <trkpt lat="50.80633400939405" lon="15.714597003534436">
        <ele>598.08000000000004</ele>
        <time>2013-09-05T08:16:06Z</time>
      </trkpt>
      <trkpt lat="50.80633400939405" lon="15.714752990752459">
        <ele>597.60000000000002</ele>
        <time>2013-09-05T08:16:07Z</time>
      </trkpt>
      <trkpt lat="50.806316994130611" lon="15.714918030425906">
        <ele>596.63999999999999</ele>
        <time>2013-09-05T08:16:08Z</time>
      </trkpt>
      <trkpt lat="50.806265026330948" lon="15.715074017643929">
        <ele>595.66999999999996</ele>
        <time>2013-09-05T08:16:09Z</time>
      </trkpt>
      <trkpt lat="50.806229989975691" lon="15.71525095961988">
        <ele>594.23000000000002</ele>
        <time>2013-09-05T08:16:10Z</time>
      </trkpt>
      <trkpt lat="50.806178022176027" lon="15.715950010344386">
        <ele>590.38999999999999</ele>
        <time>2013-09-05T08:16:14Z</time>
      </trkpt>
      <trkpt lat="50.806195959448814" lon="15.716133993119001">
        <ele>587.98000000000002</ele>
        <time>2013-09-05T08:16:15Z</time>
      </trkpt>
      <trkpt lat="50.806226972490549" lon="15.71630297228694">
        <ele>587.01999999999998</ele>
        <time>2013-09-05T08:16:16Z</time>
      </trkpt>
      <trkpt lat="50.806273994967341" lon="15.716461976990104">
        <ele>585.58000000000004</ele>
        <time>2013-09-05T08:16:17Z</time>
      </trkpt>
      <trkpt lat="50.806349013000727" lon="15.716608995571733">
        <ele>584.62</ele>
        <time>2013-09-05T08:16:18Z</time>
      </trkpt>
      <trkpt lat="50.80642101354897" lon="15.716759031638503">
        <ele>583.65999999999997</ele>
        <time>2013-09-05T08:16:19Z</time>
      </trkpt>
      <trkpt lat="50.806487984955311" lon="15.716919964179397">
        <ele>582.22000000000003</ele>
        <time>2013-09-05T08:16:20Z</time>
      </trkpt>
      <trkpt lat="50.80670197494328" lon="15.71759101934731">
        <ele>576.45000000000005</ele>
        <time>2013-09-05T08:16:24Z</time>
      </trkpt>
      <trkpt lat="50.806737011298537" lon="15.717754969373345">
        <ele>575.49000000000001</ele>
        <time>2013-09-05T08:16:25Z</time>
      </trkpt>
      <trkpt lat="50.806857040151954" lon="15.719301011413336">
        <ele>566.35000000000002</ele>
        <time>2013-09-05T08:16:34Z</time>
      </trkpt>
      <trkpt lat="50.806819992139935" lon="15.719473008066416">
        <ele>565.38999999999999</ele>
        <time>2013-09-05T08:16:35Z</time>
      </trkpt>
      <trkpt lat="50.806771041825414" lon="15.719621032476425">
        <ele>564.42999999999995</ele>
        <time>2013-09-05T08:16:36Z</time>
      </trkpt>
      <trkpt lat="50.806713039055467" lon="15.719757992774248">
        <ele>563.47000000000003</ele>
        <time>2013-09-05T08:16:37Z</time>
      </trkpt>
      <trkpt lat="50.80665897578001" lon="15.719895958900452">
        <ele>562.02999999999997</ele>
        <time>2013-09-05T08:16:38Z</time>
      </trkpt>
      <trkpt lat="50.806627040728927" lon="15.72003903798759">
        <ele>561.54999999999995</ele>
        <time>2013-09-05T08:16:39Z</time>
      </trkpt>
      <trkpt lat="50.806622011587024" lon="15.72016904130578">
        <ele>559.62</ele>
        <time>2013-09-05T08:16:40Z</time>
      </trkpt>
      <trkpt lat="50.80665796995163" lon="15.720288986340165">
        <ele>558.65999999999997</ele>
        <time>2013-09-05T08:16:41Z</time>
      </trkpt>
      <trkpt lat="50.806723013520241" lon="15.720382025465369">
        <ele>558.65999999999997</ele>
        <time>2013-09-05T08:16:42Z</time>
      </trkpt>
      <trkpt lat="50.80680700019002" lon="15.720423012971878">
        <ele>558.65999999999997</ele>
        <time>2013-09-05T08:16:43Z</time>
      </trkpt>
      <trkpt lat="50.806877994909883" lon="15.720391999930143">
        <ele>557.22000000000003</ele>
        <time>2013-09-05T08:16:44Z</time>
      </trkpt>
      <trkpt lat="50.8069599699229" lon="15.720324022695422">
        <ele>556.74000000000001</ele>
        <time>2013-09-05T08:16:45Z</time>
      </trkpt>
      <trkpt lat="50.80702300183475" lon="15.720222014933825">
        <ele>556.74000000000001</ele>
        <time>2013-09-05T08:16:46Z</time>
      </trkpt>
      <trkpt lat="50.807075975462794" lon="15.720094023272395">
        <ele>555.77999999999997</ele>
        <time>2013-09-05T08:16:47Z</time>
      </trkpt>
      <trkpt lat="50.807133978232741" lon="15.719970976933837">
        <ele>555.29999999999995</ele>
        <time>2013-09-05T08:16:48Z</time>
      </trkpt>
      <trkpt lat="50.807506972923875" lon="15.719113005325198">
        <ele>550.49000000000001</ele>
        <time>2013-09-05T08:16:54Z</time>
      </trkpt>
      <trkpt lat="50.807560030370951" lon="15.718943020328879">
        <ele>550.00999999999999</ele>
        <time>2013-09-05T08:16:55Z</time>
      </trkpt>
      <trkpt lat="50.807603029534221" lon="15.718749985098839">
        <ele>548.57000000000005</ele>
        <time>2013-09-05T08:16:56Z</time>
      </trkpt>
      <trkpt lat="50.807633036747575" lon="15.718553010374308">
        <ele>548.57000000000005</ele>
        <time>2013-09-05T08:16:57Z</time>
      </trkpt>
      <trkpt lat="50.807665977627039" lon="15.718350000679493">
        <ele>546.64999999999998</ele>
        <time>2013-09-05T08:16:58Z</time>
      </trkpt>
      <trkpt lat="50.807759016752243" lon="15.717777013778687">
        <ele>543.27999999999997</ele>
        <time>2013-09-05T08:17:01Z</time>
      </trkpt>
      <trkpt lat="50.807759016752243" lon="15.717597976326942">
        <ele>542.79999999999995</ele>
        <time>2013-09-05T08:17:02Z</time>
      </trkpt>
      <trkpt lat="50.80773102119565" lon="15.717288013547659">
        <ele>539.91999999999996</ele>
        <time>2013-09-05T08:17:04Z</time>
      </trkpt>
      <trkpt lat="50.807754993438721" lon="15.716837989166379">
        <ele>537.02999999999997</ele>
        <time>2013-09-05T08:17:08Z</time>
      </trkpt>
      <trkpt lat="50.807814002037048" lon="15.716735981404781">
        <ele>535.59000000000003</ele>
        <time>2013-09-05T08:17:09Z</time>
      </trkpt>
      <trkpt lat="50.807863958179951" lon="15.716628022491932">
        <ele>535.11000000000001</ele>
        <time>2013-09-05T08:17:10Z</time>
      </trkpt>
      <trkpt lat="50.808250028640032" lon="15.715940035879612">
        <ele>532.23000000000002</ele>
        <time>2013-09-05T08:17:16Z</time>
      </trkpt>
      <trkpt lat="50.808324040845037" lon="15.715865017846227">
        <ele>531.75</ele>
        <time>2013-09-05T08:17:17Z</time>
      </trkpt>
      <trkpt lat="50.808404004201293" lon="15.715825036168098">
        <ele>531.26999999999998</ele>
        <time>2013-09-05T08:17:18Z</time>
      </trkpt>
      <trkpt lat="50.808499976992607" lon="15.715841967612505">
        <ele>530.78999999999996</ele>
        <time>2013-09-05T08:17:19Z</time>
      </trkpt>
      <trkpt lat="50.808583041653037" lon="15.715899970382452">
        <ele>530.29999999999995</ele>
        <time>2013-09-05T08:17:20Z</time>
      </trkpt>
      <trkpt lat="50.808626040816307" lon="15.716027962043881">
        <ele>529.82000000000005</ele>
        <time>2013-09-05T08:17:21Z</time>
      </trkpt>
      <trkpt lat="50.808668034151196" lon="15.716154025867581">
        <ele>528.86000000000001</ele>
        <time>2013-09-05T08:17:22Z</time>
      </trkpt>
      <trkpt lat="50.808673985302448" lon="15.716308001428843">
        <ele>527.89999999999998</ele>
        <time>2013-09-05T08:17:23Z</time>
      </trkpt>
      <trkpt lat="50.808674991130829" lon="15.716470023617148">
        <ele>527.41999999999996</ele>
        <time>2013-09-05T08:17:24Z</time>
      </trkpt>
      <trkpt lat="50.808668034151196" lon="15.716645959764719">
        <ele>526.46000000000004</ele>
        <time>2013-09-05T08:17:25Z</time>
      </trkpt>
      <trkpt lat="50.808667028322816" lon="15.71698903106153">
        <ele>524.53999999999996</ele>
        <time>2013-09-05T08:17:27Z</time>
      </trkpt>
      <trkpt lat="50.808698963373899" lon="15.717149041593075">
        <ele>523.58000000000004</ele>
        <time>2013-09-05T08:17:28Z</time>
      </trkpt>
      <trkpt lat="50.808753026649356" lon="15.71729295887053">
        <ele>523.58000000000004</ele>
        <time>2013-09-05T08:17:29Z</time>
      </trkpt>
      <trkpt lat="50.808804994449019" lon="15.717422962188721">
        <ele>523.09000000000003</ele>
        <time>2013-09-05T08:17:30Z</time>
      </trkpt>
      <trkpt lat="50.808870960026979" lon="15.717539973556995">
        <ele>521.64999999999998</ele>
        <time>2013-09-05T08:17:31Z</time>
      </trkpt>
      <trkpt lat="50.808962993323803" lon="15.717632006853819">
        <ele>520.69000000000005</ele>
        <time>2013-09-05T08:17:32Z</time>
      </trkpt>
      <trkpt lat="50.809053014963865" lon="15.717700989916921">
        <ele>519.25</ele>
        <time>2013-09-05T08:17:33Z</time>
      </trkpt>
      <trkpt lat="50.809150999411941" lon="15.717738959938288">
        <ele>517.80999999999995</ele>
        <time>2013-09-05T08:17:34Z</time>
      </trkpt>
      <trkpt lat="50.809258036315441" lon="15.717768967151642">
        <ele>516.37</ele>
        <time>2013-09-05T08:17:35Z</time>
      </trkpt>
      <trkpt lat="50.809454005211592" lon="15.717790005728602">
        <ele>513.96000000000004</ele>
        <time>2013-09-05T08:17:37Z</time>
      </trkpt>
      <trkpt lat="50.809749970212579" lon="15.717839961871505">
        <ele>511.07999999999998</ele>
        <time>2013-09-05T08:17:40Z</time>
      </trkpt>
      <trkpt lat="50.809846026822925" lon="15.717893019318581">
        <ele>510.60000000000002</ele>
        <time>2013-09-05T08:17:41Z</time>
      </trkpt>
      <trkpt lat="50.809937976300716" lon="15.717967031523585">
        <ele>509.16000000000003</ele>
        <time>2013-09-05T08:17:42Z</time>
      </trkpt>
      <trkpt lat="50.810034032911062" lon="15.718054035678506">
        <ele>507.23000000000002</ele>
        <time>2013-09-05T08:17:43Z</time>
      </trkpt>
      <trkpt lat="50.810109972953796" lon="15.718158977106214">
        <ele>506.75</ele>
        <time>2013-09-05T08:17:44Z</time>
      </trkpt>
      <trkpt lat="50.810177028179169" lon="15.718269031494856">
        <ele>506.26999999999998</ele>
        <time>2013-09-05T08:17:45Z</time>
      </trkpt>
      <trkpt lat="50.810323962941766" lon="15.718475980684161">
        <ele>504.35000000000002</ele>
        <time>2013-09-05T08:17:47Z</time>
      </trkpt>
      <trkpt lat="50.810409039258957" lon="15.718561979010701">
        <ele>502.91000000000003</ele>
        <time>2013-09-05T08:17:48Z</time>
      </trkpt>
      <trkpt lat="50.810746997594833" lon="15.718933967873454">
        <ele>499.54000000000002</ele>
        <time>2013-09-05T08:17:52Z</time>
      </trkpt>
      <trkpt lat="50.810811035335064" lon="15.719070006161928">
        <ele>499.54000000000002</ele>
        <time>2013-09-05T08:17:53Z</time>
      </trkpt>
      <trkpt lat="50.81087096594274" lon="15.719204032793641">
        <ele>498.10000000000002</ele>
        <time>2013-09-05T08:17:54Z</time>
      </trkpt>
      <trkpt lat="50.811485024169087" lon="15.720495013520122">
        <ele>489.93000000000001</ele>
        <time>2013-09-05T08:18:04Z</time>
      </trkpt>
      <trkpt lat="50.811530034989119" lon="15.720640020444989">
        <ele>488.97000000000003</ele>
        <time>2013-09-05T08:18:05Z</time>
      </trkpt>
      <trkpt lat="50.811916021630168" lon="15.722055975347757">
        <ele>481.75999999999999</ele>
        <time>2013-09-05T08:18:13Z</time>
      </trkpt>
      <trkpt lat="50.812107967212796" lon="15.72270498611033">
        <ele>481.27999999999997</ele>
        <time>2013-09-05T08:18:17Z</time>
      </trkpt>
      <trkpt lat="50.81213504076004" lon="15.722858039662242">
        <ele>481.27999999999997</ele>
        <time>2013-09-05T08:18:18Z</time>
      </trkpt>
      <trkpt lat="50.812154989689589" lon="15.723147969692945">
        <ele>481.27999999999997</ele>
        <time>2013-09-05T08:18:20Z</time>
      </trkpt>
      <trkpt lat="50.812144009396434" lon="15.72330404073">
        <ele>481.27999999999997</ele>
        <time>2013-09-05T08:18:21Z</time>
      </trkpt>
      <trkpt lat="50.812181979417801" lon="15.723747024312615">
        <ele>479.83999999999997</ele>
        <time>2013-09-05T08:18:24Z</time>
      </trkpt>
      <trkpt lat="50.812250962480903" lon="15.723847020417452">
        <ele>479.83999999999997</ele>
        <time>2013-09-05T08:18:25Z</time>
      </trkpt>
      <trkpt lat="50.812332015484571" lon="15.723947016522288">
        <ele>479.35000000000002</ele>
        <time>2013-09-05T08:18:26Z</time>
      </trkpt>
      <trkpt lat="50.812510969117284" lon="15.724195037037134">
        <ele>478.87</ele>
        <time>2013-09-05T08:18:28Z</time>
      </trkpt>
      <trkpt lat="50.812589004635811" lon="15.724328979849815">
        <ele>478.38999999999999</ele>
        <time>2013-09-05T08:18:29Z</time>
      </trkpt>
      <trkpt lat="50.812719007954001" lon="15.724573982879519">
        <ele>478.38999999999999</ele>
        <time>2013-09-05T08:18:31Z</time>
      </trkpt>
      <trkpt lat="50.812812969088554" lon="15.724670039489865">
        <ele>477.91000000000003</ele>
        <time>2013-09-05T08:18:32Z</time>
      </trkpt>
      <trkpt lat="50.812916988506913" lon="15.724757965654135">
        <ele>477.91000000000003</ele>
        <time>2013-09-05T08:18:33Z</time>
      </trkpt>
      <trkpt lat="50.813055038452148" lon="15.724899033084512">
        <ele>476.94999999999999</ele>
        <time>2013-09-05T08:18:34Z</time>
      </trkpt>
      <trkpt lat="50.813173977658153" lon="15.72502501308918">
        <ele>475.99000000000001</ele>
        <time>2013-09-05T08:18:35Z</time>
      </trkpt>
      <trkpt lat="50.813299035653472" lon="15.725182006135583">
        <ele>474.55000000000001</ele>
        <time>2013-09-05T08:18:36Z</time>
      </trkpt>
      <trkpt lat="50.81389800645411" lon="15.725849037989974">
        <ele>470.22000000000003</ele>
        <time>2013-09-05T08:18:42Z</time>
      </trkpt>
      <trkpt lat="50.814015017822385" lon="15.725910980254412">
        <ele>469.25999999999999</ele>
        <time>2013-09-05T08:18:43Z</time>
      </trkpt>
      <trkpt lat="50.814814986661077" lon="15.726214991882443">
        <ele>460.61000000000001</ele>
        <time>2013-09-05T08:18:50Z</time>
      </trkpt>
      <trkpt lat="50.814880030229688" lon="15.72629596106708">
        <ele>459.64999999999998</ele>
        <time>2013-09-05T08:18:51Z</time>
      </trkpt>
      <trkpt lat="50.814918000251055" lon="15.726416995748878">
        <ele>458.20999999999998</ele>
        <time>2013-09-05T08:18:52Z</time>
      </trkpt>
      <trkpt lat="50.814930992200971" lon="15.726564014330506">
        <ele>457.24000000000001</ele>
        <time>2013-09-05T08:18:53Z</time>
      </trkpt>
      <trkpt lat="50.814916994422674" lon="15.726731987670064">
        <ele>456.27999999999997</ele>
        <time>2013-09-05T08:18:54Z</time>
      </trkpt>
      <trkpt lat="50.814898973330855" lon="15.726911025121808">
        <ele>455.31999999999999</ele>
        <time>2013-09-05T08:18:55Z</time>
      </trkpt>
      <trkpt lat="50.814906014129519" lon="15.727273961529136">
        <ele>453.88</ele>
        <time>2013-09-05T08:18:57Z</time>
      </trkpt>
      <trkpt lat="50.814937027171254" lon="15.727436989545822">
        <ele>452.92000000000002</ele>
        <time>2013-09-05T08:18:58Z</time>
      </trkpt>
      <trkpt lat="50.814995029941201" lon="15.72758199647069">
        <ele>451.48000000000002</ele>
        <time>2013-09-05T08:18:59Z</time>
      </trkpt>
      <trkpt lat="50.815068036317825" lon="15.727707976475358">
        <ele>450.02999999999997</ele>
        <time>2013-09-05T08:19:00Z</time>
      </trkpt>
      <trkpt lat="50.815166020765901" lon="15.727800009772182">
        <ele>450.02999999999997</ele>
        <time>2013-09-05T08:19:01Z</time>
      </trkpt>
      <trkpt lat="50.815265011042356" lon="15.727891959249973">
        <ele>448.58999999999997</ele>
        <time>2013-09-05T08:19:02Z</time>
      </trkpt>
      <trkpt lat="50.815358972176909" lon="15.727978963404894">
        <ele>447.63</ele>
        <time>2013-09-05T08:19:03Z</time>
      </trkpt>
      <trkpt lat="50.815457040444016" lon="15.728009976446629">
        <ele>446.67000000000002</ele>
        <time>2013-09-05T08:19:04Z</time>
      </trkpt>
      <trkpt lat="50.815544966608286" lon="15.727993967011571">
        <ele>447.14999999999998</ele>
        <time>2013-09-05T08:19:05Z</time>
      </trkpt>
      <trkpt lat="50.815636999905109" lon="15.727936970070004">
        <ele>446.19</ele>
        <time>2013-09-05T08:19:06Z</time>
      </trkpt>
      <trkpt lat="50.815721992403269" lon="15.727834962308407">
        <ele>445.23000000000002</ele>
        <time>2013-09-05T08:19:07Z</time>
      </trkpt>
      <trkpt lat="50.815776977688074" lon="15.727678975090384">
        <ele>444.26999999999998</ele>
        <time>2013-09-05T08:19:08Z</time>
      </trkpt>
      <trkpt lat="50.815831962972879" lon="15.727504966780543">
        <ele>443.31</ele>
        <time>2013-09-05T08:19:09Z</time>
      </trkpt>
      <trkpt lat="50.815877979621291" lon="15.727313021197915">
        <ele>442.33999999999997</ele>
        <time>2013-09-05T08:19:10Z</time>
      </trkpt>
      <trkpt lat="50.815919972956181" lon="15.727138007059693">
        <ele>441.38</ele>
        <time>2013-09-05T08:19:11Z</time>
      </trkpt>
      <trkpt lat="50.815970012918115" lon="15.726798959076405">
        <ele>438.5</ele>
        <time>2013-09-05T08:19:13Z</time>
      </trkpt>
      <trkpt lat="50.81595903262496" lon="15.726612964645028">
        <ele>436.10000000000002</ele>
        <time>2013-09-05T08:19:14Z</time>
      </trkpt>
      <trkpt lat="50.815992979332805" lon="15.725935036316514">
        <ele>431.76999999999998</ele>
        <time>2013-09-05T08:19:18Z</time>
      </trkpt>
      <trkpt lat="50.816044025123119" lon="15.725763039663434">
        <ele>431.29000000000002</ele>
        <time>2013-09-05T08:19:19Z</time>
      </trkpt>
      <trkpt lat="50.816338984295726" lon="15.72491898201406">
        <ele>426</ele>
        <time>2013-09-05T08:19:24Z</time>
      </trkpt>
      <trkpt lat="50.816365974023938" lon="15.724750002846122">
        <ele>424.56</ele>
        <time>2013-09-05T08:19:25Z</time>
      </trkpt>
      <trkpt lat="50.816358011215925" lon="15.724584963172674">
        <ele>424.07999999999998</ele>
        <time>2013-09-05T08:19:26Z</time>
      </trkpt>
      <trkpt lat="50.816310988739133" lon="15.724449008703232">
        <ele>423.60000000000002</ele>
        <time>2013-09-05T08:19:27Z</time>
      </trkpt>
      <trkpt lat="50.816231025382876" lon="15.724354963749647">
        <ele>422.63999999999999</ele>
        <time>2013-09-05T08:19:28Z</time>
      </trkpt>
      <trkpt lat="50.816138992086053" lon="15.724307019263506">
        <ele>422.16000000000003</ele>
        <time>2013-09-05T08:19:29Z</time>
      </trkpt>
      <trkpt lat="50.816041007637978" lon="15.724293021485209">
        <ele>421.19</ele>
        <time>2013-09-05T08:19:30Z</time>
      </trkpt>
      <trkpt lat="50.815946040675044" lon="15.724272988736629">
        <ele>420.23000000000002</ele>
        <time>2013-09-05T08:19:31Z</time>
      </trkpt>
      <trkpt lat="50.81587596796453" lon="15.724227977916598">
        <ele>419.26999999999998</ele>
        <time>2013-09-05T08:19:32Z</time>
      </trkpt>
      <trkpt lat="50.815826011821628" lon="15.724117001518607">
        <ele>418.31</ele>
        <time>2013-09-05T08:19:33Z</time>
      </trkpt>
      <trkpt lat="50.815817965194583" lon="15.723997978493571">
        <ele>417.35000000000002</ele>
        <time>2013-09-05T08:19:34Z</time>
      </trkpt>
      <trkpt lat="50.815834980458021" lon="15.723884990438819">
        <ele>416.87</ele>
        <time>2013-09-05T08:19:35Z</time>
      </trkpt>
      <trkpt lat="50.815884014591575" lon="15.723787005990744">
        <ele>415.43000000000001</ele>
        <time>2013-09-05T08:19:36Z</time>
      </trkpt>
      <trkpt lat="50.81593899987638" lon="15.72369103319943">
        <ele>414.94999999999999</ele>
        <time>2013-09-05T08:19:37Z</time>
      </trkpt>
      <trkpt lat="50.816008988767862" lon="15.723591037094593">
        <ele>413.5</ele>
        <time>2013-09-05T08:19:38Z</time>
      </trkpt>
      <trkpt lat="50.816161958500743" lon="15.723399007692933">
        <ele>413.98000000000002</ele>
        <time>2013-09-05T08:19:40Z</time>
      </trkpt>
      <trkpt lat="50.816247034817934" lon="15.723324995487928">
        <ele>413.01999999999998</ele>
        <time>2013-09-05T08:19:41Z</time>
      </trkpt>
      <trkpt lat="50.816332027316093" lon="15.723266992717981">
        <ele>412.54000000000002</ele>
        <time>2013-09-05T08:19:42Z</time>
      </trkpt>
      <trkpt lat="50.816436968743801" lon="15.723223993554711">
        <ele>412.06</ele>
        <time>2013-09-05T08:19:43Z</time>
      </trkpt>
      <trkpt lat="50.816549034789205" lon="15.72319901548326">
        <ele>412.06</ele>
        <time>2013-09-05T08:19:44Z</time>
      </trkpt>
      <trkpt lat="50.816652970388532" lon="15.723183006048203">
        <ele>411.10000000000002</ele>
        <time>2013-09-05T08:19:45Z</time>
      </trkpt>
      <trkpt lat="50.816834019497037" lon="15.723123997449875">
        <ele>409.66000000000003</ele>
        <time>2013-09-05T08:19:47Z</time>
      </trkpt>
      <trkpt lat="50.816922029480338" lon="15.723073035478592">
        <ele>409.18000000000001</ele>
        <time>2013-09-05T08:19:48Z</time>
      </trkpt>
      <trkpt lat="50.817110035568476" lon="15.722911013290286">
        <ele>407.74000000000001</ele>
        <time>2013-09-05T08:19:50Z</time>
      </trkpt>
      <trkpt lat="50.817203996703029" lon="15.722800958901644">
        <ele>406.76999999999998</ele>
        <time>2013-09-05T08:19:51Z</time>
      </trkpt>
      <trkpt lat="50.817289995029569" lon="15.722672967240214">
        <ele>406.29000000000002</ele>
        <time>2013-09-05T08:19:52Z</time>
      </trkpt>
      <trkpt lat="50.817790981382132" lon="15.721929995343089">
        <ele>402.93000000000001</ele>
        <time>2013-09-05T08:19:58Z</time>
      </trkpt>
      <trkpt lat="50.817868011072278" lon="15.721850031986833">
        <ele>402.44999999999999</ele>
        <time>2013-09-05T08:19:59Z</time>
      </trkpt>
      <trkpt lat="50.817949986085296" lon="15.721800997853279">
        <ele>401.49000000000001</ele>
        <time>2013-09-05T08:20:00Z</time>
      </trkpt>
      <trkpt lat="50.81804696470499" lon="15.721769984811544">
        <ele>400.05000000000001</ele>
        <time>2013-09-05T08:20:01Z</time>
      </trkpt>
      <trkpt lat="50.818148972466588" lon="15.721756992861629">
        <ele>399.07999999999998</ele>
        <time>2013-09-05T08:20:02Z</time>
      </trkpt>
      <trkpt lat="50.818457007408142" lon="15.721734026446939">
        <ele>399.07999999999998</ele>
        <time>2013-09-05T08:20:05Z</time>
      </trkpt>
      <trkpt lat="50.818550968542695" lon="15.721745006740093">
        <ele>398.12</ele>
        <time>2013-09-05T08:20:06Z</time>
      </trkpt>
      <trkpt lat="50.818733023479581" lon="15.721722040325403">
        <ele>398.12</ele>
        <time>2013-09-05T08:20:08Z</time>
      </trkpt>
      <trkpt lat="50.818827990442514" lon="15.72167401202023">
        <ele>398.60000000000002</ele>
        <time>2013-09-05T08:20:09Z</time>
      </trkpt>
      <trkpt lat="50.819106018170714" lon="15.721565969288349">
        <ele>397.16000000000003</ele>
        <time>2013-09-05T08:20:12Z</time>
      </trkpt>
      <trkpt lat="50.81920400261879" lon="15.721590025350451">
        <ele>396.68000000000001</ele>
        <time>2013-09-05T08:20:13Z</time>
      </trkpt>
      <trkpt lat="50.82019398920238" lon="15.721647022292018">
        <ele>393.31999999999999</ele>
        <time>2013-09-05T08:20:22Z</time>
      </trkpt>
      <trkpt lat="50.821382040157914" lon="15.721305040642619">
        <ele>389.94999999999999</ele>
        <time>2013-09-05T08:20:33Z</time>
      </trkpt>
      <trkpt lat="50.821916973218322" lon="15.72124402038753">
        <ele>388.02999999999997</ele>
        <time>2013-09-05T08:20:40Z</time>
      </trkpt>
      <trkpt lat="50.821955027058721" lon="15.72128601372242">
        <ele>387.55000000000001</ele>
        <time>2013-09-05T08:20:41Z</time>
      </trkpt>
      <trkpt lat="50.821988973766565" lon="15.721348961815238">
        <ele>387.06999999999999</ele>
        <time>2013-09-05T08:20:42Z</time>
      </trkpt>
      <trkpt lat="50.822016969323158" lon="15.721453987061977">
        <ele>386.58999999999997</ele>
        <time>2013-09-05T08:20:43Z</time>
      </trkpt>
      <trkpt lat="50.822048988193274" lon="15.721562029793859">
        <ele>386.11000000000001</ele>
        <time>2013-09-05T08:20:44Z</time>
      </trkpt>
      <trkpt lat="50.822248980402946" lon="15.722266025841236">
        <ele>385.14999999999998</ele>
        <time>2013-09-05T08:20:49Z</time>
      </trkpt>
      <trkpt lat="50.822260966524482" lon="15.7224250305444">
        <ele>385.63</ele>
        <time>2013-09-05T08:20:50Z</time>
      </trkpt>
      <trkpt lat="50.822241017594934" lon="15.722588980570436">
        <ele>385.14999999999998</ele>
        <time>2013-09-05T08:20:51Z</time>
      </trkpt>
      <trkpt lat="50.822106990963221" lon="15.724103003740311">
        <ele>384.18000000000001</ele>
        <time>2013-09-05T08:20:58Z</time>
      </trkpt>
      <trkpt lat="50.821904987096786" lon="15.726505005732179">
        <ele>389.47000000000003</ele>
        <time>2013-09-05T08:21:07Z</time>
      </trkpt>
      <trkpt lat="50.821384973824024" lon="15.728521021082997">
        <ele>392.83999999999997</ele>
        <time>2013-09-05T08:21:15Z</time>
      </trkpt>
      <trkpt lat="50.820511998608708" lon="15.730535024777055">
        <ele>397.16000000000003</ele>
        <time>2013-09-05T08:21:25Z</time>
      </trkpt>
      <trkpt lat="50.820406973361969" lon="15.730853034183383">
        <ele>395.72000000000003</ele>
        <time>2013-09-05T08:21:27Z</time>
      </trkpt>
      <trkpt lat="50.820380989462137" lon="15.731006003916264">
        <ele>394.27999999999997</ele>
        <time>2013-09-05T08:21:28Z</time>
      </trkpt>
      <trkpt lat="50.820379983633757" lon="15.731151010841131">
        <ele>394.27999999999997</ele>
        <time>2013-09-05T08:21:29Z</time>
      </trkpt>
      <trkpt lat="50.820395993068814" lon="15.73127799667418">
        <ele>394.75999999999999</ele>
        <time>2013-09-05T08:21:30Z</time>
      </trkpt>
      <trkpt lat="50.820436980575323" lon="15.731381010264158">
        <ele>395.24000000000001</ele>
        <time>2013-09-05T08:21:31Z</time>
      </trkpt>
      <trkpt lat="50.820491965860128" lon="15.731459967792034">
        <ele>395.72000000000003</ele>
        <time>2013-09-05T08:21:32Z</time>
      </trkpt>
      <trkpt lat="50.820562960579991" lon="15.731533979997039">
        <ele>395.72000000000003</ele>
        <time>2013-09-05T08:21:33Z</time>
      </trkpt>
      <trkpt lat="50.820693969726563" lon="15.731768002733588">
        <ele>397.16000000000003</ele>
        <time>2013-09-05T08:21:38Z</time>
      </trkpt>
      <trkpt lat="50.820671003311872" lon="15.731827011331916">
        <ele>396.68000000000001</ele>
        <time>2013-09-05T08:21:39Z</time>
      </trkpt>
      <trkpt lat="50.820635966956615" lon="15.731904963031411">
        <ele>396.19999999999999</ele>
        <time>2013-09-05T08:21:40Z</time>
      </trkpt>
      <trkpt lat="50.820586010813713" lon="15.731998002156615">
        <ele>396.19999999999999</ele>
        <time>2013-09-05T08:21:41Z</time>
      </trkpt>
      <trkpt lat="50.820525996387005" lon="15.732108978554606">
        <ele>396.68000000000001</ele>
        <time>2013-09-05T08:21:42Z</time>
      </trkpt>
      <trkpt lat="50.819857958704233" lon="15.733391996473074">
        <ele>398.60000000000002</ele>
        <time>2013-09-05T08:21:50Z</time>
      </trkpt>
      <trkpt lat="50.819467026740313" lon="15.734349964186549">
        <ele>401.49000000000001</ele>
        <time>2013-09-05T08:21:55Z</time>
      </trkpt>
      <trkpt lat="50.819384967908263" lon="15.734644001349807">
        <ele>405.32999999999998</ele>
        <time>2013-09-05T08:22:00Z</time>
      </trkpt>
      <trkpt lat="50.8191810362041" lon="15.735312961041927">
        <ele>409.18000000000001</ele>
        <time>2013-09-05T08:22:06Z</time>
      </trkpt>
      <trkpt lat="50.818578964099288" lon="15.736720031127334">
        <ele>415.43000000000001</ele>
        <time>2013-09-05T08:22:13Z</time>
      </trkpt>
      <trkpt lat="50.817988039925694" lon="15.737983016297221">
        <ele>420.23000000000002</ele>
        <time>2013-09-05T08:22:19Z</time>
      </trkpt>
      <trkpt lat="50.817933976650238" lon="15.738203963264823">
        <ele>420.23000000000002</ele>
        <time>2013-09-05T08:22:20Z</time>
      </trkpt>
      <trkpt lat="50.817921990528703" lon="15.738436980172992">
        <ele>422.16000000000003</ele>
        <time>2013-09-05T08:22:21Z</time>
      </trkpt>
      <trkpt lat="50.817945962771773" lon="15.738677037879825">
        <ele>423.12</ele>
        <time>2013-09-05T08:22:22Z</time>
      </trkpt>
      <trkpt lat="50.81798099912703" lon="15.738920029252768">
        <ele>423.60000000000002</ele>
        <time>2013-09-05T08:22:23Z</time>
      </trkpt>
      <trkpt lat="50.818017963320017" lon="15.739178024232388">
        <ele>424.07999999999998</ele>
        <time>2013-09-05T08:22:24Z</time>
      </trkpt>
      <trkpt lat="50.818040007725358" lon="15.7394640147686">
        <ele>424.56</ele>
        <time>2013-09-05T08:22:25Z</time>
      </trkpt>
      <trkpt lat="50.818045036867261" lon="15.739756962284446">
        <ele>425.04000000000002</ele>
        <time>2013-09-05T08:22:26Z</time>
      </trkpt>
      <trkpt lat="50.818033972755075" lon="15.740054016932845">
        <ele>425.04000000000002</ele>
        <time>2013-09-05T08:22:27Z</time>
      </trkpt>
      <trkpt lat="50.817972030490637" lon="15.741411969065666">
        <ele>426.48000000000002</ele>
        <time>2013-09-05T08:22:32Z</time>
      </trkpt>
      <trkpt lat="50.817918973043561" lon="15.741639034822583">
        <ele>426.48000000000002</ele>
        <time>2013-09-05T08:22:33Z</time>
      </trkpt>
      <trkpt lat="50.817835992202163" lon="15.741850007325411">
        <ele>426.48000000000002</ele>
        <time>2013-09-05T08:22:34Z</time>
      </trkpt>
      <trkpt lat="50.81684298813343" lon="15.744148995727301">
        <ele>427.92000000000002</ele>
        <time>2013-09-05T08:22:44Z</time>
      </trkpt>
      <trkpt lat="50.816071014851332" lon="15.746106002479792">
        <ele>426.95999999999998</ele>
        <time>2013-09-05T08:22:52Z</time>
      </trkpt>
      <trkpt lat="50.81553197465837" lon="15.748054040595889">
        <ele>423.12</ele>
        <time>2013-09-05T08:22:59Z</time>
      </trkpt>
      <trkpt lat="50.815011039376259" lon="15.751085020601749">
        <ele>417.35000000000002</ele>
        <time>2013-09-05T08:23:09Z</time>
      </trkpt>
      <trkpt lat="50.814999975264072" lon="15.751373022794724">
        <ele>416.87</ele>
        <time>2013-09-05T08:23:10Z</time>
      </trkpt>
      <trkpt lat="50.815014978870749" lon="15.75166798196733">
        <ele>415.91000000000003</ele>
        <time>2013-09-05T08:23:11Z</time>
      </trkpt>
      <trkpt lat="50.815044986084104" lon="15.751967970281839">
        <ele>416.87</ele>
        <time>2013-09-05T08:23:12Z</time>
      </trkpt>
      <trkpt lat="50.815089996904135" lon="15.752264019101858">
        <ele>417.82999999999998</ele>
        <time>2013-09-05T08:23:13Z</time>
      </trkpt>
      <trkpt lat="50.815146993845701" lon="15.752556966617703">
        <ele>417.35000000000002</ele>
        <time>2013-09-05T08:23:14Z</time>
      </trkpt>
      <trkpt lat="50.815386967733502" lon="15.754024973139167">
        <ele>418.31</ele>
        <time>2013-09-05T08:23:19Z</time>
      </trkpt>
      <trkpt lat="50.815390991047025" lon="15.754299983382225">
        <ele>417.82999999999998</ele>
        <time>2013-09-05T08:23:20Z</time>
      </trkpt>
      <trkpt lat="50.815370958298445" lon="15.754594020545483">
        <ele>417.35000000000002</ele>
        <time>2013-09-05T08:23:21Z</time>
      </trkpt>
      <trkpt lat="50.815171971917152" lon="15.756280962377787">
        <ele>418.79000000000002</ele>
        <time>2013-09-05T08:23:28Z</time>
      </trkpt>
      <trkpt lat="50.815150011330843" lon="15.758124981075525">
        <ele>420.70999999999998</ele>
        <time>2013-09-05T08:23:37Z</time>
      </trkpt>
      <trkpt lat="50.815065018832684" lon="15.75987403281033">
        <ele>421.68000000000001</ele>
        <time>2013-09-05T08:23:47Z</time>
      </trkpt>
      <trkpt lat="50.8150589838624" lon="15.760047035291791">
        <ele>422.63999999999999</ele>
        <time>2013-09-05T08:23:48Z</time>
      </trkpt>
      <trkpt lat="50.815059989690781" lon="15.760586997494102">
        <ele>422.63999999999999</ele>
        <time>2013-09-05T08:23:51Z</time>
      </trkpt>
      <trkpt lat="50.815009027719498" lon="15.760934008285403">
        <ele>422.16000000000003</ele>
        <time>2013-09-05T08:23:53Z</time>
      </trkpt>
      <trkpt lat="50.814953958615661" lon="15.761080021038651">
        <ele>422.63999999999999</ele>
        <time>2013-09-05T08:23:54Z</time>
      </trkpt>
      <trkpt lat="50.814888998866081" lon="15.761213963851333">
        <ele>423.12</ele>
        <time>2013-09-05T08:23:55Z</time>
      </trkpt>
      <trkpt lat="50.814795037731528" lon="15.761513030156493">
        <ele>423.12</ele>
        <time>2013-09-05T08:23:57Z</time>
      </trkpt>
      <trkpt lat="50.814605019986629" lon="15.762063972651958">
        <ele>423.12</ele>
        <time>2013-09-05T08:24:01Z</time>
      </trkpt>
      <trkpt lat="50.814510975033045" lon="15.762144019827247">
        <ele>423.60000000000002</ele>
        <time>2013-09-05T08:24:02Z</time>
      </trkpt>
      <trkpt lat="50.813565999269485" lon="15.762511985376477">
        <ele>424.07999999999998</ele>
        <time>2013-09-05T08:24:11Z</time>
      </trkpt>
      <trkpt lat="50.81230997107923" lon="15.76281700283289">
        <ele>423.12</ele>
        <time>2013-09-05T08:24:22Z</time>
      </trkpt>
      <trkpt lat="50.812088018283248" lon="15.76284097507596">
        <ele>422.16000000000003</ele>
        <time>2013-09-05T08:24:24Z</time>
      </trkpt>
      <trkpt lat="50.811973018571734" lon="15.76281800866127">
        <ele>421.68000000000001</ele>
        <time>2013-09-05T08:24:25Z</time>
      </trkpt>
      <trkpt lat="50.811868999153376" lon="15.762779032811522">
        <ele>421.68000000000001</ele>
        <time>2013-09-05T08:24:26Z</time>
      </trkpt>
      <trkpt lat="50.811098031699657" lon="15.76232498511672">
        <ele>423.60000000000002</ele>
        <time>2013-09-05T08:24:35Z</time>
      </trkpt>
      <trkpt lat="50.810283981263638" lon="15.76193799264729">
        <ele>424.56</ele>
        <time>2013-09-05T08:24:46Z</time>
      </trkpt>
      <trkpt lat="50.809685010462999" lon="15.761748980730772">
        <ele>426.95999999999998</ele>
        <time>2013-09-05T08:24:53Z</time>
      </trkpt>
      <trkpt lat="50.809599012136459" lon="15.761761972680688">
        <ele>426.48000000000002</ele>
        <time>2013-09-05T08:24:54Z</time>
      </trkpt>
      <trkpt lat="50.809502033516765" lon="15.761813018471003">
        <ele>427.44</ele>
        <time>2013-09-05T08:24:55Z</time>
      </trkpt>
      <trkpt lat="50.809431038796902" lon="15.761854005977511">
        <ele>427.44</ele>
        <time>2013-09-05T08:24:56Z</time>
      </trkpt>
      <trkpt lat="50.809359960258007" lon="15.761888036504388">
        <ele>427.44</ele>
        <time>2013-09-05T08:24:57Z</time>
      </trkpt>
      <trkpt lat="50.808478016406298" lon="15.76219498179853">
        <ele>434.64999999999998</ele>
        <time>2013-09-05T08:25:08Z</time>
      </trkpt>
      <trkpt lat="50.808166963979602" lon="15.76234401203692">
        <ele>433.20999999999998</ele>
        <time>2013-09-05T08:25:12Z</time>
      </trkpt>
      <trkpt lat="50.808102004230022" lon="15.762407965958118">
        <ele>433.69</ele>
        <time>2013-09-05T08:25:13Z</time>
      </trkpt>
      <trkpt lat="50.80805397592485" lon="15.762498993426561">
        <ele>434.17000000000002</ele>
        <time>2013-09-05T08:25:14Z</time>
      </trkpt>
      <trkpt lat="50.808020029217005" lon="15.762599995359778">
        <ele>434.17000000000002</ele>
        <time>2013-09-05T08:25:15Z</time>
      </trkpt>
      <trkpt lat="50.807995973154902" lon="15.76270803809166">
        <ele>434.64999999999998</ele>
        <time>2013-09-05T08:25:16Z</time>
      </trkpt>
      <trkpt lat="50.807983987033367" lon="15.762826977297664">
        <ele>434.64999999999998</ele>
        <time>2013-09-05T08:25:17Z</time>
      </trkpt>
      <trkpt lat="50.807975018396974" lon="15.762956980615854">
        <ele>434.17000000000002</ele>
        <time>2013-09-05T08:25:18Z</time>
      </trkpt>
      <trkpt lat="50.807827999815345" lon="15.764012010768056">
        <ele>436.10000000000002</ele>
        <time>2013-09-05T08:25:25Z</time>
      </trkpt>
      <trkpt lat="50.807772008702159" lon="15.764161041006446">
        <ele>436.10000000000002</ele>
        <time>2013-09-05T08:25:26Z</time>
      </trkpt>
      <trkpt lat="50.807705037295818" lon="15.764301018789411">
        <ele>436.10000000000002</ele>
        <time>2013-09-05T08:25:27Z</time>
      </trkpt>
      <trkpt lat="50.807627001777291" lon="15.764426998794079">
        <ele>435.13</ele>
        <time>2013-09-05T08:25:28Z</time>
      </trkpt>
      <trkpt lat="50.807534968480468" lon="15.764530012384057">
        <ele>435.13</ele>
        <time>2013-09-05T08:25:29Z</time>
      </trkpt>
      <trkpt lat="50.807436984032393" lon="15.764620034024119">
        <ele>434.64999999999998</ele>
        <time>2013-09-05T08:25:30Z</time>
      </trkpt>
      <trkpt lat="50.807345034554601" lon="15.76468700543046">
        <ele>434.64999999999998</ele>
        <time>2013-09-05T08:25:31Z</time>
      </trkpt>
      <trkpt lat="50.805880967527628" lon="15.765552017837763">
        <ele>434.64999999999998</ele>
        <time>2013-09-05T08:25:47Z</time>
      </trkpt>
      <trkpt lat="50.805043028667569" lon="15.765773970633745">
        <ele>443.31</ele>
        <time>2013-09-05T08:25:57Z</time>
      </trkpt>
      <trkpt lat="50.804837001487613" lon="15.76584898866713">
        <ele>445.23000000000002</ele>
        <time>2013-09-05T08:26:00Z</time>
      </trkpt>
      <trkpt lat="50.804768018424511" lon="15.765893999487162">
        <ele>445.70999999999998</ele>
        <time>2013-09-05T08:26:01Z</time>
      </trkpt>
      <trkpt lat="50.804706998169422" lon="15.765947978943586">
        <ele>445.23000000000002</ele>
        <time>2013-09-05T08:26:02Z</time>
      </trkpt>
      <trkpt lat="50.804650001227856" lon="15.76602098532021">
        <ele>444.75</ele>
        <time>2013-09-05T08:26:03Z</time>
      </trkpt>
      <trkpt lat="50.804599961265922" lon="15.76610698364675">
        <ele>446.19</ele>
        <time>2013-09-05T08:26:04Z</time>
      </trkpt>
      <trkpt lat="50.804560985416174" lon="15.766199016943574">
        <ele>445.23000000000002</ele>
        <time>2013-09-05T08:26:05Z</time>
      </trkpt>
      <trkpt lat="50.804417990148067" lon="15.766538986936212">
        <ele>446.19</ele>
        <time>2013-09-05T08:26:09Z</time>
      </trkpt>
      <trkpt lat="50.804425030946732" lon="15.766629008576274">
        <ele>447.14999999999998</ele>
        <time>2013-09-05T08:26:10Z</time>
      </trkpt>
      <trkpt lat="50.80446501262486" lon="15.766694974154234">
        <ele>447.14999999999998</ele>
        <time>2013-09-05T08:26:11Z</time>
      </trkpt>
      <trkpt lat="50.804532989859581" lon="15.766720036044717">
        <ele>447.63</ele>
        <time>2013-09-05T08:26:12Z</time>
      </trkpt>
      <trkpt lat="50.80461697652936" lon="15.766702014952898">
        <ele>447.14999999999998</ele>
        <time>2013-09-05T08:26:13Z</time>
      </trkpt>
      <trkpt lat="50.804717978462577" lon="15.766669996082783">
        <ele>446.67000000000002</ele>
        <time>2013-09-05T08:26:14Z</time>
      </trkpt>
      <trkpt lat="50.80483197234571" lon="15.766647029668093">
        <ele>446.67000000000002</ele>
        <time>2013-09-05T08:26:15Z</time>
      </trkpt>
      <trkpt lat="50.8049619756639" lon="15.766638983041048">
        <ele>446.67000000000002</ele>
        <time>2013-09-05T08:26:16Z</time>
      </trkpt>
      <trkpt lat="50.806152960285544" lon="15.766538986936212">
        <ele>446.19</ele>
        <time>2013-09-05T08:26:23Z</time>
      </trkpt>
      <trkpt lat="50.808223960921168" lon="15.766480984166265">
        <ele>441.86000000000001</ele>
        <time>2013-09-05T08:26:33Z</time>
      </trkpt>
      <trkpt lat="50.809817025437951" lon="15.767205012962222">
        <ele>438.01999999999998</ele>
        <time>2013-09-05T08:26:41Z</time>
      </trkpt>
      <trkpt lat="50.811617039144039" lon="15.768892038613558">
        <ele>430.32999999999998</ele>
        <time>2013-09-05T08:26:51Z</time>
      </trkpt>
      <trkpt lat="50.813723998144269" lon="15.770359961315989">
        <ele>422.63999999999999</ele>
        <time>2013-09-05T08:27:02Z</time>
      </trkpt>
      <trkpt lat="50.816716002300382" lon="15.772242033854127">
        <ele>417.82999999999998</ele>
        <time>2013-09-05T08:27:17Z</time>
      </trkpt>
      <trkpt lat="50.820448966696858" lon="15.774645041674376">
        <ele>414.47000000000003</ele>
        <time>2013-09-05T08:27:36Z</time>
      </trkpt>
      <trkpt lat="50.821888977661729" lon="15.776127967983484">
        <ele>410.62</ele>
        <time>2013-09-05T08:27:44Z</time>
      </trkpt>
      <trkpt lat="50.823533004149795" lon="15.777939967811108">
        <ele>410.62</ele>
        <time>2013-09-05T08:27:54Z</time>
      </trkpt>
      <trkpt lat="50.82466397434473" lon="15.778350010514259">
        <ele>408.69999999999999</ele>
        <time>2013-09-05T08:28:01Z</time>
      </trkpt>
      <trkpt lat="50.825116010382771" lon="15.778341041877866">
        <ele>407.74000000000001</ele>
        <time>2013-09-05T08:28:05Z</time>
      </trkpt>
      <trkpt lat="50.825197985395789" lon="15.778359984979033">
        <ele>407.25999999999999</ele>
        <time>2013-09-05T08:28:06Z</time>
      </trkpt>
      <trkpt lat="50.825271997600794" lon="15.778398038819432">
        <ele>406.29000000000002</ele>
        <time>2013-09-05T08:28:07Z</time>
      </trkpt>
      <trkpt lat="50.825332012027502" lon="15.778450006619096">
        <ele>406.76999999999998</ele>
        <time>2013-09-05T08:28:08Z</time>
      </trkpt>
      <trkpt lat="50.82539102062583" lon="15.778500968590379">
        <ele>406.76999999999998</ele>
        <time>2013-09-05T08:28:09Z</time>
      </trkpt>
      <trkpt lat="50.825581038370728" lon="15.778655027970672">
        <ele>406.29000000000002</ele>
        <time>2013-09-05T08:28:12Z</time>
      </trkpt>
      <trkpt lat="50.825638035312295" lon="15.77871898189187">
        <ele>405.81</ele>
        <time>2013-09-05T08:28:13Z</time>
      </trkpt>
      <trkpt lat="50.825690003111959" lon="15.778795005753636">
        <ele>405.81</ele>
        <time>2013-09-05T08:28:14Z</time>
      </trkpt>
      <trkpt lat="50.825724033638835" lon="15.77888997271657">
        <ele>405.81</ele>
        <time>2013-09-05T08:28:15Z</time>
      </trkpt>
      <trkpt lat="50.825743982568383" lon="15.778988962993026">
        <ele>405.81</ele>
        <time>2013-09-05T08:28:16Z</time>
      </trkpt>
      <trkpt lat="50.82575898617506" lon="15.779087031260133">
        <ele>405.32999999999998</ele>
        <time>2013-09-05T08:28:17Z</time>
      </trkpt>
      <trkpt lat="50.825984962284565" lon="15.780397038906813">
        <ele>405.81</ele>
        <time>2013-09-05T08:28:28Z</time>
      </trkpt>
      <trkpt lat="50.826290985569358" lon="15.781970992684364">
        <ele>403.41000000000003</ele>
        <time>2013-09-05T08:28:40Z</time>
      </trkpt>
      <trkpt lat="50.826326021924615" lon="15.782408025115728">
        <ele>402.44999999999999</ele>
        <time>2013-09-05T08:28:47Z</time>
      </trkpt>
      <trkpt lat="50.826352005824447" lon="15.782471979036927">
        <ele>402.44999999999999</ele>
        <time>2013-09-05T08:28:48Z</time>
      </trkpt>
      <trkpt lat="50.826469017192721" lon="15.782811027020216">
        <ele>402.93000000000001</ele>
        <time>2013-09-05T08:28:52Z</time>
      </trkpt>
      <trkpt lat="50.826498018577695" lon="15.782900964841247">
        <ele>403.41000000000003</ele>
        <time>2013-09-05T08:28:53Z</time>
      </trkpt>
      <trkpt lat="50.826524002477527" lon="15.782995009794831">
        <ele>403.41000000000003</ele>
        <time>2013-09-05T08:28:54Z</time>
      </trkpt>
      <trkpt lat="50.82661603577435" lon="15.783446040004492">
        <ele>401.49000000000001</ele>
        <time>2013-09-05T08:29:00Z</time>
      </trkpt>
      <trkpt lat="50.82661896944046" lon="15.783532038331032">
        <ele>401.00999999999999</ele>
        <time>2013-09-05T08:29:01Z</time>
      </trkpt>
      <trkpt lat="50.826612012460828" lon="15.783629016950727">
        <ele>401.00999999999999</ele>
        <time>2013-09-05T08:29:02Z</time>
      </trkpt>
      <trkpt lat="50.826485026627779" lon="15.784440971910954">
        <ele>401.97000000000003</ele>
        <time>2013-09-05T08:29:11Z</time>
      </trkpt>
      <trkpt lat="50.826282016932964" lon="15.785149997100234">
        <ele>400.05000000000001</ele>
        <time>2013-09-05T08:29:22Z</time>
      </trkpt>
      <trkpt lat="50.826275981962681" lon="15.785196013748646">
        <ele>401.00999999999999</ele>
        <time>2013-09-05T08:29:24Z</time>
      </trkpt>
      <trkpt lat="50.826290985569358" lon="15.785223003476858">
        <ele>401.49000000000001</ele>
        <time>2013-09-05T08:29:25Z</time>
      </trkpt>
      <trkpt lat="50.826306995004416" lon="15.785246975719929">
        <ele>400.52999999999997</ele>
        <time>2013-09-05T08:29:26Z</time>
      </trkpt>
      <trkpt lat="50.826356029137969" lon="15.785315036773682">
        <ele>400.52999999999997</ele>
        <time>2013-09-05T08:29:29Z</time>
      </trkpt>
      <trkpt lat="50.826363991945982" lon="15.785311013460159">
        <ele>400.52999999999997</ele>
        <time>2013-09-05T08:29:30Z</time>
      </trkpt>
      <trkpt lat="50.82635996863246" lon="15.785287041217089">
        <ele>400.52999999999997</ele>
        <time>2013-09-05T08:29:31Z</time>
      </trkpt>
      <trkpt lat="50.826348988339305" lon="15.785260973498225">
        <ele>400.05000000000001</ele>
        <time>2013-09-05T08:29:32Z</time>
      </trkpt>
      <trkpt lat="50.826330967247486" lon="15.785239012911916">
        <ele>400.05000000000001</ele>
        <time>2013-09-05T08:29:33Z</time>
      </trkpt>
      <trkpt lat="50.826304983347654" lon="15.785209005698562">
        <ele>400.52999999999997</ele>
        <time>2013-09-05T08:29:34Z</time>
      </trkpt>
      <trkpt lat="50.826260978356004" lon="15.78518402762711">
        <ele>400.52999999999997</ele>
        <time>2013-09-05T08:29:35Z</time>
      </trkpt>
      <trkpt lat="50.826215967535973" lon="15.785139016807079">
        <ele>400.05000000000001</ele>
        <time>2013-09-05T08:29:36Z</time>
      </trkpt>
      <trkpt lat="50.826173974201083" lon="15.785086965188384">
        <ele>399.07999999999998</ele>
        <time>2013-09-05T08:29:37Z</time>
      </trkpt>
      <trkpt lat="50.826113959774375" lon="15.785062992945313">
        <ele>399.07999999999998</ele>
        <time>2013-09-05T08:29:38Z</time>
      </trkpt>
      <trkpt lat="50.826014969497919" lon="15.785060981288552">
        <ele>398.60000000000002</ele>
        <time>2013-09-05T08:29:40Z</time>
      </trkpt>
      <trkpt lat="50.825975993648171" lon="15.785094005987048">
        <ele>398.60000000000002</ele>
        <time>2013-09-05T08:29:41Z</time>
      </trkpt>
      <trkpt lat="50.825945986434817" lon="15.785134993493557">
        <ele>398.12</ele>
        <time>2013-09-05T08:29:42Z</time>
      </trkpt>
      <trkpt lat="50.825918996706605" lon="15.785200959071517">
        <ele>397.63999999999999</ele>
        <time>2013-09-05T08:29:43Z</time>
      </trkpt>
      <trkpt lat="50.825893012806773" lon="15.785287041217089">
        <ele>397.63999999999999</ele>
        <time>2013-09-05T08:29:44Z</time>
      </trkpt>
      <trkpt lat="50.825870968401432" lon="15.785384019836783">
        <ele>397.16000000000003</ele>
        <time>2013-09-05T08:29:45Z</time>
      </trkpt>
      <trkpt lat="50.825842972844839" lon="15.78548401594162">
        <ele>396.68000000000001</ele>
        <time>2013-09-05T08:29:46Z</time>
      </trkpt>
      <trkpt lat="50.825656978413463" lon="15.786191029474139">
        <ele>394.27999999999997</ele>
        <time>2013-09-05T08:29:55Z</time>
      </trkpt>
      <trkpt lat="50.825619008392096" lon="15.786246014758945">
        <ele>394.27999999999997</ele>
        <time>2013-09-05T08:29:56Z</time>
      </trkpt>
      <trkpt lat="50.825535021722317" lon="15.786471990868449">
        <ele>394.75999999999999</ele>
        <time>2013-09-05T08:29:59Z</time>
      </trkpt>
      <trkpt lat="50.825165966525674" lon="15.787378996610641">
        <ele>397.16000000000003</ele>
        <time>2013-09-05T08:30:07Z</time>
      </trkpt>
      <trkpt lat="50.824506981298327" lon="15.789232989773154">
        <ele>401.00999999999999</ele>
        <time>2013-09-05T08:30:19Z</time>
      </trkpt>
      <trkpt lat="50.82438200712204" lon="15.789658036082983">
        <ele>401.49000000000001</ele>
        <time>2013-09-05T08:30:22Z</time>
      </trkpt>
      <trkpt lat="50.824330961331725" lon="15.789774963632226">
        <ele>401.49000000000001</ele>
        <time>2013-09-05T08:30:23Z</time>
      </trkpt>
      <trkpt lat="50.824284022673965" lon="15.789863979443908">
        <ele>401.49000000000001</ele>
        <time>2013-09-05T08:30:24Z</time>
      </trkpt>
      <trkpt lat="50.82421001046896" lon="15.790013009682298">
        <ele>401.97000000000003</ele>
        <time>2013-09-05T08:30:26Z</time>
      </trkpt>
      <trkpt lat="50.824202969670296" lon="15.790095990523696">
        <ele>402.44999999999999</ele>
        <time>2013-09-05T08:30:27Z</time>
      </trkpt>
      <trkpt lat="50.824207998812199" lon="15.790178971365094">
        <ele>403.88999999999999</ele>
        <time>2013-09-05T08:30:28Z</time>
      </trkpt>
      <trkpt lat="50.824229037389159" lon="15.790262036025524">
        <ele>403.88999999999999</ele>
        <time>2013-09-05T08:30:29Z</time>
      </trkpt>
      <trkpt lat="50.824263989925385" lon="15.790344011038542">
        <ele>403.41000000000003</ele>
        <time>2013-09-05T08:30:30Z</time>
      </trkpt>
      <trkpt lat="50.824313024058938" lon="15.790412994101644">
        <ele>403.41000000000003</ele>
        <time>2013-09-05T08:30:31Z</time>
      </trkpt>
      <trkpt lat="50.824371026828885" lon="15.790467979386449">
        <ele>402.44999999999999</ele>
        <time>2013-09-05T08:30:32Z</time>
      </trkpt>
      <trkpt lat="50.824418971315026" lon="15.790507039055228">
        <ele>402.44999999999999</ele>
        <time>2013-09-05T08:30:33Z</time>
      </trkpt>
      <trkpt lat="50.824461970478296" lon="15.790525982156396">
        <ele>401.97000000000003</ele>
        <time>2013-09-05T08:30:34Z</time>
      </trkpt>
      <trkpt lat="50.824517961591482" lon="15.790550960227847">
        <ele>401.97000000000003</ele>
        <time>2013-09-05T08:30:35Z</time>
      </trkpt>
      <trkpt lat="50.824645031243563" lon="15.7906190212816">
        <ele>403.41000000000003</ele>
        <time>2013-09-05T08:30:37Z</time>
      </trkpt>
      <trkpt lat="50.825317008420825" lon="15.790988998487592">
        <ele>405.81</ele>
        <time>2013-09-05T08:30:46Z</time>
      </trkpt>
      <trkpt lat="50.826459964737296" lon="15.791643038392067">
        <ele>402.93000000000001</ele>
        <time>2013-09-05T08:30:58Z</time>
      </trkpt>
      <trkpt lat="50.827807020395994" lon="15.792111000046134">
        <ele>401.00999999999999</ele>
        <time>2013-09-05T08:31:10Z</time>
      </trkpt>
      <trkpt lat="50.828152019530535" lon="15.792285008355975">
        <ele>402.44999999999999</ele>
        <time>2013-09-05T08:31:17Z</time>
      </trkpt>
      <trkpt lat="50.828156964853406" lon="15.7923389878124">
        <ele>402.44999999999999</ele>
        <time>2013-09-05T08:31:18Z</time>
      </trkpt>
      <trkpt lat="50.828139027580619" lon="15.792418029159307">
        <ele>401.97000000000003</ele>
        <time>2013-09-05T08:31:19Z</time>
      </trkpt>
      <trkpt lat="50.828110026195645" lon="15.792519031092525">
        <ele>401.49000000000001</ele>
        <time>2013-09-05T08:31:20Z</time>
      </trkpt>
      <trkpt lat="50.828080018982291" lon="15.792635036632419">
        <ele>401.49000000000001</ele>
        <time>2013-09-05T08:31:21Z</time>
      </trkpt>
      <trkpt lat="50.827724039554596" lon="15.794048979878426">
        <ele>396.68000000000001</ele>
        <time>2013-09-05T08:31:30Z</time>
      </trkpt>
      <trkpt lat="50.827723033726215" lon="15.794216031208634">
        <ele>396.19999999999999</ele>
        <time>2013-09-05T08:31:31Z</time>
      </trkpt>
      <trkpt lat="50.827732002362609" lon="15.79438098706305">
        <ele>396.19999999999999</ele>
        <time>2013-09-05T08:31:32Z</time>
      </trkpt>
      <trkpt lat="50.827786987647414" lon="15.795053970068693">
        <ele>393.80000000000001</ele>
        <time>2013-09-05T08:31:37Z</time>
      </trkpt>
      <trkpt lat="50.827784975990653" lon="15.795203000307083">
        <ele>394.75999999999999</ele>
        <time>2013-09-05T08:31:38Z</time>
      </trkpt>
      <trkpt lat="50.827753040939569" lon="15.795726031064987">
        <ele>393.80000000000001</ele>
        <time>2013-09-05T08:31:41Z</time>
      </trkpt>
      <trkpt lat="50.827720016241074" lon="15.795908002182841">
        <ele>393.80000000000001</ele>
        <time>2013-09-05T08:31:42Z</time>
      </trkpt>
      <trkpt lat="50.827658995985985" lon="15.796095002442598">
        <ele>394.27999999999997</ele>
        <time>2013-09-05T08:31:43Z</time>
      </trkpt>
      <trkpt lat="50.827588001266122" lon="15.796280996873975">
        <ele>394.27999999999997</ele>
        <time>2013-09-05T08:31:44Z</time>
      </trkpt>
      <trkpt lat="50.827510971575975" lon="15.796455005183816">
        <ele>394.75999999999999</ele>
        <time>2013-09-05T08:31:45Z</time>
      </trkpt>
      <trkpt lat="50.826800018548965" lon="15.798249989748001">
        <ele>395.24000000000001</ele>
        <time>2013-09-05T08:31:55Z</time>
      </trkpt>
      <trkpt lat="50.826093005016446" lon="15.799652030691504">
        <ele>397.16000000000003</ele>
        <time>2013-09-05T08:32:05Z</time>
      </trkpt>
      <trkpt lat="50.825468972325325" lon="15.800919961184263">
        <ele>396.19999999999999</ele>
        <time>2013-09-05T08:32:16Z</time>
      </trkpt>
      <trkpt lat="50.825273003429174" lon="15.801310976967216">
        <ele>395.24000000000001</ele>
        <time>2013-09-05T08:32:19Z</time>
      </trkpt>
      <trkpt lat="50.825187005102634" lon="15.801433017477393">
        <ele>394.27999999999997</ele>
        <time>2013-09-05T08:32:20Z</time>
      </trkpt>
      <trkpt lat="50.82509103231132" lon="15.801522033289075">
        <ele>393.31999999999999</ele>
        <time>2013-09-05T08:32:21Z</time>
      </trkpt>
      <trkpt lat="50.823875991627574" lon="15.802368018776178">
        <ele>392.83999999999997</ele>
        <time>2013-09-05T08:32:31Z</time>
      </trkpt>
      <trkpt lat="50.82315900363028" lon="15.803119959309697">
        <ele>393.80000000000001</ele>
        <time>2013-09-05T08:32:37Z</time>
      </trkpt>
      <trkpt lat="50.822716020047665" lon="15.80374700948596">
        <ele>393.80000000000001</ele>
        <time>2013-09-05T08:32:41Z</time>
      </trkpt>
      <trkpt lat="50.822595991194248" lon="15.803869972005486">
        <ele>393.80000000000001</ele>
        <time>2013-09-05T08:32:42Z</time>
      </trkpt>
      <trkpt lat="50.821558982133865" lon="15.804528035223484">
        <ele>395.72000000000003</ele>
        <time>2013-09-05T08:32:50Z</time>
      </trkpt>
      <trkpt lat="50.821437025442719" lon="15.804615039378405">
        <ele>393.80000000000001</ele>
        <time>2013-09-05T08:32:51Z</time>
      </trkpt>
      <trkpt lat="50.821318002417684" lon="15.804717969149351">
        <ele>395.72000000000003</ele>
        <time>2013-09-05T08:32:52Z</time>
      </trkpt>
      <trkpt lat="50.820264983922243" lon="15.806126967072487">
        <ele>400.52999999999997</ele>
        <time>2013-09-05T08:33:02Z</time>
      </trkpt>
      <trkpt lat="50.81942000426352" lon="15.807251986116171">
        <ele>403.88999999999999</ele>
        <time>2013-09-05T08:33:10Z</time>
      </trkpt>
      <trkpt lat="50.819321013987064" lon="15.807347036898136">
        <ele>403.88999999999999</ele>
        <time>2013-09-05T08:33:11Z</time>
      </trkpt>
      <trkpt lat="50.819216994568706" lon="15.807413002476096">
        <ele>405.81</ele>
        <time>2013-09-05T08:33:12Z</time>
      </trkpt>
      <trkpt lat="50.818955982103944" lon="15.807674014940858">
        <ele>410.13999999999999</ele>
        <time>2013-09-05T08:33:15Z</time>
      </trkpt>
      <trkpt lat="50.818909965455532" lon="15.80780703574419">
        <ele>409.66000000000003</ele>
        <time>2013-09-05T08:33:16Z</time>
      </trkpt>
      <trkpt lat="50.81871097907424" lon="15.808445988222957">
        <ele>408.69999999999999</ele>
        <time>2013-09-05T08:33:22Z</time>
      </trkpt>
      <trkpt lat="50.818729000166059" lon="15.808520000427961">
        <ele>408.69999999999999</ele>
        <time>2013-09-05T08:33:23Z</time>
      </trkpt>
      <trkpt lat="50.818773005157709" lon="15.808565011247993">
        <ele>409.66000000000003</ele>
        <time>2013-09-05T08:33:24Z</time>
      </trkpt>
      <trkpt lat="50.818832013756037" lon="15.808578003197908">
        <ele>410.13999999999999</ele>
        <time>2013-09-05T08:33:25Z</time>
      </trkpt>
      <trkpt lat="50.818894961848855" lon="15.808585966005921">
        <ele>410.62</ele>
        <time>2013-09-05T08:33:26Z</time>
      </trkpt>
      <trkpt lat="50.818982971832156" lon="15.808600969612598">
        <ele>410.13999999999999</ele>
        <time>2013-09-05T08:33:27Z</time>
      </trkpt>
      <trkpt lat="50.819385973736644" lon="15.808776989579201">
        <ele>407.74000000000001</ele>
        <time>2013-09-05T08:33:31Z</time>
      </trkpt>
      <trkpt lat="50.819492004811764" lon="15.808856030926108">
        <ele>407.74000000000001</ele>
        <time>2013-09-05T08:33:32Z</time>
      </trkpt>
      <trkpt lat="50.820891028270125" lon="15.80985096283257">
        <ele>410.13999999999999</ele>
        <time>2013-09-05T08:33:44Z</time>
      </trkpt>
      <trkpt lat="50.821377011016011" lon="15.810046009719372">
        <ele>408.69999999999999</ele>
        <time>2013-09-05T08:33:48Z</time>
      </trkpt>
      <trkpt lat="50.821467032656074" lon="15.810184981673956">
        <ele>409.18000000000001</ele>
        <time>2013-09-05T08:33:49Z</time>
      </trkpt>
      <trkpt lat="50.821539033204317" lon="15.8103640191257">
        <ele>409.18000000000001</ele>
        <time>2013-09-05T08:33:50Z</time>
      </trkpt>
      <trkpt lat="50.821592006832361" lon="15.810570968315005">
        <ele>409.18000000000001</ele>
        <time>2013-09-05T08:33:51Z</time>
      </trkpt>
      <trkpt lat="50.821641962975264" lon="15.810778001323342">
        <ele>408.22000000000003</ele>
        <time>2013-09-05T08:33:52Z</time>
      </trkpt>
      <trkpt lat="50.821683034300804" lon="15.810990985482931">
        <ele>408.22000000000003</ele>
        <time>2013-09-05T08:33:53Z</time>
      </trkpt>
      <trkpt lat="50.821731984615326" lon="15.811187038198113">
        <ele>407.74000000000001</ele>
        <time>2013-09-05T08:33:54Z</time>
      </trkpt>
      <trkpt lat="50.821794010698795" lon="15.811359034851193">
        <ele>407.74000000000001</ele>
        <time>2013-09-05T08:33:55Z</time>
      </trkpt>
      <trkpt lat="50.821877997368574" lon="15.811498006805778">
        <ele>407.74000000000001</ele>
        <time>2013-09-05T08:33:56Z</time>
      </trkpt>
      <trkpt lat="50.821980005130172" lon="15.811593979597092">
        <ele>407.74000000000001</ele>
        <time>2013-09-05T08:33:57Z</time>
      </trkpt>
      <trkpt lat="50.822081007063389" lon="15.811684001237154">
        <ele>407.74000000000001</ele>
        <time>2013-09-05T08:33:58Z</time>
      </trkpt>
      <trkpt lat="50.823068981990218" lon="15.812463015317917">
        <ele>408.69999999999999</ele>
        <time>2013-09-05T08:34:06Z</time>
      </trkpt>
      <trkpt lat="50.823214994743466" lon="15.812522023916245">
        <ele>408.69999999999999</ele>
        <time>2013-09-05T08:34:07Z</time>
      </trkpt>
      <trkpt lat="50.823616990819573" lon="15.812675999477506">
        <ele>408.22000000000003</ele>
        <time>2013-09-05T08:34:10Z</time>
      </trkpt>
      <trkpt lat="50.823735008016229" lon="15.8127729780972">
        <ele>408.22000000000003</ele>
        <time>2013-09-05T08:34:11Z</time>
      </trkpt>
      <trkpt lat="50.823842966929078" lon="15.81290096975863">
        <ele>407.74000000000001</ele>
        <time>2013-09-05T08:34:12Z</time>
      </trkpt>
      <trkpt lat="50.823942963033915" lon="15.813052011653781">
        <ele>407.74000000000001</ele>
        <time>2013-09-05T08:34:13Z</time>
      </trkpt>
      <trkpt lat="50.824040025472641" lon="15.813213028013706">
        <ele>407.74000000000001</ele>
        <time>2013-09-05T08:34:14Z</time>
      </trkpt>
      <trkpt lat="50.824689036235213" lon="15.814570980146527">
        <ele>409.66000000000003</ele>
        <time>2013-09-05T08:34:22Z</time>
      </trkpt>
      <trkpt lat="50.824731029570103" lon="15.81476703286171">
        <ele>409.66000000000003</ele>
        <time>2013-09-05T08:34:23Z</time>
      </trkpt>
      <trkpt lat="50.82517703063786" lon="15.817181020975113">
        <ele>412.54000000000002</ele>
        <time>2013-09-05T08:34:35Z</time>
      </trkpt>
      <trkpt lat="50.82515699788928" lon="15.817350000143051">
        <ele>413.01999999999998</ele>
        <time>2013-09-05T08:34:36Z</time>
      </trkpt>
      <trkpt lat="50.825107963755727" lon="15.817486038431525">
        <ele>413.01999999999998</ele>
        <time>2013-09-05T08:34:37Z</time>
      </trkpt>
      <trkpt lat="50.825038980692625" lon="15.817753002047539">
        <ele>413.5</ele>
        <time>2013-09-05T08:34:39Z</time>
      </trkpt>
      <trkpt lat="50.825029006227851" lon="15.817905971780419">
        <ele>413.01999999999998</ele>
        <time>2013-09-05T08:34:40Z</time>
      </trkpt>
      <trkpt lat="50.825051972642541" lon="15.818074028939009">
        <ele>413.98000000000002</ele>
        <time>2013-09-05T08:34:41Z</time>
      </trkpt>
      <trkpt lat="50.825079968199134" lon="15.818243008106947">
        <ele>414.47000000000003</ele>
        <time>2013-09-05T08:34:42Z</time>
      </trkpt>
      <trkpt lat="50.825118022039533" lon="15.818421961739659">
        <ele>415.43000000000001</ele>
        <time>2013-09-05T08:34:43Z</time>
      </trkpt>
      <trkpt lat="50.825248025357723" lon="15.818969970569015">
        <ele>417.35000000000002</ele>
        <time>2013-09-05T08:34:46Z</time>
      </trkpt>
      <trkpt lat="50.825317008420825" lon="15.819135010242462">
        <ele>416.87</ele>
        <time>2013-09-05T08:34:47Z</time>
      </trkpt>
      <trkpt lat="50.825402000918984" lon="15.819290997460485">
        <ele>416.87</ele>
        <time>2013-09-05T08:34:48Z</time>
      </trkpt>
      <trkpt lat="50.825476013123989" lon="15.81945201382041">
        <ele>417.35000000000002</ele>
        <time>2013-09-05T08:34:49Z</time>
      </trkpt>
      <trkpt lat="50.825551031157374" lon="15.819614036008716">
        <ele>417.82999999999998</ele>
        <time>2013-09-05T08:34:50Z</time>
      </trkpt>
      <trkpt lat="50.826258966699243" lon="15.821024961769581">
        <ele>422.16000000000003</ele>
        <time>2013-09-05T08:34:59Z</time>
      </trkpt>
      <trkpt lat="50.826399028301239" lon="15.821517985314131">
        <ele>422.16000000000003</ele>
        <time>2013-09-05T08:35:02Z</time>
      </trkpt>
      <trkpt lat="50.826448984444141" lon="15.82164597697556">
        <ele>423.12</ele>
        <time>2013-09-05T08:35:03Z</time>
      </trkpt>
      <trkpt lat="50.826527019962668" lon="15.821744967252016">
        <ele>424.07999999999998</ele>
        <time>2013-09-05T08:35:04Z</time>
      </trkpt>
      <trkpt lat="50.826621986925602" lon="15.82181403413415">
        <ele>423.60000000000002</ele>
        <time>2013-09-05T08:35:05Z</time>
      </trkpt>
      <trkpt lat="50.826727012172341" lon="15.821874970570207">
        <ele>423.60000000000002</ele>
        <time>2013-09-05T08:35:06Z</time>
      </trkpt>
      <trkpt lat="50.826835976913571" lon="15.821931967511773">
        <ele>423.60000000000002</ele>
        <time>2013-09-05T08:35:07Z</time>
      </trkpt>
      <trkpt lat="50.827595964074135" lon="15.822275038808584">
        <ele>425.04000000000002</ele>
        <time>2013-09-05T08:35:13Z</time>
      </trkpt>
      <trkpt lat="50.827922020107508" lon="15.822597993537784">
        <ele>426.95999999999998</ele>
        <time>2013-09-05T08:35:16Z</time>
      </trkpt>
      <trkpt lat="50.827997960150242" lon="15.822720034047961">
        <ele>427.44</ele>
        <time>2013-09-05T08:35:17Z</time>
      </trkpt>
      <trkpt lat="50.828018998727202" lon="15.822882978245616">
        <ele>428.39999999999998</ele>
        <time>2013-09-05T08:35:18Z</time>
      </trkpt>
      <trkpt lat="50.828003995120525" lon="15.823023961856961">
        <ele>428.88999999999999</ele>
        <time>2013-09-05T08:35:19Z</time>
      </trkpt>
      <trkpt lat="50.827962001785636" lon="15.82317098043859">
        <ele>429.37</ele>
        <time>2013-09-05T08:35:20Z</time>
      </trkpt>
      <trkpt lat="50.827907016500831" lon="15.823338031768799">
        <ele>429.85000000000002</ele>
        <time>2013-09-05T08:35:21Z</time>
      </trkpt>
      <trkpt lat="50.827874997630715" lon="15.823529977351427">
        <ele>429.85000000000002</ele>
        <time>2013-09-05T08:35:22Z</time>
      </trkpt>
      <trkpt lat="50.827753040939569" lon="15.825136033818126">
        <ele>433.69</ele>
        <time>2013-09-05T08:35:29Z</time>
      </trkpt>
      <trkpt lat="50.82775698043406" lon="15.825379025191069">
        <ele>433.69</ele>
        <time>2013-09-05T08:35:30Z</time>
      </trkpt>
      <trkpt lat="50.828048000112176" lon="15.827814973890781">
        <ele>435.13</ele>
        <time>2013-09-05T08:35:40Z</time>
      </trkpt>
      <trkpt lat="50.828116983175278" lon="15.828243037685752">
        <ele>434.17000000000002</ele>
        <time>2013-09-05T08:35:42Z</time>
      </trkpt>
      <trkpt lat="50.828129975125194" lon="15.82849801518023">
        <ele>434.17000000000002</ele>
        <time>2013-09-05T08:35:43Z</time>
      </trkpt>
      <trkpt lat="50.828127963468432" lon="15.828767996281385">
        <ele>433.69</ele>
        <time>2013-09-05T08:35:44Z</time>
      </trkpt>
      <trkpt lat="50.828114971518517" lon="15.829581962898374">
        <ele>430.32999999999998</ele>
        <time>2013-09-05T08:35:47Z</time>
      </trkpt>
      <trkpt lat="50.828144978731871" lon="15.829835012555122">
        <ele>428.88999999999999</ele>
        <time>2013-09-05T08:35:48Z</time>
      </trkpt>
      <trkpt lat="50.828190995380282" lon="15.830078003928065">
        <ele>427.44</ele>
        <time>2013-09-05T08:35:49Z</time>
      </trkpt>
      <trkpt lat="50.828476985916495" lon="15.831781961023808">
        <ele>417.35000000000002</ele>
        <time>2013-09-05T08:35:56Z</time>
      </trkpt>
      <trkpt lat="50.82848796620965" lon="15.832034004852176">
        <ele>415.91000000000003</ele>
        <time>2013-09-05T08:35:57Z</time>
      </trkpt>
      <trkpt lat="50.828500958159566" lon="15.83277597092092">
        <ele>413.01999999999998</ele>
        <time>2013-09-05T08:36:00Z</time>
      </trkpt>
      <trkpt lat="50.828538006171584" lon="15.832998007535934">
        <ele>413.01999999999998</ele>
        <time>2013-09-05T08:36:01Z</time>
      </trkpt>
      <trkpt lat="50.828598020598292" lon="15.833205040544271">
        <ele>412.06</ele>
        <time>2013-09-05T08:36:02Z</time>
      </trkpt>
      <trkpt lat="50.828676978126168" lon="15.833411989733577">
        <ele>411.57999999999998</ele>
        <time>2013-09-05T08:36:03Z</time>
      </trkpt>
      <trkpt lat="50.828770017251372" lon="15.833608964458108">
        <ele>411.10000000000002</ele>
        <time>2013-09-05T08:36:04Z</time>
      </trkpt>
      <trkpt lat="50.82887495867908" lon="15.833772998303175">
        <ele>412.06</ele>
        <time>2013-09-05T08:36:05Z</time>
      </trkpt>
      <trkpt lat="50.829015020281076" lon="15.833924962207675">
        <ele>412.06</ele>
        <time>2013-09-05T08:36:06Z</time>
      </trkpt>
      <trkpt lat="50.829162038862705" lon="15.834043985232711">
        <ele>412.54000000000002</ele>
        <time>2013-09-05T08:36:07Z</time>
      </trkpt>
      <trkpt lat="50.829325988888741" lon="15.834117997437716">
        <ele>412.06</ele>
        <time>2013-09-05T08:36:08Z</time>
      </trkpt>
      <trkpt lat="50.829489016905427" lon="15.834188992157578">
        <ele>411.57999999999998</ele>
        <time>2013-09-05T08:36:09Z</time>
      </trkpt>
      <trkpt lat="50.830625016242266" lon="15.834655025973916">
        <ele>413.5</ele>
        <time>2013-09-05T08:36:16Z</time>
      </trkpt>
      <trkpt lat="50.830774968490005" lon="15.834777988493443">
        <ele>413.98000000000002</ele>
        <time>2013-09-05T08:36:17Z</time>
      </trkpt>
      <trkpt lat="50.831810971722007" lon="15.836175000295043">
        <ele>412.54000000000002</ele>
        <time>2013-09-05T08:36:25Z</time>
      </trkpt>
      <trkpt lat="50.831926977261901" lon="15.836356971412897">
        <ele>411.57999999999998</ele>
        <time>2013-09-05T08:36:26Z</time>
      </trkpt>
      <trkpt lat="50.832064021378756" lon="15.836495021358132">
        <ele>411.10000000000002</ele>
        <time>2013-09-05T08:36:27Z</time>
      </trkpt>
      <trkpt lat="50.832210034132004" lon="15.836610021069646">
        <ele>410.62</ele>
        <time>2013-09-05T08:36:28Z</time>
      </trkpt>
      <trkpt lat="50.833939975127578" lon="15.837524989619851">
        <ele>406.29000000000002</ele>
        <time>2013-09-05T08:36:38Z</time>
      </trkpt>
      <trkpt lat="50.835594981908798" lon="15.838663000613451">
        <ele>397.63999999999999</ele>
        <time>2013-09-05T08:36:48Z</time>
      </trkpt>
      <trkpt lat="50.83654398098588" lon="15.83960403688252">
        <ele>386.58999999999997</ele>
        <time>2013-09-05T08:36:56Z</time>
      </trkpt>
      <trkpt lat="50.836652023717761" lon="15.839668996632099">
        <ele>385.63</ele>
        <time>2013-09-05T08:36:57Z</time>
      </trkpt>
      <trkpt lat="50.836760988458991" lon="15.839708978310227">
        <ele>384.66000000000003</ele>
        <time>2013-09-05T08:36:58Z</time>
      </trkpt>
      <trkpt lat="50.836876993998885" lon="15.839728005230427">
        <ele>383.69999999999999</ele>
        <time>2013-09-05T08:36:59Z</time>
      </trkpt>
      <trkpt lat="50.836988976225257" lon="15.839722976088524">
        <ele>382.25999999999999</ele>
        <time>2013-09-05T08:37:00Z</time>
      </trkpt>
      <trkpt lat="50.837105987593532" lon="15.839705960825086">
        <ele>380.81999999999999</ele>
        <time>2013-09-05T08:37:01Z</time>
      </trkpt>
      <trkpt lat="50.837340010330081" lon="15.839719958603382">
        <ele>379.38</ele>
        <time>2013-09-05T08:37:03Z</time>
      </trkpt>
      <trkpt lat="50.838168980553746" lon="15.83990796469152">
        <ele>376.00999999999999</ele>
        <time>2013-09-05T08:37:10Z</time>
      </trkpt>
      <trkpt lat="50.838288003578782" lon="15.83988600410521">
        <ele>376.00999999999999</ele>
        <time>2013-09-05T08:37:11Z</time>
      </trkpt>
      <trkpt lat="50.838404009118676" lon="15.839851973578334">
        <ele>375.52999999999997</ele>
        <time>2013-09-05T08:37:12Z</time>
      </trkpt>
      <trkpt lat="50.838722018525004" lon="15.839801011607051">
        <ele>375.52999999999997</ele>
        <time>2013-09-05T08:37:15Z</time>
      </trkpt>
      <trkpt lat="50.838832994922996" lon="15.839850967749953">
        <ele>375.05000000000001</ele>
        <time>2013-09-05T08:37:16Z</time>
      </trkpt>
      <trkpt lat="50.838933996856213" lon="15.839923974126577">
        <ele>375.52999999999997</ele>
        <time>2013-09-05T08:37:17Z</time>
      </trkpt>
      <trkpt lat="50.839175982400775" lon="15.840050959959626">
        <ele>375.52999999999997</ele>
        <time>2013-09-05T08:37:19Z</time>
      </trkpt>
      <trkpt lat="50.839297017082572" lon="15.840089013800025">
        <ele>376.00999999999999</ele>
        <time>2013-09-05T08:37:20Z</time>
      </trkpt>
      <trkpt lat="50.83978702314198" lon="15.840124972164631">
        <ele>376.00999999999999</ele>
        <time>2013-09-05T08:37:24Z</time>
      </trkpt>
      <trkpt lat="50.839906968176365" lon="15.840087002143264">
        <ele>375.05000000000001</ele>
        <time>2013-09-05T08:37:25Z</time>
      </trkpt>
      <trkpt lat="50.840022973716259" lon="15.840016007423401">
        <ele>375.05000000000001</ele>
        <time>2013-09-05T08:37:26Z</time>
      </trkpt>
      <trkpt lat="50.840333020314574" lon="15.839761029928923">
        <ele>375.52999999999997</ele>
        <time>2013-09-05T08:37:29Z</time>
      </trkpt>
      <trkpt lat="50.840445002540946" lon="15.839705960825086">
        <ele>375.05000000000001</ele>
        <time>2013-09-05T08:37:30Z</time>
      </trkpt>
      <trkpt lat="50.84056000225246" lon="15.839691963046789">
        <ele>375.52999999999997</ele>
        <time>2013-09-05T08:37:31Z</time>
      </trkpt>
      <trkpt lat="50.841565998271108" lon="15.83990796469152">
        <ele>374.08999999999997</ele>
        <time>2013-09-05T08:37:39Z</time>
      </trkpt>
      <trkpt lat="50.841688960790634" lon="15.839896984398365">
        <ele>373.61000000000001</ele>
        <time>2013-09-05T08:37:40Z</time>
      </trkpt>
      <trkpt lat="50.841811001300812" lon="15.83986597135663">
        <ele>373.13</ele>
        <time>2013-09-05T08:37:41Z</time>
      </trkpt>
      <trkpt lat="50.843155039474368" lon="15.839287033304572">
        <ele>371.20999999999998</ele>
        <time>2013-09-05T08:37:52Z</time>
      </trkpt>
      <trkpt lat="50.84329099394381" lon="15.839276975020766">
        <ele>370.73000000000002</ele>
        <time>2013-09-05T08:37:53Z</time>
      </trkpt>
      <trkpt lat="50.843431977555156" lon="15.839293990284204">
        <ele>370.73000000000002</ele>
        <time>2013-09-05T08:37:54Z</time>
      </trkpt>
      <trkpt lat="50.843586958944798" lon="15.839342018589377">
        <ele>370.73000000000002</ele>
        <time>2013-09-05T08:37:55Z</time>
      </trkpt>
      <trkpt lat="50.843742024153471" lon="15.839403960853815">
        <ele>370.73000000000002</ele>
        <time>2013-09-05T08:37:56Z</time>
      </trkpt>
      <trkpt lat="50.843906980007887" lon="15.839496999979019">
        <ele>370.73000000000002</ele>
        <time>2013-09-05T08:37:57Z</time>
      </trkpt>
      <trkpt lat="50.844074031338096" lon="15.839608982205391">
        <ele>370.73000000000002</ele>
        <time>2013-09-05T08:37:58Z</time>
      </trkpt>
      <trkpt lat="50.845557041466236" lon="15.840784041211009">
        <ele>371.69</ele>
        <time>2013-09-05T08:38:07Z</time>
      </trkpt>
      <trkpt lat="50.845676986500621" lon="15.840956959873438">
        <ele>371.69</ele>
        <time>2013-09-05T08:38:08Z</time>
      </trkpt>
      <trkpt lat="50.845787962898612" lon="15.841158963739872">
        <ele>373.13</ele>
        <time>2013-09-05T08:38:09Z</time>
      </trkpt>
      <trkpt lat="50.845887959003448" lon="15.841381000354886">
        <ele>373.13</ele>
        <time>2013-09-05T08:38:10Z</time>
      </trkpt>
      <trkpt lat="50.845986027270555" lon="15.841618040576577">
        <ele>373.13</ele>
        <time>2013-09-05T08:38:11Z</time>
      </trkpt>
      <trkpt lat="50.847175000235438" lon="15.844124983996153">
        <ele>375.05000000000001</ele>
        <time>2013-09-05T08:38:22Z</time>
      </trkpt>
      <trkpt lat="50.847300980240107" lon="15.844305027276278">
        <ele>375.52999999999997</ele>
        <time>2013-09-05T08:38:23Z</time>
      </trkpt>
      <trkpt lat="50.847443975508213" lon="15.844486998394132">
        <ele>375.52999999999997</ele>
        <time>2013-09-05T08:38:24Z</time>
      </trkpt>
      <trkpt lat="50.848732022568583" lon="15.845994986593723">
        <ele>376.97000000000003</ele>
        <time>2013-09-05T08:38:34Z</time>
      </trkpt>
      <trkpt lat="50.848905025050044" lon="15.846226997673512">
        <ele>377.94</ele>
        <time>2013-09-05T08:38:36Z</time>
      </trkpt>
      <trkpt lat="50.848964033648372" lon="15.846350966021419">
        <ele>377.94</ele>
        <time>2013-09-05T08:38:37Z</time>
      </trkpt>
      <trkpt lat="50.848989011719823" lon="15.846435958519578">
        <ele>377.94</ele>
        <time>2013-09-05T08:38:38Z</time>
      </trkpt>
      <trkpt lat="50.848996974527836" lon="15.846498990431428">
        <ele>378.42000000000002</ele>
        <time>2013-09-05T08:38:39Z</time>
      </trkpt>
      <trkpt lat="50.849002003669739" lon="15.846550036221743">
        <ele>378.89999999999998</ele>
        <time>2013-09-05T08:38:40Z</time>
      </trkpt>
      <trkpt lat="50.849002003669739" lon="15.846612984314561">
        <ele>379.38</ele>
        <time>2013-09-05T08:38:41Z</time>
      </trkpt>
      <trkpt lat="50.848994962871075" lon="15.846702000126243">
        <ele>379.86000000000001</ele>
        <time>2013-09-05T08:38:42Z</time>
      </trkpt>
      <trkpt lat="50.84898398257792" lon="15.846809037029743">
        <ele>379.86000000000001</ele>
        <time>2013-09-05T08:38:43Z</time>
      </trkpt>
      <trkpt lat="50.84896101616323" lon="15.846938034519553">
        <ele>379.86000000000001</ele>
        <time>2013-09-05T08:38:44Z</time>
      </trkpt>
      <trkpt lat="50.848933020606637" lon="15.847083041444421">
        <ele>380.33999999999997</ele>
        <time>2013-09-05T08:38:45Z</time>
      </trkpt>
      <trkpt lat="50.848630014806986" lon="15.848525986075401">
        <ele>380.33999999999997</ele>
        <time>2013-09-05T08:38:52Z</time>
      </trkpt>
      <trkpt lat="50.848392974585295" lon="15.850275037810206">
        <ele>380.33999999999997</ele>
        <time>2013-09-05T08:39:00Z</time>
      </trkpt>
      <trkpt lat="50.848477967083454" lon="15.851368959993124">
        <ele>379.86000000000001</ele>
        <time>2013-09-05T08:39:06Z</time>
      </trkpt>
      <trkpt lat="50.848471010103822" lon="15.851543974131346">
        <ele>379.38</ele>
        <time>2013-09-05T08:39:07Z</time>
      </trkpt>
      <trkpt lat="50.848437985405326" lon="15.85170297883451">
        <ele>380.33999999999997</ele>
        <time>2013-09-05T08:39:08Z</time>
      </trkpt>
      <trkpt lat="50.848365984857082" lon="15.852193990722299">
        <ele>380.33999999999997</ele>
        <time>2013-09-05T08:39:12Z</time>
      </trkpt>
      <trkpt lat="50.848399009555578" lon="15.852260962128639">
        <ele>379.86000000000001</ele>
        <time>2013-09-05T08:39:13Z</time>
      </trkpt>
      <trkpt lat="50.848448965698481" lon="15.852315025404096">
        <ele>380.33999999999997</ele>
        <time>2013-09-05T08:39:14Z</time>
      </trkpt>
      <trkpt lat="50.848661027848721" lon="15.852548964321613">
        <ele>381.77999999999997</ele>
        <time>2013-09-05T08:39:17Z</time>
      </trkpt>
      <trkpt lat="50.849149022251368" lon="15.853212978690863">
        <ele>380.33999999999997</ele>
        <time>2013-09-05T08:39:23Z</time>
      </trkpt>
      <trkpt lat="50.849257986992598" lon="15.85329202003777">
        <ele>380.81999999999999</ele>
        <time>2013-09-05T08:39:24Z</time>
      </trkpt>
      <trkpt lat="50.84937097504735" lon="15.853340970352292">
        <ele>380.81999999999999</ele>
        <time>2013-09-05T08:39:25Z</time>
      </trkpt>
      <trkpt lat="50.849487986415625" lon="15.853372989222407">
        <ele>380.81999999999999</ele>
        <time>2013-09-05T08:39:26Z</time>
      </trkpt>
      <trkpt lat="50.849609021097422" lon="15.853384975343943">
        <ele>380.33999999999997</ele>
        <time>2013-09-05T08:39:27Z</time>
      </trkpt>
      <trkpt lat="50.84973500110209" lon="15.853387992829084">
        <ele>379.86000000000001</ele>
        <time>2013-09-05T08:39:28Z</time>
      </trkpt>
      <trkpt lat="50.850304970517755" lon="15.853426968678832">
        <ele>379.86000000000001</ele>
        <time>2013-09-05T08:39:33Z</time>
      </trkpt>
      <trkpt lat="50.850389963015914" lon="15.853513972833753">
        <ele>379.86000000000001</ele>
        <time>2013-09-05T08:39:34Z</time>
      </trkpt>
      <trkpt lat="50.850475961342454" lon="15.853621009737253">
        <ele>379.86000000000001</ele>
        <time>2013-09-05T08:39:35Z</time>
      </trkpt>
      <trkpt lat="50.851019024848938" lon="15.854547964408994">
        <ele>379.86000000000001</ele>
        <time>2013-09-05T08:39:42Z</time>
      </trkpt>
      <trkpt lat="50.851055989041924" lon="15.854674028232694">
        <ele>379.38</ele>
        <time>2013-09-05T08:39:43Z</time>
      </trkpt>
      <trkpt lat="50.851065963506699" lon="15.854844013229012">
        <ele>380.33999999999997</ele>
        <time>2013-09-05T08:39:44Z</time>
      </trkpt>
      <trkpt lat="50.851070992648602" lon="15.855009974911809">
        <ele>380.33999999999997</ele>
        <time>2013-09-05T08:39:45Z</time>
      </trkpt>
      <trkpt lat="50.851073004305363" lon="15.855194963514805">
        <ele>380.81999999999999</ele>
        <time>2013-09-05T08:39:46Z</time>
      </trkpt>
      <trkpt lat="50.851143999025226" lon="15.856345966458321">
        <ele>382.25999999999999</ele>
        <time>2013-09-05T08:39:52Z</time>
      </trkpt>
      <trkpt lat="50.85113100707531" lon="15.856539001688361">
        <ele>382.25999999999999</ele>
        <time>2013-09-05T08:39:53Z</time>
      </trkpt>
      <trkpt lat="50.851071998476982" lon="15.857123974710703">
        <ele>382.74000000000001</ele>
        <time>2013-09-05T08:39:56Z</time>
      </trkpt>
      <trkpt lat="50.851085996255279" lon="15.857321033254266">
        <ele>381.77999999999997</ele>
        <time>2013-09-05T08:39:57Z</time>
      </trkpt>
      <trkpt lat="50.851109968498349" lon="15.857511973008513">
        <ele>380.81999999999999</ele>
        <time>2013-09-05T08:39:58Z</time>
      </trkpt>
      <trkpt lat="50.851142993196845" lon="15.857696961611509">
        <ele>380.33999999999997</ele>
        <time>2013-09-05T08:39:59Z</time>
      </trkpt>
      <trkpt lat="50.851198984310031" lon="15.85786803625524">
        <ele>380.33999999999997</ele>
        <time>2013-09-05T08:40:00Z</time>
      </trkpt>
      <trkpt lat="50.85126000456512" lon="15.858046989887953">
        <ele>380.33999999999997</ele>
        <time>2013-09-05T08:40:01Z</time>
      </trkpt>
      <trkpt lat="50.851341979578137" lon="15.858204988762736">
        <ele>380.33999999999997</ele>
        <time>2013-09-05T08:40:02Z</time>
      </trkpt>
      <trkpt lat="50.851394031196833" lon="15.858376985415816">
        <ele>380.33999999999997</ele>
        <time>2013-09-05T08:40:03Z</time>
      </trkpt>
      <trkpt lat="50.851424038410187" lon="15.858554011210799">
        <ele>380.81999999999999</ele>
        <time>2013-09-05T08:40:04Z</time>
      </trkpt>
      <trkpt lat="50.851445998996496" lon="15.858744028955698">
        <ele>380.81999999999999</ele>
        <time>2013-09-05T08:40:05Z</time>
      </trkpt>
      <trkpt lat="50.851456979289651" lon="15.858939997851849">
        <ele>380.81999999999999</ele>
        <time>2013-09-05T08:40:06Z</time>
      </trkpt>
      <trkpt lat="50.851463014259934" lon="15.859144013375044">
        <ele>380.81999999999999</ele>
        <time>2013-09-05T08:40:07Z</time>
      </trkpt>
      <trkpt lat="50.851450022310019" lon="15.859356997534633">
        <ele>382.74000000000001</ele>
        <time>2013-09-05T08:40:08Z</time>
      </trkpt>
      <trkpt lat="50.851425966247916" lon="15.86033902131021">
        <ele>384.66000000000003</ele>
        <time>2013-09-05T08:40:13Z</time>
      </trkpt>
      <trkpt lat="50.851449016481638" lon="15.860531972721219">
        <ele>385.14999999999998</ele>
        <time>2013-09-05T08:40:14Z</time>
      </trkpt>
      <trkpt lat="50.851550018414855" lon="15.861275028437376">
        <ele>386.11000000000001</ele>
        <time>2013-09-05T08:40:18Z</time>
      </trkpt>
      <trkpt lat="50.851568961516023" lon="15.862370962277055">
        <ele>388.02999999999997</ele>
        <time>2013-09-05T08:40:24Z</time>
      </trkpt>
      <trkpt lat="50.851610032841563" lon="15.862556034699082">
        <ele>389.47000000000003</ele>
        <time>2013-09-05T08:40:25Z</time>
      </trkpt>
      <trkpt lat="50.851658983156085" lon="15.862730965018272">
        <ele>389.94999999999999</ele>
        <time>2013-09-05T08:40:26Z</time>
      </trkpt>
      <trkpt lat="50.851724026724696" lon="15.862901033833623">
        <ele>389.47000000000003</ele>
        <time>2013-09-05T08:40:27Z</time>
      </trkpt>
      <trkpt lat="50.851793009787798" lon="15.863066995516419">
        <ele>388.50999999999999</ele>
        <time>2013-09-05T08:40:28Z</time>
      </trkpt>
      <trkpt lat="50.852170027792454" lon="15.864036027342081">
        <ele>390.91000000000003</ele>
        <time>2013-09-05T08:40:34Z</time>
      </trkpt>
      <trkpt lat="50.852190982550383" lon="15.864204000681639">
        <ele>390.91000000000003</ele>
        <time>2013-09-05T08:40:35Z</time>
      </trkpt>
      <trkpt lat="50.852196011692286" lon="15.86525903083384">
        <ele>391.87</ele>
        <time>2013-09-05T08:40:41Z</time>
      </trkpt>
      <trkpt lat="50.852016974240541" lon="15.866543976590037">
        <ele>393.31999999999999</ele>
        <time>2013-09-05T08:40:48Z</time>
      </trkpt>
      <trkpt lat="50.851951008662581" lon="15.867941994220018">
        <ele>396.68000000000001</ele>
        <time>2013-09-05T08:40:56Z</time>
      </trkpt>
      <trkpt lat="50.851960983127356" lon="15.868080966174603">
        <ele>397.16000000000003</ele>
        <time>2013-09-05T08:40:57Z</time>
      </trkpt>
      <trkpt lat="50.852009011432528" lon="15.868190014734864">
        <ele>397.63999999999999</ele>
        <time>2013-09-05T08:40:58Z</time>
      </trkpt>
      <trkpt lat="50.85216298699379" lon="15.86856703273952">
        <ele>399.07999999999998</ele>
        <time>2013-09-05T08:41:01Z</time>
      </trkpt>
      <trkpt lat="50.852172039449215" lon="15.868711033836007">
        <ele>399.56999999999999</ele>
        <time>2013-09-05T08:41:02Z</time>
      </trkpt>
      <trkpt lat="50.852171033620834" lon="15.868866015225649">
        <ele>400.05000000000001</ele>
        <time>2013-09-05T08:41:03Z</time>
      </trkpt>
      <trkpt lat="50.852166004478931" lon="15.869015967473388">
        <ele>399.56999999999999</ele>
        <time>2013-09-05T08:41:04Z</time>
      </trkpt>
      <trkpt lat="50.85216399282217" lon="15.869156029075384">
        <ele>399.07999999999998</ele>
        <time>2013-09-05T08:41:05Z</time>
      </trkpt>
      <trkpt lat="50.852124011144042" lon="15.869557019323111">
        <ele>401.00999999999999</ele>
        <time>2013-09-05T08:41:08Z</time>
      </trkpt>
      <trkpt lat="50.852099033072591" lon="15.869693979620934">
        <ele>401.00999999999999</ele>
        <time>2013-09-05T08:41:09Z</time>
      </trkpt>
      <trkpt lat="50.852060979232192" lon="15.869840998202562">
        <ele>401.00999999999999</ele>
        <time>2013-09-05T08:41:10Z</time>
      </trkpt>
      <trkpt lat="50.851829973980784" lon="15.870713973417878">
        <ele>400.52999999999997</ele>
        <time>2013-09-05T08:41:15Z</time>
      </trkpt>
      <trkpt lat="50.85147600620985" lon="15.872744992375374">
        <ele>401.97000000000003</ele>
        <time>2013-09-05T08:41:25Z</time>
      </trkpt>
      <trkpt lat="50.851435018703341" lon="15.873155035078526">
        <ele>403.41000000000003</ele>
        <time>2013-09-05T08:41:27Z</time>
      </trkpt>
      <trkpt lat="50.851424960419536" lon="15.873362990096211">
        <ele>403.88999999999999</ele>
        <time>2013-09-05T08:41:28Z</time>
      </trkpt>
      <trkpt lat="50.851469971239567" lon="15.875366013497114">
        <ele>402.44999999999999</ele>
        <time>2013-09-05T08:41:38Z</time>
      </trkpt>
      <trkpt lat="50.851438036188483" lon="15.875753005966544">
        <ele>402.93000000000001</ele>
        <time>2013-09-05T08:41:40Z</time>
      </trkpt>
      <trkpt lat="50.851385984569788" lon="15.875939000397921">
        <ele>403.41000000000003</ele>
        <time>2013-09-05T08:41:41Z</time>
      </trkpt>
      <trkpt lat="50.851191021502018" lon="15.877096960321069">
        <ele>402.93000000000001</ele>
        <time>2013-09-05T08:41:47Z</time>
      </trkpt>
      <trkpt lat="50.851192027330399" lon="15.877297036349773">
        <ele>404.37</ele>
        <time>2013-09-05T08:41:48Z</time>
      </trkpt>
      <trkpt lat="50.851255981251597" lon="15.878476034849882">
        <ele>404.37</ele>
        <time>2013-09-05T08:41:55Z</time>
      </trkpt>
      <trkpt lat="50.851222034543753" lon="15.878582987934351">
        <ele>405.32999999999998</ele>
        <time>2013-09-05T08:41:56Z</time>
      </trkpt>
      <trkpt lat="50.851160008460283" lon="15.878649959340692">
        <ele>405.32999999999998</ele>
        <time>2013-09-05T08:41:57Z</time>
      </trkpt>
      <trkpt lat="50.851080967113376" lon="15.878705028444529">
        <ele>405.32999999999998</ele>
        <time>2013-09-05T08:41:58Z</time>
      </trkpt>
      <trkpt lat="50.850986000150442" lon="15.878724977374077">
        <ele>405.81</ele>
        <time>2013-09-05T08:41:59Z</time>
      </trkpt>
      <trkpt lat="50.850894972681999" lon="15.87873101234436">
        <ele>405.81</ele>
        <time>2013-09-05T08:42:00Z</time>
      </trkpt>
      <trkpt lat="50.850105984136462" lon="15.878712991252542">
        <ele>408.22000000000003</ele>
        <time>2013-09-05T08:42:06Z</time>
      </trkpt>
      <trkpt lat="50.848988005891442" lon="15.878934022039175">
        <ele>412.06</ele>
        <time>2013-09-05T08:42:13Z</time>
      </trkpt>
      <trkpt lat="50.848834030330181" lon="15.879024965688586">
        <ele>413.01999999999998</ele>
        <time>2013-09-05T08:42:14Z</time>
      </trkpt>
      <trkpt lat="50.848677037283778" lon="15.87913803756237">
        <ele>414.47000000000003</ele>
        <time>2013-09-05T08:42:15Z</time>
      </trkpt>
      <trkpt lat="50.848535969853401" lon="15.879268040880561">
        <ele>414.94999999999999</ele>
        <time>2013-09-05T08:42:16Z</time>
      </trkpt>
      <trkpt lat="50.848400015383959" lon="15.879426961764693">
        <ele>416.38999999999999</ele>
        <time>2013-09-05T08:42:17Z</time>
      </trkpt>
      <trkpt lat="50.848277974873781" lon="15.879602981731296">
        <ele>416.87</ele>
        <time>2013-09-05T08:42:18Z</time>
      </trkpt>
      <trkpt lat="50.848171021789312" lon="15.879798028618097">
        <ele>417.35000000000002</ele>
        <time>2013-09-05T08:42:19Z</time>
      </trkpt>
      <trkpt lat="50.848062979057431" lon="15.87999701499939">
        <ele>417.35000000000002</ele>
        <time>2013-09-05T08:42:20Z</time>
      </trkpt>
      <trkpt lat="50.847012978047132" lon="15.881497040390968">
        <ele>418.79000000000002</ele>
        <time>2013-09-05T08:42:28Z</time>
      </trkpt>
      <trkpt lat="50.845182035118341" lon="15.88343502022326">
        <ele>420.23000000000002</ele>
        <time>2013-09-05T08:42:40Z</time>
      </trkpt>
      <trkpt lat="50.843897005543113" lon="15.884400028735399">
        <ele>416.87</ele>
        <time>2013-09-05T08:42:48Z</time>
      </trkpt>
      <trkpt lat="50.842844992876053" lon="15.884772017598152">
        <ele>418.79000000000002</ele>
        <time>2013-09-05T08:42:54Z</time>
      </trkpt>
      <trkpt lat="50.842692023143172" lon="15.884842006489635">
        <ele>419.26999999999998</ele>
        <time>2013-09-05T08:42:55Z</time>
      </trkpt>
      <trkpt lat="50.842560008168221" lon="15.884948037564754">
        <ele>420.23000000000002</ele>
        <time>2013-09-05T08:42:56Z</time>
      </trkpt>
      <trkpt lat="50.842444002628326" lon="15.885075023397803">
        <ele>422.16000000000003</ele>
        <time>2013-09-05T08:42:57Z</time>
      </trkpt>
      <trkpt lat="50.842350041493773" lon="15.885224975645542">
        <ele>423.12</ele>
        <time>2013-09-05T08:42:58Z</time>
      </trkpt>
      <trkpt lat="50.84228097461164" lon="15.88539001531899">
        <ele>424.56</ele>
        <time>2013-09-05T08:42:59Z</time>
      </trkpt>
      <trkpt lat="50.842235963791609" lon="15.885557988658547">
        <ele>424.56</ele>
        <time>2013-09-05T08:43:00Z</time>
      </trkpt>
      <trkpt lat="50.842211991548538" lon="15.885725039988756">
        <ele>424.56</ele>
        <time>2013-09-05T08:43:01Z</time>
      </trkpt>
      <trkpt lat="50.842178966850042" lon="15.885888990014791">
        <ele>424.56</ele>
        <time>2013-09-05T08:43:02Z</time>
      </trkpt>
      <trkpt lat="50.842137979343534" lon="15.88603600859642">
        <ele>424.56</ele>
        <time>2013-09-05T08:43:03Z</time>
      </trkpt>
      <trkpt lat="50.842085005715489" lon="15.886155031621456">
        <ele>425.04000000000002</ele>
        <time>2013-09-05T08:43:04Z</time>
      </trkpt>
      <trkpt lat="50.842006970196962" lon="15.886256033554673">
        <ele>424.07999999999998</ele>
        <time>2013-09-05T08:43:05Z</time>
      </trkpt>
      <trkpt lat="50.841918960213661" lon="15.886352006345987">
        <ele>424.07999999999998</ele>
        <time>2013-09-05T08:43:06Z</time>
      </trkpt>
      <trkpt lat="50.841829022392631" lon="15.88644596748054">
        <ele>423.12</ele>
        <time>2013-09-05T08:43:07Z</time>
      </trkpt>
      <trkpt lat="50.841425014659762" lon="15.886791972443461">
        <ele>424.56</ele>
        <time>2013-09-05T08:43:11Z</time>
      </trkpt>
      <trkpt lat="50.840447014197707" lon="15.887326989322901">
        <ele>426.95999999999998</ele>
        <time>2013-09-05T08:43:20Z</time>
      </trkpt>
      <trkpt lat="50.840339977294207" lon="15.887348027899861">
        <ele>427.44</ele>
        <time>2013-09-05T08:43:21Z</time>
      </trkpt>
      <trkpt lat="50.840236963704228" lon="15.887330006808043">
        <ele>427.92000000000002</ele>
        <time>2013-09-05T08:43:22Z</time>
      </trkpt>
      <trkpt lat="50.840123975649476" lon="15.887287007644773">
        <ele>430.32999999999998</ele>
        <time>2013-09-05T08:43:23Z</time>
      </trkpt>
      <trkpt lat="50.840005036443472" lon="15.8872389793396">
        <ele>432.25</ele>
        <time>2013-09-05T08:43:24Z</time>
      </trkpt>
      <trkpt lat="50.838984036818147" lon="15.886678984388709">
        <ele>437.06</ele>
        <time>2013-09-05T08:43:33Z</time>
      </trkpt>
      <trkpt lat="50.838873982429504" lon="15.886649983003736">
        <ele>438.01999999999998</ele>
        <time>2013-09-05T08:43:34Z</time>
      </trkpt>
      <trkpt lat="50.838760994374752" lon="15.8866570238024">
        <ele>438.5</ele>
        <time>2013-09-05T08:43:35Z</time>
      </trkpt>
      <trkpt lat="50.838643983006477" lon="15.886691976338625">
        <ele>438.98000000000002</ele>
        <time>2013-09-05T08:43:36Z</time>
      </trkpt>
      <trkpt lat="50.838527977466583" lon="15.886740004643798">
        <ele>439.45999999999998</ele>
        <time>2013-09-05T08:43:37Z</time>
      </trkpt>
      <trkpt lat="50.838407026603818" lon="15.886772023513913">
        <ele>440.42000000000002</ele>
        <time>2013-09-05T08:43:38Z</time>
      </trkpt>
      <trkpt lat="50.8379209600389" lon="15.886886017397046">
        <ele>443.79000000000002</ele>
        <time>2013-09-05T08:43:42Z</time>
      </trkpt>
      <trkpt lat="50.837140018120408" lon="15.887254988774657">
        <ele>448.11000000000001</ele>
        <time>2013-09-05T08:43:49Z</time>
      </trkpt>
      <trkpt lat="50.837024012580514" lon="15.887277033179998">
        <ele>447.63</ele>
        <time>2013-09-05T08:43:50Z</time>
      </trkpt>
      <trkpt lat="50.836901972070336" lon="15.887278039008379">
        <ele>448.11000000000001</ele>
        <time>2013-09-05T08:43:51Z</time>
      </trkpt>
      <trkpt lat="50.83656501956284" lon="15.887254988774657">
        <ele>448.58999999999997</ele>
        <time>2013-09-05T08:43:54Z</time>
      </trkpt>
      <trkpt lat="50.836449014022946" lon="15.887292036786675">
        <ele>449.06999999999999</ele>
        <time>2013-09-05T08:43:55Z</time>
      </trkpt>
      <trkpt lat="50.836337031796575" lon="15.887348027899861">
        <ele>449.55000000000001</ele>
        <time>2013-09-05T08:43:56Z</time>
      </trkpt>
      <trkpt lat="50.835346039384604" lon="15.887977005913854">
        <ele>452.92000000000002</ele>
        <time>2013-09-05T08:44:05Z</time>
      </trkpt>
      <trkpt lat="50.835232967510819" lon="15.887988992035389">
        <ele>453.39999999999998</ele>
        <time>2013-09-05T08:44:06Z</time>
      </trkpt>
      <trkpt lat="50.835117967799306" lon="15.88797097094357">
        <ele>453.88</ele>
        <time>2013-09-05T08:44:07Z</time>
      </trkpt>
      <trkpt lat="50.835001962259412" lon="15.887935012578964">
        <ele>453.39999999999998</ele>
        <time>2013-09-05T08:44:08Z</time>
      </trkpt>
      <trkpt lat="50.834885034710169" lon="15.887885978445411">
        <ele>453.88</ele>
        <time>2013-09-05T08:44:09Z</time>
      </trkpt>
      <trkpt lat="50.83428698591888" lon="15.887556988745928">
        <ele>456.75999999999999</ele>
        <time>2013-09-05T08:44:14Z</time>
      </trkpt>
      <trkpt lat="50.833263974636793" lon="15.88661503046751">
        <ele>462.52999999999997</ele>
        <time>2013-09-05T08:44:23Z</time>
      </trkpt>
      <trkpt lat="50.833059959113598" lon="15.886526014655828">
        <ele>463.49000000000001</ele>
        <time>2013-09-05T08:44:25Z</time>
      </trkpt>
      <trkpt lat="50.832959040999413" lon="15.886526014655828">
        <ele>463.97000000000003</ele>
        <time>2013-09-05T08:44:26Z</time>
      </trkpt>
      <trkpt lat="50.832855021581054" lon="15.886543029919267">
        <ele>464.44999999999999</ele>
        <time>2013-09-05T08:44:27Z</time>
      </trkpt>
      <trkpt lat="50.832747984677553" lon="15.886580999940634">
        <ele>464.93000000000001</ele>
        <time>2013-09-05T08:44:28Z</time>
      </trkpt>
      <trkpt lat="50.832640025764704" lon="15.886623999103904">
        <ele>465.42000000000002</ele>
        <time>2013-09-05T08:44:29Z</time>
      </trkpt>
      <trkpt lat="50.831675017252564" lon="15.886533977463841">
        <ele>469.74000000000001</ele>
        <time>2013-09-05T08:44:37Z</time>
      </trkpt>
      <trkpt lat="50.831050984561443" lon="15.886280005797744">
        <ele>470.69999999999999</ele>
        <time>2013-09-05T08:44:42Z</time>
      </trkpt>
      <trkpt lat="50.83093598484993" lon="15.886199958622456">
        <ele>471.18000000000001</ele>
        <time>2013-09-05T08:44:43Z</time>
      </trkpt>
      <trkpt lat="50.83082802593708" lon="15.886125024408102">
        <ele>471.66000000000003</ele>
        <time>2013-09-05T08:44:44Z</time>
      </trkpt>
      <trkpt lat="50.8298409730196" lon="15.885279038920999">
        <ele>480.31999999999999</ele>
        <time>2013-09-05T08:44:52Z</time>
      </trkpt>
      <trkpt lat="50.829714993014932" lon="15.885234028100967">
        <ele>481.75999999999999</ele>
        <time>2013-09-05T08:44:53Z</time>
      </trkpt>
      <trkpt lat="50.829577026888728" lon="15.885206032544374">
        <ele>482.72000000000003</ele>
        <time>2013-09-05T08:44:54Z</time>
      </trkpt>
      <trkpt lat="50.82904402166605" lon="15.885102013126016">
        <ele>487.05000000000001</ele>
        <time>2013-09-05T08:44:58Z</time>
      </trkpt>
      <trkpt lat="50.828928016126156" lon="15.88502598926425">
        <ele>488.00999999999999</ele>
        <time>2013-09-05T08:44:59Z</time>
      </trkpt>
      <trkpt lat="50.828812010586262" lon="15.884934961795807">
        <ele>488.49000000000001</ele>
        <time>2013-09-05T08:45:00Z</time>
      </trkpt>
      <trkpt lat="50.828192001208663" lon="15.884194001555443">
        <ele>495.22000000000003</ele>
        <time>2013-09-05T08:45:06Z</time>
      </trkpt>
      <trkpt lat="50.82814103923738" lon="15.884047988802195">
        <ele>496.18000000000001</ele>
        <time>2013-09-05T08:45:07Z</time>
      </trkpt>
      <trkpt lat="50.828120000660419" lon="15.88388797827065">
        <ele>497.13999999999999</ele>
        <time>2013-09-05T08:45:08Z</time>
      </trkpt>
      <trkpt lat="50.828113965690136" lon="15.883741965517402">
        <ele>498.10000000000002</ele>
        <time>2013-09-05T08:45:09Z</time>
      </trkpt>
      <trkpt lat="50.8281210064888" lon="15.883588995784521">
        <ele>498.10000000000002</ele>
        <time>2013-09-05T08:45:10Z</time>
      </trkpt>
      <trkpt lat="50.828131986781955" lon="15.883407024666667">
        <ele>498.10000000000002</ele>
        <time>2013-09-05T08:45:11Z</time>
      </trkpt>
      <trkpt lat="50.828192001208663" lon="15.88292196393013">
        <ele>499.54000000000002</ele>
        <time>2013-09-05T08:45:14Z</time>
      </trkpt>
      <trkpt lat="50.828198958188295" lon="15.882777962833643">
        <ele>499.54000000000002</ele>
        <time>2013-09-05T08:45:15Z</time>
      </trkpt>
      <trkpt lat="50.828190995380282" lon="15.882672015577555">
        <ele>500.01999999999998</ele>
        <time>2013-09-05T08:45:16Z</time>
      </trkpt>
      <trkpt lat="50.828161993995309" lon="15.88257503695786">
        <ele>499.54000000000002</ele>
        <time>2013-09-05T08:45:17Z</time>
      </trkpt>
      <trkpt lat="50.8281210064888" lon="15.882456013932824">
        <ele>500.01999999999998</ele>
        <time>2013-09-05T08:45:18Z</time>
      </trkpt>
      <trkpt lat="50.827827975153923" lon="15.881593013182282">
        <ele>501.45999999999998</ele>
        <time>2013-09-05T08:45:24Z</time>
      </trkpt>
      <trkpt lat="50.827765027061105" lon="15.881467033177614">
        <ele>501.94999999999999</ele>
        <time>2013-09-05T08:45:25Z</time>
      </trkpt>
      <trkpt lat="50.8276910148561" lon="15.88135102763772">
        <ele>502.91000000000003</ele>
        <time>2013-09-05T08:45:26Z</time>
      </trkpt>
      <trkpt lat="50.827607028186321" lon="15.881249019876122">
        <ele>502.91000000000003</ele>
        <time>2013-09-05T08:45:27Z</time>
      </trkpt>
      <trkpt lat="50.827502002939582" lon="15.881165033206344">
        <ele>503.87</ele>
        <time>2013-09-05T08:45:28Z</time>
      </trkpt>
      <trkpt lat="50.827393960207701" lon="15.88107199408114">
        <ele>504.82999999999998</ele>
        <time>2013-09-05T08:45:29Z</time>
      </trkpt>
      <trkpt lat="50.827090032398701" lon="15.880774017423391">
        <ele>505.79000000000002</ele>
        <time>2013-09-05T08:45:32Z</time>
      </trkpt>
      <trkpt lat="50.827019037678838" lon="15.880631022155285">
        <ele>506.26999999999998</ele>
        <time>2013-09-05T08:45:33Z</time>
      </trkpt>
      <trkpt lat="50.826950976625085" lon="15.880488026887178">
        <ele>505.79000000000002</ele>
        <time>2013-09-05T08:45:34Z</time>
      </trkpt>
      <trkpt lat="50.826923986896873" lon="15.880319969728589">
        <ele>506.26999999999998</ele>
        <time>2013-09-05T08:45:35Z</time>
      </trkpt>
      <trkpt lat="50.826907977461815" lon="15.880151996389031">
        <ele>506.75</ele>
        <time>2013-09-05T08:45:36Z</time>
      </trkpt>
      <trkpt lat="50.826899008825421" lon="15.879979999735951">
        <ele>508.19</ele>
        <time>2013-09-05T08:45:37Z</time>
      </trkpt>
      <trkpt lat="50.826905965805054" lon="15.879789981991053">
        <ele>509.63999999999999</ele>
        <time>2013-09-05T08:45:38Z</time>
      </trkpt>
      <trkpt lat="50.826903032138944" lon="15.879607005044818">
        <ele>510.60000000000002</ele>
        <time>2013-09-05T08:45:39Z</time>
      </trkpt>
      <trkpt lat="50.82687403075397" lon="15.879429979249835">
        <ele>511.56</ele>
        <time>2013-09-05T08:45:40Z</time>
      </trkpt>
      <trkpt lat="50.82683002576232" lon="15.87926896288991">
        <ele>512.03999999999996</ele>
        <time>2013-09-05T08:45:41Z</time>
      </trkpt>
      <trkpt lat="50.826748972758651" lon="15.879135020077229">
        <ele>513</ele>
        <time>2013-09-05T08:45:42Z</time>
      </trkpt>
      <trkpt lat="50.82666196860373" lon="15.879020020365715">
        <ele>514.44000000000005</ele>
        <time>2013-09-05T08:45:43Z</time>
      </trkpt>
      <trkpt lat="50.826555015519261" lon="15.878935027867556">
        <ele>513.96000000000004</ele>
        <time>2013-09-05T08:45:44Z</time>
      </trkpt>
      <trkpt lat="50.826438004150987" lon="15.878833020105958">
        <ele>515.39999999999998</ele>
        <time>2013-09-05T08:45:45Z</time>
      </trkpt>
      <trkpt lat="50.82558698952198" lon="15.877998014912009">
        <ele>524.05999999999995</ele>
        <time>2013-09-05T08:45:52Z</time>
      </trkpt>
      <trkpt lat="50.825289012864232" lon="15.877611022442579">
        <ele>525.98000000000002</ele>
        <time>2013-09-05T08:45:55Z</time>
      </trkpt>
      <trkpt lat="50.825222041457891" lon="15.877457968890667">
        <ele>526.94000000000005</ele>
        <time>2013-09-05T08:45:56Z</time>
      </trkpt>
      <trkpt lat="50.825172001495957" lon="15.877289995551109">
        <ele>528.38</ele>
        <time>2013-09-05T08:45:57Z</time>
      </trkpt>
      <trkpt lat="50.82513302564621" lon="15.877116993069649">
        <ele>529.34000000000003</ele>
        <time>2013-09-05T08:45:58Z</time>
      </trkpt>
      <trkpt lat="50.825115004554391" lon="15.876952959224582">
        <ele>530.29999999999995</ele>
        <time>2013-09-05T08:45:59Z</time>
      </trkpt>
      <trkpt lat="50.825105030089617" lon="15.876791020855308">
        <ele>530.78999999999996</ele>
        <time>2013-09-05T08:46:00Z</time>
      </trkpt>
      <trkpt lat="50.825138976797462" lon="15.876617012545466">
        <ele>532.23000000000002</ele>
        <time>2013-09-05T08:46:01Z</time>
      </trkpt>
      <trkpt lat="50.825183987617493" lon="15.876451972872019">
        <ele>532.71000000000004</ele>
        <time>2013-09-05T08:46:02Z</time>
      </trkpt>
      <trkpt lat="50.825233021751046" lon="15.876282993704081">
        <ele>533.66999999999996</ele>
        <time>2013-09-05T08:46:03Z</time>
      </trkpt>
      <trkpt lat="50.825334023684263" lon="15.875931037589908">
        <ele>535.11000000000001</ele>
        <time>2013-09-05T08:46:05Z</time>
      </trkpt>
      <trkpt lat="50.82537098787725" lon="15.875746970996261">
        <ele>535.59000000000003</ele>
        <time>2013-09-05T08:46:06Z</time>
      </trkpt>
      <trkpt lat="50.825419016182423" lon="15.875563994050026">
        <ele>536.54999999999995</ele>
        <time>2013-09-05T08:46:07Z</time>
      </trkpt>
      <trkpt lat="50.825467966496944" lon="15.87540096603334">
        <ele>537.99000000000001</ele>
        <time>2013-09-05T08:46:08Z</time>
      </trkpt>
      <trkpt lat="50.825538961216807" lon="15.875242967158556">
        <ele>537.99000000000001</ele>
        <time>2013-09-05T08:46:09Z</time>
      </trkpt>
      <trkpt lat="50.825620014220476" lon="15.875079017132521">
        <ele>538.96000000000004</ele>
        <time>2013-09-05T08:46:10Z</time>
      </trkpt>
      <trkpt lat="50.826085964217782" lon="15.874237976968288">
        <ele>542.32000000000005</ele>
        <time>2013-09-05T08:46:15Z</time>
      </trkpt>
      <trkpt lat="50.826136004179716" lon="15.874077966436744">
        <ele>542.79999999999995</ele>
        <time>2013-09-05T08:46:16Z</time>
      </trkpt>
      <trkpt lat="50.826156036928296" lon="15.873899012804031">
        <ele>542.79999999999995</ele>
        <time>2013-09-05T08:46:17Z</time>
      </trkpt>
      <trkpt lat="50.826155031099916" lon="15.873718969523907">
        <ele>540.88</ele>
        <time>2013-09-05T08:46:18Z</time>
      </trkpt>
      <trkpt lat="50.826130975037813" lon="15.873543033376336">
        <ele>540.39999999999998</ele>
        <time>2013-09-05T08:46:19Z</time>
      </trkpt>
      <trkpt lat="50.826089987531304" lon="15.873388973996043">
        <ele>540.88</ele>
        <time>2013-09-05T08:46:20Z</time>
      </trkpt>
      <trkpt lat="50.826028967276216" lon="15.873246984556317">
        <ele>540.88</ele>
        <time>2013-09-05T08:46:21Z</time>
      </trkpt>
      <trkpt lat="50.825955960899591" lon="15.873119998723269">
        <ele>540.39999999999998</ele>
        <time>2013-09-05T08:46:22Z</time>
      </trkpt>
      <trkpt lat="50.825861999765038" lon="15.873010028153658">
        <ele>540.88</ele>
        <time>2013-09-05T08:46:23Z</time>
      </trkpt>
      <trkpt lat="50.825764015316963" lon="15.872917994856834">
        <ele>540.88</ele>
        <time>2013-09-05T08:46:24Z</time>
      </trkpt>
      <trkpt lat="50.825658990070224" lon="15.872834008187056">
        <ele>539.44000000000005</ele>
        <time>2013-09-05T08:46:25Z</time>
      </trkpt>
      <trkpt lat="50.825541978701949" lon="15.87275899015367">
        <ele>539.44000000000005</ele>
        <time>2013-09-05T08:46:26Z</time>
      </trkpt>
      <trkpt lat="50.824784003198147" lon="15.872316006571054">
        <ele>539.91999999999996</ele>
        <time>2013-09-05T08:46:32Z</time>
      </trkpt>
      <trkpt lat="50.82354499027133" lon="15.872035967186093">
        <ele>537.50999999999999</ele>
        <time>2013-09-05T08:46:41Z</time>
      </trkpt>
      <trkpt lat="50.823182975873351" lon="15.871852990239859">
        <ele>535.59000000000003</ele>
        <time>2013-09-05T08:46:44Z</time>
      </trkpt>
      <trkpt lat="50.823068981990218" lon="15.871848966926336">
        <ele>535.11000000000001</ele>
        <time>2013-09-05T08:46:45Z</time>
      </trkpt>
      <trkpt lat="50.82296596840024" lon="15.871888026595116">
        <ele>535.11000000000001</ele>
        <time>2013-09-05T08:46:46Z</time>
      </trkpt>
      <trkpt lat="50.822859015315771" lon="15.871973019093275">
        <ele>534.14999999999998</ele>
        <time>2013-09-05T08:46:47Z</time>
      </trkpt>
      <trkpt lat="50.822749966755509" lon="15.872082989662886">
        <ele>532.71000000000004</ele>
        <time>2013-09-05T08:46:48Z</time>
      </trkpt>
      <trkpt lat="50.822633039206266" lon="15.872212992981076">
        <ele>531.26999999999998</ele>
        <time>2013-09-05T08:46:49Z</time>
      </trkpt>
      <trkpt lat="50.822519967332482" lon="15.872340984642506">
        <ele>530.78999999999996</ele>
        <time>2013-09-05T08:46:50Z</time>
      </trkpt>
      <trkpt lat="50.822155019268394" lon="15.872705010697246">
        <ele>529.34000000000003</ele>
        <time>2013-09-05T08:46:54Z</time>
      </trkpt>
      <trkpt lat="50.822072038426995" lon="15.872753961011767">
        <ele>528.86000000000001</ele>
        <time>2013-09-05T08:46:55Z</time>
      </trkpt>
      <trkpt lat="50.821970030665398" lon="15.872755972668529">
        <ele>528.38</ele>
        <time>2013-09-05T08:46:56Z</time>
      </trkpt>
      <trkpt lat="50.821881014853716" lon="15.872725965455174">
        <ele>527.41999999999996</ele>
        <time>2013-09-05T08:46:57Z</time>
      </trkpt>
      <trkpt lat="50.821788981556892" lon="15.872654970735312">
        <ele>525.98000000000002</ele>
        <time>2013-09-05T08:46:58Z</time>
      </trkpt>
      <trkpt lat="50.821717986837029" lon="15.872549023479223">
        <ele>524.53999999999996</ele>
        <time>2013-09-05T08:46:59Z</time>
      </trkpt>
      <trkpt lat="50.82165596075356" lon="15.872406028211117">
        <ele>523.58000000000004</ele>
        <time>2013-09-05T08:47:00Z</time>
      </trkpt>
      <trkpt lat="50.82161002792418" lon="15.87226303294301">
        <ele>523.09000000000003</ele>
        <time>2013-09-05T08:47:01Z</time>
      </trkpt>
      <trkpt lat="50.821568034589291" lon="15.872103022411466">
        <ele>523.09000000000003</ele>
        <time>2013-09-05T08:47:02Z</time>
      </trkpt>
      <trkpt lat="50.821363013237715" lon="15.871450994163752">
        <ele>520.21000000000004</ele>
        <time>2013-09-05T08:47:06Z</time>
      </trkpt>
      <trkpt lat="50.821298975497484" lon="15.871305987238884">
        <ele>520.69000000000005</ele>
        <time>2013-09-05T08:47:07Z</time>
      </trkpt>
      <trkpt lat="50.821098983287811" lon="15.870874989777803">
        <ele>519.25</ele>
        <time>2013-09-05T08:47:10Z</time>
      </trkpt>
      <trkpt lat="50.821059001609683" lon="15.870708022266626">
        <ele>518.76999999999998</ele>
        <time>2013-09-05T08:47:11Z</time>
      </trkpt>
      <trkpt lat="50.821036035194993" lon="15.870529990643263">
        <ele>519.25</ele>
        <time>2013-09-05T08:47:12Z</time>
      </trkpt>
      <trkpt lat="50.82096504047513" lon="15.870007965713739">
        <ele>522.13</ele>
        <time>2013-09-05T08:47:15Z</time>
      </trkpt>
      <trkpt lat="50.820388030260801" lon="15.868286993354559">
        <ele>529.82000000000005</ele>
        <time>2013-09-05T08:47:24Z</time>
      </trkpt>
      <trkpt lat="50.819845972582698" lon="15.8661849796772">
        <ele>536.07000000000005</ele>
        <time>2013-09-05T08:47:34Z</time>
      </trkpt>
      <trkpt lat="50.819818982854486" lon="15.866019017994404">
        <ele>537.02999999999997</ele>
        <time>2013-09-05T08:47:35Z</time>
      </trkpt>
      <trkpt lat="50.819773972034454" lon="15.865888008847833">
        <ele>537.99000000000001</ele>
        <time>2013-09-05T08:47:36Z</time>
      </trkpt>
      <trkpt lat="50.819715969264507" lon="15.865786001086235">
        <ele>538.96000000000004</ele>
        <time>2013-09-05T08:47:37Z</time>
      </trkpt>
      <trkpt lat="50.819647992029786" lon="15.86573101580143">
        <ele>539.44000000000005</ele>
        <time>2013-09-05T08:47:38Z</time>
      </trkpt>
      <trkpt lat="50.81954799592495" lon="15.86571098305285">
        <ele>539.44000000000005</ele>
        <time>2013-09-05T08:47:39Z</time>
      </trkpt>
      <trkpt lat="50.81946300342679" lon="15.865756999701262">
        <ele>540.39999999999998</ele>
        <time>2013-09-05T08:47:40Z</time>
      </trkpt>
      <trkpt lat="50.819385973736644" lon="15.865842998027802">
        <ele>540.88</ele>
        <time>2013-09-05T08:47:41Z</time>
      </trkpt>
      <trkpt lat="50.819329982623458" lon="15.865991022437811">
        <ele>541.36000000000001</ele>
        <time>2013-09-05T08:47:42Z</time>
      </trkpt>
      <trkpt lat="50.819307016208768" lon="15.866155978292227">
        <ele>541.84000000000003</ele>
        <time>2013-09-05T08:47:43Z</time>
      </trkpt>
      <trkpt lat="50.819325959309936" lon="15.86633400991559">
        <ele>543.27999999999997</ele>
        <time>2013-09-05T08:47:44Z</time>
      </trkpt>
      <trkpt lat="50.819368958473206" lon="15.866507012397051">
        <ele>545.20000000000005</ele>
        <time>2013-09-05T08:47:45Z</time>
      </trkpt>
      <trkpt lat="50.819412963464856" lon="15.866686971858144">
        <ele>547.13</ele>
        <time>2013-09-05T08:47:46Z</time>
      </trkpt>
      <trkpt lat="50.819473983719945" lon="15.86687196046114">
        <ele>547.61000000000001</ele>
        <time>2013-09-05T08:47:47Z</time>
      </trkpt>
      <trkpt lat="50.819582026451826" lon="15.867366995662451">
        <ele>551.45000000000005</ele>
        <time>2013-09-05T08:47:50Z</time>
      </trkpt>
      <trkpt lat="50.819551013410091" lon="15.867652986198664">
        <ele>553.86000000000001</ele>
        <time>2013-09-05T08:47:52Z</time>
      </trkpt>
      <trkpt lat="50.819481024518609" lon="15.867739990353584">
        <ele>554.82000000000005</ele>
        <time>2013-09-05T08:47:53Z</time>
      </trkpt>
      <trkpt lat="50.819389997050166" lon="15.867763040587306">
        <ele>555.77999999999997</ele>
        <time>2013-09-05T08:47:54Z</time>
      </trkpt>
      <trkpt lat="50.81931103952229" lon="15.867725992575288">
        <ele>556.74000000000001</ele>
        <time>2013-09-05T08:47:55Z</time>
      </trkpt>
      <trkpt lat="50.819225963205099" lon="15.867633037269115">
        <ele>558.17999999999995</ele>
        <time>2013-09-05T08:47:56Z</time>
      </trkpt>
      <trkpt lat="50.819178018718958" lon="15.867512002587318">
        <ele>559.13999999999999</ele>
        <time>2013-09-05T08:47:57Z</time>
      </trkpt>
      <trkpt lat="50.8191620092839" lon="15.867341011762619">
        <ele>559.62</ele>
        <time>2013-09-05T08:47:58Z</time>
      </trkpt>
      <trkpt lat="50.819153040647507" lon="15.867177983745933">
        <ele>560.59000000000003</ele>
        <time>2013-09-05T08:47:59Z</time>
      </trkpt>
      <trkpt lat="50.819132002070546" lon="15.867037000134587">
        <ele>561.07000000000005</ele>
        <time>2013-09-05T08:48:00Z</time>
      </trkpt>
      <trkpt lat="50.817513959482312" lon="15.864732982590795">
        <ele>569.72000000000003</ele>
        <time>2013-09-05T08:48:17Z</time>
      </trkpt>
      <trkpt lat="50.816103033721447" lon="15.863061966374516">
        <ele>575.00999999999999</ele>
        <time>2013-09-05T08:48:28Z</time>
      </trkpt>
      <trkpt lat="50.815970012918115" lon="15.862940009683371">
        <ele>575.49000000000001</ele>
        <time>2013-09-05T08:48:29Z</time>
      </trkpt>
      <trkpt lat="50.815828023478389" lon="15.862827021628618">
        <ele>576.92999999999995</ele>
        <time>2013-09-05T08:48:30Z</time>
      </trkpt>
      <trkpt lat="50.815685028210282" lon="15.862732976675034">
        <ele>577.40999999999997</ele>
        <time>2013-09-05T08:48:31Z</time>
      </trkpt>
      <trkpt lat="50.814450960606337" lon="15.86190702393651">
        <ele>587.01999999999998</ele>
        <time>2013-09-05T08:48:40Z</time>
      </trkpt>
      <trkpt lat="50.814234958961606" lon="15.861708037555218">
        <ele>587.01999999999998</ele>
        <time>2013-09-05T08:48:42Z</time>
      </trkpt>
      <trkpt lat="50.81413303501904" lon="15.861595971509814">
        <ele>587.01999999999998</ele>
        <time>2013-09-05T08:48:43Z</time>
      </trkpt>
      <trkpt lat="50.81404997035861" lon="15.861478038132191">
        <ele>587.5</ele>
        <time>2013-09-05T08:48:44Z</time>
      </trkpt>
      <trkpt lat="50.813971012830734" lon="15.86134996265173">
        <ele>587.5</ele>
        <time>2013-09-05T08:48:45Z</time>
      </trkpt>
      <trkpt lat="50.81389800645411" lon="15.861219959333539">
        <ele>587.5</ele>
        <time>2013-09-05T08:48:46Z</time>
      </trkpt>
      <trkpt lat="50.813628025352955" lon="15.860841013491154">
        <ele>586.05999999999995</ele>
        <time>2013-09-05T08:48:49Z</time>
      </trkpt>
      <trkpt lat="50.813525011762977" lon="15.86072601377964">
        <ele>585.10000000000002</ele>
        <time>2013-09-05T08:48:50Z</time>
      </trkpt>
      <trkpt lat="50.812511974945664" lon="15.859950017184019">
        <ele>579.33000000000004</ele>
        <time>2013-09-05T08:48:58Z</time>
      </trkpt>
      <trkpt lat="50.811407994478941" lon="15.859194975346327">
        <ele>572.12</ele>
        <time>2013-09-05T08:49:07Z</time>
      </trkpt>
      <trkpt lat="50.811201967298985" lon="15.859024990350008">
        <ele>569.72000000000003</ele>
        <time>2013-09-05T08:49:09Z</time>
      </trkpt>
      <trkpt lat="50.811149999499321" lon="15.858905967324972">
        <ele>568.27999999999997</ele>
        <time>2013-09-05T08:49:10Z</time>
      </trkpt>
      <trkpt lat="50.811120998114347" lon="15.858765989542007">
        <ele>567.79999999999995</ele>
        <time>2013-09-05T08:49:11Z</time>
      </trkpt>
      <trkpt lat="50.811122003942728" lon="15.858616959303617">
        <ele>566.35000000000002</ele>
        <time>2013-09-05T08:49:12Z</time>
      </trkpt>
      <trkpt lat="50.811146982014179" lon="15.858463989570737">
        <ele>564.90999999999997</ele>
        <time>2013-09-05T08:49:13Z</time>
      </trkpt>
      <trkpt lat="50.811200039461255" lon="15.858304984867573">
        <ele>564.90999999999997</ele>
        <time>2013-09-05T08:49:14Z</time>
      </trkpt>
      <trkpt lat="50.811248989775777" lon="15.85812896490097">
        <ele>563.95000000000005</ele>
        <time>2013-09-05T08:49:15Z</time>
      </trkpt>
      <trkpt lat="50.811286037787795" lon="15.857928972691298">
        <ele>563.95000000000005</ele>
        <time>2013-09-05T08:49:16Z</time>
      </trkpt>
      <trkpt lat="50.811316967010498" lon="15.857742978259921">
        <ele>562.50999999999999</ele>
        <time>2013-09-05T08:49:17Z</time>
      </trkpt>
      <trkpt lat="50.811441019177437" lon="15.856796996667981">
        <ele>556.74000000000001</ele>
        <time>2013-09-05T08:49:22Z</time>
      </trkpt>
      <trkpt lat="50.811440013349056" lon="15.856617959216237">
        <ele>555.77999999999997</ele>
        <time>2013-09-05T08:49:23Z</time>
      </trkpt>
      <trkpt lat="50.811417968943715" lon="15.856446968391538">
        <ele>554.82000000000005</ele>
        <time>2013-09-05T08:49:24Z</time>
      </trkpt>
      <trkpt lat="50.811375975608826" lon="15.856272960081697">
        <ele>552.89999999999998</ele>
        <time>2013-09-05T08:49:25Z</time>
      </trkpt>
      <trkpt lat="50.811329036951065" lon="15.856110015884042">
        <ele>551.92999999999995</ele>
        <time>2013-09-05T08:49:26Z</time>
      </trkpt>
      <trkpt lat="50.811275979503989" lon="15.855950005352497">
        <ele>550.49000000000001</ele>
        <time>2013-09-05T08:49:27Z</time>
      </trkpt>
      <trkpt lat="50.811229962855577" lon="15.855766022577882">
        <ele>549.04999999999995</ele>
        <time>2013-09-05T08:49:28Z</time>
      </trkpt>
      <trkpt lat="50.81121101975441" lon="15.855556977912784">
        <ele>547.13</ele>
        <time>2013-09-05T08:49:29Z</time>
      </trkpt>
      <trkpt lat="50.811206996440887" lon="15.855357991531491">
        <ele>546.16999999999996</ele>
        <time>2013-09-05T08:49:30Z</time>
      </trkpt>
      <trkpt lat="50.811214037239552" lon="15.855149030685425">
        <ele>545.20000000000005</ele>
        <time>2013-09-05T08:49:31Z</time>
      </trkpt>
      <trkpt lat="50.811218982562423" lon="15.854935962706804">
        <ele>543.27999999999997</ele>
        <time>2013-09-05T08:49:32Z</time>
      </trkpt>
      <trkpt lat="50.811425009742379" lon="15.853051040321589">
        <ele>533.19000000000005</ele>
        <time>2013-09-05T08:49:41Z</time>
      </trkpt>
      <trkpt lat="50.81146901473403" lon="15.852865967899561">
        <ele>532.71000000000004</ele>
        <time>2013-09-05T08:49:42Z</time>
      </trkpt>
      <trkpt lat="50.811525005847216" lon="15.85269003175199">
        <ele>531.75</ele>
        <time>2013-09-05T08:49:43Z</time>
      </trkpt>
      <trkpt lat="50.811586026102304" lon="15.852522980421782">
        <ele>530.78999999999996</ele>
        <time>2013-09-05T08:49:44Z</time>
      </trkpt>
      <trkpt lat="50.81164201721549" lon="15.852356012910604">
        <ele>529.82000000000005</ele>
        <time>2013-09-05T08:49:45Z</time>
      </trkpt>
      <trkpt lat="50.811681998893619" lon="15.852174963802099">
        <ele>528.86000000000001</ele>
        <time>2013-09-05T08:49:46Z</time>
      </trkpt>
      <trkpt lat="50.811703959479928" lon="15.851983018219471">
        <ele>526.94000000000005</ele>
        <time>2013-09-05T08:49:47Z</time>
      </trkpt>
      <trkpt lat="50.811712006106973" lon="15.851784031838179">
        <ele>525.5</ele>
        <time>2013-09-05T08:49:48Z</time>
      </trkpt>
      <trkpt lat="50.811721980571747" lon="15.85159501992166">
        <ele>524.53999999999996</ele>
        <time>2013-09-05T08:49:49Z</time>
      </trkpt>
      <trkpt lat="50.811762968078256" lon="15.851421011611819">
        <ele>524.05999999999995</ele>
        <time>2013-09-05T08:49:50Z</time>
      </trkpt>
      <trkpt lat="50.811799010261893" lon="15.8512510266155">
        <ele>523.09000000000003</ele>
        <time>2013-09-05T08:49:51Z</time>
      </trkpt>
      <trkpt lat="50.811804039403796" lon="15.851070983335376">
        <ele>522.61000000000001</ele>
        <time>2013-09-05T08:49:52Z</time>
      </trkpt>
      <trkpt lat="50.811790963634849" lon="15.850890018045902">
        <ele>521.64999999999998</ele>
        <time>2013-09-05T08:49:53Z</time>
      </trkpt>
      <trkpt lat="50.811753999441862" lon="15.850696982815862">
        <ele>521.64999999999998</ele>
        <time>2013-09-05T08:49:54Z</time>
      </trkpt>
      <trkpt lat="50.811720974743366" lon="15.850523980334401">
        <ele>521.16999999999996</ele>
        <time>2013-09-05T08:49:55Z</time>
      </trkpt>
      <trkpt lat="50.811688033863902" lon="15.850366987287998">
        <ele>519.73000000000002</ele>
        <time>2013-09-05T08:49:56Z</time>
      </trkpt>
      <trkpt lat="50.811505978927016" lon="15.849692998453975">
        <ele>516.37</ele>
        <time>2013-09-05T08:50:00Z</time>
      </trkpt>
      <trkpt lat="50.811444036662579" lon="15.849542962387204">
        <ele>514.91999999999996</ele>
        <time>2013-09-05T08:50:01Z</time>
      </trkpt>
      <trkpt lat="50.811372958123684" lon="15.849387980997562">
        <ele>513.48000000000002</ele>
        <time>2013-09-05T08:50:02Z</time>
      </trkpt>
      <trkpt lat="50.811244966462255" lon="15.849092015996575">
        <ele>511.07999999999998</ele>
        <time>2013-09-05T08:50:04Z</time>
      </trkpt>
      <trkpt lat="50.811228035017848" lon="15.848924964666367">
        <ele>509.63999999999999</ele>
        <time>2013-09-05T08:50:05Z</time>
      </trkpt>
      <trkpt lat="50.811243038624525" lon="15.848755985498428">
        <ele>508.67000000000002</ele>
        <time>2013-09-05T08:50:06Z</time>
      </trkpt>
      <trkpt lat="50.811280002817512" lon="15.848602009937167">
        <ele>508.67000000000002</ele>
        <time>2013-09-05T08:50:07Z</time>
      </trkpt>
      <trkpt lat="50.811329036951065" lon="15.848468989133835">
        <ele>507.70999999999998</ele>
        <time>2013-09-05T08:50:08Z</time>
      </trkpt>
      <trkpt lat="50.811399025842547" lon="15.848360024392605">
        <ele>507.23000000000002</ele>
        <time>2013-09-05T08:50:09Z</time>
      </trkpt>
      <trkpt lat="50.811476977542043" lon="15.848266985267401">
        <ele>506.26999999999998</ele>
        <time>2013-09-05T08:50:10Z</time>
      </trkpt>
      <trkpt lat="50.811668001115322" lon="15.848057018592954">
        <ele>504.35000000000002</ele>
        <time>2013-09-05T08:50:12Z</time>
      </trkpt>
      <trkpt lat="50.811717035248876" lon="15.847902037203312">
        <ele>502.91000000000003</ele>
        <time>2013-09-05T08:50:13Z</time>
      </trkpt>
      <trkpt lat="50.811748970299959" lon="15.847738003358245">
        <ele>501.45999999999998</ele>
        <time>2013-09-05T08:50:14Z</time>
      </trkpt>
      <trkpt lat="50.811764979735017" lon="15.847566006705165">
        <ele>500.5</ele>
        <time>2013-09-05T08:50:15Z</time>
      </trkpt>
      <trkpt lat="50.811778977513313" lon="15.847384035587311">
        <ele>500.01999999999998</ele>
        <time>2013-09-05T08:50:16Z</time>
      </trkpt>
      <trkpt lat="50.8117710147053" lon="15.846248036250472">
        <ele>496.18000000000001</ele>
        <time>2013-09-05T08:50:22Z</time>
      </trkpt>
      <trkpt lat="50.811537997797132" lon="15.844700988382101">
        <ele>487.52999999999997</ele>
        <time>2013-09-05T08:50:31Z</time>
      </trkpt>
      <trkpt lat="50.811484018340707" lon="15.844567967578769">
        <ele>486.56</ele>
        <time>2013-09-05T08:50:32Z</time>
      </trkpt>
      <trkpt lat="50.811416041105986" lon="15.844475012272596">
        <ele>485.60000000000002</ele>
        <time>2013-09-05T08:50:33Z</time>
      </trkpt>
      <trkpt lat="50.811334988102317" lon="15.844432013109326">
        <ele>484.63999999999999</ele>
        <time>2013-09-05T08:50:34Z</time>
      </trkpt>
      <trkpt lat="50.811238009482622" lon="15.844463026151061">
        <ele>483.68000000000001</ele>
        <time>2013-09-05T08:50:35Z</time>
      </trkpt>
      <trkpt lat="50.811158968135715" lon="15.844535026699305">
        <ele>482.72000000000003</ele>
        <time>2013-09-05T08:50:36Z</time>
      </trkpt>
      <trkpt lat="50.811087973415852" lon="15.844670981168747">
        <ele>482.24000000000001</ele>
        <time>2013-09-05T08:50:37Z</time>
      </trkpt>
      <trkpt lat="50.81101999618113" lon="15.844830991700292">
        <ele>481.27999999999997</ele>
        <time>2013-09-05T08:50:38Z</time>
      </trkpt>
      <trkpt lat="50.810949001461267" lon="15.845007011666894">
        <ele>480.80000000000001</ele>
        <time>2013-09-05T08:50:39Z</time>
      </trkpt>
      <trkpt lat="50.81018197350204" lon="15.846900986507535">
        <ele>473.58999999999997</ele>
        <time>2013-09-05T08:50:50Z</time>
      </trkpt>
      <trkpt lat="50.809417963027954" lon="15.848819017410278">
        <ele>468.77999999999997</ele>
        <time>2013-09-05T08:51:01Z</time>
      </trkpt>
      <trkpt lat="50.809377981349826" lon="15.849021021276712">
        <ele>467.81999999999999</ele>
        <time>2013-09-05T08:51:02Z</time>
      </trkpt>
      <trkpt lat="50.809159968048334" lon="15.849901959300041">
        <ele>467.81999999999999</ele>
        <time>2013-09-05T08:51:07Z</time>
      </trkpt>
      <trkpt lat="50.80848497338593" lon="15.851266030222178">
        <ele>469.25999999999999</ele>
        <time>2013-09-05T08:51:17Z</time>
      </trkpt>
      <trkpt lat="50.808425964787602" lon="15.851355968043208">
        <ele>469.25999999999999</ele>
        <time>2013-09-05T08:51:18Z</time>
      </trkpt>
      <trkpt lat="50.808352036401629" lon="15.851413970813155">
        <ele>470.22000000000003</ele>
        <time>2013-09-05T08:51:19Z</time>
      </trkpt>
      <trkpt lat="50.808286992833018" lon="15.851434003561735">
        <ele>470.22000000000003</ele>
        <time>2013-09-05T08:51:20Z</time>
      </trkpt>
      <trkpt lat="50.808229995891452" lon="15.851399973034859">
        <ele>470.69999999999999</ele>
        <time>2013-09-05T08:51:21Z</time>
      </trkpt>
      <trkpt lat="50.808184985071421" lon="15.851324032992125">
        <ele>470.69999999999999</ele>
        <time>2013-09-05T08:51:22Z</time>
      </trkpt>
      <trkpt lat="50.808148020878434" lon="15.851220013573766">
        <ele>471.18000000000001</ele>
        <time>2013-09-05T08:51:23Z</time>
      </trkpt>
      <trkpt lat="50.808119019493461" lon="15.851112976670265">
        <ele>471.18000000000001</ele>
        <time>2013-09-05T08:51:24Z</time>
      </trkpt>
      <trkpt lat="50.807760022580624" lon="15.849912017583847">
        <ele>470.69999999999999</ele>
        <time>2013-09-05T08:51:34Z</time>
      </trkpt>
      <trkpt lat="50.807519964873791" lon="15.848820023238659">
        <ele>467.33999999999997</ele>
        <time>2013-09-05T08:51:40Z</time>
      </trkpt>
      <trkpt lat="50.807307986542583" lon="15.848377961665392">
        <ele>465.89999999999998</ele>
        <time>2013-09-05T08:51:43Z</time>
      </trkpt>
      <trkpt lat="50.807229029014707" lon="15.848287018015981">
        <ele>464.93000000000001</ele>
        <time>2013-09-05T08:51:44Z</time>
      </trkpt>
      <trkpt lat="50.807135989889503" lon="15.848239995539188">
        <ele>464.44999999999999</ele>
        <time>2013-09-05T08:51:45Z</time>
      </trkpt>
      <trkpt lat="50.80704303458333" lon="15.848234966397285">
        <ele>463.97000000000003</ele>
        <time>2013-09-05T08:51:46Z</time>
      </trkpt>
      <trkpt lat="50.806951001286507" lon="15.848244018852711">
        <ele>463.49000000000001</ele>
        <time>2013-09-05T08:51:47Z</time>
      </trkpt>
      <trkpt lat="50.806866008788347" lon="15.848229015246034">
        <ele>463.00999999999999</ele>
        <time>2013-09-05T08:51:48Z</time>
      </trkpt>
      <trkpt lat="50.806799959391356" lon="15.848159026354551">
        <ele>462.52999999999997</ele>
        <time>2013-09-05T08:51:49Z</time>
      </trkpt>
      <trkpt lat="50.806742962449789" lon="15.848059030249715">
        <ele>461.56999999999999</ele>
        <time>2013-09-05T08:51:50Z</time>
      </trkpt>
      <trkpt lat="50.806690994650126" lon="15.847923997789621">
        <ele>461.08999999999997</ele>
        <time>2013-09-05T08:51:51Z</time>
      </trkpt>
      <trkpt lat="50.80663600936532" lon="15.847783014178276">
        <ele>461.08999999999997</ele>
        <time>2013-09-05T08:51:52Z</time>
      </trkpt>
      <trkpt lat="50.805965038016438" lon="15.846162959933281">
        <ele>454.83999999999997</ele>
        <time>2013-09-05T08:52:01Z</time>
      </trkpt>
      <trkpt lat="50.804971028119326" lon="15.843506986275315">
        <ele>450.51999999999998</ele>
        <time>2013-09-05T08:52:14Z</time>
      </trkpt>
      <trkpt lat="50.804341966286302" lon="15.842068986967206">
        <ele>449.55000000000001</ele>
        <time>2013-09-05T08:52:22Z</time>
      </trkpt>
      <trkpt lat="50.80429402180016" lon="15.841885004192591">
        <ele>448.58999999999997</ele>
        <time>2013-09-05T08:52:23Z</time>
      </trkpt>
      <trkpt lat="50.804262002930045" lon="15.84168802946806">
        <ele>447.63</ele>
        <time>2013-09-05T08:52:24Z</time>
      </trkpt>
      <trkpt lat="50.804233001545072" lon="15.84147596731782">
        <ele>446.67000000000002</ele>
        <time>2013-09-05T08:52:25Z</time>
      </trkpt>
      <trkpt lat="50.804201988503337" lon="15.841258959844708">
        <ele>446.19</ele>
        <time>2013-09-05T08:52:26Z</time>
      </trkpt>
      <trkpt lat="50.804135017096996" lon="15.84106701426208">
        <ele>446.67000000000002</ele>
        <time>2013-09-05T08:52:27Z</time>
      </trkpt>
      <trkpt lat="50.804081037640572" lon="15.84087397903204">
        <ele>446.67000000000002</ele>
        <time>2013-09-05T08:52:28Z</time>
      </trkpt>
      <trkpt lat="50.803314009681344" lon="15.838770037516952">
        <ele>443.31</ele>
        <time>2013-09-05T08:52:39Z</time>
      </trkpt>
      <trkpt lat="50.802955012768507" lon="15.837671002373099">
        <ele>442.81999999999999</ele>
        <time>2013-09-05T08:52:47Z</time>
      </trkpt>
      <trkpt lat="50.802881000563502" lon="15.837489031255245">
        <ele>443.31</ele>
        <time>2013-09-05T08:52:53Z</time>
      </trkpt>
      <trkpt lat="50.802843030542135" lon="15.837474027648568">
        <ele>443.79000000000002</ele>
        <time>2013-09-05T08:53:02Z</time>
      </trkpt>
      <trkpt lat="50.802801037207246" lon="15.837474027648568">
        <ele>444.75</ele>
        <time>2013-09-05T08:53:03Z</time>
      </trkpt>
      <trkpt lat="50.802729958668351" lon="15.837523983791471">
        <ele>444.75</ele>
        <time>2013-09-05T08:53:04Z</time>
      </trkpt>
      <trkpt lat="50.802112966775894" lon="15.838267039507627">
        <ele>446.67000000000002</ele>
        <time>2013-09-05T08:53:10Z</time>
      </trkpt>
      <trkpt lat="50.800109021365643" lon="15.840582959353924">
        <ele>451.95999999999998</ele>
        <time>2013-09-05T08:53:24Z</time>
      </trkpt>
      <trkpt lat="50.797538962215185" lon="15.843576975166798">
        <ele>457.72000000000003</ele>
        <time>2013-09-05T08:53:41Z</time>
      </trkpt>
      <trkpt lat="50.794638991355896" lon="15.846941974014044">
        <ele>469.74000000000001</ele>
        <time>2013-09-05T08:53:59Z</time>
      </trkpt>
      <trkpt lat="50.792593974620104" lon="15.849610017612576">
        <ele>481.27999999999997</ele>
        <time>2013-09-05T08:54:12Z</time>
      </trkpt>
      <trkpt lat="50.791758969426155" lon="15.851733991876245">
        <ele>488.97000000000003</ele>
        <time>2013-09-05T08:54:20Z</time>
      </trkpt>
      <trkpt lat="50.791363008320332" lon="15.85419500246644">
        <ele>498.10000000000002</ele>
        <time>2013-09-05T08:54:28Z</time>
      </trkpt>
      <trkpt lat="50.791422016918659" lon="15.856804037466645">
        <ele>510.12</ele>
        <time>2013-09-05T08:54:36Z</time>
      </trkpt>
      <trkpt lat="50.791891990229487" lon="15.859151976183057">
        <ele>517.33000000000004</ele>
        <time>2013-09-05T08:54:44Z</time>
      </trkpt>
      <trkpt lat="50.792623981833458" lon="15.862179016694427">
        <ele>528.38</ele>
        <time>2013-09-05T08:54:55Z</time>
      </trkpt>
      <trkpt lat="50.793316997587681" lon="15.864392006769776">
        <ele>536.54999999999995</ele>
        <time>2013-09-05T08:55:04Z</time>
      </trkpt>
      <trkpt lat="50.793397966772318" lon="15.864586969837546">
        <ele>537.50999999999999</ele>
        <time>2013-09-05T08:55:05Z</time>
      </trkpt>
      <trkpt lat="50.793505003675818" lon="15.864734994247556">
        <ele>537.99000000000001</ele>
        <time>2013-09-05T08:55:06Z</time>
      </trkpt>
      <trkpt lat="50.793626038357615" lon="15.864825015887618">
        <ele>538.48000000000002</ele>
        <time>2013-09-05T08:55:07Z</time>
      </trkpt>
      <trkpt lat="50.793735003098845" lon="15.8648950047791">
        <ele>538.96000000000004</ele>
        <time>2013-09-05T08:55:08Z</time>
      </trkpt>
      <trkpt lat="50.793891996145248" lon="15.865073036402464">
        <ele>539.44000000000005</ele>
        <time>2013-09-05T08:55:10Z</time>
      </trkpt>
      <trkpt lat="50.793897025287151" lon="15.865192981436849">
        <ele>539.44000000000005</ele>
        <time>2013-09-05T08:55:11Z</time>
      </trkpt>
      <trkpt lat="50.793876992538571" lon="15.865334970876575">
        <ele>539.91999999999996</ele>
        <time>2013-09-05T08:55:12Z</time>
      </trkpt>
      <trkpt lat="50.793784959241748" lon="15.86543396115303">
        <ele>540.88</ele>
        <time>2013-09-05T08:55:13Z</time>
      </trkpt>
      <trkpt lat="50.79368001781404" lon="15.865456005558372">
        <ele>541.36000000000001</ele>
        <time>2013-09-05T08:55:14Z</time>
      </trkpt>
      <trkpt lat="50.793574992567301" lon="15.865393979474902">
        <ele>541.36000000000001</ele>
        <time>2013-09-05T08:55:15Z</time>
      </trkpt>
      <trkpt lat="50.79346401616931" lon="15.865286020562053">
        <ele>541.84000000000003</ele>
        <time>2013-09-05T08:55:16Z</time>
      </trkpt>
      <trkpt lat="50.793355973437428" lon="15.865146964788437">
        <ele>542.32000000000005</ele>
        <time>2013-09-05T08:55:17Z</time>
      </trkpt>
      <trkpt lat="50.793264023959637" lon="15.864986032247543">
        <ele>542.79999999999995</ele>
        <time>2013-09-05T08:55:18Z</time>
      </trkpt>
      <trkpt lat="50.793166039511561" lon="15.864818980917335">
        <ele>542.79999999999995</ele>
        <time>2013-09-05T08:55:19Z</time>
      </trkpt>
      <trkpt lat="50.792704029008746" lon="15.863889008760452">
        <ele>545.69000000000005</ele>
        <time>2013-09-05T08:55:24Z</time>
      </trkpt>
      <trkpt lat="50.792589029297233" lon="15.863753976300359">
        <ele>546.16999999999996</ele>
        <time>2013-09-05T08:55:25Z</time>
      </trkpt>
      <trkpt lat="50.792469000443816" lon="15.863640988245606">
        <ele>546.64999999999998</ele>
        <time>2013-09-05T08:55:26Z</time>
      </trkpt>
      <trkpt lat="50.792357018217444" lon="15.863522971048951">
        <ele>547.13</ele>
        <time>2013-09-05T08:55:27Z</time>
      </trkpt>
      <trkpt lat="50.792228020727634" lon="15.863413000479341">
        <ele>547.61000000000001</ele>
        <time>2013-09-05T08:55:28Z</time>
      </trkpt>
      <trkpt lat="50.792107991874218" lon="15.863281991332769">
        <ele>547.61000000000001</ele>
        <time>2013-09-05T08:55:29Z</time>
      </trkpt>
      <trkpt lat="50.791977988556027" lon="15.863124998286366">
        <ele>548.09000000000003</ele>
        <time>2013-09-05T08:55:30Z</time>
      </trkpt>
      <trkpt lat="50.791545985266566" lon="15.862514041364193">
        <ele>550.00999999999999</ele>
        <time>2013-09-05T08:55:34Z</time>
      </trkpt>
      <trkpt lat="50.791429979726672" lon="15.862422008067369">
        <ele>550.49000000000001</ele>
        <time>2013-09-05T08:55:35Z</time>
      </trkpt>
      <trkpt lat="50.791308023035526" lon="15.862392000854015">
        <ele>550.97000000000003</ele>
        <time>2013-09-05T08:55:36Z</time>
      </trkpt>
      <trkpt lat="50.791179025545716" lon="15.862440029159188">
        <ele>550.97000000000003</ele>
        <time>2013-09-05T08:55:37Z</time>
      </trkpt>
      <trkpt lat="50.7910589966923" lon="15.862553017213941">
        <ele>550.49000000000001</ele>
        <time>2013-09-05T08:55:38Z</time>
      </trkpt>
      <trkpt lat="50.790976015850902" lon="15.862718978896737">
        <ele>551.45000000000005</ele>
        <time>2013-09-05T08:55:39Z</time>
      </trkpt>
      <trkpt lat="50.790904015302658" lon="15.862903967499733">
        <ele>551.92999999999995</ele>
        <time>2013-09-05T08:55:40Z</time>
      </trkpt>
      <trkpt lat="50.790838971734047" lon="15.863116029649973">
        <ele>552.40999999999997</ele>
        <time>2013-09-05T08:55:41Z</time>
      </trkpt>
      <trkpt lat="50.790420966222882" lon="15.864513963460922">
        <ele>554.82000000000005</ele>
        <time>2013-09-05T08:55:48Z</time>
      </trkpt>
      <trkpt lat="50.790333040058613" lon="15.864645978435874">
        <ele>555.29999999999995</ele>
        <time>2013-09-05T08:55:49Z</time>
      </trkpt>
      <trkpt lat="50.790220974013209" lon="15.86472300812602">
        <ele>555.77999999999997</ele>
        <time>2013-09-05T08:55:50Z</time>
      </trkpt>
      <trkpt lat="50.790105974301696" lon="15.864753015339375">
        <ele>556.74000000000001</ele>
        <time>2013-09-05T08:55:51Z</time>
      </trkpt>
      <trkpt lat="50.789973959326744" lon="15.864743962883949">
        <ele>557.22000000000003</ele>
        <time>2013-09-05T08:55:52Z</time>
      </trkpt>
      <trkpt lat="50.789845967665315" lon="15.864734994247556">
        <ele>558.65999999999997</ele>
        <time>2013-09-05T08:55:53Z</time>
      </trkpt>
      <trkpt lat="50.789476996287704" lon="15.864665005356073">
        <ele>560.11000000000001</ele>
        <time>2013-09-05T08:55:56Z</time>
      </trkpt>
      <trkpt lat="50.789353027939796" lon="15.86468000896275">
        <ele>560.59000000000003</ele>
        <time>2013-09-05T08:55:57Z</time>
      </trkpt>
      <trkpt lat="50.789222018793225" lon="15.86476600728929">
        <ele>561.07000000000005</ele>
        <time>2013-09-05T08:55:58Z</time>
      </trkpt>
      <trkpt lat="50.789086986333132" lon="15.864858962595463">
        <ele>561.54999999999995</ele>
        <time>2013-09-05T08:55:59Z</time>
      </trkpt>
      <trkpt lat="50.788958994671702" lon="15.864948984235525">
        <ele>562.02999999999997</ele>
        <time>2013-09-05T08:56:00Z</time>
      </trkpt>
      <trkpt lat="50.788810970261693" lon="15.865012016147375">
        <ele>562.02999999999997</ele>
        <time>2013-09-05T08:56:01Z</time>
      </trkpt>
      <trkpt lat="50.788664035499096" lon="15.865075970068574">
        <ele>562.50999999999999</ele>
        <time>2013-09-05T08:56:02Z</time>
      </trkpt>
      <trkpt lat="50.788522968068719" lon="15.865164985880256">
        <ele>563.95000000000005</ele>
        <time>2013-09-05T08:56:03Z</time>
      </trkpt>
      <trkpt lat="50.788392964750528" lon="15.865266993641853">
        <ele>564.42999999999995</ele>
        <time>2013-09-05T08:56:04Z</time>
      </trkpt>
      <trkpt lat="50.788268996402621" lon="15.86536799557507">
        <ele>565.38999999999999</ele>
        <time>2013-09-05T08:56:05Z</time>
      </trkpt>
      <trkpt lat="50.788129018619657" lon="15.865446031093597">
        <ele>565.87</ele>
        <time>2013-09-05T08:56:06Z</time>
      </trkpt>
      <trkpt lat="50.787974959239364" lon="15.865487018600106">
        <ele>567.79999999999995</ele>
        <time>2013-09-05T08:56:07Z</time>
      </trkpt>
      <trkpt lat="50.786507036536932" lon="15.86573202162981">
        <ele>575.97000000000003</ele>
        <time>2013-09-05T08:56:16Z</time>
      </trkpt>
      <trkpt lat="50.786346020177007" lon="15.865705031901598">
        <ele>576.92999999999995</ele>
        <time>2013-09-05T08:56:17Z</time>
      </trkpt>
      <trkpt lat="50.784912966191769" lon="15.865551978349686">
        <ele>587.01999999999998</ele>
        <time>2013-09-05T08:56:26Z</time>
      </trkpt>
      <trkpt lat="50.784612977877259" lon="15.865465980023146">
        <ele>589.42999999999995</ele>
        <time>2013-09-05T08:56:28Z</time>
      </trkpt>
      <trkpt lat="50.783674959093332" lon="15.864929035305977">
        <ele>592.30999999999995</ele>
        <time>2013-09-05T08:56:34Z</time>
      </trkpt>
      <trkpt lat="50.783531963825226" lon="15.86478503420949">
        <ele>592.78999999999996</ele>
        <time>2013-09-05T08:56:35Z</time>
      </trkpt>
      <trkpt lat="50.783386034891009" lon="15.864609014242887">
        <ele>593.75</ele>
        <time>2013-09-05T08:56:36Z</time>
      </trkpt>
      <trkpt lat="50.782060017809272" lon="15.863205967471004">
        <ele>602.88</ele>
        <time>2013-09-05T08:56:45Z</time>
      </trkpt>
      <trkpt lat="50.781893972307444" lon="15.863162968307734">
        <ele>604.33000000000004</ele>
        <time>2013-09-05T08:56:46Z</time>
      </trkpt>
      <trkpt lat="50.781200034543872" lon="15.863084010779858">
        <ele>606.25</ele>
        <time>2013-09-05T08:56:50Z</time>
      </trkpt>
      <trkpt lat="50.78102502040565" lon="15.863023996353149">
        <ele>606.73000000000002</ele>
        <time>2013-09-05T08:56:51Z</time>
      </trkpt>
      <trkpt lat="50.779189970344305" lon="15.862125959247351">
        <ele>613.46000000000004</ele>
        <time>2013-09-05T08:57:02Z</time>
      </trkpt>
      <trkpt lat="50.779040018096566" lon="15.862004002556205">
        <ele>614.41999999999996</ele>
        <time>2013-09-05T08:57:03Z</time>
      </trkpt>
      <trkpt lat="50.778885036706924" lon="15.86186301894486">
        <ele>615.38</ele>
        <time>2013-09-05T08:57:04Z</time>
      </trkpt>
      <trkpt lat="50.777418036013842" lon="15.860315971076488">
        <ele>621.14999999999998</ele>
        <time>2013-09-05T08:57:14Z</time>
      </trkpt>
      <trkpt lat="50.776561992242932" lon="15.859046028926969">
        <ele>629.32000000000005</ele>
        <time>2013-09-05T08:57:21Z</time>
      </trkpt>
      <trkpt lat="50.776421008631587" lon="15.85889901034534">
        <ele>630.75999999999999</ele>
        <time>2013-09-05T08:57:22Z</time>
      </trkpt>
      <trkpt lat="50.776276001706719" lon="15.858775964006782">
        <ele>631.24000000000001</ele>
        <time>2013-09-05T08:57:23Z</time>
      </trkpt>
      <trkpt lat="50.77612797729671" lon="15.858670016750693">
        <ele>632.20000000000005</ele>
        <time>2013-09-05T08:57:24Z</time>
      </trkpt>
      <trkpt lat="50.775969978421926" lon="15.858579995110631">
        <ele>632.67999999999995</ele>
        <time>2013-09-05T08:57:25Z</time>
      </trkpt>
      <trkpt lat="50.775635037571192" lon="15.858445968478918">
        <ele>635.09000000000003</ele>
        <time>2013-09-05T08:57:27Z</time>
      </trkpt>
      <trkpt lat="50.775466980412602" lon="15.858400035649538">
        <ele>635.57000000000005</ele>
        <time>2013-09-05T08:57:28Z</time>
      </trkpt>
      <trkpt lat="50.774484034627676" lon="15.858302973210812">
        <ele>639.40999999999997</ele>
        <time>2013-09-05T08:57:34Z</time>
      </trkpt>
      <trkpt lat="50.774347996339202" lon="15.858214041218162">
        <ele>639.88999999999999</ele>
        <time>2013-09-05T08:57:35Z</time>
      </trkpt>
      <trkpt lat="50.774250011891127" lon="15.858086971566081">
        <ele>640.86000000000001</ele>
        <time>2013-09-05T08:57:36Z</time>
      </trkpt>
      <trkpt lat="50.77412998303771" lon="15.857950011268258">
        <ele>641.82000000000005</ele>
        <time>2013-09-05T08:57:37Z</time>
      </trkpt>
      <trkpt lat="50.774033004418015" lon="15.857791006565094">
        <ele>643.25999999999999</ele>
        <time>2013-09-05T08:57:38Z</time>
      </trkpt>
      <trkpt lat="50.773932002484798" lon="15.857624039053917">
        <ele>644.22000000000003</ele>
        <time>2013-09-05T08:57:39Z</time>
      </trkpt>
      <trkpt lat="50.773709965869784" lon="15.857292031869292">
        <ele>644.70000000000005</ele>
        <time>2013-09-05T08:57:41Z</time>
      </trkpt>
      <trkpt lat="50.773593038320541" lon="15.857164962217212">
        <ele>645.65999999999997</ele>
        <time>2013-09-05T08:57:42Z</time>
      </trkpt>
      <trkpt lat="50.77346496284008" lon="15.857045017182827">
        <ele>646.13999999999999</ele>
        <time>2013-09-05T08:57:43Z</time>
      </trkpt>
      <trkpt lat="50.773056009784341" lon="15.856764977797866">
        <ele>650.47000000000003</ele>
        <time>2013-09-05T08:57:46Z</time>
      </trkpt>
      <trkpt lat="50.772899016737938" lon="15.856722984462976">
        <ele>651.42999999999995</ele>
        <time>2013-09-05T08:57:47Z</time>
      </trkpt>
      <trkpt lat="50.772727020084858" lon="15.856710998341441">
        <ele>651.42999999999995</ele>
        <time>2013-09-05T08:57:48Z</time>
      </trkpt>
      <trkpt lat="50.770774036645889" lon="15.856879977509379">
        <ele>659.12</ele>
        <time>2013-09-05T08:58:00Z</time>
      </trkpt>
      <trkpt lat="50.769323967397213" lon="15.85765304043889">
        <ele>670.17999999999995</ele>
        <time>2013-09-05T08:58:09Z</time>
      </trkpt>
      <trkpt lat="50.768122002482414" lon="15.858610002323985">
        <ele>680.75</ele>
        <time>2013-09-05T08:58:17Z</time>
      </trkpt>
      <trkpt lat="50.767855038866401" lon="15.858860034495592">
        <ele>680.26999999999998</ele>
        <time>2013-09-05T08:58:19Z</time>
      </trkpt>
      <trkpt lat="50.7677480019629" lon="15.859049968421459">
        <ele>682.19000000000005</ele>
        <time>2013-09-05T08:58:20Z</time>
      </trkpt>
      <trkpt lat="50.767648005858064" lon="15.85924400947988">
        <ele>682.19000000000005</ele>
        <time>2013-09-05T08:58:21Z</time>
      </trkpt>
      <trkpt lat="50.767564019188285" lon="15.859463028609753">
        <ele>683.63</ele>
        <time>2013-09-05T08:58:22Z</time>
      </trkpt>
      <trkpt lat="50.76746896840632" lon="15.859684981405735">
        <ele>686.03999999999996</ele>
        <time>2013-09-05T08:58:23Z</time>
      </trkpt>
      <trkpt lat="50.767409037798643" lon="15.859922021627426">
        <ele>686.51999999999998</ele>
        <time>2013-09-05T08:58:24Z</time>
      </trkpt>
      <trkpt lat="50.767343994230032" lon="15.86016702465713">
        <ele>688.44000000000005</ele>
        <time>2013-09-05T08:58:25Z</time>
      </trkpt>
      <trkpt lat="50.767324967309833" lon="15.860428037121892">
        <ele>688.44000000000005</ele>
        <time>2013-09-05T08:58:26Z</time>
      </trkpt>
      <trkpt lat="50.767322033643723" lon="15.860699024051428">
        <ele>687.96000000000004</ele>
        <time>2013-09-05T08:58:27Z</time>
      </trkpt>
      <trkpt lat="50.767322033643723" lon="15.860960958525538">
        <ele>688.44000000000005</ele>
        <time>2013-09-05T08:58:28Z</time>
      </trkpt>
      <trkpt lat="50.767294960096478" lon="15.861700996756554">
        <ele>690.36000000000001</ele>
        <time>2013-09-05T08:58:31Z</time>
      </trkpt>
      <trkpt lat="50.767213990911841" lon="15.862167030572891">
        <ele>691.33000000000004</ele>
        <time>2013-09-05T08:58:33Z</time>
      </trkpt>
      <trkpt lat="50.767151964828372" lon="15.862386971712112">
        <ele>691.80999999999995</ele>
        <time>2013-09-05T08:58:34Z</time>
      </trkpt>
      <trkpt lat="50.767069989815354" lon="15.862590987235308">
        <ele>692.76999999999998</ele>
        <time>2013-09-05T08:58:35Z</time>
      </trkpt>
      <trkpt lat="50.76697401702404" lon="15.862784022465348">
        <ele>693.25</ele>
        <time>2013-09-05T08:58:36Z</time>
      </trkpt>
      <trkpt lat="50.766877960413694" lon="15.862969011068344">
        <ele>694.21000000000004</ele>
        <time>2013-09-05T08:58:37Z</time>
      </trkpt>
      <trkpt lat="50.766762038692832" lon="15.863126004114747">
        <ele>694.69000000000005</ele>
        <time>2013-09-05T08:58:38Z</time>
      </trkpt>
      <trkpt lat="50.766626000404358" lon="15.863230023533106">
        <ele>696.61000000000001</ele>
        <time>2013-09-05T08:58:39Z</time>
      </trkpt>
      <trkpt lat="50.766488034278154" lon="15.863321973010898">
        <ele>696.61000000000001</ele>
        <time>2013-09-05T08:58:40Z</time>
      </trkpt>
      <trkpt lat="50.766342021524906" lon="15.863396991044283">
        <ele>697.57000000000005</ele>
        <time>2013-09-05T08:58:41Z</time>
      </trkpt>
      <trkpt lat="50.76620003208518" lon="15.863447031006217">
        <ele>696.61000000000001</ele>
        <time>2013-09-05T08:58:42Z</time>
      </trkpt>
      <trkpt lat="50.766043961048126" lon="15.863487012684345">
        <ele>697.09000000000003</ele>
        <time>2013-09-05T08:58:43Z</time>
      </trkpt>
      <trkpt lat="50.765593014657497" lon="15.863631013780832">
        <ele>699.5</ele>
        <time>2013-09-05T08:58:46Z</time>
      </trkpt>
      <trkpt lat="50.765440966933966" lon="15.863723969087005">
        <ele>700.94000000000005</ele>
        <time>2013-09-05T08:58:47Z</time>
      </trkpt>
      <trkpt lat="50.76529897749424" lon="15.863832011818886">
        <ele>700.94000000000005</ele>
        <time>2013-09-05T08:58:48Z</time>
      </trkpt>
      <trkpt lat="50.76514801941812" lon="15.863969977945089">
        <ele>703.34000000000003</ele>
        <time>2013-09-05T08:58:49Z</time>
      </trkpt>
      <trkpt lat="50.765004018321633" lon="15.864118002355099">
        <ele>703.82000000000005</ele>
        <time>2013-09-05T08:58:50Z</time>
      </trkpt>
      <trkpt lat="50.763716977089643" lon="15.865921033546329">
        <ele>714.88</ele>
        <time>2013-09-05T08:59:00Z</time>
      </trkpt>
      <trkpt lat="50.762666976079345" lon="15.867506973445415">
        <ele>721.13</ele>
        <time>2013-09-05T08:59:09Z</time>
      </trkpt>
      <trkpt lat="50.761526031419635" lon="15.86844096891582">
        <ele>717.27999999999997</ele>
        <time>2013-09-05T08:59:17Z</time>
      </trkpt>
      <trkpt lat="50.761383958160877" lon="15.868494026362896">
        <ele>716.79999999999995</ele>
        <time>2013-09-05T08:59:18Z</time>
      </trkpt>
      <trkpt lat="50.761229982599616" lon="15.868522021919489">
        <ele>716.79999999999995</ele>
        <time>2013-09-05T08:59:19Z</time>
      </trkpt>
      <trkpt lat="50.761069972068071" lon="15.868528978899121">
        <ele>716.79999999999995</ele>
        <time>2013-09-05T08:59:20Z</time>
      </trkpt>
      <trkpt lat="50.760905016213655" lon="15.868527973070741">
        <ele>717.27999999999997</ele>
        <time>2013-09-05T08:59:21Z</time>
      </trkpt>
      <trkpt lat="50.759600959718227" lon="15.868424959480762">
        <ele>722.57000000000005</ele>
        <time>2013-09-05T08:59:29Z</time>
      </trkpt>
      <trkpt lat="50.759477997198701" lon="15.868339966982603">
        <ele>724.00999999999999</ele>
        <time>2013-09-05T08:59:30Z</time>
      </trkpt>
      <trkpt lat="50.759364003315568" lon="15.868223961442709">
        <ele>724.49000000000001</ele>
        <time>2013-09-05T08:59:31Z</time>
      </trkpt>
      <trkpt lat="50.75926098972559" lon="15.868069985881448">
        <ele>723.52999999999997</ele>
        <time>2013-09-05T08:59:32Z</time>
      </trkpt>
      <trkpt lat="50.759179014712572" lon="15.867886003106833">
        <ele>724.49000000000001</ele>
        <time>2013-09-05T08:59:33Z</time>
      </trkpt>
      <trkpt lat="50.759105002507567" lon="15.867688022553921">
        <ele>723.52999999999997</ele>
        <time>2013-09-05T08:59:34Z</time>
      </trkpt>
      <trkpt lat="50.759030990302563" lon="15.867475960403681">
        <ele>723.52999999999997</ele>
        <time>2013-09-05T08:59:35Z</time>
      </trkpt>
      <trkpt lat="50.758857987821102" lon="15.86702099069953">
        <ele>724.49000000000001</ele>
        <time>2013-09-05T08:59:37Z</time>
      </trkpt>
      <trkpt lat="50.758536038920283" lon="15.866382038220763">
        <ele>727.86000000000001</ele>
        <time>2013-09-05T08:59:40Z</time>
      </trkpt>
      <trkpt lat="50.757906977087259" lon="15.865415018051863">
        <ele>734.10000000000002</ele>
        <time>2013-09-05T08:59:45Z</time>
      </trkpt>
      <trkpt lat="50.757813015952706" lon="15.865213014185429">
        <ele>735.07000000000005</ele>
        <time>2013-09-05T08:59:46Z</time>
      </trkpt>
      <trkpt lat="50.757737997919321" lon="15.865005981177092">
        <ele>736.50999999999999</ele>
        <time>2013-09-05T08:59:47Z</time>
      </trkpt>
      <trkpt lat="50.757675971835852" lon="15.864783022552729">
        <ele>736.99000000000001</ele>
        <time>2013-09-05T08:59:48Z</time>
      </trkpt>
      <trkpt lat="50.757640013471246" lon="15.864528967067599">
        <ele>738.42999999999995</ele>
        <time>2013-09-05T08:59:49Z</time>
      </trkpt>
      <trkpt lat="50.757626015692949" lon="15.864270972087979">
        <ele>739.38999999999999</ele>
        <time>2013-09-05T08:59:50Z</time>
      </trkpt>
      <trkpt lat="50.757589973509312" lon="15.864028986543417">
        <ele>740.35000000000002</ele>
        <time>2013-09-05T08:59:51Z</time>
      </trkpt>
      <trkpt lat="50.757532976567745" lon="15.863788006827235">
        <ele>740.83000000000004</ele>
        <time>2013-09-05T08:59:52Z</time>
      </trkpt>
      <trkpt lat="50.757476985454559" lon="15.863555995747447">
        <ele>741.78999999999996</ele>
        <time>2013-09-05T08:59:53Z</time>
      </trkpt>
      <trkpt lat="50.757400039583445" lon="15.863334964960814">
        <ele>742.27999999999997</ele>
        <time>2013-09-05T08:59:54Z</time>
      </trkpt>
      <trkpt lat="50.757302977144718" lon="15.863121980801225">
        <ele>743.24000000000001</ele>
        <time>2013-09-05T08:59:55Z</time>
      </trkpt>
      <trkpt lat="50.757187977433205" lon="15.86291897110641">
        <ele>744.67999999999995</ele>
        <time>2013-09-05T08:59:56Z</time>
      </trkpt>
      <trkpt lat="50.757056968286633" lon="15.86272400803864">
        <ele>745.63999999999999</ele>
        <time>2013-09-05T08:59:57Z</time>
      </trkpt>
      <trkpt lat="50.756925959140062" lon="15.862546982243657">
        <ele>745.63999999999999</ele>
        <time>2013-09-05T08:59:58Z</time>
      </trkpt>
      <trkpt lat="50.756594035774469" lon="15.862095030024648">
        <ele>748.03999999999996</ele>
        <time>2013-09-05T09:00:01Z</time>
      </trkpt>
      <trkpt lat="50.756484987214208" lon="15.862013977020979">
        <ele>749</ele>
        <time>2013-09-05T09:00:02Z</time>
      </trkpt>
      <trkpt lat="50.756370993331075" lon="15.86197298951447">
        <ele>749.49000000000001</ele>
        <time>2013-09-05T09:00:03Z</time>
      </trkpt>
      <trkpt lat="50.756259011104703" lon="15.861959997564554">
        <ele>749.97000000000003</ele>
        <time>2013-09-05T09:00:04Z</time>
      </trkpt>
      <trkpt lat="50.756140993908048" lon="15.86199302226305">
        <ele>750.45000000000005</ele>
        <time>2013-09-05T09:00:05Z</time>
      </trkpt>
      <trkpt lat="50.756011996418238" lon="15.862065022811294">
        <ele>750.92999999999995</ele>
        <time>2013-09-05T09:00:06Z</time>
      </trkpt>
      <trkpt lat="50.755877969786525" lon="15.862179016694427">
        <ele>751.40999999999997</ele>
        <time>2013-09-05T09:00:07Z</time>
      </trkpt>
      <trkpt lat="50.755752995610237" lon="15.862308014184237">
        <ele>752.37</ele>
        <time>2013-09-05T09:00:08Z</time>
      </trkpt>
      <trkpt lat="50.755625003948808" lon="15.862457966431975">
        <ele>752.85000000000002</ele>
        <time>2013-09-05T09:00:09Z</time>
      </trkpt>
      <trkpt lat="50.755497012287378" lon="15.862622000277042">
        <ele>753.33000000000004</ele>
        <time>2013-09-05T09:00:10Z</time>
      </trkpt>
      <trkpt lat="50.75537103228271" lon="15.862806988880038">
        <ele>753.33000000000004</ele>
        <time>2013-09-05T09:00:11Z</time>
      </trkpt>
      <trkpt lat="50.754816988483071" lon="15.863794041797519">
        <ele>757.65999999999997</ele>
        <time>2013-09-05T09:00:16Z</time>
      </trkpt>
      <trkpt lat="50.754698971286416" lon="15.863928990438581">
        <ele>758.13999999999999</ele>
        <time>2013-09-05T09:00:17Z</time>
      </trkpt>
      <trkpt lat="50.754581037908792" lon="15.864018006250262">
        <ele>758.62</ele>
        <time>2013-09-05T09:00:18Z</time>
      </trkpt>
      <trkpt lat="50.754437036812305" lon="15.864053964614868">
        <ele>759.58000000000004</ele>
        <time>2013-09-05T09:00:19Z</time>
      </trkpt>
      <trkpt lat="50.75427602045238" lon="15.864048013463616">
        <ele>760.53999999999996</ele>
        <time>2013-09-05T09:00:20Z</time>
      </trkpt>
      <trkpt lat="50.754122966900468" lon="15.864033009856939">
        <ele>761.01999999999998</ele>
        <time>2013-09-05T09:00:21Z</time>
      </trkpt>
      <trkpt lat="50.75395499356091" lon="15.863982969895005">
        <ele>761.5</ele>
        <time>2013-09-05T09:00:22Z</time>
      </trkpt>
      <trkpt lat="50.753790037706494" lon="15.863917004317045">
        <ele>761.98000000000002</ele>
        <time>2013-09-05T09:00:23Z</time>
      </trkpt>
      <trkpt lat="50.75363103300333" lon="15.863851960748434">
        <ele>762.46000000000004</ele>
        <time>2013-09-05T09:00:24Z</time>
      </trkpt>
      <trkpt lat="50.752199990674853" lon="15.863331025466323">
        <ele>767.26999999999998</ele>
        <time>2013-09-05T09:00:33Z</time>
      </trkpt>
      <trkpt lat="50.752050960436463" lon="15.863299006596208">
        <ele>767.75</ele>
        <time>2013-09-05T09:00:34Z</time>
      </trkpt>
      <trkpt lat="50.751897990703583" lon="15.863290959969163">
        <ele>768.71000000000004</ele>
        <time>2013-09-05T09:00:35Z</time>
      </trkpt>
      <trkpt lat="50.751745020970702" lon="15.863302024081349">
        <ele>769.19000000000005</ele>
        <time>2013-09-05T09:00:36Z</time>
      </trkpt>
      <trkpt lat="50.751595990732312" lon="15.863336976617575">
        <ele>769.66999999999996</ele>
        <time>2013-09-05T09:00:37Z</time>
      </trkpt>
      <trkpt lat="50.751435980200768" lon="15.863378969952464">
        <ele>770.63</ele>
        <time>2013-09-05T09:00:38Z</time>
      </trkpt>
      <trkpt lat="50.750244995579123" lon="15.863789012655616">
        <ele>774.96000000000004</ele>
        <time>2013-09-05T09:00:48Z</time>
      </trkpt>
      <trkpt lat="50.749427005648613" lon="15.864230990409851">
        <ele>779.28999999999996</ele>
        <time>2013-09-05T09:00:57Z</time>
      </trkpt>
      <trkpt lat="50.748814959079027" lon="15.864155972376466">
        <ele>781.69000000000005</ele>
        <time>2013-09-05T09:01:04Z</time>
      </trkpt>
      <trkpt lat="50.748740024864674" lon="15.864081960171461">
        <ele>782.64999999999998</ele>
        <time>2013-09-05T09:01:05Z</time>
      </trkpt>
      <trkpt lat="50.748656960204244" lon="15.863985987380147">
        <ele>783.13</ele>
        <time>2013-09-05T09:01:06Z</time>
      </trkpt>
      <trkpt lat="50.748583031818271" lon="15.86386201903224">
        <ele>783.13</ele>
        <time>2013-09-05T09:01:07Z</time>
      </trkpt>
      <trkpt lat="50.748537015169859" lon="15.863685999065638">
        <ele>784.09000000000003</ele>
        <time>2013-09-05T09:01:08Z</time>
      </trkpt>
      <trkpt lat="50.748492004349828" lon="15.863487012684345">
        <ele>784.09000000000003</ele>
        <time>2013-09-05T09:01:09Z</time>
      </trkpt>
      <trkpt lat="50.7484520226717" lon="15.863261958584189">
        <ele>784.09000000000003</ele>
        <time>2013-09-05T09:01:10Z</time>
      </trkpt>
      <trkpt lat="50.748339034616947" lon="15.862859962508082">
        <ele>785.52999999999997</ele>
        <time>2013-09-05T09:01:12Z</time>
      </trkpt>
      <trkpt lat="50.748258987441659" lon="15.862657958641648">
        <ele>786.5</ele>
        <time>2013-09-05T09:01:13Z</time>
      </trkpt>
      <trkpt lat="50.748163014650345" lon="15.862491996958852">
        <ele>786.98000000000002</ele>
        <time>2013-09-05T09:01:14Z</time>
      </trkpt>
      <trkpt lat="50.748042985796928" lon="15.862354030832648">
        <ele>787.94000000000005</ele>
        <time>2013-09-05T09:01:15Z</time>
      </trkpt>
      <trkpt lat="50.747897978872061" lon="15.862252023071051">
        <ele>788.41999999999996</ele>
        <time>2013-09-05T09:01:16Z</time>
      </trkpt>
      <trkpt lat="50.747749032452703" lon="15.862155966460705">
        <ele>788.41999999999996</ele>
        <time>2013-09-05T09:01:17Z</time>
      </trkpt>
      <trkpt lat="50.747467987239361" lon="15.861897971481085">
        <ele>790.34000000000003</ele>
        <time>2013-09-05T09:01:19Z</time>
      </trkpt>
      <trkpt lat="50.747319962829351" lon="15.861764028668404">
        <ele>792.25999999999999</ele>
        <time>2013-09-05T09:01:20Z</time>
      </trkpt>
      <trkpt lat="50.746854012832046" lon="15.861073024570942">
        <ele>797.07000000000005</ele>
        <time>2013-09-05T09:01:24Z</time>
      </trkpt>
      <trkpt lat="50.746696013957262" lon="15.860673962160945">
        <ele>798.02999999999997</ele>
        <time>2013-09-05T09:01:26Z</time>
      </trkpt>
      <trkpt lat="50.746171977370977" lon="15.859062960371375">
        <ele>806.67999999999995</ele>
        <time>2013-09-05T09:01:33Z</time>
      </trkpt>
      <trkpt lat="50.746142975986004" lon="15.858847964555025">
        <ele>809.09000000000003</ele>
        <time>2013-09-05T09:01:34Z</time>
      </trkpt>
      <trkpt lat="50.746124032884836" lon="15.858631962910295">
        <ele>810.04999999999995</ele>
        <time>2013-09-05T09:01:35Z</time>
      </trkpt>
      <trkpt lat="50.746114980429411" lon="15.858388971537352">
        <ele>811.97000000000003</ele>
        <time>2013-09-05T09:01:36Z</time>
      </trkpt>
      <trkpt lat="50.746088996529579" lon="15.858129970729351">
        <ele>813.88999999999999</ele>
        <time>2013-09-05T09:01:37Z</time>
      </trkpt>
      <trkpt lat="50.745986988767982" lon="15.857169991359115">
        <ele>818.22000000000003</ele>
        <time>2013-09-05T09:01:41Z</time>
      </trkpt>
      <trkpt lat="50.745909959077835" lon="15.856748968362808">
        <ele>819.17999999999995</ele>
        <time>2013-09-05T09:01:43Z</time>
      </trkpt>
      <trkpt lat="50.745887998491526" lon="15.856533972546458">
        <ele>820.62</ele>
        <time>2013-09-05T09:01:44Z</time>
      </trkpt>
      <trkpt lat="50.745894033461809" lon="15.856311013922095">
        <ele>821.58000000000004</ele>
        <time>2013-09-05T09:01:45Z</time>
      </trkpt>
      <trkpt lat="50.74591800570488" lon="15.856075985357165">
        <ele>823.02999999999997</ele>
        <time>2013-09-05T09:01:46Z</time>
      </trkpt>
      <trkpt lat="50.745951030403376" lon="15.855829976499081">
        <ele>823.99000000000001</ele>
        <time>2013-09-05T09:01:47Z</time>
      </trkpt>
      <trkpt lat="50.746358977630734" lon="15.853250026702881">
        <ele>839.37</ele>
        <time>2013-09-05T09:01:57Z</time>
      </trkpt>
      <trkpt lat="50.746367024257779" lon="15.8529709931463">
        <ele>841.76999999999998</ele>
        <time>2013-09-05T09:01:58Z</time>
      </trkpt>
      <trkpt lat="50.746274990960956" lon="15.851095039397478">
        <ele>850.89999999999998</ele>
        <time>2013-09-05T09:02:05Z</time>
      </trkpt>
      <trkpt lat="50.746292006224394" lon="15.850880965590477">
        <ele>852.35000000000002</ele>
        <time>2013-09-05T09:02:06Z</time>
      </trkpt>
      <trkpt lat="50.746318995952606" lon="15.850678961724043">
        <ele>853.78999999999996</ele>
        <time>2013-09-05T09:02:07Z</time>
      </trkpt>
      <trkpt lat="50.746351014822721" lon="15.850495984777808">
        <ele>854.26999999999998</ele>
        <time>2013-09-05T09:02:08Z</time>
      </trkpt>
      <trkpt lat="50.74637196958065" lon="15.850285012274981">
        <ele>854.26999999999998</ele>
        <time>2013-09-05T09:02:09Z</time>
      </trkpt>
      <trkpt lat="50.746378004550934" lon="15.850089965388179">
        <ele>854.75</ele>
        <time>2013-09-05T09:02:10Z</time>
      </trkpt>
      <trkpt lat="50.746343974024057" lon="15.849902965128422">
        <ele>854.75</ele>
        <time>2013-09-05T09:02:11Z</time>
      </trkpt>
      <trkpt lat="50.746315978467464" lon="15.849729040637612">
        <ele>855.23000000000002</ele>
        <time>2013-09-05T09:02:12Z</time>
      </trkpt>
      <trkpt lat="50.74632603675127" lon="15.849526030942798">
        <ele>854.75</ele>
        <time>2013-09-05T09:02:13Z</time>
      </trkpt>
      <trkpt lat="50.746312038972974" lon="15.849377000704408">
        <ele>855.23000000000002</ele>
        <time>2013-09-05T09:02:14Z</time>
      </trkpt>
      <trkpt lat="50.746333999559283" lon="15.849236017093062">
        <ele>855.71000000000004</ele>
        <time>2013-09-05T09:02:15Z</time>
      </trkpt>
      <trkpt lat="50.746381022036076" lon="15.849138032644987">
        <ele>856.19000000000005</ele>
        <time>2013-09-05T09:02:16Z</time>
      </trkpt>
      <trkpt lat="50.746441958472133" lon="15.84908296354115">
        <ele>856.66999999999996</ele>
        <time>2013-09-05T09:02:17Z</time>
      </trkpt>
      <trkpt lat="50.746502978727221" lon="15.849100984632969">
        <ele>856.66999999999996</ele>
        <time>2013-09-05T09:02:18Z</time>
      </trkpt>
      <trkpt lat="50.746579002588987" lon="15.849165022373199">
        <ele>857.63</ele>
        <time>2013-09-05T09:02:19Z</time>
      </trkpt>
      <trkpt lat="50.746633987873793" lon="15.849269041791558">
        <ele>857.63</ele>
        <time>2013-09-05T09:02:20Z</time>
      </trkpt>
      <trkpt lat="50.746661983430386" lon="15.84940399043262">
        <ele>858.59000000000003</ele>
        <time>2013-09-05T09:02:21Z</time>
      </trkpt>
      <trkpt lat="50.746673969551921" lon="15.849574981257319">
        <ele>859.55999999999995</ele>
        <time>2013-09-05T09:02:22Z</time>
      </trkpt>
      <trkpt lat="50.746666006743908" lon="15.849751001223922">
        <ele>860.51999999999998</ele>
        <time>2013-09-05T09:02:23Z</time>
      </trkpt>
      <trkpt lat="50.746658965945244" lon="15.849944036453962">
        <ele>861.48000000000002</ele>
        <time>2013-09-05T09:02:24Z</time>
      </trkpt>
      <trkpt lat="50.74666902422905" lon="15.850759008899331">
        <ele>864.84000000000003</ele>
        <time>2013-09-05T09:02:28Z</time>
      </trkpt>
      <trkpt lat="50.746690984815359" lon="15.850965036079288">
        <ele>867.73000000000002</ele>
        <time>2013-09-05T09:02:29Z</time>
      </trkpt>
      <trkpt lat="50.746738007292151" lon="15.851142983883619">
        <ele>869.64999999999998</ele>
        <time>2013-09-05T09:02:30Z</time>
      </trkpt>
      <trkpt lat="50.746832974255085" lon="15.85129695944488">
        <ele>871.09000000000003</ele>
        <time>2013-09-05T09:02:31Z</time>
      </trkpt>
      <trkpt lat="50.746931964531541" lon="15.851455964148045">
        <ele>871.57000000000005</ele>
        <time>2013-09-05T09:02:32Z</time>
      </trkpt>
      <trkpt lat="50.747028021141887" lon="15.851625027135015">
        <ele>872.52999999999997</ele>
        <time>2013-09-05T09:02:33Z</time>
      </trkpt>
      <trkpt lat="50.747114019468427" lon="15.851828958839178">
        <ele>873.5</ele>
        <time>2013-09-05T09:02:34Z</time>
      </trkpt>
      <trkpt lat="50.747197000309825" lon="15.852044960483909">
        <ele>874.94000000000005</ele>
        <time>2013-09-05T09:02:35Z</time>
      </trkpt>
      <trkpt lat="50.747433034703135" lon="15.852664969861507">
        <ele>879.25999999999999</ele>
        <time>2013-09-05T09:02:38Z</time>
      </trkpt>
      <trkpt lat="50.7474659755826" lon="15.852878037840128">
        <ele>880.22000000000003</ele>
        <time>2013-09-05T09:02:39Z</time>
      </trkpt>
      <trkpt lat="50.747456001117826" lon="15.853102002292871">
        <ele>880.71000000000004</ele>
        <time>2013-09-05T09:02:40Z</time>
      </trkpt>
      <trkpt lat="50.747462958097458" lon="15.85365797393024">
        <ele>882.14999999999998</ele>
        <time>2013-09-05T09:02:43Z</time>
      </trkpt>
      <trkpt lat="50.747506963089108" lon="15.853800969198346">
        <ele>883.11000000000001</ele>
        <time>2013-09-05T09:02:44Z</time>
      </trkpt>
      <trkpt lat="50.747582986950874" lon="15.853877998888493">
        <ele>883.59000000000003</ele>
        <time>2013-09-05T09:02:45Z</time>
      </trkpt>
      <trkpt lat="50.74765901081264" lon="15.853897025808692">
        <ele>884.54999999999995</ele>
        <time>2013-09-05T09:02:46Z</time>
      </trkpt>
      <trkpt lat="50.747759006917477" lon="15.85382703691721">
        <ele>883.11000000000001</ele>
        <time>2013-09-05T09:02:47Z</time>
      </trkpt>
      <trkpt lat="50.74785296805203" lon="15.853733997792006">
        <ele>882.63</ele>
        <time>2013-09-05T09:02:48Z</time>
      </trkpt>
      <trkpt lat="50.747929997742176" lon="15.853599971160293">
        <ele>881.66999999999996</ele>
        <time>2013-09-05T09:02:49Z</time>
      </trkpt>
      <trkpt lat="50.747976014390588" lon="15.853460999205709">
        <ele>882.14999999999998</ele>
        <time>2013-09-05T09:02:50Z</time>
      </trkpt>
      <trkpt lat="50.74795899912715" lon="15.853212978690863">
        <ele>882.14999999999998</ele>
        <time>2013-09-05T09:02:51Z</time>
      </trkpt>
      <trkpt lat="50.747942989692092" lon="15.853017009794712">
        <ele>882.14999999999998</ele>
        <time>2013-09-05T09:02:52Z</time>
      </trkpt>
      <trkpt lat="50.74791700579226" lon="15.85281802341342">
        <ele>882.63</ele>
        <time>2013-09-05T09:02:53Z</time>
      </trkpt>
      <trkpt lat="50.747904013842344" lon="15.85262699984014">
        <ele>883.59000000000003</ele>
        <time>2013-09-05T09:02:54Z</time>
      </trkpt>
      <trkpt lat="50.74776403605938" lon="15.850722966715693">
        <ele>885.02999999999997</ele>
        <time>2013-09-05T09:03:02Z</time>
      </trkpt>
      <trkpt lat="50.747777028009295" lon="15.848155003041029">
        <ele>897.52999999999997</ele>
        <time>2013-09-05T09:03:11Z</time>
      </trkpt>
      <trkpt lat="50.748027982190251" lon="15.845805974677205">
        <ele>906.17999999999995</ele>
        <time>2013-09-05T09:03:20Z</time>
      </trkpt>
      <trkpt lat="50.748008033260703" lon="15.844235038384795">
        <ele>907.62</ele>
        <time>2013-09-05T09:03:26Z</time>
      </trkpt>
      <trkpt lat="50.748036028817296" lon="15.844005960971117">
        <ele>907.62</ele>
        <time>2013-09-05T09:03:27Z</time>
      </trkpt>
      <trkpt lat="50.748096965253353" lon="15.843789959326386">
        <ele>907.13999999999999</ele>
        <time>2013-09-05T09:03:28Z</time>
      </trkpt>
      <trkpt lat="50.748164020478725" lon="15.843592984601855">
        <ele>908.10000000000002</ele>
        <time>2013-09-05T09:03:29Z</time>
      </trkpt>
      <trkpt lat="50.74826099909842" lon="15.843403972685337">
        <ele>910.02999999999997</ele>
        <time>2013-09-05T09:03:30Z</time>
      </trkpt>
      <trkpt lat="50.748365018516779" lon="15.843255026265979">
        <ele>910.50999999999999</ele>
        <time>2013-09-05T09:03:31Z</time>
      </trkpt>
      <trkpt lat="50.748532991856337" lon="15.842974986881018">
        <ele>911.95000000000005</ele>
        <time>2013-09-05T09:03:33Z</time>
      </trkpt>
      <trkpt lat="50.748587977141142" lon="15.842798966914415">
        <ele>911.95000000000005</ele>
        <time>2013-09-05T09:03:34Z</time>
      </trkpt>
      <trkpt lat="50.748615972697735" lon="15.842604003846645">
        <ele>911.95000000000005</ele>
        <time>2013-09-05T09:03:35Z</time>
      </trkpt>
      <trkpt lat="50.748616978526115" lon="15.842392025515437">
        <ele>911.47000000000003</ele>
        <time>2013-09-05T09:03:36Z</time>
      </trkpt>
      <trkpt lat="50.748574985191226" lon="15.842178035527468">
        <ele>911.95000000000005</ele>
        <time>2013-09-05T09:03:37Z</time>
      </trkpt>
      <trkpt lat="50.748516982421279" lon="15.84196899086237">
        <ele>911.95000000000005</ele>
        <time>2013-09-05T09:03:38Z</time>
      </trkpt>
      <trkpt lat="50.748460991308093" lon="15.841762963682413">
        <ele>912.42999999999995</ele>
        <time>2013-09-05T09:03:39Z</time>
      </trkpt>
      <trkpt lat="50.748364012688398" lon="15.841379994526505">
        <ele>913.87</ele>
        <time>2013-09-05T09:03:41Z</time>
      </trkpt>
      <trkpt lat="50.748355966061354" lon="15.84119601175189">
        <ele>915.30999999999995</ele>
        <time>2013-09-05T09:03:42Z</time>
      </trkpt>
      <trkpt lat="50.74836996383965" lon="15.841025020927191">
        <ele>916.26999999999998</ele>
        <time>2013-09-05T09:03:43Z</time>
      </trkpt>
      <trkpt lat="50.74840902350843" lon="15.840880014002323">
        <ele>918.20000000000005</ele>
        <time>2013-09-05T09:03:44Z</time>
      </trkpt>
      <trkpt lat="50.748468032106757" lon="15.840735007077456">
        <ele>919.15999999999997</ele>
        <time>2013-09-05T09:03:45Z</time>
      </trkpt>
      <trkpt lat="50.74853802099824" lon="15.840570973232388">
        <ele>920.60000000000002</ele>
        <time>2013-09-05T09:03:46Z</time>
      </trkpt>
      <trkpt lat="50.748669030144811" lon="15.840214993804693">
        <ele>920.60000000000002</ele>
        <time>2013-09-05T09:03:48Z</time>
      </trkpt>
      <trkpt lat="50.74871001765132" lon="15.839987006038427">
        <ele>923</ele>
        <time>2013-09-05T09:03:49Z</time>
      </trkpt>
      <trkpt lat="50.748900035396218" lon="15.837675025686622">
        <ele>934.05999999999995</ele>
        <time>2013-09-05T09:03:58Z</time>
      </trkpt>
      <trkpt lat="50.748927025124431" lon="15.837240004912019">
        <ele>936.46000000000004</ele>
        <time>2013-09-05T09:04:00Z</time>
      </trkpt>
      <trkpt lat="50.748964995145798" lon="15.837071025744081">
        <ele>936.94000000000005</ele>
        <time>2013-09-05T09:04:01Z</time>
      </trkpt>
      <trkpt lat="50.749030960723758" lon="15.836940016597509">
        <ele>937.41999999999996</ele>
        <time>2013-09-05T09:04:02Z</time>
      </trkpt>
      <trkpt lat="50.74912098236382" lon="15.836849994957447">
        <ele>937.89999999999998</ele>
        <time>2013-09-05T09:04:03Z</time>
      </trkpt>
      <trkpt lat="50.749230030924082" lon="15.836784029379487">
        <ele>938.38</ele>
        <time>2013-09-05T09:04:04Z</time>
      </trkpt>
      <trkpt lat="50.749351987615228" lon="15.836712028831244">
        <ele>938.86000000000001</ele>
        <time>2013-09-05T09:04:05Z</time>
      </trkpt>
      <trkpt lat="50.750032011419535" lon="15.836171982809901">
        <ele>945.11000000000001</ele>
        <time>2013-09-05T09:04:10Z</time>
      </trkpt>
      <trkpt lat="50.750132007524371" lon="15.836000991985202">
        <ele>945.59000000000003</ele>
        <time>2013-09-05T09:04:11Z</time>
      </trkpt>
      <trkpt lat="50.750201996415854" lon="15.835816003382206">
        <ele>946.07000000000005</ele>
        <time>2013-09-05T09:04:12Z</time>
      </trkpt>
      <trkpt lat="50.750237032771111" lon="15.835621040314436">
        <ele>947.03999999999996</ele>
        <time>2013-09-05T09:04:13Z</time>
      </trkpt>
      <trkpt lat="50.750242983922362" lon="15.835407972335815">
        <ele>947.51999999999998</ele>
        <time>2013-09-05T09:04:14Z</time>
      </trkpt>
      <trkpt lat="50.750230997800827" lon="15.835204962641001">
        <ele>948</ele>
        <time>2013-09-05T09:04:15Z</time>
      </trkpt>
      <trkpt lat="50.750203002244234" lon="15.83500899374485">
        <ele>948.96000000000004</ele>
        <time>2013-09-05T09:04:16Z</time>
      </trkpt>
      <trkpt lat="50.750165032222867" lon="15.834821993485093">
        <ele>949.44000000000005</ele>
        <time>2013-09-05T09:04:17Z</time>
      </trkpt>
      <trkpt lat="50.750114992260933" lon="15.834662988781929">
        <ele>949.91999999999996</ele>
        <time>2013-09-05T09:04:18Z</time>
      </trkpt>
      <trkpt lat="50.750040980055928" lon="15.834540026262403">
        <ele>950.39999999999998</ele>
        <time>2013-09-05T09:04:19Z</time>
      </trkpt>
      <trkpt lat="50.749965962022543" lon="15.834483029320836">
        <ele>950.88</ele>
        <time>2013-09-05T09:04:20Z</time>
      </trkpt>
      <trkpt lat="50.749866971746087" lon="15.83446903154254">
        <ele>951.36000000000001</ele>
        <time>2013-09-05T09:04:21Z</time>
      </trkpt>
      <trkpt lat="50.749789020046592" lon="15.834504989907146">
        <ele>951.36000000000001</ele>
        <time>2013-09-05T09:04:22Z</time>
      </trkpt>
      <trkpt lat="50.749719031155109" lon="15.834633987396955">
        <ele>952.79999999999995</ele>
        <time>2013-09-05T09:04:23Z</time>
      </trkpt>
      <trkpt lat="50.749685000628233" lon="15.834774971008301">
        <ele>952.79999999999995</ele>
        <time>2013-09-05T09:04:24Z</time>
      </trkpt>
      <trkpt lat="50.74967703782022" lon="15.834934981539845">
        <ele>953.27999999999997</ele>
        <time>2013-09-05T09:04:25Z</time>
      </trkpt>
      <trkpt lat="50.749678965657949" lon="15.835101027041674">
        <ele>953.76999999999998</ele>
        <time>2013-09-05T09:04:26Z</time>
      </trkpt>
      <trkpt lat="50.749596990644932" lon="15.835393974557519">
        <ele>954.73000000000002</ele>
        <time>2013-09-05T09:04:28Z</time>
      </trkpt>
      <trkpt lat="50.749513003975153" lon="15.835509980097413">
        <ele>955.21000000000004</ele>
        <time>2013-09-05T09:04:29Z</time>
      </trkpt>
      <trkpt lat="50.749404961243272" lon="15.835593966767192">
        <ele>955.69000000000005</ele>
        <time>2013-09-05T09:04:30Z</time>
      </trkpt>
      <trkpt lat="50.749284010380507" lon="15.835661021992564">
        <ele>956.16999999999996</ele>
        <time>2013-09-05T09:04:31Z</time>
      </trkpt>
      <trkpt lat="50.749131962656975" lon="15.835715001448989">
        <ele>958.57000000000005</ele>
        <time>2013-09-05T09:04:32Z</time>
      </trkpt>
      <trkpt lat="50.748985027894378" lon="15.835748026147485">
        <ele>959.04999999999995</ele>
        <time>2013-09-05T09:04:33Z</time>
      </trkpt>
      <trkpt lat="50.748699959367514" lon="15.835819020867348">
        <ele>960.49000000000001</ele>
        <time>2013-09-05T09:04:35Z</time>
      </trkpt>
      <trkpt lat="50.748570961877704" lon="15.835919016972184">
        <ele>961.94000000000005</ele>
        <time>2013-09-05T09:04:36Z</time>
      </trkpt>
      <trkpt lat="50.7484329957515" lon="15.836027981713414">
        <ele>964.34000000000003</ele>
        <time>2013-09-05T09:04:37Z</time>
      </trkpt>
      <trkpt lat="50.748310033231974" lon="15.836179023608565">
        <ele>965.29999999999995</ele>
        <time>2013-09-05T09:04:38Z</time>
      </trkpt>
      <trkpt lat="50.748207019641995" lon="15.836321013048291">
        <ele>965.77999999999997</ele>
        <time>2013-09-05T09:04:39Z</time>
      </trkpt>
      <trkpt lat="50.747795971110463" lon="15.836909003555775">
        <ele>971.07000000000005</ele>
        <time>2013-09-05T09:04:45Z</time>
      </trkpt>
      <trkpt lat="50.747669991105795" lon="15.837005982175469">
        <ele>974.42999999999995</ele>
        <time>2013-09-05T09:04:48Z</time>
      </trkpt>
      <trkpt lat="50.747624980285764" lon="15.83700698800385">
        <ele>975.88</ele>
        <time>2013-09-05T09:04:49Z</time>
      </trkpt>
      <trkpt lat="50.747584998607635" lon="15.837007993832231">
        <ele>975.38999999999999</ele>
        <time>2013-09-05T09:04:50Z</time>
      </trkpt>
      <trkpt lat="50.747546022757888" lon="15.836993996053934">
        <ele>975.88</ele>
        <time>2013-09-05T09:04:51Z</time>
      </trkpt>
      <trkpt lat="50.747502017766237" lon="15.836975974962115">
        <ele>975.88</ele>
        <time>2013-09-05T09:04:52Z</time>
      </trkpt>
      <trkpt lat="50.747471004724503" lon="15.836952002719045">
        <ele>975.88</ele>
        <time>2013-09-05T09:04:53Z</time>
      </trkpt>
      <trkpt lat="50.747459018602967" lon="15.836923001334071">
        <ele>976.84000000000003</ele>
        <time>2013-09-05T09:05:03Z</time>
      </trkpt>
      <trkpt lat="50.747462958097458" lon="15.836889976635575">
        <ele>984.52999999999997</ele>
        <time>2013-09-05T09:16:13Z</time>
      </trkpt>
      <trkpt lat="50.747462958097458" lon="15.836931969970465">
        <ele>981.15999999999997</ele>
        <time>2013-09-05T09:17:37Z</time>
      </trkpt>
      <trkpt lat="50.747462958097458" lon="15.836930964142084">
        <ele>981.15999999999997</ele>
        <time>2013-09-05T09:19:13Z</time>
      </trkpt>
      <trkpt lat="50.747462958097458" lon="15.836929958313704">
        <ele>981.15999999999997</ele>
        <time>2013-09-05T09:19:20Z</time>
      </trkpt>
      <trkpt lat="50.747442003339529" lon="15.836847983300686">
        <ele>981.15999999999997</ele>
        <time>2013-09-05T09:19:22Z</time>
      </trkpt>
      <trkpt lat="50.747419036924839" lon="15.836745975539088">
        <ele>981.15999999999997</ele>
        <time>2013-09-05T09:19:23Z</time>
      </trkpt>
      <trkpt lat="50.747405961155891" lon="15.836617983877659">
        <ele>982.12</ele>
        <time>2013-09-05T09:19:24Z</time>
      </trkpt>
      <trkpt lat="50.747419036924839" lon="15.836487980559468">
        <ele>982.12</ele>
        <time>2013-09-05T09:19:25Z</time>
      </trkpt>
      <trkpt lat="50.747456001117826" lon="15.836375998333097">
        <ele>982.60000000000002</ele>
        <time>2013-09-05T09:19:26Z</time>
      </trkpt>
      <trkpt lat="50.747512998059392" lon="15.836293017491698">
        <ele>983.09000000000003</ele>
        <time>2013-09-05T09:19:27Z</time>
      </trkpt>
      <trkpt lat="50.747601008042693" lon="15.836219005286694">
        <ele>983.09000000000003</ele>
        <time>2013-09-05T09:19:28Z</time>
      </trkpt>
      <trkpt lat="50.747695975005627" lon="15.836134012788534">
        <ele>983.57000000000005</ele>
        <time>2013-09-05T09:19:29Z</time>
      </trkpt>
      <trkpt lat="50.747880963608623" lon="15.835880963131785">
        <ele>985.00999999999999</ele>
        <time>2013-09-05T09:19:31Z</time>
      </trkpt>
      <trkpt lat="50.747949024662375" lon="15.835704021155834">
        <ele>985.00999999999999</ele>
        <time>2013-09-05T09:19:32Z</time>
      </trkpt>
      <trkpt lat="50.747999986633658" lon="15.835504028946161">
        <ele>985.00999999999999</ele>
        <time>2013-09-05T09:19:33Z</time>
      </trkpt>
      <trkpt lat="50.748205007985234" lon="15.834182035177946">
        <ele>989.33000000000004</ele>
        <time>2013-09-05T09:19:39Z</time>
      </trkpt>
      <trkpt lat="50.748209031298757" lon="15.833950024098158">
        <ele>990.29999999999995</ele>
        <time>2013-09-05T09:19:40Z</time>
      </trkpt>
      <trkpt lat="50.748192016035318" lon="15.83371901884675">
        <ele>991.25999999999999</ele>
        <time>2013-09-05T09:19:41Z</time>
      </trkpt>
      <trkpt lat="50.748156979680061" lon="15.83324896171689">
        <ele>993.17999999999995</ele>
        <time>2013-09-05T09:19:43Z</time>
      </trkpt>
      <trkpt lat="50.748207019641995" lon="15.832049008458853">
        <ele>998.95000000000005</ele>
        <time>2013-09-05T09:19:48Z</time>
      </trkpt>
      <trkpt lat="50.748422015458345" lon="15.830578990280628">
        <ele>1003.75</ele>
        <time>2013-09-05T09:19:54Z</time>
      </trkpt>
      <trkpt lat="50.748398965224624" lon="15.828200038522482">
        <ele>1009.52</ele>
        <time>2013-09-05T09:20:03Z</time>
      </trkpt>
      <trkpt lat="50.748368036001921" lon="15.827932991087437">
        <ele>1012.89</ele>
        <time>2013-09-05T09:20:04Z</time>
      </trkpt>
      <trkpt lat="50.748306009918451" lon="15.827668961137533">
        <ele>1014.33</ele>
        <time>2013-09-05T09:20:05Z</time>
      </trkpt>
      <trkpt lat="50.747660016641021" lon="15.826061982661486">
        <ele>1023.46</ele>
        <time>2013-09-05T09:20:12Z</time>
      </trkpt>
      <trkpt lat="50.746987033635378" lon="15.824654996395111">
        <ele>1030.6700000000001</ele>
        <time>2013-09-05T09:20:21Z</time>
      </trkpt>
      <trkpt lat="50.74695099145174" lon="15.824534967541695">
        <ele>1031.1500000000001</ele>
        <time>2013-09-05T09:20:22Z</time>
      </trkpt>
      <trkpt lat="50.746915033087134" lon="15.824400018900633">
        <ele>1032.1099999999999</ele>
        <time>2013-09-05T09:20:23Z</time>
      </trkpt>
      <trkpt lat="50.746888965368271" lon="15.824264986440539">
        <ele>1033.0699999999999</ele>
        <time>2013-09-05T09:20:24Z</time>
      </trkpt>
      <trkpt lat="50.746867004781961" lon="15.824122997000813">
        <ele>1034.04</ele>
        <time>2013-09-05T09:20:25Z</time>
      </trkpt>
      <trkpt lat="50.746855018660426" lon="15.823986958712339">
        <ele>1034.52</ele>
        <time>2013-09-05T09:20:26Z</time>
      </trkpt>
      <trkpt lat="50.746853007003665" lon="15.823854021728039">
        <ele>1035</ele>
        <time>2013-09-05T09:20:27Z</time>
      </trkpt>
      <trkpt lat="50.746856024488807" lon="15.823736004531384">
        <ele>1035.48</ele>
        <time>2013-09-05T09:20:28Z</time>
      </trkpt>
      <trkpt lat="50.746862981468439" lon="15.82362100481987">
        <ele>1036.4400000000001</ele>
        <time>2013-09-05T09:20:29Z</time>
      </trkpt>
      <trkpt lat="50.746915033087134" lon="15.823242980986834">
        <ele>1038.8399999999999</ele>
        <time>2013-09-05T09:20:33Z</time>
      </trkpt>
      <trkpt lat="50.746905980631709" lon="15.823156982660294">
        <ele>1039.8</ele>
        <time>2013-09-05T09:20:34Z</time>
      </trkpt>
      <trkpt lat="50.746881002560258" lon="15.823083976283669">
        <ele>1040.28</ele>
        <time>2013-09-05T09:20:35Z</time>
      </trkpt>
      <trkpt lat="50.746850995346904" lon="15.82301901653409">
        <ele>1041.25</ele>
        <time>2013-09-05T09:20:36Z</time>
      </trkpt>
      <trkpt lat="50.746804978698492" lon="15.822964031249285">
        <ele>1041.73</ele>
        <time>2013-09-05T09:20:37Z</time>
      </trkpt>
      <trkpt lat="50.74675602838397" lon="15.822920026257634">
        <ele>1041.73</ele>
        <time>2013-09-05T09:20:38Z</time>
      </trkpt>
      <trkpt lat="50.745994029566646" lon="15.822208989411592">
        <ele>1040.28</ele>
        <time>2013-09-05T09:20:48Z</time>
      </trkpt>
      <trkpt lat="50.745909959077835" lon="15.822086026892066">
        <ele>1040.28</ele>
        <time>2013-09-05T09:20:49Z</time>
      </trkpt>
      <trkpt lat="50.744804972782731" lon="15.820531016215682">
        <ele>1037.4000000000001</ele>
        <time>2013-09-05T09:21:01Z</time>
      </trkpt>
      <trkpt lat="50.743805011734366" lon="15.81908899359405">
        <ele>1030.1900000000001</ele>
        <time>2013-09-05T09:21:12Z</time>
      </trkpt>
      <trkpt lat="50.743754971772432" lon="15.818901993334293">
        <ele>1029.23</ele>
        <time>2013-09-05T09:21:13Z</time>
      </trkpt>
      <trkpt lat="50.743717001751065" lon="15.818705018609762">
        <ele>1028.75</ele>
        <time>2013-09-05T09:21:14Z</time>
      </trkpt>
      <trkpt lat="50.743693029507995" lon="15.818504020571709">
        <ele>1027.79</ele>
        <time>2013-09-05T09:21:15Z</time>
      </trkpt>
      <trkpt lat="50.743680959567428" lon="15.818296987563372">
        <ele>1027.79</ele>
        <time>2013-09-05T09:21:16Z</time>
      </trkpt>
      <trkpt lat="50.743692023679614" lon="15.818087020888925">
        <ele>1026.8299999999999</ele>
        <time>2013-09-05T09:21:17Z</time>
      </trkpt>
      <trkpt lat="50.743703003972769" lon="15.817878982052207">
        <ele>1026.8299999999999</ele>
        <time>2013-09-05T09:21:18Z</time>
      </trkpt>
      <trkpt lat="50.743733011186123" lon="15.817670021206141">
        <ele>1025.3800000000001</ele>
        <time>2013-09-05T09:21:19Z</time>
      </trkpt>
      <trkpt lat="50.743763018399477" lon="15.817462988197803">
        <ele>1024.9000000000001</ele>
        <time>2013-09-05T09:21:20Z</time>
      </trkpt>
      <trkpt lat="50.743908025324345" lon="15.816393960267305">
        <ele>1019.62</ele>
        <time>2013-09-05T09:21:25Z</time>
      </trkpt>
      <trkpt lat="50.743905007839203" lon="15.816180976107717">
        <ele>1019.13</ele>
        <time>2013-09-05T09:21:26Z</time>
      </trkpt>
      <trkpt lat="50.743885980919003" lon="15.815958017483354">
        <ele>1017.6900000000001</ele>
        <time>2013-09-05T09:21:27Z</time>
      </trkpt>
      <trkpt lat="50.743855973705649" lon="15.815746961161494">
        <ele>1016.73</ele>
        <time>2013-09-05T09:21:28Z</time>
      </trkpt>
      <trkpt lat="50.743801994249225" lon="15.815536994487047">
        <ele>1015.77</ele>
        <time>2013-09-05T09:21:29Z</time>
      </trkpt>
      <trkpt lat="50.743726976215839" lon="15.815337002277374">
        <ele>1014.8099999999999</ele>
        <time>2013-09-05T09:21:30Z</time>
      </trkpt>
      <trkpt lat="50.743638966232538" lon="15.815145978704095">
        <ele>1014.33</ele>
        <time>2013-09-05T09:21:31Z</time>
      </trkpt>
      <trkpt lat="50.743546010926366" lon="15.814958978444338">
        <ele>1013.85</ele>
        <time>2013-09-05T09:21:32Z</time>
      </trkpt>
      <trkpt lat="50.742399031296372" lon="15.812783958390355">
        <ele>1009.04</ele>
        <time>2013-09-05T09:21:42Z</time>
      </trkpt>
      <trkpt lat="50.740753998979926" lon="15.810054978355765">
        <ele>995.10000000000002</ele>
        <time>2013-09-05T09:21:55Z</time>
      </trkpt>
      <trkpt lat="50.73955999687314" lon="15.808351021260023">
        <ele>989.33000000000004</ele>
        <time>2013-09-05T09:22:04Z</time>
      </trkpt>
      <trkpt lat="50.739398980513215" lon="15.808230992406607">
        <ele>988.85000000000002</ele>
        <time>2013-09-05T09:22:05Z</time>
      </trkpt>
      <trkpt lat="50.737410038709641" lon="15.807173028588295">
        <ele>985.97000000000003</ele>
        <time>2013-09-05T09:22:17Z</time>
      </trkpt>
      <trkpt lat="50.737109966576099" lon="15.806933976709843">
        <ele>985.97000000000003</ele>
        <time>2013-09-05T09:22:19Z</time>
      </trkpt>
      <trkpt lat="50.736966971307993" lon="15.806793998926878">
        <ele>985.97000000000003</ele>
        <time>2013-09-05T09:22:20Z</time>
      </trkpt>
      <trkpt lat="50.736704031005502" lon="15.806448999792337">
        <ele>985.49000000000001</ele>
        <time>2013-09-05T09:22:22Z</time>
      </trkpt>
      <trkpt lat="50.735756037756801" lon="15.804883008822799">
        <ele>981.15999999999997</ele>
        <time>2013-09-05T09:22:29Z</time>
      </trkpt>
      <trkpt lat="50.73532403446734" lon="15.803930992260575">
        <ele>978.75999999999999</ele>
        <time>2013-09-05T09:22:33Z</time>
      </trkpt>
      <trkpt lat="50.735255973413587" lon="15.803672997280955">
        <ele>978.75999999999999</ele>
        <time>2013-09-05T09:22:34Z</time>
      </trkpt>
      <trkpt lat="50.735212974250317" lon="15.803407961502671">
        <ele>978.27999999999997</ele>
        <time>2013-09-05T09:22:35Z</time>
      </trkpt>
      <trkpt lat="50.735194031149149" lon="15.803132029250264">
        <ele>978.27999999999997</ele>
        <time>2013-09-05T09:22:36Z</time>
      </trkpt>
      <trkpt lat="50.735220015048981" lon="15.802838997915387">
        <ele>977.79999999999995</ele>
        <time>2013-09-05T09:22:37Z</time>
      </trkpt>
      <trkpt lat="50.735264020040631" lon="15.802558036521077">
        <ele>977.32000000000005</ele>
        <time>2013-09-05T09:22:38Z</time>
      </trkpt>
      <trkpt lat="50.735311964526772" lon="15.802291994914412">
        <ele>976.84000000000003</ele>
        <time>2013-09-05T09:22:39Z</time>
      </trkpt>
      <trkpt lat="50.73536996729672" lon="15.802035005763173">
        <ele>976.36000000000001</ele>
        <time>2013-09-05T09:22:40Z</time>
      </trkpt>
      <trkpt lat="50.735440962016582" lon="15.80179201439023">
        <ele>975.88</ele>
        <time>2013-09-05T09:22:41Z</time>
      </trkpt>
      <trkpt lat="50.7355419639498" lon="15.801594033837318">
        <ele>975.88</ele>
        <time>2013-09-05T09:22:42Z</time>
      </trkpt>
      <trkpt lat="50.735650006681681" lon="15.801434023305774">
        <ele>974.90999999999997</ele>
        <time>2013-09-05T09:22:43Z</time>
      </trkpt>
      <trkpt lat="50.735783027485013" lon="15.801331009715796">
        <ele>974.42999999999995</ele>
        <time>2013-09-05T09:22:44Z</time>
      </trkpt>
      <trkpt lat="50.735916970297694" lon="15.801270995289087">
        <ele>973.95000000000005</ele>
        <time>2013-09-05T09:22:45Z</time>
      </trkpt>
      <trkpt lat="50.736063988879323" lon="15.801267977803946">
        <ele>972.99000000000001</ele>
        <time>2013-09-05T09:22:46Z</time>
      </trkpt>
      <trkpt lat="50.736229028552771" lon="15.801347019150853">
        <ele>972.50999999999999</ele>
        <time>2013-09-05T09:22:47Z</time>
      </trkpt>
      <trkpt lat="50.736370012164116" lon="15.801457995548844">
        <ele>971.54999999999995</ele>
        <time>2013-09-05T09:22:48Z</time>
      </trkpt>
      <trkpt lat="50.736499009653926" lon="15.801601996645331">
        <ele>971.07000000000005</ele>
        <time>2013-09-05T09:22:49Z</time>
      </trkpt>
      <trkpt lat="50.736627001315355" lon="15.801767036318779">
        <ele>970.59000000000003</ele>
        <time>2013-09-05T09:22:50Z</time>
      </trkpt>
      <trkpt lat="50.736748035997152" lon="15.801954036578536">
        <ele>969.63</ele>
        <time>2013-09-05T09:22:51Z</time>
      </trkpt>
      <trkpt lat="50.736882984638214" lon="15.802175989374518">
        <ele>969.14999999999998</ele>
        <time>2013-09-05T09:22:52Z</time>
      </trkpt>
      <trkpt lat="50.737377014011145" lon="15.802962966263294">
        <ele>967.70000000000005</ele>
        <time>2013-09-05T09:22:56Z</time>
      </trkpt>
      <trkpt lat="50.73751799762249" lon="15.803101016208529">
        <ele>966.25999999999999</ele>
        <time>2013-09-05T09:22:57Z</time>
      </trkpt>
      <trkpt lat="50.737670967355371" lon="15.803183997049928">
        <ele>965.77999999999997</ele>
        <time>2013-09-05T09:22:58Z</time>
      </trkpt>
      <trkpt lat="50.737812034785748" lon="15.803180979564786">
        <ele>965.77999999999997</ele>
        <time>2013-09-05T09:22:59Z</time>
      </trkpt>
      <trkpt lat="50.737966010347009" lon="15.803104033693671">
        <ele>965.77999999999997</ele>
        <time>2013-09-05T09:23:00Z</time>
      </trkpt>
      <trkpt lat="50.738095007836819" lon="15.802965983748436">
        <ele>963.86000000000001</ele>
        <time>2013-09-05T09:23:01Z</time>
      </trkpt>
      <trkpt lat="50.738197015598416" lon="15.802786024287343">
        <ele>962.89999999999998</ele>
        <time>2013-09-05T09:23:02Z</time>
      </trkpt>
      <trkpt lat="50.73824998922646" lon="15.80256499350071">
        <ele>961.46000000000004</ele>
        <time>2013-09-05T09:23:03Z</time>
      </trkpt>
      <trkpt lat="50.73827002197504" lon="15.802322002127767">
        <ele>960.49000000000001</ele>
        <time>2013-09-05T09:23:04Z</time>
      </trkpt>
      <trkpt lat="50.738252000883222" lon="15.802074987441301">
        <ele>959.52999999999997</ele>
        <time>2013-09-05T09:23:05Z</time>
      </trkpt>
      <trkpt lat="50.738198021426797" lon="15.801860997453332">
        <ele>958.57000000000005</ele>
        <time>2013-09-05T09:23:06Z</time>
      </trkpt>
      <trkpt lat="50.73812099173665" lon="15.801656981930137">
        <ele>958.09000000000003</ele>
        <time>2013-09-05T09:23:07Z</time>
      </trkpt>
      <trkpt lat="50.738030970096588" lon="15.801454978063703">
        <ele>957.61000000000001</ele>
        <time>2013-09-05T09:23:08Z</time>
      </trkpt>
      <trkpt lat="50.736921038478613" lon="15.799427982419729">
        <ele>948.96000000000004</ele>
        <time>2013-09-05T09:23:19Z</time>
      </trkpt>
      <trkpt lat="50.735644977539778" lon="15.797445997595787">
        <ele>939.83000000000004</ele>
        <time>2013-09-05T09:23:30Z</time>
      </trkpt>
      <trkpt lat="50.734473019838333" lon="15.795512963086367">
        <ele>929.25</ele>
        <time>2013-09-05T09:23:40Z</time>
      </trkpt>
      <trkpt lat="50.734329018741846" lon="15.795374996960163">
        <ele>928.28999999999996</ele>
        <time>2013-09-05T09:23:41Z</time>
      </trkpt>
      <trkpt lat="50.734180994331837" lon="15.795258991420269">
        <ele>927.80999999999995</ele>
        <time>2013-09-05T09:23:42Z</time>
      </trkpt>
      <trkpt lat="50.733545981347561" lon="15.794838974252343">
        <ele>923.96000000000004</ele>
        <time>2013-09-05T09:23:46Z</time>
      </trkpt>
      <trkpt lat="50.733398962765932" lon="15.794710982590914">
        <ele>922.51999999999998</ele>
        <time>2013-09-05T09:23:47Z</time>
      </trkpt>
      <trkpt lat="50.73326300829649" lon="15.794542003422976">
        <ele>922.03999999999996</ele>
        <time>2013-09-05T09:23:48Z</time>
      </trkpt>
      <trkpt lat="50.733127975836396" lon="15.794356008991599">
        <ele>921.55999999999995</ele>
        <time>2013-09-05T09:23:49Z</time>
      </trkpt>
      <trkpt lat="50.733001995831728" lon="15.794161967933178">
        <ele>921.08000000000004</ele>
        <time>2013-09-05T09:23:50Z</time>
      </trkpt>
      <trkpt lat="50.73272799141705" lon="15.793829960748553">
        <ele>920.12</ele>
        <time>2013-09-05T09:23:52Z</time>
      </trkpt>
      <trkpt lat="50.732577033340931" lon="15.793701969087124">
        <ele>920.12</ele>
        <time>2013-09-05T09:23:53Z</time>
      </trkpt>
      <trkpt lat="50.732420040294528" lon="15.793613037094474">
        <ele>919.63999999999999</ele>
        <time>2013-09-05T09:23:54Z</time>
      </trkpt>
      <trkpt lat="50.7322539947927" lon="15.793556962162256">
        <ele>919.15999999999997</ele>
        <time>2013-09-05T09:23:55Z</time>
      </trkpt>
      <trkpt lat="50.732072023674846" lon="15.793546987697482">
        <ele>918.20000000000005</ele>
        <time>2013-09-05T09:23:56Z</time>
      </trkpt>
      <trkpt lat="50.731884017586708" lon="15.793556040152907">
        <ele>917.24000000000001</ele>
        <time>2013-09-05T09:23:57Z</time>
      </trkpt>
      <trkpt lat="50.729682007804513" lon="15.793790984898806">
        <ele>903.29999999999995</ele>
        <time>2013-09-05T09:24:09Z</time>
      </trkpt>
      <trkpt lat="50.729505987837911" lon="15.7937550265342">
        <ele>902.33000000000004</ele>
        <time>2013-09-05T09:24:10Z</time>
      </trkpt>
      <trkpt lat="50.728991003707051" lon="15.793613959103823">
        <ele>900.88999999999999</ele>
        <time>2013-09-05T09:24:13Z</time>
      </trkpt>
      <trkpt lat="50.728805009275675" lon="15.793642038479447">
        <ele>899.45000000000005</ele>
        <time>2013-09-05T09:24:14Z</time>
      </trkpt>
      <trkpt lat="50.728639969602227" lon="15.793725019320846">
        <ele>898.97000000000003</ele>
        <time>2013-09-05T09:24:15Z</time>
      </trkpt>
      <trkpt lat="50.728484988212585" lon="15.793855022639036">
        <ele>898.49000000000001</ele>
        <time>2013-09-05T09:24:16Z</time>
      </trkpt>
      <trkpt lat="50.728336041793227" lon="15.794004974886775">
        <ele>898.49000000000001</ele>
        <time>2013-09-05T09:24:17Z</time>
      </trkpt>
      <trkpt lat="50.727729024365544" lon="15.794617021456361">
        <ele>895.12</ele>
        <time>2013-09-05T09:24:21Z</time>
      </trkpt>
      <trkpt lat="50.727551998570561" lon="15.794729003682733">
        <ele>893.67999999999995</ele>
        <time>2013-09-05T09:24:22Z</time>
      </trkpt>
      <trkpt lat="50.727367009967566" lon="15.794816007837653">
        <ele>892.72000000000003</ele>
        <time>2013-09-05T09:24:23Z</time>
      </trkpt>
      <trkpt lat="50.726679023355246" lon="15.795142985880375">
        <ele>887.90999999999997</ele>
        <time>2013-09-05T09:24:27Z</time>
      </trkpt>
      <trkpt lat="50.726532004773617" lon="15.795265026390553">
        <ele>886.95000000000005</ele>
        <time>2013-09-05T09:24:28Z</time>
      </trkpt>
      <trkpt lat="50.726404013112187" lon="15.795488990843296">
        <ele>885.99000000000001</ele>
        <time>2013-09-05T09:24:29Z</time>
      </trkpt>
      <trkpt lat="50.726291025057435" lon="15.795718990266323">
        <ele>885.02999999999997</ele>
        <time>2013-09-05T09:24:30Z</time>
      </trkpt>
      <trkpt lat="50.726179964840412" lon="15.795973967760801">
        <ele>884.07000000000005</ele>
        <time>2013-09-05T09:24:31Z</time>
      </trkpt>
      <trkpt lat="50.726077035069466" lon="15.796231040731072">
        <ele>883.59000000000003</ele>
        <time>2013-09-05T09:24:32Z</time>
      </trkpt>
      <trkpt lat="50.725818034261465" lon="15.797007037326694">
        <ele>881.66999999999996</ele>
        <time>2013-09-05T09:24:35Z</time>
      </trkpt>
      <trkpt lat="50.725782997906208" lon="15.797292022034526">
        <ele>881.19000000000005</ele>
        <time>2013-09-05T09:24:36Z</time>
      </trkpt>
      <trkpt lat="50.72559398598969" lon="15.798067012801766">
        <ele>879.25999999999999</ele>
        <time>2013-09-05T09:24:39Z</time>
      </trkpt>
      <trkpt lat="50.725515028461814" lon="15.798283014446497">
        <ele>878.29999999999995</ele>
        <time>2013-09-05T09:24:40Z</time>
      </trkpt>
      <trkpt lat="50.725396005436778" lon="15.798430033028126">
        <ele>877.82000000000005</ele>
        <time>2013-09-05T09:24:41Z</time>
      </trkpt>
      <trkpt lat="50.725183021277189" lon="15.798536986112595">
        <ele>877.34000000000003</ele>
        <time>2013-09-05T09:24:42Z</time>
      </trkpt>
      <trkpt lat="50.725011024624109" lon="15.798603035509586">
        <ele>876.38</ele>
        <time>2013-09-05T09:24:43Z</time>
      </trkpt>
      <trkpt lat="50.724850008264184" lon="15.798617033287883">
        <ele>875.89999999999998</ele>
        <time>2013-09-05T09:24:44Z</time>
      </trkpt>
      <trkpt lat="50.724643981084228" lon="15.798583002761006">
        <ele>875.41999999999996</ele>
        <time>2013-09-05T09:24:45Z</time>
      </trkpt>
      <trkpt lat="50.724453963339329" lon="15.798515025526285">
        <ele>874.46000000000004</ele>
        <time>2013-09-05T09:24:46Z</time>
      </trkpt>
      <trkpt lat="50.724274003878236" lon="15.798403965309262">
        <ele>873.98000000000002</ele>
        <time>2013-09-05T09:24:47Z</time>
      </trkpt>
      <trkpt lat="50.724094966426492" lon="15.798284020274878">
        <ele>873.00999999999999</ele>
        <time>2013-09-05T09:24:48Z</time>
      </trkpt>
      <trkpt lat="50.723232971504331" lon="15.797679014503956">
        <ele>866.76999999999998</ele>
        <time>2013-09-05T09:24:53Z</time>
      </trkpt>
      <trkpt lat="50.723044965416193" lon="15.797630986198783">
        <ele>865.79999999999995</ele>
        <time>2013-09-05T09:24:54Z</time>
      </trkpt>
      <trkpt lat="50.721133975312114" lon="15.797063028439879">
        <ele>857.14999999999998</ele>
        <time>2013-09-05T09:25:04Z</time>
      </trkpt>
      <trkpt lat="50.719719026237726" lon="15.796779971569777">
        <ele>851.38</ele>
        <time>2013-09-05T09:25:11Z</time>
      </trkpt>
      <trkpt lat="50.71931803599" lon="15.796861024573445">
        <ele>848.98000000000002</ele>
        <time>2013-09-05T09:25:13Z</time>
      </trkpt>
      <trkpt lat="50.719116032123566" lon="15.796942999586463">
        <ele>848.01999999999998</ele>
        <time>2013-09-05T09:25:14Z</time>
      </trkpt>
      <trkpt lat="50.718921991065145" lon="15.797036960721016">
        <ele>847.05999999999995</ele>
        <time>2013-09-05T09:25:15Z</time>
      </trkpt>
      <trkpt lat="50.71873901411891" lon="15.797156989574432">
        <ele>846.10000000000002</ele>
        <time>2013-09-05T09:25:16Z</time>
      </trkpt>
      <trkpt lat="50.718554025515914" lon="15.797284981235862">
        <ele>845.13999999999999</ele>
        <time>2013-09-05T09:25:17Z</time>
      </trkpt>
      <trkpt lat="50.717540988698602" lon="15.797759983688593">
        <ele>839.85000000000002</ele>
        <time>2013-09-05T09:25:23Z</time>
      </trkpt>
      <trkpt lat="50.717394975945354" lon="15.797923011705279">
        <ele>838.40999999999997</ele>
        <time>2013-09-05T09:25:24Z</time>
      </trkpt>
      <trkpt lat="50.717267990112305" lon="15.798108000308275">
        <ele>837.92999999999995</ele>
        <time>2013-09-05T09:25:25Z</time>
      </trkpt>
      <trkpt lat="50.717162964865565" lon="15.79833397641778">
        <ele>836</ele>
        <time>2013-09-05T09:25:26Z</time>
      </trkpt>
      <trkpt lat="50.717070009559393" lon="15.798574034124613">
        <ele>835.51999999999998</ele>
        <time>2013-09-05T09:25:27Z</time>
      </trkpt>
      <trkpt lat="50.716989962384105" lon="15.798842003569007">
        <ele>834.55999999999995</ele>
        <time>2013-09-05T09:25:28Z</time>
      </trkpt>
      <trkpt lat="50.716800028458238" lon="15.799335027113557">
        <ele>832.63999999999999</ele>
        <time>2013-09-05T09:25:30Z</time>
      </trkpt>
      <trkpt lat="50.716657033190131" lon="15.799533007666469">
        <ele>831.67999999999995</ele>
        <time>2013-09-05T09:25:31Z</time>
      </trkpt>
      <trkpt lat="50.716509008780122" lon="15.799732999876142">
        <ele>830.72000000000003</ele>
        <time>2013-09-05T09:25:32Z</time>
      </trkpt>
      <trkpt lat="50.716348998248577" lon="15.799883035942912">
        <ele>829.75999999999999</ele>
        <time>2013-09-05T09:25:33Z</time>
      </trkpt>
      <trkpt lat="50.716166021302342" lon="15.800005998462439">
        <ele>829.26999999999998</ele>
        <time>2013-09-05T09:25:34Z</time>
      </trkpt>
      <trkpt lat="50.715970974415541" lon="15.800090990960598">
        <ele>828.78999999999996</ele>
        <time>2013-09-05T09:25:35Z</time>
      </trkpt>
      <trkpt lat="50.715781962499022" lon="15.800155028700829">
        <ele>827.83000000000004</ele>
        <time>2013-09-05T09:25:36Z</time>
      </trkpt>
      <trkpt lat="50.715577024966478" lon="15.800192998722196">
        <ele>826.87</ele>
        <time>2013-09-05T09:25:37Z</time>
      </trkpt>
      <trkpt lat="50.715378038585186" lon="15.800199033692479">
        <ele>825.90999999999997</ele>
        <time>2013-09-05T09:25:38Z</time>
      </trkpt>
      <trkpt lat="50.715176034718752" lon="15.800188975408673">
        <ele>824.95000000000005</ele>
        <time>2013-09-05T09:25:39Z</time>
      </trkpt>
      <trkpt lat="50.714970007538795" lon="15.800125021487474">
        <ele>823.99000000000001</ele>
        <time>2013-09-05T09:25:40Z</time>
      </trkpt>
      <trkpt lat="50.714759035035968" lon="15.800032988190651">
        <ele>823.02999999999997</ele>
        <time>2013-09-05T09:25:41Z</time>
      </trkpt>
      <trkpt lat="50.713825961574912" lon="15.799766024574637">
        <ele>820.13999999999999</ele>
        <time>2013-09-05T09:25:46Z</time>
      </trkpt>
      <trkpt lat="50.713635021820664" lon="15.799800977110863">
        <ele>819.17999999999995</ele>
        <time>2013-09-05T09:25:47Z</time>
      </trkpt>
      <trkpt lat="50.713443998247385" lon="15.799866020679474">
        <ele>818.70000000000005</ele>
        <time>2013-09-05T09:25:48Z</time>
      </trkpt>
      <trkpt lat="50.712545961141586" lon="15.800261981785297">
        <ele>816.29999999999995</ele>
        <time>2013-09-05T09:25:53Z</time>
      </trkpt>
      <trkpt lat="50.712374970316887" lon="15.8002670109272">
        <ele>816.29999999999995</ele>
        <time>2013-09-05T09:25:54Z</time>
      </trkpt>
      <trkpt lat="50.712223006412387" lon="15.800243960693479">
        <ele>815.82000000000005</ele>
        <time>2013-09-05T09:25:55Z</time>
      </trkpt>
      <trkpt lat="50.712056960910559" lon="15.800161985680461">
        <ele>815.82000000000005</ele>
        <time>2013-09-05T09:25:56Z</time>
      </trkpt>
      <trkpt lat="50.711883036419749" lon="15.800056960433722">
        <ele>815.34000000000003</ele>
        <time>2013-09-05T09:25:57Z</time>
      </trkpt>
      <trkpt lat="50.710379993543029" lon="15.799577012658119">
        <ele>812.45000000000005</ele>
        <time>2013-09-05T09:26:05Z</time>
      </trkpt>
      <trkpt lat="50.709852017462254" lon="15.799410967156291">
        <ele>810.52999999999997</ele>
        <time>2013-09-05T09:26:08Z</time>
      </trkpt>
      <trkpt lat="50.709680020809174" lon="15.79945002682507">
        <ele>809.57000000000005</ele>
        <time>2013-09-05T09:26:09Z</time>
      </trkpt>
      <trkpt lat="50.709505006670952" lon="15.799563014879823">
        <ele>808.61000000000001</ele>
        <time>2013-09-05T09:26:10Z</time>
      </trkpt>
      <trkpt lat="50.709351031109691" lon="15.799846993759274">
        <ele>806.20000000000005</ele>
        <time>2013-09-05T09:26:11Z</time>
      </trkpt>
      <trkpt lat="50.709205018356442" lon="15.800058972090483">
        <ele>804.75999999999999</ele>
        <time>2013-09-05T09:26:12Z</time>
      </trkpt>
      <trkpt lat="50.709075015038252" lon="15.800312021747231">
        <ele>803.32000000000005</ele>
        <time>2013-09-05T09:26:13Z</time>
      </trkpt>
      <trkpt lat="50.70896496064961" lon="15.800531962886453">
        <ele>802.36000000000001</ele>
        <time>2013-09-05T09:26:14Z</time>
      </trkpt>
      <trkpt lat="50.708870999515057" lon="15.800767997279763">
        <ele>800.91999999999996</ele>
        <time>2013-09-05T09:26:15Z</time>
      </trkpt>
      <trkpt lat="50.708782989531755" lon="15.80101802945137">
        <ele>799.95000000000005</ele>
        <time>2013-09-05T09:26:16Z</time>
      </trkpt>
      <trkpt lat="50.707815969362855" lon="15.803782967850566">
        <ele>787.46000000000004</ele>
        <time>2013-09-05T09:26:28Z</time>
      </trkpt>
      <trkpt lat="50.706955986097455" lon="15.805249968543649">
        <ele>779.76999999999998</ele>
        <time>2013-09-05T09:26:37Z</time>
      </trkpt>
      <trkpt lat="50.706232041120529" lon="15.80634799785912">
        <ele>775.91999999999996</ele>
        <time>2013-09-05T09:26:46Z</time>
      </trkpt>
      <trkpt lat="50.705859968438745" lon="15.806809002533555">
        <ele>774.96000000000004</ele>
        <time>2013-09-05T09:26:50Z</time>
      </trkpt>
      <trkpt lat="50.705458978191018" lon="15.807101028040051">
        <ele>774</ele>
        <time>2013-09-05T09:26:54Z</time>
      </trkpt>
      <trkpt lat="50.705325035378337" lon="15.807149978354573">
        <ele>774.48000000000002</ele>
        <time>2013-09-05T09:26:55Z</time>
      </trkpt>
      <trkpt lat="50.705207018181682" lon="15.807170011103153">
        <ele>774.48000000000002</ele>
        <time>2013-09-05T09:26:56Z</time>
      </trkpt>
      <trkpt lat="50.704359021037817" lon="15.807095998898149">
        <ele>774.96000000000004</ele>
        <time>2013-09-05T09:27:02Z</time>
      </trkpt>
      <trkpt lat="50.704229017719626" lon="15.807022992521524">
        <ele>774.96000000000004</ele>
        <time>2013-09-05T09:27:03Z</time>
      </trkpt>
      <trkpt lat="50.704116029664874" lon="15.806920984759927">
        <ele>775.44000000000005</ele>
        <time>2013-09-05T09:27:04Z</time>
      </trkpt>
      <trkpt lat="50.704006981104612" lon="15.806783018633723">
        <ele>775.91999999999996</ele>
        <time>2013-09-05T09:27:05Z</time>
      </trkpt>
      <trkpt lat="50.703896004706621" lon="15.806631976738572">
        <ele>775.91999999999996</ele>
        <time>2013-09-05T09:27:06Z</time>
      </trkpt>
      <trkpt lat="50.703226961195469" lon="15.80572497099638">
        <ele>772.55999999999995</ele>
        <time>2013-09-05T09:27:12Z</time>
      </trkpt>
      <trkpt lat="50.701951989904046" lon="15.804946040734649">
        <ele>769.66999999999996</ele>
        <time>2013-09-05T09:27:21Z</time>
      </trkpt>
      <trkpt lat="50.700210984796286" lon="15.804315973073244">
        <ele>763.41999999999996</ele>
        <time>2013-09-05T09:27:32Z</time>
      </trkpt>
      <trkpt lat="50.698606017976999" lon="15.803130017593503">
        <ele>752.85000000000002</ele>
        <time>2013-09-05T09:27:43Z</time>
      </trkpt>
      <trkpt lat="50.698117017745972" lon="15.802793987095356">
        <ele>750.45000000000005</ele>
        <time>2013-09-05T09:27:47Z</time>
      </trkpt>
      <trkpt lat="50.696849003434181" lon="15.80224396660924">
        <ele>742.27999999999997</ele>
        <time>2013-09-05T09:27:57Z</time>
      </trkpt>
      <trkpt lat="50.695547964423895" lon="15.801601996645331">
        <ele>733.13999999999999</ele>
        <time>2013-09-05T09:28:04Z</time>
      </trkpt>
      <trkpt lat="50.69418297149241" lon="15.800678981468081">
        <ele>725.45000000000005</ele>
        <time>2013-09-05T09:28:13Z</time>
      </trkpt>
      <trkpt lat="50.694078030064702" lon="15.800515031442046">
        <ele>724.49000000000001</ele>
        <time>2013-09-05T09:28:14Z</time>
      </trkpt>
      <trkpt lat="50.693984990939498" lon="15.800340017303824">
        <ele>723.52999999999997</ele>
        <time>2013-09-05T09:28:15Z</time>
      </trkpt>
      <trkpt lat="50.693607972934842" lon="15.799682959914207">
        <ele>721.13</ele>
        <time>2013-09-05T09:28:19Z</time>
      </trkpt>
      <trkpt lat="50.693482998758554" lon="15.799626968801022">
        <ele>719.67999999999995</ele>
        <time>2013-09-05T09:28:20Z</time>
      </trkpt>
      <trkpt lat="50.693351989611983" lon="15.799594027921557">
        <ele>718.24000000000001</ele>
        <time>2013-09-05T09:28:21Z</time>
      </trkpt>
      <trkpt lat="50.693231960758567" lon="15.799580030143261">
        <ele>717.27999999999997</ele>
        <time>2013-09-05T09:28:22Z</time>
      </trkpt>
      <trkpt lat="50.693116039037704" lon="15.799610959365964">
        <ele>716.79999999999995</ele>
        <time>2013-09-05T09:28:23Z</time>
      </trkpt>
      <trkpt lat="50.692987041547894" lon="15.799696035683155">
        <ele>715.84000000000003</ele>
        <time>2013-09-05T09:28:24Z</time>
      </trkpt>
      <trkpt lat="50.692872041836381" lon="15.799829978495836">
        <ele>714.88</ele>
        <time>2013-09-05T09:28:25Z</time>
      </trkpt>
      <trkpt lat="50.692780008539557" lon="15.800011027604342">
        <ele>713.44000000000005</ele>
        <time>2013-09-05T09:28:26Z</time>
      </trkpt>
      <trkpt lat="50.692705996334553" lon="15.800218982622027">
        <ele>711.02999999999997</ele>
        <time>2013-09-05T09:28:27Z</time>
      </trkpt>
      <trkpt lat="50.692656962200999" lon="15.800440013408661">
        <ele>710.07000000000005</ele>
        <time>2013-09-05T09:28:28Z</time>
      </trkpt>
      <trkpt lat="50.692627038806677" lon="15.800689961761236">
        <ele>709.59000000000003</ele>
        <time>2013-09-05T09:28:29Z</time>
      </trkpt>
      <trkpt lat="50.692585967481136" lon="15.800945023074746">
        <ele>708.14999999999998</ele>
        <time>2013-09-05T09:28:30Z</time>
      </trkpt>
      <trkpt lat="50.692297965288162" lon="15.803054999560118">
        <ele>701.41999999999996</ele>
        <time>2013-09-05T09:28:38Z</time>
      </trkpt>
      <trkpt lat="50.692239040508866" lon="15.803289022296667">
        <ele>700.46000000000004</ele>
        <time>2013-09-05T09:28:39Z</time>
      </trkpt>
      <trkpt lat="50.692151030525565" lon="15.803484991192818">
        <ele>699.98000000000002</ele>
        <time>2013-09-05T09:28:40Z</time>
      </trkpt>
      <trkpt lat="50.692044999450445" lon="15.803637960925698">
        <ele>699.01999999999998</ele>
        <time>2013-09-05T09:28:41Z</time>
      </trkpt>
      <trkpt lat="50.691911978647113" lon="15.803748015314341">
        <ele>698.52999999999997</ele>
        <time>2013-09-05T09:28:42Z</time>
      </trkpt>
      <trkpt lat="50.691763032227755" lon="15.803821021690965">
        <ele>698.04999999999995</ele>
        <time>2013-09-05T09:28:43Z</time>
      </trkpt>
      <trkpt lat="50.691607967019081" lon="15.803881958127022">
        <ele>697.09000000000003</ele>
        <time>2013-09-05T09:28:44Z</time>
      </trkpt>
      <trkpt lat="50.690993992611766" lon="15.804200973361731">
        <ele>694.69000000000005</ele>
        <time>2013-09-05T09:28:48Z</time>
      </trkpt>
      <trkpt lat="50.69085200317204" lon="15.804344974458218">
        <ele>693.73000000000002</ele>
        <time>2013-09-05T09:28:49Z</time>
      </trkpt>
      <trkpt lat="50.690729962661862" lon="15.804501967504621">
        <ele>693.73000000000002</ele>
        <time>2013-09-05T09:28:50Z</time>
      </trkpt>
      <trkpt lat="50.690619992092252" lon="15.80467002466321">
        <ele>693.25</ele>
        <time>2013-09-05T09:28:51Z</time>
      </trkpt>
      <trkpt lat="50.690518990159035" lon="15.804832968860865">
        <ele>692.28999999999996</ele>
        <time>2013-09-05T09:28:52Z</time>
      </trkpt>
      <trkpt lat="50.690413964912295" lon="15.804978981614113">
        <ele>691.80999999999995</ele>
        <time>2013-09-05T09:28:53Z</time>
      </trkpt>
      <trkpt lat="50.68934896029532" lon="15.805775010958314">
        <ele>685.55999999999995</ele>
        <time>2013-09-05T09:29:01Z</time>
      </trkpt>
      <trkpt lat="50.688973031938076" lon="15.805866960436106">
        <ele>683.63</ele>
        <time>2013-09-05T09:29:03Z</time>
      </trkpt>
      <trkpt lat="50.688812015578151" lon="15.805904008448124">
        <ele>682.66999999999996</ele>
        <time>2013-09-05T09:29:04Z</time>
      </trkpt>
      <trkpt lat="50.688634989783168" lon="15.80589403398335">
        <ele>681.23000000000002</ele>
        <time>2013-09-05T09:29:05Z</time>
      </trkpt>
      <trkpt lat="50.688471961766481" lon="15.805835025385022">
        <ele>680.26999999999998</ele>
        <time>2013-09-05T09:29:06Z</time>
      </trkpt>
      <trkpt lat="50.688336007297039" lon="15.805721031501889">
        <ele>680.26999999999998</ele>
        <time>2013-09-05T09:29:07Z</time>
      </trkpt>
      <trkpt lat="50.688196029514074" lon="15.805549034848809">
        <ele>680.26999999999998</ele>
        <time>2013-09-05T09:29:08Z</time>
      </trkpt>
      <trkpt lat="50.688054040074348" lon="15.805372009053826">
        <ele>679.78999999999996</ele>
        <time>2013-09-05T09:29:09Z</time>
      </trkpt>
      <trkpt lat="50.687904004007578" lon="15.805181991308928">
        <ele>678.83000000000004</ele>
        <time>2013-09-05T09:29:10Z</time>
      </trkpt>
      <trkpt lat="50.686679994687438" lon="15.803910037502646">
        <ele>674.98000000000002</ele>
        <time>2013-09-05T09:29:18Z</time>
      </trkpt>
      <trkpt lat="50.686371037736535" lon="15.803796965628862">
        <ele>673.53999999999996</ele>
        <time>2013-09-05T09:29:20Z</time>
      </trkpt>
      <trkpt lat="50.686215972527862" lon="15.803800988942385">
        <ele>673.05999999999995</ele>
        <time>2013-09-05T09:29:21Z</time>
      </trkpt>
      <trkpt lat="50.686072977259755" lon="15.803861003369093">
        <ele>672.10000000000002</ele>
        <time>2013-09-05T09:29:22Z</time>
      </trkpt>
      <trkpt lat="50.68590902723372" lon="15.803987989202142">
        <ele>671.62</ele>
        <time>2013-09-05T09:29:23Z</time>
      </trkpt>
      <trkpt lat="50.685779023915529" lon="15.804166020825505">
        <ele>671.13999999999999</ele>
        <time>2013-09-05T09:29:24Z</time>
      </trkpt>
      <trkpt lat="50.685633011162281" lon="15.804374981671572">
        <ele>670.17999999999995</ele>
        <time>2013-09-05T09:29:25Z</time>
      </trkpt>
      <trkpt lat="50.685515999794006" lon="15.804589977487922">
        <ele>670.17999999999995</ele>
        <time>2013-09-05T09:29:26Z</time>
      </trkpt>
      <trkpt lat="50.685387002304196" lon="15.804832968860865">
        <ele>669.70000000000005</ele>
        <time>2013-09-05T09:29:27Z</time>
      </trkpt>
      <trkpt lat="50.684917028993368" lon="15.805998975411057">
        <ele>669.22000000000003</ele>
        <time>2013-09-05T09:29:32Z</time>
      </trkpt>
      <trkpt lat="50.684810997918248" lon="15.806191004812717">
        <ele>668.73000000000002</ele>
        <time>2013-09-05T09:29:33Z</time>
      </trkpt>
      <trkpt lat="50.684682000428438" lon="15.80636995844543">
        <ele>667.76999999999998</ele>
        <time>2013-09-05T09:29:34Z</time>
      </trkpt>
      <trkpt lat="50.684546967968345" lon="15.806521000340581">
        <ele>666.80999999999995</ele>
        <time>2013-09-05T09:29:35Z</time>
      </trkpt>
      <trkpt lat="50.684400033205748" lon="15.806665001437068">
        <ele>666.33000000000004</ele>
        <time>2013-09-05T09:29:36Z</time>
      </trkpt>
      <trkpt lat="50.684248991310596" lon="15.806782012805343">
        <ele>665.37</ele>
        <time>2013-09-05T09:29:37Z</time>
      </trkpt>
      <trkpt lat="50.683938022702932" lon="15.80690698698163">
        <ele>664.40999999999997</ele>
        <time>2013-09-05T09:29:39Z</time>
      </trkpt>
      <trkpt lat="50.683780023828149" lon="15.806922996416688">
        <ele>663.92999999999995</ele>
        <time>2013-09-05T09:29:40Z</time>
      </trkpt>
      <trkpt lat="50.683616995811462" lon="15.80690598115325">
        <ele>663.45000000000005</ele>
        <time>2013-09-05T09:29:41Z</time>
      </trkpt>
      <trkpt lat="50.68348104134202" lon="15.806847978383303">
        <ele>663.45000000000005</ele>
        <time>2013-09-05T09:29:42Z</time>
      </trkpt>
      <trkpt lat="50.683318013325334" lon="15.806725015863776">
        <ele>662.97000000000003</ele>
        <time>2013-09-05T09:29:43Z</time>
      </trkpt>
      <trkpt lat="50.683156996965408" lon="15.806645974516869">
        <ele>662.00999999999999</ele>
        <time>2013-09-05T09:29:44Z</time>
      </trkpt>
      <trkpt lat="50.682994974777102" lon="15.806462997570634">
        <ele>661.51999999999998</ele>
        <time>2013-09-05T09:29:45Z</time>
      </trkpt>
      <trkpt lat="50.682834964245558" lon="15.806257976219058">
        <ele>661.03999999999996</ele>
        <time>2013-09-05T09:29:46Z</time>
      </trkpt>
      <trkpt lat="50.682689035311341" lon="15.80602697096765">
        <ele>660.55999999999995</ele>
        <time>2013-09-05T09:29:47Z</time>
      </trkpt>
      <trkpt lat="50.681303003802896" lon="15.804831963032484">
        <ele>658.15999999999997</ele>
        <time>2013-09-05T09:29:55Z</time>
      </trkpt>
      <trkpt lat="50.680893966928124" lon="15.804660972207785">
        <ele>656.72000000000003</ele>
        <time>2013-09-05T09:29:58Z</time>
      </trkpt>
      <trkpt lat="50.68000003695488" lon="15.80482198856771">
        <ele>654.79999999999995</ele>
        <time>2013-09-05T09:30:04Z</time>
      </trkpt>
      <trkpt lat="50.679838014766574" lon="15.804805979132652">
        <ele>654.30999999999995</ele>
        <time>2013-09-05T09:30:05Z</time>
      </trkpt>
      <trkpt lat="50.679646991193295" lon="15.804736996069551">
        <ele>654.30999999999995</ele>
        <time>2013-09-05T09:30:06Z</time>
      </trkpt>
      <trkpt lat="50.678318040445447" lon="15.804164009168744">
        <ele>652.38999999999999</ele>
        <time>2013-09-05T09:30:13Z</time>
      </trkpt>
      <trkpt lat="50.676806028932333" lon="15.803429000079632">
        <ele>650.95000000000005</ele>
        <time>2013-09-05T09:30:21Z</time>
      </trkpt>
      <trkpt lat="50.676647024229169" lon="15.803309977054596">
        <ele>650.47000000000003</ele>
        <time>2013-09-05T09:30:22Z</time>
      </trkpt>
      <trkpt lat="50.676496988162398" lon="15.803153989836574">
        <ele>650.47000000000003</ele>
        <time>2013-09-05T09:30:23Z</time>
      </trkpt>
      <trkpt lat="50.676339995115995" lon="15.802969001233578">
        <ele>649.99000000000001</ele>
        <time>2013-09-05T09:30:24Z</time>
      </trkpt>
      <trkpt lat="50.676209991797805" lon="15.80280396156013">
        <ele>649.50999999999999</ele>
        <time>2013-09-05T09:30:25Z</time>
      </trkpt>
      <trkpt lat="50.676100021228194" lon="15.802595000714064">
        <ele>649.02999999999997</ele>
        <time>2013-09-05T09:30:26Z</time>
      </trkpt>
      <trkpt lat="50.676011005416512" lon="15.802368018776178">
        <ele>648.54999999999995</ele>
        <time>2013-09-05T09:30:27Z</time>
      </trkpt>
      <trkpt lat="50.675932969897985" lon="15.802138019353151">
        <ele>648.54999999999995</ele>
        <time>2013-09-05T09:30:28Z</time>
      </trkpt>
      <trkpt lat="50.675819981843233" lon="15.801651030778885">
        <ele>647.59000000000003</ele>
        <time>2013-09-05T09:30:30Z</time>
      </trkpt>
      <trkpt lat="50.675800032913685" lon="15.801412984728813">
        <ele>647.59000000000003</ele>
        <time>2013-09-05T09:30:31Z</time>
      </trkpt>
      <trkpt lat="50.675798021256924" lon="15.801166975870728">
        <ele>647.10000000000002</ele>
        <time>2013-09-05T09:30:32Z</time>
      </trkpt>
      <trkpt lat="50.6757250148803" lon="15.800993973389268">
        <ele>647.59000000000003</ele>
        <time>2013-09-05T09:30:33Z</time>
      </trkpt>
      <trkpt lat="50.675781005993485" lon="15.800726003944874">
        <ele>647.10000000000002</ele>
        <time>2013-09-05T09:30:34Z</time>
      </trkpt>
      <trkpt lat="50.675925007089972" lon="15.800389973446727">
        <ele>646.13999999999999</ele>
        <time>2013-09-05T09:30:35Z</time>
      </trkpt>
      <trkpt lat="50.676042018458247" lon="15.80011404119432">
        <ele>645.65999999999997</ele>
        <time>2013-09-05T09:30:36Z</time>
      </trkpt>
      <trkpt lat="50.676128016784787" lon="15.799892004579306">
        <ele>645.17999999999995</ele>
        <time>2013-09-05T09:30:37Z</time>
      </trkpt>
      <trkpt lat="50.676204962655902" lon="15.799682037904859">
        <ele>645.17999999999995</ele>
        <time>2013-09-05T09:30:38Z</time>
      </trkpt>
      <trkpt lat="50.676298001781106" lon="15.799466036260128">
        <ele>644.70000000000005</ele>
        <time>2013-09-05T09:30:39Z</time>
      </trkpt>
      <trkpt lat="50.676934020593762" lon="15.798217970877886">
        <ele>641.82000000000005</ele>
        <time>2013-09-05T09:30:44Z</time>
      </trkpt>
      <trkpt lat="50.677556041628122" lon="15.796629013493657">
        <ele>636.52999999999997</ele>
        <time>2013-09-05T09:30:49Z</time>
      </trkpt>
      <trkpt lat="50.677601974457502" lon="15.796366995200515">
        <ele>636.52999999999997</ele>
        <time>2013-09-05T09:30:50Z</time>
      </trkpt>
      <trkpt lat="50.677623013034463" lon="15.796102965250611">
        <ele>635.57000000000005</ele>
        <time>2013-09-05T09:30:51Z</time>
      </trkpt>
      <trkpt lat="50.677632987499237" lon="15.795852011069655">
        <ele>635.09000000000003</ele>
        <time>2013-09-05T09:30:52Z</time>
      </trkpt>
      <trkpt lat="50.677587976679206" lon="15.795589992776513">
        <ele>633.64999999999998</ele>
        <time>2013-09-05T09:30:53Z</time>
      </trkpt>
      <trkpt lat="50.677539026364684" lon="15.795330991968513">
        <ele>633.64999999999998</ele>
        <time>2013-09-05T09:30:54Z</time>
      </trkpt>
      <trkpt lat="50.67748898640275" lon="15.795082971453667">
        <ele>633.16999999999996</ele>
        <time>2013-09-05T09:30:55Z</time>
      </trkpt>
      <trkpt lat="50.677412962540984" lon="15.794861018657684">
        <ele>633.64999999999998</ele>
        <time>2013-09-05T09:30:56Z</time>
      </trkpt>
      <trkpt lat="50.677303997799754" lon="15.794652979820967">
        <ele>633.64999999999998</ele>
        <time>2013-09-05T09:30:57Z</time>
      </trkpt>
      <trkpt lat="50.677164020016789" lon="15.794472014531493">
        <ele>634.13</ele>
        <time>2013-09-05T09:30:58Z</time>
      </trkpt>
      <trkpt lat="50.676989005878568" lon="15.794297000393271">
        <ele>634.13</ele>
        <time>2013-09-05T09:30:59Z</time>
      </trkpt>
      <trkpt lat="50.676796976476908" lon="15.79412198625505">
        <ele>633.64999999999998</ele>
        <time>2013-09-05T09:31:00Z</time>
      </trkpt>
      <trkpt lat="50.676065990701318" lon="15.793455960229039">
        <ele>632.67999999999995</ele>
        <time>2013-09-05T09:31:05Z</time>
      </trkpt>
      <trkpt lat="50.675869015976787" lon="15.793211963027716">
        <ele>631.24000000000001</ele>
        <time>2013-09-05T09:31:09Z</time>
      </trkpt>
      <trkpt lat="50.675816964358091" lon="15.793200982734561">
        <ele>631.24000000000001</ele>
        <time>2013-09-05T09:31:10Z</time>
      </trkpt>
      <trkpt lat="50.675754016265273" lon="15.793238030746579">
        <ele>630.75999999999999</ele>
        <time>2013-09-05T09:31:11Z</time>
      </trkpt>
      <trkpt lat="50.675686961039901" lon="15.79328304156661">
        <ele>630.75999999999999</ele>
        <time>2013-09-05T09:31:12Z</time>
      </trkpt>
      <trkpt lat="50.675602974370122" lon="15.793338026851416">
        <ele>630.75999999999999</ele>
        <time>2013-09-05T09:31:13Z</time>
      </trkpt>
      <trkpt lat="50.674645006656647" lon="15.79375796020031">
        <ele>631.24000000000001</ele>
        <time>2013-09-05T09:31:22Z</time>
      </trkpt>
      <trkpt lat="50.674511985853314" lon="15.793753014877439">
        <ele>631.24000000000001</ele>
        <time>2013-09-05T09:31:23Z</time>
      </trkpt>
      <trkpt lat="50.674382988363504" lon="15.793726025149226">
        <ele>631.24000000000001</ele>
        <time>2013-09-05T09:31:24Z</time>
      </trkpt>
      <trkpt lat="50.673153027892113" lon="15.79358696937561">
        <ele>631.24000000000001</ele>
        <time>2013-09-05T09:31:32Z</time>
      </trkpt>
      <trkpt lat="50.672983964905143" lon="15.79364899545908">
        <ele>631.24000000000001</ele>
        <time>2013-09-05T09:31:33Z</time>
      </trkpt>
      <trkpt lat="50.672820014879107" lon="15.793727030977607">
        <ele>631.24000000000001</ele>
        <time>2013-09-05T09:31:34Z</time>
      </trkpt>
      <trkpt lat="50.672662016004324" lon="15.793823003768921">
        <ele>631.24000000000001</ele>
        <time>2013-09-05T09:31:35Z</time>
      </trkpt>
      <trkpt lat="50.672505022957921" lon="15.793930040672421">
        <ele>631.24000000000001</ele>
        <time>2013-09-05T09:31:36Z</time>
      </trkpt>
      <trkpt lat="50.670963004231453" lon="15.795150026679039">
        <ele>630.75999999999999</ele>
        <time>2013-09-05T09:31:45Z</time>
      </trkpt>
      <trkpt lat="50.670774998143315" lon="15.79519797116518">
        <ele>629.79999999999995</ele>
        <time>2013-09-05T09:31:46Z</time>
      </trkpt>
      <trkpt lat="50.670595038682222" lon="15.795206017792225">
        <ele>629.79999999999995</ele>
        <time>2013-09-05T09:31:47Z</time>
      </trkpt>
      <trkpt lat="50.670400997623801" lon="15.795181961730123">
        <ele>629.79999999999995</ele>
        <time>2013-09-05T09:31:48Z</time>
      </trkpt>
      <trkpt lat="50.670164041221142" lon="15.795124964788556">
        <ele>628.84000000000003</ele>
        <time>2013-09-05T09:31:49Z</time>
      </trkpt>
      <trkpt lat="50.669916020706296" lon="15.795042989775538">
        <ele>628.84000000000003</ele>
        <time>2013-09-05T09:31:50Z</time>
      </trkpt>
      <trkpt lat="50.669720973819494" lon="15.794934025034308">
        <ele>628.36000000000001</ele>
        <time>2013-09-05T09:31:51Z</time>
      </trkpt>
      <trkpt lat="50.669525004923344" lon="15.794794969260693">
        <ele>628.36000000000001</ele>
        <time>2013-09-05T09:31:52Z</time>
      </trkpt>
      <trkpt lat="50.669326018542051" lon="15.794625990092754">
        <ele>628.36000000000001</ele>
        <time>2013-09-05T09:31:53Z</time>
      </trkpt>
      <trkpt lat="50.66913097165525" lon="15.794427003711462">
        <ele>628.36000000000001</ele>
        <time>2013-09-05T09:31:54Z</time>
      </trkpt>
      <trkpt lat="50.668986970558763" lon="15.794217037037015">
        <ele>628.36000000000001</ele>
        <time>2013-09-05T09:31:55Z</time>
      </trkpt>
      <trkpt lat="50.668827965855598" lon="15.793995000422001">
        <ele>628.36000000000001</ele>
        <time>2013-09-05T09:31:56Z</time>
      </trkpt>
      <trkpt lat="50.668490007519722" lon="15.79362602904439">
        <ele>628.36000000000001</ele>
        <time>2013-09-05T09:31:58Z</time>
      </trkpt>
      <trkpt lat="50.668241987004876" lon="15.793524021282792">
        <ele>627.88</ele>
        <time>2013-09-05T09:31:59Z</time>
      </trkpt>
      <trkpt lat="50.668081976473331" lon="15.793372979387641">
        <ele>627.88</ele>
        <time>2013-09-05T09:32:00Z</time>
      </trkpt>
      <trkpt lat="50.667595993727446" lon="15.793015994131565">
        <ele>625.96000000000004</ele>
        <time>2013-09-05T09:32:03Z</time>
      </trkpt>
      <trkpt lat="50.667417040094733" lon="15.793007025495172">
        <ele>625.47000000000003</ele>
        <time>2013-09-05T09:32:04Z</time>
      </trkpt>
      <trkpt lat="50.667226016521454" lon="15.793073996901512">
        <ele>625.47000000000003</ele>
        <time>2013-09-05T09:32:05Z</time>
      </trkpt>
      <trkpt lat="50.667076986283064" lon="15.793173993006349">
        <ele>624.99000000000001</ele>
        <time>2013-09-05T09:32:06Z</time>
      </trkpt>
      <trkpt lat="50.666940025985241" lon="15.793394017964602">
        <ele>623.54999999999995</ele>
        <time>2013-09-05T09:32:07Z</time>
      </trkpt>
      <trkpt lat="50.666796024888754" lon="15.793588981032372">
        <ele>622.59000000000003</ele>
        <time>2013-09-05T09:32:08Z</time>
      </trkpt>
      <trkpt lat="50.66668102517724" lon="15.793839013203979">
        <ele>620.19000000000005</ele>
        <time>2013-09-05T09:32:09Z</time>
      </trkpt>
      <trkpt lat="50.666584968566895" lon="15.794093990698457">
        <ele>619.23000000000002</ele>
        <time>2013-09-05T09:32:10Z</time>
      </trkpt>
      <trkpt lat="50.665772007778287" lon="15.795881012454629">
        <ele>608.16999999999996</ele>
        <time>2013-09-05T09:32:18Z</time>
      </trkpt>
      <trkpt lat="50.665167002007365" lon="15.797657975926995">
        <ele>602.88</ele>
        <time>2013-09-05T09:32:27Z</time>
      </trkpt>
      <trkpt lat="50.664587980136275" lon="15.79938598908484">
        <ele>596.63999999999999</ele>
        <time>2013-09-05T09:32:36Z</time>
      </trkpt>
      <trkpt lat="50.664552021771669" lon="15.799588998779655">
        <ele>595.66999999999996</ele>
        <time>2013-09-05T09:32:37Z</time>
      </trkpt>
      <trkpt lat="50.664521008729935" lon="15.799802988767624">
        <ele>593.75</ele>
        <time>2013-09-05T09:32:38Z</time>
      </trkpt>
      <trkpt lat="50.664504999294877" lon="15.80000901594758">
        <ele>593.75</ele>
        <time>2013-09-05T09:32:39Z</time>
      </trkpt>
      <trkpt lat="50.664497036486864" lon="15.800218982622027">
        <ele>593.75</ele>
        <time>2013-09-05T09:32:40Z</time>
      </trkpt>
      <trkpt lat="50.664507010951638" lon="15.803596973419189">
        <ele>587.98000000000002</ele>
        <time>2013-09-05T09:32:55Z</time>
      </trkpt>
      <trkpt lat="50.664556967094541" lon="15.806910004466772">
        <ele>585.10000000000002</ele>
        <time>2013-09-05T09:33:09Z</time>
      </trkpt>
      <trkpt lat="50.664541041478515" lon="15.807146038860083">
        <ele>585.10000000000002</ele>
        <time>2013-09-05T09:33:10Z</time>
      </trkpt>
      <trkpt lat="50.664514973759651" lon="15.807382995262742">
        <ele>585.10000000000002</ele>
        <time>2013-09-05T09:33:11Z</time>
      </trkpt>
      <trkpt lat="50.664306012913585" lon="15.808372981846333">
        <ele>587.01999999999998</ele>
        <time>2013-09-05T09:33:15Z</time>
      </trkpt>
      <trkpt lat="50.664219008758664" lon="15.808605998754501">
        <ele>586.05999999999995</ele>
        <time>2013-09-05T09:33:16Z</time>
      </trkpt>
      <trkpt lat="50.664124963805079" lon="15.808832980692387">
        <ele>586.53999999999996</ele>
        <time>2013-09-05T09:33:17Z</time>
      </trkpt>
      <trkpt lat="50.663129026070237" lon="15.810783030465245">
        <ele>585.10000000000002</ele>
        <time>2013-09-05T09:33:26Z</time>
      </trkpt>
      <trkpt lat="50.662398040294647" lon="15.812613973394036">
        <ele>581.25</ele>
        <time>2013-09-05T09:33:34Z</time>
      </trkpt>
      <trkpt lat="50.662115989252925" lon="15.814994014799595">
        <ele>577.88999999999999</ele>
        <time>2013-09-05T09:33:44Z</time>
      </trkpt>
      <trkpt lat="50.661708964034915" lon="15.8180330414325">
        <ele>576.45000000000005</ele>
        <time>2013-09-05T09:33:57Z</time>
      </trkpt>
      <trkpt lat="50.661642998456955" lon="15.818232027813792">
        <ele>575.49000000000001</ele>
        <time>2013-09-05T09:33:58Z</time>
      </trkpt>
      <trkpt lat="50.661559011787176" lon="15.818421961739659">
        <ele>575.49000000000001</ele>
        <time>2013-09-05T09:33:59Z</time>
      </trkpt>
      <trkpt lat="50.661453986540437" lon="15.818579038605094">
        <ele>574.52999999999997</ele>
        <time>2013-09-05T09:34:00Z</time>
      </trkpt>
      <trkpt lat="50.661335969343781" lon="15.81870099529624">
        <ele>574.52999999999997</ele>
        <time>2013-09-05T09:34:01Z</time>
      </trkpt>
      <trkpt lat="50.661210995167494" lon="15.818793028593063">
        <ele>573.08000000000004</ele>
        <time>2013-09-05T09:34:02Z</time>
      </trkpt>
      <trkpt lat="50.661071017384529" lon="15.818843990564346">
        <ele>572.12</ele>
        <time>2013-09-05T09:34:03Z</time>
      </trkpt>
      <trkpt lat="50.66092299297452" lon="15.818869974464178">
        <ele>571.63999999999999</ele>
        <time>2013-09-05T09:34:04Z</time>
      </trkpt>
      <trkpt lat="50.660775974392891" lon="15.818887995555997">
        <ele>571.63999999999999</ele>
        <time>2013-09-05T09:34:05Z</time>
      </trkpt>
      <trkpt lat="50.659134965389967" lon="15.819266019389033">
        <ele>570.67999999999995</ele>
        <time>2013-09-05T09:34:16Z</time>
      </trkpt>
      <trkpt lat="50.65703596919775" lon="15.820103036239743">
        <ele>569.24000000000001</ele>
        <time>2013-09-05T09:34:31Z</time>
      </trkpt>
      <trkpt lat="50.655772984027863" lon="15.820275032892823">
        <ele>570.20000000000005</ele>
        <time>2013-09-05T09:34:40Z</time>
      </trkpt>
      <trkpt lat="50.65406802110374" lon="15.819701040163636">
        <ele>574.03999999999996</ele>
        <time>2013-09-05T09:34:52Z</time>
      </trkpt>
      <trkpt lat="50.652344031259418" lon="15.818890007212758">
        <ele>568.27999999999997</ele>
        <time>2013-09-05T09:35:02Z</time>
      </trkpt>
      <trkpt lat="50.650361040607095" lon="15.817716037854552">
        <ele>562.99000000000001</ele>
        <time>2013-09-05T09:35:12Z</time>
      </trkpt>
      <trkpt lat="50.648302026093006" lon="15.815905965864658">
        <ele>552.89999999999998</ele>
        <time>2013-09-05T09:35:23Z</time>
      </trkpt>
      <trkpt lat="50.648093987256289" lon="15.815826002508402">
        <ele>551.92999999999995</ele>
        <time>2013-09-05T09:35:24Z</time>
      </trkpt>
      <trkpt lat="50.647887038066983" lon="15.815767999738455">
        <ele>551.45000000000005</ele>
        <time>2013-09-05T09:35:25Z</time>
      </trkpt>
      <trkpt lat="50.64768604002893" lon="15.815752996131778">
        <ele>549.52999999999997</ele>
        <time>2013-09-05T09:35:26Z</time>
      </trkpt>
      <trkpt lat="50.647476995363832" lon="15.815740004181862">
        <ele>549.52999999999997</ele>
        <time>2013-09-05T09:35:27Z</time>
      </trkpt>
      <trkpt lat="50.647271974012256" lon="15.815733969211578">
        <ele>549.52999999999997</ele>
        <time>2013-09-05T09:35:28Z</time>
      </trkpt>
      <trkpt lat="50.645672036334872" lon="15.815452001988888">
        <ele>544.72000000000003</ele>
        <time>2013-09-05T09:35:37Z</time>
      </trkpt>
      <trkpt lat="50.644493037834764" lon="15.814690003171563">
        <ele>542.79999999999995</ele>
        <time>2013-09-05T09:35:46Z</time>
      </trkpt>
      <trkpt lat="50.642922017723322" lon="15.814091032370925">
        <ele>538.96000000000004</ele>
        <time>2013-09-05T09:35:57Z</time>
      </trkpt>
      <trkpt lat="50.641073975712061" lon="15.814144005998969">
        <ele>537.02999999999997</ele>
        <time>2013-09-05T09:36:10Z</time>
      </trkpt>
      <trkpt lat="50.63954402692616" lon="15.814105030149221">
        <ele>536.54999999999995</ele>
        <time>2013-09-05T09:36:21Z</time>
      </trkpt>
      <trkpt lat="50.638294033706188" lon="15.813492983579636">
        <ele>535.59000000000003</ele>
        <time>2013-09-05T09:36:30Z</time>
      </trkpt>
      <trkpt lat="50.636972039937973" lon="15.812457986176014">
        <ele>532.71000000000004</ele>
        <time>2013-09-05T09:36:40Z</time>
      </trkpt>
      <trkpt lat="50.635552983731031" lon="15.812146011739969">
        <ele>530.78999999999996</ele>
        <time>2013-09-05T09:36:50Z</time>
      </trkpt>
      <trkpt lat="50.633880961686373" lon="15.812085997313261">
        <ele>531.75</ele>
        <time>2013-09-05T09:37:02Z</time>
      </trkpt>
      <trkpt lat="50.632788967341185" lon="15.811636978760362">
        <ele>536.54999999999995</ele>
        <time>2013-09-05T09:37:11Z</time>
      </trkpt>
      <trkpt lat="50.63271202147007" lon="15.811580987647176">
        <ele>535.59000000000003</ele>
        <time>2013-09-05T09:37:12Z</time>
      </trkpt>
      <trkpt lat="50.632655024528503" lon="15.811477974057198">
        <ele>535.11000000000001</ele>
        <time>2013-09-05T09:37:13Z</time>
      </trkpt>
      <trkpt lat="50.632629040628672" lon="15.811345037072897">
        <ele>535.11000000000001</ele>
        <time>2013-09-05T09:37:14Z</time>
      </trkpt>
      <trkpt lat="50.632633985951543" lon="15.811208998784423">
        <ele>534.63</ele>
        <time>2013-09-05T09:37:15Z</time>
      </trkpt>
      <trkpt lat="50.632657036185265" lon="15.811064997687936">
        <ele>535.11000000000001</ele>
        <time>2013-09-05T09:37:16Z</time>
      </trkpt>
      <trkpt lat="50.632697017863393" lon="15.810919990763068">
        <ele>535.11000000000001</ele>
        <time>2013-09-05T09:37:17Z</time>
      </trkpt>
      <trkpt lat="50.632743034511805" lon="15.810765009373426">
        <ele>535.11000000000001</ele>
        <time>2013-09-05T09:37:18Z</time>
      </trkpt>
      <trkpt lat="50.632787039503455" lon="15.810586977750063">
        <ele>535.59000000000003</ele>
        <time>2013-09-05T09:37:19Z</time>
      </trkpt>
      <trkpt lat="50.633262963965535" lon="15.808719992637634">
        <ele>541.36000000000001</ele>
        <time>2013-09-05T09:37:29Z</time>
      </trkpt>
      <trkpt lat="50.633348962292075" lon="15.808251025155187">
        <ele>541.36000000000001</ele>
        <time>2013-09-05T09:37:31Z</time>
      </trkpt>
      <trkpt lat="50.633385004475713" lon="15.80802203156054">
        <ele>541.84000000000003</ele>
        <time>2013-09-05T09:37:32Z</time>
      </trkpt>
      <trkpt lat="50.633399002254009" lon="15.807771999388933">
        <ele>541.36000000000001</ele>
        <time>2013-09-05T09:37:33Z</time>
      </trkpt>
      <trkpt lat="50.633578961715102" lon="15.804567011073232">
        <ele>546.16999999999996</ele>
        <time>2013-09-05T09:37:47Z</time>
      </trkpt>
      <trkpt lat="50.633636964485049" lon="15.804387973621488">
        <ele>546.64999999999998</ele>
        <time>2013-09-05T09:37:48Z</time>
      </trkpt>
      <trkpt lat="50.633707037195563" lon="15.804223017767072">
        <ele>546.16999999999996</ele>
        <time>2013-09-05T09:37:49Z</time>
      </trkpt>
      <trkpt lat="50.634377002716064" lon="15.802962966263294">
        <ele>549.04999999999995</ele>
        <time>2013-09-05T09:37:57Z</time>
      </trkpt>
      <trkpt lat="50.635099019855261" lon="15.800991961732507">
        <ele>554.82000000000005</ele>
        <time>2013-09-05T09:38:06Z</time>
      </trkpt>
      <trkpt lat="50.635864958167076" lon="15.798862958326936">
        <ele>560.11000000000001</ele>
        <time>2013-09-05T09:38:14Z</time>
      </trkpt>
      <trkpt lat="50.63662201166153" lon="15.796590037643909">
        <ele>563.95000000000005</ele>
        <time>2013-09-05T09:38:22Z</time>
      </trkpt>
      <trkpt lat="50.636998023837805" lon="15.793320005759597">
        <ele>579.80999999999995</ele>
        <time>2013-09-05T09:38:32Z</time>
      </trkpt>
      <trkpt lat="50.636823009699583" lon="15.791158983483911">
        <ele>591.83000000000004</ele>
        <time>2013-09-05T09:38:39Z</time>
      </trkpt>
      <trkpt lat="50.636599967256188" lon="15.78956700861454">
        <ele>600.48000000000002</ele>
        <time>2013-09-05T09:38:46Z</time>
      </trkpt>
      <trkpt lat="50.636373991146684" lon="15.788315003737807">
        <ele>606.25</ele>
        <time>2013-09-05T09:38:53Z</time>
      </trkpt>
      <trkpt lat="50.636307019740343" lon="15.788179971277714">
        <ele>607.21000000000004</ele>
        <time>2013-09-05T09:38:54Z</time>
      </trkpt>
      <trkpt lat="50.636213980615139" lon="15.78806396573782">
        <ele>607.21000000000004</ele>
        <time>2013-09-05T09:38:55Z</time>
      </trkpt>
      <trkpt lat="50.636112978681922" lon="15.787968998774886">
        <ele>607.69000000000005</ele>
        <time>2013-09-05T09:38:56Z</time>
      </trkpt>
      <trkpt lat="50.63600099645555" lon="15.787906972691417">
        <ele>608.16999999999996</ele>
        <time>2013-09-05T09:38:57Z</time>
      </trkpt>
      <trkpt lat="50.635887002572417" lon="15.787862967699766">
        <ele>609.13</ele>
        <time>2013-09-05T09:38:58Z</time>
      </trkpt>
      <trkpt lat="50.635768985375762" lon="15.787841007113457">
        <ele>609.61000000000001</ele>
        <time>2013-09-05T09:38:59Z</time>
      </trkpt>
      <trkpt lat="50.635649040341377" lon="15.787858022376895">
        <ele>610.09000000000003</ele>
        <time>2013-09-05T09:39:00Z</time>
      </trkpt>
      <trkpt lat="50.635532028973103" lon="15.787937985733151">
        <ele>612.01999999999998</ele>
        <time>2013-09-05T09:39:01Z</time>
      </trkpt>
      <trkpt lat="50.635415017604828" lon="15.788044016808271">
        <ele>614.41999999999996</ele>
        <time>2013-09-05T09:39:02Z</time>
      </trkpt>
      <trkpt lat="50.635318038985133" lon="15.788160022348166">
        <ele>615.38</ele>
        <time>2013-09-05T09:39:03Z</time>
      </trkpt>
      <trkpt lat="50.635232040658593" lon="15.788289019837976">
        <ele>615.86000000000001</ele>
        <time>2013-09-05T09:39:04Z</time>
      </trkpt>
      <trkpt lat="50.63516004011035" lon="15.788434026762843">
        <ele>616.34000000000003</ele>
        <time>2013-09-05T09:39:05Z</time>
      </trkpt>
      <trkpt lat="50.635088039562106" lon="15.788591019809246">
        <ele>617.29999999999995</ele>
        <time>2013-09-05T09:39:06Z</time>
      </trkpt>
      <trkpt lat="50.635017966851592" lon="15.788738038390875">
        <ele>617.77999999999997</ele>
        <time>2013-09-05T09:39:07Z</time>
      </trkpt>
      <trkpt lat="50.634921994060278" lon="15.788876004517078">
        <ele>618.75</ele>
        <time>2013-09-05T09:39:08Z</time>
      </trkpt>
      <trkpt lat="50.6348189804703" lon="15.78898698091507">
        <ele>619.23000000000002</ele>
        <time>2013-09-05T09:39:09Z</time>
      </trkpt>
      <trkpt lat="50.634715966880322" lon="15.789067028090358">
        <ele>619.71000000000004</ele>
        <time>2013-09-05T09:39:10Z</time>
      </trkpt>
      <trkpt lat="50.634614964947104" lon="15.789111033082008">
        <ele>620.19000000000005</ele>
        <time>2013-09-05T09:39:11Z</time>
      </trkpt>
      <trkpt lat="50.634512035176158" lon="15.789124025031924">
        <ele>621.14999999999998</ele>
        <time>2013-09-05T09:39:12Z</time>
      </trkpt>
      <trkpt lat="50.634394017979503" lon="15.789108015596867">
        <ele>621.63</ele>
        <time>2013-09-05T09:39:13Z</time>
      </trkpt>
      <trkpt lat="50.634282035753131" lon="15.78905001282692">
        <ele>622.11000000000001</ele>
        <time>2013-09-05T09:39:14Z</time>
      </trkpt>
      <trkpt lat="50.634159995242953" lon="15.788931995630264">
        <ele>623.54999999999995</ele>
        <time>2013-09-05T09:39:15Z</time>
      </trkpt>
      <trkpt lat="50.634056981652975" lon="15.788816995918751">
        <ele>624.50999999999999</ele>
        <time>2013-09-05T09:39:16Z</time>
      </trkpt>
      <trkpt lat="50.633977018296719" lon="15.788670983165503">
        <ele>626.44000000000005</ele>
        <time>2013-09-05T09:39:17Z</time>
      </trkpt>
      <trkpt lat="50.633919015526772" lon="15.78851499594748">
        <ele>626.91999999999996</ele>
        <time>2013-09-05T09:39:18Z</time>
      </trkpt>
      <trkpt lat="50.633875010535121" lon="15.78834199346602">
        <ele>627.88</ele>
        <time>2013-09-05T09:39:19Z</time>
      </trkpt>
      <trkpt lat="50.633859001100063" lon="15.788157004863024">
        <ele>628.36000000000001</ele>
        <time>2013-09-05T09:39:20Z</time>
      </trkpt>
      <trkpt lat="50.633859001100063" lon="15.787968998774886">
        <ele>629.32000000000005</ele>
        <time>2013-09-05T09:39:21Z</time>
      </trkpt>
      <trkpt lat="50.63385103829205" lon="15.787787027657032">
        <ele>629.79999999999995</ele>
        <time>2013-09-05T09:39:22Z</time>
      </trkpt>
      <trkpt lat="50.633771996945143" lon="15.785875031724572">
        <ele>641.34000000000003</ele>
        <time>2013-09-05T09:39:32Z</time>
      </trkpt>
      <trkpt lat="50.63376696780324" lon="15.785676967352629">
        <ele>642.77999999999997</ele>
        <time>2013-09-05T09:39:33Z</time>
      </trkpt>
      <trkpt lat="50.633673006668687" lon="15.784004023298621">
        <ele>652.87</ele>
        <time>2013-09-05T09:39:41Z</time>
      </trkpt>
      <trkpt lat="50.633624978363514" lon="15.783807970583439">
        <ele>653.83000000000004</ele>
        <time>2013-09-05T09:39:42Z</time>
      </trkpt>
      <trkpt lat="50.633559012785554" lon="15.783624993637204">
        <ele>654.30999999999995</ele>
        <time>2013-09-05T09:39:43Z</time>
      </trkpt>
      <trkpt lat="50.633485000580549" lon="15.783447967842221">
        <ele>655.27999999999997</ele>
        <time>2013-09-05T09:39:44Z</time>
      </trkpt>
      <trkpt lat="50.63340101391077" lon="15.783282006159425">
        <ele>656.24000000000001</ele>
        <time>2013-09-05T09:39:45Z</time>
      </trkpt>
      <trkpt lat="50.63279801979661" lon="15.782037964090705">
        <ele>663.92999999999995</ele>
        <time>2013-09-05T09:39:52Z</time>
      </trkpt>
      <trkpt lat="50.632761977612972" lon="15.781825985759497">
        <ele>664.88999999999999</ele>
        <time>2013-09-05T09:39:53Z</time>
      </trkpt>
      <trkpt lat="50.632744040340185" lon="15.781607972458005">
        <ele>666.33000000000004</ele>
        <time>2013-09-05T09:39:54Z</time>
      </trkpt>
      <trkpt lat="50.632690982893109" lon="15.779008995741606">
        <ele>677.38999999999999</ele>
        <time>2013-09-05T09:40:06Z</time>
      </trkpt>
      <trkpt lat="50.632785027846694" lon="15.776789970695972">
        <ele>684.60000000000002</ele>
        <time>2013-09-05T09:40:16Z</time>
      </trkpt>
      <trkpt lat="50.632620994001627" lon="15.775038991123438">
        <ele>691.80999999999995</ele>
        <time>2013-09-05T09:40:24Z</time>
      </trkpt>
      <trkpt lat="50.632546981796622" lon="15.77285198494792">
        <ele>701.41999999999996</ele>
        <time>2013-09-05T09:40:34Z</time>
      </trkpt>
      <trkpt lat="50.63260599039495" lon="15.771958976984024">
        <ele>705.25999999999999</ele>
        <time>2013-09-05T09:40:38Z</time>
      </trkpt>
      <trkpt lat="50.633146958425641" lon="15.769658982753754">
        <ele>716.32000000000005</ele>
        <time>2013-09-05T09:40:49Z</time>
      </trkpt>
      <trkpt lat="50.633149975910783" lon="15.768143031746149">
        <ele>724.00999999999999</ele>
        <time>2013-09-05T09:40:56Z</time>
      </trkpt>
      <trkpt lat="50.633048973977566" lon="15.76748002320528">
        <ele>726.40999999999997</ele>
        <time>2013-09-05T09:40:59Z</time>
      </trkpt>
      <trkpt lat="50.63303598202765" lon="15.767250023782253">
        <ele>727.37</ele>
        <time>2013-09-05T09:41:00Z</time>
      </trkpt>
      <trkpt lat="50.63303698785603" lon="15.767011977732182">
        <ele>728.34000000000003</ele>
        <time>2013-09-05T09:41:01Z</time>
      </trkpt>
      <trkpt lat="50.63301402144134" lon="15.764541998505592">
        <ele>737.95000000000005</ele>
        <time>2013-09-05T09:41:11Z</time>
      </trkpt>
      <trkpt lat="50.633349968120456" lon="15.762271005660295">
        <ele>746.60000000000002</ele>
        <time>2013-09-05T09:41:19Z</time>
      </trkpt>
      <trkpt lat="50.633356003090739" lon="15.761960037052631">
        <ele>748.03999999999996</ele>
        <time>2013-09-05T09:41:20Z</time>
      </trkpt>
      <trkpt lat="50.633351979777217" lon="15.761687038466334">
        <ele>751.88999999999999</ele>
        <time>2013-09-05T09:41:21Z</time>
      </trkpt>
      <trkpt lat="50.63331400975585" lon="15.76139803044498">
        <ele>752.37</ele>
        <time>2013-09-05T09:41:22Z</time>
      </trkpt>
      <trkpt lat="50.633255001157522" lon="15.761123020201921">
        <ele>752.85000000000002</ele>
        <time>2013-09-05T09:41:23Z</time>
      </trkpt>
      <trkpt lat="50.633181994780898" lon="15.760855972766876">
        <ele>754.28999999999996</ele>
        <time>2013-09-05T09:41:24Z</time>
      </trkpt>
      <trkpt lat="50.632594004273415" lon="15.758798969909549">
        <ele>765.83000000000004</ele>
        <time>2013-09-05T09:41:32Z</time>
      </trkpt>
      <trkpt lat="50.632413038983941" lon="15.757217975333333">
        <ele>773.51999999999998</ele>
        <time>2013-09-05T09:41:39Z</time>
      </trkpt>
      <trkpt lat="50.632386971265078" lon="15.756131010130048">
        <ele>777.84000000000003</ele>
        <time>2013-09-05T09:41:44Z</time>
      </trkpt>
      <trkpt lat="50.632407004013658" lon="15.755912996828556">
        <ele>779.28999999999996</ele>
        <time>2013-09-05T09:41:45Z</time>
      </trkpt>
      <trkpt lat="50.632827021181583" lon="15.753699000924826">
        <ele>778.32000000000005</ele>
        <time>2013-09-05T09:41:55Z</time>
      </trkpt>
      <trkpt lat="50.633584996685386" lon="15.750881005078554">
        <ele>768.71000000000004</ele>
        <time>2013-09-05T09:42:06Z</time>
      </trkpt>
      <trkpt lat="50.634077014401555" lon="15.748282028362155">
        <ele>760.05999999999995</ele>
        <time>2013-09-05T09:42:16Z</time>
      </trkpt>
      <trkpt lat="50.634255968034267" lon="15.74605998583138">
        <ele>755.73000000000002</ele>
        <time>2013-09-05T09:42:25Z</time>
      </trkpt>
      <trkpt lat="50.634400974959135" lon="15.744400033727288">
        <ele>754.28999999999996</ele>
        <time>2013-09-05T09:42:33Z</time>
      </trkpt>
      <trkpt lat="50.63471001572907" lon="15.742742009460926">
        <ele>750.92999999999995</ele>
        <time>2013-09-05T09:42:42Z</time>
      </trkpt>
      <trkpt lat="50.634774975478649" lon="15.742476973682642">
        <ele>749.49000000000001</ele>
        <time>2013-09-05T09:42:43Z</time>
      </trkpt>
      <trkpt lat="50.63475301489234" lon="15.742189977318048">
        <ele>748.51999999999998</ele>
        <time>2013-09-05T09:42:44Z</time>
      </trkpt>
      <trkpt lat="50.635080998763442" lon="15.739704994484782">
        <ele>740.35000000000002</ele>
        <time>2013-09-05T09:42:53Z</time>
      </trkpt>
      <trkpt lat="50.635301023721695" lon="15.736780967563391">
        <ele>729.77999999999997</ele>
        <time>2013-09-05T09:43:03Z</time>
      </trkpt>
      <trkpt lat="50.635404037311673" lon="15.734254997223616">
        <ele>719.20000000000005</ele>
        <time>2013-09-05T09:43:12Z</time>
      </trkpt>
      <trkpt lat="50.635422980412841" lon="15.734018962830305">
        <ele>719.20000000000005</ele>
        <time>2013-09-05T09:43:13Z</time>
      </trkpt>
      <trkpt lat="50.635489029809833" lon="15.733784018084407">
        <ele>718.24000000000001</ele>
        <time>2013-09-05T09:43:14Z</time>
      </trkpt>
      <trkpt lat="50.635558012872934" lon="15.733582014217973">
        <ele>717.75999999999999</ele>
        <time>2013-09-05T09:43:15Z</time>
      </trkpt>
      <trkpt lat="50.635652979835868" lon="15.733398031443357">
        <ele>717.75999999999999</ele>
        <time>2013-09-05T09:43:16Z</time>
      </trkpt>
      <trkpt lat="50.635748030617833" lon="15.733227040618658">
        <ele>717.27999999999997</ele>
        <time>2013-09-05T09:43:17Z</time>
      </trkpt>
      <trkpt lat="50.635869987308979" lon="15.733068035915494">
        <ele>717.27999999999997</ele>
        <time>2013-09-05T09:43:18Z</time>
      </trkpt>
      <trkpt lat="50.635994039475918" lon="15.732938032597303">
        <ele>716.79999999999995</ele>
        <time>2013-09-05T09:43:19Z</time>
      </trkpt>
      <trkpt lat="50.63610602170229" lon="15.732815992087126">
        <ele>716.79999999999995</ele>
        <time>2013-09-05T09:43:20Z</time>
      </trkpt>
      <trkpt lat="50.636545987799764" lon="15.732306959107518">
        <ele>714.39999999999998</ele>
        <time>2013-09-05T09:43:24Z</time>
      </trkpt>
      <trkpt lat="50.636586975306273" lon="15.732119036838412">
        <ele>713.44000000000005</ele>
        <time>2013-09-05T09:43:25Z</time>
      </trkpt>
      <trkpt lat="50.63660298474133" lon="15.731973024085164">
        <ele>711.50999999999999</ele>
        <time>2013-09-05T09:43:26Z</time>
      </trkpt>
      <trkpt lat="50.636556968092918" lon="15.731797004118562">
        <ele>710.54999999999995</ele>
        <time>2013-09-05T09:43:27Z</time>
      </trkpt>
      <trkpt lat="50.636468036100268" lon="15.731629030779004">
        <ele>709.59000000000003</ele>
        <time>2013-09-05T09:43:28Z</time>
      </trkpt>
      <trkpt lat="50.636339038610458" lon="15.731561975553632">
        <ele>708.14999999999998</ele>
        <time>2013-09-05T09:43:29Z</time>
      </trkpt>
      <trkpt lat="50.636212974786758" lon="15.731529034674168">
        <ele>706.23000000000002</ele>
        <time>2013-09-05T09:43:30Z</time>
      </trkpt>
      <trkpt lat="50.636084983125329" lon="15.731505984440446">
        <ele>705.25999999999999</ele>
        <time>2013-09-05T09:43:31Z</time>
      </trkpt>
      <trkpt lat="50.635967971757054" lon="15.731474971398711">
        <ele>704.77999999999997</ele>
        <time>2013-09-05T09:43:32Z</time>
      </trkpt>
      <trkpt lat="50.635854983702302" lon="15.731416968628764">
        <ele>704.29999999999995</ele>
        <time>2013-09-05T09:43:33Z</time>
      </trkpt>
      <trkpt lat="50.63576496206224" lon="15.731305992230773">
        <ele>703.34000000000003</ele>
        <time>2013-09-05T09:43:34Z</time>
      </trkpt>
      <trkpt lat="50.63533597625792" lon="15.730730993673205">
        <ele>697.57000000000005</ele>
        <time>2013-09-05T09:43:38Z</time>
      </trkpt>
      <trkpt lat="50.634340038523078" lon="15.729363989084959">
        <ele>688.91999999999996</ele>
        <time>2013-09-05T09:43:46Z</time>
      </trkpt>
      <trkpt lat="50.634245993569493" lon="15.729145975783467">
        <ele>687.96000000000004</ele>
        <time>2013-09-05T09:43:47Z</time>
      </trkpt>
      <trkpt lat="50.634063016623259" lon="15.728683965280652">
        <ele>685.55999999999995</ele>
        <time>2013-09-05T09:43:49Z</time>
      </trkpt>
      <trkpt lat="50.6333580147475" lon="15.726055987179279">
        <ele>669.70000000000005</ele>
        <time>2013-09-05T09:43:59Z</time>
      </trkpt>
      <trkpt lat="50.632684025913477" lon="15.723401019349694">
        <ele>659.60000000000002</ele>
        <time>2013-09-05T09:44:09Z</time>
      </trkpt>
      <trkpt lat="50.632668016478419" lon="15.723140006884933">
        <ele>658.63999999999999</ele>
        <time>2013-09-05T09:44:10Z</time>
      </trkpt>
      <trkpt lat="50.63267002813518" lon="15.722884023562074">
        <ele>657.67999999999995</ele>
        <time>2013-09-05T09:44:11Z</time>
      </trkpt>
      <trkpt lat="50.632704980671406" lon="15.722626028582454">
        <ele>657.20000000000005</ele>
        <time>2013-09-05T09:44:12Z</time>
      </trkpt>
      <trkpt lat="50.632768012583256" lon="15.722374990582466">
        <ele>656.24000000000001</ele>
        <time>2013-09-05T09:44:13Z</time>
      </trkpt>
      <trkpt lat="50.632843030616641" lon="15.722135016694665">
        <ele>655.27999999999997</ele>
        <time>2013-09-05T09:44:14Z</time>
      </trkpt>
      <trkpt lat="50.633218036964536" lon="15.72092198766768">
        <ele>650.95000000000005</ele>
        <time>2013-09-05T09:44:19Z</time>
      </trkpt>
      <trkpt lat="50.633233962580562" lon="15.72066399268806">
        <ele>649.99000000000001</ele>
        <time>2013-09-05T09:44:20Z</time>
      </trkpt>
      <trkpt lat="50.633260030299425" lon="15.720069967210293">
        <ele>647.10000000000002</ele>
        <time>2013-09-05T09:44:23Z</time>
      </trkpt>
      <trkpt lat="50.633310992270708" lon="15.719929989427328">
        <ele>646.13999999999999</ele>
        <time>2013-09-05T09:44:24Z</time>
      </trkpt>
      <trkpt lat="50.63337997533381" lon="15.719825970008969">
        <ele>645.65999999999997</ele>
        <time>2013-09-05T09:44:25Z</time>
      </trkpt>
      <trkpt lat="50.63344300724566" lon="15.719755981117487">
        <ele>644.70000000000005</ele>
        <time>2013-09-05T09:44:26Z</time>
      </trkpt>
      <trkpt lat="50.633509978652" lon="15.719708036631346">
        <ele>644.22000000000003</ele>
        <time>2013-09-05T09:44:27Z</time>
      </trkpt>
      <trkpt lat="50.633596982806921" lon="15.719681968912482">
        <ele>643.25999999999999</ele>
        <time>2013-09-05T09:44:28Z</time>
      </trkpt>
      <trkpt lat="50.633710976690054" lon="15.719686998054385">
        <ele>642.77999999999997</ele>
        <time>2013-09-05T09:44:29Z</time>
      </trkpt>
      <trkpt lat="50.633789012208581" lon="15.719770984724164">
        <ele>641.82000000000005</ele>
        <time>2013-09-05T09:44:30Z</time>
      </trkpt>
      <trkpt lat="50.63391599804163" lon="15.719865029677749">
        <ele>641.34000000000003</ele>
        <time>2013-09-05T09:44:31Z</time>
      </trkpt>
      <trkpt lat="50.633995039388537" lon="15.719986986368895">
        <ele>640.86000000000001</ele>
        <time>2013-09-05T09:44:32Z</time>
      </trkpt>
      <trkpt lat="50.634235013276339" lon="15.720158983021975">
        <ele>639.40999999999997</ele>
        <time>2013-09-05T09:44:34Z</time>
      </trkpt>
      <trkpt lat="50.634342972189188" lon="15.720218997448683">
        <ele>638.92999999999995</ele>
        <time>2013-09-05T09:44:35Z</time>
      </trkpt>
      <trkpt lat="50.634446991607547" lon="15.720225032418966">
        <ele>638.45000000000005</ele>
        <time>2013-09-05T09:44:36Z</time>
      </trkpt>
      <trkpt lat="50.634573977440596" lon="15.720204999670386">
        <ele>636.52999999999997</ele>
        <time>2013-09-05T09:44:37Z</time>
      </trkpt>
      <trkpt lat="50.63464698381722" lon="15.720082959160209">
        <ele>636.04999999999995</ele>
        <time>2013-09-05T09:44:38Z</time>
      </trkpt>
      <trkpt lat="50.634701969102025" lon="15.719932001084089">
        <ele>635.57000000000005</ele>
        <time>2013-09-05T09:44:39Z</time>
      </trkpt>
      <trkpt lat="50.634715966880322" lon="15.719790011644363">
        <ele>636.04999999999995</ele>
        <time>2013-09-05T09:44:40Z</time>
      </trkpt>
      <trkpt lat="50.634695012122393" lon="15.719607034698129">
        <ele>635.09000000000003</ele>
        <time>2013-09-05T09:44:41Z</time>
      </trkpt>
      <trkpt lat="50.63464698381722" lon="15.719447024166584">
        <ele>633.16999999999996</ele>
        <time>2013-09-05T09:44:42Z</time>
      </trkpt>
      <trkpt lat="50.634630974382162" lon="15.719234040006995">
        <ele>632.67999999999995</ele>
        <time>2013-09-05T09:44:43Z</time>
      </trkpt>
      <trkpt lat="50.634636003524065" lon="15.719015020877123">
        <ele>632.67999999999995</ele>
        <time>2013-09-05T09:44:44Z</time>
      </trkpt>
      <trkpt lat="50.634662993252277" lon="15.718799019232392">
        <ele>632.20000000000005</ele>
        <time>2013-09-05T09:44:45Z</time>
      </trkpt>
      <trkpt lat="50.634695012122393" lon="15.718570025637746">
        <ele>630.75999999999999</ele>
        <time>2013-09-05T09:44:46Z</time>
      </trkpt>
      <trkpt lat="50.634943032637239" lon="15.716976961120963">
        <ele>624.02999999999997</ele>
        <time>2013-09-05T09:44:53Z</time>
      </trkpt>
      <trkpt lat="50.63531300984323" lon="15.715255988761783">
        <ele>615.86000000000001</ele>
        <time>2013-09-05T09:45:02Z</time>
      </trkpt>
      <trkpt lat="50.635373024269938" lon="15.715102013200521">
        <ele>614.89999999999998</ele>
        <time>2013-09-05T09:45:03Z</time>
      </trkpt>
      <trkpt lat="50.63567603006959" lon="15.714528020471334">
        <ele>612.01999999999998</ele>
        <time>2013-09-05T09:45:07Z</time>
      </trkpt>
      <trkpt lat="50.636218003928661" lon="15.713067976757884">
        <ele>603.85000000000002</ele>
        <time>2013-09-05T09:45:16Z</time>
      </trkpt>
      <trkpt lat="50.636296961456537" lon="15.712970998138189">
        <ele>603.36000000000001</ele>
        <time>2013-09-05T09:45:17Z</time>
      </trkpt>
      <trkpt lat="50.636390000581741" lon="15.71290897205472">
        <ele>603.36000000000001</ele>
        <time>2013-09-05T09:45:18Z</time>
      </trkpt>
      <trkpt lat="50.63716096803546" lon="15.712529020383954">
        <ele>600.48000000000002</ele>
        <time>2013-09-05T09:45:27Z</time>
      </trkpt>
      <trkpt lat="50.63722500577569" lon="15.712458025664091">
        <ele>600</ele>
        <time>2013-09-05T09:45:28Z</time>
      </trkpt>
      <trkpt lat="50.637264987453818" lon="15.71237001568079">
        <ele>600</ele>
        <time>2013-09-05T09:45:29Z</time>
      </trkpt>
      <trkpt lat="50.637285020202398" lon="15.712264990434051">
        <ele>599.51999999999998</ele>
        <time>2013-09-05T09:45:30Z</time>
      </trkpt>
      <trkpt lat="50.637296000495553" lon="15.71215501986444">
        <ele>599.03999999999996</ele>
        <time>2013-09-05T09:45:31Z</time>
      </trkpt>
      <trkpt lat="50.637299017980695" lon="15.712041025981307">
        <ele>599.03999999999996</ele>
        <time>2013-09-05T09:45:32Z</time>
      </trkpt>
      <trkpt lat="50.637287031859159" lon="15.711928037926555">
        <ele>598.55999999999995</ele>
        <time>2013-09-05T09:45:33Z</time>
      </trkpt>
      <trkpt lat="50.637266999110579" lon="15.711828963831067">
        <ele>598.08000000000004</ele>
        <time>2013-09-05T09:45:34Z</time>
      </trkpt>
      <trkpt lat="50.637207990512252" lon="15.711753023788333">
        <ele>597.60000000000002</ele>
        <time>2013-09-05T09:45:35Z</time>
      </trkpt>
      <trkpt lat="50.637164991348982" lon="15.711687980219722">
        <ele>597.12</ele>
        <time>2013-09-05T09:45:36Z</time>
      </trkpt>
      <trkpt lat="50.637106988579035" lon="15.71164196357131">
        <ele>596.63999999999999</ele>
        <time>2013-09-05T09:45:37Z</time>
      </trkpt>
      <trkpt lat="50.637060971930623" lon="15.71159896440804">
        <ele>596.63999999999999</ele>
        <time>2013-09-05T09:45:38Z</time>
      </trkpt>
      <trkpt lat="50.637006992474198" lon="15.711565017700195">
        <ele>597.12</ele>
        <time>2013-09-05T09:45:39Z</time>
      </trkpt>
      <trkpt lat="50.636037038639188" lon="15.711034024134278">
        <ele>595.66999999999996</ele>
        <time>2013-09-05T09:45:53Z</time>
      </trkpt>
      <trkpt lat="50.635160962119699" lon="15.710570001974702">
        <ele>593.75</ele>
        <time>2013-09-05T09:46:01Z</time>
      </trkpt>
      <trkpt lat="50.634460989385843" lon="15.71037101559341">
        <ele>590.38999999999999</ele>
        <time>2013-09-05T09:46:08Z</time>
      </trkpt>
      <trkpt lat="50.63438999466598" lon="15.71043798699975">
        <ele>588.95000000000005</ele>
        <time>2013-09-05T09:46:09Z</time>
      </trkpt>
      <trkpt lat="50.634340960532427" lon="15.710545023903251">
        <ele>588.46000000000004</ele>
        <time>2013-09-05T09:46:10Z</time>
      </trkpt>
      <trkpt lat="50.634076008573174" lon="15.710964035242796">
        <ele>587.5</ele>
        <time>2013-09-05T09:46:14Z</time>
      </trkpt>
      <trkpt lat="50.633968971669674" lon="15.711031006649137">
        <ele>587.5</ele>
        <time>2013-09-05T09:46:15Z</time>
      </trkpt>
      <trkpt lat="50.633849026635289" lon="15.711096972227097">
        <ele>587.01999999999998</ele>
        <time>2013-09-05T09:46:16Z</time>
      </trkpt>
      <trkpt lat="50.633607041090727" lon="15.711204009130597">
        <ele>585.10000000000002</ele>
        <time>2013-09-05T09:46:18Z</time>
      </trkpt>
      <trkpt lat="50.632169041782618" lon="15.711557976901531">
        <ele>578.37</ele>
        <time>2013-09-05T09:46:29Z</time>
      </trkpt>
      <trkpt lat="50.631176959723234" lon="15.711802979931235">
        <ele>574.52999999999997</ele>
        <time>2013-09-05T09:46:37Z</time>
      </trkpt>
      <trkpt lat="50.6302410364151" lon="15.712193995714188">
        <ele>571.63999999999999</ele>
        <time>2013-09-05T09:46:44Z</time>
      </trkpt>
      <trkpt lat="50.630094017833471" lon="15.712214028462768">
        <ele>571.15999999999997</ele>
        <time>2013-09-05T09:46:45Z</time>
      </trkpt>
      <trkpt lat="50.629944987595081" lon="15.712206987664104">
        <ele>570.67999999999995</ele>
        <time>2013-09-05T09:46:46Z</time>
      </trkpt>
      <trkpt lat="50.628616958856583" lon="15.712274964898825">
        <ele>566.83000000000004</ele>
        <time>2013-09-05T09:46:56Z</time>
      </trkpt>
      <trkpt lat="50.62820297665894" lon="15.712336990982294">
        <ele>564.90999999999997</ele>
        <time>2013-09-05T09:46:59Z</time>
      </trkpt>
      <trkpt lat="50.628047995269299" lon="15.71237001568079">
        <ele>562.02999999999997</ele>
        <time>2013-09-05T09:47:00Z</time>
      </trkpt>
      <trkpt lat="50.627917991951108" lon="15.712449979037046">
        <ele>561.54999999999995</ele>
        <time>2013-09-05T09:47:01Z</time>
      </trkpt>
      <trkpt lat="50.627162028104067" lon="15.713064959272742">
        <ele>558.65999999999997</ele>
        <time>2013-09-05T09:47:07Z</time>
      </trkpt>
      <trkpt lat="50.627039987593889" lon="15.713138971477747">
        <ele>558.65999999999997</ele>
        <time>2013-09-05T09:47:08Z</time>
      </trkpt>
      <trkpt lat="50.626920964568853" lon="15.713165961205959">
        <ele>557.22000000000003</ele>
        <time>2013-09-05T09:47:09Z</time>
      </trkpt>
      <trkpt lat="50.62678299844265" lon="15.713195968419313">
        <ele>557.22000000000003</ele>
        <time>2013-09-05T09:47:10Z</time>
      </trkpt>
      <trkpt lat="50.626641009002924" lon="15.713216001167893">
        <ele>556.74000000000001</ele>
        <time>2013-09-05T09:47:11Z</time>
      </trkpt>
      <trkpt lat="50.626205988228321" lon="15.713280960917473">
        <ele>553.86000000000001</ele>
        <time>2013-09-05T09:47:14Z</time>
      </trkpt>
      <trkpt lat="50.62508599832654" lon="15.712905032560229">
        <ele>543.27999999999997</ele>
        <time>2013-09-05T09:47:22Z</time>
      </trkpt>
      <trkpt lat="50.624967981129885" lon="15.712804030627012">
        <ele>541.84000000000003</ele>
        <time>2013-09-05T09:47:23Z</time>
      </trkpt>
      <trkpt lat="50.624863039702177" lon="15.712674027308822">
        <ele>540.39999999999998</ele>
        <time>2013-09-05T09:47:24Z</time>
      </trkpt>
      <trkpt lat="50.624559028074145" lon="15.712289968505502">
        <ele>537.02999999999997</ele>
        <time>2013-09-05T09:47:27Z</time>
      </trkpt>
      <trkpt lat="50.624442016705871" lon="15.712195001542568">
        <ele>534.63</ele>
        <time>2013-09-05T09:47:28Z</time>
      </trkpt>
      <trkpt lat="50.623444989323616" lon="15.711573986336589">
        <ele>528.38</ele>
        <time>2013-09-05T09:47:36Z</time>
      </trkpt>
      <trkpt lat="50.622501019388437" lon="15.711152963340282">
        <ele>523.58000000000004</ele>
        <time>2013-09-05T09:47:43Z</time>
      </trkpt>
      <trkpt lat="50.621374994516373" lon="15.710420971736312">
        <ele>515.88</ele>
        <time>2013-09-05T09:47:52Z</time>
      </trkpt>
      <trkpt lat="50.62083201482892" lon="15.710202036425471">
        <ele>513</ele>
        <time>2013-09-05T09:47:56Z</time>
      </trkpt>
      <trkpt lat="50.620695976540446" lon="15.710191978141665">
        <ele>512.51999999999998</ele>
        <time>2013-09-05T09:47:57Z</time>
      </trkpt>
      <trkpt lat="50.620557004585862" lon="15.710196001455188">
        <ele>512.03999999999996</ele>
        <time>2013-09-05T09:47:58Z</time>
      </trkpt>
      <trkpt lat="50.620279982686043" lon="15.710202036425471">
        <ele>511.07999999999998</ele>
        <time>2013-09-05T09:48:00Z</time>
      </trkpt>
      <trkpt lat="50.620142016559839" lon="15.710167000070214">
        <ele>510.12</ele>
        <time>2013-09-05T09:48:01Z</time>
      </trkpt>
      <trkpt lat="50.620010001584888" lon="15.71011402644217">
        <ele>510.12</ele>
        <time>2013-09-05T09:48:02Z</time>
      </trkpt>
      <trkpt lat="50.619874969124794" lon="15.710024004802108">
        <ele>509.63999999999999</ele>
        <time>2013-09-05T09:48:03Z</time>
      </trkpt>
      <trkpt lat="50.619755024090409" lon="15.709932977333665">
        <ele>508.67000000000002</ele>
        <time>2013-09-05T09:48:04Z</time>
      </trkpt>
      <trkpt lat="50.61962703242898" lon="15.709823006764054">
        <ele>507.70999999999998</ele>
        <time>2013-09-05T09:48:05Z</time>
      </trkpt>
      <trkpt lat="50.618642996996641" lon="15.709060002118349">
        <ele>502.91000000000003</ele>
        <time>2013-09-05T09:48:13Z</time>
      </trkpt>
      <trkpt lat="50.617619985714555" lon="15.708830002695322">
        <ele>500.01999999999998</ele>
        <time>2013-09-05T09:48:21Z</time>
      </trkpt>
      <trkpt lat="50.617533987388015" lon="15.708687007427216">
        <ele>500.01999999999998</ele>
        <time>2013-09-05T09:48:22Z</time>
      </trkpt>
      <trkpt lat="50.616668974980712" lon="15.707801962271333">
        <ele>497.13999999999999</ele>
        <time>2013-09-05T09:48:30Z</time>
      </trkpt>
      <trkpt lat="50.616551041603088" lon="15.707705989480019">
        <ele>497.13999999999999</ele>
        <time>2013-09-05T09:48:31Z</time>
      </trkpt>
      <trkpt lat="50.616436041891575" lon="15.707631977275014">
        <ele>496.66000000000003</ele>
        <time>2013-09-05T09:48:32Z</time>
      </trkpt>
      <trkpt lat="50.616316013038158" lon="15.70757900364697">
        <ele>496.66000000000003</ele>
        <time>2013-09-05T09:48:33Z</time>
      </trkpt>
      <trkpt lat="50.6161929666996" lon="15.707528041675687">
        <ele>496.18000000000001</ele>
        <time>2013-09-05T09:48:34Z</time>
      </trkpt>
      <trkpt lat="50.614723032340407" lon="15.707055972889066">
        <ele>492.32999999999998</ele>
        <time>2013-09-05T09:48:45Z</time>
      </trkpt>
      <trkpt lat="50.613320991396904" lon="15.706992018967867">
        <ele>484.63999999999999</ele>
        <time>2013-09-05T09:48:56Z</time>
      </trkpt>
      <trkpt lat="50.612212987616658" lon="15.706982966512442">
        <ele>481.75999999999999</ele>
        <time>2013-09-05T09:49:05Z</time>
      </trkpt>
      <trkpt lat="50.611505974084139" lon="15.706944996491075">
        <ele>479.83999999999997</ele>
        <time>2013-09-05T09:49:12Z</time>
      </trkpt>
      <trkpt lat="50.611375970765948" lon="15.706912977620959">
        <ele>479.83999999999997</ele>
        <time>2013-09-05T09:49:14Z</time>
      </trkpt>
      <trkpt lat="50.611302964389324" lon="15.706856986507773">
        <ele>479.83999999999997</ele>
        <time>2013-09-05T09:49:15Z</time>
      </trkpt>
      <trkpt lat="50.611017979681492" lon="15.706703010946512">
        <ele>481.27999999999997</ele>
        <time>2013-09-05T09:49:18Z</time>
      </trkpt>
      <trkpt lat="50.610910020768642" lon="15.706684989854693">
        <ele>480.80000000000001</ele>
        <time>2013-09-05T09:49:19Z</time>
      </trkpt>
      <trkpt lat="50.609585009515285" lon="15.706535037606955">
        <ele>480.31999999999999</ele>
        <time>2013-09-05T09:49:29Z</time>
      </trkpt>
      <trkpt lat="50.608257986605167" lon="15.706133041530848">
        <ele>476.47000000000003</ele>
        <time>2013-09-05T09:49:40Z</time>
      </trkpt>
      <trkpt lat="50.608055982738733" lon="15.706032961606979">
        <ele>477.43000000000001</ele>
        <time>2013-09-05T09:49:43Z</time>
      </trkpt>
      <trkpt lat="50.608018012717366" lon="15.705986022949219">
        <ele>477.43000000000001</ele>
        <time>2013-09-05T09:49:44Z</time>
      </trkpt>
      <trkpt lat="50.60800502076745" lon="15.705897007137537">
        <ele>477.43000000000001</ele>
        <time>2013-09-05T09:49:45Z</time>
      </trkpt>
      <trkpt lat="50.608007032424212" lon="15.705781001597643">
        <ele>477.43000000000001</ele>
        <time>2013-09-05T09:49:46Z</time>
      </trkpt>
      <trkpt lat="50.608024969696999" lon="15.705645969137549">
        <ele>475.99000000000001</ele>
        <time>2013-09-05T09:49:47Z</time>
      </trkpt>
      <trkpt lat="50.60804701410234" lon="15.705487970262766">
        <ele>475.02999999999997</ele>
        <time>2013-09-05T09:49:48Z</time>
      </trkpt>
      <trkpt lat="50.608075009658933" lon="15.705313961952925">
        <ele>475.02999999999997</ele>
        <time>2013-09-05T09:49:49Z</time>
      </trkpt>
      <trkpt lat="50.608469964936376" lon="15.703649986535311">
        <ele>476.94999999999999</ele>
        <time>2013-09-05T09:49:57Z</time>
      </trkpt>
      <trkpt lat="50.6093580275774" lon="15.701405983418226">
        <ele>477.91000000000003</ele>
        <time>2013-09-05T09:50:08Z</time>
      </trkpt>
      <trkpt lat="50.610415991395712" lon="15.699160974472761">
        <ele>474.06999999999999</ele>
        <time>2013-09-05T09:50:17Z</time>
      </trkpt>
      <trkpt lat="50.611559031531215" lon="15.697141019627452">
        <ele>471.66000000000003</ele>
        <time>2013-09-05T09:50:25Z</time>
      </trkpt>
      <trkpt lat="50.611632037907839" lon="15.696843964979053">
        <ele>471.66000000000003</ele>
        <time>2013-09-05T09:50:26Z</time>
      </trkpt>
      <trkpt lat="50.611695991829038" lon="15.696525033563375">
        <ele>470.69999999999999</ele>
        <time>2013-09-05T09:50:27Z</time>
      </trkpt>
      <trkpt lat="50.611735973507166" lon="15.696203000843525">
        <ele>470.22000000000003</ele>
        <time>2013-09-05T09:50:28Z</time>
      </trkpt>
      <trkpt lat="50.611759023740888" lon="15.695874011144042">
        <ele>470.69999999999999</ele>
        <time>2013-09-05T09:50:29Z</time>
      </trkpt>
      <trkpt lat="50.611774027347565" lon="15.69554602727294">
        <ele>470.22000000000003</ele>
        <time>2013-09-05T09:50:30Z</time>
      </trkpt>
      <trkpt lat="50.61195801012218" lon="15.692290998995304">
        <ele>466.86000000000001</ele>
        <time>2013-09-05T09:50:40Z</time>
      </trkpt>
      <trkpt lat="50.61262303031981" lon="15.689202016219497">
        <ele>473.11000000000001</ele>
        <time>2013-09-05T09:50:50Z</time>
      </trkpt>
      <trkpt lat="50.612721014767885" lon="15.688924994319677">
        <ele>473.58999999999997</ele>
        <time>2013-09-05T09:50:51Z</time>
      </trkpt>
      <trkpt lat="50.613692980259657" lon="15.68673999980092">
        <ele>478.38999999999999</ele>
        <time>2013-09-05T09:50:59Z</time>
      </trkpt>
      <trkpt lat="50.614388007670641" lon="15.685132015496492">
        <ele>482.24000000000001</ele>
        <time>2013-09-05T09:51:05Z</time>
      </trkpt>
      <trkpt lat="50.614453973248601" lon="15.684873014688492">
        <ele>483.19999999999999</ele>
        <time>2013-09-05T09:51:06Z</time>
      </trkpt>
      <trkpt lat="50.614681961014867" lon="15.683126980438828">
        <ele>489.93000000000001</ele>
        <time>2013-09-05T09:51:14Z</time>
      </trkpt>
      <trkpt lat="50.614847000688314" lon="15.681766010820866">
        <ele>487.05000000000001</ele>
        <time>2013-09-05T09:51:19Z</time>
      </trkpt>
      <trkpt lat="50.615254025906324" lon="15.678809965029359">
        <ele>484.16000000000003</ele>
        <time>2013-09-05T09:51:28Z</time>
      </trkpt>
      <trkpt lat="50.615903036668897" lon="15.675488971173763">
        <ele>482.72000000000003</ele>
        <time>2013-09-05T09:51:39Z</time>
      </trkpt>
      <trkpt lat="50.616561016067863" lon="15.673229964450002">
        <ele>475.99000000000001</ele>
        <time>2013-09-05T09:51:48Z</time>
      </trkpt>
      <trkpt lat="50.617140037938952" lon="15.670198984444141">
        <ele>473.11000000000001</ele>
        <time>2013-09-05T09:52:00Z</time>
      </trkpt>
      <trkpt lat="50.617927014827728" lon="15.666329981759191">
        <ele>470.22000000000003</ele>
        <time>2013-09-05T09:52:15Z</time>
      </trkpt>
      <trkpt lat="50.618475023657084" lon="15.663535036146641">
        <ele>468.77999999999997</ele>
        <time>2013-09-05T09:52:26Z</time>
      </trkpt>
      <trkpt lat="50.618968969210982" lon="15.661271000280976">
        <ele>463.97000000000003</ele>
        <time>2013-09-05T09:52:35Z</time>
      </trkpt>
      <trkpt lat="50.619490994140506" lon="15.658689960837364">
        <ele>461.08999999999997</ele>
        <time>2013-09-05T09:52:47Z</time>
      </trkpt>
      <trkpt lat="50.620056018233299" lon="15.655981013551354">
        <ele>458.69</ele>
        <time>2013-09-05T09:53:01Z</time>
      </trkpt>
      <trkpt lat="50.620114021003246" lon="15.655870959162712">
        <ele>458.69</ele>
        <time>2013-09-05T09:53:02Z</time>
      </trkpt>
      <trkpt lat="50.620177974924445" lon="15.65577800385654">
        <ele>459.17000000000002</ele>
        <time>2013-09-05T09:53:03Z</time>
      </trkpt>
      <trkpt lat="50.620203036814928" lon="15.655677001923323">
        <ele>459.64999999999998</ele>
        <time>2013-09-05T09:53:04Z</time>
      </trkpt>
      <trkpt lat="50.620219968259335" lon="15.65556401386857">
        <ele>459.64999999999998</ele>
        <time>2013-09-05T09:53:05Z</time>
      </trkpt>
      <trkpt lat="50.620217034593225" lon="15.655447002500296">
        <ele>460.13</ele>
        <time>2013-09-05T09:53:06Z</time>
      </trkpt>
      <trkpt lat="50.620234971866012" lon="15.655313981696963">
        <ele>460.13</ele>
        <time>2013-09-05T09:53:07Z</time>
      </trkpt>
      <trkpt lat="50.620303032919765" lon="15.655039977282286">
        <ele>460.13</ele>
        <time>2013-09-05T09:53:09Z</time>
      </trkpt>
      <trkpt lat="50.62085104174912" lon="15.652919020503759">
        <ele>467.33999999999997</ele>
        <time>2013-09-05T09:53:22Z</time>
      </trkpt>
      <trkpt lat="50.621315985918045" lon="15.650947010144591">
        <ele>475.02999999999997</ele>
        <time>2013-09-05T09:53:29Z</time>
      </trkpt>
      <trkpt lat="50.622118972241879" lon="15.64750799909234">
        <ele>480.31999999999999</ele>
        <time>2013-09-05T09:53:41Z</time>
      </trkpt>
      <trkpt lat="50.622974010184407" lon="15.644666031002998">
        <ele>485.12</ele>
        <time>2013-09-05T09:53:52Z</time>
      </trkpt>
      <trkpt lat="50.624323999509215" lon="15.64136004075408">
        <ele>485.12</ele>
        <time>2013-09-05T09:54:06Z</time>
      </trkpt>
      <trkpt lat="50.625032018870115" lon="15.638838009908795">
        <ele>482.72000000000003</ele>
        <time>2013-09-05T09:54:16Z</time>
      </trkpt>
      <trkpt lat="50.625099996104836" lon="15.63644296489656">
        <ele>482.24000000000001</ele>
        <time>2013-09-05T09:54:25Z</time>
      </trkpt>
      <trkpt lat="50.625059008598328" lon="15.636173989623785">
        <ele>482.24000000000001</ele>
        <time>2013-09-05T09:54:26Z</time>
      </trkpt>
      <trkpt lat="50.624998994171619" lon="15.635909959673882">
        <ele>482.72000000000003</ele>
        <time>2013-09-05T09:54:27Z</time>
      </trkpt>
      <trkpt lat="50.624919030815363" lon="15.635653976351023">
        <ele>483.68000000000001</ele>
        <time>2013-09-05T09:54:28Z</time>
      </trkpt>
      <trkpt lat="50.624826997518539" lon="15.635409979149699">
        <ele>482.72000000000003</ele>
        <time>2013-09-05T09:54:29Z</time>
      </trkpt>
      <trkpt lat="50.624731024727225" lon="15.635185008868575">
        <ele>482.24000000000001</ele>
        <time>2013-09-05T09:54:30Z</time>
      </trkpt>
      <trkpt lat="50.624231966212392" lon="15.633997041732073">
        <ele>479.83999999999997</ele>
        <time>2013-09-05T09:54:36Z</time>
      </trkpt>
      <trkpt lat="50.623651016503572" lon="15.631823027506471">
        <ele>476.94999999999999</ele>
        <time>2013-09-05T09:54:47Z</time>
      </trkpt>
      <trkpt lat="50.622906032949686" lon="15.628829011693597">
        <ele>473.58999999999997</ele>
        <time>2013-09-05T09:55:02Z</time>
      </trkpt>
      <trkpt lat="50.622251993045211" lon="15.626174965873361">
        <ele>471.18000000000001</ele>
        <time>2013-09-05T09:55:16Z</time>
      </trkpt>
      <trkpt lat="50.621504997834563" lon="15.623182961717248">
        <ele>471.66000000000003</ele>
        <time>2013-09-05T09:55:32Z</time>
      </trkpt>
      <trkpt lat="50.620878031477332" lon="15.621159989386797">
        <ele>467.33999999999997</ele>
        <time>2013-09-05T09:55:44Z</time>
      </trkpt>
      <trkpt lat="50.62042498961091" lon="15.619903039187193">
        <ele>465.89999999999998</ele>
        <time>2013-09-05T09:55:53Z</time>
      </trkpt>
      <trkpt lat="50.620393976569176" lon="15.619785021990538">
        <ele>465.42000000000002</ele>
        <time>2013-09-05T09:55:54Z</time>
      </trkpt>
      <trkpt lat="50.620305966585875" lon="15.619443962350488">
        <ele>463.49000000000001</ele>
        <time>2013-09-05T09:55:57Z</time>
      </trkpt>
      <trkpt lat="50.62025299295783" lon="15.619354024529457">
        <ele>463.49000000000001</ele>
        <time>2013-09-05T09:55:58Z</time>
      </trkpt>
      <trkpt lat="50.620076972991228" lon="15.619052024558187">
        <ele>463.00999999999999</ele>
        <time>2013-09-05T09:56:01Z</time>
      </trkpt>
      <trkpt lat="50.619652010500431" lon="15.617995988577604">
        <ele>462.05000000000001</ele>
        <time>2013-09-05T09:56:11Z</time>
      </trkpt>
      <trkpt lat="50.619626026600599" lon="15.61789900995791">
        <ele>461.08999999999997</ele>
        <time>2013-09-05T09:56:12Z</time>
      </trkpt>
      <trkpt lat="50.619464004412293" lon="15.617197025567293">
        <ele>459.64999999999998</ele>
        <time>2013-09-05T09:56:19Z</time>
      </trkpt>
      <trkpt lat="50.619041975587606" lon="15.616005035117269">
        <ele>458.69</ele>
        <time>2013-09-05T09:56:27Z</time>
      </trkpt>
      <trkpt lat="50.618834020569921" lon="15.615324005484581">
        <ele>458.20999999999998</ele>
        <time>2013-09-05T09:56:31Z</time>
      </trkpt>
      <trkpt lat="50.618822034448385" lon="15.615155026316643">
        <ele>458.20999999999998</ele>
        <time>2013-09-05T09:56:32Z</time>
      </trkpt>
      <trkpt lat="50.618838965892792" lon="15.614999961107969">
        <ele>457.72000000000003</ele>
        <time>2013-09-05T09:56:33Z</time>
      </trkpt>
      <trkpt lat="50.618878025561571" lon="15.614866018295288">
        <ele>457.72000000000003</ele>
        <time>2013-09-05T09:56:34Z</time>
      </trkpt>
      <trkpt lat="50.618923036381602" lon="15.614739032462239">
        <ele>458.20999999999998</ele>
        <time>2013-09-05T09:56:35Z</time>
      </trkpt>
      <trkpt lat="50.61898497864604" lon="15.614633001387119">
        <ele>458.20999999999998</ele>
        <time>2013-09-05T09:56:36Z</time>
      </trkpt>
      <trkpt lat="50.619075000286102" lon="15.614550020545721">
        <ele>459.64999999999998</ele>
        <time>2013-09-05T09:56:37Z</time>
      </trkpt>
      <trkpt lat="50.619155969470739" lon="15.614476008340716">
        <ele>460.13</ele>
        <time>2013-09-05T09:56:38Z</time>
      </trkpt>
      <trkpt lat="50.619357973337173" lon="15.614171996712685">
        <ele>461.56999999999999</ele>
        <time>2013-09-05T09:56:41Z</time>
      </trkpt>
      <trkpt lat="50.619372976943851" lon="15.614019026979804">
        <ele>462.52999999999997</ele>
        <time>2013-09-05T09:56:42Z</time>
      </trkpt>
      <trkpt lat="50.61937197111547" lon="15.613861028105021">
        <ele>463.00999999999999</ele>
        <time>2013-09-05T09:56:43Z</time>
      </trkpt>
      <trkpt lat="50.619366019964218" lon="15.613703029230237">
        <ele>462.52999999999997</ele>
        <time>2013-09-05T09:56:44Z</time>
      </trkpt>
      <trkpt lat="50.619354033842683" lon="15.613546036183834">
        <ele>463.00999999999999</ele>
        <time>2013-09-05T09:56:45Z</time>
      </trkpt>
      <trkpt lat="50.619056979194283" lon="15.611457014456391">
        <ele>465.42000000000002</ele>
        <time>2013-09-05T09:56:57Z</time>
      </trkpt>
      <trkpt lat="50.618825973942876" lon="15.60947704128921">
        <ele>468.30000000000001</ele>
        <time>2013-09-05T09:57:09Z</time>
      </trkpt>
      <trkpt lat="50.618780041113496" lon="15.608918974176049">
        <ele>467.81999999999999</ele>
        <time>2013-09-05T09:57:14Z</time>
      </trkpt>
      <trkpt lat="50.618791021406651" lon="15.608802968636155">
        <ele>468.77999999999997</ele>
        <time>2013-09-05T09:57:15Z</time>
      </trkpt>
      <trkpt lat="50.618820022791624" lon="15.608717976137996">
        <ele>469.74000000000001</ele>
        <time>2013-09-05T09:57:16Z</time>
      </trkpt>
      <trkpt lat="50.618861010298133" lon="15.608657039701939">
        <ele>469.25999999999999</ele>
        <time>2013-09-05T09:57:17Z</time>
      </trkpt>
      <trkpt lat="50.618920018896461" lon="15.608637006953359">
        <ele>469.25999999999999</ele>
        <time>2013-09-05T09:57:18Z</time>
      </trkpt>
      <trkpt lat="50.618977015838027" lon="15.608653016388416">
        <ele>468.30000000000001</ele>
        <time>2013-09-05T09:57:19Z</time>
      </trkpt>
      <trkpt lat="50.619036024436355" lon="15.608694003894925">
        <ele>468.30000000000001</ele>
        <time>2013-09-05T09:57:20Z</time>
      </trkpt>
      <trkpt lat="50.619092015549541" lon="15.608749995008111">
        <ele>468.30000000000001</ele>
        <time>2013-09-05T09:57:21Z</time>
      </trkpt>
      <trkpt lat="50.619210032746196" lon="15.608831970021129">
        <ele>466.38</ele>
        <time>2013-09-05T09:57:23Z</time>
      </trkpt>
      <trkpt lat="50.619264012202621" lon="15.608846973627806">
        <ele>467.33999999999997</ele>
        <time>2013-09-05T09:57:24Z</time>
      </trkpt>
      <trkpt lat="50.619323020800948" lon="15.608826018869877">
        <ele>467.33999999999997</ele>
        <time>2013-09-05T09:57:25Z</time>
      </trkpt>
      <trkpt lat="50.619384041056037" lon="15.60876902192831">
        <ele>466.86000000000001</ele>
        <time>2013-09-05T09:57:26Z</time>
      </trkpt>
      <trkpt lat="50.619440032169223" lon="15.608671037480235">
        <ele>466.86000000000001</ele>
        <time>2013-09-05T09:57:27Z</time>
      </trkpt>
      <trkpt lat="50.619489988312125" lon="15.60855302028358">
        <ele>466.86000000000001</ele>
        <time>2013-09-05T09:57:28Z</time>
      </trkpt>
      <trkpt lat="50.61954396776855" lon="15.608418993651867">
        <ele>466.86000000000001</ele>
        <time>2013-09-05T09:57:29Z</time>
      </trkpt>
      <trkpt lat="50.620114021003246" lon="15.606736997142434">
        <ele>468.77999999999997</ele>
        <time>2013-09-05T09:57:38Z</time>
      </trkpt>
      <trkpt lat="50.620419960469007" lon="15.605651959776878">
        <ele>470.22000000000003</ele>
        <time>2013-09-05T09:57:43Z</time>
      </trkpt>
      <trkpt lat="50.620448961853981" lon="15.605422966182232">
        <ele>469.74000000000001</ele>
        <time>2013-09-05T09:57:44Z</time>
      </trkpt>
      <trkpt lat="50.620486009865999" lon="15.604089992120862">
        <ele>472.13999999999999</ele>
        <time>2013-09-05T09:57:51Z</time>
      </trkpt>
      <trkpt lat="50.620522974058986" lon="15.601668963208795">
        <ele>478.38999999999999</ele>
        <time>2013-09-05T09:58:06Z</time>
      </trkpt>
      <trkpt lat="50.620663035660982" lon="15.59925002977252">
        <ele>480.31999999999999</ele>
        <time>2013-09-05T09:58:19Z</time>
      </trkpt>
      <trkpt lat="50.620879959315062" lon="15.597390001639724">
        <ele>480.80000000000001</ele>
        <time>2013-09-05T09:58:29Z</time>
      </trkpt>
      <trkpt lat="50.620885994285345" lon="15.597018012776971">
        <ele>479.83999999999997</ele>
        <time>2013-09-05T09:58:32Z</time>
      </trkpt>
      <trkpt lat="50.620910972356796" lon="15.596733028069139">
        <ele>479.35000000000002</ele>
        <time>2013-09-05T09:58:37Z</time>
      </trkpt>
      <trkpt lat="50.620946008712053" lon="15.596655998378992">
        <ele>479.83999999999997</ele>
        <time>2013-09-05T09:58:38Z</time>
      </trkpt>
      <trkpt lat="50.620998982340097" lon="15.596577040851116">
        <ele>480.31999999999999</ele>
        <time>2013-09-05T09:58:39Z</time>
      </trkpt>
      <trkpt lat="50.621066959574819" lon="15.596518032252789">
        <ele>480.31999999999999</ele>
        <time>2013-09-05T09:58:40Z</time>
      </trkpt>
      <trkpt lat="50.621148012578487" lon="15.596474027261138">
        <ele>480.31999999999999</ele>
        <time>2013-09-05T09:58:41Z</time>
      </trkpt>
      <trkpt lat="50.62123803421855" lon="15.59643697924912">
        <ele>480.31999999999999</ele>
        <time>2013-09-05T09:58:42Z</time>
      </trkpt>
      <trkpt lat="50.621344987303019" lon="15.59641401283443">
        <ele>479.35000000000002</ele>
        <time>2013-09-05T09:58:43Z</time>
      </trkpt>
      <trkpt lat="50.622363975271583" lon="15.596316028386354">
        <ele>487.05000000000001</ele>
        <time>2013-09-05T09:58:50Z</time>
      </trkpt>
      <trkpt lat="50.623997021466494" lon="15.596705032512546">
        <ele>492.32999999999998</ele>
        <time>2013-09-05T09:58:58Z</time>
      </trkpt>
      <trkpt lat="50.625266041606665" lon="15.597175005823374">
        <ele>497.62</ele>
        <time>2013-09-05T09:59:04Z</time>
      </trkpt>
      <trkpt lat="50.62708499841392" lon="15.59759602881968">
        <ele>502.43000000000001</ele>
        <time>2013-09-05T09:59:12Z</time>
      </trkpt>
      <trkpt lat="50.628413027152419" lon="15.598221989348531">
        <ele>505.79000000000002</ele>
        <time>2013-09-05T09:59:18Z</time>
      </trkpt>
      <trkpt lat="50.631047040224075" lon="15.600011022761464">
        <ele>517.80999999999995</ele>
        <time>2013-09-05T09:59:31Z</time>
      </trkpt>
      <trkpt lat="50.632873037829995" lon="15.601993007585406">
        <ele>524.05999999999995</ele>
        <time>2013-09-05T09:59:41Z</time>
      </trkpt>
      <trkpt lat="50.634570959955454" lon="15.60365698300302">
        <ele>520.21000000000004</ele>
        <time>2013-09-05T09:59:50Z</time>
      </trkpt>
      <trkpt lat="50.636095963418484" lon="15.604405989870429">
        <ele>516.85000000000002</ele>
        <time>2013-09-05T09:59:57Z</time>
      </trkpt>
      <trkpt lat="50.637463973835111" lon="15.605577025562525">
        <ele>508.67000000000002</ele>
        <time>2013-09-05T10:00:04Z</time>
      </trkpt>
      <trkpt lat="50.638752020895481" lon="15.607635034248233">
        <ele>501.94999999999999</ele>
        <time>2013-09-05T10:00:12Z</time>
      </trkpt>
      <trkpt lat="50.639456016942859" lon="15.608943030238152">
        <ele>500.98000000000002</ele>
        <time>2013-09-05T10:00:17Z</time>
      </trkpt>
      <trkpt lat="50.639620972797275" lon="15.609160037711263">
        <ele>500.98000000000002</ele>
        <time>2013-09-05T10:00:18Z</time>
      </trkpt>
      <trkpt lat="50.639791041612625" lon="15.609359024092555">
        <ele>500.98000000000002</ele>
        <time>2013-09-05T10:00:19Z</time>
      </trkpt>
      <trkpt lat="50.639988016337156" lon="15.609517022967339">
        <ele>500.98000000000002</ele>
        <time>2013-09-05T10:00:20Z</time>
      </trkpt>
      <trkpt lat="50.640183985233307" lon="15.60964803211391">
        <ele>500.5</ele>
        <time>2013-09-05T10:00:21Z</time>
      </trkpt>
      <trkpt lat="50.640381965786219" lon="15.609753979369998">
        <ele>500.5</ele>
        <time>2013-09-05T10:00:22Z</time>
      </trkpt>
      <trkpt lat="50.640583969652653" lon="15.609832014888525">
        <ele>500.5</ele>
        <time>2013-09-05T10:00:23Z</time>
      </trkpt>
      <trkpt lat="50.640808017924428" lon="15.609861016273499">
        <ele>500.5</ele>
        <time>2013-09-05T10:00:24Z</time>
      </trkpt>
      <trkpt lat="50.64105000346899" lon="15.609852969646454">
        <ele>500.5</ele>
        <time>2013-09-05T10:00:25Z</time>
      </trkpt>
      <trkpt lat="50.641272962093353" lon="15.609840983524919">
        <ele>500.98000000000002</ele>
        <time>2013-09-05T10:00:26Z</time>
      </trkpt>
      <trkpt lat="50.641481000930071" lon="15.609807036817074">
        <ele>501.45999999999998</ele>
        <time>2013-09-05T10:00:27Z</time>
      </trkpt>
      <trkpt lat="50.641655009239912" lon="15.60975800268352">
        <ele>501.94999999999999</ele>
        <time>2013-09-05T10:00:28Z</time>
      </trkpt>
      <trkpt lat="50.641824994236231" lon="15.609705029055476">
        <ele>502.43000000000001</ele>
        <time>2013-09-05T10:00:29Z</time>
      </trkpt>
      <trkpt lat="50.642908019945025" lon="15.609128018841147">
        <ele>505.79000000000002</ele>
        <time>2013-09-05T10:00:37Z</time>
      </trkpt>
      <trkpt lat="50.643150005489588" lon="15.609001033008099">
        <ele>504.82999999999998</ele>
        <time>2013-09-05T10:00:39Z</time>
      </trkpt>
      <trkpt lat="50.643277997151017" lon="15.608921991661191">
        <ele>504.35000000000002</ele>
        <time>2013-09-05T10:00:40Z</time>
      </trkpt>
      <trkpt lat="50.643410012125969" lon="15.608864994719625">
        <ele>505.31</ele>
        <time>2013-09-05T10:00:41Z</time>
      </trkpt>
      <trkpt lat="50.644840970635414" lon="15.608379011973739">
        <ele>509.63999999999999</ele>
        <time>2013-09-05T10:00:51Z</time>
      </trkpt>
      <trkpt lat="50.646623969078064" lon="15.607483992353082">
        <ele>512.51999999999998</ele>
        <time>2013-09-05T10:01:06Z</time>
      </trkpt>
      <trkpt lat="50.647618984803557" lon="15.606788964942098">
        <ele>513</ele>
        <time>2013-09-05T10:01:14Z</time>
      </trkpt>
      <trkpt lat="50.648769987747073" lon="15.605477029457688">
        <ele>513.96000000000004</ele>
        <time>2013-09-05T10:01:24Z</time>
      </trkpt>
      <trkpt lat="50.649017002433538" lon="15.605276031419635">
        <ele>514.44000000000005</ele>
        <time>2013-09-05T10:01:26Z</time>
      </trkpt>
      <trkpt lat="50.64914801158011" lon="15.605205036699772">
        <ele>514.44000000000005</ele>
        <time>2013-09-05T10:01:27Z</time>
      </trkpt>
      <trkpt lat="50.649285977706313" lon="15.605148961767554">
        <ele>514.44000000000005</ele>
        <time>2013-09-05T10:01:28Z</time>
      </trkpt>
      <trkpt lat="50.649430984631181" lon="15.605109985917807">
        <ele>514.44000000000005</ele>
        <time>2013-09-05T10:01:29Z</time>
      </trkpt>
      <trkpt lat="50.649584038183093" lon="15.605085007846355">
        <ele>514.91999999999996</ele>
        <time>2013-09-05T10:01:30Z</time>
      </trkpt>
      <trkpt lat="50.651022037491202" lon="15.605218028649688">
        <ele>514.91999999999996</ele>
        <time>2013-09-05T10:01:40Z</time>
      </trkpt>
      <trkpt lat="50.652171028777957" lon="15.604989035055041">
        <ele>516.85000000000002</ele>
        <time>2013-09-05T10:01:48Z</time>
      </trkpt>
      <trkpt lat="50.653656972572207" lon="15.603948002681136">
        <ele>519.25</ele>
        <time>2013-09-05T10:01:59Z</time>
      </trkpt>
      <trkpt lat="50.65563602373004" lon="15.602501034736633">
        <ele>523.09000000000003</ele>
        <time>2013-09-05T10:02:13Z</time>
      </trkpt>
      <trkpt lat="50.657135965302587" lon="15.60116303153336">
        <ele>522.61000000000001</ele>
        <time>2013-09-05T10:02:25Z</time>
      </trkpt>
      <trkpt lat="50.65808798186481" lon="15.600200034677982">
        <ele>523.09000000000003</ele>
        <time>2013-09-05T10:02:34Z</time>
      </trkpt>
      <trkpt lat="50.658458964899182" lon="15.599937010556459">
        <ele>522.61000000000001</ele>
        <time>2013-09-05T10:02:40Z</time>
      </trkpt>
      <trkpt lat="50.658486038446426" lon="15.599893005564809">
        <ele>524.05999999999995</ele>
        <time>2013-09-05T10:02:48Z</time>
      </trkpt>
      <trkpt lat="50.658454019576311" lon="15.599876996129751">
        <ele>523.09000000000003</ele>
        <time>2013-09-05T10:03:13Z</time>
      </trkpt>
      <trkpt lat="50.658423006534576" lon="15.599855035543442">
        <ele>523.58000000000004</ele>
        <time>2013-09-05T10:03:36Z</time>
      </trkpt>
      <trkpt lat="50.658443039283156" lon="15.599826034158468">
        <ele>523.58000000000004</ele>
        <time>2013-09-05T10:03:45Z</time>
      </trkpt>
      <trkpt lat="50.658520990982652" lon="15.599695025011897">
        <ele>524.05999999999995</ele>
        <time>2013-09-05T10:03:48Z</time>
      </trkpt>
      <trkpt lat="50.658573964610696" lon="15.599642973393202">
        <ele>524.05999999999995</ele>
        <time>2013-09-05T10:03:49Z</time>
      </trkpt>
      <trkpt lat="50.658708997070789" lon="15.599538031965494">
        <ele>524.53999999999996</ele>
        <time>2013-09-05T10:03:51Z</time>
      </trkpt>
      <trkpt lat="50.658803964033723" lon="15.599491009488702">
        <ele>525.01999999999998</ele>
        <time>2013-09-05T10:03:52Z</time>
      </trkpt>
      <trkpt lat="50.659740976989269" lon="15.599021958187222">
        <ele>526.94000000000005</ele>
        <time>2013-09-05T10:04:00Z</time>
      </trkpt>
      <trkpt lat="50.661548031494021" lon="15.597920995205641">
        <ele>531.75</ele>
        <time>2013-09-05T10:04:13Z</time>
      </trkpt>
      <trkpt lat="50.661773001775146" lon="15.597589993849397">
        <ele>532.71000000000004</ele>
        <time>2013-09-05T10:04:15Z</time>
      </trkpt>
      <trkpt lat="50.661924965679646" lon="15.597395030781627">
        <ele>533.19000000000005</ele>
        <time>2013-09-05T10:04:16Z</time>
      </trkpt>
      <trkpt lat="50.662156976759434" lon="15.596932014450431">
        <ele>534.14999999999998</ele>
        <time>2013-09-05T10:04:18Z</time>
      </trkpt>
      <trkpt lat="50.663082003593445" lon="15.595065029338002">
        <ele>539.44000000000005</ele>
        <time>2013-09-05T10:04:26Z</time>
      </trkpt>
      <trkpt lat="50.664097974076867" lon="15.593760972842574">
        <ele>544.72000000000003</ele>
        <time>2013-09-05T10:04:33Z</time>
      </trkpt>
      <trkpt lat="50.664263013750315" lon="15.593672962859273">
        <ele>545.20000000000005</ele>
        <time>2013-09-05T10:04:34Z</time>
      </trkpt>
      <trkpt lat="50.66442403011024" lon="15.593603979796171">
        <ele>546.16999999999996</ele>
        <time>2013-09-05T10:04:35Z</time>
      </trkpt>
      <trkpt lat="50.664622010663152" lon="15.593585958704352">
        <ele>546.64999999999998</ele>
        <time>2013-09-05T10:04:36Z</time>
      </trkpt>
      <trkpt lat="50.664814040064812" lon="15.593580007553101">
        <ele>547.61000000000001</ele>
        <time>2013-09-05T10:04:37Z</time>
      </trkpt>
      <trkpt lat="50.665018977597356" lon="15.593606997281313">
        <ele>548.57000000000005</ele>
        <time>2013-09-05T10:04:38Z</time>
      </trkpt>
      <trkpt lat="50.667589958757162" lon="15.593761978670955">
        <ele>556.74000000000001</ele>
        <time>2013-09-05T10:04:49Z</time>
      </trkpt>
      <trkpt lat="50.669318977743387" lon="15.592250972986221">
        <ele>560.11000000000001</ele>
        <time>2013-09-05T10:04:58Z</time>
      </trkpt>
      <trkpt lat="50.669542020186782" lon="15.592158017680049">
        <ele>560.59000000000003</ele>
        <time>2013-09-05T10:04:59Z</time>
      </trkpt>
      <trkpt lat="50.669782999902964" lon="15.592121975496411">
        <ele>561.07000000000005</ele>
        <time>2013-09-05T10:05:00Z</time>
      </trkpt>
      <trkpt lat="50.670061027631164" lon="15.592146031558514">
        <ele>561.54999999999995</ele>
        <time>2013-09-05T10:05:01Z</time>
      </trkpt>
      <trkpt lat="50.670263031497598" lon="15.592188024893403">
        <ele>561.54999999999995</ele>
        <time>2013-09-05T10:05:02Z</time>
      </trkpt>
      <trkpt lat="50.67041901871562" lon="15.592295983806252">
        <ele>562.02999999999997</ele>
        <time>2013-09-05T10:05:03Z</time>
      </trkpt>
      <trkpt lat="50.670648012310266" lon="15.592487007379532">
        <ele>562.50999999999999</ele>
        <time>2013-09-05T10:05:04Z</time>
      </trkpt>
      <trkpt lat="50.670812968164682" lon="15.592693034559488">
        <ele>563.47000000000003</ele>
        <time>2013-09-05T10:05:05Z</time>
      </trkpt>
      <trkpt lat="50.6710210070014" lon="15.592906018719077">
        <ele>563.95000000000005</ele>
        <time>2013-09-05T10:05:06Z</time>
      </trkpt>
      <trkpt lat="50.672340989112854" lon="15.594029026106">
        <ele>569.24000000000001</ele>
        <time>2013-09-05T10:05:13Z</time>
      </trkpt>
      <trkpt lat="50.67254601046443" lon="15.59407495893538">
        <ele>569.72000000000003</ele>
        <time>2013-09-05T10:05:14Z</time>
      </trkpt>
      <trkpt lat="50.672751031816006" lon="15.594076970592141">
        <ele>570.20000000000005</ele>
        <time>2013-09-05T10:05:15Z</time>
      </trkpt>
      <trkpt lat="50.673005003482103" lon="15.594027014449239">
        <ele>569.72000000000003</ele>
        <time>2013-09-05T10:05:16Z</time>
      </trkpt>
      <trkpt lat="50.673216981813312" lon="15.593945039436221">
        <ele>570.20000000000005</ele>
        <time>2013-09-05T10:05:17Z</time>
      </trkpt>
      <trkpt lat="50.673432983458042" lon="15.593830039724708">
        <ele>571.15999999999997</ele>
        <time>2013-09-05T10:05:18Z</time>
      </trkpt>
      <trkpt lat="50.673625012859702" lon="15.59368796646595">
        <ele>572.12</ele>
        <time>2013-09-05T10:05:19Z</time>
      </trkpt>
      <trkpt lat="50.673825005069375" lon="15.593522004783154">
        <ele>573.08000000000004</ele>
        <time>2013-09-05T10:05:20Z</time>
      </trkpt>
      <trkpt lat="50.67443797364831" lon="15.593098970130086">
        <ele>575.00999999999999</ele>
        <time>2013-09-05T10:05:23Z</time>
      </trkpt>
      <trkpt lat="50.674636960029602" lon="15.593007020652294">
        <ele>575.97000000000003</ele>
        <time>2013-09-05T10:05:24Z</time>
      </trkpt>
      <trkpt lat="50.67613204009831" lon="15.592850027605891">
        <ele>580.76999999999998</ele>
        <time>2013-09-05T10:05:31Z</time>
      </trkpt>
      <trkpt lat="50.676364973187447" lon="15.592924961820245">
        <ele>582.22000000000003</ele>
        <time>2013-09-05T10:05:32Z</time>
      </trkpt>
      <trkpt lat="50.6765849981457" lon="15.593044990673661">
        <ele>583.17999999999995</ele>
        <time>2013-09-05T10:05:33Z</time>
      </trkpt>
      <trkpt lat="50.676828995347023" lon="15.593217993155122">
        <ele>584.13999999999999</ele>
        <time>2013-09-05T10:05:34Z</time>
      </trkpt>
      <trkpt lat="50.676982970908284" lon="15.593473976477981">
        <ele>586.05999999999995</ele>
        <time>2013-09-05T10:05:35Z</time>
      </trkpt>
      <trkpt lat="50.677136024460196" lon="15.593743035569787">
        <ele>586.53999999999996</ele>
        <time>2013-09-05T10:05:36Z</time>
      </trkpt>
      <trkpt lat="50.677220011129975" lon="15.594077976420522">
        <ele>586.05999999999995</ele>
        <time>2013-09-05T10:05:37Z</time>
      </trkpt>
      <trkpt lat="50.677358983084559" lon="15.594372013583779">
        <ele>586.53999999999996</ele>
        <time>2013-09-05T10:05:38Z</time>
      </trkpt>
      <trkpt lat="50.678649041801691" lon="15.597115997225046">
        <ele>591.35000000000002</ele>
        <time>2013-09-05T10:05:48Z</time>
      </trkpt>
      <trkpt lat="50.678803017362952" lon="15.597264021635056">
        <ele>591.83000000000004</ele>
        <time>2013-09-05T10:05:49Z</time>
      </trkpt>
      <trkpt lat="50.678965961560607" lon="15.59736100025475">
        <ele>592.30999999999995</ele>
        <time>2013-09-05T10:05:50Z</time>
      </trkpt>
      <trkpt lat="50.679155979305506" lon="15.59738396666944">
        <ele>592.78999999999996</ele>
        <time>2013-09-05T10:05:51Z</time>
      </trkpt>
      <trkpt lat="50.679345997050405" lon="15.59731800109148">
        <ele>593.26999999999998</ele>
        <time>2013-09-05T10:05:52Z</time>
      </trkpt>
      <trkpt lat="50.679431995376945" lon="15.597153967246413">
        <ele>593.75</ele>
        <time>2013-09-05T10:05:53Z</time>
      </trkpt>
      <trkpt lat="50.6795500125736" lon="15.596947018057108">
        <ele>594.23000000000002</ele>
        <time>2013-09-05T10:05:54Z</time>
      </trkpt>
      <trkpt lat="50.679600974544883" lon="15.596689023077488">
        <ele>594.71000000000004</ele>
        <time>2013-09-05T10:05:55Z</time>
      </trkpt>
      <trkpt lat="50.679656965658069" lon="15.596379982307553">
        <ele>595.19000000000005</ele>
        <time>2013-09-05T10:05:56Z</time>
      </trkpt>
      <trkpt lat="50.67970298230648" lon="15.596069013699889">
        <ele>595.19000000000005</ele>
        <time>2013-09-05T10:05:57Z</time>
      </trkpt>
      <trkpt lat="50.679747993126512" lon="15.595745975151658">
        <ele>595.66999999999996</ele>
        <time>2013-09-05T10:05:58Z</time>
      </trkpt>
      <trkpt lat="50.680341012775898" lon="15.591740012168884">
        <ele>592.78999999999996</ele>
        <time>2013-09-05T10:06:10Z</time>
      </trkpt>
      <trkpt lat="50.681017013266683" lon="15.589255029335618">
        <ele>591.35000000000002</ele>
        <time>2013-09-05T10:06:18Z</time>
      </trkpt>
      <trkpt lat="50.681126983836293" lon="15.588975995779037">
        <ele>590.87</ele>
        <time>2013-09-05T10:06:19Z</time>
      </trkpt>
      <trkpt lat="50.681208958849311" lon="15.58867902494967">
        <ele>590.38999999999999</ele>
        <time>2013-09-05T10:06:20Z</time>
      </trkpt>
      <trkpt lat="50.682512009516358" lon="15.586328990757465">
        <ele>592.30999999999995</ele>
        <time>2013-09-05T10:06:29Z</time>
      </trkpt>
      <trkpt lat="50.683184992522001" lon="15.583662958815694">
        <ele>592.78999999999996</ele>
        <time>2013-09-05T10:06:37Z</time>
      </trkpt>
      <trkpt lat="50.683172000572085" lon="15.581258023157716">
        <ele>593.75</ele>
        <time>2013-09-05T10:06:44Z</time>
      </trkpt>
      <trkpt lat="50.683158002793789" lon="15.57927000336349">
        <ele>593.75</ele>
        <time>2013-09-05T10:06:50Z</time>
      </trkpt>
      <trkpt lat="50.683222040534019" lon="15.57899197563529">
        <ele>594.23000000000002</ele>
        <time>2013-09-05T10:06:51Z</time>
      </trkpt>
      <trkpt lat="50.683316001668572" lon="15.578741021454334">
        <ele>594.71000000000004</ele>
        <time>2013-09-05T10:06:52Z</time>
      </trkpt>
      <trkpt lat="50.683446004986763" lon="15.578529965132475">
        <ele>595.66999999999996</ele>
        <time>2013-09-05T10:06:53Z</time>
      </trkpt>
      <trkpt lat="50.683583971112967" lon="15.578341037034988">
        <ele>596.14999999999998</ele>
        <time>2013-09-05T10:06:54Z</time>
      </trkpt>
      <trkpt lat="50.683750016614795" lon="15.578189995139837">
        <ele>596.63999999999999</ele>
        <time>2013-09-05T10:06:55Z</time>
      </trkpt>
      <trkpt lat="50.683917989954352" lon="15.578060997650027">
        <ele>597.12</ele>
        <time>2013-09-05T10:06:56Z</time>
      </trkpt>
      <trkpt lat="50.684152012690902" lon="15.577978016808629">
        <ele>598.08000000000004</ele>
        <time>2013-09-05T10:06:57Z</time>
      </trkpt>
      <trkpt lat="50.68434102460742" lon="15.577902998775244">
        <ele>598.08000000000004</ele>
        <time>2013-09-05T10:06:58Z</time>
      </trkpt>
      <trkpt lat="50.684561971575022" lon="15.577833009883761">
        <ele>598.55999999999995</ele>
        <time>2013-09-05T10:06:59Z</time>
      </trkpt>
      <trkpt lat="50.684801023453474" lon="15.577794034034014">
        <ele>599.03999999999996</ele>
        <time>2013-09-05T10:07:00Z</time>
      </trkpt>
      <trkpt lat="50.686474973335862" lon="15.577760003507137">
        <ele>602.88</ele>
        <time>2013-09-05T10:07:07Z</time>
      </trkpt>
      <trkpt lat="50.686701033264399" lon="15.577818006277084">
        <ele>603.36000000000001</ele>
        <time>2013-09-05T10:07:08Z</time>
      </trkpt>
      <trkpt lat="50.686918962746859" lon="15.57789696380496">
        <ele>603.85000000000002</ele>
        <time>2013-09-05T10:07:09Z</time>
      </trkpt>
      <trkpt lat="50.687748016789556" lon="15.578457964584231">
        <ele>603.85000000000002</ele>
        <time>2013-09-05T10:07:13Z</time>
      </trkpt>
      <trkpt lat="50.689181992784142" lon="15.580037031322718">
        <ele>607.69000000000005</ele>
        <time>2013-09-05T10:07:21Z</time>
      </trkpt>
      <trkpt lat="50.690449001267552" lon="15.580857032909989">
        <ele>612.5</ele>
        <time>2013-09-05T10:07:27Z</time>
      </trkpt>
      <trkpt lat="50.691146962344646" lon="15.580948982387781">
        <ele>614.89999999999998</ele>
        <time>2013-09-05T10:07:30Z</time>
      </trkpt>
      <trkpt lat="50.691370004788041" lon="15.580897014588118">
        <ele>615.86000000000001</ele>
        <time>2013-09-05T10:07:31Z</time>
      </trkpt>
      <trkpt lat="50.691601010039449" lon="15.580797018483281">
        <ele>616.34000000000003</ele>
        <time>2013-09-05T10:07:32Z</time>
      </trkpt>
      <trkpt lat="50.691813994199038" lon="15.580658968538046">
        <ele>617.77999999999997</ele>
        <time>2013-09-05T10:07:33Z</time>
      </trkpt>
      <trkpt lat="50.692019015550613" lon="15.580483032390475">
        <ele>618.75</ele>
        <time>2013-09-05T10:07:34Z</time>
      </trkpt>
      <trkpt lat="50.692219007760286" lon="15.580297959968448">
        <ele>619.71000000000004</ele>
        <time>2013-09-05T10:07:35Z</time>
      </trkpt>
      <trkpt lat="50.693028029054403" lon="15.579647021368146">
        <ele>622.11000000000001</ele>
        <time>2013-09-05T10:07:39Z</time>
      </trkpt>
      <trkpt lat="50.693222992122173" lon="15.579573009163141">
        <ele>622.11000000000001</ele>
        <time>2013-09-05T10:07:40Z</time>
      </trkpt>
      <trkpt lat="50.693434970453382" lon="15.579572003334761">
        <ele>622.59000000000003</ele>
        <time>2013-09-05T10:07:41Z</time>
      </trkpt>
      <trkpt lat="50.693634040653706" lon="15.579618019983172">
        <ele>622.59000000000003</ele>
        <time>2013-09-05T10:07:42Z</time>
      </trkpt>
      <trkpt lat="50.693840989843011" lon="15.579685997217894">
        <ele>623.07000000000005</ele>
        <time>2013-09-05T10:07:43Z</time>
      </trkpt>
      <trkpt lat="50.694049028679729" lon="15.579774007201195">
        <ele>624.02999999999997</ele>
        <time>2013-09-05T10:07:44Z</time>
      </trkpt>
      <trkpt lat="50.694240974262357" lon="15.579929994419217">
        <ele>624.50999999999999</ele>
        <time>2013-09-05T10:07:45Z</time>
      </trkpt>
      <trkpt lat="50.694433003664017" lon="15.580123029649258">
        <ele>625.47000000000003</ele>
        <time>2013-09-05T10:07:46Z</time>
      </trkpt>
      <trkpt lat="50.694623021408916" lon="15.580334002152085">
        <ele>625.96000000000004</ele>
        <time>2013-09-05T10:07:47Z</time>
      </trkpt>
      <trkpt lat="50.696077030152082" lon="15.582248009741306">
        <ele>630.27999999999997</ele>
        <time>2013-09-05T10:07:55Z</time>
      </trkpt>
      <trkpt lat="50.697244964540005" lon="15.585356019437313">
        <ele>636.04999999999995</ele>
        <time>2013-09-05T10:08:05Z</time>
      </trkpt>
      <trkpt lat="50.698174014687538" lon="15.587052013725042">
        <ele>639.88999999999999</ele>
        <time>2013-09-05T10:08:12Z</time>
      </trkpt>
      <trkpt lat="50.698313992470503" lon="15.587200960144401">
        <ele>639.88999999999999</ele>
        <time>2013-09-05T10:08:13Z</time>
      </trkpt>
      <trkpt lat="50.698448019102216" lon="15.587334986776114">
        <ele>639.40999999999997</ele>
        <time>2013-09-05T10:08:14Z</time>
      </trkpt>
      <trkpt lat="50.699134999886155" lon="15.587795991450548">
        <ele>641.82000000000005</ele>
        <time>2013-09-05T10:08:19Z</time>
      </trkpt>
      <trkpt lat="50.69936097599566" lon="15.587895987555385">
        <ele>640.38</ele>
        <time>2013-09-05T10:08:21Z</time>
      </trkpt>
      <trkpt lat="50.69948703981936" lon="15.587914008647203">
        <ele>640.38</ele>
        <time>2013-09-05T10:08:22Z</time>
      </trkpt>
      <trkpt lat="50.699624000117183" lon="15.587914008647203">
        <ele>640.86000000000001</ele>
        <time>2013-09-05T10:08:23Z</time>
      </trkpt>
      <trkpt lat="50.699742017313838" lon="15.587906967848539">
        <ele>641.34000000000003</ele>
        <time>2013-09-05T10:08:24Z</time>
      </trkpt>
      <trkpt lat="50.699861040338874" lon="15.587884001433849">
        <ele>642.29999999999995</ele>
        <time>2013-09-05T10:08:25Z</time>
      </trkpt>
      <trkpt lat="50.699986014515162" lon="15.587836978957057">
        <ele>642.77999999999997</ele>
        <time>2013-09-05T10:08:26Z</time>
      </trkpt>
      <trkpt lat="50.700696967542171" lon="15.587290981784463">
        <ele>645.17999999999995</ele>
        <time>2013-09-05T10:08:32Z</time>
      </trkpt>
      <trkpt lat="50.700849015265703" lon="15.587022006511688">
        <ele>646.13999999999999</ele>
        <time>2013-09-05T10:08:34Z</time>
      </trkpt>
      <trkpt lat="50.70101598277688" lon="15.586600983515382">
        <ele>640.86000000000001</ele>
        <time>2013-09-05T10:08:39Z</time>
      </trkpt>
      <trkpt lat="50.701037021353841" lon="15.586490007117391">
        <ele>640.86000000000001</ele>
        <time>2013-09-05T10:08:40Z</time>
      </trkpt>
      <trkpt lat="50.701060993596911" lon="15.586343994364142">
        <ele>640.38</ele>
        <time>2013-09-05T10:08:41Z</time>
      </trkpt>
      <trkpt lat="50.70133600383997" lon="15.584936002269387">
        <ele>641.34000000000003</ele>
        <time>2013-09-05T10:08:48Z</time>
      </trkpt>
      <trkpt lat="50.701692989096045" lon="15.584023967385292">
        <ele>642.77999999999997</ele>
        <time>2013-09-05T10:08:52Z</time>
      </trkpt>
      <trkpt lat="50.701969005167484" lon="15.583643009886146">
        <ele>644.22000000000003</ele>
        <time>2013-09-05T10:08:54Z</time>
      </trkpt>
      <trkpt lat="50.702129015699029" lon="15.583527004346251">
        <ele>644.22000000000003</ele>
        <time>2013-09-05T10:08:55Z</time>
      </trkpt>
      <trkpt lat="50.702305035665631" lon="15.583434971049428">
        <ele>643.74000000000001</ele>
        <time>2013-09-05T10:08:56Z</time>
      </trkpt>
      <trkpt lat="50.702487006783485" lon="15.583361964672804">
        <ele>644.22000000000003</ele>
        <time>2013-09-05T10:08:57Z</time>
      </trkpt>
      <trkpt lat="50.702677024528384" lon="15.583315026015043">
        <ele>644.70000000000005</ele>
        <time>2013-09-05T10:08:58Z</time>
      </trkpt>
      <trkpt lat="50.703970016911626" lon="15.583221986889839">
        <ele>648.54999999999995</ele>
        <time>2013-09-05T10:09:05Z</time>
      </trkpt>
      <trkpt lat="50.70550499483943" lon="15.583105981349945">
        <ele>652.38999999999999</ele>
        <time>2013-09-05T10:09:13Z</time>
      </trkpt>
      <trkpt lat="50.705700041726232" lon="15.583017971366644">
        <ele>652.87</ele>
        <time>2013-09-05T10:09:14Z</time>
      </trkpt>
      <trkpt lat="50.706879962235689" lon="15.582326967269182">
        <ele>655.75999999999999</ele>
        <time>2013-09-05T10:09:21Z</time>
      </trkpt>
      <trkpt lat="50.707293022423983" lon="15.58217098005116">
        <ele>657.67999999999995</ele>
        <time>2013-09-05T10:09:24Z</time>
      </trkpt>
      <trkpt lat="50.707442974671721" lon="15.582147007808089">
        <ele>658.15999999999997</ele>
        <time>2013-09-05T10:09:25Z</time>
      </trkpt>
      <trkpt lat="50.708202961832285" lon="15.582276005297899">
        <ele>661.51999999999998</ele>
        <time>2013-09-05T10:09:30Z</time>
      </trkpt>
      <trkpt lat="50.708346040919423" lon="15.582376001402736">
        <ele>662.49000000000001</ele>
        <time>2013-09-05T10:09:31Z</time>
      </trkpt>
      <trkpt lat="50.70950098335743" lon="15.583317037671804">
        <ele>667.76999999999998</ele>
        <time>2013-09-05T10:09:40Z</time>
      </trkpt>
      <trkpt lat="50.710433972999454" lon="15.584148019552231">
        <ele>670.65999999999997</ele>
        <time>2013-09-05T10:09:47Z</time>
      </trkpt>
      <trkpt lat="50.710567999631166" lon="15.58420903980732">
        <ele>671.13999999999999</ele>
        <time>2013-09-05T10:09:48Z</time>
      </trkpt>
      <trkpt lat="50.710718035697937" lon="15.584240974858403">
        <ele>672.10000000000002</ele>
        <time>2013-09-05T10:09:49Z</time>
      </trkpt>
      <trkpt lat="50.710860025137663" lon="15.58425203897059">
        <ele>673.05999999999995</ele>
        <time>2013-09-05T10:09:50Z</time>
      </trkpt>
      <trkpt lat="50.711003020405769" lon="15.584234017878771">
        <ele>674.5</ele>
        <time>2013-09-05T10:09:51Z</time>
      </trkpt>
      <trkpt lat="50.711163030937314" lon="15.584174003452063">
        <ele>675.46000000000004</ele>
        <time>2013-09-05T10:09:52Z</time>
      </trkpt>
      <trkpt lat="50.711298985406756" lon="15.584111977368593">
        <ele>675.94000000000005</ele>
        <time>2013-09-05T10:09:53Z</time>
      </trkpt>
      <trkpt lat="50.711428988724947" lon="15.584034025669098">
        <ele>676.41999999999996</ele>
        <time>2013-09-05T10:09:54Z</time>
      </trkpt>
      <trkpt lat="50.712619973346591" lon="15.583436982706189">
        <ele>679.30999999999995</ele>
        <time>2013-09-05T10:10:03Z</time>
      </trkpt>
      <trkpt lat="50.713966023176908" lon="15.582900959998369">
        <ele>683.63</ele>
        <time>2013-09-05T10:10:12Z</time>
      </trkpt>
      <trkpt lat="50.71482801809907" lon="15.583035992458463">
        <ele>687.96000000000004</ele>
        <time>2013-09-05T10:10:18Z</time>
      </trkpt>
      <trkpt lat="50.715105039998889" lon="15.583198014646769">
        <ele>687.48000000000002</ele>
        <time>2013-09-05T10:10:20Z</time>
      </trkpt>
      <trkpt lat="50.715477028861642" lon="15.583574026823044">
        <ele>687.48000000000002</ele>
        <time>2013-09-05T10:10:23Z</time>
      </trkpt>
      <trkpt lat="50.715585993602872" lon="15.583734037354589">
        <ele>687.96000000000004</ele>
        <time>2013-09-05T10:10:24Z</time>
      </trkpt>
      <trkpt lat="50.716563994064927" lon="15.585291981697083">
        <ele>690.36000000000001</ele>
        <time>2013-09-05T10:10:33Z</time>
      </trkpt>
      <trkpt lat="50.717493966221809" lon="15.586183983832598">
        <ele>689.88</ele>
        <time>2013-09-05T10:10:40Z</time>
      </trkpt>
      <trkpt lat="50.717679038643837" lon="15.586267970502377">
        <ele>690.36000000000001</ele>
        <time>2013-09-05T10:10:41Z</time>
      </trkpt>
      <trkpt lat="50.719070015475154" lon="15.586897032335401">
        <ele>688.91999999999996</ele>
        <time>2013-09-05T10:10:47Z</time>
      </trkpt>
      <trkpt lat="50.719500007107854" lon="15.587137006223202">
        <ele>689.88</ele>
        <time>2013-09-05T10:10:49Z</time>
      </trkpt>
      <trkpt lat="50.720954015851021" lon="15.588141996413469">
        <ele>688.91999999999996</ele>
        <time>2013-09-05T10:10:56Z</time>
      </trkpt>
      <trkpt lat="50.722157992422581" lon="15.589055037125945">
        <ele>687.48000000000002</ele>
        <time>2013-09-05T10:11:03Z</time>
      </trkpt>
      <trkpt lat="50.723118977621198" lon="15.590417012572289">
        <ele>687</ele>
        <time>2013-09-05T10:11:10Z</time>
      </trkpt>
      <trkpt lat="50.723992036655545" lon="15.592513997107744">
        <ele>692.28999999999996</ele>
        <time>2013-09-05T10:11:19Z</time>
      </trkpt>
      <trkpt lat="50.724394032731652" lon="15.594573011621833">
        <ele>694.21000000000004</ele>
        <time>2013-09-05T10:11:28Z</time>
      </trkpt>
      <trkpt lat="50.724511966109276" lon="15.596938971430063">
        <ele>690.84000000000003</ele>
        <time>2013-09-05T10:11:39Z</time>
      </trkpt>
      <trkpt lat="50.724640963599086" lon="15.597992995753884">
        <ele>690.84000000000003</ele>
        <time>2013-09-05T10:11:44Z</time>
      </trkpt>
      <trkpt lat="50.725046982988715" lon="15.599879007786512">
        <ele>691.80999999999995</ele>
        <time>2013-09-05T10:11:53Z</time>
      </trkpt>
      <trkpt lat="50.72505896911025" lon="15.600286033004522">
        <ele>691.80999999999995</ele>
        <time>2013-09-05T10:11:55Z</time>
      </trkpt>
      <trkpt lat="50.725029967725277" lon="15.600729016587138">
        <ele>693.25</ele>
        <time>2013-09-05T10:11:57Z</time>
      </trkpt>
      <trkpt lat="50.725003983825445" lon="15.600953986868262">
        <ele>693.25</ele>
        <time>2013-09-05T10:11:58Z</time>
      </trkpt>
      <trkpt lat="50.724527975544333" lon="15.603264961391687">
        <ele>699.5</ele>
        <time>2013-09-05T10:12:09Z</time>
      </trkpt>
      <trkpt lat="50.724323038011789" lon="15.604264000430703">
        <ele>699.5</ele>
        <time>2013-09-05T10:12:14Z</time>
      </trkpt>
      <trkpt lat="50.724315997213125" lon="15.604475978761911">
        <ele>699.5</ele>
        <time>2013-09-05T10:12:15Z</time>
      </trkpt>
      <trkpt lat="50.724335024133325" lon="15.604688040912151">
        <ele>699.5</ele>
        <time>2013-09-05T10:12:16Z</time>
      </trkpt>
      <trkpt lat="50.724366959184408" lon="15.604898007586598">
        <ele>699.5</ele>
        <time>2013-09-05T10:12:17Z</time>
      </trkpt>
      <trkpt lat="50.724420016631484" lon="15.605090958997607">
        <ele>699.98000000000002</ele>
        <time>2013-09-05T10:12:18Z</time>
      </trkpt>
      <trkpt lat="50.724481958895922" lon="15.605274019762874">
        <ele>700.46000000000004</ele>
        <time>2013-09-05T10:12:19Z</time>
      </trkpt>
      <trkpt lat="50.724548008292913" lon="15.605451967567205">
        <ele>700.46000000000004</ele>
        <time>2013-09-05T10:12:20Z</time>
      </trkpt>
      <trkpt lat="50.724847996607423" lon="15.606149006634951">
        <ele>701.89999999999998</ele>
        <time>2013-09-05T10:12:24Z</time>
      </trkpt>
      <trkpt lat="50.724935000762343" lon="15.606295019388199">
        <ele>701.89999999999998</ele>
        <time>2013-09-05T10:12:25Z</time>
      </trkpt>
      <trkpt lat="50.725030973553658" lon="15.606413958594203">
        <ele>702.38</ele>
        <time>2013-09-05T10:12:26Z</time>
      </trkpt>
      <trkpt lat="50.725131975486875" lon="15.606499034911394">
        <ele>701.89999999999998</ele>
        <time>2013-09-05T10:12:27Z</time>
      </trkpt>
      <trkpt lat="50.725239012390375" lon="15.606551002711058">
        <ele>702.38</ele>
        <time>2013-09-05T10:12:28Z</time>
      </trkpt>
      <trkpt lat="50.725333979353309" lon="15.606599031016231">
        <ele>702.38</ele>
        <time>2013-09-05T10:12:29Z</time>
      </trkpt>
      <trkpt lat="50.725546041503549" lon="15.606658039614558">
        <ele>702.38</ele>
        <time>2013-09-05T10:12:31Z</time>
      </trkpt>
      <trkpt lat="50.726148029789329" lon="15.606656027957797">
        <ele>702.86000000000001</ele>
        <time>2013-09-05T10:12:36Z</time>
      </trkpt>
      <trkpt lat="50.726265041157603" lon="15.606674971058965">
        <ele>701.41999999999996</ele>
        <time>2013-09-05T10:12:37Z</time>
      </trkpt>
      <trkpt lat="50.727084036916494" lon="15.606990968808532">
        <ele>704.77999999999997</ele>
        <time>2013-09-05T10:12:45Z</time>
      </trkpt>
      <trkpt lat="50.727343037724495" lon="15.607166988775134">
        <ele>705.75</ele>
        <time>2013-09-05T10:12:47Z</time>
      </trkpt>
      <trkpt lat="50.728202015161514" lon="15.608064020052552">
        <ele>712.47000000000003</ele>
        <time>2013-09-05T10:12:55Z</time>
      </trkpt>
      <trkpt lat="50.728597976267338" lon="15.608546985313296">
        <ele>715.84000000000003</ele>
        <time>2013-09-05T10:12:59Z</time>
      </trkpt>
      <trkpt lat="50.728733008727431" lon="15.60861999168992">
        <ele>716.32000000000005</ele>
        <time>2013-09-05T10:13:00Z</time>
      </trkpt>
      <trkpt lat="50.728868963196874" lon="15.608672965317965">
        <ele>716.79999999999995</ele>
        <time>2013-09-05T10:13:01Z</time>
      </trkpt>
      <trkpt lat="50.729020005092025" lon="15.608721999451518">
        <ele>716.79999999999995</ele>
        <time>2013-09-05T10:13:02Z</time>
      </trkpt>
      <trkpt lat="50.729151014238596" lon="15.608742032200098">
        <ele>717.27999999999997</ele>
        <time>2013-09-05T10:13:03Z</time>
      </trkpt>
      <trkpt lat="50.729287974536419" lon="15.608746977522969">
        <ele>717.75999999999999</ele>
        <time>2013-09-05T10:13:04Z</time>
      </trkpt>
      <trkpt lat="50.729411020874977" lon="15.608731973916292">
        <ele>717.75999999999999</ele>
        <time>2013-09-05T10:13:05Z</time>
      </trkpt>
      <trkpt lat="50.729537000879645" lon="15.608690986409783">
        <ele>718.24000000000001</ele>
        <time>2013-09-05T10:13:06Z</time>
      </trkpt>
      <trkpt lat="50.730810966342688" lon="15.608131997287273">
        <ele>722.57000000000005</ele>
        <time>2013-09-05T10:13:16Z</time>
      </trkpt>
      <trkpt lat="50.730924960225821" lon="15.608131997287273">
        <ele>723.04999999999995</ele>
        <time>2013-09-05T10:13:17Z</time>
      </trkpt>
      <trkpt lat="50.731039959937334" lon="15.608165021985769">
        <ele>723.04999999999995</ele>
        <time>2013-09-05T10:13:18Z</time>
      </trkpt>
      <trkpt lat="50.731138028204441" lon="15.608248002827168">
        <ele>723.52999999999997</ele>
        <time>2013-09-05T10:13:19Z</time>
      </trkpt>
      <trkpt lat="50.731227966025472" lon="15.608355961740017">
        <ele>724.00999999999999</ele>
        <time>2013-09-05T10:13:20Z</time>
      </trkpt>
      <trkpt lat="50.731620993465185" lon="15.608793999999762">
        <ele>725.92999999999995</ele>
        <time>2013-09-05T10:13:24Z</time>
      </trkpt>
      <trkpt lat="50.731741022318602" lon="15.608861977234483">
        <ele>726.40999999999997</ele>
        <time>2013-09-05T10:13:25Z</time>
      </trkpt>
      <trkpt lat="50.731871025636792" lon="15.608888966962695">
        <ele>726.40999999999997</ele>
        <time>2013-09-05T10:13:26Z</time>
      </trkpt>
      <trkpt lat="50.731999017298222" lon="15.608890978619456">
        <ele>726.88999999999999</ele>
        <time>2013-09-05T10:13:27Z</time>
      </trkpt>
      <trkpt lat="50.732143018394709" lon="15.608862983062863">
        <ele>727.37</ele>
        <time>2013-09-05T10:13:28Z</time>
      </trkpt>
      <trkpt lat="50.732261035591364" lon="15.608829036355019">
        <ele>727.86000000000001</ele>
        <time>2013-09-05T10:13:29Z</time>
      </trkpt>
      <trkpt lat="50.733711021021008" lon="15.60851102694869">
        <ele>732.17999999999995</ele>
        <time>2013-09-05T10:13:40Z</time>
      </trkpt>
      <trkpt lat="50.734997978433967" lon="15.60874898917973">
        <ele>739.38999999999999</ele>
        <time>2013-09-05T10:13:50Z</time>
      </trkpt>
      <trkpt lat="50.735804988071322" lon="15.608560983091593">
        <ele>745.63999999999999</ele>
        <time>2013-09-05T10:13:58Z</time>
      </trkpt>
      <trkpt lat="50.736002968624234" lon="15.608412958681583">
        <ele>744.67999999999995</ele>
        <time>2013-09-05T10:14:01Z</time>
      </trkpt>
      <trkpt lat="50.736255012452602" lon="15.608353028073907">
        <ele>749</ele>
        <time>2013-09-05T10:14:08Z</time>
      </trkpt>
      <trkpt lat="50.736240008845925" lon="15.608379011973739">
        <ele>749.49000000000001</ele>
        <time>2013-09-05T10:14:30Z</time>
      </trkpt>
      <trkpt lat="50.736233973875642" lon="15.608399966731668">
        <ele>749</ele>
        <time>2013-09-05T10:15:02Z</time>
      </trkpt>
      <trkpt lat="50.736226011067629" lon="15.608387980610132">
        <ele>749.49000000000001</ele>
        <time>2013-09-05T10:15:29Z</time>
      </trkpt>
      <trkpt lat="50.736150993034244" lon="15.608418993651867">
        <ele>751.40999999999997</ele>
        <time>2013-09-05T10:15:58Z</time>
      </trkpt>
      <trkpt lat="50.736102964729071" lon="15.608465010300279">
        <ele>751.40999999999997</ele>
        <time>2013-09-05T10:16:32Z</time>
      </trkpt>
      <trkpt lat="50.736167002469301" lon="15.608398038893938">
        <ele>750.92999999999995</ele>
        <time>2013-09-05T10:16:33Z</time>
      </trkpt>
      <trkpt lat="50.736654996871948" lon="15.608217995613813">
        <ele>747.08000000000004</ele>
        <time>2013-09-05T10:16:37Z</time>
      </trkpt>
      <trkpt lat="50.737807005643845" lon="15.607692031189799">
        <ele>747.55999999999995</ele>
        <time>2013-09-05T10:16:43Z</time>
      </trkpt>
      <trkpt lat="50.739481961354613" lon="15.60758700594306">
        <ele>752.37</ele>
        <time>2013-09-05T10:16:52Z</time>
      </trkpt>
      <trkpt lat="50.74071703478694" lon="15.607979027554393">
        <ele>754.76999999999998</ele>
        <time>2013-09-05T10:16:59Z</time>
      </trkpt>
      <trkpt lat="50.741882035508752" lon="15.608658967539668">
        <ele>760.53999999999996</ele>
        <time>2013-09-05T10:17:07Z</time>
      </trkpt>
      <trkpt lat="50.742130978032947" lon="15.608914028853178">
        <ele>767.26999999999998</ele>
        <time>2013-09-05T10:17:13Z</time>
      </trkpt>
      <trkpt lat="50.742074986919761" lon="15.608913023024797">
        <ele>768.23000000000002</ele>
        <time>2013-09-05T10:17:14Z</time>
      </trkpt>
      <trkpt lat="50.742068029940128" lon="15.608888966962695">
        <ele>769.19000000000005</ele>
        <time>2013-09-05T10:17:15Z</time>
      </trkpt>
      <trkpt lat="50.742086973041296" lon="15.608858037739992">
        <ele>770.14999999999998</ele>
        <time>2013-09-05T10:17:16Z</time>
      </trkpt>
      <trkpt lat="50.742213958874345" lon="15.608872035518289">
        <ele>771.11000000000001</ele>
        <time>2013-09-05T10:17:17Z</time>
      </trkpt>
      <trkpt lat="50.742299035191536" lon="15.6088110152632">
        <ele>771.60000000000002</ele>
        <time>2013-09-05T10:17:18Z</time>
      </trkpt>
      <trkpt lat="50.742505984380841" lon="15.608499962836504">
        <ele>772.08000000000004</ele>
        <time>2013-09-05T10:17:21Z</time>
      </trkpt>
      <trkpt lat="50.742564992979169" lon="15.608328972011805">
        <ele>772.08000000000004</ele>
        <time>2013-09-05T10:17:22Z</time>
      </trkpt>
      <trkpt lat="50.742668006569147" lon="15.607967963442206">
        <ele>773.51999999999998</ele>
        <time>2013-09-05T10:17:24Z</time>
      </trkpt>
      <trkpt lat="50.742958020418882" lon="15.607075961306691">
        <ele>776.88</ele>
        <time>2013-09-05T10:17:29Z</time>
      </trkpt>
      <trkpt lat="50.743035972118378" lon="15.606931038200855">
        <ele>776.88</ele>
        <time>2013-09-05T10:17:30Z</time>
      </trkpt>
      <trkpt lat="50.743134040385485" lon="15.606798017397523">
        <ele>776.88</ele>
        <time>2013-09-05T10:17:31Z</time>
      </trkpt>
      <trkpt lat="50.743245016783476" lon="15.606702966615558">
        <ele>776.88</ele>
        <time>2013-09-05T10:17:32Z</time>
      </trkpt>
      <trkpt lat="50.743362028151751" lon="15.606627026572824">
        <ele>777.36000000000001</ele>
        <time>2013-09-05T10:17:33Z</time>
      </trkpt>
      <trkpt lat="50.744295017793775" lon="15.605843989178538">
        <ele>779.76999999999998</ele>
        <time>2013-09-05T10:17:40Z</time>
      </trkpt>
      <trkpt lat="50.745438979938626" lon="15.604369025677443">
        <ele>784.09000000000003</ele>
        <time>2013-09-05T10:17:47Z</time>
      </trkpt>
      <trkpt lat="50.746902041137218" lon="15.602240022271872">
        <ele>794.19000000000005</ele>
        <time>2013-09-05T10:17:56Z</time>
      </trkpt>
      <trkpt lat="50.747265983372927" lon="15.601598974317312">
        <ele>797.54999999999995</ele>
        <time>2013-09-05T10:17:59Z</time>
      </trkpt>
      <trkpt lat="50.747354999184608" lon="15.601368974894285">
        <ele>798.02999999999997</ele>
        <time>2013-09-05T10:18:00Z</time>
      </trkpt>
      <trkpt lat="50.747674014419317" lon="15.600407989695668">
        <ele>801.39999999999998</ele>
        <time>2013-09-05T10:18:05Z</time>
      </trkpt>
      <trkpt lat="50.747739979997277" lon="15.600353004410863">
        <ele>801.88</ele>
        <time>2013-09-05T10:18:06Z</time>
      </trkpt>
      <trkpt lat="50.747793037444353" lon="15.60034797526896">
        <ele>802.36000000000001</ele>
        <time>2013-09-05T10:18:07Z</time>
      </trkpt>
      <trkpt lat="50.747835030779243" lon="15.600448977202177">
        <ele>802.84000000000003</ele>
        <time>2013-09-05T10:18:08Z</time>
      </trkpt>
      <trkpt lat="50.74774500913918" lon="15.600597001612186">
        <ele>802.84000000000003</ele>
        <time>2013-09-05T10:18:09Z</time>
      </trkpt>
      <trkpt lat="50.747656999155879" lon="15.600756006315351">
        <ele>802.84000000000003</ele>
        <time>2013-09-05T10:18:10Z</time>
      </trkpt>
      <trkpt lat="50.747624980285764" lon="15.600966978818178">
        <ele>803.79999999999995</ele>
        <time>2013-09-05T10:18:11Z</time>
      </trkpt>
      <trkpt lat="50.747544011101127" lon="15.601145010441542">
        <ele>805.24000000000001</ele>
        <time>2013-09-05T10:18:12Z</time>
      </trkpt>
      <trkpt lat="50.747450971975923" lon="15.601322036236525">
        <ele>805.72000000000003</ele>
        <time>2013-09-05T10:18:13Z</time>
      </trkpt>
      <trkpt lat="50.747216027230024" lon="15.60238603502512">
        <ele>811.00999999999999</ele>
        <time>2013-09-05T10:18:18Z</time>
      </trkpt>
      <trkpt lat="50.747150983661413" lon="15.602607987821102">
        <ele>812.45000000000005</ele>
        <time>2013-09-05T10:18:19Z</time>
      </trkpt>
      <trkpt lat="50.746479006484151" lon="15.604380005970597">
        <ele>823.02999999999997</ele>
        <time>2013-09-05T10:18:27Z</time>
      </trkpt>
      <trkpt lat="50.746338022872806" lon="15.604894990101457">
        <ele>824.47000000000003</ele>
        <time>2013-09-05T10:18:29Z</time>
      </trkpt>
      <trkpt lat="50.746068963780999" lon="15.606476990506053">
        <ele>830.24000000000001</ele>
        <time>2013-09-05T10:18:35Z</time>
      </trkpt>
      <trkpt lat="50.746066030114889" lon="15.606747977435589">
        <ele>830.72000000000003</ele>
        <time>2013-09-05T10:18:36Z</time>
      </trkpt>
      <trkpt lat="50.746128978207707" lon="15.607027010992169">
        <ele>831.67999999999995</ele>
        <time>2013-09-05T10:18:37Z</time>
      </trkpt>
      <trkpt lat="50.746572967618704" lon="15.608660979196429">
        <ele>836.48000000000002</ele>
        <time>2013-09-05T10:18:43Z</time>
      </trkpt>
      <trkpt lat="50.747221978381276" lon="15.610080035403371">
        <ele>841.76999999999998</ele>
        <time>2013-09-05T10:18:49Z</time>
      </trkpt>
      <trkpt lat="50.747374026104808" lon="15.61025002039969">
        <ele>842.25</ele>
        <time>2013-09-05T10:18:50Z</time>
      </trkpt>
      <trkpt lat="50.747523978352547" lon="15.6103790178895">
        <ele>843.21000000000004</ele>
        <time>2013-09-05T10:18:51Z</time>
      </trkpt>
      <trkpt lat="50.747690023854375" lon="15.61048798263073">
        <ele>843.69000000000005</ele>
        <time>2013-09-05T10:18:52Z</time>
      </trkpt>
      <trkpt lat="50.747851962223649" lon="15.610561994835734">
        <ele>844.65999999999997</ele>
        <time>2013-09-05T10:18:53Z</time>
      </trkpt>
      <trkpt lat="50.748038040474057" lon="15.61057498678565">
        <ele>845.62</ele>
        <time>2013-09-05T10:18:54Z</time>
      </trkpt>
      <trkpt lat="50.748224034905434" lon="15.610558977350593">
        <ele>846.58000000000004</ele>
        <time>2013-09-05T10:18:55Z</time>
      </trkpt>
      <trkpt lat="50.748411035165191" lon="15.610526036471128">
        <ele>848.5</ele>
        <time>2013-09-05T10:18:56Z</time>
      </trkpt>
      <trkpt lat="50.748596023768187" lon="15.610483959317207">
        <ele>849.46000000000004</ele>
        <time>2013-09-05T10:18:57Z</time>
      </trkpt>
      <trkpt lat="50.750527968630195" lon="15.610106019303203">
        <ele>860.51999999999998</ele>
        <time>2013-09-05T10:19:07Z</time>
      </trkpt>
      <trkpt lat="50.752499978989363" lon="15.610123034566641">
        <ele>872.52999999999997</ele>
        <time>2013-09-05T10:19:17Z</time>
      </trkpt>
      <trkpt lat="50.7526879850775" lon="15.610087998211384">
        <ele>873.5</ele>
        <time>2013-09-05T10:19:18Z</time>
      </trkpt>
      <trkpt lat="50.752861993387341" lon="15.60999202542007">
        <ele>872.04999999999995</ele>
        <time>2013-09-05T10:19:19Z</time>
      </trkpt>
      <trkpt lat="50.75367302633822" lon="15.609528003260493">
        <ele>874.94000000000005</ele>
        <time>2013-09-05T10:19:25Z</time>
      </trkpt>
      <trkpt lat="50.753852985799313" lon="15.609616013243794">
        <ele>877.34000000000003</ele>
        <time>2013-09-05T10:19:27Z</time>
      </trkpt>
      <trkpt lat="50.753904031589627" lon="15.609762025997043">
        <ele>878.29999999999995</ele>
        <time>2013-09-05T10:19:28Z</time>
      </trkpt>
      <trkpt lat="50.753921968862414" lon="15.609984984621406">
        <ele>879.74000000000001</ele>
        <time>2013-09-05T10:19:29Z</time>
      </trkpt>
      <trkpt lat="50.753936972469091" lon="15.610183971002698">
        <ele>880.71000000000004</ele>
        <time>2013-09-05T10:19:30Z</time>
      </trkpt>
      <trkpt lat="50.753936972469091" lon="15.610384969040751">
        <ele>881.66999999999996</ele>
        <time>2013-09-05T10:19:31Z</time>
      </trkpt>
      <trkpt lat="50.753914006054401" lon="15.610598037019372">
        <ele>882.63</ele>
        <time>2013-09-05T10:19:32Z</time>
      </trkpt>
      <trkpt lat="50.753873018547893" lon="15.610871035605669">
        <ele>887.42999999999995</ele>
        <time>2013-09-05T10:19:33Z</time>
      </trkpt>
      <trkpt lat="50.753819039091468" lon="15.611988008022308">
        <ele>895.12</ele>
        <time>2013-09-05T10:19:37Z</time>
      </trkpt>
      <trkpt lat="50.753881987184286" lon="15.612239968031645">
        <ele>895.12</ele>
        <time>2013-09-05T10:19:38Z</time>
      </trkpt>
      <trkpt lat="50.753962034359574" lon="15.612482037395239">
        <ele>895.61000000000001</ele>
        <time>2013-09-05T10:19:39Z</time>
      </trkpt>
      <trkpt lat="50.754053983837366" lon="15.612684963271022">
        <ele>896.09000000000003</ele>
        <time>2013-09-05T10:19:40Z</time>
      </trkpt>
      <trkpt lat="50.754175018519163" lon="15.612859977409244">
        <ele>896.57000000000005</ele>
        <time>2013-09-05T10:19:41Z</time>
      </trkpt>
      <trkpt lat="50.754314996302128" lon="15.613013030961156">
        <ele>897.52999999999997</ele>
        <time>2013-09-05T10:19:42Z</time>
      </trkpt>
      <trkpt lat="50.754462014883757" lon="15.613149991258979">
        <ele>898.49000000000001</ele>
        <time>2013-09-05T10:19:43Z</time>
      </trkpt>
      <trkpt lat="50.754621019586921" lon="15.613268008455634">
        <ele>899.45000000000005</ele>
        <time>2013-09-05T10:19:44Z</time>
      </trkpt>
      <trkpt lat="50.754772983491421" lon="15.613360041752458">
        <ele>899.45000000000005</ele>
        <time>2013-09-05T10:19:45Z</time>
      </trkpt>
      <trkpt lat="50.754928970709443" lon="15.613434975966811">
        <ele>899.92999999999995</ele>
        <time>2013-09-05T10:19:46Z</time>
      </trkpt>
      <trkpt lat="50.755078000947833" lon="15.613485015928745">
        <ele>900.40999999999997</ele>
        <time>2013-09-05T10:19:47Z</time>
      </trkpt>
      <trkpt lat="50.75522099621594" lon="15.613518040627241">
        <ele>901.37</ele>
        <time>2013-09-05T10:19:48Z</time>
      </trkpt>
      <trkpt lat="50.755346976220608" lon="15.61353899538517">
        <ele>902.33000000000004</ele>
        <time>2013-09-05T10:19:49Z</time>
      </trkpt>
      <trkpt lat="50.75545996427536" lon="15.61358199454844">
        <ele>903.29999999999995</ele>
        <time>2013-09-05T10:19:50Z</time>
      </trkpt>
      <trkpt lat="50.755529031157494" lon="15.613671010360122">
        <ele>903.77999999999997</ele>
        <time>2013-09-05T10:19:51Z</time>
      </trkpt>
      <trkpt lat="50.755583010613918" lon="15.613792967051268">
        <ele>905.70000000000005</ele>
        <time>2013-09-05T10:19:52Z</time>
      </trkpt>
      <trkpt lat="50.755625003948808" lon="15.613922970369458">
        <ele>906.17999999999995</ele>
        <time>2013-09-05T10:19:53Z</time>
      </trkpt>
      <trkpt lat="50.755655011162162" lon="15.614058002829552">
        <ele>907.13999999999999</ele>
        <time>2013-09-05T10:19:54Z</time>
      </trkpt>
      <trkpt lat="50.755662973970175" lon="15.614223964512348">
        <ele>909.53999999999996</ele>
        <time>2013-09-05T10:19:55Z</time>
      </trkpt>
      <trkpt lat="50.755661968141794" lon="15.614331001415849">
        <ele>910.02999999999997</ele>
        <time>2013-09-05T10:19:56Z</time>
      </trkpt>
      <trkpt lat="50.755678983405232" lon="15.61444197781384">
        <ele>910.50999999999999</ele>
        <time>2013-09-05T10:19:57Z</time>
      </trkpt>
      <trkpt lat="50.755568007007241" lon="15.614530993625522">
        <ele>911.95000000000005</ele>
        <time>2013-09-05T10:19:58Z</time>
      </trkpt>
      <trkpt lat="50.75545895844698" lon="15.614604000002146">
        <ele>913.38999999999999</ele>
        <time>2013-09-05T10:19:59Z</time>
      </trkpt>
      <trkpt lat="50.755296014249325" lon="15.614663008600473">
        <ele>914.35000000000002</ele>
        <time>2013-09-05T10:20:00Z</time>
      </trkpt>
      <trkpt lat="50.755200041458011" lon="15.614739032462239">
        <ele>915.30999999999995</ele>
        <time>2013-09-05T10:20:01Z</time>
      </trkpt>
      <trkpt lat="50.755041036754847" lon="15.614844979718328">
        <ele>916.26999999999998</ele>
        <time>2013-09-05T10:20:02Z</time>
      </trkpt>
      <trkpt lat="50.75489703565836" lon="15.614971965551376">
        <ele>917.24000000000001</ele>
        <time>2013-09-05T10:20:03Z</time>
      </trkpt>
      <trkpt lat="50.75472503900528" lon="15.615135999396443">
        <ele>918.67999999999995</ele>
        <time>2013-09-05T10:20:04Z</time>
      </trkpt>
      <trkpt lat="50.754585983231664" lon="15.615312019363046">
        <ele>919.15999999999997</ele>
        <time>2013-09-05T10:20:05Z</time>
      </trkpt>
      <trkpt lat="50.754456985741854" lon="15.615505976602435">
        <ele>920.60000000000002</ele>
        <time>2013-09-05T10:20:06Z</time>
      </trkpt>
      <trkpt lat="50.754350032657385" lon="15.615721978247166">
        <ele>921.08000000000004</ele>
        <time>2013-09-05T10:20:07Z</time>
      </trkpt>
      <trkpt lat="50.754219023510814" lon="15.615933034569025">
        <ele>922.03999999999996</ele>
        <time>2013-09-05T10:20:08Z</time>
      </trkpt>
      <trkpt lat="50.754129001870751" lon="15.616168985143304">
        <ele>923</ele>
        <time>2013-09-05T10:20:09Z</time>
      </trkpt>
      <trkpt lat="50.753655005246401" lon="15.617263996973634">
        <ele>925.88999999999999</ele>
        <time>2013-09-05T10:20:14Z</time>
      </trkpt>
      <trkpt lat="50.753571018576622" lon="15.617479998618364">
        <ele>925.88999999999999</ele>
        <time>2013-09-05T10:20:15Z</time>
      </trkpt>
      <trkpt lat="50.753290979191661" lon="15.618092967197299">
        <ele>925.88999999999999</ele>
        <time>2013-09-05T10:20:18Z</time>
      </trkpt>
      <trkpt lat="50.753151001408696" lon="15.618248032405972">
        <ele>925.40999999999997</ele>
        <time>2013-09-05T10:20:19Z</time>
      </trkpt>
      <trkpt lat="50.75303197838366" lon="15.618413994088769">
        <ele>925.40999999999997</ele>
        <time>2013-09-05T10:20:20Z</time>
      </trkpt>
      <trkpt lat="50.752847995609045" lon="15.618769973516464">
        <ele>925.40999999999997</ele>
        <time>2013-09-05T10:20:22Z</time>
      </trkpt>
      <trkpt lat="50.752419009804726" lon="15.620267987251282">
        <ele>930.69000000000005</ele>
        <time>2013-09-05T10:20:29Z</time>
      </trkpt>
      <trkpt lat="50.751947024837136" lon="15.621555028483272">
        <ele>936.46000000000004</ele>
        <time>2013-09-05T10:20:35Z</time>
      </trkpt>
      <trkpt lat="50.751948030665517" lon="15.622084010392427">
        <ele>938.86000000000001</ele>
        <time>2013-09-05T10:20:37Z</time>
      </trkpt>
      <trkpt lat="50.751901008188725" lon="15.622915998101234">
        <ele>939.83000000000004</ele>
        <time>2013-09-05T10:20:40Z</time>
      </trkpt>
      <trkpt lat="50.751863960176706" lon="15.623198971152306">
        <ele>940.78999999999996</ele>
        <time>2013-09-05T10:20:41Z</time>
      </trkpt>
      <trkpt lat="50.751909976825118" lon="15.623518992215395">
        <ele>945.11000000000001</ele>
        <time>2013-09-05T10:20:42Z</time>
      </trkpt>
      <trkpt lat="50.751908970996737" lon="15.626036999747157">
        <ele>960.49000000000001</ele>
        <time>2013-09-05T10:20:51Z</time>
      </trkpt>
      <trkpt lat="50.751907965168357" lon="15.626212013885379">
        <ele>961.94000000000005</ele>
        <time>2013-09-05T10:20:52Z</time>
      </trkpt>
      <trkpt lat="50.752036962658167" lon="15.626399014145136">
        <ele>963.38</ele>
        <time>2013-09-05T10:20:54Z</time>
      </trkpt>
      <trkpt lat="50.75212899595499" lon="15.626370012760162">
        <ele>963.38</ele>
        <time>2013-09-05T10:20:55Z</time>
      </trkpt>
      <trkpt lat="50.752212982624769" lon="15.626264987513423">
        <ele>963.86000000000001</ele>
        <time>2013-09-05T10:20:56Z</time>
      </trkpt>
      <trkpt lat="50.752239972352982" lon="15.626093996688724">
        <ele>966.74000000000001</ele>
        <time>2013-09-05T10:20:57Z</time>
      </trkpt>
      <trkpt lat="50.752281965687871" lon="15.625895010307431">
        <ele>968.17999999999995</ele>
        <time>2013-09-05T10:20:58Z</time>
      </trkpt>
      <trkpt lat="50.752497967332602" lon="15.625240970402956">
        <ele>971.54999999999995</ele>
        <time>2013-09-05T10:21:01Z</time>
      </trkpt>
      <trkpt lat="50.752941034734249" lon="15.624404959380627">
        <ele>972.99000000000001</ele>
        <time>2013-09-05T10:21:05Z</time>
      </trkpt>
      <trkpt lat="50.754006961360574" lon="15.623398963361979">
        <ele>978.27999999999997</ele>
        <time>2013-09-05T10:21:12Z</time>
      </trkpt>
      <trkpt lat="50.755849974229932" lon="15.622202027589083">
        <ele>989.33000000000004</ele>
        <time>2013-09-05T10:21:23Z</time>
      </trkpt>
      <trkpt lat="50.756022976711392" lon="15.622081998735666">
        <ele>990.77999999999997</ele>
        <time>2013-09-05T10:21:24Z</time>
      </trkpt>
      <trkpt lat="50.756168989464641" lon="15.621922994032502">
        <ele>991.74000000000001</ele>
        <time>2013-09-05T10:21:25Z</time>
      </trkpt>
      <trkpt lat="50.756273008882999" lon="15.62170397490263">
        <ele>993.17999999999995</ele>
        <time>2013-09-05T10:21:26Z</time>
      </trkpt>
      <trkpt lat="50.756365964189172" lon="15.621460983529687">
        <ele>994.13999999999999</ele>
        <time>2013-09-05T10:21:27Z</time>
      </trkpt>
      <trkpt lat="50.756457997485995" lon="15.621191002428532">
        <ele>996.05999999999995</ele>
        <time>2013-09-05T10:21:28Z</time>
      </trkpt>
      <trkpt lat="50.757619980722666" lon="15.618258006870747">
        <ele>1009.04</ele>
        <time>2013-09-05T10:21:40Z</time>
      </trkpt>
      <trkpt lat="50.757704973220825" lon="15.618086010217667">
        <ele>1010</ele>
        <time>2013-09-05T10:21:41Z</time>
      </trkpt>
      <trkpt lat="50.757794994860888" lon="15.617950977757573">
        <ele>1010.96</ele>
        <time>2013-09-05T10:21:42Z</time>
      </trkpt>
      <trkpt lat="50.757888033986092" lon="15.617887023836374">
        <ele>1011.9299999999999</ele>
        <time>2013-09-05T10:21:43Z</time>
      </trkpt>
      <trkpt lat="50.757961040362716" lon="15.617949971929193">
        <ele>1012.41</ele>
        <time>2013-09-05T10:21:44Z</time>
      </trkpt>
      <trkpt lat="50.75799398124218" lon="15.618070000782609">
        <ele>1013.37</ele>
        <time>2013-09-05T10:21:45Z</time>
      </trkpt>
      <trkpt lat="50.757998004555702" lon="15.618234034627676">
        <ele>1014.8099999999999</ele>
        <time>2013-09-05T10:21:46Z</time>
      </trkpt>
      <trkpt lat="50.75797202065587" lon="15.618418017402291">
        <ele>1015.29</ele>
        <time>2013-09-05T10:21:47Z</time>
      </trkpt>
      <trkpt lat="50.757933966815472" lon="15.618606023490429">
        <ele>1016.25</ele>
        <time>2013-09-05T10:21:48Z</time>
      </trkpt>
      <trkpt lat="50.75786598958075" lon="15.619027968496084">
        <ele>1017.6900000000001</ele>
        <time>2013-09-05T10:21:50Z</time>
      </trkpt>
      <trkpt lat="50.757846040651202" lon="15.619265008717775">
        <ele>1018.65</ele>
        <time>2013-09-05T10:21:51Z</time>
      </trkpt>
      <trkpt lat="50.757716037333012" lon="15.621146997436881">
        <ele>1024.4200000000001</ele>
        <time>2013-09-05T10:21:58Z</time>
      </trkpt>
      <trkpt lat="50.757684018462896" lon="15.621427036821842">
        <ele>1025.3800000000001</ele>
        <time>2013-09-05T10:21:59Z</time>
      </trkpt>
      <trkpt lat="50.757526019588113" lon="15.622265981510282">
        <ele>1027.3099999999999</ele>
        <time>2013-09-05T10:22:02Z</time>
      </trkpt>
      <trkpt lat="50.756808025762439" lon="15.624671000987291">
        <ele>1035</ele>
        <time>2013-09-05T10:22:11Z</time>
      </trkpt>
      <trkpt lat="50.755968997254968" lon="15.626677963882685">
        <ele>1041.73</ele>
        <time>2013-09-05T10:22:19Z</time>
      </trkpt>
      <trkpt lat="50.755382012575865" lon="15.628202967345715">
        <ele>1047.01</ele>
        <time>2013-09-05T10:22:25Z</time>
      </trkpt>
      <trkpt lat="50.755315041169524" lon="15.628466997295618">
        <ele>1047.97</ele>
        <time>2013-09-05T10:22:26Z</time>
      </trkpt>
      <trkpt lat="50.755276987329125" lon="15.628741001710296">
        <ele>1048.9400000000001</ele>
        <time>2013-09-05T10:22:27Z</time>
      </trkpt>
      <trkpt lat="50.755257960408926" lon="15.629017017781734">
        <ele>1049.9000000000001</ele>
        <time>2013-09-05T10:22:28Z</time>
      </trkpt>
      <trkpt lat="50.755187971517444" lon="15.629282975569367">
        <ele>1055.1800000000001</ele>
        <time>2013-09-05T10:22:29Z</time>
      </trkpt>
      <trkpt lat="50.755160981789231" lon="15.629550023004413">
        <ele>1059.03</ele>
        <time>2013-09-05T10:22:30Z</time>
      </trkpt>
      <trkpt lat="50.755191994830966" lon="15.629816986620426">
        <ele>1061.4300000000001</ele>
        <time>2013-09-05T10:22:31Z</time>
      </trkpt>
      <trkpt lat="50.755249997600913" lon="15.630075987428427">
        <ele>1064.3199999999999</ele>
        <time>2013-09-05T10:22:32Z</time>
      </trkpt>
      <trkpt lat="50.755339013412595" lon="15.63031897880137">
        <ele>1066.72</ele>
        <time>2013-09-05T10:22:33Z</time>
      </trkpt>
      <trkpt lat="50.755443032830954" lon="15.630550989881158">
        <ele>1069.1199999999999</ele>
        <time>2013-09-05T10:22:34Z</time>
      </trkpt>
      <trkpt lat="50.755556020885706" lon="15.630765985697508">
        <ele>1071.53</ele>
        <time>2013-09-05T10:22:35Z</time>
      </trkpt>
      <trkpt lat="50.755795994773507" lon="15.631168987601995">
        <ele>1075.3699999999999</ele>
        <time>2013-09-05T10:22:37Z</time>
      </trkpt>
      <trkpt lat="50.755925998091698" lon="15.631332015618682">
        <ele>1077.29</ele>
        <time>2013-09-05T10:22:38Z</time>
      </trkpt>
      <trkpt lat="50.756361018866301" lon="15.631767958402634">
        <ele>1084.02</ele>
        <time>2013-09-05T10:22:41Z</time>
      </trkpt>
      <trkpt lat="50.756609039381146" lon="15.632103988900781">
        <ele>1088.3499999999999</ele>
        <time>2013-09-05T10:22:43Z</time>
      </trkpt>
      <trkpt lat="50.756713980808854" lon="15.632304986938834">
        <ele>1091.23</ele>
        <time>2013-09-05T10:22:44Z</time>
      </trkpt>
      <trkpt lat="50.756802996620536" lon="15.632524006068707">
        <ele>1093.1600000000001</ele>
        <time>2013-09-05T10:22:45Z</time>
      </trkpt>
      <trkpt lat="50.75687600299716" lon="15.632764985784888">
        <ele>1095.0799999999999</ele>
        <time>2013-09-05T10:22:46Z</time>
      </trkpt>
      <trkpt lat="50.756935011595488" lon="15.633009988814592">
        <ele>1096.52</ele>
        <time>2013-09-05T10:22:47Z</time>
      </trkpt>
      <trkpt lat="50.756985973566771" lon="15.633248034864664">
        <ele>1097</ele>
        <time>2013-09-05T10:22:48Z</time>
      </trkpt>
      <trkpt lat="50.757018998265266" lon="15.633508041501045">
        <ele>1098.4400000000001</ele>
        <time>2013-09-05T10:22:49Z</time>
      </trkpt>
      <trkpt lat="50.757032996043563" lon="15.633773999288678">
        <ele>1099.8900000000001</ele>
        <time>2013-09-05T10:22:50Z</time>
      </trkpt>
      <trkpt lat="50.757035007700324" lon="15.634043980389833">
        <ele>1101.3299999999999</ele>
        <time>2013-09-05T10:22:51Z</time>
      </trkpt>
      <trkpt lat="50.75702503323555" lon="15.634318990632892">
        <ele>1102.77</ele>
        <time>2013-09-05T10:22:52Z</time>
      </trkpt>
      <trkpt lat="50.757002988830209" lon="15.634591989219189">
        <ele>1104.21</ele>
        <time>2013-09-05T10:22:53Z</time>
      </trkpt>
      <trkpt lat="50.756964012980461" lon="15.634860964491963">
        <ele>1105.6500000000001</ele>
        <time>2013-09-05T10:22:54Z</time>
      </trkpt>
      <trkpt lat="50.75691900216043" lon="15.635108985006809">
        <ele>1107.0999999999999</ele>
        <time>2013-09-05T10:22:55Z</time>
      </trkpt>
      <trkpt lat="50.756800984963775" lon="15.635602008551359">
        <ele>1109.5</ele>
        <time>2013-09-05T10:22:57Z</time>
      </trkpt>
      <trkpt lat="50.756716998293996" lon="15.635799989104271">
        <ele>1110.9400000000001</ele>
        <time>2013-09-05T10:22:58Z</time>
      </trkpt>
      <trkpt lat="50.756547013297677" lon="15.636138031259179">
        <ele>1112.8599999999999</ele>
        <time>2013-09-05T10:23:00Z</time>
      </trkpt>
      <trkpt lat="50.756366970017552" lon="15.63657296821475">
        <ele>1114.79</ele>
        <time>2013-09-05T10:23:03Z</time>
      </trkpt>
      <trkpt lat="50.756365964189172" lon="15.636731972917914">
        <ele>1114.79</ele>
        <time>2013-09-05T10:23:04Z</time>
      </trkpt>
      <trkpt lat="50.756399994716048" lon="15.636869017034769">
        <ele>1114.79</ele>
        <time>2013-09-05T10:23:05Z</time>
      </trkpt>
      <trkpt lat="50.756453974172473" lon="15.636955015361309">
        <ele>1115.27</ele>
        <time>2013-09-05T10:23:06Z</time>
      </trkpt>
      <trkpt lat="50.756531003862619" lon="15.636982005089521">
        <ele>1115.27</ele>
        <time>2013-09-05T10:23:07Z</time>
      </trkpt>
      <trkpt lat="50.756635023280978" lon="15.636943029239774">
        <ele>1115.75</ele>
        <time>2013-09-05T10:23:08Z</time>
      </trkpt>
      <trkpt lat="50.756721021607518" lon="15.636836998164654">
        <ele>1116.71</ele>
        <time>2013-09-05T10:23:09Z</time>
      </trkpt>
      <trkpt lat="50.756813976913691" lon="15.636697020381689">
        <ele>1117.1900000000001</ele>
        <time>2013-09-05T10:23:10Z</time>
      </trkpt>
      <trkpt lat="50.75689896941185" lon="15.636542038992047">
        <ele>1117.6700000000001</ele>
        <time>2013-09-05T10:23:11Z</time>
      </trkpt>
      <trkpt lat="50.756983039900661" lon="15.636379010975361">
        <ele>1118.1500000000001</ele>
        <time>2013-09-05T10:23:12Z</time>
      </trkpt>
      <trkpt lat="50.75788602232933" lon="15.635036984458566">
        <ele>1126.8</ele>
        <time>2013-09-05T10:23:22Z</time>
      </trkpt>
      <trkpt lat="50.75861600227654" lon="15.634069964289665">
        <ele>1135.9400000000001</ele>
        <time>2013-09-05T10:23:29Z</time>
      </trkpt>
      <trkpt lat="50.758697977289557" lon="15.633904002606869">
        <ele>1136.9000000000001</ele>
        <time>2013-09-05T10:23:30Z</time>
      </trkpt>
      <trkpt lat="50.758780036121607" lon="15.633728988468647">
        <ele>1138.3399999999999</ele>
        <time>2013-09-05T10:23:31Z</time>
      </trkpt>
      <trkpt lat="50.758838960900903" lon="15.633534025400877">
        <ele>1139.3</ele>
        <time>2013-09-05T10:23:32Z</time>
      </trkpt>
      <trkpt lat="50.758884977549314" lon="15.633332021534443">
        <ele>1140.26</ele>
        <time>2013-09-05T10:23:33Z</time>
      </trkpt>
      <trkpt lat="50.758924959227443" lon="15.633122976869345">
        <ele>1140.74</ele>
        <time>2013-09-05T10:23:34Z</time>
      </trkpt>
      <trkpt lat="50.759250009432435" lon="15.630688033998013">
        <ele>1152.28</ele>
        <time>2013-09-05T10:23:46Z</time>
      </trkpt>
      <trkpt lat="50.759502975270152" lon="15.629564020782709">
        <ele>1157.5599999999999</ele>
        <time>2013-09-05T10:23:52Z</time>
      </trkpt>
      <trkpt lat="50.759569024667144" lon="15.629423037171364">
        <ele>1158.05</ele>
        <time>2013-09-05T10:23:53Z</time>
      </trkpt>
      <trkpt lat="50.759655022993684" lon="15.629337038844824">
        <ele>1159.01</ele>
        <time>2013-09-05T10:23:54Z</time>
      </trkpt>
      <trkpt lat="50.759749989956617" lon="15.629300996661186">
        <ele>1159.97</ele>
        <time>2013-09-05T10:23:55Z</time>
      </trkpt>
      <trkpt lat="50.759847974404693" lon="15.629284987226129">
        <ele>1161.8900000000001</ele>
        <time>2013-09-05T10:23:56Z</time>
      </trkpt>
      <trkpt lat="50.759943025186658" lon="15.629332009702921">
        <ele>1162.3699999999999</ele>
        <time>2013-09-05T10:23:57Z</time>
      </trkpt>
      <trkpt lat="50.760036986321211" lon="15.629391018301249">
        <ele>1163.3299999999999</ele>
        <time>2013-09-05T10:23:58Z</time>
      </trkpt>
      <trkpt lat="50.760108986869454" lon="15.62948296777904">
        <ele>1164.29</ele>
        <time>2013-09-05T10:23:59Z</time>
      </trkpt>
      <trkpt lat="50.760151986032724" lon="15.629624035209417">
        <ele>1164.77</ele>
        <time>2013-09-05T10:24:00Z</time>
      </trkpt>
      <trkpt lat="50.76018400490284" lon="15.629778010770679">
        <ele>1164.77</ele>
        <time>2013-09-05T10:24:01Z</time>
      </trkpt>
      <trkpt lat="50.760215017944574" lon="15.629941960796714">
        <ele>1165.26</ele>
        <time>2013-09-05T10:24:02Z</time>
      </trkpt>
      <trkpt lat="50.760248964652419" lon="15.630107000470161">
        <ele>1166.22</ele>
        <time>2013-09-05T10:24:03Z</time>
      </trkpt>
      <trkpt lat="50.760358013212681" lon="15.630608992651105">
        <ele>1168.6199999999999</ele>
        <time>2013-09-05T10:24:06Z</time>
      </trkpt>
      <trkpt lat="50.760459015145898" lon="15.630937982350588">
        <ele>1170.0599999999999</ele>
        <time>2013-09-05T10:24:08Z</time>
      </trkpt>
      <trkpt lat="50.760530009865761" lon="15.631100004538894">
        <ele>1171.02</ele>
        <time>2013-09-05T10:24:09Z</time>
      </trkpt>
      <trkpt lat="50.761691993102431" lon="15.633090035989881">
        <ele>1186.4000000000001</ele>
        <time>2013-09-05T10:24:23Z</time>
      </trkpt>
      <trkpt lat="50.762163978070021" lon="15.633625974878669">
        <ele>1189.29</ele>
        <time>2013-09-05T10:24:30Z</time>
      </trkpt>
      <trkpt lat="50.762546025216579" lon="15.633865026757121">
        <ele>1190.73</ele>
        <time>2013-09-05T10:24:38Z</time>
      </trkpt>
      <trkpt lat="50.762578966096044" lon="15.633896961808205">
        <ele>1190.73</ele>
        <time>2013-09-05T10:24:39Z</time>
      </trkpt>
      <trkpt lat="50.762649038806558" lon="15.633912971243262">
        <ele>1191.21</ele>
        <time>2013-09-05T10:24:42Z</time>
      </trkpt>
      <trkpt lat="50.762647027149796" lon="15.633869972079992">
        <ele>1191.21</ele>
        <time>2013-09-05T10:24:43Z</time>
      </trkpt>
      <trkpt lat="50.762628000229597" lon="15.633840970695019">
        <ele>1190.73</ele>
        <time>2013-09-05T10:24:44Z</time>
      </trkpt>
      <trkpt lat="50.762589024379849" lon="15.633836025372148">
        <ele>1190.25</ele>
        <time>2013-09-05T10:24:45Z</time>
      </trkpt>
      <trkpt lat="50.762548958882689" lon="15.633868966251612">
        <ele>1189.77</ele>
        <time>2013-09-05T10:24:46Z</time>
      </trkpt>
      <trkpt lat="50.762519035488367" lon="15.633923029527068">
        <ele>1189.77</ele>
        <time>2013-09-05T10:24:47Z</time>
      </trkpt>
      <trkpt lat="50.762501014396548" lon="15.633997041732073">
        <ele>1189.77</ele>
        <time>2013-09-05T10:24:48Z</time>
      </trkpt>
      <trkpt lat="50.762331029400229" lon="15.634923996403813">
        <ele>1193.6099999999999</ele>
        <time>2013-09-05T10:25:00Z</time>
      </trkpt>
      <trkpt lat="50.762318959459662" lon="15.635079983621836">
        <ele>1194.5799999999999</ele>
        <time>2013-09-05T10:25:04Z</time>
      </trkpt>
      <trkpt lat="50.762326000258327" lon="15.635101022198796">
        <ele>1195.0599999999999</ele>
        <time>2013-09-05T10:25:05Z</time>
      </trkpt>
      <trkpt lat="50.762347038835287" lon="15.635113008320332">
        <ele>1195.54</ele>
        <time>2013-09-05T10:25:06Z</time>
      </trkpt>
      <trkpt lat="50.762490034103394" lon="15.635190038010478">
        <ele>1196.02</ele>
        <time>2013-09-05T10:25:12Z</time>
      </trkpt>
      <trkpt lat="50.762429013848305" lon="15.635075038298965">
        <ele>1197.46</ele>
        <time>2013-09-05T10:25:19Z</time>
      </trkpt>
      <trkpt lat="50.762300016358495" lon="15.635138992220163">
        <ele>1197.9400000000001</ele>
        <time>2013-09-05T10:25:24Z</time>
      </trkpt>
      <trkpt lat="50.762434964999557" lon="15.634159985929728">
        <ele>1192.6500000000001</ele>
        <time>2013-09-05T10:27:55Z</time>
      </trkpt>
      <trkpt lat="50.762460026890039" lon="15.633939038962126">
        <ele>1193.6099999999999</ele>
        <time>2013-09-05T10:27:57Z</time>
      </trkpt>
      <trkpt lat="50.762458015233278" lon="15.633833007887006">
        <ele>1195.54</ele>
        <time>2013-09-05T10:27:58Z</time>
      </trkpt>
      <trkpt lat="50.762434964999557" lon="15.633739968761802">
        <ele>1194.5799999999999</ele>
        <time>2013-09-05T10:27:59Z</time>
      </trkpt>
      <trkpt lat="50.762394983321428" lon="15.633649025112391">
        <ele>1194.0899999999999</ele>
        <time>2013-09-05T10:28:00Z</time>
      </trkpt>
      <trkpt lat="50.762310996651649" lon="15.633564032614231">
        <ele>1191.6900000000001</ele>
        <time>2013-09-05T10:28:01Z</time>
      </trkpt>
      <trkpt lat="50.762212006375194" lon="15.633473005145788">
        <ele>1189.29</ele>
        <time>2013-09-05T10:28:02Z</time>
      </trkpt>
      <trkpt lat="50.76211703941226" lon="15.633396981284022">
        <ele>1190.73</ele>
        <time>2013-09-05T10:28:03Z</time>
      </trkpt>
      <trkpt lat="50.76190397143364" lon="15.633192965760827">
        <ele>1188.8099999999999</ele>
        <time>2013-09-05T10:28:05Z</time>
      </trkpt>
      <trkpt lat="50.76179601252079" lon="15.633050976321101">
        <ele>1187.3699999999999</ele>
        <time>2013-09-05T10:28:06Z</time>
      </trkpt>
      <trkpt lat="50.761691993102431" lon="15.632889037951827">
        <ele>1185.9200000000001</ele>
        <time>2013-09-05T10:28:07Z</time>
      </trkpt>
      <trkpt lat="50.760402018204331" lon="15.630709994584322">
        <ele>1173.9100000000001</ele>
        <time>2013-09-05T10:28:20Z</time>
      </trkpt>
      <trkpt lat="50.760338986292481" lon="15.630526011809707">
        <ele>1173.4300000000001</ele>
        <time>2013-09-05T10:28:21Z</time>
      </trkpt>
      <trkpt lat="50.760294981300831" lon="15.630328031256795">
        <ele>1172.95</ele>
        <time>2013-09-05T10:28:22Z</time>
      </trkpt>
      <trkpt lat="50.76014100573957" lon="15.62961196526885">
        <ele>1167.6600000000001</ele>
        <time>2013-09-05T10:28:26Z</time>
      </trkpt>
      <trkpt lat="50.760086020454764" lon="15.629476010799408">
        <ele>1166.7</ele>
        <time>2013-09-05T10:28:27Z</time>
      </trkpt>
      <trkpt lat="50.760017959401011" lon="15.629369979724288">
        <ele>1165.26</ele>
        <time>2013-09-05T10:28:28Z</time>
      </trkpt>
      <trkpt lat="50.759923998266459" lon="15.62930803745985">
        <ele>1164.29</ele>
        <time>2013-09-05T10:28:29Z</time>
      </trkpt>
      <trkpt lat="50.759842023253441" lon="15.629281969740987">
        <ele>1163.3299999999999</ele>
        <time>2013-09-05T10:28:30Z</time>
      </trkpt>
      <trkpt lat="50.759736998006701" lon="15.629292028024793">
        <ele>1162.8499999999999</ele>
        <time>2013-09-05T10:28:31Z</time>
      </trkpt>
      <trkpt lat="50.759634990245104" lon="15.62932999804616">
        <ele>1161.8900000000001</ele>
        <time>2013-09-05T10:28:32Z</time>
      </trkpt>
      <trkpt lat="50.759544968605042" lon="15.629407027736306">
        <ele>1160.45</ele>
        <time>2013-09-05T10:28:33Z</time>
      </trkpt>
      <trkpt lat="50.759472968056798" lon="15.62952496111393">
        <ele>1159.49</ele>
        <time>2013-09-05T10:28:34Z</time>
      </trkpt>
      <trkpt lat="50.759413037449121" lon="15.629669968038797">
        <ele>1158.05</ele>
        <time>2013-09-05T10:28:35Z</time>
      </trkpt>
      <trkpt lat="50.759370038285851" lon="15.629825033247471">
        <ele>1156.5999999999999</ele>
        <time>2013-09-05T10:28:36Z</time>
      </trkpt>
      <trkpt lat="50.759329972788692" lon="15.629980014637113">
        <ele>1155.1600000000001</ele>
        <time>2013-09-05T10:28:37Z</time>
      </trkpt>
      <trkpt lat="50.758997965604067" lon="15.631948001682758">
        <ele>1148.4300000000001</ele>
        <time>2013-09-05T10:28:49Z</time>
      </trkpt>
      <trkpt lat="50.758729996159673" lon="15.633783973753452">
        <ele>1138.3399999999999</ele>
        <time>2013-09-05T10:29:01Z</time>
      </trkpt>
      <trkpt lat="50.758686996996403" lon="15.633881958201528">
        <ele>1136.4200000000001</ele>
        <time>2013-09-05T10:29:02Z</time>
      </trkpt>
      <trkpt lat="50.758513994514942" lon="15.634288983419538">
        <ele>1133.53</ele>
        <time>2013-09-05T10:29:09Z</time>
      </trkpt>
      <trkpt lat="50.7585109770298" lon="15.634318990632892">
        <ele>1133.53</ele>
        <time>2013-09-05T10:29:10Z</time>
      </trkpt>
      <trkpt lat="50.75850997120142" lon="15.634347992017865">
        <ele>1133.53</ele>
        <time>2013-09-05T10:29:11Z</time>
      </trkpt>
      <trkpt lat="50.758508965373039" lon="15.634319996461272">
        <ele>1132.0899999999999</ele>
        <time>2013-09-05T10:29:24Z</time>
      </trkpt>
      <trkpt lat="50.757365003228188" lon="15.635606031864882">
        <ele>1127.28</ele>
        <time>2013-09-05T10:57:16Z</time>
      </trkpt>
      <trkpt lat="50.756912967190146" lon="15.636285971850157">
        <ele>1125.8399999999999</ele>
        <time>2013-09-05T10:57:21Z</time>
      </trkpt>
      <trkpt lat="50.756666036322713" lon="15.63678402453661">
        <ele>1127.28</ele>
        <time>2013-09-05T10:57:25Z</time>
      </trkpt>
      <trkpt lat="50.756590012460947" lon="15.636859964579344">
        <ele>1127.28</ele>
        <time>2013-09-05T10:57:26Z</time>
      </trkpt>
      <trkpt lat="50.756490016356111" lon="15.636897012591362">
        <ele>1127.76</ele>
        <time>2013-09-05T10:57:27Z</time>
      </trkpt>
      <trkpt lat="50.756395971402526" lon="15.636876979842782">
        <ele>1128.24</ele>
        <time>2013-09-05T10:57:28Z</time>
      </trkpt>
      <trkpt lat="50.756331011652946" lon="15.636791987344623">
        <ele>1128.24</ele>
        <time>2013-09-05T10:57:29Z</time>
      </trkpt>
      <trkpt lat="50.756269991397858" lon="15.636686962097883">
        <ele>1128.24</ele>
        <time>2013-09-05T10:57:30Z</time>
      </trkpt>
      <trkpt lat="50.756278960034251" lon="15.636544972658157">
        <ele>1128.73</ele>
        <time>2013-09-05T10:57:31Z</time>
      </trkpt>
      <trkpt lat="50.756342997774482" lon="15.636395020410419">
        <ele>1129.21</ele>
        <time>2013-09-05T10:57:32Z</time>
      </trkpt>
      <trkpt lat="50.756411980837584" lon="15.636232998222113">
        <ele>1129.21</ele>
        <time>2013-09-05T10:57:33Z</time>
      </trkpt>
      <trkpt lat="50.756484987214208" lon="15.636083967983723">
        <ele>1129.21</ele>
        <time>2013-09-05T10:57:34Z</time>
      </trkpt>
      <trkpt lat="50.756714986637235" lon="15.635472005233169">
        <ele>1129.6900000000001</ele>
        <time>2013-09-05T10:57:37Z</time>
      </trkpt>
      <trkpt lat="50.756767960265279" lon="15.635242005810142">
        <ele>1129.6900000000001</ele>
        <time>2013-09-05T10:57:38Z</time>
      </trkpt>
      <trkpt lat="50.756806014105678" lon="15.63500496558845">
        <ele>1129.6900000000001</ele>
        <time>2013-09-05T10:57:39Z</time>
      </trkpt>
      <trkpt lat="50.756924031302333" lon="15.634107012301683">
        <ele>1127.76</ele>
        <time>2013-09-05T10:57:43Z</time>
      </trkpt>
      <trkpt lat="50.756917996332049" lon="15.633867038413882">
        <ele>1127.28</ele>
        <time>2013-09-05T10:57:44Z</time>
      </trkpt>
      <trkpt lat="50.756911961361766" lon="15.633609965443611">
        <ele>1127.28</ele>
        <time>2013-09-05T10:57:45Z</time>
      </trkpt>
      <trkpt lat="50.756880026310682" lon="15.633366974070668">
        <ele>1126.8</ele>
        <time>2013-09-05T10:57:46Z</time>
      </trkpt>
      <trkpt lat="50.756869968026876" lon="15.633128006011248">
        <ele>1125.3599999999999</ele>
        <time>2013-09-05T10:57:47Z</time>
      </trkpt>
      <trkpt lat="50.756831998005509" lon="15.632907981052995">
        <ele>1123.4400000000001</ele>
        <time>2013-09-05T10:57:48Z</time>
      </trkpt>
      <trkpt lat="50.756786987185478" lon="15.632686028257012">
        <ele>1120.55</ele>
        <time>2013-09-05T10:57:49Z</time>
      </trkpt>
      <trkpt lat="50.756722027435899" lon="15.632491987198591">
        <ele>1117.6700000000001</ele>
        <time>2013-09-05T10:57:50Z</time>
      </trkpt>
      <trkpt lat="50.756651032716036" lon="15.632288977503777">
        <ele>1116.71</ele>
        <time>2013-09-05T10:57:51Z</time>
      </trkpt>
      <trkpt lat="50.756560005247593" lon="15.632094014436007">
        <ele>1114.79</ele>
        <time>2013-09-05T10:57:52Z</time>
      </trkpt>
      <trkpt lat="50.756452968344092" lon="15.631923023611307">
        <ele>1110.9400000000001</ele>
        <time>2013-09-05T10:57:53Z</time>
      </trkpt>
      <trkpt lat="50.756321037188172" lon="15.631763013079762">
        <ele>1109.5</ele>
        <time>2013-09-05T10:57:54Z</time>
      </trkpt>
      <trkpt lat="50.756193967536092" lon="15.631621023640037">
        <ele>1105.6500000000001</ele>
        <time>2013-09-05T10:57:55Z</time>
      </trkpt>
      <trkpt lat="50.756067987531424" lon="15.631481967866421">
        <ele>1102.29</ele>
        <time>2013-09-05T10:57:56Z</time>
      </trkpt>
      <trkpt lat="50.75520096346736" lon="15.63021101988852">
        <ele>1092.2</ele>
        <time>2013-09-05T10:58:03Z</time>
      </trkpt>
      <trkpt lat="50.75511496514082" lon="15.629972973838449">
        <ele>1091.23</ele>
        <time>2013-09-05T10:58:04Z</time>
      </trkpt>
      <trkpt lat="50.755053022876382" lon="15.629710033535957">
        <ele>1089.3099999999999</ele>
        <time>2013-09-05T10:58:05Z</time>
      </trkpt>
      <trkpt lat="50.755008012056351" lon="15.629446003586054">
        <ele>1088.3499999999999</ele>
        <time>2013-09-05T10:58:06Z</time>
      </trkpt>
      <trkpt lat="50.754960989579558" lon="15.628924984484911">
        <ele>1085.95</ele>
        <time>2013-09-05T10:58:08Z</time>
      </trkpt>
      <trkpt lat="50.754970964044333" lon="15.628667995333672">
        <ele>1085.47</ele>
        <time>2013-09-05T10:58:09Z</time>
      </trkpt>
      <trkpt lat="50.755004994571209" lon="15.628417041152716">
        <ele>1084.5</ele>
        <time>2013-09-05T10:58:10Z</time>
      </trkpt>
      <trkpt lat="50.755062997341156" lon="15.628168014809489">
        <ele>1083.54</ele>
        <time>2013-09-05T10:58:11Z</time>
      </trkpt>
      <trkpt lat="50.755144972354174" lon="15.627931980416179">
        <ele>1082.5799999999999</ele>
        <time>2013-09-05T10:58:12Z</time>
      </trkpt>
      <trkpt lat="50.755230970680714" lon="15.62769896350801">
        <ele>1081.1400000000001</ele>
        <time>2013-09-05T10:58:13Z</time>
      </trkpt>
      <trkpt lat="50.755327027291059" lon="15.62746200710535">
        <ele>1080.1800000000001</ele>
        <time>2013-09-05T10:58:14Z</time>
      </trkpt>
      <trkpt lat="50.756477024406195" lon="15.624914998188615">
        <ele>1066.72</ele>
        <time>2013-09-05T10:58:25Z</time>
      </trkpt>
      <trkpt lat="50.757500035688281" lon="15.622195992618799">
        <ele>1051.8199999999999</ele>
        <time>2013-09-05T10:58:36Z</time>
      </trkpt>
      <trkpt lat="50.757561977952719" lon="15.621935985982418">
        <ele>1050.8599999999999</ele>
        <time>2013-09-05T10:58:37Z</time>
      </trkpt>
      <trkpt lat="50.757612017914653" lon="15.621663993224502">
        <ele>1048.9400000000001</ele>
        <time>2013-09-05T10:58:38Z</time>
      </trkpt>
      <trkpt lat="50.757783008739352" lon="15.619371961802244">
        <ele>1042.6900000000001</ele>
        <time>2013-09-05T10:58:46Z</time>
      </trkpt>
      <trkpt lat="50.757837994024158" lon="15.618868041783571">
        <ele>1041.25</ele>
        <time>2013-09-05T10:58:48Z</time>
      </trkpt>
      <trkpt lat="50.757873030379415" lon="15.618656985461712">
        <ele>1040.28</ele>
        <time>2013-09-05T10:58:49Z</time>
      </trkpt>
      <trkpt lat="50.757915023714304" lon="15.61847903765738">
        <ele>1039.8</ele>
        <time>2013-09-05T10:58:50Z</time>
      </trkpt>
      <trkpt lat="50.757988030090928" lon="15.618163039907813">
        <ele>1038.3599999999999</ele>
        <time>2013-09-05T10:58:52Z</time>
      </trkpt>
      <trkpt lat="50.758001022040844" lon="15.61802800744772">
        <ele>1037.8800000000001</ele>
        <time>2013-09-05T10:58:53Z</time>
      </trkpt>
      <trkpt lat="50.757957017049193" lon="15.6179219763726">
        <ele>1037.8800000000001</ele>
        <time>2013-09-05T10:58:54Z</time>
      </trkpt>
      <trkpt lat="50.75788501650095" lon="15.617837989702821">
        <ele>1037.8800000000001</ele>
        <time>2013-09-05T10:58:55Z</time>
      </trkpt>
      <trkpt lat="50.75777898542583" lon="15.617828015238047">
        <ele>1037.8800000000001</ele>
        <time>2013-09-05T10:58:56Z</time>
      </trkpt>
      <trkpt lat="50.7576700206846" lon="15.617918036878109">
        <ele>1037.8800000000001</ele>
        <time>2013-09-05T10:58:57Z</time>
      </trkpt>
      <trkpt lat="50.757579999044538" lon="15.618077041581273">
        <ele>1037.8800000000001</ele>
        <time>2013-09-05T10:58:58Z</time>
      </trkpt>
      <trkpt lat="50.757503975182772" lon="15.61826303601265">
        <ele>1034.04</ele>
        <time>2013-09-05T10:58:59Z</time>
      </trkpt>
      <trkpt lat="50.757415965199471" lon="15.618453975766897">
        <ele>1032.5899999999999</ele>
        <time>2013-09-05T10:59:00Z</time>
      </trkpt>
      <trkpt lat="50.756593029946089" lon="15.620300006121397">
        <ele>1019.13</ele>
        <time>2013-09-05T10:59:08Z</time>
      </trkpt>
      <trkpt lat="50.755964973941445" lon="15.621920982375741">
        <ele>1011.9299999999999</ele>
        <time>2013-09-05T10:59:15Z</time>
      </trkpt>
      <trkpt lat="50.755859026685357" lon="15.622058026492596">
        <ele>1010.96</ele>
        <time>2013-09-05T10:59:16Z</time>
      </trkpt>
      <trkpt lat="50.75571795925498" lon="15.6221769656986">
        <ele>1010.96</ele>
        <time>2013-09-05T10:59:17Z</time>
      </trkpt>
      <trkpt lat="50.755554009228945" lon="15.622265981510282">
        <ele>1010.48</ele>
        <time>2013-09-05T10:59:18Z</time>
      </trkpt>
      <trkpt lat="50.755396010354161" lon="15.622356003150344">
        <ele>1010</ele>
        <time>2013-09-05T10:59:19Z</time>
      </trkpt>
      <trkpt lat="50.753704961389303" lon="15.623391000553966">
        <ele>1006.64</ele>
        <time>2013-09-05T10:59:29Z</time>
      </trkpt>
      <trkpt lat="50.752617996186018" lon="15.624416023492813">
        <ele>1006.64</ele>
        <time>2013-09-05T10:59:36Z</time>
      </trkpt>
      <trkpt lat="50.752491010352969" lon="15.624648034572601">
        <ele>1004.72</ele>
        <time>2013-09-05T10:59:37Z</time>
      </trkpt>
      <trkpt lat="50.752415992319584" lon="15.624893037602305">
        <ele>998.47000000000003</ele>
        <time>2013-09-05T10:59:38Z</time>
      </trkpt>
      <trkpt lat="50.752333011478186" lon="15.625125970691442">
        <ele>996.53999999999996</ele>
        <time>2013-09-05T10:59:39Z</time>
      </trkpt>
      <trkpt lat="50.752265034243464" lon="15.625365022569895">
        <ele>995.58000000000004</ele>
        <time>2013-09-05T10:59:40Z</time>
      </trkpt>
      <trkpt lat="50.75221499428153" lon="15.625569960102439">
        <ele>994.13999999999999</ele>
        <time>2013-09-05T10:59:41Z</time>
      </trkpt>
      <trkpt lat="50.752177024260163" lon="15.62576400116086">
        <ele>992.22000000000003</ele>
        <time>2013-09-05T10:59:42Z</time>
      </trkpt>
      <trkpt lat="50.75215196236968" lon="15.625941026955843">
        <ele>991.25999999999999</ele>
        <time>2013-09-05T10:59:43Z</time>
      </trkpt>
      <trkpt lat="50.752133019268513" lon="15.626101959496737">
        <ele>990.77999999999997</ele>
        <time>2013-09-05T10:59:44Z</time>
      </trkpt>
      <trkpt lat="50.752113992348313" lon="15.626224000006914">
        <ele>989.33000000000004</ele>
        <time>2013-09-05T10:59:45Z</time>
      </trkpt>
      <trkpt lat="50.752082979306579" lon="15.626312009990215">
        <ele>988.85000000000002</ele>
        <time>2013-09-05T10:59:46Z</time>
      </trkpt>
      <trkpt lat="50.752015002071857" lon="15.626335982233286">
        <ele>988.85000000000002</ele>
        <time>2013-09-05T10:59:47Z</time>
      </trkpt>
      <trkpt lat="50.751946019008756" lon="15.626307986676693">
        <ele>988.85000000000002</ele>
        <time>2013-09-05T10:59:48Z</time>
      </trkpt>
      <trkpt lat="50.751876030117273" lon="15.626207990571856">
        <ele>988.85000000000002</ele>
        <time>2013-09-05T10:59:49Z</time>
      </trkpt>
      <trkpt lat="50.751838982105255" lon="15.626069018617272">
        <ele>988.85000000000002</ele>
        <time>2013-09-05T10:59:50Z</time>
      </trkpt>
      <trkpt lat="50.751821966841817" lon="15.625894004479051">
        <ele>988.37</ele>
        <time>2013-09-05T10:59:51Z</time>
      </trkpt>
      <trkpt lat="50.751816015690565" lon="15.625690994784236">
        <ele>987.88999999999999</ele>
        <time>2013-09-05T10:59:52Z</time>
      </trkpt>
      <trkpt lat="50.751822972670197" lon="15.62546200118959">
        <ele>987.40999999999997</ele>
        <time>2013-09-05T10:59:53Z</time>
      </trkpt>
      <trkpt lat="50.751814004033804" lon="15.625212974846363">
        <ele>986.45000000000005</ele>
        <time>2013-09-05T10:59:54Z</time>
      </trkpt>
      <trkpt lat="50.751853985711932" lon="15.623568026348948">
        <ele>982.12</ele>
        <time>2013-09-05T11:00:00Z</time>
      </trkpt>
      <trkpt lat="50.751930009573698" lon="15.62329301610589">
        <ele>980.67999999999995</ele>
        <time>2013-09-05T11:00:01Z</time>
      </trkpt>
      <trkpt lat="50.752005027607083" lon="15.623024040833116">
        <ele>979.72000000000003</ele>
        <time>2013-09-05T11:00:02Z</time>
      </trkpt>
      <trkpt lat="50.752081973478198" lon="15.622763028368354">
        <ele>978.75999999999999</ele>
        <time>2013-09-05T11:00:03Z</time>
      </trkpt>
      <trkpt lat="50.752160008996725" lon="15.622492963448167">
        <ele>977.79999999999995</ele>
        <time>2013-09-05T11:00:04Z</time>
      </trkpt>
      <trkpt lat="50.752597041428089" lon="15.621505994349718">
        <ele>974.42999999999995</ele>
        <time>2013-09-05T11:00:08Z</time>
      </trkpt>
      <trkpt lat="50.753681994974613" lon="15.619899015873671">
        <ele>967.70000000000005</ele>
        <time>2013-09-05T11:00:16Z</time>
      </trkpt>
      <trkpt lat="50.753893973305821" lon="15.619526021182537">
        <ele>966.25999999999999</ele>
        <time>2013-09-05T11:00:18Z</time>
      </trkpt>
      <trkpt lat="50.753965973854065" lon="15.619324017316103">
        <ele>965.29999999999995</ele>
        <time>2013-09-05T11:00:19Z</time>
      </trkpt>
      <trkpt lat="50.754002016037703" lon="15.61908102594316">
        <ele>964.82000000000005</ele>
        <time>2013-09-05T11:00:20Z</time>
      </trkpt>
      <trkpt lat="50.753995981067419" lon="15.618842979893088">
        <ele>964.82000000000005</ele>
        <time>2013-09-05T11:00:21Z</time>
      </trkpt>
      <trkpt lat="50.753980977460742" lon="15.618605017662048">
        <ele>964.34000000000003</ele>
        <time>2013-09-05T11:00:22Z</time>
      </trkpt>
      <trkpt lat="50.753966979682446" lon="15.6183519680053">
        <ele>963.38</ele>
        <time>2013-09-05T11:00:23Z</time>
      </trkpt>
      <trkpt lat="50.753645030781627" lon="15.61654600314796">
        <ele>958.09000000000003</ele>
        <time>2013-09-05T11:00:30Z</time>
      </trkpt>
      <trkpt lat="50.753646036610007" lon="15.616318015381694">
        <ele>957.61000000000001</ele>
        <time>2013-09-05T11:00:31Z</time>
      </trkpt>
      <trkpt lat="50.753683000802994" lon="15.616079969331622">
        <ele>957.13</ele>
        <time>2013-09-05T11:00:32Z</time>
      </trkpt>
      <trkpt lat="50.75376195833087" lon="15.615835972130299">
        <ele>956.16999999999996</ele>
        <time>2013-09-05T11:00:33Z</time>
      </trkpt>
      <trkpt lat="50.753821972757578" lon="15.615621982142329">
        <ele>955.69000000000005</ele>
        <time>2013-09-05T11:00:34Z</time>
      </trkpt>
      <trkpt lat="50.753992041572928" lon="15.615247981622815">
        <ele>954.73000000000002</ele>
        <time>2013-09-05T11:00:36Z</time>
      </trkpt>
      <trkpt lat="50.754084996879101" lon="15.615066010504961">
        <ele>954.25</ele>
        <time>2013-09-05T11:00:37Z</time>
      </trkpt>
      <trkpt lat="50.754193039610982" lon="15.614905999973416">
        <ele>953.76999999999998</ele>
        <time>2013-09-05T11:00:38Z</time>
      </trkpt>
      <trkpt lat="50.754435025155544" lon="15.614628978073597">
        <ele>952.32000000000005</ele>
        <time>2013-09-05T11:00:40Z</time>
      </trkpt>
      <trkpt lat="50.754583971574903" lon="15.61452797614038">
        <ele>951.84000000000003</ele>
        <time>2013-09-05T11:00:41Z</time>
      </trkpt>
      <trkpt lat="50.754717998206615" lon="15.614438960328698">
        <ele>950.88</ele>
        <time>2013-09-05T11:00:42Z</time>
      </trkpt>
      <trkpt lat="50.75485797598958" lon="15.61437601223588">
        <ele>950.39999999999998</ele>
        <time>2013-09-05T11:00:43Z</time>
      </trkpt>
      <trkpt lat="50.754982028156519" lon="15.614321026951075">
        <ele>950.39999999999998</ele>
        <time>2013-09-05T11:00:44Z</time>
      </trkpt>
      <trkpt lat="50.755504975095391" lon="15.614017015323043">
        <ele>948.96000000000004</ele>
        <time>2013-09-05T11:00:49Z</time>
      </trkpt>
      <trkpt lat="50.755531964823604" lon="15.613805959001184">
        <ele>948.48000000000002</ele>
        <time>2013-09-05T11:00:50Z</time>
      </trkpt>
      <trkpt lat="50.7555459626019" lon="15.613653995096684">
        <ele>949.44000000000005</ele>
        <time>2013-09-05T11:00:51Z</time>
      </trkpt>
      <trkpt lat="50.755454013124108" lon="15.613527009263635">
        <ele>948</ele>
        <time>2013-09-05T11:00:52Z</time>
      </trkpt>
      <trkpt lat="50.755360973998904" lon="15.613422989845276">
        <ele>947.51999999999998</ele>
        <time>2013-09-05T11:00:53Z</time>
      </trkpt>
      <trkpt lat="50.755239017307758" lon="15.613329028710723">
        <ele>947.51999999999998</ele>
        <time>2013-09-05T11:00:54Z</time>
      </trkpt>
      <trkpt lat="50.755099039524794" lon="15.61325803399086">
        <ele>947.03999999999996</ele>
        <time>2013-09-05T11:00:55Z</time>
      </trkpt>
      <trkpt lat="50.754929976537824" lon="15.613204976543784">
        <ele>946.55999999999995</ele>
        <time>2013-09-05T11:00:56Z</time>
      </trkpt>
      <trkpt lat="50.754769966006279" lon="15.613154014572501">
        <ele>946.07000000000005</ele>
        <time>2013-09-05T11:00:57Z</time>
      </trkpt>
      <trkpt lat="50.754306027665734" lon="15.612901970744133">
        <ele>946.07000000000005</ele>
        <time>2013-09-05T11:01:00Z</time>
      </trkpt>
      <trkpt lat="50.754160014912486" lon="15.612790994346142">
        <ele>945.59000000000003</ele>
        <time>2013-09-05T11:01:01Z</time>
      </trkpt>
      <trkpt lat="50.753919035196304" lon="15.612514978274703">
        <ele>945.11000000000001</ele>
        <time>2013-09-05T11:01:03Z</time>
      </trkpt>
      <trkpt lat="50.753822978585958" lon="15.612362008541822">
        <ele>942.23000000000002</ele>
        <time>2013-09-05T11:01:04Z</time>
      </trkpt>
      <trkpt lat="50.753733040764928" lon="15.612175008282065">
        <ele>942.23000000000002</ele>
        <time>2013-09-05T11:01:05Z</time>
      </trkpt>
      <trkpt lat="50.753690963611007" lon="15.611956994980574">
        <ele>941.75</ele>
        <time>2013-09-05T11:01:06Z</time>
      </trkpt>
      <trkpt lat="50.753670008853078" lon="15.61173202469945">
        <ele>940.30999999999995</ele>
        <time>2013-09-05T11:01:07Z</time>
      </trkpt>
      <trkpt lat="50.753657016903162" lon="15.611502025276423">
        <ele>939.83000000000004</ele>
        <time>2013-09-05T11:01:08Z</time>
      </trkpt>
      <trkpt lat="50.75365299358964" lon="15.611275965347886">
        <ele>939.35000000000002</ele>
        <time>2013-09-05T11:01:09Z</time>
      </trkpt>
      <trkpt lat="50.753664979711175" lon="15.611062981188297">
        <ele>938.86000000000001</ele>
        <time>2013-09-05T11:01:10Z</time>
      </trkpt>
      <trkpt lat="50.753689035773277" lon="15.610847985371947">
        <ele>938.38</ele>
        <time>2013-09-05T11:01:11Z</time>
      </trkpt>
      <trkpt lat="50.753712002187967" lon="15.610633995383978">
        <ele>937.89999999999998</ele>
        <time>2013-09-05T11:01:12Z</time>
      </trkpt>
      <trkpt lat="50.753731029108167" lon="15.609985990449786">
        <ele>936.46000000000004</ele>
        <time>2013-09-05T11:01:15Z</time>
      </trkpt>
      <trkpt lat="50.753666991367936" lon="15.609826985746622">
        <ele>935.98000000000002</ele>
        <time>2013-09-05T11:01:16Z</time>
      </trkpt>
      <trkpt lat="50.753615023568273" lon="15.609688013792038">
        <ele>935.5</ele>
        <time>2013-09-05T11:01:17Z</time>
      </trkpt>
      <trkpt lat="50.753542017191648" lon="15.609595980495214">
        <ele>934.05999999999995</ele>
        <time>2013-09-05T11:01:18Z</time>
      </trkpt>
      <trkpt lat="50.75343900360167" lon="15.609546024352312">
        <ele>934.05999999999995</ele>
        <time>2013-09-05T11:01:19Z</time>
      </trkpt>
      <trkpt lat="50.753335990011692" lon="15.609528003260493">
        <ele>933.58000000000004</ele>
        <time>2013-09-05T11:01:20Z</time>
      </trkpt>
      <trkpt lat="50.75322300195694" lon="15.609546024352312">
        <ele>933.10000000000002</ele>
        <time>2013-09-05T11:01:21Z</time>
      </trkpt>
      <trkpt lat="50.753092998638749" lon="15.609611989930272">
        <ele>933.10000000000002</ele>
        <time>2013-09-05T11:01:22Z</time>
      </trkpt>
      <trkpt lat="50.752956960350275" lon="15.609722966328263">
        <ele>932.13999999999999</ele>
        <time>2013-09-05T11:01:23Z</time>
      </trkpt>
      <trkpt lat="50.752846989780664" lon="15.609838971868157">
        <ele>931.64999999999998</ele>
        <time>2013-09-05T11:01:24Z</time>
      </trkpt>
      <trkpt lat="50.752725033089519" lon="15.609942991286516">
        <ele>930.69000000000005</ele>
        <time>2013-09-05T11:01:25Z</time>
      </trkpt>
      <trkpt lat="50.752595029771328" lon="15.610026977956295">
        <ele>929.73000000000002</ele>
        <time>2013-09-05T11:01:26Z</time>
      </trkpt>
      <trkpt lat="50.752434013411403" lon="15.6100819632411">
        <ele>929.25</ele>
        <time>2013-09-05T11:01:27Z</time>
      </trkpt>
      <trkpt lat="50.752238966524601" lon="15.610105013474822">
        <ele>927.80999999999995</ele>
        <time>2013-09-05T11:01:28Z</time>
      </trkpt>
      <trkpt lat="50.75206303037703" lon="15.610130997374654">
        <ele>926.37</ele>
        <time>2013-09-05T11:01:29Z</time>
      </trkpt>
      <trkpt lat="50.75189396739006" lon="15.610129991546273">
        <ele>924.92999999999995</ele>
        <time>2013-09-05T11:01:30Z</time>
      </trkpt>
      <trkpt lat="50.751725994050503" lon="15.61012202873826">
        <ele>923.48000000000002</ele>
        <time>2013-09-05T11:01:31Z</time>
      </trkpt>
      <trkpt lat="50.750137036666274" lon="15.610243985429406">
        <ele>908.58000000000004</ele>
        <time>2013-09-05T11:01:39Z</time>
      </trkpt>
      <trkpt lat="50.748042985796928" lon="15.610612034797668">
        <ele>885.99000000000001</ele>
        <time>2013-09-05T11:01:49Z</time>
      </trkpt>
      <trkpt lat="50.747286016121507" lon="15.610469961538911">
        <ele>879.74000000000001</ele>
        <time>2013-09-05T11:01:53Z</time>
      </trkpt>
      <trkpt lat="50.747131034731865" lon="15.610365020111203">
        <ele>878.29999999999995</ele>
        <time>2013-09-05T11:01:54Z</time>
      </trkpt>
      <trkpt lat="50.747062973678112" lon="15.610054973512888">
        <ele>875.41999999999996</ele>
        <time>2013-09-05T11:01:55Z</time>
      </trkpt>
      <trkpt lat="50.746955014765263" lon="15.60980100184679">
        <ele>871.09000000000003</ele>
        <time>2013-09-05T11:01:56Z</time>
      </trkpt>
      <trkpt lat="50.746867004781961" lon="15.609534038230777">
        <ele>868.69000000000005</ele>
        <time>2013-09-05T11:01:57Z</time>
      </trkpt>
      <trkpt lat="50.746327964589" lon="15.608093021437526">
        <ele>855.23000000000002</ele>
        <time>2013-09-05T11:02:03Z</time>
      </trkpt>
      <trkpt lat="50.746272979304194" lon="15.607827985659242">
        <ele>852.35000000000002</ele>
        <time>2013-09-05T11:02:04Z</time>
      </trkpt>
      <trkpt lat="50.746231991797686" lon="15.607558004558086">
        <ele>850.41999999999996</ele>
        <time>2013-09-05T11:02:05Z</time>
      </trkpt>
      <trkpt lat="50.74613400734961" lon="15.606494005769491">
        <ele>840.80999999999995</ele>
        <time>2013-09-05T11:02:09Z</time>
      </trkpt>
      <trkpt lat="50.746131995692849" lon="15.606237016618252">
        <ele>837.92999999999995</ele>
        <time>2013-09-05T11:02:10Z</time>
      </trkpt>
      <trkpt lat="50.746165020391345" lon="15.605990001931787">
        <ele>835.51999999999998</ele>
        <time>2013-09-05T11:02:11Z</time>
      </trkpt>
      <trkpt lat="50.746248001232743" lon="15.605506030842662">
        <ele>831.20000000000005</ele>
        <time>2013-09-05T11:02:13Z</time>
      </trkpt>
      <trkpt lat="50.746313966810703" lon="15.605265973135829">
        <ele>829.26999999999998</ele>
        <time>2013-09-05T11:02:14Z</time>
      </trkpt>
      <trkpt lat="50.746386973187327" lon="15.605028010904789">
        <ele>826.87</ele>
        <time>2013-09-05T11:02:15Z</time>
      </trkpt>
      <trkpt lat="50.747150983661413" lon="15.60296799056232">
        <ele>811.00999999999999</ele>
        <time>2013-09-05T11:02:23Z</time>
      </trkpt>
      <trkpt lat="50.747948018833995" lon="15.601137969642878">
        <ele>794.19000000000005</ele>
        <time>2013-09-05T11:02:32Z</time>
      </trkpt>
      <trkpt lat="50.748110041022301" lon="15.600651986896992">
        <ele>788.41999999999996</ele>
        <time>2013-09-05T11:02:35Z</time>
      </trkpt>
      <trkpt lat="50.748124960809946" lon="15.600490970537066">
        <ele>788.41999999999996</ele>
        <time>2013-09-05T11:02:36Z</time>
      </trkpt>
      <trkpt lat="50.748115992173553" lon="15.600338000804186">
        <ele>787.46000000000004</ele>
        <time>2013-09-05T11:02:37Z</time>
      </trkpt>
      <trkpt lat="50.748048014938831" lon="15.600195005536079">
        <ele>784.09000000000003</ele>
        <time>2013-09-05T11:02:40Z</time>
      </trkpt>
      <trkpt lat="50.747940978035331" lon="15.60039097443223">
        <ele>782.64999999999998</ele>
        <time>2013-09-05T11:02:41Z</time>
      </trkpt>
      <trkpt lat="50.74785397388041" lon="15.600579986348748">
        <ele>781.69000000000005</ele>
        <time>2013-09-05T11:02:42Z</time>
      </trkpt>
      <trkpt lat="50.74776696972549" lon="15.600815014913678">
        <ele>781.69000000000005</ele>
        <time>2013-09-05T11:02:43Z</time>
      </trkpt>
      <trkpt lat="50.747684994712472" lon="15.601029004901648">
        <ele>780.73000000000002</ele>
        <time>2013-09-05T11:02:44Z</time>
      </trkpt>
      <trkpt lat="50.747593967244029" lon="15.601269984617829">
        <ele>780.25</ele>
        <time>2013-09-05T11:02:45Z</time>
      </trkpt>
      <trkpt lat="50.747453989461064" lon="15.601465031504631">
        <ele>779.28999999999996</ele>
        <time>2013-09-05T11:02:46Z</time>
      </trkpt>
      <trkpt lat="50.747317029163241" lon="15.601694025099277">
        <ele>778.32000000000005</ele>
        <time>2013-09-05T11:02:47Z</time>
      </trkpt>
      <trkpt lat="50.745774004608393" lon="15.604039030149579">
        <ele>768.71000000000004</ele>
        <time>2013-09-05T11:02:58Z</time>
      </trkpt>
      <trkpt lat="50.744246989488602" lon="15.606009028851986">
        <ele>760.53999999999996</ele>
        <time>2013-09-05T11:03:08Z</time>
      </trkpt>
      <trkpt lat="50.743157006800175" lon="15.606971019878983">
        <ele>759.10000000000002</ele>
        <time>2013-09-05T11:03:15Z</time>
      </trkpt>
      <trkpt lat="50.743046030402184" lon="15.607146034017205">
        <ele>758.62</ele>
        <time>2013-09-05T11:03:16Z</time>
      </trkpt>
      <trkpt lat="50.742947962135077" lon="15.607333034276962">
        <ele>758.13999999999999</ele>
        <time>2013-09-05T11:03:17Z</time>
      </trkpt>
      <trkpt lat="50.742861041799188" lon="15.607551969587803">
        <ele>759.10000000000002</ele>
        <time>2013-09-05T11:03:18Z</time>
      </trkpt>
      <trkpt lat="50.742784012109041" lon="15.607769982889295">
        <ele>760.05999999999995</ele>
        <time>2013-09-05T11:03:19Z</time>
      </trkpt>
      <trkpt lat="50.742471031844616" lon="15.608628960326314">
        <ele>762.46000000000004</ele>
        <time>2013-09-05T11:03:24Z</time>
      </trkpt>
      <trkpt lat="50.742388973012567" lon="15.608746977522969">
        <ele>761.98000000000002</ele>
        <time>2013-09-05T11:03:25Z</time>
      </trkpt>
      <trkpt lat="50.742314038798213" lon="15.608838004991412">
        <ele>761.5</ele>
        <time>2013-09-05T11:03:26Z</time>
      </trkpt>
      <trkpt lat="50.742228040471673" lon="15.608932971954346">
        <ele>761.01999999999998</ele>
        <time>2013-09-05T11:03:27Z</time>
      </trkpt>
      <trkpt lat="50.742133995518088" lon="15.609002038836479">
        <ele>760.53999999999996</ele>
        <time>2013-09-05T11:03:28Z</time>
      </trkpt>
      <trkpt lat="50.742039028555155" lon="15.609041014686227">
        <ele>759.58000000000004</ele>
        <time>2013-09-05T11:03:29Z</time>
      </trkpt>
      <trkpt lat="50.741958981379867" lon="15.609041014686227">
        <ele>759.10000000000002</ele>
        <time>2013-09-05T11:03:30Z</time>
      </trkpt>
      <trkpt lat="50.741859991103411" lon="15.608957028016448">
        <ele>758.13999999999999</ele>
        <time>2013-09-05T11:03:31Z</time>
      </trkpt>
      <trkpt lat="50.741751026362181" lon="15.608806991949677">
        <ele>757.17999999999995</ele>
        <time>2013-09-05T11:03:32Z</time>
      </trkpt>
      <trkpt lat="50.741632003337145" lon="15.608679000288248">
        <ele>756.21000000000004</ele>
        <time>2013-09-05T11:03:33Z</time>
      </trkpt>
      <trkpt lat="50.741519015282393" lon="15.608557965606451">
        <ele>755.25</ele>
        <time>2013-09-05T11:03:34Z</time>
      </trkpt>
      <trkpt lat="50.741278035566211" lon="15.608312040567398">
        <ele>753.33000000000004</ele>
        <time>2013-09-05T11:03:36Z</time>
      </trkpt>
      <trkpt lat="50.741132022812963" lon="15.608224030584097">
        <ele>751.88999999999999</ele>
        <time>2013-09-05T11:03:37Z</time>
      </trkpt>
      <trkpt lat="50.739738028496504" lon="15.607650959864259">
        <ele>742.75999999999999</ele>
        <time>2013-09-05T11:03:46Z</time>
      </trkpt>
      <trkpt lat="50.738188968971372" lon="15.60754400677979">
        <ele>736.02999999999997</ele>
        <time>2013-09-05T11:03:55Z</time>
      </trkpt>
      <trkpt lat="50.736846020445228" lon="15.608010962605476">
        <ele>728.82000000000005</ele>
        <time>2013-09-05T11:04:04Z</time>
      </trkpt>
      <trkpt lat="50.735823009163141" lon="15.608562994748354">
        <ele>722.57000000000005</ele>
        <time>2013-09-05T11:04:13Z</time>
      </trkpt>
      <trkpt lat="50.734826987609267" lon="15.60868201777339">
        <ele>716.79999999999995</ele>
        <time>2013-09-05T11:04:22Z</time>
      </trkpt>
      <trkpt lat="50.733527960255742" lon="15.608537010848522">
        <ele>709.11000000000001</ele>
        <time>2013-09-05T11:04:33Z</time>
      </trkpt>
      <trkpt lat="50.731960041448474" lon="15.608888966962695">
        <ele>700.94000000000005</ele>
        <time>2013-09-05T11:04:45Z</time>
      </trkpt>
      <trkpt lat="50.731818974018097" lon="15.608858037739992">
        <ele>699.98000000000002</ele>
        <time>2013-09-05T11:04:46Z</time>
      </trkpt>
      <trkpt lat="50.731697017326951" lon="15.608778996393085">
        <ele>699.5</ele>
        <time>2013-09-05T11:04:47Z</time>
      </trkpt>
      <trkpt lat="50.731572965160012" lon="15.60868302360177">
        <ele>699.01999999999998</ele>
        <time>2013-09-05T11:04:48Z</time>
      </trkpt>
      <trkpt lat="50.73146098293364" lon="15.608556037768722">
        <ele>698.52999999999997</ele>
        <time>2013-09-05T11:04:49Z</time>
      </trkpt>
      <trkpt lat="50.731358975172043" lon="15.608415976166725">
        <ele>697.57000000000005</ele>
        <time>2013-09-05T11:04:50Z</time>
      </trkpt>
      <trkpt lat="50.731270965188742" lon="15.608260994777083">
        <ele>697.09000000000003</ele>
        <time>2013-09-05T11:04:51Z</time>
      </trkpt>
      <trkpt lat="50.73105102404952" lon="15.608100984245539">
        <ele>695.64999999999998</ele>
        <time>2013-09-05T11:04:53Z</time>
      </trkpt>
      <trkpt lat="50.73092102073133" lon="15.60808103531599">
        <ele>695.16999999999996</ele>
        <time>2013-09-05T11:04:54Z</time>
      </trkpt>
      <trkpt lat="50.730797974392772" lon="15.608122022822499">
        <ele>694.21000000000004</ele>
        <time>2013-09-05T11:04:55Z</time>
      </trkpt>
      <trkpt lat="50.730667971074581" lon="15.608180025592446">
        <ele>694.21000000000004</ele>
        <time>2013-09-05T11:04:56Z</time>
      </trkpt>
      <trkpt lat="50.730547020211816" lon="15.608244985342026">
        <ele>693.73000000000002</ele>
        <time>2013-09-05T11:04:57Z</time>
      </trkpt>
      <trkpt lat="50.72963397949934" lon="15.608524018898606">
        <ele>702.38</ele>
        <time>2013-09-05T11:05:04Z</time>
      </trkpt>
      <trkpt lat="50.729182027280331" lon="15.608608005568385">
        <ele>704.29999999999995</ele>
        <time>2013-09-05T11:05:08Z</time>
      </trkpt>
      <trkpt lat="50.729068033397198" lon="15.608579004183412">
        <ele>703.82000000000005</ele>
        <time>2013-09-05T11:05:09Z</time>
      </trkpt>
      <trkpt lat="50.728949010372162" lon="15.608551008626819">
        <ele>703.34000000000003</ele>
        <time>2013-09-05T11:05:10Z</time>
      </trkpt>
      <trkpt lat="50.728833004832268" lon="15.608515972271562">
        <ele>703.34000000000003</ele>
        <time>2013-09-05T11:05:11Z</time>
      </trkpt>
      <trkpt lat="50.728727979585528" lon="15.608466016128659">
        <ele>703.34000000000003</ele>
        <time>2013-09-05T11:05:12Z</time>
      </trkpt>
      <trkpt lat="50.728393038734794" lon="15.608248002827168">
        <ele>702.38</ele>
        <time>2013-09-05T11:05:15Z</time>
      </trkpt>
      <trkpt lat="50.727631039917469" lon="15.607408974319696">
        <ele>699.01999999999998</ele>
        <time>2013-09-05T11:05:23Z</time>
      </trkpt>
      <trkpt lat="50.726423040032387" lon="15.606680000200868">
        <ele>695.16999999999996</ele>
        <time>2013-09-05T11:05:34Z</time>
      </trkpt>
      <trkpt lat="50.72535702958703" lon="15.606420999392867">
        <ele>695.64999999999998</ele>
        <time>2013-09-05T11:05:43Z</time>
      </trkpt>
      <trkpt lat="50.72527103126049" lon="15.606354027986526">
        <ele>695.16999999999996</ele>
        <time>2013-09-05T11:05:44Z</time>
      </trkpt>
      <trkpt lat="50.725178997963667" lon="15.606290996074677">
        <ele>694.69000000000005</ele>
        <time>2013-09-05T11:05:45Z</time>
      </trkpt>
      <trkpt lat="50.72509903460741" lon="15.606216983869672">
        <ele>694.69000000000005</ele>
        <time>2013-09-05T11:05:46Z</time>
      </trkpt>
      <trkpt lat="50.725027034059167" lon="15.606140960007906">
        <ele>694.21000000000004</ele>
        <time>2013-09-05T11:05:47Z</time>
      </trkpt>
      <trkpt lat="50.724965007975698" lon="15.606048004701734">
        <ele>694.21000000000004</ele>
        <time>2013-09-05T11:05:48Z</time>
      </trkpt>
      <trkpt lat="50.724911028519273" lon="15.60595496557653">
        <ele>694.69000000000005</ele>
        <time>2013-09-05T11:05:49Z</time>
      </trkpt>
      <trkpt lat="50.724874986335635" lon="15.605870978906751">
        <ele>695.16999999999996</ele>
        <time>2013-09-05T11:05:50Z</time>
      </trkpt>
      <trkpt lat="50.724841961637139" lon="15.605810964480042">
        <ele>694.69000000000005</ele>
        <time>2013-09-05T11:05:51Z</time>
      </trkpt>
      <trkpt lat="50.724802985787392" lon="15.605734018608928">
        <ele>698.04999999999995</ele>
        <time>2013-09-05T11:05:58Z</time>
      </trkpt>
      <trkpt lat="50.724684968590736" lon="15.60545900836587">
        <ele>698.04999999999995</ele>
        <time>2013-09-05T11:06:29Z</time>
      </trkpt>
      <trkpt lat="50.724478019401431" lon="15.604910999536514">
        <ele>699.01999999999998</ele>
        <time>2013-09-05T11:06:33Z</time>
      </trkpt>
      <trkpt lat="50.724422028288245" lon="15.604745037853718">
        <ele>699.01999999999998</ele>
        <time>2013-09-05T11:06:34Z</time>
      </trkpt>
      <trkpt lat="50.724395038560033" lon="15.604566000401974">
        <ele>699.01999999999998</ele>
        <time>2013-09-05T11:06:35Z</time>
      </trkpt>
      <trkpt lat="50.724371988326311" lon="15.6043850351125">
        <ele>699.01999999999998</ele>
        <time>2013-09-05T11:06:36Z</time>
      </trkpt>
      <trkpt lat="50.724377017468214" lon="15.604198034852743">
        <ele>698.52999999999997</ele>
        <time>2013-09-05T11:06:37Z</time>
      </trkpt>
      <trkpt lat="50.724403001368046" lon="15.604003993794322">
        <ele>699.01999999999998</ele>
        <time>2013-09-05T11:06:38Z</time>
      </trkpt>
      <trkpt lat="50.724443988874555" lon="15.603807019069791">
        <ele>699.01999999999998</ele>
        <time>2013-09-05T11:06:39Z</time>
      </trkpt>
      <trkpt lat="50.724492017179728" lon="15.603605015203357">
        <ele>699.5</ele>
        <time>2013-09-05T11:06:40Z</time>
      </trkpt>
      <trkpt lat="50.725005995482206" lon="15.601300997659564">
        <ele>693.73000000000002</ele>
        <time>2013-09-05T11:06:51Z</time>
      </trkpt>
      <trkpt lat="50.725118983536959" lon="15.600255019962788">
        <ele>692.28999999999996</ele>
        <time>2013-09-05T11:06:56Z</time>
      </trkpt>
      <trkpt lat="50.72510096244514" lon="15.599827039986849">
        <ele>690.84000000000003</ele>
        <time>2013-09-05T11:06:58Z</time>
      </trkpt>
      <trkpt lat="50.72475403547287" lon="15.598021997138858">
        <ele>687.48000000000002</ele>
        <time>2013-09-05T11:07:07Z</time>
      </trkpt>
      <trkpt lat="50.724623026326299" lon="15.597205013036728">
        <ele>686.51999999999998</ele>
        <time>2013-09-05T11:07:11Z</time>
      </trkpt>
      <trkpt lat="50.72449897415936" lon="15.595315983518958">
        <ele>683.63</ele>
        <time>2013-09-05T11:07:20Z</time>
      </trkpt>
      <trkpt lat="50.724219018593431" lon="15.593198966234922">
        <ele>681.23000000000002</ele>
        <time>2013-09-05T11:07:30Z</time>
      </trkpt>
      <trkpt lat="50.723486021161079" lon="15.590855972841382">
        <ele>682.66999999999996</ele>
        <time>2013-09-05T11:07:42Z</time>
      </trkpt>
      <trkpt lat="50.722364019602537" lon="15.589026035740972">
        <ele>684.60000000000002</ele>
        <time>2013-09-05T11:07:53Z</time>
      </trkpt>
      <trkpt lat="50.721132969483733" lon="15.588110983371735">
        <ele>684.12</ele>
        <time>2013-09-05T11:08:01Z</time>
      </trkpt>
      <trkpt lat="50.719594974070787" lon="15.587045978754759">
        <ele>681.71000000000004</ele>
        <time>2013-09-05T11:08:11Z</time>
      </trkpt>
      <trkpt lat="50.718059996142983" lon="15.586277022957802">
        <ele>681.71000000000004</ele>
        <time>2013-09-05T11:08:20Z</time>
      </trkpt>
      <trkpt lat="50.716576986014843" lon="15.585271026939154">
        <ele>684.60000000000002</ele>
        <time>2013-09-05T11:08:29Z</time>
      </trkpt>
      <trkpt lat="50.71575396694243" lon="15.583907961845398">
        <ele>681.23000000000002</ele>
        <time>2013-09-05T11:08:36Z</time>
      </trkpt>
      <trkpt lat="50.715056005865335" lon="15.58303196914494">
        <ele>679.30999999999995</ele>
        <time>2013-09-05T11:08:42Z</time>
      </trkpt>
      <trkpt lat="50.71491401642561" lon="15.582949994131923">
        <ele>680.26999999999998</ele>
        <time>2013-09-05T11:08:43Z</time>
      </trkpt>
      <trkpt lat="50.714772026985884" lon="15.582886962220073">
        <ele>680.26999999999998</ele>
        <time>2013-09-05T11:08:44Z</time>
      </trkpt>
      <trkpt lat="50.714630959555507" lon="15.582839017733932">
        <ele>680.75</ele>
        <time>2013-09-05T11:08:45Z</time>
      </trkpt>
      <trkpt lat="50.714482013136148" lon="15.582810016348958">
        <ele>681.23000000000002</ele>
        <time>2013-09-05T11:08:46Z</time>
      </trkpt>
      <trkpt lat="50.714342035353184" lon="15.582783026620746">
        <ele>681.71000000000004</ele>
        <time>2013-09-05T11:08:47Z</time>
      </trkpt>
      <trkpt lat="50.713309971615672" lon="15.583048984408379">
        <ele>683.14999999999998</ele>
        <time>2013-09-05T11:08:54Z</time>
      </trkpt>
      <trkpt lat="50.711990995332599" lon="15.583574026823044">
        <ele>682.66999999999996</ele>
        <time>2013-09-05T11:09:03Z</time>
      </trkpt>
      <trkpt lat="50.711857974529266" lon="15.58363102376461">
        <ele>682.66999999999996</ele>
        <time>2013-09-05T11:09:04Z</time>
      </trkpt>
      <trkpt lat="50.711725037544966" lon="15.583723979070783">
        <ele>681.71000000000004</ele>
        <time>2013-09-05T11:09:05Z</time>
      </trkpt>
      <trkpt lat="50.710890032351017" lon="15.584195964038372">
        <ele>678.83000000000004</ele>
        <time>2013-09-05T11:09:11Z</time>
      </trkpt>
      <trkpt lat="50.710736978799105" lon="15.584208033978939">
        <ele>677.38999999999999</ele>
        <time>2013-09-05T11:09:12Z</time>
      </trkpt>
      <trkpt lat="50.71057403460145" lon="15.584180038422346">
        <ele>676.41999999999996</ele>
        <time>2013-09-05T11:09:13Z</time>
      </trkpt>
      <trkpt lat="50.710417041555047" lon="15.584143996238708">
        <ele>675.46000000000004</ele>
        <time>2013-09-05T11:09:14Z</time>
      </trkpt>
      <trkpt lat="50.710265999659896" lon="15.584074007347226">
        <ele>674.98000000000002</ele>
        <time>2013-09-05T11:09:15Z</time>
      </trkpt>
      <trkpt lat="50.710115963593125" lon="15.583985997363925">
        <ele>673.53999999999996</ele>
        <time>2013-09-05T11:09:16Z</time>
      </trkpt>
      <trkpt lat="50.709968023002148" lon="15.583849037066102">
        <ele>672.10000000000002</ele>
        <time>2013-09-05T11:09:17Z</time>
      </trkpt>
      <trkpt lat="50.709817986935377" lon="15.583681985735893">
        <ele>671.62</ele>
        <time>2013-09-05T11:09:18Z</time>
      </trkpt>
      <trkpt lat="50.708156023174524" lon="15.582262007519603">
        <ele>666.33000000000004</ele>
        <time>2013-09-05T11:09:27Z</time>
      </trkpt>
      <trkpt lat="50.707736006006598" lon="15.582076013088226">
        <ele>664.40999999999997</ele>
        <time>2013-09-05T11:09:29Z</time>
      </trkpt>
      <trkpt lat="50.707520004361868" lon="15.582053968682885">
        <ele>663.92999999999995</ele>
        <time>2013-09-05T11:09:30Z</time>
      </trkpt>
      <trkpt lat="50.70730802603066" lon="15.582052962854505">
        <ele>663.45000000000005</ele>
        <time>2013-09-05T11:09:31Z</time>
      </trkpt>
      <trkpt lat="50.70709303021431" lon="15.582098979502916">
        <ele>662.49000000000001</ele>
        <time>2013-09-05T11:09:32Z</time>
      </trkpt>
      <trkpt lat="50.706890020519495" lon="15.582156982272863">
        <ele>662.00999999999999</ele>
        <time>2013-09-05T11:09:33Z</time>
      </trkpt>
      <trkpt lat="50.706677958369255" lon="15.582251027226448">
        <ele>661.51999999999998</ele>
        <time>2013-09-05T11:09:34Z</time>
      </trkpt>
      <trkpt lat="50.706470003351569" lon="15.582354962825775">
        <ele>661.51999999999998</ele>
        <time>2013-09-05T11:09:35Z</time>
      </trkpt>
      <trkpt lat="50.70511800237" lon="15.583161972463131">
        <ele>655.75999999999999</ele>
        <time>2013-09-05T11:09:42Z</time>
      </trkpt>
      <trkpt lat="50.704938964918256" lon="15.583202037960291">
        <ele>654.30999999999995</ele>
        <time>2013-09-05T11:09:43Z</time>
      </trkpt>
      <trkpt lat="50.704750036820769" lon="15.583232967182994">
        <ele>653.35000000000002</ele>
        <time>2013-09-05T11:09:44Z</time>
      </trkpt>
      <trkpt lat="50.702570993453264" lon="15.583268003538251">
        <ele>638.45000000000005</ele>
        <time>2013-09-05T11:09:56Z</time>
      </trkpt>
      <trkpt lat="50.702048968523741" lon="15.583471013233066">
        <ele>635.57000000000005</ele>
        <time>2013-09-05T11:09:59Z</time>
      </trkpt>
      <trkpt lat="50.701903961598873" lon="15.583607973530889">
        <ele>635.09000000000003</ele>
        <time>2013-09-05T11:10:00Z</time>
      </trkpt>
      <trkpt lat="50.701763983815908" lon="15.583771001547575">
        <ele>634.13</ele>
        <time>2013-09-05T11:10:01Z</time>
      </trkpt>
      <trkpt lat="50.701644960790873" lon="15.58399798348546">
        <ele>634.13</ele>
        <time>2013-09-05T11:10:02Z</time>
      </trkpt>
      <trkpt lat="50.701529961079359" lon="15.584218008443713">
        <ele>633.64999999999998</ele>
        <time>2013-09-05T11:10:03Z</time>
      </trkpt>
      <trkpt lat="50.701287975534797" lon="15.584901971742511">
        <ele>631.24000000000001</ele>
        <time>2013-09-05T11:10:06Z</time>
      </trkpt>
      <trkpt lat="50.700894026085734" lon="15.586578017100692">
        <ele>626.91999999999996</ele>
        <time>2013-09-05T11:10:14Z</time>
      </trkpt>
      <trkpt lat="50.700604012235999" lon="15.587243037298322">
        <ele>621.14999999999998</ele>
        <time>2013-09-05T11:10:22Z</time>
      </trkpt>
      <trkpt lat="50.700409971177578" lon="15.58747798204422">
        <ele>618.75</ele>
        <time>2013-09-05T11:10:27Z</time>
      </trkpt>
      <trkpt lat="50.700340988114476" lon="15.587525004521012">
        <ele>618.25999999999999</ele>
        <time>2013-09-05T11:10:28Z</time>
      </trkpt>
      <trkpt lat="50.699570020660758" lon="15.58784200809896">
        <ele>613.94000000000005</ele>
        <time>2013-09-05T11:10:37Z</time>
      </trkpt>
      <trkpt lat="50.698665026575327" lon="15.587507989257574">
        <ele>610.57000000000005</ele>
        <time>2013-09-05T11:10:45Z</time>
      </trkpt>
      <trkpt lat="50.697600021958351" lon="15.586369978263974">
        <ele>604.80999999999995</ele>
        <time>2013-09-05T11:10:54Z</time>
      </trkpt>
      <trkpt lat="50.696864007040858" lon="15.584974978119135">
        <ele>600.96000000000004</ele>
        <time>2013-09-05T11:10:59Z</time>
      </trkpt>
      <trkpt lat="50.69639696739614" lon="15.583722973242402">
        <ele>598.08000000000004</ele>
        <time>2013-09-05T11:11:03Z</time>
      </trkpt>
      <trkpt lat="50.695504965260625" lon="15.581414010375738">
        <ele>597.60000000000002</ele>
        <time>2013-09-05T11:11:11Z</time>
      </trkpt>
      <trkpt lat="50.69409697316587" lon="15.579737965017557">
        <ele>591.35000000000002</ele>
        <time>2013-09-05T11:11:19Z</time>
      </trkpt>
      <trkpt lat="50.693913996219635" lon="15.579589018598199">
        <ele>590.38999999999999</ele>
        <time>2013-09-05T11:11:20Z</time>
      </trkpt>
      <trkpt lat="50.69375297985971" lon="15.579457003623247">
        <ele>589.42999999999995</ele>
        <time>2013-09-05T11:11:21Z</time>
      </trkpt>
      <trkpt lat="50.693547036498785" lon="15.579407969489694">
        <ele>588.95000000000005</ele>
        <time>2013-09-05T11:11:22Z</time>
      </trkpt>
      <trkpt lat="50.693345032632351" lon="15.579400006681681">
        <ele>588.46000000000004</ele>
        <time>2013-09-05T11:11:23Z</time>
      </trkpt>
      <trkpt lat="50.693155014887452" lon="15.579430013895035">
        <ele>587.98000000000002</ele>
        <time>2013-09-05T11:11:24Z</time>
      </trkpt>
      <trkpt lat="50.692967008799314" lon="15.579497991129756">
        <ele>587.5</ele>
        <time>2013-09-05T11:11:25Z</time>
      </trkpt>
      <trkpt lat="50.692782020196319" lon="15.579606033861637">
        <ele>587.01999999999998</ele>
        <time>2013-09-05T11:11:26Z</time>
      </trkpt>
      <trkpt lat="50.692598959431052" lon="15.579747017472982">
        <ele>586.05999999999995</ele>
        <time>2013-09-05T11:11:27Z</time>
      </trkpt>
      <trkpt lat="50.692417994141579" lon="15.579895963892341">
        <ele>585.58000000000004</ele>
        <time>2013-09-05T11:11:28Z</time>
      </trkpt>
      <trkpt lat="50.691293980926275" lon="15.58075200766325">
        <ele>582.22000000000003</ele>
        <time>2013-09-05T11:11:34Z</time>
      </trkpt>
      <trkpt lat="50.691104969009757" lon="15.5808150395751">
        <ele>581.25</ele>
        <time>2013-09-05T11:11:35Z</time>
      </trkpt>
      <trkpt lat="50.690898019820452" lon="15.58083800598979">
        <ele>581.25</ele>
        <time>2013-09-05T11:11:36Z</time>
      </trkpt>
      <trkpt lat="50.690692998468876" lon="15.580804981291294">
        <ele>580.76999999999998</ele>
        <time>2013-09-05T11:11:37Z</time>
      </trkpt>
      <trkpt lat="50.690484037622809" lon="15.580743961036205">
        <ele>580.76999999999998</ele>
        <time>2013-09-05T11:11:38Z</time>
      </trkpt>
      <trkpt lat="50.688886027783155" lon="15.579804014414549">
        <ele>579.80999999999995</ele>
        <time>2013-09-05T11:11:46Z</time>
      </trkpt>
      <trkpt lat="50.687863016501069" lon="15.578637002035975">
        <ele>578.85000000000002</ele>
        <time>2013-09-05T11:11:53Z</time>
      </trkpt>
      <trkpt lat="50.687511982396245" lon="15.578284962102771">
        <ele>578.85000000000002</ele>
        <time>2013-09-05T11:11:56Z</time>
      </trkpt>
      <trkpt lat="50.687378961592913" lon="15.578202987089753">
        <ele>579.33000000000004</ele>
        <time>2013-09-05T11:11:57Z</time>
      </trkpt>
      <trkpt lat="50.686260983347893" lon="15.577789004892111">
        <ele>578.85000000000002</ele>
        <time>2013-09-05T11:12:04Z</time>
      </trkpt>
      <trkpt lat="50.685748010873795" lon="15.577715998515487">
        <ele>578.85000000000002</ele>
        <time>2013-09-05T11:12:07Z</time>
      </trkpt>
      <trkpt lat="50.684114964678884" lon="15.578137021511793">
        <ele>577.88999999999999</ele>
        <time>2013-09-05T11:12:16Z</time>
      </trkpt>
      <trkpt lat="50.683816988021135" lon="15.578342964872718">
        <ele>577.88999999999999</ele>
        <time>2013-09-05T11:12:18Z</time>
      </trkpt>
      <trkpt lat="50.683683967217803" lon="15.578467017039657">
        <ele>577.88999999999999</ele>
        <time>2013-09-05T11:12:19Z</time>
      </trkpt>
      <trkpt lat="50.683563016355038" lon="15.578621998429298">
        <ele>578.37</ele>
        <time>2013-09-05T11:12:20Z</time>
      </trkpt>
      <trkpt lat="50.683443993330002" lon="15.578787038102746">
        <ele>578.37</ele>
        <time>2013-09-05T11:12:21Z</time>
      </trkpt>
      <trkpt lat="50.683352965861559" lon="15.5789880361408">
        <ele>579.33000000000004</ele>
        <time>2013-09-05T11:12:22Z</time>
      </trkpt>
      <trkpt lat="50.683270990848541" lon="15.579188028350472">
        <ele>579.33000000000004</ele>
        <time>2013-09-05T11:12:23Z</time>
      </trkpt>
      <trkpt lat="50.683219023048878" lon="15.579400006681681">
        <ele>579.80999999999995</ele>
        <time>2013-09-05T11:12:24Z</time>
      </trkpt>
      <trkpt lat="50.683175018057227" lon="15.579632017761469">
        <ele>579.80999999999995</ele>
        <time>2013-09-05T11:12:25Z</time>
      </trkpt>
      <trkpt lat="50.683151967823505" lon="15.579877020791173">
        <ele>580.28999999999996</ele>
        <time>2013-09-05T11:12:26Z</time>
      </trkpt>
      <trkpt lat="50.68313998170197" lon="15.580120012164116">
        <ele>580.76999999999998</ele>
        <time>2013-09-05T11:12:27Z</time>
      </trkpt>
      <trkpt lat="50.683137970045209" lon="15.580374989658594">
        <ele>580.76999999999998</ele>
        <time>2013-09-05T11:12:28Z</time>
      </trkpt>
      <trkpt lat="50.683232014998794" lon="15.582679007202387">
        <ele>582.70000000000005</ele>
        <time>2013-09-05T11:12:37Z</time>
      </trkpt>
      <trkpt lat="50.683092037215829" lon="15.584542974829674">
        <ele>583.65999999999997</ele>
        <time>2013-09-05T11:12:44Z</time>
      </trkpt>
      <trkpt lat="50.682331966236234" lon="15.586765017360449">
        <ele>585.58000000000004</ele>
        <time>2013-09-05T11:12:53Z</time>
      </trkpt>
      <trkpt lat="50.681267967447639" lon="15.58851096779108">
        <ele>587.5</ele>
        <time>2013-09-05T11:13:01Z</time>
      </trkpt>
      <trkpt lat="50.680450983345509" lon="15.590695040300488">
        <ele>589.90999999999997</ele>
        <time>2013-09-05T11:13:09Z</time>
      </trkpt>
      <trkpt lat="50.679730977863073" lon="15.593563998118043">
        <ele>596.14999999999998</ele>
        <time>2013-09-05T11:13:19Z</time>
      </trkpt>
      <trkpt lat="50.679388996213675" lon="15.595930963754654">
        <ele>602.88</ele>
        <time>2013-09-05T11:13:28Z</time>
      </trkpt>
      <trkpt lat="50.679255975410342" lon="15.596839981153607">
        <ele>604.33000000000004</ele>
        <time>2013-09-05T11:13:32Z</time>
      </trkpt>
      <trkpt lat="50.679194033145905" lon="15.597019018605351">
        <ele>604.80999999999995</ele>
        <time>2013-09-05T11:13:33Z</time>
      </trkpt>
      <trkpt lat="50.679079033434391" lon="15.597158996388316">
        <ele>605.76999999999998</ele>
        <time>2013-09-05T11:13:34Z</time>
      </trkpt>
      <trkpt lat="50.678981970995665" lon="15.597249018028378">
        <ele>606.25</ele>
        <time>2013-09-05T11:13:35Z</time>
      </trkpt>
      <trkpt lat="50.678872000426054" lon="15.597287993878126">
        <ele>606.73000000000002</ele>
        <time>2013-09-05T11:13:36Z</time>
      </trkpt>
      <trkpt lat="50.678740991279483" lon="15.597290005534887">
        <ele>607.69000000000005</ele>
        <time>2013-09-05T11:13:37Z</time>
      </trkpt>
      <trkpt lat="50.678620040416718" lon="15.597256980836391">
        <ele>608.16999999999996</ele>
        <time>2013-09-05T11:13:38Z</time>
      </trkpt>
      <trkpt lat="50.678485007956624" lon="15.597175005823374">
        <ele>608.64999999999998</ele>
        <time>2013-09-05T11:13:39Z</time>
      </trkpt>
      <trkpt lat="50.678338995203376" lon="15.597051959484816">
        <ele>609.13</ele>
        <time>2013-09-05T11:13:40Z</time>
      </trkpt>
      <trkpt lat="50.678202034905553" lon="15.596925979480147">
        <ele>609.13</ele>
        <time>2013-09-05T11:13:41Z</time>
      </trkpt>
      <trkpt lat="50.677100988104939" lon="15.595532990992069">
        <ele>613.46000000000004</ele>
        <time>2013-09-05T11:13:49Z</time>
      </trkpt>
      <trkpt lat="50.676508974283934" lon="15.593639016151428">
        <ele>616.82000000000005</ele>
        <time>2013-09-05T11:13:56Z</time>
      </trkpt>
      <trkpt lat="50.676389029249549" lon="15.593419997021556">
        <ele>617.29999999999995</ele>
        <time>2013-09-05T11:13:57Z</time>
      </trkpt>
      <trkpt lat="50.676247039809823" lon="15.593224028125405">
        <ele>617.77999999999997</ele>
        <time>2013-09-05T11:13:58Z</time>
      </trkpt>
      <trkpt lat="50.676086023449898" lon="15.593057982623577">
        <ele>618.25999999999999</ele>
        <time>2013-09-05T11:13:59Z</time>
      </trkpt>
      <trkpt lat="50.675906985998154" lon="15.592918004840612">
        <ele>618.25999999999999</ele>
        <time>2013-09-05T11:14:00Z</time>
      </trkpt>
      <trkpt lat="50.675737001001835" lon="15.592815997079015">
        <ele>619.23000000000002</ele>
        <time>2013-09-05T11:14:01Z</time>
      </trkpt>
      <trkpt lat="50.675546983256936" lon="15.592776015400887">
        <ele>619.71000000000004</ele>
        <time>2013-09-05T11:14:02Z</time>
      </trkpt>
      <trkpt lat="50.675357971340418" lon="15.592745002359152">
        <ele>620.19000000000005</ele>
        <time>2013-09-05T11:14:03Z</time>
      </trkpt>
      <trkpt lat="50.674103032797575" lon="15.592951029539108">
        <ele>624.02999999999997</ele>
        <time>2013-09-05T11:14:10Z</time>
      </trkpt>
      <trkpt lat="50.672973990440369" lon="15.593729037791491">
        <ele>628.84000000000003</ele>
        <time>2013-09-05T11:14:17Z</time>
      </trkpt>
      <trkpt lat="50.672479961067438" lon="15.594004970043898">
        <ele>630.75999999999999</ele>
        <time>2013-09-05T11:14:20Z</time>
      </trkpt>
      <trkpt lat="50.672303019091487" lon="15.594032965600491">
        <ele>631.24000000000001</ele>
        <time>2013-09-05T11:14:21Z</time>
      </trkpt>
      <trkpt lat="50.672119958326221" lon="15.594041012227535">
        <ele>632.20000000000005</ele>
        <time>2013-09-05T11:14:22Z</time>
      </trkpt>
      <trkpt lat="50.671948967501521" lon="15.593989966437221">
        <ele>632.67999999999995</ele>
        <time>2013-09-05T11:14:23Z</time>
      </trkpt>
      <trkpt lat="50.671766996383667" lon="15.593949984759092">
        <ele>633.16999999999996</ele>
        <time>2013-09-05T11:14:24Z</time>
      </trkpt>
      <trkpt lat="50.67160002887249" lon="15.593878990039229">
        <ele>633.64999999999998</ele>
        <time>2013-09-05T11:14:25Z</time>
      </trkpt>
      <trkpt lat="50.671432977542281" lon="15.593775976449251">
        <ele>634.61000000000001</ele>
        <time>2013-09-05T11:14:26Z</time>
      </trkpt>
      <trkpt lat="50.671262992545962" lon="15.59364496730268">
        <ele>635.09000000000003</ele>
        <time>2013-09-05T11:14:27Z</time>
      </trkpt>
      <trkpt lat="50.670157000422478" lon="15.592564037069678">
        <ele>639.40999999999997</ele>
        <time>2013-09-05T11:14:34Z</time>
      </trkpt>
      <trkpt lat="50.669920966029167" lon="15.592217026278377">
        <ele>640.86000000000001</ele>
        <time>2013-09-05T11:14:36Z</time>
      </trkpt>
      <trkpt lat="50.669770007953048" lon="15.592112001031637">
        <ele>641.34000000000003</ele>
        <time>2013-09-05T11:14:37Z</time>
      </trkpt>
      <trkpt lat="50.669555012136698" lon="15.59203002601862">
        <ele>642.29999999999995</ele>
        <time>2013-09-05T11:14:38Z</time>
      </trkpt>
      <trkpt lat="50.669391984120011" lon="15.59199096634984">
        <ele>642.77999999999997</ele>
        <time>2013-09-05T11:14:39Z</time>
      </trkpt>
      <trkpt lat="50.669210013002157" lon="15.592007981613278">
        <ele>643.25999999999999</ele>
        <time>2013-09-05T11:14:40Z</time>
      </trkpt>
      <trkpt lat="50.669034998863935" lon="15.592079982161522">
        <ele>643.74000000000001</ele>
        <time>2013-09-05T11:14:41Z</time>
      </trkpt>
      <trkpt lat="50.668864008039236" lon="15.592207973822951">
        <ele>644.22000000000003</ele>
        <time>2013-09-05T11:14:42Z</time>
      </trkpt>
      <trkpt lat="50.668705003336072" lon="15.592335965484381">
        <ele>644.70000000000005</ele>
        <time>2013-09-05T11:14:43Z</time>
      </trkpt>
      <trkpt lat="50.668553961440921" lon="15.592478960752487">
        <ele>645.17999999999995</ele>
        <time>2013-09-05T11:14:44Z</time>
      </trkpt>
      <trkpt lat="50.66666099242866" lon="15.594097003340721">
        <ele>651.90999999999997</ele>
        <time>2013-09-05T11:14:56Z</time>
      </trkpt>
      <trkpt lat="50.666305013000965" lon="15.594209991395473">
        <ele>652.87</ele>
        <time>2013-09-05T11:14:58Z</time>
      </trkpt>
      <trkpt lat="50.666127987205982" lon="15.594213008880615">
        <ele>653.35000000000002</ele>
        <time>2013-09-05T11:14:59Z</time>
      </trkpt>
      <trkpt lat="50.665939981117845" lon="15.594203034415841">
        <ele>654.30999999999995</ele>
        <time>2013-09-05T11:15:00Z</time>
      </trkpt>
      <trkpt lat="50.664565013721585" lon="15.593669023364782">
        <ele>659.12</ele>
        <time>2013-09-05T11:15:08Z</time>
      </trkpt>
      <trkpt lat="50.664216997101903" lon="15.593628035858274">
        <ele>660.55999999999995</ele>
        <time>2013-09-05T11:15:10Z</time>
      </trkpt>
      <trkpt lat="50.664050029590726" lon="15.593651002272964">
        <ele>661.03999999999996</ele>
        <time>2013-09-05T11:15:11Z</time>
      </trkpt>
      <trkpt lat="50.663874009624124" lon="15.593704981729388">
        <ele>661.51999999999998</ele>
        <time>2013-09-05T11:15:12Z</time>
      </trkpt>
      <trkpt lat="50.663708969950676" lon="15.593807995319366">
        <ele>662.00999999999999</ele>
        <time>2013-09-05T11:15:13Z</time>
      </trkpt>
      <trkpt lat="50.66354401409626" lon="15.593927018344402">
        <ele>662.49000000000001</ele>
        <time>2013-09-05T11:15:14Z</time>
      </trkpt>
      <trkpt lat="50.663404036313295" lon="15.594074036926031">
        <ele>662.97000000000003</ele>
        <time>2013-09-05T11:15:15Z</time>
      </trkpt>
      <trkpt lat="50.663274032995105" lon="15.594232035800815">
        <ele>663.45000000000005</ele>
        <time>2013-09-05T11:15:16Z</time>
      </trkpt>
      <trkpt lat="50.662394016981125" lon="15.595646984875202">
        <ele>667.76999999999998</ele>
        <time>2013-09-05T11:15:24Z</time>
      </trkpt>
      <trkpt lat="50.661671999841928" lon="15.597431994974613">
        <ele>672.10000000000002</ele>
        <time>2013-09-05T11:15:33Z</time>
      </trkpt>
      <trkpt lat="50.661566974595189" lon="15.597586976364255">
        <ele>673.05999999999995</ele>
        <time>2013-09-05T11:15:34Z</time>
      </trkpt>
      <trkpt lat="50.66062199883163" lon="15.598445031791925">
        <ele>675.94000000000005</ele>
        <time>2013-09-05T11:15:41Z</time>
      </trkpt>
      <trkpt lat="50.659998971968889" lon="15.598659021779895">
        <ele>677.38999999999999</ele>
        <time>2013-09-05T11:15:46Z</time>
      </trkpt>
      <trkpt lat="50.659733014181256" lon="15.598780978471041">
        <ele>681.71000000000004</ele>
        <time>2013-09-05T11:15:53Z</time>
      </trkpt>
      <trkpt lat="50.659746006131172" lon="15.598732028156519">
        <ele>681.71000000000004</ele>
        <time>2013-09-05T11:16:11Z</time>
      </trkpt>
      <trkpt lat="50.659739971160889" lon="15.598760023713112">
        <ele>681.71000000000004</ele>
        <time>2013-09-05T11:16:59Z</time>
      </trkpt>
      <trkpt lat="50.65963301807642" lon="15.598876029253006">
        <ele>682.19000000000005</ele>
        <time>2013-09-05T11:17:05Z</time>
      </trkpt>
      <trkpt lat="50.659560011699796" lon="15.598918022587895">
        <ele>682.19000000000005</ele>
        <time>2013-09-05T11:17:06Z</time>
      </trkpt>
      <trkpt lat="50.658937990665436" lon="15.599245000630617">
        <ele>682.19000000000005</ele>
        <time>2013-09-05T11:17:12Z</time>
      </trkpt>
      <trkpt lat="50.657778019085526" lon="15.599939022213221">
        <ele>680.26999999999998</ele>
        <time>2013-09-05T11:17:23Z</time>
      </trkpt>
      <trkpt lat="50.656715026125312" lon="15.601060017943382">
        <ele>676.90999999999997</ele>
        <time>2013-09-05T11:17:32Z</time>
      </trkpt>
      <trkpt lat="50.655333017930388" lon="15.602263994514942">
        <ele>669.22000000000003</ele>
        <time>2013-09-05T11:17:43Z</time>
      </trkpt>
      <trkpt lat="50.653547002002597" lon="15.603517005220056">
        <ele>663.45000000000005</ele>
        <time>2013-09-05T11:17:57Z</time>
      </trkpt>
      <trkpt lat="50.651524029672146" lon="15.604940000921488">
        <ele>657.67999999999995</ele>
        <time>2013-09-05T11:18:13Z</time>
      </trkpt>
      <trkpt lat="50.65037596039474" lon="15.605085007846355">
        <ele>654.30999999999995</ele>
        <time>2013-09-05T11:18:22Z</time>
      </trkpt>
      <trkpt lat="50.648846011608839" lon="15.604967996478081">
        <ele>649.99000000000001</ele>
        <time>2013-09-05T11:18:34Z</time>
      </trkpt>
      <trkpt lat="50.64848399721086" lon="15.605136975646019">
        <ele>647.59000000000003</ele>
        <time>2013-09-05T11:18:37Z</time>
      </trkpt>
      <trkpt lat="50.648379977792501" lon="15.605226997286081">
        <ele>646.62</ele>
        <time>2013-09-05T11:18:38Z</time>
      </trkpt>
      <trkpt lat="50.648265983909369" lon="15.60533101670444">
        <ele>646.62</ele>
        <time>2013-09-05T11:18:39Z</time>
      </trkpt>
      <trkpt lat="50.647050021216273" lon="15.606782007962465">
        <ele>639.88999999999999</ele>
        <time>2013-09-05T11:18:51Z</time>
      </trkpt>
      <trkpt lat="50.646948013454676" lon="15.606874963268638">
        <ele>638.92999999999995</ele>
        <time>2013-09-05T11:18:52Z</time>
      </trkpt>
      <trkpt lat="50.645309016108513" lon="15.60784500092268">
        <ele>611.05999999999995</ele>
        <time>2013-09-05T11:19:06Z</time>
      </trkpt>
      <trkpt lat="50.64418600872159" lon="15.608331989496946">
        <ele>592.78999999999996</ele>
        <time>2013-09-05T11:19:15Z</time>
      </trkpt>
      <trkpt lat="50.642431005835533" lon="15.609013019129634">
        <ele>566.83000000000004</ele>
        <time>2013-09-05T11:19:30Z</time>
      </trkpt>
      <trkpt lat="50.642357999458909" lon="15.609017964452505">
        <ele>565.87</ele>
        <time>2013-09-05T11:19:31Z</time>
      </trkpt>
      <trkpt lat="50.642297985032201" lon="15.608987035229802">
        <ele>565.38999999999999</ele>
        <time>2013-09-05T11:19:32Z</time>
      </trkpt>
      <trkpt lat="50.64225297421217" lon="15.608924003317952">
        <ele>565.38999999999999</ele>
        <time>2013-09-05T11:19:33Z</time>
      </trkpt>
      <trkpt lat="50.642211986705661" lon="15.608827024698257">
        <ele>564.90999999999997</ele>
        <time>2013-09-05T11:19:34Z</time>
      </trkpt>
      <trkpt lat="50.642168987542391" lon="15.608729040250182">
        <ele>564.42999999999995</ele>
        <time>2013-09-05T11:19:35Z</time>
      </trkpt>
      <trkpt lat="50.642121965065598" lon="15.608656033873558">
        <ele>562.99000000000001</ele>
        <time>2013-09-05T11:19:36Z</time>
      </trkpt>
      <trkpt lat="50.642048958688974" lon="15.60859995894134">
        <ele>562.02999999999997</ele>
        <time>2013-09-05T11:19:37Z</time>
      </trkpt>
      <trkpt lat="50.641963966190815" lon="15.608577998355031">
        <ele>561.54999999999995</ele>
        <time>2013-09-05T11:19:38Z</time>
      </trkpt>
      <trkpt lat="50.641853995621204" lon="15.608567018061876">
        <ele>560.59000000000003</ele>
        <time>2013-09-05T11:19:39Z</time>
      </trkpt>
      <trkpt lat="50.641735978424549" lon="15.608565006405115">
        <ele>559.62</ele>
        <time>2013-09-05T11:19:40Z</time>
      </trkpt>
      <trkpt lat="50.640247017145157" lon="15.608438020572066">
        <ele>551.92999999999995</ele>
        <time>2013-09-05T11:19:52Z</time>
      </trkpt>
      <trkpt lat="50.63913800753653" lon="15.6083619967103">
        <ele>550.49000000000001</ele>
        <time>2013-09-05T11:20:02Z</time>
      </trkpt>
      <trkpt lat="50.639077993109822" lon="15.608332995325327">
        <ele>549.52999999999997</ele>
        <time>2013-09-05T11:20:03Z</time>
      </trkpt>
      <trkpt lat="50.639049997553229" lon="15.608249008655548">
        <ele>548.57000000000005</ele>
        <time>2013-09-05T11:20:04Z</time>
      </trkpt>
      <trkpt lat="50.639053015038371" lon="15.608120011165738">
        <ele>547.61000000000001</ele>
        <time>2013-09-05T11:20:05Z</time>
      </trkpt>
      <trkpt lat="50.639090985059738" lon="15.60799797065556">
        <ele>547.13</ele>
        <time>2013-09-05T11:20:06Z</time>
      </trkpt>
      <trkpt lat="50.639148987829685" lon="15.607880959287286">
        <ele>547.13</ele>
        <time>2013-09-05T11:20:07Z</time>
      </trkpt>
      <trkpt lat="50.639207996428013" lon="15.607766965404153">
        <ele>546.64999999999998</ele>
        <time>2013-09-05T11:20:08Z</time>
      </trkpt>
      <trkpt lat="50.639296006411314" lon="15.607663029804826">
        <ele>546.64999999999998</ele>
        <time>2013-09-05T11:20:09Z</time>
      </trkpt>
      <trkpt lat="50.639388039708138" lon="15.607565967366099">
        <ele>546.16999999999996</ele>
        <time>2013-09-05T11:20:10Z</time>
      </trkpt>
      <trkpt lat="50.640183985233307" lon="15.606624009087682">
        <ele>541.84000000000003</ele>
        <time>2013-09-05T11:20:18Z</time>
      </trkpt>
      <trkpt lat="50.640248022973537" lon="15.606488976627588">
        <ele>539.44000000000005</ele>
        <time>2013-09-05T11:20:19Z</time>
      </trkpt>
      <trkpt lat="50.640283981338143" lon="15.606317985802889">
        <ele>537.99000000000001</ele>
        <time>2013-09-05T11:20:20Z</time>
      </trkpt>
      <trkpt lat="50.640312982723117" lon="15.606137020513415">
        <ele>536.54999999999995</ele>
        <time>2013-09-05T11:20:21Z</time>
      </trkpt>
      <trkpt lat="50.640331003814936" lon="15.605943985283375">
        <ele>535.11000000000001</ele>
        <time>2013-09-05T11:20:22Z</time>
      </trkpt>
      <trkpt lat="50.640450026839972" lon="15.604392997920513">
        <ele>533.66999999999996</ele>
        <time>2013-09-05T11:20:29Z</time>
      </trkpt>
      <trkpt lat="50.640508029609919" lon="15.604187976568937">
        <ele>532.23000000000002</ele>
        <time>2013-09-05T11:20:30Z</time>
      </trkpt>
      <trkpt lat="50.64057701267302" lon="15.603984966874123">
        <ele>532.71000000000004</ele>
        <time>2013-09-05T11:20:31Z</time>
      </trkpt>
      <trkpt lat="50.641541015356779" lon="15.601677009835839">
        <ele>538.96000000000004</ele>
        <time>2013-09-05T11:20:42Z</time>
      </trkpt>
      <trkpt lat="50.641679987311363" lon="15.60131398960948">
        <ele>540.39999999999998</ele>
        <time>2013-09-05T11:20:44Z</time>
      </trkpt>
      <trkpt lat="50.64171401783824" lon="15.601095976307988">
        <ele>541.36000000000001</ele>
        <time>2013-09-05T11:20:45Z</time>
      </trkpt>
      <trkpt lat="50.641740001738071" lon="15.600858014076948">
        <ele>542.32000000000005</ele>
        <time>2013-09-05T11:20:46Z</time>
      </trkpt>
      <trkpt lat="50.642048036679626" lon="15.599059006199241">
        <ele>548.57000000000005</ele>
        <time>2013-09-05T11:20:53Z</time>
      </trkpt>
      <trkpt lat="50.642148032784462" lon="15.597587982192636">
        <ele>553.38</ele>
        <time>2013-09-05T11:20:58Z</time>
      </trkpt>
      <trkpt lat="50.642131017521024" lon="15.597308026626706">
        <ele>554.34000000000003</ele>
        <time>2013-09-05T11:20:59Z</time>
      </trkpt>
      <trkpt lat="50.642063962295651" lon="15.596992028877139">
        <ele>555.77999999999997</ele>
        <time>2013-09-05T11:21:00Z</time>
      </trkpt>
      <trkpt lat="50.641934964805841" lon="15.596131039783359">
        <ele>559.13999999999999</ele>
        <time>2013-09-05T11:21:03Z</time>
      </trkpt>
      <trkpt lat="50.641933036968112" lon="15.595913026481867">
        <ele>559.62</ele>
        <time>2013-09-05T11:21:04Z</time>
      </trkpt>
      <trkpt lat="50.641959020867944" lon="15.595715967938304">
        <ele>560.11000000000001</ele>
        <time>2013-09-05T11:21:05Z</time>
      </trkpt>
      <trkpt lat="50.642042001709342" lon="15.595519999042153">
        <ele>561.54999999999995</ele>
        <time>2013-09-05T11:21:06Z</time>
      </trkpt>
      <trkpt lat="50.642135040834546" lon="15.595369962975383">
        <ele>562.02999999999997</ele>
        <time>2013-09-05T11:21:07Z</time>
      </trkpt>
      <trkpt lat="50.642269989475608" lon="15.595258986577392">
        <ele>562.50999999999999</ele>
        <time>2013-09-05T11:21:08Z</time>
      </trkpt>
      <trkpt lat="50.642435029149055" lon="15.595182040706277">
        <ele>563.47000000000003</ele>
        <time>2013-09-05T11:21:09Z</time>
      </trkpt>
      <trkpt lat="50.642571989446878" lon="15.595137029886246">
        <ele>562.99000000000001</ele>
        <time>2013-09-05T11:21:10Z</time>
      </trkpt>
      <trkpt lat="50.642629992216825" lon="15.595279019325972">
        <ele>562.50999999999999</ele>
        <time>2013-09-05T11:21:11Z</time>
      </trkpt>
      <trkpt lat="50.642711967229843" lon="15.595559980720282">
        <ele>562.02999999999997</ele>
        <time>2013-09-05T11:21:12Z</time>
      </trkpt>
      <trkpt lat="50.642860997468233" lon="15.595781011506915">
        <ele>560.11000000000001</ele>
        <time>2013-09-05T11:21:13Z</time>
      </trkpt>
      <trkpt lat="50.642995024099946" lon="15.595799032598734">
        <ele>558.17999999999995</ele>
        <time>2013-09-05T11:21:14Z</time>
      </trkpt>
      <trkpt lat="50.643107006326318" lon="15.595781011506915">
        <ele>557.22000000000003</ele>
        <time>2013-09-05T11:21:15Z</time>
      </trkpt>
      <trkpt lat="50.643221000209451" lon="15.595710016787052">
        <ele>557.22000000000003</ele>
        <time>2013-09-05T11:21:16Z</time>
      </trkpt>
      <trkpt lat="50.643323007971048" lon="15.595584958791733">
        <ele>557.22000000000003</ele>
        <time>2013-09-05T11:21:17Z</time>
      </trkpt>
      <trkpt lat="50.643429961055517" lon="15.595417991280556">
        <ele>557.22000000000003</ele>
        <time>2013-09-05T11:21:18Z</time>
      </trkpt>
      <trkpt lat="50.643534986302257" lon="15.595222022384405">
        <ele>557.22000000000003</ele>
        <time>2013-09-05T11:21:19Z</time>
      </trkpt>
      <trkpt lat="50.643630959093571" lon="15.595004009082913">
        <ele>557.22000000000003</ele>
        <time>2013-09-05T11:21:20Z</time>
      </trkpt>
      <trkpt lat="50.643722992390394" lon="15.594768980517983">
        <ele>556.74000000000001</ele>
        <time>2013-09-05T11:21:21Z</time>
      </trkpt>
      <trkpt lat="50.644344007596374" lon="15.592464040964842">
        <ele>557.70000000000005</ele>
        <time>2013-09-05T11:21:29Z</time>
      </trkpt>
      <trkpt lat="50.644845999777317" lon="15.590917998924851">
        <ele>559.62</ele>
        <time>2013-09-05T11:21:35Z</time>
      </trkpt>
      <trkpt lat="50.645013973116875" lon="15.590497981756926">
        <ele>560.59000000000003</ele>
        <time>2013-09-05T11:21:38Z</time>
      </trkpt>
      <trkpt lat="50.645063007250428" lon="15.590348029509187">
        <ele>560.59000000000003</ele>
        <time>2013-09-05T11:21:39Z</time>
      </trkpt>
      <trkpt lat="50.645040040835738" lon="15.590223977342248">
        <ele>560.11000000000001</ele>
        <time>2013-09-05T11:21:40Z</time>
      </trkpt>
      <trkpt lat="50.644993018358946" lon="15.590144013985991">
        <ele>560.11000000000001</ele>
        <time>2013-09-05T11:21:41Z</time>
      </trkpt>
      <trkpt lat="50.64493996091187" lon="15.590091962367296">
        <ele>560.59000000000003</ele>
        <time>2013-09-05T11:21:42Z</time>
      </trkpt>
      <trkpt lat="50.644898973405361" lon="15.590062960982323">
        <ele>560.11000000000001</ele>
        <time>2013-09-05T11:21:43Z</time>
      </trkpt>
      <trkpt lat="50.644872989505529" lon="15.590068995952606">
        <ele>560.59000000000003</ele>
        <time>2013-09-05T11:21:44Z</time>
      </trkpt>
      <trkpt lat="50.644837031140924" lon="15.590105038136244">
        <ele>560.59000000000003</ele>
        <time>2013-09-05T11:21:45Z</time>
      </trkpt>
      <trkpt lat="50.644741980358958" lon="15.590265970677137">
        <ele>560.11000000000001</ele>
        <time>2013-09-05T11:21:46Z</time>
      </trkpt>
      <trkpt lat="50.644710967317224" lon="15.59031399898231">
        <ele>560.11000000000001</ele>
        <time>2013-09-05T11:21:47Z</time>
      </trkpt>
      <trkpt lat="50.644675008952618" lon="15.590409971773624">
        <ele>560.11000000000001</ele>
        <time>2013-09-05T11:21:48Z</time>
      </trkpt>
      <trkpt lat="50.644559003412724" lon="15.590661009773612">
        <ele>560.11000000000001</ele>
        <time>2013-09-05T11:21:49Z</time>
      </trkpt>
      <trkpt lat="50.643569016829133" lon="15.592171009629965">
        <ele>560.59000000000003</ele>
        <time>2013-09-05T11:21:56Z</time>
      </trkpt>
      <trkpt lat="50.643431972712278" lon="15.592365972697735">
        <ele>560.59000000000003</ele>
        <time>2013-09-05T11:21:57Z</time>
      </trkpt>
      <trkpt lat="50.643295012414455" lon="15.592494970187545">
        <ele>560.59000000000003</ele>
        <time>2013-09-05T11:21:58Z</time>
      </trkpt>
      <trkpt lat="50.643201973289251" lon="15.592479966580868">
        <ele>560.59000000000003</ele>
        <time>2013-09-05T11:21:59Z</time>
      </trkpt>
      <trkpt lat="50.643098037689924" lon="15.592382987961173">
        <ele>560.11000000000001</ele>
        <time>2013-09-05T11:22:00Z</time>
      </trkpt>
      <trkpt lat="50.643012039363384" lon="15.592262037098408">
        <ele>560.11000000000001</ele>
        <time>2013-09-05T11:22:01Z</time>
      </trkpt>
      <trkpt lat="50.642945989966393" lon="15.592048969119787">
        <ele>562.50999999999999</ele>
        <time>2013-09-05T11:22:02Z</time>
      </trkpt>
      <trkpt lat="50.642924029380083" lon="15.591854006052017">
        <ele>562.99000000000001</ele>
        <time>2013-09-05T11:22:03Z</time>
      </trkpt>
      <trkpt lat="50.642922017723322" lon="15.59162400662899">
        <ele>563.95000000000005</ele>
        <time>2013-09-05T11:22:04Z</time>
      </trkpt>
      <trkpt lat="50.642899973317981" lon="15.591404987499118">
        <ele>564.42999999999995</ele>
        <time>2013-09-05T11:22:05Z</time>
      </trkpt>
      <trkpt lat="50.642884969711304" lon="15.590727981179953">
        <ele>564.90999999999997</ele>
        <time>2013-09-05T11:22:08Z</time>
      </trkpt>
      <trkpt lat="50.642940038815141" lon="15.59050502255559">
        <ele>564.90999999999997</ele>
        <time>2013-09-05T11:22:09Z</time>
      </trkpt>
      <trkpt lat="50.643086973577738" lon="15.590210985392332">
        <ele>564.42999999999995</ele>
        <time>2013-09-05T11:22:10Z</time>
      </trkpt>
      <trkpt lat="50.643313033506274" lon="15.589555017650127">
        <ele>564.90999999999997</ele>
        <time>2013-09-05T11:22:13Z</time>
      </trkpt>
      <trkpt lat="50.643414035439491" lon="15.58934798464179">
        <ele>564.90999999999997</ele>
        <time>2013-09-05T11:22:14Z</time>
      </trkpt>
      <trkpt lat="50.643743025138974" lon="15.588716994971037">
        <ele>564.90999999999997</ele>
        <time>2013-09-05T11:22:17Z</time>
      </trkpt>
      <trkpt lat="50.6438850145787" lon="15.588237969204783">
        <ele>565.38999999999999</ele>
        <time>2013-09-05T11:22:19Z</time>
      </trkpt>
      <trkpt lat="50.643933964893222" lon="15.587995983660221">
        <ele>565.38999999999999</ele>
        <time>2013-09-05T11:22:20Z</time>
      </trkpt>
      <trkpt lat="50.644217021763325" lon="15.586117012426257">
        <ele>573.08000000000004</ele>
        <time>2013-09-05T11:22:27Z</time>
      </trkpt>
      <trkpt lat="50.644677020609379" lon="15.582920992746949">
        <ele>584.13999999999999</ele>
        <time>2013-09-05T11:22:38Z</time>
      </trkpt>
      <trkpt lat="50.644996035844088" lon="15.581025006249547">
        <ele>586.53999999999996</ele>
        <time>2013-09-05T11:22:45Z</time>
      </trkpt>
      <trkpt lat="50.645085973665118" lon="15.580796012654901">
        <ele>587.01999999999998</ele>
        <time>2013-09-05T11:22:46Z</time>
      </trkpt>
      <trkpt lat="50.645171971991658" lon="15.580593002960086">
        <ele>587.5</ele>
        <time>2013-09-05T11:22:47Z</time>
      </trkpt>
      <trkpt lat="50.645379004999995" lon="15.580326039344072">
        <ele>589.90999999999997</ele>
        <time>2013-09-05T11:22:49Z</time>
      </trkpt>
      <trkpt lat="50.645403983071446" lon="15.580081036314368">
        <ele>589.42999999999995</ele>
        <time>2013-09-05T11:22:50Z</time>
      </trkpt>
      <trkpt lat="50.645394008606672" lon="15.579867968335748">
        <ele>588.95000000000005</ele>
        <time>2013-09-05T11:22:51Z</time>
      </trkpt>
      <trkpt lat="50.645342040807009" lon="15.579702006652951">
        <ele>587.5</ele>
        <time>2013-09-05T11:22:52Z</time>
      </trkpt>
      <trkpt lat="50.645233998075128" lon="15.579533027485013">
        <ele>584.62</ele>
        <time>2013-09-05T11:22:53Z</time>
      </trkpt>
      <trkpt lat="50.64513199031353" lon="15.579388020560145">
        <ele>582.70000000000005</ele>
        <time>2013-09-05T11:22:54Z</time>
      </trkpt>
      <trkpt lat="50.645011961460114" lon="15.579219041392207">
        <ele>582.70000000000005</ele>
        <time>2013-09-05T11:22:55Z</time>
      </trkpt>
      <trkpt lat="50.644838958978653" lon="15.57907797396183">
        <ele>581.25</ele>
        <time>2013-09-05T11:22:56Z</time>
      </trkpt>
      <trkpt lat="50.644707027822733" lon="15.578935984522104">
        <ele>582.70000000000005</ele>
        <time>2013-09-05T11:22:57Z</time>
      </trkpt>
      <trkpt lat="50.644542993977666" lon="15.57888200506568">
        <ele>582.70000000000005</ele>
        <time>2013-09-05T11:22:58Z</time>
      </trkpt>
      <trkpt lat="50.644378960132599" lon="15.578897008672357">
        <ele>583.17999999999995</ele>
        <time>2013-09-05T11:22:59Z</time>
      </trkpt>
      <trkpt lat="50.644214004278183" lon="15.578916035592556">
        <ele>584.13999999999999</ele>
        <time>2013-09-05T11:23:00Z</time>
      </trkpt>
      <trkpt lat="50.644049970433116" lon="15.578993987292051">
        <ele>585.10000000000002</ele>
        <time>2013-09-05T11:23:01Z</time>
      </trkpt>
      <trkpt lat="50.643886020407081" lon="15.579109992831945">
        <ele>585.10000000000002</ele>
        <time>2013-09-05T11:23:02Z</time>
      </trkpt>
      <trkpt lat="50.64373598434031" lon="15.579223986715078">
        <ele>585.10000000000002</ele>
        <time>2013-09-05T11:23:03Z</time>
      </trkpt>
      <trkpt lat="50.643589971587062" lon="15.579373016953468">
        <ele>585.10000000000002</ele>
        <time>2013-09-05T11:23:04Z</time>
      </trkpt>
      <trkpt lat="50.643447982147336" lon="15.579556999728084">
        <ele>584.62</ele>
        <time>2013-09-05T11:23:05Z</time>
      </trkpt>
      <trkpt lat="50.643301969394088" lon="15.579761015251279">
        <ele>584.62</ele>
        <time>2013-09-05T11:23:06Z</time>
      </trkpt>
      <trkpt lat="50.642433017492294" lon="15.580913024023175">
        <ele>602.88</ele>
        <time>2013-09-05T11:23:12Z</time>
      </trkpt>
      <trkpt lat="50.642352970317006" lon="15.581112010404468">
        <ele>610.09000000000003</ele>
        <time>2013-09-05T11:23:13Z</time>
      </trkpt>
      <trkpt lat="50.642155995592475" lon="15.581563040614128">
        <ele>615.38</ele>
        <time>2013-09-05T11:23:16Z</time>
      </trkpt>
      <trkpt lat="50.642087012529373" lon="15.581577038392425">
        <ele>615.86000000000001</ele>
        <time>2013-09-05T11:23:17Z</time>
      </trkpt>
      <trkpt lat="50.64199497923255" lon="15.581521969288588">
        <ele>618.25999999999999</ele>
        <time>2013-09-05T11:23:18Z</time>
      </trkpt>
      <trkpt lat="50.641919961199164" lon="15.581414010375738">
        <ele>620.66999999999996</ele>
        <time>2013-09-05T11:23:19Z</time>
      </trkpt>
      <trkpt lat="50.641881991177797" lon="15.58129096403718">
        <ele>623.07000000000005</ele>
        <time>2013-09-05T11:23:20Z</time>
      </trkpt>
      <trkpt lat="50.641849972307682" lon="15.581148974597454">
        <ele>624.50999999999999</ele>
        <time>2013-09-05T11:23:21Z</time>
      </trkpt>
      <trkpt lat="50.641867993399501" lon="15.580979995429516">
        <ele>630.75999999999999</ele>
        <time>2013-09-05T11:23:22Z</time>
      </trkpt>
      <trkpt lat="50.641861036419868" lon="15.580825014039874">
        <ele>639.40999999999997</ele>
        <time>2013-09-05T11:23:23Z</time>
      </trkpt>
      <trkpt lat="50.641864975914359" lon="15.580632984638214">
        <ele>644.70000000000005</ele>
        <time>2013-09-05T11:23:24Z</time>
      </trkpt>
      <trkpt lat="50.642328998073936" lon="15.57901200838387">
        <ele>658.15999999999997</ele>
        <time>2013-09-05T11:23:31Z</time>
      </trkpt>
      <trkpt lat="50.643409006297588" lon="15.576145984232426">
        <ele>679.30999999999995</ele>
        <time>2013-09-05T11:23:42Z</time>
      </trkpt>
      <trkpt lat="50.643962966278195" lon="15.57510101236403">
        <ele>690.84000000000003</ele>
        <time>2013-09-05T11:23:47Z</time>
      </trkpt>
      <trkpt lat="50.644136974588037" lon="15.574932033196092">
        <ele>693.73000000000002</ele>
        <time>2013-09-05T11:23:48Z</time>
      </trkpt>
      <trkpt lat="50.644277958199382" lon="15.574789959937334">
        <ele>696.13</ele>
        <time>2013-09-05T11:23:49Z</time>
      </trkpt>
      <trkpt lat="50.644438974559307" lon="15.574695998802781">
        <ele>698.52999999999997</ele>
        <time>2013-09-05T11:23:50Z</time>
      </trkpt>
      <trkpt lat="50.644594039767981" lon="15.574634978547692">
        <ele>700.94000000000005</ele>
        <time>2013-09-05T11:23:51Z</time>
      </trkpt>
      <trkpt lat="50.645203990861773" lon="15.574362985789776">
        <ele>707.66999999999996</ele>
        <time>2013-09-05T11:23:55Z</time>
      </trkpt>
      <trkpt lat="50.645301975309849" lon="15.574234994128346">
        <ele>709.59000000000003</ele>
        <time>2013-09-05T11:23:56Z</time>
      </trkpt>
      <trkpt lat="50.645353021100163" lon="15.574070038273931">
        <ele>711.02999999999997</ele>
        <time>2013-09-05T11:23:57Z</time>
      </trkpt>
      <trkpt lat="50.645386967808008" lon="15.573885971680284">
        <ele>711.50999999999999</ele>
        <time>2013-09-05T11:23:58Z</time>
      </trkpt>
      <trkpt lat="50.645393002778292" lon="15.573657983914018">
        <ele>711.99000000000001</ele>
        <time>2013-09-05T11:23:59Z</time>
      </trkpt>
      <trkpt lat="50.64538998529315" lon="15.573435025289655">
        <ele>712.95000000000005</ele>
        <time>2013-09-05T11:24:00Z</time>
      </trkpt>
      <trkpt lat="50.645284038037062" lon="15.571873979642987">
        <ele>720.64999999999998</ele>
        <time>2013-09-05T11:24:08Z</time>
      </trkpt>
      <trkpt lat="50.645299963653088" lon="15.570841999724507">
        <ele>723.52999999999997</ele>
        <time>2013-09-05T11:24:13Z</time>
      </trkpt>
      <trkpt lat="50.645271968096495" lon="15.570651981979609">
        <ele>724.00999999999999</ele>
        <time>2013-09-05T11:24:14Z</time>
      </trkpt>
      <trkpt lat="50.645239027217031" lon="15.570467999204993">
        <ele>724.97000000000003</ele>
        <time>2013-09-05T11:24:15Z</time>
      </trkpt>
      <trkpt lat="50.644811969250441" lon="15.568361040204763">
        <ele>725.45000000000005</ele>
        <time>2013-09-05T11:24:25Z</time>
      </trkpt>
      <trkpt lat="50.644619017839432" lon="15.566462958231568">
        <ele>718.24000000000001</ele>
        <time>2013-09-05T11:24:33Z</time>
      </trkpt>
      <trkpt lat="50.644531007856131" lon="15.565802967175841">
        <ele>715.36000000000001</ele>
        <time>2013-09-05T11:24:36Z</time>
      </trkpt>
      <trkpt lat="50.644479040056467" lon="15.565586965531111">
        <ele>713.44000000000005</ele>
        <time>2013-09-05T11:24:37Z</time>
      </trkpt>
      <trkpt lat="50.644436040893197" lon="15.56538999080658">
        <ele>712.47000000000003</ele>
        <time>2013-09-05T11:24:38Z</time>
      </trkpt>
      <trkpt lat="50.644308971241117" lon="15.564777022227645">
        <ele>708.63</ele>
        <time>2013-09-05T11:24:41Z</time>
      </trkpt>
      <trkpt lat="50.644218027591705" lon="15.563265010714531">
        <ele>694.69000000000005</ele>
        <time>2013-09-05T11:24:48Z</time>
      </trkpt>
      <trkpt lat="50.643973024562001" lon="15.562375020235777">
        <ele>686.03999999999996</ele>
        <time>2013-09-05T11:24:52Z</time>
      </trkpt>
      <trkpt lat="50.643904963508248" lon="15.562245016917586">
        <ele>684.60000000000002</ele>
        <time>2013-09-05T11:24:53Z</time>
      </trkpt>
      <trkpt lat="50.643838997930288" lon="15.562147032469511">
        <ele>684.12</ele>
        <time>2013-09-05T11:24:54Z</time>
      </trkpt>
      <trkpt lat="50.643742019310594" lon="15.562075031921268">
        <ele>682.66999999999996</ele>
        <time>2013-09-05T11:24:55Z</time>
      </trkpt>
      <trkpt lat="50.643655015155673" lon="15.562018034979701">
        <ele>682.19000000000005</ele>
        <time>2013-09-05T11:24:56Z</time>
      </trkpt>
      <trkpt lat="50.64358402043581" lon="15.561963971704245">
        <ele>680.75</ele>
        <time>2013-09-05T11:24:57Z</time>
      </trkpt>
      <trkpt lat="50.643552001565695" lon="15.561872022226453">
        <ele>680.26999999999998</ele>
        <time>2013-09-05T11:24:58Z</time>
      </trkpt>
      <trkpt lat="50.643567005172372" lon="15.56167303584516">
        <ele>683.14999999999998</ele>
        <time>2013-09-05T11:24:59Z</time>
      </trkpt>
      <trkpt lat="50.643607992678881" lon="15.561556024476886">
        <ele>681.71000000000004</ele>
        <time>2013-09-05T11:25:00Z</time>
      </trkpt>
      <trkpt lat="50.643679993227124" lon="15.561464997008443">
        <ele>681.23000000000002</ele>
        <time>2013-09-05T11:25:01Z</time>
      </trkpt>
      <trkpt lat="50.643774960190058" lon="15.561441024765372">
        <ele>679.78999999999996</ele>
        <time>2013-09-05T11:25:02Z</time>
      </trkpt>
      <trkpt lat="50.643889037892222" lon="15.561452005058527">
        <ele>679.78999999999996</ele>
        <time>2013-09-05T11:25:03Z</time>
      </trkpt>
      <trkpt lat="50.644015017896891" lon="15.561507996171713">
        <ele>679.78999999999996</ele>
        <time>2013-09-05T11:25:04Z</time>
      </trkpt>
      <trkpt lat="50.644115014001727" lon="15.561601035296917">
        <ele>679.30999999999995</ele>
        <time>2013-09-05T11:25:05Z</time>
      </trkpt>
      <trkpt lat="50.644212998449802" lon="15.561707988381386">
        <ele>678.83000000000004</ele>
        <time>2013-09-05T11:25:06Z</time>
      </trkpt>
      <trkpt lat="50.644296985119581" lon="15.56182399392128">
        <ele>678.35000000000002</ele>
        <time>2013-09-05T11:25:07Z</time>
      </trkpt>
      <trkpt lat="50.644373008981347" lon="15.561949973925948">
        <ele>677.38999999999999</ele>
        <time>2013-09-05T11:25:08Z</time>
      </trkpt>
      <trkpt lat="50.644439980387688" lon="15.562094980850816">
        <ele>675.94000000000005</ele>
        <time>2013-09-05T11:25:09Z</time>
      </trkpt>
      <trkpt lat="50.644496977329254" lon="15.562269994989038">
        <ele>674.98000000000002</ele>
        <time>2013-09-05T11:25:10Z</time>
      </trkpt>
      <trkpt lat="50.644923029467463" lon="15.563646974042058">
        <ele>666.33000000000004</ele>
        <time>2013-09-05T11:25:18Z</time>
      </trkpt>
      <trkpt lat="50.645416975021362" lon="15.564523972570896">
        <ele>660.55999999999995</ele>
        <time>2013-09-05T11:25:26Z</time>
      </trkpt>
      <trkpt lat="50.645488975569606" lon="15.564533025026321">
        <ele>660.08000000000004</ele>
        <time>2013-09-05T11:25:27Z</time>
      </trkpt>
      <trkpt lat="50.645553013309836" lon="15.564529001712799">
        <ele>659.12</ele>
        <time>2013-09-05T11:25:28Z</time>
      </trkpt>
      <trkpt lat="50.645610010251403" lon="15.564491031691432">
        <ele>659.12</ele>
        <time>2013-09-05T11:25:29Z</time>
      </trkpt>
      <trkpt lat="50.64566901884973" lon="15.564416013658047">
        <ele>659.12</ele>
        <time>2013-09-05T11:25:30Z</time>
      </trkpt>
      <trkpt lat="50.645703971385956" lon="15.564306965097785">
        <ele>658.63999999999999</ele>
        <time>2013-09-05T11:25:31Z</time>
      </trkpt>
      <trkpt lat="50.645743031054735" lon="15.564174028113484">
        <ele>658.15999999999997</ele>
        <time>2013-09-05T11:25:32Z</time>
      </trkpt>
      <trkpt lat="50.645796004682779" lon="15.564012005925179">
        <ele>658.15999999999997</ele>
        <time>2013-09-05T11:25:33Z</time>
      </trkpt>
      <trkpt lat="50.64627100713551" lon="15.562190031632781">
        <ele>653.83000000000004</ele>
        <time>2013-09-05T11:25:44Z</time>
      </trkpt>
      <trkpt lat="50.646367985755205" lon="15.561813013628125">
        <ele>652.87</ele>
        <time>2013-09-05T11:25:46Z</time>
      </trkpt>
      <trkpt lat="50.64646303653717" lon="15.561229968443513">
        <ele>651.42999999999995</ele>
        <time>2013-09-05T11:25:49Z</time>
      </trkpt>
      <trkpt lat="50.64646597020328" lon="15.561023019254208">
        <ele>650.95000000000005</ele>
        <time>2013-09-05T11:25:50Z</time>
      </trkpt>
      <trkpt lat="50.646435962989926" lon="15.560811040922999">
        <ele>650.47000000000003</ele>
        <time>2013-09-05T11:25:51Z</time>
      </trkpt>
      <trkpt lat="50.646411990746856" lon="15.560600990429521">
        <ele>649.99000000000001</ele>
        <time>2013-09-05T11:25:52Z</time>
      </trkpt>
      <trkpt lat="50.64637997187674" lon="15.560403009876609">
        <ele>649.99000000000001</ele>
        <time>2013-09-05T11:25:53Z</time>
      </trkpt>
      <trkpt lat="50.646344013512135" lon="15.560215003788471">
        <ele>649.02999999999997</ele>
        <time>2013-09-05T11:25:54Z</time>
      </trkpt>
      <trkpt lat="50.646131029352546" lon="15.559027958661318">
        <ele>644.70000000000005</ele>
        <time>2013-09-05T11:26:01Z</time>
      </trkpt>
      <trkpt lat="50.646127006039023" lon="15.558874988928437">
        <ele>644.22000000000003</ele>
        <time>2013-09-05T11:26:02Z</time>
      </trkpt>
      <trkpt lat="50.646133041009307" lon="15.558740962296724">
        <ele>643.74000000000001</ele>
        <time>2013-09-05T11:26:03Z</time>
      </trkpt>
      <trkpt lat="50.646088030189276" lon="15.558424964547157">
        <ele>641.82000000000005</ele>
        <time>2013-09-05T11:26:06Z</time>
      </trkpt>
      <trkpt lat="50.645994991064072" lon="15.558304013684392">
        <ele>640.86000000000001</ele>
        <time>2013-09-05T11:26:08Z</time>
      </trkpt>
      <trkpt lat="50.645961966365576" lon="15.558303007856011">
        <ele>639.88999999999999</ele>
        <time>2013-09-05T11:26:09Z</time>
      </trkpt>
      <trkpt lat="50.645922990515828" lon="15.558311976492405">
        <ele>638.45000000000005</ele>
        <time>2013-09-05T11:26:10Z</time>
      </trkpt>
      <trkpt lat="50.645903963595629" lon="15.558360004797578">
        <ele>637.97000000000003</ele>
        <time>2013-09-05T11:26:11Z</time>
      </trkpt>
      <trkpt lat="50.645896000787616" lon="15.558443991467357">
        <ele>637.00999999999999</ele>
        <time>2013-09-05T11:26:12Z</time>
      </trkpt>
      <trkpt lat="50.645907986909151" lon="15.558532001450658">
        <ele>637.00999999999999</ele>
        <time>2013-09-05T11:26:13Z</time>
      </trkpt>
      <trkpt lat="50.645917961373925" lon="15.558648006990552">
        <ele>636.52999999999997</ele>
        <time>2013-09-05T11:26:14Z</time>
      </trkpt>
      <trkpt lat="50.64592701382935" lon="15.558799970895052">
        <ele>636.04999999999995</ele>
        <time>2013-09-05T11:26:15Z</time>
      </trkpt>
      <trkpt lat="50.64594604074955" lon="15.559342028573155">
        <ele>633.16999999999996</ele>
        <time>2013-09-05T11:26:19Z</time>
      </trkpt>
      <trkpt lat="50.645917961373925" lon="15.559483012184501">
        <ele>632.20000000000005</ele>
        <time>2013-09-05T11:26:20Z</time>
      </trkpt>
      <trkpt lat="50.645874962210655" lon="15.559580996632576">
        <ele>630.75999999999999</ele>
        <time>2013-09-05T11:26:21Z</time>
      </trkpt>
      <trkpt lat="50.645824000239372" lon="15.55963103659451">
        <ele>630.27999999999997</ele>
        <time>2013-09-05T11:26:22Z</time>
      </trkpt>
      <trkpt lat="50.645760968327522" lon="15.559656014665961">
        <ele>629.32000000000005</ele>
        <time>2013-09-05T11:26:23Z</time>
      </trkpt>
      <trkpt lat="50.645695002749562" lon="15.559636987745762">
        <ele>628.84000000000003</ele>
        <time>2013-09-05T11:26:24Z</time>
      </trkpt>
      <trkpt lat="50.645616967231035" lon="15.559601029381156">
        <ele>628.84000000000003</ele>
        <time>2013-09-05T11:26:25Z</time>
      </trkpt>
      <trkpt lat="50.645558964461088" lon="15.559516036882997">
        <ele>628.84000000000003</ele>
        <time>2013-09-05T11:26:26Z</time>
      </trkpt>
      <trkpt lat="50.645534992218018" lon="15.559386033564806">
        <ele>628.84000000000003</ele>
        <time>2013-09-05T11:26:27Z</time>
      </trkpt>
      <trkpt lat="50.645525017753243" lon="15.55924697779119">
        <ele>627.39999999999998</ele>
        <time>2013-09-05T11:26:28Z</time>
      </trkpt>
      <trkpt lat="50.645532980561256" lon="15.559076992794871">
        <ele>626.91999999999996</ele>
        <time>2013-09-05T11:26:29Z</time>
      </trkpt>
      <trkpt lat="50.645534992218018" lon="15.558897033333778">
        <ele>625.96000000000004</ele>
        <time>2013-09-05T11:26:30Z</time>
      </trkpt>
      <trkpt lat="50.645486963912845" lon="15.558564020320773">
        <ele>625.96000000000004</ele>
        <time>2013-09-05T11:26:32Z</time>
      </trkpt>
      <trkpt lat="50.645451005548239" lon="15.557716023176908">
        <ele>624.50999999999999</ele>
        <time>2013-09-05T11:26:37Z</time>
      </trkpt>
      <trkpt lat="50.645486041903496" lon="15.557540003210306">
        <ele>623.54999999999995</ele>
        <time>2013-09-05T11:26:38Z</time>
      </trkpt>
      <trkpt lat="50.645538009703159" lon="15.557371024042368">
        <ele>623.07000000000005</ele>
        <time>2013-09-05T11:26:39Z</time>
      </trkpt>
      <trkpt lat="50.646133041009307" lon="15.555858006700873">
        <ele>622.59000000000003</ele>
        <time>2013-09-05T11:26:48Z</time>
      </trkpt>
      <trkpt lat="50.646328004077077" lon="15.555341010913253">
        <ele>620.19000000000005</ele>
        <time>2013-09-05T11:26:51Z</time>
      </trkpt>
      <trkpt lat="50.646492959931493" lon="15.554809011518955">
        <ele>618.25999999999999</ele>
        <time>2013-09-05T11:26:54Z</time>
      </trkpt>
      <trkpt lat="50.646555991843343" lon="15.55467096157372">
        <ele>617.77999999999997</ele>
        <time>2013-09-05T11:26:55Z</time>
      </trkpt>
      <trkpt lat="50.646621035411954" lon="15.554569037631154">
        <ele>617.29999999999995</ele>
        <time>2013-09-05T11:26:56Z</time>
      </trkpt>
      <trkpt lat="50.64668096601963" lon="15.554473986849189">
        <ele>616.34000000000003</ele>
        <time>2013-09-05T11:26:57Z</time>
      </trkpt>
      <trkpt lat="50.646751960739493" lon="15.554408021271229">
        <ele>616.34000000000003</ele>
        <time>2013-09-05T11:26:58Z</time>
      </trkpt>
      <trkpt lat="50.646831002086401" lon="15.554360998794436">
        <ele>615.86000000000001</ele>
        <time>2013-09-05T11:26:59Z</time>
      </trkpt>
      <trkpt lat="50.646954970434308" lon="15.554353035986423">
        <ele>615.86000000000001</ele>
        <time>2013-09-05T11:27:00Z</time>
      </trkpt>
      <trkpt lat="50.647015990689397" lon="15.554349012672901">
        <ele>615.38</ele>
        <time>2013-09-05T11:27:01Z</time>
      </trkpt>
      <trkpt lat="50.647106012329459" lon="15.554354041814804">
        <ele>615.38</ele>
        <time>2013-09-05T11:27:02Z</time>
      </trkpt>
      <trkpt lat="50.647177007049322" lon="15.554364016279578">
        <ele>614.41999999999996</ele>
        <time>2013-09-05T11:27:03Z</time>
      </trkpt>
      <trkpt lat="50.647254036739469" lon="15.554350018501282">
        <ele>614.41999999999996</ele>
        <time>2013-09-05T11:27:04Z</time>
      </trkpt>
      <trkpt lat="50.647315979003906" lon="15.554311964660883">
        <ele>614.41999999999996</ele>
        <time>2013-09-05T11:27:05Z</time>
      </trkpt>
      <trkpt lat="50.647359983995557" lon="15.554224960505962">
        <ele>614.89999999999998</ele>
        <time>2013-09-05T11:27:06Z</time>
      </trkpt>
      <trkpt lat="50.647386973723769" lon="15.554130999371409">
        <ele>614.89999999999998</ele>
        <time>2013-09-05T11:27:07Z</time>
      </trkpt>
      <trkpt lat="50.647375993430614" lon="15.553994039073586">
        <ele>614.89999999999998</ele>
        <time>2013-09-05T11:27:08Z</time>
      </trkpt>
      <trkpt lat="50.647351015359163" lon="15.553870992735028">
        <ele>615.38</ele>
        <time>2013-09-05T11:27:09Z</time>
      </trkpt>
      <trkpt lat="50.647308016195893" lon="15.553764961659908">
        <ele>614.41999999999996</ele>
        <time>2013-09-05T11:27:10Z</time>
      </trkpt>
      <trkpt lat="50.647238027304411" lon="15.553689021617174">
        <ele>614.41999999999996</ele>
        <time>2013-09-05T11:27:11Z</time>
      </trkpt>
      <trkpt lat="50.647160997614264" lon="15.553612997755408">
        <ele>613.94000000000005</ele>
        <time>2013-09-05T11:27:12Z</time>
      </trkpt>
      <trkpt lat="50.647077010944486" lon="15.553537979722023">
        <ele>614.41999999999996</ele>
        <time>2013-09-05T11:27:13Z</time>
      </trkpt>
      <trkpt lat="50.647006016224623" lon="15.553457010537386">
        <ele>613.94000000000005</ele>
        <time>2013-09-05T11:27:14Z</time>
      </trkpt>
      <trkpt lat="50.646948013454676" lon="15.55333798751235">
        <ele>613.94000000000005</ele>
        <time>2013-09-05T11:27:15Z</time>
      </trkpt>
      <trkpt lat="50.646907025948167" lon="15.553189963102341">
        <ele>613.94000000000005</ele>
        <time>2013-09-05T11:27:16Z</time>
      </trkpt>
      <trkpt lat="50.646874001249671" lon="15.553015032783151">
        <ele>613.46000000000004</ele>
        <time>2013-09-05T11:27:17Z</time>
      </trkpt>
      <trkpt lat="50.646865032613277" lon="15.552843036130071">
        <ele>612.01999999999998</ele>
        <time>2013-09-05T11:27:18Z</time>
      </trkpt>
      <trkpt lat="50.646864026784897" lon="15.55264899507165">
        <ele>609.61000000000001</ele>
        <time>2013-09-05T11:27:19Z</time>
      </trkpt>
      <trkpt lat="50.64687198959291" lon="15.552436010912061">
        <ele>609.13</ele>
        <time>2013-09-05T11:27:20Z</time>
      </trkpt>
      <trkpt lat="50.646880036219954" lon="15.552226966246963">
        <ele>608.16999999999996</ele>
        <time>2013-09-05T11:27:21Z</time>
      </trkpt>
      <trkpt lat="50.646932004019618" lon="15.550970016047359">
        <ele>603.36000000000001</ele>
        <time>2013-09-05T11:27:27Z</time>
      </trkpt>
      <trkpt lat="50.646891016513109" lon="15.549478959292173">
        <ele>595.19000000000005</ele>
        <time>2013-09-05T11:27:34Z</time>
      </trkpt>
      <trkpt lat="50.646834019571543" lon="15.549294976517558">
        <ele>594.71000000000004</ele>
        <time>2013-09-05T11:27:35Z</time>
      </trkpt>
      <trkpt lat="50.64676302485168" lon="15.549098001793027">
        <ele>593.75</ele>
        <time>2013-09-05T11:27:36Z</time>
      </trkpt>
      <trkpt lat="50.646679038181901" lon="15.548920975998044">
        <ele>592.78999999999996</ele>
        <time>2013-09-05T11:27:37Z</time>
      </trkpt>
      <trkpt lat="50.646598991006613" lon="15.548724001273513">
        <ele>591.83000000000004</ele>
        <time>2013-09-05T11:27:38Z</time>
      </trkpt>
      <trkpt lat="50.646407967433333" lon="15.548416972160339">
        <ele>589.90999999999997</ele>
        <time>2013-09-05T11:27:40Z</time>
      </trkpt>
      <trkpt lat="50.645844032987952" lon="15.547480965033174">
        <ele>583.65999999999997</ele>
        <time>2013-09-05T11:27:46Z</time>
      </trkpt>
      <trkpt lat="50.645777983590961" lon="15.547302011400461">
        <ele>582.22000000000003</ele>
        <time>2013-09-05T11:27:47Z</time>
      </trkpt>
      <trkpt lat="50.645718974992633" lon="15.547116016969085">
        <ele>580.76999999999998</ele>
        <time>2013-09-05T11:27:48Z</time>
      </trkpt>
      <trkpt lat="50.645252019166946" lon="15.54536503739655">
        <ele>565.38999999999999</ele>
        <time>2013-09-05T11:27:57Z</time>
      </trkpt>
      <trkpt lat="50.645064013078809" lon="15.544723989441991">
        <ele>559.13999999999999</ele>
        <time>2013-09-05T11:28:01Z</time>
      </trkpt>
      <trkpt lat="50.645068036392331" lon="15.544558027759194">
        <ele>557.70000000000005</ele>
        <time>2013-09-05T11:28:02Z</time>
      </trkpt>
      <trkpt lat="50.645092008635402" lon="15.544410003349185">
        <ele>556.74000000000001</ele>
        <time>2013-09-05T11:28:03Z</time>
      </trkpt>
      <trkpt lat="50.645112041383982" lon="15.544288968667388">
        <ele>555.77999999999997</ele>
        <time>2013-09-05T11:28:04Z</time>
      </trkpt>
      <trkpt lat="50.645147999748588" lon="15.544154020026326">
        <ele>554.82000000000005</ele>
        <time>2013-09-05T11:28:05Z</time>
      </trkpt>
      <trkpt lat="50.645194016396999" lon="15.544007001444697">
        <ele>553.38</ele>
        <time>2013-09-05T11:28:06Z</time>
      </trkpt>
      <trkpt lat="50.645244978368282" lon="15.543884038925171">
        <ele>552.40999999999997</ele>
        <time>2013-09-05T11:28:07Z</time>
      </trkpt>
      <trkpt lat="50.645289989188313" lon="15.543773984536529">
        <ele>551.92999999999995</ele>
        <time>2013-09-05T11:28:08Z</time>
      </trkpt>
      <trkpt lat="50.645436001941562" lon="15.54375696927309">
        <ele>552.40999999999997</ele>
        <time>2013-09-05T11:28:10Z</time>
      </trkpt>
      <trkpt lat="50.645488975569606" lon="15.543692009523511">
        <ele>551.45000000000005</ele>
        <time>2013-09-05T11:28:11Z</time>
      </trkpt>
      <trkpt lat="50.645601041615009" lon="15.543610034510493">
        <ele>550.49000000000001</ele>
        <time>2013-09-05T11:28:13Z</time>
      </trkpt>
      <trkpt lat="50.645634988322854" lon="15.543502997606993">
        <ele>549.52999999999997</ele>
        <time>2013-09-05T11:28:14Z</time>
      </trkpt>
      <trkpt lat="50.645644040778279" lon="15.543386992067099">
        <ele>548.57000000000005</ele>
        <time>2013-09-05T11:28:15Z</time>
      </trkpt>
      <trkpt lat="50.645615961402655" lon="15.543410964310169">
        <ele>548.09000000000003</ele>
        <time>2013-09-05T11:28:16Z</time>
      </trkpt>
      <trkpt lat="50.645559970289469" lon="15.543313985690475">
        <ele>547.13</ele>
        <time>2013-09-05T11:28:17Z</time>
      </trkpt>
      <trkpt lat="50.645469026640058" lon="15.543358996510506">
        <ele>546.64999999999998</ele>
        <time>2013-09-05T11:28:18Z</time>
      </trkpt>
      <trkpt lat="50.645372970029712" lon="15.543336030095816">
        <ele>545.20000000000005</ele>
        <time>2013-09-05T11:28:19Z</time>
      </trkpt>
      <trkpt lat="50.645265011116862" lon="15.543331000953913">
        <ele>544.24000000000001</ele>
        <time>2013-09-05T11:28:20Z</time>
      </trkpt>
      <trkpt lat="50.645149005576968" lon="15.543337035924196">
        <ele>542.79999999999995</ele>
        <time>2013-09-05T11:28:21Z</time>
      </trkpt>
      <trkpt lat="50.645025037229061" lon="15.543392021209002">
        <ele>541.36000000000001</ele>
        <time>2013-09-05T11:28:22Z</time>
      </trkpt>
      <trkpt lat="50.644897967576981" lon="15.543463015928864">
        <ele>540.39999999999998</ele>
        <time>2013-09-05T11:28:23Z</time>
      </trkpt>
      <trkpt lat="50.644753966480494" lon="15.543549014255404">
        <ele>538.96000000000004</ele>
        <time>2013-09-05T11:28:24Z</time>
      </trkpt>
      <trkpt lat="50.64459596760571" lon="15.543577009811997">
        <ele>537.50999999999999</ele>
        <time>2013-09-05T11:28:25Z</time>
      </trkpt>
      <trkpt lat="50.6444669701159" lon="15.543650016188622">
        <ele>534.63</ele>
        <time>2013-09-05T11:28:26Z</time>
      </trkpt>
      <trkpt lat="50.64433503895998" lon="15.543678011745214">
        <ele>533.19000000000005</ele>
        <time>2013-09-05T11:28:27Z</time>
      </trkpt>
      <trkpt lat="50.643300963565707" lon="15.543708018958569">
        <ele>527.41999999999996</ele>
        <time>2013-09-05T11:28:34Z</time>
      </trkpt>
      <trkpt lat="50.643174983561039" lon="15.543659990653396">
        <ele>526.46000000000004</ele>
        <time>2013-09-05T11:28:35Z</time>
      </trkpt>
      <trkpt lat="50.643055960536003" lon="15.543582960963249">
        <ele>525.98000000000002</ele>
        <time>2013-09-05T11:28:36Z</time>
      </trkpt>
      <trkpt lat="50.642925035208464" lon="15.543467961251736">
        <ele>525.01999999999998</ele>
        <time>2013-09-05T11:28:37Z</time>
      </trkpt>
      <trkpt lat="50.642821015790105" lon="15.543363019824028">
        <ele>524.05999999999995</ele>
        <time>2013-09-05T11:28:38Z</time>
      </trkpt>
      <trkpt lat="50.642718002200127" lon="15.543204015120864">
        <ele>523.09000000000003</ele>
        <time>2013-09-05T11:28:39Z</time>
      </trkpt>
      <trkpt lat="50.642613982781768" lon="15.543029000982642">
        <ele>522.61000000000001</ele>
        <time>2013-09-05T11:28:40Z</time>
      </trkpt>
      <trkpt lat="50.642525972798467" lon="15.542789027094841">
        <ele>520.69000000000005</ele>
        <time>2013-09-05T11:28:41Z</time>
      </trkpt>
      <trkpt lat="50.642211986705661" lon="15.542152002453804">
        <ele>517.33000000000004</ele>
        <time>2013-09-05T11:28:44Z</time>
      </trkpt>
      <trkpt lat="50.642091035842896" lon="15.541955027729273">
        <ele>516.37</ele>
        <time>2013-09-05T11:28:45Z</time>
      </trkpt>
      <trkpt lat="50.641728015616536" lon="15.541427973657846">
        <ele>513.96000000000004</ele>
        <time>2013-09-05T11:28:48Z</time>
      </trkpt>
      <trkpt lat="50.64156498759985" lon="15.541310962289572">
        <ele>512.51999999999998</ele>
        <time>2013-09-05T11:28:49Z</time>
      </trkpt>
      <trkpt lat="50.641415035352111" lon="15.541220018640161">
        <ele>511.56</ele>
        <time>2013-09-05T11:28:50Z</time>
      </trkpt>
      <trkpt lat="50.641234992071986" lon="15.541199985891581">
        <ele>511.07999999999998</ele>
        <time>2013-09-05T11:28:51Z</time>
      </trkpt>
      <trkpt lat="50.64107003621757" lon="15.541190011426806">
        <ele>510.12</ele>
        <time>2013-09-05T11:28:52Z</time>
      </trkpt>
      <trkpt lat="50.6409009732306" lon="15.541204009205103">
        <ele>509.63999999999999</ele>
        <time>2013-09-05T11:28:53Z</time>
      </trkpt>
      <trkpt lat="50.639621978625655" lon="15.541451023891568">
        <ele>510.60000000000002</ele>
        <time>2013-09-05T11:29:02Z</time>
      </trkpt>
      <trkpt lat="50.639518965035677" lon="15.541425962001085">
        <ele>510.60000000000002</ele>
        <time>2013-09-05T11:29:03Z</time>
      </trkpt>
      <trkpt lat="50.639427015557885" lon="15.541377011686563">
        <ele>511.07999999999998</ele>
        <time>2013-09-05T11:29:04Z</time>
      </trkpt>
      <trkpt lat="50.639355015009642" lon="15.541291013360023">
        <ele>510.60000000000002</ele>
        <time>2013-09-05T11:29:05Z</time>
      </trkpt>
      <trkpt lat="50.639301035553217" lon="15.541187999770045">
        <ele>510.60000000000002</ele>
        <time>2013-09-05T11:29:06Z</time>
      </trkpt>
      <trkpt lat="50.63924303278327" lon="15.541033018380404">
        <ele>510.12</ele>
        <time>2013-09-05T11:29:07Z</time>
      </trkpt>
      <trkpt lat="50.639169020578265" lon="15.540850041434169">
        <ele>509.63999999999999</ele>
        <time>2013-09-05T11:29:08Z</time>
      </trkpt>
      <trkpt lat="50.638691000640392" lon="15.539085986092687">
        <ele>503.87</ele>
        <time>2013-09-05T11:29:16Z</time>
      </trkpt>
      <trkpt lat="50.638617994263768" lon="15.538353994488716">
        <ele>500.5</ele>
        <time>2013-09-05T11:29:19Z</time>
      </trkpt>
      <trkpt lat="50.638635009527206" lon="15.538080995902419">
        <ele>500.98000000000002</ele>
        <time>2013-09-05T11:29:20Z</time>
      </trkpt>
      <trkpt lat="50.638645989820361" lon="15.537833981215954">
        <ele>500.01999999999998</ele>
        <time>2013-09-05T11:29:21Z</time>
      </trkpt>
      <trkpt lat="50.638688988983631" lon="15.537565005943179">
        <ele>500.98000000000002</ele>
        <time>2013-09-05T11:29:22Z</time>
      </trkpt>
      <trkpt lat="50.638764007017016" lon="15.537295024842024">
        <ele>498.10000000000002</ele>
        <time>2013-09-05T11:29:23Z</time>
      </trkpt>
      <trkpt lat="50.639023007825017" lon="15.534384995698929">
        <ele>489.44999999999999</ele>
        <time>2013-09-05T11:29:34Z</time>
      </trkpt>
      <trkpt lat="50.639101965352893" lon="15.532366968691349">
        <ele>477.43000000000001</ele>
        <time>2013-09-05T11:29:43Z</time>
      </trkpt>
      <trkpt lat="50.639133984223008" lon="15.531447976827621">
        <ele>471.66000000000003</ele>
        <time>2013-09-05T11:29:47Z</time>
      </trkpt>
      <trkpt lat="50.638915970921516" lon="15.529762962833047">
        <ele>463.49000000000001</ele>
        <time>2013-09-05T11:29:55Z</time>
      </trkpt>
      <trkpt lat="50.638745985925198" lon="15.528984032571316">
        <ele>459.17000000000002</ele>
        <time>2013-09-05T11:29:59Z</time>
      </trkpt>
      <trkpt lat="50.638654958456755" lon="15.528804995119572">
        <ele>460.13</ele>
        <time>2013-09-05T11:30:00Z</time>
      </trkpt>
      <trkpt lat="50.638551022857428" lon="15.528657976537943">
        <ele>459.17000000000002</ele>
        <time>2013-09-05T11:30:01Z</time>
      </trkpt>
      <trkpt lat="50.638447003439069" lon="15.528502995148301">
        <ele>458.69</ele>
        <time>2013-09-05T11:30:02Z</time>
      </trkpt>
      <trkpt lat="50.638337032869458" lon="15.528353964909911">
        <ele>458.20999999999998</ele>
        <time>2013-09-05T11:30:03Z</time>
      </trkpt>
      <trkpt lat="50.637163985520601" lon="15.52678001113236">
        <ele>448.11000000000001</ele>
        <time>2013-09-05T11:30:14Z</time>
      </trkpt>
      <trkpt lat="50.636586975306273" lon="15.526139969006181">
        <ele>444.75</ele>
        <time>2013-09-05T11:30:19Z</time>
      </trkpt>
      <trkpt lat="50.636462001129985" lon="15.526045002043247">
        <ele>444.26999999999998</ele>
        <time>2013-09-05T11:30:20Z</time>
      </trkpt>
      <trkpt lat="50.636339960619807" lon="15.525969984009862">
        <ele>444.26999999999998</ele>
        <time>2013-09-05T11:30:21Z</time>
      </trkpt>
      <trkpt lat="50.636055981740355" lon="15.525865964591503">
        <ele>442.81999999999999</ele>
        <time>2013-09-05T11:30:23Z</time>
      </trkpt>
      <trkpt lat="50.635779965668917" lon="15.52574903704226">
        <ele>441.38</ele>
        <time>2013-09-05T11:30:25Z</time>
      </trkpt>
      <trkpt lat="50.635644011199474" lon="15.525659015402198">
        <ele>440.42000000000002</ele>
        <time>2013-09-05T11:30:26Z</time>
      </trkpt>
      <trkpt lat="50.635511996224523" lon="15.525569999590516">
        <ele>439.94</ele>
        <time>2013-09-05T11:30:27Z</time>
      </trkpt>
      <trkpt lat="50.634328974410892" lon="15.524459984153509">
        <ele>433.69</ele>
        <time>2013-09-05T11:30:37Z</time>
      </trkpt>
      <trkpt lat="50.63402202911675" lon="15.524126971140504">
        <ele>432.73000000000002</ele>
        <time>2013-09-05T11:30:40Z</time>
      </trkpt>
      <trkpt lat="50.633925972506404" lon="15.523998979479074">
        <ele>432.73000000000002</ele>
        <time>2013-09-05T11:30:41Z</time>
      </trkpt>
      <trkpt lat="50.63385296612978" lon="15.523835029453039">
        <ele>432.25</ele>
        <time>2013-09-05T11:30:42Z</time>
      </trkpt>
      <trkpt lat="50.633706031367183" lon="15.523518025875092">
        <ele>431.76999999999998</ele>
        <time>2013-09-05T11:30:44Z</time>
      </trkpt>
      <trkpt lat="50.633608968928456" lon="15.523377964273095">
        <ele>431.76999999999998</ele>
        <time>2013-09-05T11:30:45Z</time>
      </trkpt>
      <trkpt lat="50.633533028885722" lon="15.523216025903821">
        <ele>431.76999999999998</ele>
        <time>2013-09-05T11:30:46Z</time>
      </trkpt>
      <trkpt lat="50.633477037772536" lon="15.523034976795316">
        <ele>431.29000000000002</ele>
        <time>2013-09-05T11:30:47Z</time>
      </trkpt>
      <trkpt lat="50.63342398032546" lon="15.522851999849081">
        <ele>430.81</ele>
        <time>2013-09-05T11:30:48Z</time>
      </trkpt>
      <trkpt lat="50.633370000869036" lon="15.522671034559608">
        <ele>430.81</ele>
        <time>2013-09-05T11:30:49Z</time>
      </trkpt>
      <trkpt lat="50.633043022826314" lon="15.521597983315587">
        <ele>427.92000000000002</ele>
        <time>2013-09-05T11:30:55Z</time>
      </trkpt>
      <trkpt lat="50.632914025336504" lon="15.520711010321975">
        <ele>427.44</ele>
        <time>2013-09-05T11:31:00Z</time>
      </trkpt>
      <trkpt lat="50.632859040051699" lon="15.520562985911965">
        <ele>426.48000000000002</ele>
        <time>2013-09-05T11:31:01Z</time>
      </trkpt>
      <trkpt lat="50.63277899287641" lon="15.520440023392439">
        <ele>425.51999999999998</ele>
        <time>2013-09-05T11:31:02Z</time>
      </trkpt>
      <trkpt lat="50.632671033963561" lon="15.520345978438854">
        <ele>426</ele>
        <time>2013-09-05T11:31:03Z</time>
      </trkpt>
      <trkpt lat="50.632576989009976" lon="15.520261991769075">
        <ele>424.56</ele>
        <time>2013-09-05T11:31:04Z</time>
      </trkpt>
      <trkpt lat="50.632256967946887" lon="15.51996803842485">
        <ele>424.07999999999998</ele>
        <time>2013-09-05T11:31:07Z</time>
      </trkpt>
      <trkpt lat="50.632171975448728" lon="15.51984197460115">
        <ele>423.60000000000002</ele>
        <time>2013-09-05T11:31:08Z</time>
      </trkpt>
      <trkpt lat="50.632107015699148" lon="15.519704008474946">
        <ele>423.12</ele>
        <time>2013-09-05T11:31:09Z</time>
      </trkpt>
      <trkpt lat="50.632044989615679" lon="15.519568976014853">
        <ele>422.63999999999999</ele>
        <time>2013-09-05T11:31:10Z</time>
      </trkpt>
      <trkpt lat="50.631997967138886" lon="15.519436039030552">
        <ele>422.63999999999999</ele>
        <time>2013-09-05T11:31:11Z</time>
      </trkpt>
      <trkpt lat="50.631939964368939" lon="15.519214002415538">
        <ele>421.68000000000001</ele>
        <time>2013-09-05T11:31:13Z</time>
      </trkpt>
      <trkpt lat="50.631949016824365" lon="15.519126998260617">
        <ele>422.16000000000003</ele>
        <time>2013-09-05T11:31:14Z</time>
      </trkpt>
      <trkpt lat="50.631957985460758" lon="15.519065978005528">
        <ele>422.16000000000003</ele>
        <time>2013-09-05T11:31:15Z</time>
      </trkpt>
      <trkpt lat="50.632001990452409" lon="15.519016021862626">
        <ele>422.63999999999999</ele>
        <time>2013-09-05T11:31:16Z</time>
      </trkpt>
      <trkpt lat="50.632038032636046" lon="15.519013004377484">
        <ele>424.07999999999998</ele>
        <time>2013-09-05T11:31:17Z</time>
      </trkpt>
      <trkpt lat="50.632123025134206" lon="15.519001018255949">
        <ele>423.60000000000002</ele>
        <time>2013-09-05T11:31:18Z</time>
      </trkpt>
      <trkpt lat="50.632207011803985" lon="15.519019039347768">
        <ele>423.60000000000002</ele>
        <time>2013-09-05T11:31:19Z</time>
      </trkpt>
      <trkpt lat="50.632434999570251" lon="15.519060026854277">
        <ele>423.12</ele>
        <time>2013-09-05T11:31:21Z</time>
      </trkpt>
      <trkpt lat="50.632566008716822" lon="15.519052986055613">
        <ele>422.63999999999999</ele>
        <time>2013-09-05T11:31:22Z</time>
      </trkpt>
      <trkpt lat="50.632700035348535" lon="15.519031025469303">
        <ele>422.63999999999999</ele>
        <time>2013-09-05T11:31:23Z</time>
      </trkpt>
      <trkpt lat="50.632832972332835" lon="15.518987020477653">
        <ele>422.63999999999999</ele>
        <time>2013-09-05T11:31:24Z</time>
      </trkpt>
      <trkpt lat="50.632964987307787" lon="15.518927006050944">
        <ele>422.63999999999999</ele>
        <time>2013-09-05T11:31:25Z</time>
      </trkpt>
      <trkpt lat="50.634497031569481" lon="15.518282018601894">
        <ele>431.29000000000002</ele>
        <time>2013-09-05T11:31:37Z</time>
      </trkpt>
      <trkpt lat="50.636252034455538" lon="15.517611969262362">
        <ele>439.45999999999998</ele>
        <time>2013-09-05T11:31:50Z</time>
      </trkpt>
      <trkpt lat="50.637845015153289" lon="15.51726202480495">
        <ele>452.44</ele>
        <time>2013-09-05T11:32:01Z</time>
      </trkpt>
      <trkpt lat="50.639214031398296" lon="15.517189018428326">
        <ele>466.86000000000001</ele>
        <time>2013-09-05T11:32:10Z</time>
      </trkpt>
      <trkpt lat="50.639348980039358" lon="15.517126992344856">
        <ele>468.77999999999997</ele>
        <time>2013-09-05T11:32:11Z</time>
      </trkpt>
      <trkpt lat="50.639473032206297" lon="15.517021967098117">
        <ele>469.74000000000001</ele>
        <time>2013-09-05T11:32:12Z</time>
      </trkpt>
      <trkpt lat="50.639591971412301" lon="15.51687503233552">
        <ele>471.18000000000001</ele>
        <time>2013-09-05T11:32:13Z</time>
      </trkpt>
      <trkpt lat="50.639705965295434" lon="15.516692977398634">
        <ele>472.13999999999999</ele>
        <time>2013-09-05T11:32:14Z</time>
      </trkpt>
      <trkpt lat="50.63982599414885" lon="15.516482004895806">
        <ele>473.58999999999997</ele>
        <time>2013-09-05T11:32:15Z</time>
      </trkpt>
      <trkpt lat="50.63995499163866" lon="15.51627698354423">
        <ele>475.50999999999999</ele>
        <time>2013-09-05T11:32:16Z</time>
      </trkpt>
      <trkpt lat="50.640115002170205" lon="15.516095012426376">
        <ele>475.99000000000001</ele>
        <time>2013-09-05T11:32:17Z</time>
      </trkpt>
      <trkpt lat="50.640610959380865" lon="15.515670971944928">
        <ele>475.02999999999997</ele>
        <time>2013-09-05T11:32:20Z</time>
      </trkpt>
      <trkpt lat="50.640853028744459" lon="15.515525965020061">
        <ele>476.47000000000003</ele>
        <time>2013-09-05T11:32:21Z</time>
      </trkpt>
      <trkpt lat="50.64102896489203" lon="15.515507021918893">
        <ele>476.47000000000003</ele>
        <time>2013-09-05T11:32:22Z</time>
      </trkpt>
      <trkpt lat="50.64120096154511" lon="15.51552202552557">
        <ele>476.47000000000003</ele>
        <time>2013-09-05T11:32:23Z</time>
      </trkpt>
      <trkpt lat="50.641342028975487" lon="15.515521019697189">
        <ele>475.99000000000001</ele>
        <time>2013-09-05T11:32:24Z</time>
      </trkpt>
      <trkpt lat="50.641855001449585" lon="15.515655968338251">
        <ele>475.50999999999999</ele>
        <time>2013-09-05T11:32:27Z</time>
      </trkpt>
      <trkpt lat="50.642269989475608" lon="15.515940031036735">
        <ele>474.55000000000001</ele>
        <time>2013-09-05T11:32:29Z</time>
      </trkpt>
      <trkpt lat="50.642448021098971" lon="15.515869958326221">
        <ele>474.06999999999999</ele>
        <time>2013-09-05T11:32:30Z</time>
      </trkpt>
      <trkpt lat="50.642607025802135" lon="15.51575998775661">
        <ele>474.06999999999999</ele>
        <time>2013-09-05T11:32:31Z</time>
      </trkpt>
      <trkpt lat="50.642752032727003" lon="15.515595031902194">
        <ele>473.58999999999997</ele>
        <time>2013-09-05T11:32:32Z</time>
      </trkpt>
      <trkpt lat="50.642891004681587" lon="15.515408031642437">
        <ele>473.11000000000001</ele>
        <time>2013-09-05T11:32:33Z</time>
      </trkpt>
      <trkpt lat="50.6430250313133" lon="15.515202004462481">
        <ele>473.11000000000001</ele>
        <time>2013-09-05T11:32:34Z</time>
      </trkpt>
      <trkpt lat="50.643173977732658" lon="15.515007963404059">
        <ele>472.63</ele>
        <time>2013-09-05T11:32:35Z</time>
      </trkpt>
      <trkpt lat="50.643319990485907" lon="15.51483697257936">
        <ele>472.63</ele>
        <time>2013-09-05T11:32:36Z</time>
      </trkpt>
      <trkpt lat="50.644827978685498" lon="15.513170985504985">
        <ele>470.69999999999999</ele>
        <time>2013-09-05T11:32:46Z</time>
      </trkpt>
      <trkpt lat="50.645676981657743" lon="15.512323994189501">
        <ele>473.11000000000001</ele>
        <time>2013-09-05T11:32:52Z</time>
      </trkpt>
      <trkpt lat="50.645836992189288" lon="15.512234978377819">
        <ele>473.11000000000001</ele>
        <time>2013-09-05T11:32:53Z</time>
      </trkpt>
      <trkpt lat="50.646001026034355" lon="15.512199020013213">
        <ele>473.58999999999997</ele>
        <time>2013-09-05T11:32:54Z</time>
      </trkpt>
      <trkpt lat="50.646173022687435" lon="15.512204971164465">
        <ele>474.06999999999999</ele>
        <time>2013-09-05T11:32:55Z</time>
      </trkpt>
      <trkpt lat="50.646434035152197" lon="15.512163983657956">
        <ele>475.99000000000001</ele>
        <time>2013-09-05T11:32:56Z</time>
      </trkpt>
      <trkpt lat="50.646585999056697" lon="15.512095000594854">
        <ele>477.91000000000003</ele>
        <time>2013-09-05T11:32:57Z</time>
      </trkpt>
      <trkpt lat="50.646949019283056" lon="15.512029035016894">
        <ele>478.87</ele>
        <time>2013-09-05T11:32:59Z</time>
      </trkpt>
      <trkpt lat="50.648798989132047" lon="15.511710019782186">
        <ele>483.19999999999999</ele>
        <time>2013-09-05T11:33:09Z</time>
      </trkpt>
      <trkpt lat="50.650127017870545" lon="15.512016965076327">
        <ele>485.60000000000002</ele>
        <time>2013-09-05T11:33:16Z</time>
      </trkpt>
      <trkpt lat="50.65097501501441" lon="15.51206398755312">
        <ele>488.00999999999999</ele>
        <time>2013-09-05T11:33:21Z</time>
      </trkpt>
      <trkpt lat="50.651176013052464" lon="15.511992992833257">
        <ele>489.44999999999999</ele>
        <time>2013-09-05T11:33:22Z</time>
      </trkpt>
      <trkpt lat="50.651318002492189" lon="15.512105980888009">
        <ele>489.93000000000001</ele>
        <time>2013-09-05T11:33:23Z</time>
      </trkpt>
      <trkpt lat="50.651404000818729" lon="15.512241013348103">
        <ele>490.41000000000003</ele>
        <time>2013-09-05T11:33:24Z</time>
      </trkpt>
      <trkpt lat="50.651502991095185" lon="15.512332962825894">
        <ele>491.37</ele>
        <time>2013-09-05T11:33:25Z</time>
      </trkpt>
      <trkpt lat="50.651559988036752" lon="15.512506971135736">
        <ele>491.85000000000002</ele>
        <time>2013-09-05T11:33:26Z</time>
      </trkpt>
      <trkpt lat="50.651570968329906" lon="15.512712998315692">
        <ele>492.81</ele>
        <time>2013-09-05T11:33:27Z</time>
      </trkpt>
      <trkpt lat="50.651565017178655" lon="15.512931011617184">
        <ele>493.29000000000002</ele>
        <time>2013-09-05T11:33:28Z</time>
      </trkpt>
      <trkpt lat="50.651540961116552" lon="15.513343987986445">
        <ele>493.76999999999998</ele>
        <time>2013-09-05T11:33:30Z</time>
      </trkpt>
      <trkpt lat="50.651510031893849" lon="15.513555966317654">
        <ele>494.25999999999999</ele>
        <time>2013-09-05T11:33:31Z</time>
      </trkpt>
      <trkpt lat="50.651459991931915" lon="15.513755036517978">
        <ele>495.22000000000003</ele>
        <time>2013-09-05T11:33:32Z</time>
      </trkpt>
      <trkpt lat="50.65138204023242" lon="15.513983024284244">
        <ele>493.76999999999998</ele>
        <time>2013-09-05T11:33:33Z</time>
      </trkpt>
      <trkpt lat="50.651320014148951" lon="15.514189973473549">
        <ele>494.25999999999999</ele>
        <time>2013-09-05T11:33:34Z</time>
      </trkpt>
      <trkpt lat="50.651266034692526" lon="15.514404969289899">
        <ele>495.22000000000003</ele>
        <time>2013-09-05T11:33:35Z</time>
      </trkpt>
      <trkpt lat="50.651228986680508" lon="15.514624994248152">
        <ele>496.18000000000001</ele>
        <time>2013-09-05T11:33:36Z</time>
      </trkpt>
      <trkpt lat="50.651204008609056" lon="15.514848958700895">
        <ele>496.18000000000001</ele>
        <time>2013-09-05T11:33:37Z</time>
      </trkpt>
      <trkpt lat="50.65110401250422" lon="15.515160011127591">
        <ele>497.13999999999999</ele>
        <time>2013-09-05T11:33:38Z</time>
      </trkpt>
      <trkpt lat="50.651036035269499" lon="15.51541599445045">
        <ele>497.13999999999999</ele>
        <time>2013-09-05T11:33:39Z</time>
      </trkpt>
      <trkpt lat="50.650977026671171" lon="15.515626966953278">
        <ele>497.62</ele>
        <time>2013-09-05T11:33:40Z</time>
      </trkpt>
      <trkpt lat="50.650893962010741" lon="15.515814973041415">
        <ele>498.10000000000002</ele>
        <time>2013-09-05T11:33:41Z</time>
      </trkpt>
      <trkpt lat="50.650787008926272" lon="15.515981018543243">
        <ele>499.54000000000002</ele>
        <time>2013-09-05T11:33:42Z</time>
      </trkpt>
      <trkpt lat="50.650649964809418" lon="15.516195008531213">
        <ele>501.45999999999998</ele>
        <time>2013-09-05T11:33:43Z</time>
      </trkpt>
      <trkpt lat="50.650552986189723" lon="15.516355019062757">
        <ele>501.94999999999999</ele>
        <time>2013-09-05T11:33:44Z</time>
      </trkpt>
      <trkpt lat="50.650479979813099" lon="15.51653397269547">
        <ele>502.91000000000003</ele>
        <time>2013-09-05T11:33:45Z</time>
      </trkpt>
      <trkpt lat="50.650428012013435" lon="15.516733964905143">
        <ele>503.87</ele>
        <time>2013-09-05T11:33:46Z</time>
      </trkpt>
      <trkpt lat="50.650407979264855" lon="15.516962958499789">
        <ele>504.82999999999998</ele>
        <time>2013-09-05T11:33:47Z</time>
      </trkpt>
      <trkpt lat="50.650408985093236" lon="15.51722296513617">
        <ele>505.79000000000002</ele>
        <time>2013-09-05T11:33:48Z</time>
      </trkpt>
      <trkpt lat="50.650442009791732" lon="15.517519013956189">
        <ele>507.70999999999998</ele>
        <time>2013-09-05T11:33:49Z</time>
      </trkpt>
      <trkpt lat="50.650398004800081" lon="15.518027041107416">
        <ele>513.96000000000004</ele>
        <time>2013-09-05T11:33:50Z</time>
      </trkpt>
      <trkpt lat="50.650566983968019" lon="15.520031992346048">
        <ele>513.48000000000002</ele>
        <time>2013-09-05T11:33:56Z</time>
      </trkpt>
      <trkpt lat="50.650541000068188" lon="15.520319994539022">
        <ele>513.96000000000004</ele>
        <time>2013-09-05T11:33:57Z</time>
      </trkpt>
      <trkpt lat="50.650487020611763" lon="15.520615959540009">
        <ele>514.91999999999996</ele>
        <time>2013-09-05T11:33:58Z</time>
      </trkpt>
      <trkpt lat="50.650421977043152" lon="15.520888036116958">
        <ele>515.88</ele>
        <time>2013-09-05T11:33:59Z</time>
      </trkpt>
      <trkpt lat="50.650365985929966" lon="15.521162040531635">
        <ele>516.37</ele>
        <time>2013-09-05T11:34:00Z</time>
      </trkpt>
      <trkpt lat="50.650302032008767" lon="15.521454988047481">
        <ele>517.33000000000004</ele>
        <time>2013-09-05T11:34:01Z</time>
      </trkpt>
      <trkpt lat="50.65005199983716" lon="15.522829033434391">
        <ele>520.21000000000004</ele>
        <time>2013-09-05T11:34:06Z</time>
      </trkpt>
      <trkpt lat="50.650065997615457" lon="15.523112006485462">
        <ele>518.76999999999998</ele>
        <time>2013-09-05T11:34:07Z</time>
      </trkpt>
      <trkpt lat="50.650085024535656" lon="15.523373018950224">
        <ele>517.33000000000004</ele>
        <time>2013-09-05T11:34:08Z</time>
      </trkpt>
      <trkpt lat="50.650121988728642" lon="15.52362103946507">
        <ele>517.33000000000004</ele>
        <time>2013-09-05T11:34:09Z</time>
      </trkpt>
      <trkpt lat="50.650159036740661" lon="15.523837963119149">
        <ele>516.85000000000002</ele>
        <time>2013-09-05T11:34:10Z</time>
      </trkpt>
      <trkpt lat="50.650239000096917" lon="15.524056982249022">
        <ele>517.33000000000004</ele>
        <time>2013-09-05T11:34:11Z</time>
      </trkpt>
      <trkpt lat="50.650323992595077" lon="15.52426602691412">
        <ele>517.80999999999995</ele>
        <time>2013-09-05T11:34:12Z</time>
      </trkpt>
      <trkpt lat="50.650407979264855" lon="15.524478005245328">
        <ele>518.28999999999996</ele>
        <time>2013-09-05T11:34:13Z</time>
      </trkpt>
      <trkpt lat="50.650533959269524" lon="15.524659976363182">
        <ele>519.25</ele>
        <time>2013-09-05T11:34:14Z</time>
      </trkpt>
      <trkpt lat="50.650766976177692" lon="15.525051997974515">
        <ele>520.21000000000004</ele>
        <time>2013-09-05T11:34:16Z</time>
      </trkpt>
      <trkpt lat="50.651008961722255" lon="15.525154005736113">
        <ele>522.13</ele>
        <time>2013-09-05T11:34:17Z</time>
      </trkpt>
      <trkpt lat="50.651846984401345" lon="15.52531803958118">
        <ele>525.5</ele>
        <time>2013-09-05T11:34:20Z</time>
      </trkpt>
      <trkpt lat="50.653091026470065" lon="15.526417996734381">
        <ele>537.02999999999997</ele>
        <time>2013-09-05T11:34:28Z</time>
      </trkpt>
      <trkpt lat="50.654363986104727" lon="15.527594983577728">
        <ele>549.52999999999997</ele>
        <time>2013-09-05T11:34:36Z</time>
      </trkpt>
      <trkpt lat="50.655677011236548" lon="15.528319012373686">
        <ele>559.13999999999999</ele>
        <time>2013-09-05T11:34:43Z</time>
      </trkpt>
      <trkpt lat="50.656706979498267" lon="15.52921000868082">
        <ele>566.83000000000004</ele>
        <time>2013-09-05T11:34:49Z</time>
      </trkpt>
      <trkpt lat="50.656962040811777" lon="15.529239010065794">
        <ele>568.27999999999997</ele>
        <time>2013-09-05T11:34:50Z</time>
      </trkpt>
      <trkpt lat="50.657206960022449" lon="15.529245967045426">
        <ele>569.72000000000003</ele>
        <time>2013-09-05T11:34:51Z</time>
      </trkpt>
      <trkpt lat="50.657597975805402" lon="15.529287038370967">
        <ele>572.12</ele>
        <time>2013-09-05T11:34:53Z</time>
      </trkpt>
      <trkpt lat="50.657806014642119" lon="15.529245967045426">
        <ele>573.55999999999995</ele>
        <time>2013-09-05T11:34:54Z</time>
      </trkpt>
      <trkpt lat="50.658374978229403" lon="15.529259964823723">
        <ele>577.40999999999997</ele>
        <time>2013-09-05T11:34:57Z</time>
      </trkpt>
      <trkpt lat="50.658570025116205" lon="15.529316961765289">
        <ele>578.85000000000002</ele>
        <time>2013-09-05T11:34:58Z</time>
      </trkpt>
      <trkpt lat="50.658771023154259" lon="15.5294010322541">
        <ele>579.80999999999995</ele>
        <time>2013-09-05T11:34:59Z</time>
      </trkpt>
      <trkpt lat="50.659301010891795" lon="15.529560036957264">
        <ele>584.13999999999999</ele>
        <time>2013-09-05T11:35:02Z</time>
      </trkpt>
      <trkpt lat="50.65946102142334" lon="15.529563976451755">
        <ele>585.10000000000002</ele>
        <time>2013-09-05T11:35:03Z</time>
      </trkpt>
      <trkpt lat="50.659635029733181" lon="15.529525000602007">
        <ele>586.53999999999996</ele>
        <time>2013-09-05T11:35:04Z</time>
      </trkpt>
      <trkpt lat="50.660842023789883" lon="15.52865001372993">
        <ele>594.71000000000004</ele>
        <time>2013-09-05T11:35:11Z</time>
      </trkpt>
      <trkpt lat="50.661823963746428" lon="15.527789024636149">
        <ele>598.55999999999995</ele>
        <time>2013-09-05T11:35:17Z</time>
      </trkpt>
      <trkpt lat="50.661987997591496" lon="15.527585009112954">
        <ele>597.12</ele>
        <time>2013-09-05T11:35:18Z</time>
      </trkpt>
      <trkpt lat="50.662139039486647" lon="15.527336988598108">
        <ele>595.66999999999996</ele>
        <time>2013-09-05T11:35:19Z</time>
      </trkpt>
      <trkpt lat="50.66225303336978" lon="15.527097014710307">
        <ele>595.19000000000005</ele>
        <time>2013-09-05T11:35:20Z</time>
      </trkpt>
      <trkpt lat="50.662349006161094" lon="15.5268469825387">
        <ele>596.14999999999998</ele>
        <time>2013-09-05T11:35:21Z</time>
      </trkpt>
      <trkpt lat="50.66244799643755" lon="15.526570966467261">
        <ele>596.63999999999999</ele>
        <time>2013-09-05T11:35:22Z</time>
      </trkpt>
      <trkpt lat="50.663164984434843" lon="15.524453027173877">
        <ele>598.55999999999995</ele>
        <time>2013-09-05T11:35:30Z</time>
      </trkpt>
      <trkpt lat="50.663288030773401" lon="15.524234008044004">
        <ele>599.03999999999996</ele>
        <time>2013-09-05T11:35:31Z</time>
      </trkpt>
      <trkpt lat="50.663573015481234" lon="15.52381700836122">
        <ele>600.48000000000002</ele>
        <time>2013-09-05T11:35:33Z</time>
      </trkpt>
      <trkpt lat="50.663741994649172" lon="15.52364501170814">
        <ele>601.91999999999996</ele>
        <time>2013-09-05T11:35:34Z</time>
      </trkpt>
      <trkpt lat="50.665101958438754" lon="15.522317988798022">
        <ele>612.98000000000002</ele>
        <time>2013-09-05T11:35:42Z</time>
      </trkpt>
      <trkpt lat="50.66612103022635" lon="15.523026008158922">
        <ele>616.34000000000003</ele>
        <time>2013-09-05T11:35:46Z</time>
      </trkpt>
      <trkpt lat="50.667963959276676" lon="15.524215986952186">
        <ele>620.66999999999996</ele>
        <time>2013-09-05T11:35:51Z</time>
      </trkpt>
      <trkpt lat="50.668058004230261" lon="15.526157990098">
        <ele>611.53999999999996</ele>
        <time>2013-09-05T11:35:53Z</time>
      </trkpt>
      <trkpt lat="50.668317005038261" lon="15.526606002822518">
        <ele>608.16999999999996</ele>
        <time>2013-09-05T11:35:55Z</time>
      </trkpt>
      <trkpt lat="50.668521020561457" lon="15.526767019182444">
        <ele>599.51999999999998</ele>
        <time>2013-09-05T11:35:56Z</time>
      </trkpt>
      <trkpt lat="50.668818997219205" lon="15.526994001120329">
        <ele>588.95000000000005</ele>
        <time>2013-09-05T11:35:58Z</time>
      </trkpt>
      <trkpt lat="50.668955035507679" lon="15.52723104134202">
        <ele>585.58000000000004</ele>
        <time>2013-09-05T11:35:59Z</time>
      </trkpt>
      <trkpt lat="50.66908797249198" lon="15.527503034099936">
        <ele>583.17999999999995</ele>
        <time>2013-09-05T11:36:00Z</time>
      </trkpt>
      <trkpt lat="50.669191991910338" lon="15.527755999937654">
        <ele>581.73000000000002</ele>
        <time>2013-09-05T11:36:01Z</time>
      </trkpt>
      <trkpt lat="50.669273966923356" lon="15.528033021837473">
        <ele>580.76999999999998</ele>
        <time>2013-09-05T11:36:02Z</time>
      </trkpt>
      <trkpt lat="50.669314032420516" lon="15.528289005160332">
        <ele>575.97000000000003</ele>
        <time>2013-09-05T11:36:03Z</time>
      </trkpt>
      <trkpt lat="50.669358037412167" lon="15.528566027060151">
        <ele>574.52999999999997</ele>
        <time>2013-09-05T11:36:04Z</time>
      </trkpt>
      <trkpt lat="50.669612009078264" lon="15.529513014480472">
        <ele>563.47000000000003</ele>
        <time>2013-09-05T11:36:08Z</time>
      </trkpt>
      <trkpt lat="50.669655008241534" lon="15.529802022501826">
        <ele>562.99000000000001</ele>
        <time>2013-09-05T11:36:09Z</time>
      </trkpt>
      <trkpt lat="50.669802026823163" lon="15.529963038861752">
        <ele>561.54999999999995</ele>
        <time>2013-09-05T11:36:10Z</time>
      </trkpt>
      <trkpt lat="50.669956002384424" lon="15.530102010816336">
        <ele>559.62</ele>
        <time>2013-09-05T11:36:11Z</time>
      </trkpt>
      <trkpt lat="50.670133028179407" lon="15.530158001929522">
        <ele>558.17999999999995</ele>
        <time>2013-09-05T11:36:12Z</time>
      </trkpt>
      <trkpt lat="50.670294966548681" lon="15.530193038284779">
        <ele>557.70000000000005</ele>
        <time>2013-09-05T11:36:13Z</time>
      </trkpt>
      <trkpt lat="50.670446008443832" lon="15.53019798360765">
        <ele>556.74000000000001</ele>
        <time>2013-09-05T11:36:14Z</time>
      </trkpt>
      <trkpt lat="50.67143096588552" lon="15.530074015259743">
        <ele>551.92999999999995</ele>
        <time>2013-09-05T11:36:20Z</time>
      </trkpt>
      <trkpt lat="50.671608997508883" lon="15.530148027464747">
        <ele>551.92999999999995</ele>
        <time>2013-09-05T11:36:21Z</time>
      </trkpt>
      <trkpt lat="50.671821981668472" lon="15.530193960294127">
        <ele>550.97000000000003</ele>
        <time>2013-09-05T11:36:22Z</time>
      </trkpt>
      <trkpt lat="50.671981992200017" lon="15.530380960553885">
        <ele>549.04999999999995</ele>
        <time>2013-09-05T11:36:23Z</time>
      </trkpt>
      <trkpt lat="50.672100009396672" lon="15.530625963583589">
        <ele>548.57000000000005</ele>
        <time>2013-09-05T11:36:24Z</time>
      </trkpt>
      <trkpt lat="50.672214003279805" lon="15.530898040160537">
        <ele>547.13</ele>
        <time>2013-09-05T11:36:25Z</time>
      </trkpt>
      <trkpt lat="50.672317016869783" lon="15.531131979078054">
        <ele>547.61000000000001</ele>
        <time>2013-09-05T11:36:26Z</time>
      </trkpt>
      <trkpt lat="50.672433022409678" lon="15.531344041228294">
        <ele>548.09000000000003</ele>
        <time>2013-09-05T11:36:27Z</time>
      </trkpt>
      <trkpt lat="50.672801993787289" lon="15.531834969297051">
        <ele>549.52999999999997</ele>
        <time>2013-09-05T11:36:30Z</time>
      </trkpt>
      <trkpt lat="50.673615960404277" lon="15.532742980867624">
        <ele>550.00999999999999</ele>
        <time>2013-09-05T11:36:37Z</time>
      </trkpt>
      <trkpt lat="50.673686033114791" lon="15.532928975299001">
        <ele>550.00999999999999</ele>
        <time>2013-09-05T11:36:38Z</time>
      </trkpt>
      <trkpt lat="50.673746969550848" lon="15.533116981387138">
        <ele>550.49000000000001</ele>
        <time>2013-09-05T11:36:39Z</time>
      </trkpt>
      <trkpt lat="50.67381301894784" lon="15.533299958333373">
        <ele>550.49000000000001</ele>
        <time>2013-09-05T11:36:40Z</time>
      </trkpt>
      <trkpt lat="50.67385601811111" lon="15.533500034362078">
        <ele>550.00999999999999</ele>
        <time>2013-09-05T11:36:41Z</time>
      </trkpt>
      <trkpt lat="50.674570994451642" lon="15.535666001960635">
        <ele>557.70000000000005</ele>
        <time>2013-09-05T11:36:52Z</time>
      </trkpt>
      <trkpt lat="50.674669984728098" lon="15.535813020542264">
        <ele>558.17999999999995</ele>
        <time>2013-09-05T11:36:53Z</time>
      </trkpt>
      <trkpt lat="50.674778027459979" lon="15.535916034132242">
        <ele>558.65999999999997</ele>
        <time>2013-09-05T11:36:54Z</time>
      </trkpt>
      <trkpt lat="50.674881041049957" lon="15.535973031073809">
        <ele>559.62</ele>
        <time>2013-09-05T11:36:55Z</time>
      </trkpt>
      <trkpt lat="50.6749979685992" lon="15.535943023860455">
        <ele>560.11000000000001</ele>
        <time>2013-09-05T11:36:56Z</time>
      </trkpt>
      <trkpt lat="50.675107017159462" lon="15.535865994170308">
        <ele>561.54999999999995</ele>
        <time>2013-09-05T11:36:57Z</time>
      </trkpt>
      <trkpt lat="50.675221011042595" lon="15.535758035257459">
        <ele>561.54999999999995</ele>
        <time>2013-09-05T11:36:58Z</time>
      </trkpt>
      <trkpt lat="50.675328969955444" lon="15.535615961998701">
        <ele>561.07000000000005</ele>
        <time>2013-09-05T11:36:59Z</time>
      </trkpt>
      <trkpt lat="50.675439024344087" lon="15.535457041114569">
        <ele>561.54999999999995</ele>
        <time>2013-09-05T11:37:00Z</time>
      </trkpt>
      <trkpt lat="50.675540026277304" lon="15.535284960642457">
        <ele>562.02999999999997</ele>
        <time>2013-09-05T11:37:01Z</time>
      </trkpt>
      <trkpt lat="50.675625018775463" lon="15.535111958160996">
        <ele>562.50999999999999</ele>
        <time>2013-09-05T11:37:02Z</time>
      </trkpt>
      <trkpt lat="50.676566977053881" lon="15.5330999661237">
        <ele>567.32000000000005</ele>
        <time>2013-09-05T11:37:13Z</time>
      </trkpt>
      <trkpt lat="50.676927985623479" lon="15.53266896866262">
        <ele>573.08000000000004</ele>
        <time>2013-09-05T11:37:17Z</time>
      </trkpt>
      <trkpt lat="50.677197966724634" lon="15.532549023628235">
        <ele>585.10000000000002</ele>
        <time>2013-09-05T11:37:23Z</time>
      </trkpt>
      <trkpt lat="50.677175000309944" lon="15.532568972557783">
        <ele>588.46000000000004</ele>
        <time>2013-09-05T11:37:37Z</time>
      </trkpt>
      <trkpt lat="50.677278013899922" lon="15.532437963411212">
        <ele>588.95000000000005</ele>
        <time>2013-09-05T11:38:02Z</time>
      </trkpt>
      <trkpt lat="50.677803978323936" lon="15.532011995092034">
        <ele>586.53999999999996</ele>
        <time>2013-09-05T11:38:07Z</time>
      </trkpt>
      <trkpt lat="50.677900034934282" lon="15.532004032284021">
        <ele>586.05999999999995</ele>
        <time>2013-09-05T11:38:08Z</time>
      </trkpt>
      <trkpt lat="50.677973963320255" lon="15.531992968171835">
        <ele>585.58000000000004</ele>
        <time>2013-09-05T11:38:09Z</time>
      </trkpt>
      <trkpt lat="50.678222989663482" lon="15.531884003430605">
        <ele>584.62</ele>
        <time>2013-09-05T11:38:12Z</time>
      </trkpt>
      <trkpt lat="50.67882003262639" lon="15.531475972384214">
        <ele>583.17999999999995</ele>
        <time>2013-09-05T11:38:18Z</time>
      </trkpt>
      <trkpt lat="50.678936960175633" lon="15.531417969614267">
        <ele>582.22000000000003</ele>
        <time>2013-09-05T11:38:19Z</time>
      </trkpt>
      <trkpt lat="50.679062018170953" lon="15.531381005421281">
        <ele>582.22000000000003</ele>
        <time>2013-09-05T11:38:20Z</time>
      </trkpt>
      <trkpt lat="50.679189004004002" lon="15.531369019299746">
        <ele>582.22000000000003</ele>
        <time>2013-09-05T11:38:21Z</time>
      </trkpt>
      <trkpt lat="50.679312972351909" lon="15.531387962400913">
        <ele>582.22000000000003</ele>
        <time>2013-09-05T11:38:22Z</time>
      </trkpt>
      <trkpt lat="50.679429983720183" lon="15.531435990706086">
        <ele>582.22000000000003</ele>
        <time>2013-09-05T11:38:23Z</time>
      </trkpt>
      <trkpt lat="50.679535008966923" lon="15.531498016789556">
        <ele>582.22000000000003</ele>
        <time>2013-09-05T11:38:24Z</time>
      </trkpt>
      <trkpt lat="50.679641962051392" lon="15.531592983752489">
        <ele>582.22000000000003</ele>
        <time>2013-09-05T11:38:25Z</time>
      </trkpt>
      <trkpt lat="50.679741958156228" lon="15.531708989292383">
        <ele>582.22000000000003</ele>
        <time>2013-09-05T11:38:26Z</time>
      </trkpt>
      <trkpt lat="50.679816976189613" lon="15.531853996217251">
        <ele>582.22000000000003</ele>
        <time>2013-09-05T11:38:27Z</time>
      </trkpt>
      <trkpt lat="50.679891994222999" lon="15.532014006748796">
        <ele>582.70000000000005</ele>
        <time>2013-09-05T11:38:28Z</time>
      </trkpt>
      <trkpt lat="50.680596996098757" lon="15.533298030495644">
        <ele>583.17999999999995</ele>
        <time>2013-09-05T11:38:35Z</time>
      </trkpt>
      <trkpt lat="50.68079799413681" lon="15.533595001325011">
        <ele>583.65999999999997</ele>
        <time>2013-09-05T11:38:37Z</time>
      </trkpt>
      <trkpt lat="50.68092598579824" lon="15.533719975501299">
        <ele>583.65999999999997</ele>
        <time>2013-09-05T11:38:38Z</time>
      </trkpt>
      <trkpt lat="50.681066969409585" lon="15.533798011019826">
        <ele>584.13999999999999</ele>
        <time>2013-09-05T11:38:39Z</time>
      </trkpt>
      <trkpt lat="50.681214993819594" lon="15.533856013789773">
        <ele>584.13999999999999</ele>
        <time>2013-09-05T11:38:40Z</time>
      </trkpt>
      <trkpt lat="50.681381961330771" lon="15.533876968547702">
        <ele>585.10000000000002</ele>
        <time>2013-09-05T11:38:41Z</time>
      </trkpt>
      <trkpt lat="50.681533003225923" lon="15.533903036266565">
        <ele>585.58000000000004</ele>
        <time>2013-09-05T11:38:42Z</time>
      </trkpt>
      <trkpt lat="50.681697959080338" lon="15.533906975761056">
        <ele>586.05999999999995</ele>
        <time>2013-09-05T11:38:43Z</time>
      </trkpt>
      <trkpt lat="50.683452039957047" lon="15.534119037911296">
        <ele>590.38999999999999</ele>
        <time>2013-09-05T11:38:55Z</time>
      </trkpt>
      <trkpt lat="50.684053022414446" lon="15.534308971837163">
        <ele>591.35000000000002</ele>
        <time>2013-09-05T11:38:59Z</time>
      </trkpt>
      <trkpt lat="50.684215966612101" lon="15.534424977377057">
        <ele>591.83000000000004</ele>
        <time>2013-09-05T11:39:00Z</time>
      </trkpt>
      <trkpt lat="50.684358961880207" lon="15.534544000402093">
        <ele>592.30999999999995</ele>
        <time>2013-09-05T11:39:01Z</time>
      </trkpt>
      <trkpt lat="50.68490001372993" lon="15.535039035603404">
        <ele>593.26999999999998</ele>
        <time>2013-09-05T11:39:05Z</time>
      </trkpt>
      <trkpt lat="50.685038985684514" lon="15.535107012838125">
        <ele>593.26999999999998</ele>
        <time>2013-09-05T11:39:06Z</time>
      </trkpt>
      <trkpt lat="50.685200002044439" lon="15.535110030323267">
        <ele>593.75</ele>
        <time>2013-09-05T11:39:07Z</time>
      </trkpt>
      <trkpt lat="50.685383984819055" lon="15.535075999796391">
        <ele>593.75</ele>
        <time>2013-09-05T11:39:08Z</time>
      </trkpt>
      <trkpt lat="50.685569979250431" lon="15.535000981763005">
        <ele>593.75</ele>
        <time>2013-09-05T11:39:09Z</time>
      </trkpt>
      <trkpt lat="50.685738958418369" lon="15.534914983436465">
        <ele>593.75</ele>
        <time>2013-09-05T11:39:10Z</time>
      </trkpt>
      <trkpt lat="50.685968035832047" lon="15.534909032285213">
        <ele>594.71000000000004</ele>
        <time>2013-09-05T11:39:11Z</time>
      </trkpt>
      <trkpt lat="50.68612502887845" lon="15.53485999815166">
        <ele>595.19000000000005</ele>
        <time>2013-09-05T11:39:12Z</time>
      </trkpt>
      <trkpt lat="50.686290990561247" lon="15.534841977059841">
        <ele>595.19000000000005</ele>
        <time>2013-09-05T11:39:13Z</time>
      </trkpt>
      <trkpt lat="50.686464998871088" lon="15.534844994544983">
        <ele>595.19000000000005</ele>
        <time>2013-09-05T11:39:14Z</time>
      </trkpt>
      <trkpt lat="50.686677983030677" lon="15.534910960122943">
        <ele>594.71000000000004</ele>
        <time>2013-09-05T11:39:15Z</time>
      </trkpt>
      <trkpt lat="50.686866994947195" lon="15.534970974549651">
        <ele>594.71000000000004</ele>
        <time>2013-09-05T11:39:16Z</time>
      </trkpt>
      <trkpt lat="50.687045026570559" lon="15.535040041431785">
        <ele>594.71000000000004</ele>
        <time>2013-09-05T11:39:17Z</time>
      </trkpt>
      <trkpt lat="50.687224986031651" lon="15.53513802587986">
        <ele>594.23000000000002</ele>
        <time>2013-09-05T11:39:18Z</time>
      </trkpt>
      <trkpt lat="50.688062002882361" lon="15.535640018060803">
        <ele>593.75</ele>
        <time>2013-09-05T11:39:23Z</time>
      </trkpt>
      <trkpt lat="50.688139032572508" lon="15.535692991688848">
        <ele>594.23000000000002</ele>
        <time>2013-09-05T11:39:24Z</time>
      </trkpt>
      <trkpt lat="50.688258977606893" lon="15.535637000575662">
        <ele>594.23000000000002</ele>
        <time>2013-09-05T11:39:25Z</time>
      </trkpt>
      <trkpt lat="50.688640018925071" lon="15.535329971462488">
        <ele>593.75</ele>
        <time>2013-09-05T11:39:28Z</time>
      </trkpt>
      <trkpt lat="50.688762981444597" lon="15.535157974809408">
        <ele>593.75</ele>
        <time>2013-09-05T11:39:29Z</time>
      </trkpt>
      <trkpt lat="50.689363041892648" lon="15.534370997920632">
        <ele>592.78999999999996</ele>
        <time>2013-09-05T11:39:34Z</time>
      </trkpt>
      <trkpt lat="50.689492961391807" lon="15.53430100902915">
        <ele>592.78999999999996</ele>
        <time>2013-09-05T11:39:35Z</time>
      </trkpt>
      <trkpt lat="50.6896279938519" lon="15.534277958795428">
        <ele>592.78999999999996</ele>
        <time>2013-09-05T11:39:36Z</time>
      </trkpt>
      <trkpt lat="50.689779035747051" lon="15.534290028735995">
        <ele>592.30999999999995</ele>
        <time>2013-09-05T11:39:37Z</time>
      </trkpt>
      <trkpt lat="50.689898980781436" lon="15.534379966557026">
        <ele>590.87</ele>
        <time>2013-09-05T11:39:38Z</time>
      </trkpt>
      <trkpt lat="50.690066032111645" lon="15.534484991803765">
        <ele>590.38999999999999</ele>
        <time>2013-09-05T11:39:39Z</time>
      </trkpt>
      <trkpt lat="50.690223025158048" lon="15.534565960988402">
        <ele>590.38999999999999</ele>
        <time>2013-09-05T11:39:40Z</time>
      </trkpt>
      <trkpt lat="50.690384041517973" lon="15.534603009000421">
        <ele>589.90999999999997</ele>
        <time>2013-09-05T11:39:41Z</time>
      </trkpt>
      <trkpt lat="50.690536005422473" lon="15.534620024263859">
        <ele>589.42999999999995</ele>
        <time>2013-09-05T11:39:42Z</time>
      </trkpt>
      <trkpt lat="50.690679000690579" lon="15.534606026485562">
        <ele>588.95000000000005</ele>
        <time>2013-09-05T11:39:43Z</time>
      </trkpt>
      <trkpt lat="50.690811015665531" lon="15.534588005393744">
        <ele>588.46000000000004</ele>
        <time>2013-09-05T11:39:44Z</time>
      </trkpt>
      <trkpt lat="50.690942024812102" lon="15.534548023715615">
        <ele>588.46000000000004</ele>
        <time>2013-09-05T11:39:45Z</time>
      </trkpt>
      <trkpt lat="50.69104696623981" lon="15.534494966268539">
        <ele>588.46000000000004</ele>
        <time>2013-09-05T11:39:46Z</time>
      </trkpt>
      <trkpt lat="50.691175041720271" lon="15.53436697460711">
        <ele>587.98000000000002</ele>
        <time>2013-09-05T11:39:47Z</time>
      </trkpt>
      <trkpt lat="50.691278977319598" lon="15.534220961853862">
        <ele>587.5</ele>
        <time>2013-09-05T11:39:48Z</time>
      </trkpt>
      <trkpt lat="50.691386014223099" lon="15.534029016271234">
        <ele>587.01999999999998</ele>
        <time>2013-09-05T11:39:49Z</time>
      </trkpt>
      <trkpt lat="50.691493973135948" lon="15.533782001584768">
        <ele>587.98000000000002</ele>
        <time>2013-09-05T11:39:50Z</time>
      </trkpt>
      <trkpt lat="50.691593969240785" lon="15.533536998555064">
        <ele>588.95000000000005</ele>
        <time>2013-09-05T11:39:51Z</time>
      </trkpt>
      <trkpt lat="50.691825980320573" lon="15.53314195945859">
        <ele>589.42999999999995</ele>
        <time>2013-09-05T11:39:53Z</time>
      </trkpt>
      <trkpt lat="50.691922958940268" lon="15.532939033582807">
        <ele>589.90999999999997</ele>
        <time>2013-09-05T11:39:54Z</time>
      </trkpt>
      <trkpt lat="50.692015998065472" lon="15.532739041373134">
        <ele>589.90999999999997</ele>
        <time>2013-09-05T11:39:55Z</time>
      </trkpt>
      <trkpt lat="50.692051034420729" lon="15.532476017251611">
        <ele>590.38999999999999</ele>
        <time>2013-09-05T11:39:56Z</time>
      </trkpt>
      <trkpt lat="50.692106019705534" lon="15.532235037535429">
        <ele>590.87</ele>
        <time>2013-09-05T11:39:57Z</time>
      </trkpt>
      <trkpt lat="50.692161004990339" lon="15.532006965950131">
        <ele>591.35000000000002</ele>
        <time>2013-09-05T11:39:58Z</time>
      </trkpt>
      <trkpt lat="50.692262006923556" lon="15.531405983492732">
        <ele>597.12</ele>
        <time>2013-09-05T11:40:02Z</time>
      </trkpt>
      <trkpt lat="50.692224036902189" lon="15.531299030408263">
        <ele>598.55999999999995</ele>
        <time>2013-09-05T11:40:03Z</time>
      </trkpt>
      <trkpt lat="50.692195035517216" lon="15.531231975182891">
        <ele>599.03999999999996</ele>
        <time>2013-09-05T11:40:04Z</time>
      </trkpt>
      <trkpt lat="50.692143989726901" lon="15.531200962141156">
        <ele>600.48000000000002</ele>
        <time>2013-09-05T11:40:05Z</time>
      </trkpt>
      <trkpt lat="50.692061008885503" lon="15.531205991283059">
        <ele>600.48000000000002</ele>
        <time>2013-09-05T11:40:06Z</time>
      </trkpt>
      <trkpt lat="50.69199001416564" lon="15.531243961304426">
        <ele>600.48000000000002</ele>
        <time>2013-09-05T11:40:07Z</time>
      </trkpt>
      <trkpt lat="50.691942991688848" lon="15.531331971287727">
        <ele>601.44000000000005</ele>
        <time>2013-09-05T11:40:08Z</time>
      </trkpt>
      <trkpt lat="50.691896975040436" lon="15.531452000141144">
        <ele>603.36000000000001</ele>
        <time>2013-09-05T11:40:09Z</time>
      </trkpt>
      <trkpt lat="50.691834026947618" lon="15.53159499540925">
        <ele>603.85000000000002</ele>
        <time>2013-09-05T11:40:10Z</time>
      </trkpt>
      <trkpt lat="50.691180992871523" lon="15.532672991976142">
        <ele>605.76999999999998</ele>
        <time>2013-09-05T11:40:17Z</time>
      </trkpt>
      <trkpt lat="50.690910005941987" lon="15.533109018579125">
        <ele>608.16999999999996</ele>
        <time>2013-09-05T11:40:20Z</time>
      </trkpt>
      <trkpt lat="50.690800035372376" lon="15.533128967508674">
        <ele>610.09000000000003</ele>
        <time>2013-09-05T11:40:21Z</time>
      </trkpt>
      <trkpt lat="50.690695010125637" lon="15.533122010529041">
        <ele>611.05999999999995</ele>
        <time>2013-09-05T11:40:22Z</time>
      </trkpt>
      <trkpt lat="50.690569030120969" lon="15.533060990273952">
        <ele>612.01999999999998</ele>
        <time>2013-09-05T11:40:23Z</time>
      </trkpt>
      <trkpt lat="50.690427962690592" lon="15.532973986119032">
        <ele>613.46000000000004</ele>
        <time>2013-09-05T11:40:24Z</time>
      </trkpt>
      <trkpt lat="50.690285973250866" lon="15.532908020541072">
        <ele>614.89999999999998</ele>
        <time>2013-09-05T11:40:25Z</time>
      </trkpt>
      <trkpt lat="50.690139960497618" lon="15.532879019156098">
        <ele>615.86000000000001</ele>
        <time>2013-09-05T11:40:26Z</time>
      </trkpt>
      <trkpt lat="50.689981039613485" lon="15.532864015549421">
        <ele>616.82000000000005</ele>
        <time>2013-09-05T11:40:27Z</time>
      </trkpt>
      <trkpt lat="50.689186016097665" lon="15.532827973365784">
        <ele>621.14999999999998</ele>
        <time>2013-09-05T11:40:32Z</time>
      </trkpt>
      <trkpt lat="50.688870018348098" lon="15.53290399722755">
        <ele>622.59000000000003</ele>
        <time>2013-09-05T11:40:34Z</time>
      </trkpt>
      <trkpt lat="50.68872501142323" lon="15.533000975847244">
        <ele>623.54999999999995</ele>
        <time>2013-09-05T11:40:35Z</time>
      </trkpt>
      <trkpt lat="50.68859500810504" lon="15.533123016357422">
        <ele>624.50999999999999</ele>
        <time>2013-09-05T11:40:36Z</time>
      </trkpt>
      <trkpt lat="50.688244979828596" lon="15.533305993303657">
        <ele>627.39999999999998</ele>
        <time>2013-09-05T11:40:39Z</time>
      </trkpt>
      <trkpt lat="50.688130985945463" lon="15.533305993303657">
        <ele>628.36000000000001</ele>
        <time>2013-09-05T11:40:40Z</time>
      </trkpt>
      <trkpt lat="50.688001988455653" lon="15.533256959170103">
        <ele>629.32000000000005</ele>
        <time>2013-09-05T11:40:41Z</time>
      </trkpt>
      <trkpt lat="50.687870979309082" lon="15.533180013298988">
        <ele>630.27999999999997</ele>
        <time>2013-09-05T11:40:42Z</time>
      </trkpt>
      <trkpt lat="50.687742987647653" lon="15.533089991658926">
        <ele>632.20000000000005</ele>
        <time>2013-09-05T11:40:43Z</time>
      </trkpt>
      <trkpt lat="50.687620025128126" lon="15.532979015260935">
        <ele>633.16999999999996</ele>
        <time>2013-09-05T11:40:44Z</time>
      </trkpt>
      <trkpt lat="50.687491027638316" lon="15.532856974750757">
        <ele>634.13</ele>
        <time>2013-09-05T11:40:45Z</time>
      </trkpt>
      <trkpt lat="50.68732799962163" lon="15.532769970595837">
        <ele>636.04999999999995</ele>
        <time>2013-09-05T11:40:46Z</time>
      </trkpt>
      <trkpt lat="50.68704997189343" lon="15.532208969816566">
        <ele>640.38</ele>
        <time>2013-09-05T11:40:49Z</time>
      </trkpt>
      <trkpt lat="50.686516966670752" lon="15.531649980694056">
        <ele>644.22000000000003</ele>
        <time>2013-09-05T11:40:53Z</time>
      </trkpt>
      <trkpt lat="50.686357039958239" lon="15.531575968489051">
        <ele>645.17999999999995</ele>
        <time>2013-09-05T11:40:54Z</time>
      </trkpt>
      <trkpt lat="50.686051016673446" lon="15.531430961564183">
        <ele>648.07000000000005</ele>
        <time>2013-09-05T11:40:56Z</time>
      </trkpt>
      <trkpt lat="50.685895029455423" lon="15.531325014308095">
        <ele>649.02999999999997</ele>
        <time>2013-09-05T11:40:57Z</time>
      </trkpt>
      <trkpt lat="50.685752034187317" lon="15.531198028475046">
        <ele>649.99000000000001</ele>
        <time>2013-09-05T11:40:58Z</time>
      </trkpt>
      <trkpt lat="50.685175023972988" lon="15.530693018808961">
        <ele>653.83000000000004</ele>
        <time>2013-09-05T11:41:02Z</time>
      </trkpt>
      <trkpt lat="50.685052983462811" lon="15.530525967478752">
        <ele>654.79999999999995</ele>
        <time>2013-09-05T11:41:03Z</time>
      </trkpt>
      <trkpt lat="50.684956004843116" lon="15.530329998582602">
        <ele>655.75999999999999</ele>
        <time>2013-09-05T11:41:04Z</time>
      </trkpt>
      <trkpt lat="50.684881992638111" lon="15.530097987502813">
        <ele>656.72000000000003</ele>
        <time>2013-09-05T11:41:05Z</time>
      </trkpt>
      <trkpt lat="50.684817032888532" lon="15.529846027493477">
        <ele>657.67999999999995</ele>
        <time>2013-09-05T11:41:06Z</time>
      </trkpt>
      <trkpt lat="50.684735979884863" lon="15.529644023627043">
        <ele>658.15999999999997</ele>
        <time>2013-09-05T11:41:07Z</time>
      </trkpt>
      <trkpt lat="50.684687029570341" lon="15.529410000890493">
        <ele>659.12</ele>
        <time>2013-09-05T11:41:08Z</time>
      </trkpt>
      <trkpt lat="50.684657022356987" lon="15.529183018952608">
        <ele>661.03999999999996</ele>
        <time>2013-09-05T11:41:09Z</time>
      </trkpt>
      <trkpt lat="50.684635983780026" lon="15.528979003429413">
        <ele>662.97000000000003</ele>
        <time>2013-09-05T11:41:10Z</time>
      </trkpt>
      <trkpt lat="50.684614023193717" lon="15.52632998675108">
        <ele>678.83000000000004</ele>
        <time>2013-09-05T11:41:23Z</time>
      </trkpt>
      <trkpt lat="50.684656016528606" lon="15.526123037561774">
        <ele>681.23000000000002</ele>
        <time>2013-09-05T11:41:24Z</time>
      </trkpt>
      <trkpt lat="50.684708990156651" lon="15.525925979018211">
        <ele>682.19000000000005</ele>
        <time>2013-09-05T11:41:25Z</time>
      </trkpt>
      <trkpt lat="50.684874029830098" lon="15.525113018229604">
        <ele>684.60000000000002</ele>
        <time>2013-09-05T11:41:29Z</time>
      </trkpt>
      <trkpt lat="50.684881992638111" lon="15.524900034070015">
        <ele>685.55999999999995</ele>
        <time>2013-09-05T11:41:30Z</time>
      </trkpt>
      <trkpt lat="50.684953993186355" lon="15.52383603528142">
        <ele>686.51999999999998</ele>
        <time>2013-09-05T11:41:35Z</time>
      </trkpt>
      <trkpt lat="50.685001015663147" lon="15.523647023364902">
        <ele>687.48000000000002</ele>
        <time>2013-09-05T11:41:36Z</time>
      </trkpt>
      <trkpt lat="50.685057006776333" lon="15.523478966206312">
        <ele>688.91999999999996</ele>
        <time>2013-09-05T11:41:37Z</time>
      </trkpt>
      <trkpt lat="50.685114003717899" lon="15.523324990645051">
        <ele>689.39999999999998</ele>
        <time>2013-09-05T11:41:38Z</time>
      </trkpt>
      <trkpt lat="50.685183992609382" lon="15.523161040619016">
        <ele>690.36000000000001</ele>
        <time>2013-09-05T11:41:39Z</time>
      </trkpt>
      <trkpt lat="50.68612796254456" lon="15.521621033549309">
        <ele>701.89999999999998</ele>
        <time>2013-09-05T11:41:49Z</time>
      </trkpt>
      <trkpt lat="50.686961961910129" lon="15.519849015399814">
        <ele>715.84000000000003</ele>
        <time>2013-09-05T11:41:59Z</time>
      </trkpt>
      <trkpt lat="50.687405029311776" lon="15.518128965049982">
        <ele>726.88999999999999</ele>
        <time>2013-09-05T11:42:08Z</time>
      </trkpt>
      <trkpt lat="50.687493039295077" lon="15.5177360214293">
        <ele>727.37</ele>
        <time>2013-09-05T11:42:11Z</time>
      </trkpt>
      <trkpt lat="50.687547018751502" lon="15.517673995345831">
        <ele>726.88999999999999</ele>
        <time>2013-09-05T11:42:12Z</time>
      </trkpt>
      <trkpt lat="50.68760703317821" lon="15.517638958990574">
        <ele>726.88999999999999</ele>
        <time>2013-09-05T11:42:13Z</time>
      </trkpt>
      <trkpt lat="50.687751034274697" lon="15.517384987324476">
        <ele>726.40999999999997</ele>
        <time>2013-09-05T11:42:16Z</time>
      </trkpt>
      <trkpt lat="50.687771989032626" lon="15.517250960692763">
        <ele>726.88999999999999</ele>
        <time>2013-09-05T11:42:17Z</time>
      </trkpt>
      <trkpt lat="50.6877819634974" lon="15.517102014273405">
        <ele>727.37</ele>
        <time>2013-09-05T11:42:18Z</time>
      </trkpt>
      <trkpt lat="50.687781041488051" lon="15.516946027055383">
        <ele>728.34000000000003</ele>
        <time>2013-09-05T11:42:19Z</time>
      </trkpt>
      <trkpt lat="50.687750028446317" lon="15.516788028180599">
        <ele>728.34000000000003</ele>
        <time>2013-09-05T11:42:20Z</time>
      </trkpt>
      <trkpt lat="50.687731001526117" lon="15.516608990728855">
        <ele>728.82000000000005</ele>
        <time>2013-09-05T11:42:21Z</time>
      </trkpt>
      <trkpt lat="50.687560010701418" lon="15.515267970040441">
        <ele>730.25999999999999</ele>
        <time>2013-09-05T11:42:28Z</time>
      </trkpt>
      <trkpt lat="50.68754400126636" lon="15.514503959566355">
        <ele>731.22000000000003</ele>
        <time>2013-09-05T11:42:32Z</time>
      </trkpt>
      <trkpt lat="50.687474012374878" lon="15.514171030372381">
        <ele>731.22000000000003</ele>
        <time>2013-09-05T11:42:34Z</time>
      </trkpt>
      <trkpt lat="50.687407040968537" lon="15.514001967385411">
        <ele>731.70000000000005</ele>
        <time>2013-09-05T11:42:35Z</time>
      </trkpt>
      <trkpt lat="50.687320958822966" lon="15.513853020966053">
        <ele>731.70000000000005</ele>
        <time>2013-09-05T11:42:36Z</time>
      </trkpt>
      <trkpt lat="50.687142005190253" lon="15.513556972146034">
        <ele>732.17999999999995</ele>
        <time>2013-09-05T11:42:38Z</time>
      </trkpt>
      <trkpt lat="50.687061036005616" lon="15.513390004634857">
        <ele>732.17999999999995</ele>
        <time>2013-09-05T11:42:39Z</time>
      </trkpt>
      <trkpt lat="50.686687035486102" lon="15.512589029967785">
        <ele>732.65999999999997</ele>
        <time>2013-09-05T11:42:44Z</time>
      </trkpt>
      <trkpt lat="50.686602964997292" lon="15.512474030256271">
        <ele>732.65999999999997</ele>
        <time>2013-09-05T11:42:45Z</time>
      </trkpt>
      <trkpt lat="50.686498023569584" lon="15.512397000566125">
        <ele>732.65999999999997</ele>
        <time>2013-09-05T11:42:46Z</time>
      </trkpt>
      <trkpt lat="50.68638201802969" lon="15.512346038594842">
        <ele>732.17999999999995</ele>
        <time>2013-09-05T11:42:47Z</time>
      </trkpt>
      <trkpt lat="50.686250003054738" lon="15.512290969491005">
        <ele>732.65999999999997</ele>
        <time>2013-09-05T11:42:48Z</time>
      </trkpt>
      <trkpt lat="50.685579031705856" lon="15.511980000883341">
        <ele>732.17999999999995</ele>
        <time>2013-09-05T11:42:53Z</time>
      </trkpt>
      <trkpt lat="50.685443999245763" lon="15.511927027255297">
        <ele>731.70000000000005</ele>
        <time>2013-09-05T11:42:54Z</time>
      </trkpt>
      <trkpt lat="50.68531097844243" lon="15.511897020041943">
        <ele>731.22000000000003</ele>
        <time>2013-09-05T11:42:55Z</time>
      </trkpt>
      <trkpt lat="50.685181980952621" lon="15.511910011991858">
        <ele>732.17999999999995</ele>
        <time>2013-09-05T11:42:56Z</time>
      </trkpt>
      <trkpt lat="50.685053989291191" lon="15.511954016983509">
        <ele>732.65999999999997</ele>
        <time>2013-09-05T11:42:57Z</time>
      </trkpt>
      <trkpt lat="50.68492298014462" lon="15.512039009481668">
        <ele>733.13999999999999</ele>
        <time>2013-09-05T11:42:58Z</time>
      </trkpt>
      <trkpt lat="50.684808986261487" lon="15.512135988101363">
        <ele>734.58000000000004</ele>
        <time>2013-09-05T11:42:59Z</time>
      </trkpt>
      <trkpt lat="50.684694992378354" lon="15.512250987812877">
        <ele>735.54999999999995</ele>
        <time>2013-09-05T11:43:00Z</time>
      </trkpt>
      <trkpt lat="50.684579992666841" lon="15.512362970039248">
        <ele>735.54999999999995</ele>
        <time>2013-09-05T11:43:01Z</time>
      </trkpt>
      <trkpt lat="50.684252008795738" lon="15.512646026909351">
        <ele>736.99000000000001</ele>
        <time>2013-09-05T11:43:04Z</time>
      </trkpt>
      <trkpt lat="50.683103017508984" lon="15.513305012136698">
        <ele>743.72000000000003</ele>
        <time>2013-09-05T11:43:13Z</time>
      </trkpt>
      <trkpt lat="50.682992963120341" lon="15.513299982994795">
        <ele>745.15999999999997</ele>
        <time>2013-09-05T11:43:14Z</time>
      </trkpt>
      <trkpt lat="50.682883998379111" lon="15.513263018801808">
        <ele>746.12</ele>
        <time>2013-09-05T11:43:15Z</time>
      </trkpt>
      <trkpt lat="50.682761035859585" lon="15.513194035738707">
        <ele>746.60000000000002</ele>
        <time>2013-09-05T11:43:16Z</time>
      </trkpt>
      <trkpt lat="50.682648969814181" lon="15.513110971078277">
        <ele>747.55999999999995</ele>
        <time>2013-09-05T11:43:17Z</time>
      </trkpt>
      <trkpt lat="50.682531036436558" lon="15.513025978580117">
        <ele>748.51999999999998</ele>
        <time>2013-09-05T11:43:18Z</time>
      </trkpt>
      <trkpt lat="50.681217005476356" lon="15.512172030285001">
        <ele>759.10000000000002</ele>
        <time>2013-09-05T11:43:28Z</time>
      </trkpt>
      <trkpt lat="50.681065963581204" lon="15.512154009193182">
        <ele>760.05999999999995</ele>
        <time>2013-09-05T11:43:29Z</time>
      </trkpt>
      <trkpt lat="50.68090402521193" lon="15.512184016406536">
        <ele>761.5</ele>
        <time>2013-09-05T11:43:30Z</time>
      </trkpt>
      <trkpt lat="50.680760024115443" lon="15.512232966721058">
        <ele>763.41999999999996</ele>
        <time>2013-09-05T11:43:31Z</time>
      </trkpt>
      <trkpt lat="50.67987497895956" lon="15.512470006942749">
        <ele>774.48000000000002</ele>
        <time>2013-09-05T11:43:38Z</time>
      </trkpt>
      <trkpt lat="50.679737012833357" lon="15.51242801360786">
        <ele>775.44000000000005</ele>
        <time>2013-09-05T11:43:39Z</time>
      </trkpt>
      <trkpt lat="50.67959401756525" lon="15.512347966432571">
        <ele>776.39999999999998</ele>
        <time>2013-09-05T11:43:40Z</time>
      </trkpt>
      <trkpt lat="50.679454039782286" lon="15.512239001691341">
        <ele>776.88</ele>
        <time>2013-09-05T11:43:41Z</time>
      </trkpt>
      <trkpt lat="50.679313978180289" lon="15.512116039171815">
        <ele>777.36000000000001</ele>
        <time>2013-09-05T11:43:42Z</time>
      </trkpt>
      <trkpt lat="50.67916402593255" lon="15.51197899505496">
        <ele>777.84000000000003</ele>
        <time>2013-09-05T11:43:43Z</time>
      </trkpt>
      <trkpt lat="50.678303958848119" lon="15.51105497404933">
        <ele>777.84000000000003</ele>
        <time>2013-09-05T11:43:49Z</time>
      </trkpt>
      <trkpt lat="50.678179990500212" lon="15.510857999324799">
        <ele>778.32000000000005</ele>
        <time>2013-09-05T11:43:50Z</time>
      </trkpt>
      <trkpt lat="50.677653020247817" lon="15.509455958381295">
        <ele>777.84000000000003</ele>
        <time>2013-09-05T11:43:57Z</time>
      </trkpt>
      <trkpt lat="50.67746601998806" lon="15.508576026186347">
        <ele>777.84000000000003</ele>
        <time>2013-09-05T11:44:03Z</time>
      </trkpt>
      <trkpt lat="50.677440036088228" lon="15.508516011759639">
        <ele>778.32000000000005</ele>
        <time>2013-09-05T11:44:04Z</time>
      </trkpt>
      <trkpt lat="50.677383039146662" lon="15.508478963747621">
        <ele>776.39999999999998</ele>
        <time>2013-09-05T11:44:05Z</time>
      </trkpt>
      <trkpt lat="50.677311038598418" lon="15.508471000939608">
        <ele>774.96000000000004</ele>
        <time>2013-09-05T11:44:06Z</time>
      </trkpt>
      <trkpt lat="50.677237026393414" lon="15.508484998717904">
        <ele>774.48000000000002</ele>
        <time>2013-09-05T11:44:07Z</time>
      </trkpt>
      <trkpt lat="50.677152033895254" lon="15.508516011759639">
        <ele>773.51999999999998</ele>
        <time>2013-09-05T11:44:08Z</time>
      </trkpt>
      <trkpt lat="50.676822038367391" lon="15.508558005094528">
        <ele>769.19000000000005</ele>
        <time>2013-09-05T11:44:11Z</time>
      </trkpt>
      <trkpt lat="50.675665000453591" lon="15.50864702090621">
        <ele>769.66999999999996</ele>
        <time>2013-09-05T11:44:19Z</time>
      </trkpt>
      <trkpt lat="50.675198966637254" lon="15.508490027859807">
        <ele>772.08000000000004</ele>
        <time>2013-09-05T11:44:22Z</time>
      </trkpt>
      <trkpt lat="50.675056977197528" lon="15.508375028148293">
        <ele>773.51999999999998</ele>
        <time>2013-09-05T11:44:23Z</time>
      </trkpt>
      <trkpt lat="50.674770986661315" lon="15.508122984319925">
        <ele>774</ele>
        <time>2013-09-05T11:44:25Z</time>
      </trkpt>
      <trkpt lat="50.674614999443293" lon="15.508021982386708">
        <ele>774.48000000000002</ele>
        <time>2013-09-05T11:44:26Z</time>
      </trkpt>
      <trkpt lat="50.673874039202929" lon="15.507641024887562">
        <ele>779.76999999999998</ele>
        <time>2013-09-05T11:44:31Z</time>
      </trkpt>
      <trkpt lat="50.673715034499764" lon="15.507609006017447">
        <ele>781.69000000000005</ele>
        <time>2013-09-05T11:44:32Z</time>
      </trkpt>
      <trkpt lat="50.673543037846684" lon="15.507602971047163">
        <ele>782.64999999999998</ele>
        <time>2013-09-05T11:44:33Z</time>
      </trkpt>
      <trkpt lat="50.673375986516476" lon="15.507615962997079">
        <ele>783.13</ele>
        <time>2013-09-05T11:44:34Z</time>
      </trkpt>
      <trkpt lat="50.673210024833679" lon="15.507643036544323">
        <ele>783.61000000000001</ele>
        <time>2013-09-05T11:44:35Z</time>
      </trkpt>
      <trkpt lat="50.67239798605442" lon="15.507846968248487">
        <ele>786.98000000000002</ele>
        <time>2013-09-05T11:44:40Z</time>
      </trkpt>
      <trkpt lat="50.67224501632154" lon="15.507818972691894">
        <ele>787.46000000000004</ele>
        <time>2013-09-05T11:44:41Z</time>
      </trkpt>
      <trkpt lat="50.672091040760279" lon="15.507730040699244">
        <ele>788.41999999999996</ele>
        <time>2013-09-05T11:44:42Z</time>
      </trkpt>
      <trkpt lat="50.671936981379986" lon="15.507615962997079">
        <ele>787.94000000000005</ele>
        <time>2013-09-05T11:44:43Z</time>
      </trkpt>
      <trkpt lat="50.671779988333583" lon="15.507486965507269">
        <ele>787.94000000000005</ele>
        <time>2013-09-05T11:44:44Z</time>
      </trkpt>
      <trkpt lat="50.670063961297274" lon="15.506162960082293">
        <ele>785.52999999999997</ele>
        <time>2013-09-05T11:44:55Z</time>
      </trkpt>
      <trkpt lat="50.668665021657944" lon="15.505504980683327">
        <ele>776.39999999999998</ele>
        <time>2013-09-05T11:45:03Z</time>
      </trkpt>
      <trkpt lat="50.668465029448271" lon="15.505501041188836">
        <ele>774.96000000000004</ele>
        <time>2013-09-05T11:45:04Z</time>
      </trkpt>
      <trkpt lat="50.666439039632678" lon="15.505602965131402">
        <ele>764.87</ele>
        <time>2013-09-05T11:45:15Z</time>
      </trkpt>
      <trkpt lat="50.665355008095503" lon="15.505383023992181">
        <ele>759.10000000000002</ele>
        <time>2013-09-05T11:45:22Z</time>
      </trkpt>
      <trkpt lat="50.664278017356992" lon="15.504598980769515">
        <ele>754.28999999999996</ele>
        <time>2013-09-05T11:45:30Z</time>
      </trkpt>
      <trkpt lat="50.664162011817098" lon="15.504574002698064">
        <ele>750.45000000000005</ele>
        <time>2013-09-05T11:45:31Z</time>
      </trkpt>
      <trkpt lat="50.664047012105584" lon="15.50460996106267">
        <ele>747.55999999999995</ele>
        <time>2013-09-05T11:45:32Z</time>
      </trkpt>
      <trkpt lat="50.66395397298038" lon="15.504678022116423">
        <ele>746.12</ele>
        <time>2013-09-05T11:45:33Z</time>
      </trkpt>
      <trkpt lat="50.663880966603756" lon="15.504776006564498">
        <ele>745.63999999999999</ele>
        <time>2013-09-05T11:45:34Z</time>
      </trkpt>
      <trkpt lat="50.663805026561022" lon="15.504906009882689">
        <ele>745.15999999999997</ele>
        <time>2013-09-05T11:45:35Z</time>
      </trkpt>
      <trkpt lat="50.663711987435818" lon="15.505092004314065">
        <ele>744.20000000000005</ele>
        <time>2013-09-05T11:45:36Z</time>
      </trkpt>
      <trkpt lat="50.663066999986768" lon="15.506259016692638">
        <ele>737.95000000000005</ele>
        <time>2013-09-05T11:45:42Z</time>
      </trkpt>
      <trkpt lat="50.662904977798462" lon="15.506568979471922">
        <ele>735.54999999999995</ele>
        <time>2013-09-05T11:45:44Z</time>
      </trkpt>
      <trkpt lat="50.66281596198678" lon="15.506665958091617">
        <ele>734.10000000000002</ele>
        <time>2013-09-05T11:45:45Z</time>
      </trkpt>
      <trkpt lat="50.66270599141717" lon="15.506718009710312">
        <ele>733.62</ele>
        <time>2013-09-05T11:45:46Z</time>
      </trkpt>
      <trkpt lat="50.662579005584121" lon="15.506760003045201">
        <ele>732.17999999999995</ele>
        <time>2013-09-05T11:45:47Z</time>
      </trkpt>
      <trkpt lat="50.662440033629537" lon="15.506785986945033">
        <ele>731.22000000000003</ele>
        <time>2013-09-05T11:45:48Z</time>
      </trkpt>
      <trkpt lat="50.661196997389197" lon="15.507060997188091">
        <ele>725.45000000000005</ele>
        <time>2013-09-05T11:45:55Z</time>
      </trkpt>
      <trkpt lat="50.659809038043022" lon="15.507198963314295">
        <ele>716.79999999999995</ele>
        <time>2013-09-05T11:46:03Z</time>
      </trkpt>
      <trkpt lat="50.658288979902864" lon="15.506810965016484">
        <ele>709.11000000000001</ele>
        <time>2013-09-05T11:46:11Z</time>
      </trkpt>
      <trkpt lat="50.658124024048448" lon="15.506705017760396">
        <ele>708.63</ele>
        <time>2013-09-05T11:46:12Z</time>
      </trkpt>
      <trkpt lat="50.657973987981677" lon="15.506577026098967">
        <ele>708.14999999999998</ele>
        <time>2013-09-05T11:46:13Z</time>
      </trkpt>
      <trkpt lat="50.657828981056809" lon="15.506438976153731">
        <ele>707.19000000000005</ele>
        <time>2013-09-05T11:46:14Z</time>
      </trkpt>
      <trkpt lat="50.657689003273845" lon="15.50628500059247">
        <ele>706.23000000000002</ele>
        <time>2013-09-05T11:46:15Z</time>
      </trkpt>
      <trkpt lat="50.65619601868093" lon="15.504555981606245">
        <ele>696.61000000000001</ele>
        <time>2013-09-05T11:46:25Z</time>
      </trkpt>
      <trkpt lat="50.654293997213244" lon="15.503080012276769">
        <ele>689.88</ele>
        <time>2013-09-05T11:46:36Z</time>
      </trkpt>
      <trkpt lat="50.653989985585213" lon="15.502947997301817">
        <ele>688.91999999999996</ele>
        <time>2013-09-05T11:46:38Z</time>
      </trkpt>
      <trkpt lat="50.652576964348555" lon="15.502709029242396">
        <ele>683.14999999999998</ele>
        <time>2013-09-05T11:46:46Z</time>
      </trkpt>
      <trkpt lat="50.650735963135958" lon="15.502274008467793">
        <ele>667.28999999999996</ele>
        <time>2013-09-05T11:46:56Z</time>
      </trkpt>
      <trkpt lat="50.650418037548661" lon="15.502225980162621">
        <ele>662.49000000000001</ele>
        <time>2013-09-05T11:46:58Z</time>
      </trkpt>
      <trkpt lat="50.65026699565351" lon="15.502279959619045">
        <ele>660.55999999999995</ele>
        <time>2013-09-05T11:46:59Z</time>
      </trkpt>
      <trkpt lat="50.650118971243501" lon="15.502378027886152">
        <ele>658.63999999999999</ele>
        <time>2013-09-05T11:47:00Z</time>
      </trkpt>
      <trkpt lat="50.649984022602439" lon="15.502487998455763">
        <ele>656.24000000000001</ele>
        <time>2013-09-05T11:47:01Z</time>
      </trkpt>
      <trkpt lat="50.649838009849191" lon="15.502625964581966">
        <ele>652.38999999999999</ele>
        <time>2013-09-05T11:47:02Z</time>
      </trkpt>
      <trkpt lat="50.649120016023517" lon="15.503199035301805">
        <ele>645.17999999999995</ele>
        <time>2013-09-05T11:47:07Z</time>
      </trkpt>
      <trkpt lat="50.648981966078281" lon="15.503259971737862">
        <ele>643.74000000000001</ele>
        <time>2013-09-05T11:47:08Z</time>
      </trkpt>
      <trkpt lat="50.648831008002162" lon="15.503291990607977">
        <ele>641.82000000000005</ele>
        <time>2013-09-05T11:47:09Z</time>
      </trkpt>
      <trkpt lat="50.647514965385199" lon="15.503369020298123">
        <ele>634.61000000000001</ele>
        <time>2013-09-05T11:47:16Z</time>
      </trkpt>
      <trkpt lat="50.645977975800633" lon="15.503471028059721">
        <ele>630.27999999999997</ele>
        <time>2013-09-05T11:47:24Z</time>
      </trkpt>
      <trkpt lat="50.645830035209656" lon="15.503434985876083">
        <ele>629.79999999999995</ele>
        <time>2013-09-05T11:47:25Z</time>
      </trkpt>
      <trkpt lat="50.645701037719846" lon="15.503354016691446">
        <ele>629.79999999999995</ele>
        <time>2013-09-05T11:47:26Z</time>
      </trkpt>
      <trkpt lat="50.645381016656756" lon="15.503080012276769">
        <ele>630.75999999999999</ele>
        <time>2013-09-05T11:47:29Z</time>
      </trkpt>
      <trkpt lat="50.645268028602004" lon="15.503053022548556">
        <ele>632.20000000000005</ele>
        <time>2013-09-05T11:47:30Z</time>
      </trkpt>
      <trkpt lat="50.645130984485149" lon="15.503065008670092">
        <ele>630.75999999999999</ele>
        <time>2013-09-05T11:47:31Z</time>
      </trkpt>
      <trkpt lat="50.643651997670531" lon="15.503349993377924">
        <ele>618.25999999999999</ele>
        <time>2013-09-05T11:47:40Z</time>
      </trkpt>
      <trkpt lat="50.642499988898635" lon="15.503872018307447">
        <ele>610.09000000000003</ele>
        <time>2013-09-05T11:47:47Z</time>
      </trkpt>
      <trkpt lat="50.642178962007165" lon="15.504059018567204">
        <ele>607.21000000000004</ele>
        <time>2013-09-05T11:47:49Z</time>
      </trkpt>
      <trkpt lat="50.642028003931046" lon="15.504191033542156">
        <ele>605.28999999999996</ele>
        <time>2013-09-05T11:47:50Z</time>
      </trkpt>
      <trkpt lat="50.641879979521036" lon="15.504365041851997">
        <ele>603.36000000000001</ele>
        <time>2013-09-05T11:47:51Z</time>
      </trkpt>
      <trkpt lat="50.640649013221264" lon="15.506035974249244">
        <ele>589.90999999999997</ele>
        <time>2013-09-05T11:48:00Z</time>
      </trkpt>
      <trkpt lat="50.639881985262036" lon="15.507317986339331">
        <ele>581.25</ele>
        <time>2013-09-05T11:48:07Z</time>
      </trkpt>
      <trkpt lat="50.639768997207284" lon="15.50748897716403">
        <ele>579.80999999999995</ele>
        <time>2013-09-05T11:48:08Z</time>
      </trkpt>
      <trkpt lat="50.639646034687757" lon="15.507633984088898">
        <ele>578.37</ele>
        <time>2013-09-05T11:48:09Z</time>
      </trkpt>
      <trkpt lat="50.639503039419651" lon="15.50774403847754">
        <ele>577.40999999999997</ele>
        <time>2013-09-05T11:48:10Z</time>
      </trkpt>
      <trkpt lat="50.639359038323164" lon="15.507827019318938">
        <ele>575.97000000000003</ele>
        <time>2013-09-05T11:48:11Z</time>
      </trkpt>
      <trkpt lat="50.639215959236026" lon="15.507891979068518">
        <ele>574.03999999999996</ele>
        <time>2013-09-05T11:48:12Z</time>
      </trkpt>
      <trkpt lat="50.639070030301809" lon="15.507943024858832">
        <ele>573.08000000000004</ele>
        <time>2013-09-05T11:48:13Z</time>
      </trkpt>
      <trkpt lat="50.638787979260087" lon="15.508079985156655">
        <ele>571.15999999999997</ele>
        <time>2013-09-05T11:48:15Z</time>
      </trkpt>
      <trkpt lat="50.638654036447406" lon="15.508181992918253">
        <ele>569.72000000000003</ele>
        <time>2013-09-05T11:48:16Z</time>
      </trkpt>
      <trkpt lat="50.638525960966945" lon="15.508315013721585">
        <ele>568.27999999999997</ele>
        <time>2013-09-05T11:48:17Z</time>
      </trkpt>
      <trkpt lat="50.638410961255431" lon="15.508468989282846">
        <ele>566.83000000000004</ele>
        <time>2013-09-05T11:48:18Z</time>
      </trkpt>
      <trkpt lat="50.638317000120878" lon="15.508624976500869">
        <ele>565.38999999999999</ele>
        <time>2013-09-05T11:48:19Z</time>
      </trkpt>
      <trkpt lat="50.638152966275811" lon="15.508874002844095">
        <ele>562.99000000000001</ele>
        <time>2013-09-05T11:48:21Z</time>
      </trkpt>
      <trkpt lat="50.638053975999355" lon="15.508923958986998">
        <ele>562.02999999999997</ele>
        <time>2013-09-05T11:48:22Z</time>
      </trkpt>
      <trkpt lat="50.637949034571648" lon="15.508914990350604">
        <ele>560.59000000000003</ele>
        <time>2013-09-05T11:48:23Z</time>
      </trkpt>
      <trkpt lat="50.637848032638431" lon="15.508851036429405">
        <ele>559.62</ele>
        <time>2013-09-05T11:48:24Z</time>
      </trkpt>
      <trkpt lat="50.637754993513227" lon="15.508745005354285">
        <ele>559.13999999999999</ele>
        <time>2013-09-05T11:48:25Z</time>
      </trkpt>
      <trkpt lat="50.637661032378674" lon="15.508636040613055">
        <ele>558.17999999999995</ele>
        <time>2013-09-05T11:48:26Z</time>
      </trkpt>
      <trkpt lat="50.637572016566992" lon="15.508523974567652">
        <ele>557.22000000000003</ele>
        <time>2013-09-05T11:48:27Z</time>
      </trkpt>
      <trkpt lat="50.637380992993712" lon="15.508321970701218">
        <ele>554.82000000000005</ele>
        <time>2013-09-05T11:48:29Z</time>
      </trkpt>
      <trkpt lat="50.63726800493896" lon="15.508273020386696">
        <ele>554.34000000000003</ele>
        <time>2013-09-05T11:48:30Z</time>
      </trkpt>
      <trkpt lat="50.637155016884208" lon="15.508258016780019">
        <ele>553.38</ele>
        <time>2013-09-05T11:48:31Z</time>
      </trkpt>
      <trkpt lat="50.637034988030791" lon="15.508293975144625">
        <ele>552.40999999999997</ele>
        <time>2013-09-05T11:48:32Z</time>
      </trkpt>
      <trkpt lat="50.636917976662517" lon="15.508420960977674">
        <ele>551.45000000000005</ele>
        <time>2013-09-05T11:48:33Z</time>
      </trkpt>
      <trkpt lat="50.636801971122622" lon="15.508541995659471">
        <ele>550.97000000000003</ele>
        <time>2013-09-05T11:48:34Z</time>
      </trkpt>
      <trkpt lat="50.636684959754348" lon="15.508684990927577">
        <ele>549.52999999999997</ele>
        <time>2013-09-05T11:48:35Z</time>
      </trkpt>
      <trkpt lat="50.636488990858197" lon="15.508967963978648">
        <ele>547.13</ele>
        <time>2013-09-05T11:48:37Z</time>
      </trkpt>
      <trkpt lat="50.636431993916631" lon="15.509151024743915">
        <ele>546.16999999999996</ele>
        <time>2013-09-05T11:48:38Z</time>
      </trkpt>
      <trkpt lat="50.636113984510303" lon="15.510264979675412">
        <ele>538.48000000000002</ele>
        <time>2013-09-05T11:48:43Z</time>
      </trkpt>
      <trkpt lat="50.636070985347033" lon="15.510510988533497">
        <ele>537.02999999999997</ele>
        <time>2013-09-05T11:48:44Z</time>
      </trkpt>
      <trkpt lat="50.635946011170745" lon="15.511198975145817">
        <ele>533.19000000000005</ele>
        <time>2013-09-05T11:48:47Z</time>
      </trkpt>
      <trkpt lat="50.635867975652218" lon="15.511389998719096">
        <ele>531.75</ele>
        <time>2013-09-05T11:48:48Z</time>
      </trkpt>
      <trkpt lat="50.63576496206224" lon="15.511563001200557">
        <ele>530.29999999999995</ele>
        <time>2013-09-05T11:48:49Z</time>
      </trkpt>
      <trkpt lat="50.634829038754106" lon="15.513055985793471">
        <ele>519.73000000000002</ele>
        <time>2013-09-05T11:48:57Z</time>
      </trkpt>
      <trkpt lat="50.634153038263321" lon="15.513930972665548">
        <ele>511.56</ele>
        <time>2013-09-05T11:49:02Z</time>
      </trkpt>
      <trkpt lat="50.633375030010939" lon="15.514983991160989">
        <ele>498.10000000000002</ele>
        <time>2013-09-05T11:49:09Z</time>
      </trkpt>
      <trkpt lat="50.633190963417292" lon="15.515217008069158">
        <ele>495.22000000000003</ele>
        <time>2013-09-05T11:49:11Z</time>
      </trkpt>
      <trkpt lat="50.632358975708485" lon="15.516120996326208">
        <ele>485.12</ele>
        <time>2013-09-05T11:49:18Z</time>
      </trkpt>
      <trkpt lat="50.631466973572969" lon="15.51698399707675">
        <ele>476.94999999999999</ele>
        <time>2013-09-05T11:49:25Z</time>
      </trkpt>
      <trkpt lat="50.631346022710204" lon="15.517077958211303">
        <ele>475.99000000000001</ele>
        <time>2013-09-05T11:49:26Z</time>
      </trkpt>
      <trkpt lat="50.631219036877155" lon="15.517147025093436">
        <ele>475.50999999999999</ele>
        <time>2013-09-05T11:49:27Z</time>
      </trkpt>
      <trkpt lat="50.631076963618398" lon="15.517213996499777">
        <ele>474.06999999999999</ele>
        <time>2013-09-05T11:49:28Z</time>
      </trkpt>
      <trkpt lat="50.629964014515281" lon="15.517292032018304">
        <ele>465.89999999999998</ele>
        <time>2013-09-05T11:49:36Z</time>
      </trkpt>
      <trkpt lat="50.62903999350965" lon="15.516979973763227">
        <ele>456.75999999999999</ele>
        <time>2013-09-05T11:49:43Z</time>
      </trkpt>
      <trkpt lat="50.62880496494472" lon="15.516857011243701">
        <ele>455.31999999999999</ele>
        <time>2013-09-05T11:49:45Z</time>
      </trkpt>
      <trkpt lat="50.628468012437224" lon="15.516606979072094">
        <ele>448.58999999999997</ele>
        <time>2013-09-05T11:49:51Z</time>
      </trkpt>
      <trkpt lat="50.628305990248919" lon="15.516450991854072">
        <ele>444.75</ele>
        <time>2013-09-05T11:49:55Z</time>
      </trkpt>
      <trkpt lat="50.628249999135733" lon="15.516328029334545">
        <ele>443.31</ele>
        <time>2013-09-05T11:49:56Z</time>
      </trkpt>
      <trkpt lat="50.627580033615232" lon="15.515222959220409">
        <ele>436.57999999999998</ele>
        <time>2013-09-05T11:50:03Z</time>
      </trkpt>
      <trkpt lat="50.626551993191242" lon="15.514147980138659">
        <ele>431.29000000000002</ele>
        <time>2013-09-05T11:50:10Z</time>
      </trkpt>
      <trkpt lat="50.626079002395272" lon="15.513652022927999">
        <ele>427.92000000000002</ele>
        <time>2013-09-05T11:50:13Z</time>
      </trkpt>
      <trkpt lat="50.625941036269069" lon="15.513443984091282">
        <ele>426.95999999999998</ele>
        <time>2013-09-05T11:50:14Z</time>
      </trkpt>
      <trkpt lat="50.625824024900794" lon="15.513206021860242">
        <ele>426</ele>
        <time>2013-09-05T11:50:15Z</time>
      </trkpt>
      <trkpt lat="50.624795984476805" lon="15.51079798489809">
        <ele>418.31</ele>
        <time>2013-09-05T11:50:25Z</time>
      </trkpt>
      <trkpt lat="50.624154014512897" lon="15.509027978405356">
        <ele>416.87</ele>
        <time>2013-09-05T11:50:32Z</time>
      </trkpt>
      <trkpt lat="50.624023005366325" lon="15.508839972317219">
        <ele>416.38999999999999</ele>
        <time>2013-09-05T11:50:33Z</time>
      </trkpt>
      <trkpt lat="50.623896019533277" lon="15.5086699873209">
        <ele>415.91000000000003</ele>
        <time>2013-09-05T11:50:34Z</time>
      </trkpt>
      <trkpt lat="50.623766016215086" lon="15.508508970960975">
        <ele>415.43000000000001</ele>
        <time>2013-09-05T11:50:35Z</time>
      </trkpt>
      <trkpt lat="50.623631989583373" lon="15.508374022319913">
        <ele>414.94999999999999</ele>
        <time>2013-09-05T11:50:36Z</time>
      </trkpt>
      <trkpt lat="50.62349502928555" lon="15.508256005123258">
        <ele>414.47000000000003</ele>
        <time>2013-09-05T11:50:37Z</time>
      </trkpt>
      <trkpt lat="50.623356979340315" lon="15.508148968219757">
        <ele>414.94999999999999</ele>
        <time>2013-09-05T11:50:38Z</time>
      </trkpt>
      <trkpt lat="50.623209960758686" lon="15.508072022348642">
        <ele>413.5</ele>
        <time>2013-09-05T11:50:39Z</time>
      </trkpt>
      <trkpt lat="50.62224998138845" lon="15.507647981867194">
        <ele>416.87</ele>
        <time>2013-09-05T11:50:47Z</time>
      </trkpt>
      <trkpt lat="50.622169012203813" lon="15.507581010460854">
        <ele>416.87</ele>
        <time>2013-09-05T11:50:48Z</time>
      </trkpt>
      <trkpt lat="50.622115032747388" lon="15.507475985214114">
        <ele>417.35000000000002</ele>
        <time>2013-09-05T11:50:49Z</time>
      </trkpt>
      <trkpt lat="50.622086031362414" lon="15.507341036573052">
        <ele>417.35000000000002</ele>
        <time>2013-09-05T11:50:50Z</time>
      </trkpt>
      <trkpt lat="50.622094999998808" lon="15.507184965535998">
        <ele>417.82999999999998</ele>
        <time>2013-09-05T11:50:51Z</time>
      </trkpt>
      <trkpt lat="50.622131964191794" lon="15.507012968882918">
        <ele>418.31</ele>
        <time>2013-09-05T11:50:52Z</time>
      </trkpt>
      <trkpt lat="50.622170018032193" lon="15.5068429838866">
        <ele>417.35000000000002</ele>
        <time>2013-09-05T11:50:53Z</time>
      </trkpt>
      <trkpt lat="50.622590035200119" lon="15.504977004602551">
        <ele>424.56</ele>
        <time>2013-09-05T11:51:02Z</time>
      </trkpt>
      <trkpt lat="50.623351028189063" lon="15.50233100540936">
        <ele>424.56</ele>
        <time>2013-09-05T11:51:15Z</time>
      </trkpt>
      <trkpt lat="50.624139010906219" lon="15.500142993405461">
        <ele>425.51999999999998</ele>
        <time>2013-09-05T11:51:26Z</time>
      </trkpt>
      <trkpt lat="50.624924981966615" lon="15.497720036655664">
        <ele>425.04000000000002</ele>
        <time>2013-09-05T11:51:37Z</time>
      </trkpt>
      <trkpt lat="50.625980012118816" lon="15.494660977274179">
        <ele>423.12</ele>
        <time>2013-09-05T11:51:47Z</time>
      </trkpt>
      <trkpt lat="50.626845024526119" lon="15.492356959730387">
        <ele>418.79000000000002</ele>
        <time>2013-09-05T11:51:56Z</time>
      </trkpt>
      <trkpt lat="50.627230005338788" lon="15.490670017898083">
        <ele>415.91000000000003</ele>
        <time>2013-09-05T11:52:04Z</time>
      </trkpt>
      <trkpt lat="50.627654967829585" lon="15.488136000931263">
        <ele>410.13999999999999</ele>
        <time>2013-09-05T11:52:16Z</time>
      </trkpt>
      <trkpt lat="50.628126030787826" lon="15.4853780195117">
        <ele>404.37</ele>
        <time>2013-09-05T11:52:28Z</time>
      </trkpt>
      <trkpt lat="50.628835977986455" lon="15.481383036822081">
        <ele>404.37</ele>
        <time>2013-09-05T11:52:43Z</time>
      </trkpt>
      <trkpt lat="50.629066983237863" lon="15.478634024038911">
        <ele>400.52999999999997</ele>
        <time>2013-09-05T11:52:53Z</time>
      </trkpt>
      <trkpt lat="50.629551960155368" lon="15.475952988490462">
        <ele>397.63999999999999</ele>
        <time>2013-09-05T11:53:03Z</time>
      </trkpt>
      <trkpt lat="50.630328040570021" lon="15.472128996625543">
        <ele>397.63999999999999</ele>
        <time>2013-09-05T11:53:17Z</time>
      </trkpt>
      <trkpt lat="50.630777981132269" lon="15.469162976369262">
        <ele>396.19999999999999</ele>
        <time>2013-09-05T11:53:28Z</time>
      </trkpt>
      <trkpt lat="50.631237979978323" lon="15.46591498889029">
        <ele>395.24000000000001</ele>
        <time>2013-09-05T11:53:40Z</time>
      </trkpt>
      <trkpt lat="50.631289025768638" lon="15.465670991688967">
        <ele>395.24000000000001</ele>
        <time>2013-09-05T11:53:41Z</time>
      </trkpt>
      <trkpt lat="50.631350968033075" lon="15.465448033064604">
        <ele>395.24000000000001</ele>
        <time>2013-09-05T11:53:42Z</time>
      </trkpt>
      <trkpt lat="50.631483988836408" lon="15.465056011453271">
        <ele>395.72000000000003</ele>
        <time>2013-09-05T11:53:44Z</time>
      </trkpt>
      <trkpt lat="50.63176603987813" lon="15.464530969038606">
        <ele>396.68000000000001</ele>
        <time>2013-09-05T11:53:49Z</time>
      </trkpt>
      <trkpt lat="50.631840974092484" lon="15.464414963498712">
        <ele>394.75999999999999</ele>
        <time>2013-09-05T11:53:56Z</time>
      </trkpt>
      <trkpt lat="50.631858995184302" lon="15.464423010125756">
        <ele>395.24000000000001</ele>
        <time>2013-09-05T11:54:36Z</time>
      </trkpt>
      <trkpt lat="50.631876010447741" lon="15.464480007067323">
        <ele>395.24000000000001</ele>
        <time>2013-09-05T11:55:05Z</time>
      </trkpt>
      <trkpt lat="50.631871987134218" lon="15.464441031217575">
        <ele>396.19999999999999</ele>
        <time>2013-09-05T11:55:31Z</time>
      </trkpt>
      <trkpt lat="50.631903000175953" lon="15.464399959892035">
        <ele>396.68000000000001</ele>
        <time>2013-09-05T11:55:34Z</time>
      </trkpt>
      <trkpt lat="50.631943987682462" lon="15.46434598043561">
        <ele>396.68000000000001</ele>
        <time>2013-09-05T11:55:35Z</time>
      </trkpt>
      <trkpt lat="50.631995033472776" lon="15.464290995150805">
        <ele>396.68000000000001</ele>
        <time>2013-09-05T11:55:36Z</time>
      </trkpt>
      <trkpt lat="50.63215303234756" lon="15.464150011539459">
        <ele>397.63999999999999</ele>
        <time>2013-09-05T11:55:39Z</time>
      </trkpt>
      <trkpt lat="50.632256967946887" lon="15.464125033468008">
        <ele>399.56999999999999</ele>
        <time>2013-09-05T11:55:46Z</time>
      </trkpt>
      <trkpt lat="50.632286975160241" lon="15.464147999882698">
        <ele>398.60000000000002</ele>
        <time>2013-09-05T11:56:36Z</time>
      </trkpt>
      <trkpt lat="50.632270965725183" lon="15.464141964912415">
        <ele>398.60000000000002</ele>
        <time>2013-09-05T11:57:08Z</time>
      </trkpt>
      <trkpt lat="50.632260991260409" lon="15.464124027639627">
        <ele>398.12</ele>
        <time>2013-09-05T11:57:38Z</time>
      </trkpt>
      <trkpt lat="50.632477998733521" lon="15.463986983522773">
        <ele>397.63999999999999</ele>
        <time>2013-09-05T11:57:56Z</time>
      </trkpt>
      <trkpt lat="50.633300011977553" lon="15.463668974116445">
        <ele>397.16000000000003</ele>
        <time>2013-09-05T11:58:02Z</time>
      </trkpt>
      <trkpt lat="50.634653018787503" lon="15.463327998295426">
        <ele>394.27999999999997</ele>
        <time>2013-09-05T11:58:10Z</time>
      </trkpt>
      <trkpt lat="50.635427003726363" lon="15.463080983608961">
        <ele>391.38999999999999</ele>
        <time>2013-09-05T11:58:14Z</time>
      </trkpt>
      <trkpt lat="50.635594977065921" lon="15.462963972240686">
        <ele>390.91000000000003</ele>
        <time>2013-09-05T11:58:15Z</time>
      </trkpt>
      <trkpt lat="50.637101037427783" lon="15.462142964825034">
        <ele>386.58999999999997</ele>
        <time>2013-09-05T11:58:24Z</time>
      </trkpt>
      <trkpt lat="50.638441974297166" lon="15.461599985137582">
        <ele>383.22000000000003</ele>
        <time>2013-09-05T11:58:32Z</time>
      </trkpt>
      <trkpt lat="50.638595027849078" lon="15.461465958505869">
        <ele>382.74000000000001</ele>
        <time>2013-09-05T11:58:33Z</time>
      </trkpt>
      <trkpt lat="50.638726959004998" lon="15.461320029571652">
        <ele>382.74000000000001</ele>
        <time>2013-09-05T11:58:34Z</time>
      </trkpt>
      <trkpt lat="50.639392985031009" lon="15.460544032976031">
        <ele>383.22000000000003</ele>
        <time>2013-09-05T11:58:39Z</time>
      </trkpt>
      <trkpt lat="50.639541009441018" lon="15.460446970537305">
        <ele>382.74000000000001</ele>
        <time>2013-09-05T11:58:40Z</time>
      </trkpt>
      <trkpt lat="50.639688028022647" lon="15.460366001352668">
        <ele>382.74000000000001</ele>
        <time>2013-09-05T11:58:41Z</time>
      </trkpt>
      <trkpt lat="50.639834962785244" lon="15.460317973047495">
        <ele>382.25999999999999</ele>
        <time>2013-09-05T11:58:42Z</time>
      </trkpt>
      <trkpt lat="50.639978963881731" lon="15.460289977490902">
        <ele>382.25999999999999</ele>
        <time>2013-09-05T11:58:43Z</time>
      </trkpt>
      <trkpt lat="50.640122964978218" lon="15.460299029946327">
        <ele>382.25999999999999</ele>
        <time>2013-09-05T11:58:44Z</time>
      </trkpt>
      <trkpt lat="50.640288004651666" lon="15.460358960554004">
        <ele>382.74000000000001</ele>
        <time>2013-09-05T11:58:45Z</time>
      </trkpt>
      <trkpt lat="50.640424964949489" lon="15.460415035486221">
        <ele>382.74000000000001</ele>
        <time>2013-09-05T11:58:46Z</time>
      </trkpt>
      <trkpt lat="50.640561003237963" lon="15.460492987185717">
        <ele>382.74000000000001</ele>
        <time>2013-09-05T11:58:47Z</time>
      </trkpt>
      <trkpt lat="50.640711039304733" lon="15.460597006604075">
        <ele>382.74000000000001</ele>
        <time>2013-09-05T11:58:48Z</time>
      </trkpt>
      <trkpt lat="50.64085797406733" lon="15.460733966901898">
        <ele>382.74000000000001</ele>
        <time>2013-09-05T11:58:49Z</time>
      </trkpt>
      <trkpt lat="50.641419980674982" lon="15.461378032341599">
        <ele>382.25999999999999</ele>
        <time>2013-09-05T11:58:53Z</time>
      </trkpt>
      <trkpt lat="50.641518970951438" lon="15.461587999016047">
        <ele>382.25999999999999</ele>
        <time>2013-09-05T11:58:54Z</time>
      </trkpt>
      <trkpt lat="50.641612010076642" lon="15.461798971518874">
        <ele>382.74000000000001</ele>
        <time>2013-09-05T11:58:55Z</time>
      </trkpt>
      <trkpt lat="50.641713012009859" lon="15.461987983435392">
        <ele>383.22000000000003</ele>
        <time>2013-09-05T11:58:56Z</time>
      </trkpt>
      <trkpt lat="50.641830023378134" lon="15.462169032543898">
        <ele>384.18000000000001</ele>
        <time>2013-09-05T11:58:57Z</time>
      </trkpt>
      <trkpt lat="50.641924990341067" lon="15.462318984791636">
        <ele>384.66000000000003</ele>
        <time>2013-09-05T11:58:58Z</time>
      </trkpt>
      <trkpt lat="50.641986010596156" lon="15.462511014193296">
        <ele>384.66000000000003</ele>
        <time>2013-09-05T11:58:59Z</time>
      </trkpt>
      <trkpt lat="50.641999002546072" lon="15.462717041373253">
        <ele>386.58999999999997</ele>
        <time>2013-09-05T11:59:00Z</time>
      </trkpt>
      <trkpt lat="50.642088018357754" lon="15.463023986667395">
        <ele>387.55000000000001</ele>
        <time>2013-09-05T11:59:02Z</time>
      </trkpt>
      <trkpt lat="50.642178039997816" lon="15.463087018579245">
        <ele>388.02999999999997</ele>
        <time>2013-09-05T11:59:03Z</time>
      </trkpt>
      <trkpt lat="50.642282981425524" lon="15.463080983608961">
        <ele>386.58999999999997</ele>
        <time>2013-09-05T11:59:04Z</time>
      </trkpt>
      <trkpt lat="50.642395969480276" lon="15.463019963353872">
        <ele>387.06999999999999</ele>
        <time>2013-09-05T11:59:05Z</time>
      </trkpt>
      <trkpt lat="50.642523961141706" lon="15.462898006662726">
        <ele>388.02999999999997</ele>
        <time>2013-09-05T11:59:06Z</time>
      </trkpt>
      <trkpt lat="50.642649019137025" lon="15.462768003344536">
        <ele>388.02999999999997</ele>
        <time>2013-09-05T11:59:07Z</time>
      </trkpt>
      <trkpt lat="50.642771981656551" lon="15.462630959227681">
        <ele>388.02999999999997</ele>
        <time>2013-09-05T11:59:08Z</time>
      </trkpt>
      <trkpt lat="50.643858024850488" lon="15.461357999593019">
        <ele>391.87</ele>
        <time>2013-09-05T11:59:16Z</time>
      </trkpt>
      <trkpt lat="50.643999008461833" lon="15.461237970739603">
        <ele>391.87</ele>
        <time>2013-09-05T11:59:17Z</time>
      </trkpt>
      <trkpt lat="50.644152984023094" lon="15.461175022646785">
        <ele>391.87</ele>
        <time>2013-09-05T11:59:18Z</time>
      </trkpt>
      <trkpt lat="50.644320035353303" lon="15.461147027090192">
        <ele>391.87</ele>
        <time>2013-09-05T11:59:19Z</time>
      </trkpt>
      <trkpt lat="50.644492032006383" lon="15.461135962978005">
        <ele>391.87</ele>
        <time>2013-09-05T11:59:20Z</time>
      </trkpt>
      <trkpt lat="50.645545972511172" lon="15.460945023223758">
        <ele>391.38999999999999</ele>
        <time>2013-09-05T11:59:27Z</time>
      </trkpt>
      <trkpt lat="50.646910965442657" lon="15.460440013557673">
        <ele>391.38999999999999</ele>
        <time>2013-09-05T11:59:36Z</time>
      </trkpt>
      <trkpt lat="50.647958032786846" lon="15.459639960899949">
        <ele>393.31999999999999</ele>
        <time>2013-09-05T11:59:44Z</time>
      </trkpt>
      <trkpt lat="50.648822961375117" lon="15.45893001370132">
        <ele>395.24000000000001</ele>
        <time>2013-09-05T11:59:51Z</time>
      </trkpt>
      <trkpt lat="50.648961011320353" lon="15.458876034244895">
        <ele>395.72000000000003</ele>
        <time>2013-09-05T11:59:52Z</time>
      </trkpt>
      <trkpt lat="50.64968797378242" lon="15.458659026771784">
        <ele>396.68000000000001</ele>
        <time>2013-09-05T11:59:57Z</time>
      </trkpt>
      <trkpt lat="50.64981596544385" lon="15.458577973768115">
        <ele>396.19999999999999</ele>
        <time>2013-09-05T11:59:58Z</time>
      </trkpt>
      <trkpt lat="50.649927025660872" lon="15.458462974056602">
        <ele>395.72000000000003</ele>
        <time>2013-09-05T11:59:59Z</time>
      </trkpt>
      <trkpt lat="50.65002802759409" lon="15.458314027637243">
        <ele>396.19999999999999</ele>
        <time>2013-09-05T12:00:00Z</time>
      </trkpt>
      <trkpt lat="50.650120982900262" lon="15.458144964650273">
        <ele>396.68000000000001</ele>
        <time>2013-09-05T12:00:01Z</time>
      </trkpt>
      <trkpt lat="50.650207987055182" lon="15.45796500518918">
        <ele>396.68000000000001</ele>
        <time>2013-09-05T12:00:02Z</time>
      </trkpt>
      <trkpt lat="50.650297002866864" lon="15.457776999101043">
        <ele>397.16000000000003</ele>
        <time>2013-09-05T12:00:03Z</time>
      </trkpt>
      <trkpt lat="50.651545990258455" lon="15.455310037359595">
        <ele>401.97000000000003</ele>
        <time>2013-09-05T12:00:17Z</time>
      </trkpt>
      <trkpt lat="50.652537988498807" lon="15.452929995954037">
        <ele>405.81</ele>
        <time>2013-09-05T12:00:30Z</time>
      </trkpt>
      <trkpt lat="50.652656005695462" lon="15.452323984354734">
        <ele>406.76999999999998</ele>
        <time>2013-09-05T12:00:33Z</time>
      </trkpt>
      <trkpt lat="50.652890028432012" lon="15.450004041194916">
        <ele>410.62</ele>
        <time>2013-09-05T12:00:44Z</time>
      </trkpt>
      <trkpt lat="50.652983989566565" lon="15.449081026017666">
        <ele>412.54000000000002</ele>
        <time>2013-09-05T12:00:48Z</time>
      </trkpt>
      <trkpt lat="50.653020031750202" lon="15.448857983574271">
        <ele>413.01999999999998</ele>
        <time>2013-09-05T12:00:49Z</time>
      </trkpt>
      <trkpt lat="50.653088008984923" lon="15.448648016899824">
        <ele>413.5</ele>
        <time>2013-09-05T12:00:50Z</time>
      </trkpt>
      <trkpt lat="50.653171995654702" lon="15.448479037731886">
        <ele>413.98000000000002</ele>
        <time>2013-09-05T12:00:51Z</time>
      </trkpt>
      <trkpt lat="50.653281966224313" lon="15.448347022756934">
        <ele>414.47000000000003</ele>
        <time>2013-09-05T12:00:52Z</time>
      </trkpt>
      <trkpt lat="50.653412975370884" lon="15.448258006945252">
        <ele>414.47000000000003</ele>
        <time>2013-09-05T12:00:53Z</time>
      </trkpt>
      <trkpt lat="50.653548007830977" lon="15.448214001953602">
        <ele>414.94999999999999</ele>
        <time>2013-09-05T12:00:54Z</time>
      </trkpt>
      <trkpt lat="50.653691003099084" lon="15.448225988075137">
        <ele>415.43000000000001</ele>
        <time>2013-09-05T12:00:55Z</time>
      </trkpt>
      <trkpt lat="50.653844978660345" lon="15.448266975581646">
        <ele>415.91000000000003</ele>
        <time>2013-09-05T12:00:56Z</time>
      </trkpt>
      <trkpt lat="50.653999038040638" lon="15.448332019150257">
        <ele>416.38999999999999</ele>
        <time>2013-09-05T12:00:57Z</time>
      </trkpt>
      <trkpt lat="50.654146978631616" lon="15.448404019698501">
        <ele>416.38999999999999</ele>
        <time>2013-09-05T12:00:58Z</time>
      </trkpt>
      <trkpt lat="50.655576009303331" lon="15.44919703155756">
        <ele>418.79000000000002</ele>
        <time>2013-09-05T12:01:08Z</time>
      </trkpt>
      <trkpt lat="50.656493995338678" lon="15.449979985132813">
        <ele>419.26999999999998</ele>
        <time>2013-09-05T12:01:15Z</time>
      </trkpt>
      <trkpt lat="50.656628021970391" lon="15.450049974024296">
        <ele>418.31</ele>
        <time>2013-09-05T12:01:16Z</time>
      </trkpt>
      <trkpt lat="50.656751990318298" lon="15.450091967359185">
        <ele>418.79000000000002</ele>
        <time>2013-09-05T12:01:17Z</time>
      </trkpt>
      <trkpt lat="50.657998966053128" lon="15.450118035078049">
        <ele>419.75</ele>
        <time>2013-09-05T12:01:25Z</time>
      </trkpt>
      <trkpt lat="50.658693993464112" lon="15.450177965685725">
        <ele>419.26999999999998</ele>
        <time>2013-09-05T12:01:29Z</time>
      </trkpt>
      <trkpt lat="50.660405997186899" lon="15.450996039435267">
        <ele>423.60000000000002</ele>
        <time>2013-09-05T12:01:38Z</time>
      </trkpt>
      <trkpt lat="50.661763027310371" lon="15.45128202997148">
        <ele>427.92000000000002</ele>
        <time>2013-09-05T12:01:45Z</time>
      </trkpt>
      <trkpt lat="50.661952961236238" lon="15.451243976131082">
        <ele>428.39999999999998</ele>
        <time>2013-09-05T12:01:46Z</time>
      </trkpt>
      <trkpt lat="50.663375034928322" lon="15.45083099976182">
        <ele>433.69</ele>
        <time>2013-09-05T12:01:54Z</time>
      </trkpt>
      <trkpt lat="50.664352029561996" lon="15.450555989518762">
        <ele>433.69</ele>
        <time>2013-09-05T12:02:01Z</time>
      </trkpt>
      <trkpt lat="50.66530697979033" lon="15.450605023652315">
        <ele>421.19</ele>
        <time>2013-09-05T12:02:08Z</time>
      </trkpt>
      <trkpt lat="50.665578972548246" lon="15.450709965080023">
        <ele>418.79000000000002</ele>
        <time>2013-09-05T12:02:10Z</time>
      </trkpt>
      <trkpt lat="50.66569103859365" lon="15.450800992548466">
        <ele>418.79000000000002</ele>
        <time>2013-09-05T12:02:11Z</time>
      </trkpt>
      <trkpt lat="50.665934029966593" lon="15.451050018891692">
        <ele>417.82999999999998</ele>
        <time>2013-09-05T12:02:13Z</time>
      </trkpt>
      <trkpt lat="50.666032014414668" lon="15.451212041079998">
        <ele>417.35000000000002</ele>
        <time>2013-09-05T12:02:14Z</time>
      </trkpt>
      <trkpt lat="50.666116001084447" lon="15.451397029682994">
        <ele>416.38999999999999</ele>
        <time>2013-09-05T12:02:15Z</time>
      </trkpt>
      <trkpt lat="50.66663802601397" lon="15.453298967331648">
        <ele>414.47000000000003</ele>
        <time>2013-09-05T12:02:23Z</time>
      </trkpt>
      <trkpt lat="50.666944971308112" lon="15.455326968804002">
        <ele>410.62</ele>
        <time>2013-09-05T12:02:30Z</time>
      </trkpt>
      <trkpt lat="50.667029963806272" lon="15.455585969612002">
        <ele>410.13999999999999</ele>
        <time>2013-09-05T12:02:31Z</time>
      </trkpt>
      <trkpt lat="50.667313020676374" lon="15.456305975094438">
        <ele>408.69999999999999</ele>
        <time>2013-09-05T12:02:34Z</time>
      </trkpt>
      <trkpt lat="50.668065967038274" lon="15.457833996042609">
        <ele>404.85000000000002</ele>
        <time>2013-09-05T12:02:41Z</time>
      </trkpt>
      <trkpt lat="50.668424963951111" lon="15.458354009315372">
        <ele>399.56999999999999</ele>
        <time>2013-09-05T12:02:45Z</time>
      </trkpt>
      <trkpt lat="50.668708020821214" lon="15.459266966208816">
        <ele>390.91000000000003</ele>
        <time>2013-09-05T12:02:53Z</time>
      </trkpt>
      <trkpt lat="50.669333981350064" lon="15.460444036871195">
        <ele>384.66000000000003</ele>
        <time>2013-09-05T12:02:59Z</time>
      </trkpt>
      <trkpt lat="50.670230006799102" lon="15.462482012808323">
        <ele>375.52999999999997</ele>
        <time>2013-09-05T12:03:08Z</time>
      </trkpt>
      <trkpt lat="50.670399991795421" lon="15.462961960583925">
        <ele>373.61000000000001</ele>
        <time>2013-09-05T12:03:10Z</time>
      </trkpt>
      <trkpt lat="50.671331975609064" lon="15.463608037680387">
        <ele>368.80000000000001</ele>
        <time>2013-09-05T12:03:16Z</time>
      </trkpt>
      <trkpt lat="50.671289982274175" lon="15.464033000171185">
        <ele>365.44</ele>
        <time>2013-09-05T12:03:21Z</time>
      </trkpt>
      <trkpt lat="50.670499987900257" lon="15.464919973164797">
        <ele>364</ele>
        <time>2013-09-05T12:03:27Z</time>
      </trkpt>
      <trkpt lat="50.668871970847249" lon="15.466561987996101">
        <ele>363.04000000000002</ele>
        <time>2013-09-05T12:03:32Z</time>
      </trkpt>
      <trkpt lat="50.669313026592135" lon="15.465847011655569">
        <ele>363.51999999999998</ele>
        <time>2013-09-05T12:03:33Z</time>
      </trkpt>
      <trkpt lat="50.669272961094975" lon="15.465687001124024">
        <ele>363.51999999999998</ele>
        <time>2013-09-05T12:03:34Z</time>
      </trkpt>
      <trkpt lat="50.672548022121191" lon="15.453863991424441">
        <ele>380.33999999999997</ele>
        <time>2013-09-05T12:03:47Z</time>
      </trkpt>
      <trkpt lat="50.673054959625006" lon="15.452047968283296">
        <ele>380.81999999999999</ele>
        <time>2013-09-05T12:03:51Z</time>
      </trkpt>
      <trkpt lat="50.673151016235352" lon="15.451704980805516">
        <ele>380.33999999999997</ele>
        <time>2013-09-05T12:03:52Z</time>
      </trkpt>
      <trkpt lat="50.673242965713143" lon="15.451415972784162">
        <ele>380.81999999999999</ele>
        <time>2013-09-05T12:03:53Z</time>
      </trkpt>
      <trkpt lat="50.673860041424632" lon="15.450398996472359">
        <ele>382.74000000000001</ele>
        <time>2013-09-05T12:03:57Z</time>
      </trkpt>
      <trkpt lat="50.674038995057344" lon="15.450194980949163">
        <ele>383.22000000000003</ele>
        <time>2013-09-05T12:03:58Z</time>
      </trkpt>
      <trkpt lat="50.674785990267992" lon="15.449151014909148">
        <ele>378.42000000000002</ele>
        <time>2013-09-05T12:03:59Z</time>
      </trkpt>
      <trkpt lat="50.674981959164143" lon="15.449058981612325">
        <ele>378.42000000000002</ele>
        <time>2013-09-05T12:04:00Z</time>
      </trkpt>
      <trkpt lat="50.675149010494351" lon="15.449092006310821">
        <ele>378.89999999999998</ele>
        <time>2013-09-05T12:04:01Z</time>
      </trkpt>
      <trkpt lat="50.675626024603844" lon="15.449042972177267">
        <ele>378.42000000000002</ele>
        <time>2013-09-05T12:04:03Z</time>
      </trkpt>
      <trkpt lat="50.675839008763433" lon="15.449227038770914">
        <ele>378.42000000000002</ele>
        <time>2013-09-05T12:04:04Z</time>
      </trkpt>
      <trkpt lat="50.676029026508331" lon="15.449511017650366">
        <ele>378.42000000000002</ele>
        <time>2013-09-05T12:04:05Z</time>
      </trkpt>
      <trkpt lat="50.676192976534367" lon="15.449774963781238">
        <ele>378.42000000000002</ele>
        <time>2013-09-05T12:04:06Z</time>
      </trkpt>
      <trkpt lat="50.67708196118474" lon="15.451655024662614">
        <ele>378.89999999999998</ele>
        <time>2013-09-05T12:04:13Z</time>
      </trkpt>
      <trkpt lat="50.677209030836821" lon="15.451859962195158">
        <ele>379.38</ele>
        <time>2013-09-05T12:04:14Z</time>
      </trkpt>
      <trkpt lat="50.677984021604061" lon="15.452919015660882">
        <ele>382.25999999999999</ele>
        <time>2013-09-05T12:04:20Z</time>
      </trkpt>
      <trkpt lat="50.678130034357309" lon="15.453032003715634">
        <ele>382.74000000000001</ele>
        <time>2013-09-05T12:04:21Z</time>
      </trkpt>
      <trkpt lat="50.678295996040106" lon="15.453109033405781">
        <ele>383.22000000000003</ele>
        <time>2013-09-05T12:04:22Z</time>
      </trkpt>
      <trkpt lat="50.678456006571651" lon="15.453162007033825">
        <ele>383.69999999999999</ele>
        <time>2013-09-05T12:04:23Z</time>
      </trkpt>
      <trkpt lat="50.678620962426066" lon="15.453196037560701">
        <ele>384.18000000000001</ele>
        <time>2013-09-05T12:04:24Z</time>
      </trkpt>
      <trkpt lat="50.678780972957611" lon="15.453161001205444">
        <ele>384.66000000000003</ele>
        <time>2013-09-05T12:04:25Z</time>
      </trkpt>
      <trkpt lat="50.678931009024382" lon="15.453110039234161">
        <ele>385.14999999999998</ele>
        <time>2013-09-05T12:04:26Z</time>
      </trkpt>
      <trkpt lat="50.679068975150585" lon="15.45304398983717">
        <ele>385.63</ele>
        <time>2013-09-05T12:04:27Z</time>
      </trkpt>
      <trkpt lat="50.679195960983634" lon="15.452947011217475">
        <ele>386.11000000000001</ele>
        <time>2013-09-05T12:04:28Z</time>
      </trkpt>
      <trkpt lat="50.679324958473444" lon="15.452826982364058">
        <ele>387.06999999999999</ele>
        <time>2013-09-05T12:04:29Z</time>
      </trkpt>
      <trkpt lat="50.679441969841719" lon="15.452688010409474">
        <ele>387.55000000000001</ele>
        <time>2013-09-05T12:04:30Z</time>
      </trkpt>
      <trkpt lat="50.679557975381613" lon="15.452538980171084">
        <ele>387.55000000000001</ele>
        <time>2013-09-05T12:04:31Z</time>
      </trkpt>
      <trkpt lat="50.680490965023637" lon="15.450925966724753">
        <ele>392.36000000000001</ele>
        <time>2013-09-05T12:04:40Z</time>
      </trkpt>
      <trkpt lat="50.680618034675717" lon="15.450798980891705">
        <ele>393.31999999999999</ele>
        <time>2013-09-05T12:04:41Z</time>
      </trkpt>
      <trkpt lat="50.680762035772204" lon="15.450694961473346">
        <ele>393.31999999999999</ele>
        <time>2013-09-05T12:04:42Z</time>
      </trkpt>
      <trkpt lat="50.68092699162662" lon="15.45059597119689">
        <ele>393.80000000000001</ele>
        <time>2013-09-05T12:04:43Z</time>
      </trkpt>
      <trkpt lat="50.681122038513422" lon="15.450518019497395">
        <ele>394.27999999999997</ele>
        <time>2013-09-05T12:04:44Z</time>
      </trkpt>
      <trkpt lat="50.681323036551476" lon="15.450443001464009">
        <ele>394.75999999999999</ele>
        <time>2013-09-05T12:04:45Z</time>
      </trkpt>
      <trkpt lat="50.68225703202188" lon="15.450147036463022">
        <ele>396.68000000000001</ele>
        <time>2013-09-05T12:04:50Z</time>
      </trkpt>
      <trkpt lat="50.682421987876296" lon="15.450184000656009">
        <ele>397.16000000000003</ele>
        <time>2013-09-05T12:04:51Z</time>
      </trkpt>
      <trkpt lat="50.682574035599828" lon="15.450253989547491">
        <ele>398.12</ele>
        <time>2013-09-05T12:04:52Z</time>
      </trkpt>
      <trkpt lat="50.682724993675947" lon="15.450372006744146">
        <ele>399.07999999999998</ele>
        <time>2013-09-05T12:04:53Z</time>
      </trkpt>
      <trkpt lat="50.682820966467261" lon="15.450511984527111">
        <ele>400.52999999999997</ele>
        <time>2013-09-05T12:04:54Z</time>
      </trkpt>
      <trkpt lat="50.682883998379111" lon="15.450691021978855">
        <ele>401.49000000000001</ele>
        <time>2013-09-05T12:04:55Z</time>
      </trkpt>
      <trkpt lat="50.682916017249227" lon="15.450906017795205">
        <ele>402.93000000000001</ele>
        <time>2013-09-05T12:04:56Z</time>
      </trkpt>
      <trkpt lat="50.682920040562749" lon="15.451171975582838">
        <ele>403.41000000000003</ele>
        <time>2013-09-05T12:04:57Z</time>
      </trkpt>
      <trkpt lat="50.682946024462581" lon="15.451407004147768">
        <ele>403.88999999999999</ele>
        <time>2013-09-05T12:04:58Z</time>
      </trkpt>
      <trkpt lat="50.682982988655567" lon="15.451610013842583">
        <ele>404.37</ele>
        <time>2013-09-05T12:04:59Z</time>
      </trkpt>
      <trkpt lat="50.683035040274262" lon="15.45177698135376">
        <ele>404.85000000000002</ele>
        <time>2013-09-05T12:05:00Z</time>
      </trkpt>
      <trkpt lat="50.683107040822506" lon="15.451933974400163">
        <ele>405.32999999999998</ele>
        <time>2013-09-05T12:05:01Z</time>
      </trkpt>
      <trkpt lat="50.683173006400466" lon="15.452102031558752">
        <ele>405.32999999999998</ele>
        <time>2013-09-05T12:05:02Z</time>
      </trkpt>
      <trkpt lat="50.683254981413484" lon="15.452159028500319">
        <ele>404.37</ele>
        <time>2013-09-05T12:05:03Z</time>
      </trkpt>
      <trkpt lat="50.683411974459887" lon="15.452231029048562">
        <ele>404.85000000000002</ele>
        <time>2013-09-05T12:05:04Z</time>
      </trkpt>
      <trkpt lat="50.683757979422808" lon="15.452261036261916">
        <ele>405.32999999999998</ele>
        <time>2013-09-05T12:05:06Z</time>
      </trkpt>
      <trkpt lat="50.685213999822736" lon="15.452344017103314">
        <ele>413.01999999999998</ele>
        <time>2013-09-05T12:05:14Z</time>
      </trkpt>
      <trkpt lat="50.686965985223651" lon="15.452321972697973">
        <ele>422.16000000000003</ele>
        <time>2013-09-05T12:05:24Z</time>
      </trkpt>
      <trkpt lat="50.687626982107759" lon="15.452221976593137">
        <ele>424.56</ele>
        <time>2013-09-05T12:05:28Z</time>
      </trkpt>
      <trkpt lat="50.687785986810923" lon="15.4521219804883">
        <ele>425.04000000000002</ele>
        <time>2013-09-05T12:05:29Z</time>
      </trkpt>
      <trkpt lat="50.687949014827609" lon="15.451998012140393">
        <ele>426</ele>
        <time>2013-09-05T12:05:30Z</time>
      </trkpt>
      <trkpt lat="50.688091004267335" lon="15.451847976073623">
        <ele>426.48000000000002</ele>
        <time>2013-09-05T12:05:31Z</time>
      </trkpt>
      <trkpt lat="50.688226958736777" lon="15.45166801661253">
        <ele>426.95999999999998</ele>
        <time>2013-09-05T12:05:32Z</time>
      </trkpt>
      <trkpt lat="50.688341958448291" lon="15.451471963897347">
        <ele>428.39999999999998</ele>
        <time>2013-09-05T12:05:33Z</time>
      </trkpt>
      <trkpt lat="50.688456958159804" lon="15.451244981959462">
        <ele>427.92000000000002</ele>
        <time>2013-09-05T12:05:34Z</time>
      </trkpt>
      <trkpt lat="50.688549997285008" lon="15.451010037213564">
        <ele>428.39999999999998</ele>
        <time>2013-09-05T12:05:35Z</time>
      </trkpt>
      <trkpt lat="50.688627026975155" lon="15.45074600726366">
        <ele>429.85000000000002</ele>
        <time>2013-09-05T12:05:36Z</time>
      </trkpt>
      <trkpt lat="50.688697015866637" lon="15.450490023940802">
        <ele>431.76999999999998</ele>
        <time>2013-09-05T12:05:37Z</time>
      </trkpt>
      <trkpt lat="50.688752001151443" lon="15.450226999819279">
        <ele>434.64999999999998</ele>
        <time>2013-09-05T12:05:38Z</time>
      </trkpt>
      <trkpt lat="50.68881100974977" lon="15.449949977919459">
        <ele>436.57999999999998</ele>
        <time>2013-09-05T12:05:39Z</time>
      </trkpt>
      <trkpt lat="50.689353989437222" lon="15.447401041164994">
        <ele>450.02999999999997</ele>
        <time>2013-09-05T12:05:48Z</time>
      </trkpt>
      <trkpt lat="50.689487010240555" lon="15.446277027949691">
        <ele>455.31999999999999</ele>
        <time>2013-09-05T12:05:52Z</time>
      </trkpt>
      <trkpt lat="50.689587006345391" lon="15.445789033547044">
        <ele>455.80000000000001</ele>
        <time>2013-09-05T12:05:54Z</time>
      </trkpt>
      <trkpt lat="50.689656995236874" lon="15.445569008588791">
        <ele>455.31999999999999</ele>
        <time>2013-09-05T12:05:55Z</time>
      </trkpt>
      <trkpt lat="50.690139960497618" lon="15.444477014243603">
        <ele>458.20999999999998</ele>
        <time>2013-09-05T12:06:00Z</time>
      </trkpt>
      <trkpt lat="50.690274992957711" lon="15.444293031468987">
        <ele>458.69</ele>
        <time>2013-09-05T12:06:01Z</time>
      </trkpt>
      <trkpt lat="50.690429974347353" lon="15.444114999845624">
        <ele>459.17000000000002</ele>
        <time>2013-09-05T12:06:02Z</time>
      </trkpt>
      <trkpt lat="50.691312002018094" lon="15.443158959969878">
        <ele>456.75999999999999</ele>
        <time>2013-09-05T12:06:08Z</time>
      </trkpt>
      <trkpt lat="50.691411998122931" lon="15.442943964153528">
        <ele>456.75999999999999</ele>
        <time>2013-09-05T12:06:09Z</time>
      </trkpt>
      <trkpt lat="50.691483998671174" lon="15.442713964730501">
        <ele>456.27999999999997</ele>
        <time>2013-09-05T12:06:10Z</time>
      </trkpt>
      <trkpt lat="50.691721960902214" lon="15.442017009481788">
        <ele>457.24000000000001</ele>
        <time>2013-09-05T12:06:13Z</time>
      </trkpt>
      <trkpt lat="50.691836960613728" lon="15.441810982301831">
        <ele>457.72000000000003</ele>
        <time>2013-09-05T12:06:14Z</time>
      </trkpt>
      <trkpt lat="50.691967969760299" lon="15.441619958728552">
        <ele>457.72000000000003</ele>
        <time>2013-09-05T12:06:15Z</time>
      </trkpt>
      <trkpt lat="50.692124040797353" lon="15.441448967903852">
        <ele>457.72000000000003</ele>
        <time>2013-09-05T12:06:16Z</time>
      </trkpt>
      <trkpt lat="50.692269969731569" lon="15.441259033977985">
        <ele>457.72000000000003</ele>
        <time>2013-09-05T12:06:17Z</time>
      </trkpt>
      <trkpt lat="50.692903976887465" lon="15.440558977425098">
        <ele>458.69</ele>
        <time>2013-09-05T12:06:21Z</time>
      </trkpt>
      <trkpt lat="50.693068010732532" lon="15.440415982156992">
        <ele>458.69</ele>
        <time>2013-09-05T12:06:22Z</time>
      </trkpt>
      <trkpt lat="50.693565979599953" lon="15.440118005499244">
        <ele>459.17000000000002</ele>
        <time>2013-09-05T12:06:25Z</time>
      </trkpt>
      <trkpt lat="50.693740993738174" lon="15.440119011327624">
        <ele>459.17000000000002</ele>
        <time>2013-09-05T12:06:26Z</time>
      </trkpt>
      <trkpt lat="50.694252038374543" lon="15.44011096470058">
        <ele>459.17000000000002</ele>
        <time>2013-09-05T12:06:29Z</time>
      </trkpt>
      <trkpt lat="50.694416994228959" lon="15.440029995515943">
        <ele>459.17000000000002</ele>
        <time>2013-09-05T12:06:30Z</time>
      </trkpt>
      <trkpt lat="50.69456996396184" lon="15.439903009682894">
        <ele>459.17000000000002</ele>
        <time>2013-09-05T12:06:31Z</time>
      </trkpt>
      <trkpt lat="50.694709019735456" lon="15.439764959737659">
        <ele>459.64999999999998</ele>
        <time>2013-09-05T12:06:32Z</time>
      </trkpt>
      <trkpt lat="50.694850003346801" lon="15.439620036631823">
        <ele>459.64999999999998</ele>
        <time>2013-09-05T12:06:33Z</time>
      </trkpt>
      <trkpt lat="50.695889024063945" lon="15.438307011500001">
        <ele>459.17000000000002</ele>
        <time>2013-09-05T12:06:42Z</time>
      </trkpt>
      <trkpt lat="50.697242030873895" lon="15.436756024137139">
        <ele>461.08999999999997</ele>
        <time>2013-09-05T12:06:54Z</time>
      </trkpt>
      <trkpt lat="50.699137011542916" lon="15.435119960457087">
        <ele>457.72000000000003</ele>
        <time>2013-09-05T12:07:10Z</time>
      </trkpt>
      <trkpt lat="50.699472036212683" lon="15.434732967987657">
        <ele>457.24000000000001</ele>
        <time>2013-09-05T12:07:13Z</time>
      </trkpt>
      <trkpt lat="50.699559040367603" lon="15.434563988819718">
        <ele>456.75999999999999</ele>
        <time>2013-09-05T12:07:14Z</time>
      </trkpt>
      <trkpt lat="50.700289020314813" lon="15.432679988443851">
        <ele>451.48000000000002</ele>
        <time>2013-09-05T12:07:24Z</time>
      </trkpt>
      <trkpt lat="50.700376024469733" lon="15.432508997619152">
        <ele>451.48000000000002</ele>
        <time>2013-09-05T12:07:25Z</time>
      </trkpt>
      <trkpt lat="50.700470991432667" lon="15.432356027886271">
        <ele>451.48000000000002</ele>
        <time>2013-09-05T12:07:26Z</time>
      </trkpt>
      <trkpt lat="50.701141962781549" lon="15.431628981605172">
        <ele>451.95999999999998</ele>
        <time>2013-09-05T12:07:32Z</time>
      </trkpt>
      <trkpt lat="50.701631968840957" lon="15.431312983855605">
        <ele>451.95999999999998</ele>
        <time>2013-09-05T12:07:36Z</time>
      </trkpt>
      <trkpt lat="50.702609969303012" lon="15.430186036974192">
        <ele>450.51999999999998</ele>
        <time>2013-09-05T12:07:45Z</time>
      </trkpt>
      <trkpt lat="50.702692028135061" lon="15.430039018392563">
        <ele>450.51999999999998</ele>
        <time>2013-09-05T12:07:46Z</time>
      </trkpt>
      <trkpt lat="50.702959997579455" lon="15.429514981806278">
        <ele>450.51999999999998</ele>
        <time>2013-09-05T12:07:51Z</time>
      </trkpt>
      <trkpt lat="50.702973995357752" lon="15.429424960166216">
        <ele>450.02999999999997</ele>
        <time>2013-09-05T12:07:52Z</time>
      </trkpt>
      <trkpt lat="50.702977012842894" lon="15.429335022345185">
        <ele>450.02999999999997</ele>
        <time>2013-09-05T12:07:53Z</time>
      </trkpt>
      <trkpt lat="50.702955974265933" lon="15.429249024018645">
        <ele>450.51999999999998</ele>
        <time>2013-09-05T12:07:54Z</time>
      </trkpt>
      <trkpt lat="50.702873999252915" lon="15.429198984056711">
        <ele>451</ele>
        <time>2013-09-05T12:07:55Z</time>
      </trkpt>
      <trkpt lat="50.702791018411517" lon="15.429109968245029">
        <ele>451</ele>
        <time>2013-09-05T12:07:56Z</time>
      </trkpt>
      <trkpt lat="50.702548027038574" lon="15.428718030452728">
        <ele>451.48000000000002</ele>
        <time>2013-09-05T12:07:59Z</time>
      </trkpt>
      <trkpt lat="50.701841013506055" lon="15.42717500589788">
        <ele>453.39999999999998</ele>
        <time>2013-09-05T12:08:09Z</time>
      </trkpt>
      <trkpt lat="50.701620988547802" lon="15.426766974851489">
        <ele>454.83999999999997</ele>
        <time>2013-09-05T12:08:12Z</time>
      </trkpt>
      <trkpt lat="50.701581006869674" lon="15.426629008725286">
        <ele>454.83999999999997</ele>
        <time>2013-09-05T12:08:13Z</time>
      </trkpt>
      <trkpt lat="50.701549993827939" lon="15.426506968215108">
        <ele>455.31999999999999</ele>
        <time>2013-09-05T12:08:14Z</time>
      </trkpt>
      <trkpt lat="50.701526021584868" lon="15.426400015130639">
        <ele>455.31999999999999</ele>
        <time>2013-09-05T12:08:15Z</time>
      </trkpt>
      <trkpt lat="50.701503977179527" lon="15.426331032067537">
        <ele>455.80000000000001</ele>
        <time>2013-09-05T12:08:16Z</time>
      </trkpt>
      <trkpt lat="50.701491991057992" lon="15.426263976842165">
        <ele>455.80000000000001</ele>
        <time>2013-09-05T12:08:17Z</time>
      </trkpt>
      <trkpt lat="50.701471036300063" lon="15.426215026527643">
        <ele>455.80000000000001</ele>
        <time>2013-09-05T12:08:18Z</time>
      </trkpt>
      <trkpt lat="50.70148796774447" lon="15.426119975745678">
        <ele>456.27999999999997</ele>
        <time>2013-09-05T12:08:27Z</time>
      </trkpt>
      <trkpt lat="50.701870014891028" lon="15.42590900324285">
        <ele>583.17999999999995</ele>
        <time>2013-09-05T12:31:30Z</time>
      </trkpt>
      <trkpt lat="50.70140196941793" lon="15.42644795961678">
        <ele>459.17000000000002</ele>
        <time>2013-09-05T12:32:05Z</time>
      </trkpt>
      <trkpt lat="50.70142300799489" lon="15.42642499320209">
        <ele>463.49000000000001</ele>
        <time>2013-09-05T12:32:36Z</time>
      </trkpt>
      <trkpt lat="50.701455026865005" lon="15.426390962675214">
        <ele>464.93000000000001</ele>
        <time>2013-09-05T12:33:40Z</time>
      </trkpt>
      <trkpt lat="50.701471958309412" lon="15.426330026239157">
        <ele>465.42000000000002</ele>
        <time>2013-09-05T12:33:45Z</time>
      </trkpt>
      <trkpt lat="50.701476987451315" lon="15.425990978255868">
        <ele>463.97000000000003</ele>
        <time>2013-09-05T12:33:49Z</time>
      </trkpt>
      <trkpt lat="50.701568014919758" lon="15.424430016428232">
        <ele>464.93000000000001</ele>
        <time>2013-09-05T12:33:55Z</time>
      </trkpt>
      <trkpt lat="50.701599027961493" lon="15.424109995365143">
        <ele>465.42000000000002</ele>
        <time>2013-09-05T12:33:56Z</time>
      </trkpt>
      <trkpt lat="50.701584024354815" lon="15.423728032037616">
        <ele>467.33999999999997</ele>
        <time>2013-09-05T12:33:57Z</time>
      </trkpt>
      <trkpt lat="50.701998006552458" lon="15.422057015821338">
        <ele>469.25999999999999</ele>
        <time>2013-09-05T12:34:03Z</time>
      </trkpt>
      <trkpt lat="50.702139995992184" lon="15.419943016022444">
        <ele>476.47000000000003</ele>
        <time>2013-09-05T12:34:12Z</time>
      </trkpt>
      <trkpt lat="50.702205961570144" lon="15.419575972482562">
        <ele>478.38999999999999</ele>
        <time>2013-09-05T12:34:14Z</time>
      </trkpt>
      <trkpt lat="50.702348034828901" lon="15.41911899112165">
        <ele>481.75999999999999</ele>
        <time>2013-09-05T12:34:17Z</time>
      </trkpt>
      <trkpt lat="50.702419029548764" lon="15.418963003903627">
        <ele>483.19999999999999</ele>
        <time>2013-09-05T12:34:18Z</time>
      </trkpt>
      <trkpt lat="50.702503016218543" lon="15.41879503056407">
        <ele>484.63999999999999</ele>
        <time>2013-09-05T12:34:19Z</time>
      </trkpt>
      <trkpt lat="50.702713988721371" lon="15.418405020609498">
        <ele>487.05000000000001</ele>
        <time>2013-09-05T12:34:21Z</time>
      </trkpt>
      <trkpt lat="50.702846003696322" lon="15.418197987601161">
        <ele>488.00999999999999</ele>
        <time>2013-09-05T12:34:22Z</time>
      </trkpt>
      <trkpt lat="50.702971983700991" lon="15.417944015935063">
        <ele>489.44999999999999</ele>
        <time>2013-09-05T12:34:23Z</time>
      </trkpt>
      <trkpt lat="50.703460983932018" lon="15.41724999435246">
        <ele>492.81</ele>
        <time>2013-09-05T12:34:27Z</time>
      </trkpt>
      <trkpt lat="50.703509012237191" lon="15.417099958285689">
        <ele>494.74000000000001</ele>
        <time>2013-09-05T12:34:28Z</time>
      </trkpt>
      <trkpt lat="50.703497026115656" lon="15.41694900020957">
        <ele>495.69999999999999</ele>
        <time>2013-09-05T12:34:29Z</time>
      </trkpt>
      <trkpt lat="50.703438017517328" lon="15.416779015213251">
        <ele>496.66000000000003</ele>
        <time>2013-09-05T12:34:30Z</time>
      </trkpt>
      <trkpt lat="50.703374985605478" lon="15.416643982753158">
        <ele>497.13999999999999</ele>
        <time>2013-09-05T12:34:31Z</time>
      </trkpt>
      <trkpt lat="50.703266020864248" lon="15.416563013568521">
        <ele>498.10000000000002</ele>
        <time>2013-09-05T12:34:32Z</time>
      </trkpt>
      <trkpt lat="50.703148003667593" lon="15.416536023840308">
        <ele>498.57999999999998</ele>
        <time>2013-09-05T12:34:33Z</time>
      </trkpt>
      <trkpt lat="50.703019006177783" lon="15.416625961661339">
        <ele>499.54000000000002</ele>
        <time>2013-09-05T12:34:34Z</time>
      </trkpt>
      <trkpt lat="50.702885985374451" lon="15.416681030765176">
        <ele>499.54000000000002</ele>
        <time>2013-09-05T12:34:35Z</time>
      </trkpt>
      <trkpt lat="50.702656991779804" lon="15.416757976636291">
        <ele>500.98000000000002</ele>
        <time>2013-09-05T12:34:37Z</time>
      </trkpt>
      <trkpt lat="50.70253998041153" lon="15.416748002171516">
        <ele>501.45999999999998</ele>
        <time>2013-09-05T12:34:38Z</time>
      </trkpt>
      <trkpt lat="50.702445013448596" lon="15.41666803881526">
        <ele>502.43000000000001</ele>
        <time>2013-09-05T12:34:39Z</time>
      </trkpt>
      <trkpt lat="50.702377036213875" lon="15.416543986648321">
        <ele>503.87</ele>
        <time>2013-09-05T12:34:40Z</time>
      </trkpt>
      <trkpt lat="50.702323978766799" lon="15.416392022743821">
        <ele>504.35000000000002</ele>
        <time>2013-09-05T12:34:41Z</time>
      </trkpt>
      <trkpt lat="50.702294977381825" lon="15.416219020262361">
        <ele>504.35000000000002</ele>
        <time>2013-09-05T12:34:42Z</time>
      </trkpt>
      <trkpt lat="50.702262036502361" lon="15.416036965325475">
        <ele>505.31</ele>
        <time>2013-09-05T12:34:43Z</time>
      </trkpt>
      <trkpt lat="50.701943021267653" lon="15.413904022425413">
        <ele>513.48000000000002</ele>
        <time>2013-09-05T12:34:53Z</time>
      </trkpt>
      <trkpt lat="50.701971016824245" lon="15.413692966103554">
        <ele>514.91999999999996</ele>
        <time>2013-09-05T12:34:54Z</time>
      </trkpt>
      <trkpt lat="50.702010998502374" lon="15.413515018299222">
        <ele>515.88</ele>
        <time>2013-09-05T12:34:55Z</time>
      </trkpt>
      <trkpt lat="50.702056009322405" lon="15.413350984454155">
        <ele>516.85000000000002</ele>
        <time>2013-09-05T12:34:56Z</time>
      </trkpt>
      <trkpt lat="50.702118035405874" lon="15.413203965872526">
        <ele>518.28999999999996</ele>
        <time>2013-09-05T12:34:57Z</time>
      </trkpt>
      <trkpt lat="50.70221702568233" lon="15.413092989474535">
        <ele>520.21000000000004</ele>
        <time>2013-09-05T12:34:58Z</time>
      </trkpt>
      <trkpt lat="50.702348034828901" lon="15.412964997813106">
        <ele>521.64999999999998</ele>
        <time>2013-09-05T12:34:59Z</time>
      </trkpt>
      <trkpt lat="50.702482983469963" lon="15.412873970344663">
        <ele>524.05999999999995</ele>
        <time>2013-09-05T12:35:00Z</time>
      </trkpt>
      <trkpt lat="50.703029986470938" lon="15.412399973720312">
        <ele>531.26999999999998</ele>
        <time>2013-09-05T12:35:04Z</time>
      </trkpt>
      <trkpt lat="50.703127970919013" lon="15.412249015644193">
        <ele>532.71000000000004</ele>
        <time>2013-09-05T12:35:05Z</time>
      </trkpt>
      <trkpt lat="50.703218998387456" lon="15.412065032869577">
        <ele>534.14999999999998</ele>
        <time>2013-09-05T12:35:06Z</time>
      </trkpt>
      <trkpt lat="50.703300973400474" lon="15.411839978769422">
        <ele>535.11000000000001</ele>
        <time>2013-09-05T12:35:07Z</time>
      </trkpt>
      <trkpt lat="50.703374985605478" lon="15.411616014316678">
        <ele>537.99000000000001</ele>
        <time>2013-09-05T12:35:08Z</time>
      </trkpt>
      <trkpt lat="50.703393006697297" lon="15.411370005458593">
        <ele>538.96000000000004</ele>
        <time>2013-09-05T12:35:09Z</time>
      </trkpt>
      <trkpt lat="50.703424019739032" lon="15.411140006035566">
        <ele>539.91999999999996</ele>
        <time>2013-09-05T12:35:10Z</time>
      </trkpt>
      <trkpt lat="50.703427037224174" lon="15.410902965813875">
        <ele>540.88</ele>
        <time>2013-09-05T12:35:11Z</time>
      </trkpt>
      <trkpt lat="50.703419996425509" lon="15.410690987482667">
        <ele>541.84000000000003</ele>
        <time>2013-09-05T12:35:12Z</time>
      </trkpt>
      <trkpt lat="50.703373979777098" lon="15.410466017201543">
        <ele>542.79999999999995</ele>
        <time>2013-09-05T12:35:13Z</time>
      </trkpt>
      <trkpt lat="50.703278006985784" lon="15.410275999456644">
        <ele>543.75999999999999</ele>
        <time>2013-09-05T12:35:14Z</time>
      </trkpt>
      <trkpt lat="50.703193014487624" lon="15.41015999391675">
        <ele>545.20000000000005</ele>
        <time>2013-09-05T12:35:15Z</time>
      </trkpt>
      <trkpt lat="50.703073991462588" lon="15.410075001418591">
        <ele>546.16999999999996</ele>
        <time>2013-09-05T12:35:16Z</time>
      </trkpt>
      <trkpt lat="50.702899983152747" lon="15.410125963389874">
        <ele>548.09000000000003</ele>
        <time>2013-09-05T12:35:17Z</time>
      </trkpt>
      <trkpt lat="50.702790012583137" lon="15.410216990858316">
        <ele>549.04999999999995</ele>
        <time>2013-09-05T12:35:18Z</time>
      </trkpt>
      <trkpt lat="50.702679958194494" lon="15.410318998619914">
        <ele>550.49000000000001</ele>
        <time>2013-09-05T12:35:19Z</time>
      </trkpt>
      <trkpt lat="50.702534029260278" lon="15.410466017201543">
        <ele>552.40999999999997</ele>
        <time>2013-09-05T12:35:20Z</time>
      </trkpt>
      <trkpt lat="50.702379969879985" lon="15.41058998554945">
        <ele>556.25999999999999</ele>
        <time>2013-09-05T12:35:21Z</time>
      </trkpt>
      <trkpt lat="50.702234962955117" lon="15.41067598387599">
        <ele>559.13999999999999</ele>
        <time>2013-09-05T12:35:22Z</time>
      </trkpt>
      <trkpt lat="50.702106971293688" lon="15.41071898303926">
        <ele>560.59000000000003</ele>
        <time>2013-09-05T12:35:23Z</time>
      </trkpt>
      <trkpt lat="50.701974034309387" lon="15.410731974989176">
        <ele>562.02999999999997</ele>
        <time>2013-09-05T12:35:24Z</time>
      </trkpt>
      <trkpt lat="50.701847970485687" lon="15.410730969160795">
        <ele>564.90999999999997</ele>
        <time>2013-09-05T12:35:25Z</time>
      </trkpt>
      <trkpt lat="50.701716039329767" lon="15.410689981654286">
        <ele>566.35000000000002</ele>
        <time>2013-09-05T12:35:26Z</time>
      </trkpt>
      <trkpt lat="50.701587041839957" lon="15.410631978884339">
        <ele>568.27999999999997</ele>
        <time>2013-09-05T12:35:27Z</time>
      </trkpt>
      <trkpt lat="50.701476987451315" lon="15.410558972507715">
        <ele>569.24000000000001</ele>
        <time>2013-09-05T12:35:28Z</time>
      </trkpt>
      <trkpt lat="50.7014000415802" lon="15.41046098805964">
        <ele>570.20000000000005</ele>
        <time>2013-09-05T12:35:29Z</time>
      </trkpt>
      <trkpt lat="50.701354024931788" lon="15.410354034975171">
        <ele>571.63999999999999</ele>
        <time>2013-09-05T12:35:30Z</time>
      </trkpt>
      <trkpt lat="50.701340027153492" lon="15.410233000293374">
        <ele>572.12</ele>
        <time>2013-09-05T12:35:31Z</time>
      </trkpt>
      <trkpt lat="50.701342038810253" lon="15.410063015297055">
        <ele>573.08000000000004</ele>
        <time>2013-09-05T12:35:32Z</time>
      </trkpt>
      <trkpt lat="50.701347989961505" lon="15.409866962581873">
        <ele>573.55999999999995</ele>
        <time>2013-09-05T12:35:33Z</time>
      </trkpt>
      <trkpt lat="50.701370034366846" lon="15.409684991464019">
        <ele>573.08000000000004</ele>
        <time>2013-09-05T12:35:34Z</time>
      </trkpt>
      <trkpt lat="50.701438011601567" lon="15.409508971497416">
        <ele>570.20000000000005</ele>
        <time>2013-09-05T12:35:35Z</time>
      </trkpt>
      <trkpt lat="50.701513029634953" lon="15.409309985116124">
        <ele>568.27999999999997</ele>
        <time>2013-09-05T12:35:36Z</time>
      </trkpt>
      <trkpt lat="50.701578995212913" lon="15.409102030098438">
        <ele>568.75999999999999</ele>
        <time>2013-09-05T12:35:37Z</time>
      </trkpt>
      <trkpt lat="50.701664993539453" lon="15.408896002918482">
        <ele>569.72000000000003</ele>
        <time>2013-09-05T12:35:38Z</time>
      </trkpt>
      <trkpt lat="50.701965987682343" lon="15.408158982172608">
        <ele>572.12</ele>
        <time>2013-09-05T12:35:42Z</time>
      </trkpt>
      <trkpt lat="50.702653974294662" lon="15.406952993944287">
        <ele>575.49000000000001</ele>
        <time>2013-09-05T12:35:50Z</time>
      </trkpt>
      <trkpt lat="50.703637003898621" lon="15.405588001012802">
        <ele>577.40999999999997</ele>
        <time>2013-09-05T12:35:59Z</time>
      </trkpt>
      <trkpt lat="50.703731970861554" lon="15.405426984652877">
        <ele>577.40999999999997</ele>
        <time>2013-09-05T12:36:00Z</time>
      </trkpt>
      <trkpt lat="50.703830039128661" lon="15.40523998439312">
        <ele>577.40999999999997</ele>
        <time>2013-09-05T12:36:01Z</time>
      </trkpt>
      <trkpt lat="50.704385004937649" lon="15.404130974784493">
        <ele>580.28999999999996</ele>
        <time>2013-09-05T12:36:07Z</time>
      </trkpt>
      <trkpt lat="50.704507967457175" lon="15.403797039762139">
        <ele>580.28999999999996</ele>
        <time>2013-09-05T12:36:09Z</time>
      </trkpt>
      <trkpt lat="50.704545015469193" lon="15.403639962896705">
        <ele>580.28999999999996</ele>
        <time>2013-09-05T12:36:10Z</time>
      </trkpt>
      <trkpt lat="50.704555995762348" lon="15.403474001213908">
        <ele>579.80999999999995</ele>
        <time>2013-09-05T12:36:11Z</time>
      </trkpt>
      <trkpt lat="50.704550966620445" lon="15.403325976803899">
        <ele>580.28999999999996</ele>
        <time>2013-09-05T12:36:12Z</time>
      </trkpt>
      <trkpt lat="50.704509979113936" lon="15.403172001242638">
        <ele>580.28999999999996</ele>
        <time>2013-09-05T12:36:13Z</time>
      </trkpt>
      <trkpt lat="50.704453988000751" lon="15.403028000146151">
        <ele>577.88999999999999</ele>
        <time>2013-09-05T12:36:14Z</time>
      </trkpt>
      <trkpt lat="50.704362960532308" lon="15.402926998212934">
        <ele>577.40999999999997</ele>
        <time>2013-09-05T12:36:15Z</time>
      </trkpt>
      <trkpt lat="50.70423798635602" lon="15.402868995442986">
        <ele>576.92999999999995</ele>
        <time>2013-09-05T12:36:16Z</time>
      </trkpt>
      <trkpt lat="50.704112006351352" lon="15.402840999886394">
        <ele>576.92999999999995</ele>
        <time>2013-09-05T12:36:17Z</time>
      </trkpt>
      <trkpt lat="50.703973034396768" lon="15.402814010158181">
        <ele>577.40999999999997</ele>
        <time>2013-09-05T12:36:18Z</time>
      </trkpt>
      <trkpt lat="50.703829033300281" lon="15.40278903208673">
        <ele>577.40999999999997</ele>
        <time>2013-09-05T12:36:19Z</time>
      </trkpt>
      <trkpt lat="50.703685032203794" lon="15.402807975187898">
        <ele>577.88999999999999</ele>
        <time>2013-09-05T12:36:20Z</time>
      </trkpt>
      <trkpt lat="50.703531978651881" lon="15.402849968522787">
        <ele>577.88999999999999</ele>
        <time>2013-09-05T12:36:21Z</time>
      </trkpt>
      <trkpt lat="50.703383032232523" lon="15.402910988777876">
        <ele>577.88999999999999</ele>
        <time>2013-09-05T12:36:22Z</time>
      </trkpt>
      <trkpt lat="50.703230984508991" lon="15.402990030124784">
        <ele>577.88999999999999</ele>
        <time>2013-09-05T12:36:23Z</time>
      </trkpt>
      <trkpt lat="50.703068040311337" lon="15.403063958510756">
        <ele>575.49000000000001</ele>
        <time>2013-09-05T12:36:24Z</time>
      </trkpt>
      <trkpt lat="50.70225901901722" lon="15.403500990942121">
        <ele>575.49000000000001</ele>
        <time>2013-09-05T12:36:29Z</time>
      </trkpt>
      <trkpt lat="50.702124992385507" lon="15.40352001786232">
        <ele>575.49000000000001</ele>
        <time>2013-09-05T12:36:30Z</time>
      </trkpt>
      <trkpt lat="50.701989959925413" lon="15.403529992327094">
        <ele>576.92999999999995</ele>
        <time>2013-09-05T12:36:31Z</time>
      </trkpt>
      <trkpt lat="50.701866997405887" lon="15.403479030355811">
        <ele>577.88999999999999</ele>
        <time>2013-09-05T12:36:32Z</time>
      </trkpt>
      <trkpt lat="50.701773958280683" lon="15.403403006494045">
        <ele>578.85000000000002</ele>
        <time>2013-09-05T12:36:33Z</time>
      </trkpt>
      <trkpt lat="50.701725007966161" lon="15.403294963762164">
        <ele>579.33000000000004</ele>
        <time>2013-09-05T12:36:34Z</time>
      </trkpt>
      <trkpt lat="50.70170296356082" lon="15.403160015121102">
        <ele>579.33000000000004</ele>
        <time>2013-09-05T12:36:35Z</time>
      </trkpt>
      <trkpt lat="50.701710004359484" lon="15.402997992932796">
        <ele>578.85000000000002</ele>
        <time>2013-09-05T12:36:36Z</time>
      </trkpt>
      <trkpt lat="50.701748980209231" lon="15.402830019593239">
        <ele>578.37</ele>
        <time>2013-09-05T12:36:37Z</time>
      </trkpt>
      <trkpt lat="50.701803965494037" lon="15.402650982141495">
        <ele>577.88999999999999</ele>
        <time>2013-09-05T12:36:38Z</time>
      </trkpt>
      <trkpt lat="50.701876971870661" lon="15.402478985488415">
        <ele>578.37</ele>
        <time>2013-09-05T12:36:39Z</time>
      </trkpt>
      <trkpt lat="50.701975040137768" lon="15.402310006320477">
        <ele>578.37</ele>
        <time>2013-09-05T12:36:40Z</time>
      </trkpt>
      <trkpt lat="50.702075958251953" lon="15.402134992182255">
        <ele>577.40999999999997</ele>
        <time>2013-09-05T12:36:41Z</time>
      </trkpt>
      <trkpt lat="50.703076003119349" lon="15.400400022044778">
        <ele>575.97000000000003</ele>
        <time>2013-09-05T12:36:50Z</time>
      </trkpt>
      <trkpt lat="50.704035982489586" lon="15.398448966443539">
        <ele>581.73000000000002</ele>
        <time>2013-09-05T12:37:00Z</time>
      </trkpt>
      <trkpt lat="50.704584997147322" lon="15.397245995700359">
        <ele>586.05999999999995</ele>
        <time>2013-09-05T12:37:07Z</time>
      </trkpt>
      <trkpt lat="50.704613998532295" lon="15.39709503762424">
        <ele>587.98000000000002</ele>
        <time>2013-09-05T12:37:08Z</time>
      </trkpt>
      <trkpt lat="50.704616010189056" lon="15.396948019042611">
        <ele>588.46000000000004</ele>
        <time>2013-09-05T12:37:09Z</time>
      </trkpt>
      <trkpt lat="50.704574016854167" lon="15.396804017946124">
        <ele>587.01999999999998</ele>
        <time>2013-09-05T12:37:10Z</time>
      </trkpt>
      <trkpt lat="50.704511990770698" lon="15.39666797965765">
        <ele>587.5</ele>
        <time>2013-09-05T12:37:11Z</time>
      </trkpt>
      <trkpt lat="50.704425992444158" lon="15.39653898216784">
        <ele>587.01999999999998</ele>
        <time>2013-09-05T12:37:12Z</time>
      </trkpt>
      <trkpt lat="50.704331025481224" lon="15.396420964971185">
        <ele>588.95000000000005</ele>
        <time>2013-09-05T12:37:13Z</time>
      </trkpt>
      <trkpt lat="50.703774970024824" lon="15.395731972530484">
        <ele>594.71000000000004</ele>
        <time>2013-09-05T12:37:19Z</time>
      </trkpt>
      <trkpt lat="50.703725013881922" lon="15.395624013617635">
        <ele>596.63999999999999</ele>
        <time>2013-09-05T12:37:20Z</time>
      </trkpt>
      <trkpt lat="50.703720990568399" lon="15.395521000027657">
        <ele>596.14999999999998</ele>
        <time>2013-09-05T12:37:21Z</time>
      </trkpt>
      <trkpt lat="50.703740017488599" lon="15.395398959517479">
        <ele>595.66999999999996</ele>
        <time>2013-09-05T12:37:22Z</time>
      </trkpt>
      <trkpt lat="50.703776981681585" lon="15.395273985341191">
        <ele>595.19000000000005</ele>
        <time>2013-09-05T12:37:23Z</time>
      </trkpt>
      <trkpt lat="50.703824004158378" lon="15.395146999508142">
        <ele>596.14999999999998</ele>
        <time>2013-09-05T12:37:24Z</time>
      </trkpt>
      <trkpt lat="50.703887036070228" lon="15.395018002018332">
        <ele>597.60000000000002</ele>
        <time>2013-09-05T12:37:25Z</time>
      </trkpt>
      <trkpt lat="50.704655991867185" lon="15.393555024638772">
        <ele>604.80999999999995</ele>
        <time>2013-09-05T12:37:34Z</time>
      </trkpt>
      <trkpt lat="50.705159995704889" lon="15.392827978357673">
        <ele>610.09000000000003</ele>
        <time>2013-09-05T12:37:39Z</time>
      </trkpt>
      <trkpt lat="50.705217998474836" lon="15.39264902472496">
        <ele>611.53999999999996</ele>
        <time>2013-09-05T12:37:40Z</time>
      </trkpt>
      <trkpt lat="50.705250017344952" lon="15.392459006980062">
        <ele>613.46000000000004</ele>
        <time>2013-09-05T12:37:41Z</time>
      </trkpt>
      <trkpt lat="50.705254040658474" lon="15.392252979800105">
        <ele>614.41999999999996</ele>
        <time>2013-09-05T12:37:42Z</time>
      </trkpt>
      <trkpt lat="50.705245994031429" lon="15.392042007297277">
        <ele>615.86000000000001</ele>
        <time>2013-09-05T12:37:43Z</time>
      </trkpt>
      <trkpt lat="50.705237025395036" lon="15.391832962632179">
        <ele>617.29999999999995</ele>
        <time>2013-09-05T12:37:44Z</time>
      </trkpt>
      <trkpt lat="50.705214980989695" lon="15.391616960987449">
        <ele>618.75</ele>
        <time>2013-09-05T12:37:45Z</time>
      </trkpt>
      <trkpt lat="50.705168964341283" lon="15.391213959082961">
        <ele>621.14999999999998</ele>
        <time>2013-09-05T12:37:47Z</time>
      </trkpt>
      <trkpt lat="50.705124959349632" lon="15.391011033207178">
        <ele>621.63</ele>
        <time>2013-09-05T12:37:48Z</time>
      </trkpt>
      <trkpt lat="50.704593965783715" lon="15.388940032571554">
        <ele>635.57000000000005</ele>
        <time>2013-09-05T12:37:59Z</time>
      </trkpt>
      <trkpt lat="50.704274028539658" lon="15.387780983000994">
        <ele>637.00999999999999</ele>
        <time>2013-09-05T12:38:05Z</time>
      </trkpt>
      <trkpt lat="50.704195993021131" lon="15.387618038803339">
        <ele>637.00999999999999</ele>
        <time>2013-09-05T12:38:06Z</time>
      </trkpt>
      <trkpt lat="50.704099014401436" lon="15.387475965544581">
        <ele>637.97000000000003</ele>
        <time>2013-09-05T12:38:07Z</time>
      </trkpt>
      <trkpt lat="50.703992983326316" lon="15.387346968054771">
        <ele>637.97000000000003</ele>
        <time>2013-09-05T12:38:08Z</time>
      </trkpt>
      <trkpt lat="50.703879995271564" lon="15.38723599165678">
        <ele>638.92999999999995</ele>
        <time>2013-09-05T12:38:09Z</time>
      </trkpt>
      <trkpt lat="50.703079020604491" lon="15.386339966207743">
        <ele>640.38</ele>
        <time>2013-09-05T12:38:18Z</time>
      </trkpt>
      <trkpt lat="50.703004002571106" lon="15.38624600507319">
        <ele>642.29999999999995</ele>
        <time>2013-09-05T12:38:20Z</time>
      </trkpt>
      <trkpt lat="50.703024035319686" lon="15.3862230386585">
        <ele>637.49000000000001</ele>
        <time>2013-09-05T12:38:21Z</time>
      </trkpt>
      <trkpt lat="50.703031998127699" lon="15.38618397898972">
        <ele>637.97000000000003</ele>
        <time>2013-09-05T12:38:22Z</time>
      </trkpt>
      <trkpt lat="50.703059993684292" lon="15.386126982048154">
        <ele>637.49000000000001</ele>
        <time>2013-09-05T12:38:23Z</time>
      </trkpt>
      <trkpt lat="50.703103998675942" lon="15.386080965399742">
        <ele>637.49000000000001</ele>
        <time>2013-09-05T12:38:24Z</time>
      </trkpt>
      <trkpt lat="50.703177005052567" lon="15.386047018691897">
        <ele>636.52999999999997</ele>
        <time>2013-09-05T12:38:25Z</time>
      </trkpt>
      <trkpt lat="50.703256968408823" lon="15.385996978729963">
        <ele>635.57000000000005</ele>
        <time>2013-09-05T12:38:26Z</time>
      </trkpt>
      <trkpt lat="50.703426031395793" lon="15.385864963755012">
        <ele>637.00999999999999</ele>
        <time>2013-09-05T12:38:28Z</time>
      </trkpt>
      <trkpt lat="50.703523010015488" lon="15.385769996792078">
        <ele>637.49000000000001</ele>
        <time>2013-09-05T12:38:29Z</time>
      </trkpt>
      <trkpt lat="50.703625017777085" lon="15.385648040100932">
        <ele>638.45000000000005</ele>
        <time>2013-09-05T12:38:30Z</time>
      </trkpt>
      <trkpt lat="50.703729037195444" lon="15.385488029569387">
        <ele>637.00999999999999</ele>
        <time>2013-09-05T12:38:31Z</time>
      </trkpt>
      <trkpt lat="50.7038280274719" lon="15.385317960754037">
        <ele>637.49000000000001</ele>
        <time>2013-09-05T12:38:32Z</time>
      </trkpt>
      <trkpt lat="50.703919976949692" lon="15.38515099324286">
        <ele>636.52999999999997</ele>
        <time>2013-09-05T12:38:33Z</time>
      </trkpt>
      <trkpt lat="50.704705026000738" lon="15.383704025298357">
        <ele>642.77999999999997</ele>
        <time>2013-09-05T12:38:41Z</time>
      </trkpt>
      <trkpt lat="50.704823965206742" lon="15.383592965081334">
        <ele>642.77999999999997</ele>
        <time>2013-09-05T12:38:42Z</time>
      </trkpt>
      <trkpt lat="50.704948017373681" lon="15.383520964533091">
        <ele>643.25999999999999</ele>
        <time>2013-09-05T12:38:43Z</time>
      </trkpt>
      <trkpt lat="50.705080032348633" lon="15.383486011996865">
        <ele>643.25999999999999</ele>
        <time>2013-09-05T12:38:44Z</time>
      </trkpt>
      <trkpt lat="50.705230990424752" lon="15.383457010611892">
        <ele>641.82000000000005</ele>
        <time>2013-09-05T12:38:45Z</time>
      </trkpt>
      <trkpt lat="50.705377003178" lon="15.383450975641608">
        <ele>642.29999999999995</ele>
        <time>2013-09-05T12:38:46Z</time>
      </trkpt>
      <trkpt lat="50.705530978739262" lon="15.383416023105383">
        <ele>642.29999999999995</ele>
        <time>2013-09-05T12:38:47Z</time>
      </trkpt>
      <trkpt lat="50.705695012584329" lon="15.383318960666656">
        <ele>640.86000000000001</ele>
        <time>2013-09-05T12:38:48Z</time>
      </trkpt>
      <trkpt lat="50.705844964832067" lon="15.383211001753807">
        <ele>640.38</ele>
        <time>2013-09-05T12:38:49Z</time>
      </trkpt>
      <trkpt lat="50.70599801838398" lon="15.3830870334059">
        <ele>640.38</ele>
        <time>2013-09-05T12:38:50Z</time>
      </trkpt>
      <trkpt lat="50.706145958974957" lon="15.382942026481032">
        <ele>640.38</ele>
        <time>2013-09-05T12:38:51Z</time>
      </trkpt>
      <trkpt lat="50.707501983270049" lon="15.381321972236037">
        <ele>640.38</ele>
        <time>2013-09-05T12:39:01Z</time>
      </trkpt>
      <trkpt lat="50.70846900343895" lon="15.379765033721924">
        <ele>649.99000000000001</ele>
        <time>2013-09-05T12:39:09Z</time>
      </trkpt>
      <trkpt lat="50.708549972623587" lon="15.379569986835122">
        <ele>650.95000000000005</ele>
        <time>2013-09-05T12:39:10Z</time>
      </trkpt>
      <trkpt lat="50.708613004535437" lon="15.379381980746984">
        <ele>651.90999999999997</ele>
        <time>2013-09-05T12:39:11Z</time>
      </trkpt>
      <trkpt lat="50.708763040602207" lon="15.378871019929647">
        <ele>654.79999999999995</ele>
        <time>2013-09-05T12:39:14Z</time>
      </trkpt>
      <trkpt lat="50.708892038092017" lon="15.378603972494602">
        <ele>657.20000000000005</ele>
        <time>2013-09-05T12:39:16Z</time>
      </trkpt>
      <trkpt lat="50.70904903113842" lon="15.37849199026823">
        <ele>659.12</ele>
        <time>2013-09-05T12:39:18Z</time>
      </trkpt>
      <trkpt lat="50.70918096229434" lon="15.378580000251532">
        <ele>660.08000000000004</ele>
        <time>2013-09-05T12:39:19Z</time>
      </trkpt>
      <trkpt lat="50.709280958399177" lon="15.378682008013129">
        <ele>661.03999999999996</ele>
        <time>2013-09-05T12:39:20Z</time>
      </trkpt>
      <trkpt lat="50.709368968382478" lon="15.3788130171597">
        <ele>662.00999999999999</ele>
        <time>2013-09-05T12:39:21Z</time>
      </trkpt>
      <trkpt lat="50.709455972537398" lon="15.378961963579059">
        <ele>662.97000000000003</ele>
        <time>2013-09-05T12:39:22Z</time>
      </trkpt>
      <trkpt lat="50.709566026926041" lon="15.379153992980719">
        <ele>663.45000000000005</ele>
        <time>2013-09-05T12:39:23Z</time>
      </trkpt>
      <trkpt lat="50.710040023550391" lon="15.380137022584677">
        <ele>665.37</ele>
        <time>2013-09-05T12:39:27Z</time>
      </trkpt>
      <trkpt lat="50.710963038727641" lon="15.381783982738853">
        <ele>670.17999999999995</ele>
        <time>2013-09-05T12:39:36Z</time>
      </trkpt>
      <trkpt lat="50.711941961199045" lon="15.382511029019952">
        <ele>674.98000000000002</ele>
        <time>2013-09-05T12:39:44Z</time>
      </trkpt>
      <trkpt lat="50.712182018905878" lon="15.382561990991235">
        <ele>675.46000000000004</ele>
        <time>2013-09-05T12:39:46Z</time>
      </trkpt>
      <trkpt lat="50.712302969768643" lon="15.382547993212938">
        <ele>674.98000000000002</ele>
        <time>2013-09-05T12:39:47Z</time>
      </trkpt>
      <trkpt lat="50.712421992793679" lon="15.382522009313107">
        <ele>674.5</ele>
        <time>2013-09-05T12:39:48Z</time>
      </trkpt>
      <trkpt lat="50.712517965584993" lon="15.382475992664695">
        <ele>674.01999999999998</ele>
        <time>2013-09-05T12:39:49Z</time>
      </trkpt>
      <trkpt lat="50.712603041902184" lon="15.382442967966199">
        <ele>674.01999999999998</ele>
        <time>2013-09-05T12:39:50Z</time>
      </trkpt>
      <trkpt lat="50.712727010250092" lon="15.382445985451341">
        <ele>673.53999999999996</ele>
        <time>2013-09-05T12:39:52Z</time>
      </trkpt>
      <trkpt lat="50.712778978049755" lon="15.382484039291739">
        <ele>673.53999999999996</ele>
        <time>2013-09-05T12:39:53Z</time>
      </trkpt>
      <trkpt lat="50.712829018011689" lon="15.382565008476377">
        <ele>673.05999999999995</ele>
        <time>2013-09-05T12:39:54Z</time>
      </trkpt>
      <trkpt lat="50.712881991639733" lon="15.382685037329793">
        <ele>673.53999999999996</ele>
        <time>2013-09-05T12:39:55Z</time>
      </trkpt>
      <trkpt lat="50.712919039651752" lon="15.382834989577532">
        <ele>672.10000000000002</ele>
        <time>2013-09-05T12:39:56Z</time>
      </trkpt>
      <trkpt lat="50.712951980531216" lon="15.383013021200895">
        <ele>671.13999999999999</ele>
        <time>2013-09-05T12:39:57Z</time>
      </trkpt>
      <trkpt lat="50.713077038526535" lon="15.383505960926414">
        <ele>666.80999999999995</ele>
        <time>2013-09-05T12:40:00Z</time>
      </trkpt>
      <trkpt lat="50.713143004104495" lon="15.383654991164804">
        <ele>665.85000000000002</ele>
        <time>2013-09-05T12:40:01Z</time>
      </trkpt>
      <trkpt lat="50.713227996602654" lon="15.383808966726065">
        <ele>665.85000000000002</ele>
        <time>2013-09-05T12:40:02Z</time>
      </trkpt>
      <trkpt lat="50.713330004364252" lon="15.383957996964455">
        <ele>664.40999999999997</ele>
        <time>2013-09-05T12:40:03Z</time>
      </trkpt>
      <trkpt lat="50.71343201212585" lon="15.384092023596168">
        <ele>663.92999999999995</ele>
        <time>2013-09-05T12:40:04Z</time>
      </trkpt>
      <trkpt lat="50.713745998218656" lon="15.384388994425535">
        <ele>659.12</ele>
        <time>2013-09-05T12:40:07Z</time>
      </trkpt>
      <trkpt lat="50.713859992101789" lon="15.384430987760425">
        <ele>658.63999999999999</ele>
        <time>2013-09-05T12:40:08Z</time>
      </trkpt>
      <trkpt lat="50.713975997641683" lon="15.384432999417186">
        <ele>657.67999999999995</ele>
        <time>2013-09-05T12:40:09Z</time>
      </trkpt>
      <trkpt lat="50.714108012616634" lon="15.384409027174115">
        <ele>656.72000000000003</ele>
        <time>2013-09-05T12:40:10Z</time>
      </trkpt>
      <trkpt lat="50.714243967086077" lon="15.384371979162097">
        <ele>655.27999999999997</ele>
        <time>2013-09-05T12:40:11Z</time>
      </trkpt>
      <trkpt lat="50.714659038931131" lon="15.384295033290982">
        <ele>652.87</ele>
        <time>2013-09-05T12:40:14Z</time>
      </trkpt>
      <trkpt lat="50.714790970087051" lon="15.384308025240898">
        <ele>651.90999999999997</ele>
        <time>2013-09-05T12:40:15Z</time>
      </trkpt>
      <trkpt lat="50.714908987283707" lon="15.384377008304">
        <ele>651.42999999999995</ele>
        <time>2013-09-05T12:40:16Z</time>
      </trkpt>
      <trkpt lat="50.715012000873685" lon="15.384492008015513">
        <ele>650.95000000000005</ele>
        <time>2013-09-05T12:40:17Z</time>
      </trkpt>
      <trkpt lat="50.715105039998889" lon="15.384625028818846">
        <ele>650.95000000000005</ele>
        <time>2013-09-05T12:40:18Z</time>
      </trkpt>
      <trkpt lat="50.715180980041623" lon="15.384770035743713">
        <ele>650.47000000000003</ele>
        <time>2013-09-05T12:40:19Z</time>
      </trkpt>
      <trkpt lat="50.715260021388531" lon="15.384914958849549">
        <ele>649.99000000000001</ele>
        <time>2013-09-05T12:40:20Z</time>
      </trkpt>
      <trkpt lat="50.715562021359801" lon="15.385404964908957">
        <ele>647.59000000000003</ele>
        <time>2013-09-05T12:40:24Z</time>
      </trkpt>
      <trkpt lat="50.715670986101031" lon="15.385440001264215">
        <ele>647.10000000000002</ele>
        <time>2013-09-05T12:40:25Z</time>
      </trkpt>
      <trkpt lat="50.715792020782828" lon="15.385443018749356">
        <ele>645.65999999999997</ele>
        <time>2013-09-05T12:40:26Z</time>
      </trkpt>
      <trkpt lat="50.715915989130735" lon="15.385419968515635">
        <ele>644.70000000000005</ele>
        <time>2013-09-05T12:40:27Z</time>
      </trkpt>
      <trkpt lat="50.716041969135404" lon="15.385364983230829">
        <ele>644.22000000000003</ele>
        <time>2013-09-05T12:40:28Z</time>
      </trkpt>
      <trkpt lat="50.716155963018537" lon="15.385317960754037">
        <ele>643.74000000000001</ele>
        <time>2013-09-05T12:40:29Z</time>
      </trkpt>
      <trkpt lat="50.71627096273005" lon="15.3852369915694">
        <ele>642.29999999999995</ele>
        <time>2013-09-05T12:40:30Z</time>
      </trkpt>
      <trkpt lat="50.716385962441564" lon="15.385147975757718">
        <ele>641.34000000000003</ele>
        <time>2013-09-05T12:40:31Z</time>
      </trkpt>
      <trkpt lat="50.716495011001825" lon="15.385050997138023">
        <ele>640.38</ele>
        <time>2013-09-05T12:40:32Z</time>
      </trkpt>
      <trkpt lat="50.716596012935042" lon="15.384934991598129">
        <ele>639.88999999999999</ele>
        <time>2013-09-05T12:40:33Z</time>
      </trkpt>
      <trkpt lat="50.71669802069664" lon="15.384804988279939">
        <ele>638.45000000000005</ele>
        <time>2013-09-05T12:40:34Z</time>
      </trkpt>
      <trkpt lat="50.716980993747711" lon="15.384465018287301">
        <ele>636.04999999999995</ele>
        <time>2013-09-05T12:40:37Z</time>
      </trkpt>
      <trkpt lat="50.717076966539025" lon="15.384401986375451">
        <ele>635.57000000000005</ele>
        <time>2013-09-05T12:40:38Z</time>
      </trkpt>
      <trkpt lat="50.717167994007468" lon="15.384367033839226">
        <ele>634.61000000000001</ele>
        <time>2013-09-05T12:40:39Z</time>
      </trkpt>
      <trkpt lat="50.717245023697615" lon="15.384366028010845">
        <ele>633.64999999999998</ele>
        <time>2013-09-05T12:40:40Z</time>
      </trkpt>
      <trkpt lat="50.717308977618814" lon="15.384398968890309">
        <ele>632.67999999999995</ele>
        <time>2013-09-05T12:40:41Z</time>
      </trkpt>
      <trkpt lat="50.717360023409128" lon="15.384472981095314">
        <ele>632.20000000000005</ele>
        <time>2013-09-05T12:40:42Z</time>
      </trkpt>
      <trkpt lat="50.717412997037172" lon="15.384586974978447">
        <ele>631.24000000000001</ele>
        <time>2013-09-05T12:40:43Z</time>
      </trkpt>
      <trkpt lat="50.717464964836836" lon="15.384729970246553">
        <ele>630.75999999999999</ele>
        <time>2013-09-05T12:40:44Z</time>
      </trkpt>
      <trkpt lat="50.717517016455531" lon="15.384909007698298">
        <ele>629.79999999999995</ele>
        <time>2013-09-05T12:40:45Z</time>
      </trkpt>
      <trkpt lat="50.71758097037673" lon="15.385113023221493">
        <ele>629.32000000000005</ele>
        <time>2013-09-05T12:40:46Z</time>
      </trkpt>
      <trkpt lat="50.717939967289567" lon="15.386142991483212">
        <ele>626.44000000000005</ele>
        <time>2013-09-05T12:40:52Z</time>
      </trkpt>
      <trkpt lat="50.717973997816443" lon="15.386336026713252">
        <ele>626.44000000000005</ele>
        <time>2013-09-05T12:40:53Z</time>
      </trkpt>
      <trkpt lat="50.718125039711595" lon="15.38678202778101">
        <ele>626.44000000000005</ele>
        <time>2013-09-05T12:40:56Z</time>
      </trkpt>
      <trkpt lat="50.718553019687533" lon="15.387781988829374">
        <ele>627.39999999999998</ele>
        <time>2013-09-05T12:41:02Z</time>
      </trkpt>
      <trkpt lat="50.718597024679184" lon="15.387979969382286">
        <ele>627.39999999999998</ele>
        <time>2013-09-05T12:41:03Z</time>
      </trkpt>
      <trkpt lat="50.718652009963989" lon="15.38824500516057">
        <ele>628.36000000000001</ele>
        <time>2013-09-05T12:41:04Z</time>
      </trkpt>
      <trkpt lat="50.718744965270162" lon="15.388719001784921">
        <ele>624.99000000000001</ele>
        <time>2013-09-05T12:41:07Z</time>
      </trkpt>
      <trkpt lat="50.718812020495534" lon="15.388807011768222">
        <ele>623.54999999999995</ele>
        <time>2013-09-05T12:41:08Z</time>
      </trkpt>
      <trkpt lat="50.718887038528919" lon="15.38884598761797">
        <ele>622.59000000000003</ele>
        <time>2013-09-05T12:41:09Z</time>
      </trkpt>
      <trkpt lat="50.718973036855459" lon="15.388869037851691">
        <ele>621.63</ele>
        <time>2013-09-05T12:41:10Z</time>
      </trkpt>
      <trkpt lat="50.719073032960296" lon="15.388855962082744">
        <ele>621.14999999999998</ele>
        <time>2013-09-05T12:41:11Z</time>
      </trkpt>
      <trkpt lat="50.719179986044765" lon="15.388820003718138">
        <ele>620.19000000000005</ele>
        <time>2013-09-05T12:41:12Z</time>
      </trkpt>
      <trkpt lat="50.719401016831398" lon="15.388808017596602">
        <ele>618.75</ele>
        <time>2013-09-05T12:41:14Z</time>
      </trkpt>
      <trkpt lat="50.720444982871413" lon="15.389230968430638">
        <ele>612.5</ele>
        <time>2013-09-05T12:41:22Z</time>
      </trkpt>
      <trkpt lat="50.720947980880737" lon="15.38951201364398">
        <ele>611.05999999999995</ele>
        <time>2013-09-05T12:41:27Z</time>
      </trkpt>
      <trkpt lat="50.721042025834322" lon="15.389583008363843">
        <ele>611.05999999999995</ele>
        <time>2013-09-05T12:41:28Z</time>
      </trkpt>
      <trkpt lat="50.721116960048676" lon="15.389666995033622">
        <ele>610.57000000000005</ele>
        <time>2013-09-05T12:41:29Z</time>
      </trkpt>
      <trkpt lat="50.721183009445667" lon="15.389783000573516">
        <ele>610.09000000000003</ele>
        <time>2013-09-05T12:41:30Z</time>
      </trkpt>
      <trkpt lat="50.721242018043995" lon="15.389898000285029">
        <ele>609.61000000000001</ele>
        <time>2013-09-05T12:41:31Z</time>
      </trkpt>
      <trkpt lat="50.721292980015278" lon="15.390024986118078">
        <ele>609.13</ele>
        <time>2013-09-05T12:41:32Z</time>
      </trkpt>
      <trkpt lat="50.721342014148831" lon="15.390149960294366">
        <ele>609.13</ele>
        <time>2013-09-05T12:41:33Z</time>
      </trkpt>
      <trkpt lat="50.721388030797243" lon="15.390274012461305">
        <ele>610.09000000000003</ele>
        <time>2013-09-05T12:41:34Z</time>
      </trkpt>
      <trkpt lat="50.721391970291734" lon="15.390369985252619">
        <ele>608.64999999999998</ele>
        <time>2013-09-05T12:41:35Z</time>
      </trkpt>
      <trkpt lat="50.721376966685057" lon="15.390518009662628">
        <ele>608.64999999999998</ele>
        <time>2013-09-05T12:41:36Z</time>
      </trkpt>
      <trkpt lat="50.721334973350167" lon="15.390682965517044">
        <ele>608.16999999999996</ele>
        <time>2013-09-05T12:41:37Z</time>
      </trkpt>
      <trkpt lat="50.721279988065362" lon="15.390846999362111">
        <ele>606.73000000000002</ele>
        <time>2013-09-05T12:41:38Z</time>
      </trkpt>
      <trkpt lat="50.72120999917388" lon="15.391013966873288">
        <ele>606.73000000000002</ele>
        <time>2013-09-05T12:41:39Z</time>
      </trkpt>
      <trkpt lat="50.720461998134851" lon="15.392266977578402">
        <ele>598.08000000000004</ele>
        <time>2013-09-05T12:41:47Z</time>
      </trkpt>
      <trkpt lat="50.719475029036403" lon="15.393140958622098">
        <ele>595.66999999999996</ele>
        <time>2013-09-05T12:41:55Z</time>
      </trkpt>
      <trkpt lat="50.719362962990999" lon="15.393274985253811">
        <ele>595.66999999999996</ele>
        <time>2013-09-05T12:41:56Z</time>
      </trkpt>
      <trkpt lat="50.718475989997387" lon="15.394587004557252">
        <ele>586.53999999999996</ele>
        <time>2013-09-05T12:42:05Z</time>
      </trkpt>
      <trkpt lat="50.718412036076188" lon="15.39477601647377">
        <ele>585.10000000000002</ele>
        <time>2013-09-05T12:42:06Z</time>
      </trkpt>
      <trkpt lat="50.717738969251513" lon="15.39705497212708">
        <ele>574.52999999999997</ele>
        <time>2013-09-05T12:42:17Z</time>
      </trkpt>
      <trkpt lat="50.717521039769053" lon="15.398355005308986">
        <ele>565.87</ele>
        <time>2013-09-05T12:42:23Z</time>
      </trkpt>
      <trkpt lat="50.71751500479877" lon="15.398564971983433">
        <ele>563.95000000000005</ele>
        <time>2013-09-05T12:42:24Z</time>
      </trkpt>
      <trkpt lat="50.717511987313628" lon="15.400086035951972">
        <ele>552.89999999999998</ele>
        <time>2013-09-05T12:42:31Z</time>
      </trkpt>
      <trkpt lat="50.717545012012124" lon="15.400312012061477">
        <ele>551.45000000000005</ele>
        <time>2013-09-05T12:42:32Z</time>
      </trkpt>
      <trkpt lat="50.717597985640168" lon="15.400536982342601">
        <ele>550.49000000000001</ele>
        <time>2013-09-05T12:42:33Z</time>
      </trkpt>
      <trkpt lat="50.717703010886908" lon="15.400975020602345">
        <ele>546.64999999999998</ele>
        <time>2013-09-05T12:42:35Z</time>
      </trkpt>
      <trkpt lat="50.71773000061512" lon="15.401192028075457">
        <ele>545.20000000000005</ele>
        <time>2013-09-05T12:42:36Z</time>
      </trkpt>
      <trkpt lat="50.717997970059514" lon="15.402892967686057">
        <ele>538.48000000000002</ele>
        <time>2013-09-05T12:42:44Z</time>
      </trkpt>
      <trkpt lat="50.718142976984382" lon="15.403920002281666">
        <ele>536.54999999999995</ele>
        <time>2013-09-05T12:42:49Z</time>
      </trkpt>
      <trkpt lat="50.718452017754316" lon="15.405114004388452">
        <ele>531.26999999999998</ele>
        <time>2013-09-05T12:42:56Z</time>
      </trkpt>
      <trkpt lat="50.718521000817418" lon="15.405262028798461">
        <ele>530.29999999999995</ele>
        <time>2013-09-05T12:42:57Z</time>
      </trkpt>
      <trkpt lat="50.718886032700539" lon="15.4059490095824">
        <ele>526.46000000000004</ele>
        <time>2013-09-05T12:43:02Z</time>
      </trkpt>
      <trkpt lat="50.718940012156963" lon="15.406102985143661">
        <ele>525.5</ele>
        <time>2013-09-05T12:43:03Z</time>
      </trkpt>
      <trkpt lat="50.71910597383976" lon="15.406600032001734">
        <ele>523.09000000000003</ele>
        <time>2013-09-05T12:43:06Z</time>
      </trkpt>
      <trkpt lat="50.719175962731242" lon="15.406783008947968">
        <ele>522.61000000000001</ele>
        <time>2013-09-05T12:43:07Z</time>
      </trkpt>
      <trkpt lat="50.71951400488615" lon="15.40743000805378">
        <ele>524.53999999999996</ele>
        <time>2013-09-05T12:43:11Z</time>
      </trkpt>
      <trkpt lat="50.719652976840734" lon="15.407962007448077">
        <ele>523.58000000000004</ele>
        <time>2013-09-05T12:43:14Z</time>
      </trkpt>
      <trkpt lat="50.719692958518863" lon="15.408132998272777">
        <ele>523.09000000000003</ele>
        <time>2013-09-05T12:43:15Z</time>
      </trkpt>
      <trkpt lat="50.719789015129209" lon="15.408428041264415">
        <ele>522.61000000000001</ele>
        <time>2013-09-05T12:43:17Z</time>
      </trkpt>
      <trkpt lat="50.719854980707169" lon="15.40857195854187">
        <ele>521.64999999999998</ele>
        <time>2013-09-05T12:43:18Z</time>
      </trkpt>
      <trkpt lat="50.720613040030003" lon="15.409673005342484">
        <ele>516.85000000000002</ele>
        <time>2013-09-05T12:43:26Z</time>
      </trkpt>
      <trkpt lat="50.720762992277741" lon="15.409935023635626">
        <ele>514.44000000000005</ele>
        <time>2013-09-05T12:43:28Z</time>
      </trkpt>
      <trkpt lat="50.720838010311127" lon="15.410079024732113">
        <ele>513</ele>
        <time>2013-09-05T12:43:29Z</time>
      </trkpt>
      <trkpt lat="50.720886960625648" lon="15.41024599224329">
        <ele>512.03999999999996</ele>
        <time>2013-09-05T12:43:30Z</time>
      </trkpt>
      <trkpt lat="50.720926020294428" lon="15.410430980846286">
        <ele>510.12</ele>
        <time>2013-09-05T12:43:31Z</time>
      </trkpt>
      <trkpt lat="50.720964996144176" lon="15.410638013854623">
        <ele>509.16000000000003</ele>
        <time>2013-09-05T12:43:32Z</time>
      </trkpt>
      <trkpt lat="50.721108997240663" lon="15.411625988781452">
        <ele>503.38999999999999</ele>
        <time>2013-09-05T12:43:37Z</time>
      </trkpt>
      <trkpt lat="50.721158031374216" lon="15.411789016798139">
        <ele>502.43000000000001</ele>
        <time>2013-09-05T12:43:38Z</time>
      </trkpt>
      <trkpt lat="50.721213016659021" lon="15.411938969045877">
        <ele>500.98000000000002</ele>
        <time>2013-09-05T12:43:39Z</time>
      </trkpt>
      <trkpt lat="50.721270013600588" lon="15.41209202259779">
        <ele>500.5</ele>
        <time>2013-09-05T12:43:40Z</time>
      </trkpt>
      <trkpt lat="50.721313012763858" lon="15.412247003987432">
        <ele>499.54000000000002</ele>
        <time>2013-09-05T12:43:41Z</time>
      </trkpt>
      <trkpt lat="50.721327010542154" lon="15.41241598315537">
        <ele>499.06</ele>
        <time>2013-09-05T12:43:42Z</time>
      </trkpt>
      <trkpt lat="50.721313012763858" lon="15.412558978423476">
        <ele>498.57999999999998</ele>
        <time>2013-09-05T12:43:43Z</time>
      </trkpt>
      <trkpt lat="50.721261966973543" lon="15.412685964256525">
        <ele>497.62</ele>
        <time>2013-09-05T12:43:44Z</time>
      </trkpt>
      <trkpt lat="50.721198013052344" lon="15.412789983674884">
        <ele>498.10000000000002</ele>
        <time>2013-09-05T12:43:45Z</time>
      </trkpt>
      <trkpt lat="50.721121989190578" lon="15.412882016971707">
        <ele>499.06</ele>
        <time>2013-09-05T12:43:46Z</time>
      </trkpt>
      <trkpt lat="50.721013024449348" lon="15.413111010566354">
        <ele>498.57999999999998</ele>
        <time>2013-09-05T12:43:48Z</time>
      </trkpt>
      <trkpt lat="50.720988968387246" lon="15.413242019712925">
        <ele>498.10000000000002</ele>
        <time>2013-09-05T12:43:49Z</time>
      </trkpt>
      <trkpt lat="50.720986034721136" lon="15.413377974182367">
        <ele>497.62</ele>
        <time>2013-09-05T12:43:50Z</time>
      </trkpt>
      <trkpt lat="50.720998020842671" lon="15.413507977500558">
        <ele>497.62</ele>
        <time>2013-09-05T12:43:51Z</time>
      </trkpt>
      <trkpt lat="50.721020987257361" lon="15.413629012182355">
        <ele>497.13999999999999</ele>
        <time>2013-09-05T12:43:52Z</time>
      </trkpt>
      <trkpt lat="50.72105904109776" lon="15.413751974701881">
        <ele>496.66000000000003</ele>
        <time>2013-09-05T12:43:53Z</time>
      </trkpt>
      <trkpt lat="50.72110103443265" lon="15.413872003555298">
        <ele>496.18000000000001</ele>
        <time>2013-09-05T12:43:54Z</time>
      </trkpt>
      <trkpt lat="50.721175968647003" lon="15.414138967171311">
        <ele>495.22000000000003</ele>
        <time>2013-09-05T12:43:56Z</time>
      </trkpt>
      <trkpt lat="50.72127303108573" lon="15.414658980444074">
        <ele>494.25999999999999</ele>
        <time>2013-09-05T12:44:00Z</time>
      </trkpt>
      <trkpt lat="50.721265990287066" lon="15.414760988205671">
        <ele>496.66000000000003</ele>
        <time>2013-09-05T12:44:01Z</time>
      </trkpt>
      <trkpt lat="50.721361041069031" lon="15.414860984310508">
        <ele>494.25999999999999</ele>
        <time>2013-09-05T12:44:02Z</time>
      </trkpt>
      <trkpt lat="50.721439998596907" lon="15.414925022050738">
        <ele>492.81</ele>
        <time>2013-09-05T12:44:03Z</time>
      </trkpt>
      <trkpt lat="50.721513004973531" lon="15.414957040920854">
        <ele>492.81</ele>
        <time>2013-09-05T12:44:04Z</time>
      </trkpt>
      <trkpt lat="50.721588023006916" lon="15.41497397236526">
        <ele>492.81</ele>
        <time>2013-09-05T12:44:05Z</time>
      </trkpt>
      <trkpt lat="50.721677038818598" lon="15.414974978193641">
        <ele>492.81</ele>
        <time>2013-09-05T12:44:06Z</time>
      </trkpt>
      <trkpt lat="50.721754990518093" lon="15.414958968758583">
        <ele>493.76999999999998</ele>
        <time>2013-09-05T12:44:07Z</time>
      </trkpt>
      <trkpt lat="50.722860982641578" lon="15.414943965151906">
        <ele>481.75999999999999</ele>
        <time>2013-09-05T12:44:16Z</time>
      </trkpt>
      <trkpt lat="50.722957039251924" lon="15.414990987628698">
        <ele>480.80000000000001</ele>
        <time>2013-09-05T12:44:17Z</time>
      </trkpt>
      <trkpt lat="50.723132975399494" lon="15.415118979290128">
        <ele>479.83999999999997</ele>
        <time>2013-09-05T12:44:19Z</time>
      </trkpt>
      <trkpt lat="50.723198018968105" lon="15.415213024243712">
        <ele>479.35000000000002</ele>
        <time>2013-09-05T12:44:20Z</time>
      </trkpt>
      <trkpt lat="50.723241018131375" lon="15.415355013683438">
        <ele>479.83999999999997</ele>
        <time>2013-09-05T12:44:21Z</time>
      </trkpt>
      <trkpt lat="50.723390970379114" lon="15.41596001945436">
        <ele>481.27999999999997</ele>
        <time>2013-09-05T12:44:25Z</time>
      </trkpt>
      <trkpt lat="50.723399017006159" lon="15.416093962267041">
        <ele>481.27999999999997</ele>
        <time>2013-09-05T12:44:26Z</time>
      </trkpt>
      <trkpt lat="50.723371021449566" lon="15.416219020262361">
        <ele>481.75999999999999</ele>
        <time>2013-09-05T12:44:27Z</time>
      </trkpt>
      <trkpt lat="50.723316958174109" lon="15.416334019973874">
        <ele>481.75999999999999</ele>
        <time>2013-09-05T12:44:28Z</time>
      </trkpt>
      <trkpt lat="50.723239006474614" lon="15.416441978886724">
        <ele>481.75999999999999</ele>
        <time>2013-09-05T12:44:29Z</time>
      </trkpt>
      <trkpt lat="50.723144039511681" lon="15.416550021618605">
        <ele>482.72000000000003</ele>
        <time>2013-09-05T12:44:30Z</time>
      </trkpt>
      <trkpt lat="50.723044965416193" lon="15.416644988581538">
        <ele>483.68000000000001</ele>
        <time>2013-09-05T12:44:31Z</time>
      </trkpt>
      <trkpt lat="50.722941029816866" lon="15.416725035756826">
        <ele>484.16000000000003</ele>
        <time>2013-09-05T12:44:32Z</time>
      </trkpt>
      <trkpt lat="50.722830975428224" lon="15.416798964142799">
        <ele>486.56</ele>
        <time>2013-09-05T12:44:33Z</time>
      </trkpt>
      <trkpt lat="50.722722010686994" lon="15.416871970519423">
        <ele>487.52999999999997</ele>
        <time>2013-09-05T12:44:34Z</time>
      </trkpt>
      <trkpt lat="50.722191017121077" lon="15.417128037661314">
        <ele>491.85000000000002</ele>
        <time>2013-09-05T12:44:39Z</time>
      </trkpt>
      <trkpt lat="50.722106024622917" lon="15.417209006845951">
        <ele>492.32999999999998</ele>
        <time>2013-09-05T12:44:40Z</time>
      </trkpt>
      <trkpt lat="50.72204701602459" lon="15.417291987687349">
        <ele>493.76999999999998</ele>
        <time>2013-09-05T12:44:41Z</time>
      </trkpt>
      <trkpt lat="50.721997981891036" lon="15.41737999767065">
        <ele>494.74000000000001</ele>
        <time>2013-09-05T12:44:42Z</time>
      </trkpt>
      <trkpt lat="50.721964035183191" lon="15.417449986562133">
        <ele>494.74000000000001</ele>
        <time>2013-09-05T12:44:43Z</time>
      </trkpt>
      <trkpt lat="50.721954982727766" lon="15.417505977675319">
        <ele>495.22000000000003</ele>
        <time>2013-09-05T12:44:44Z</time>
      </trkpt>
      <trkpt lat="50.721979038789868" lon="15.417568003758788">
        <ele>494.25999999999999</ele>
        <time>2013-09-05T12:44:45Z</time>
      </trkpt>
      <trkpt lat="50.7221760135144" lon="15.417577978223562">
        <ele>492.81</ele>
        <time>2013-09-05T12:44:48Z</time>
      </trkpt>
      <trkpt lat="50.72228598408401" lon="15.417521987110376">
        <ele>493.29000000000002</ele>
        <time>2013-09-05T12:44:49Z</time>
      </trkpt>
      <trkpt lat="50.722410958260298" lon="15.417461972683668">
        <ele>492.81</ele>
        <time>2013-09-05T12:44:50Z</time>
      </trkpt>
      <trkpt lat="50.723484009504318" lon="15.416904995217919">
        <ele>495.22000000000003</ele>
        <time>2013-09-05T12:44:57Z</time>
      </trkpt>
      <trkpt lat="50.724596036598086" lon="15.415957001969218">
        <ele>498.57999999999998</ele>
        <time>2013-09-05T12:45:04Z</time>
      </trkpt>
      <trkpt lat="50.724727967754006" lon="15.415773019194603">
        <ele>498.10000000000002</ele>
        <time>2013-09-05T12:45:05Z</time>
      </trkpt>
      <trkpt lat="50.724846990779042" lon="15.415565986186266">
        <ele>498.57999999999998</ele>
        <time>2013-09-05T12:45:06Z</time>
      </trkpt>
      <trkpt lat="50.72537899017334" lon="15.414481032639742">
        <ele>499.54000000000002</ele>
        <time>2013-09-05T12:45:11Z</time>
      </trkpt>
      <trkpt lat="50.725531037896872" lon="15.414336025714874">
        <ele>499.54000000000002</ele>
        <time>2013-09-05T12:45:12Z</time>
      </trkpt>
      <trkpt lat="50.725688030943274" lon="15.414223959669471">
        <ele>500.01999999999998</ele>
        <time>2013-09-05T12:45:13Z</time>
      </trkpt>
      <trkpt lat="50.725859021767974" lon="15.414153970777988">
        <ele>500.5</ele>
        <time>2013-09-05T12:45:14Z</time>
      </trkpt>
      <trkpt lat="50.72604501619935" lon="15.414120024070144">
        <ele>500.98000000000002</ele>
        <time>2013-09-05T12:45:15Z</time>
      </trkpt>
      <trkpt lat="50.726233022287488" lon="15.414121029898524">
        <ele>500.98000000000002</ele>
        <time>2013-09-05T12:45:16Z</time>
      </trkpt>
      <trkpt lat="50.7264119759202" lon="15.414137039333582">
        <ele>500.98000000000002</ele>
        <time>2013-09-05T12:45:17Z</time>
      </trkpt>
      <trkpt lat="50.726591013371944" lon="15.414175009354949">
        <ele>501.45999999999998</ele>
        <time>2013-09-05T12:45:18Z</time>
      </trkpt>
      <trkpt lat="50.726768961176276" lon="15.414252039045095">
        <ele>501.45999999999998</ele>
        <time>2013-09-05T12:45:19Z</time>
      </trkpt>
      <trkpt lat="50.728308968245983" lon="15.41495100595057">
        <ele>503.38999999999999</ele>
        <time>2013-09-05T12:45:27Z</time>
      </trkpt>
      <trkpt lat="50.728830993175507" lon="15.415222998708487">
        <ele>504.35000000000002</ele>
        <time>2013-09-05T12:45:30Z</time>
      </trkpt>
      <trkpt lat="50.72896895930171" lon="15.415348978713155">
        <ele>504.82999999999998</ele>
        <time>2013-09-05T12:45:31Z</time>
      </trkpt>
      <trkpt lat="50.72907398454845" lon="15.415524998679757">
        <ele>504.82999999999998</ele>
        <time>2013-09-05T12:45:32Z</time>
      </trkpt>
      <trkpt lat="50.729145985096693" lon="15.415809983387589">
        <ele>503.87</ele>
        <time>2013-09-05T12:45:33Z</time>
      </trkpt>
      <trkpt lat="50.729208011180162" lon="15.416065966710448">
        <ele>503.38999999999999</ele>
        <time>2013-09-05T12:45:34Z</time>
      </trkpt>
      <trkpt lat="50.72924598120153" lon="15.416361009702086">
        <ele>502.91000000000003</ele>
        <time>2013-09-05T12:45:35Z</time>
      </trkpt>
      <trkpt lat="50.72924698702991" lon="15.416624033823609">
        <ele>503.38999999999999</ele>
        <time>2013-09-05T12:45:36Z</time>
      </trkpt>
      <trkpt lat="50.729210022836924" lon="15.416911030188203">
        <ele>503.38999999999999</ele>
        <time>2013-09-05T12:45:37Z</time>
      </trkpt>
      <trkpt lat="50.729174986481667" lon="15.41716399602592">
        <ele>503.87</ele>
        <time>2013-09-05T12:45:38Z</time>
      </trkpt>
      <trkpt lat="50.729121007025242" lon="15.417424002662301">
        <ele>504.35000000000002</ele>
        <time>2013-09-05T12:45:39Z</time>
      </trkpt>
      <trkpt lat="50.729050012305379" lon="15.417675040662289">
        <ele>505.31</ele>
        <time>2013-09-05T12:45:40Z</time>
      </trkpt>
      <trkpt lat="50.728638041764498" lon="15.418979013338685">
        <ele>508.67000000000002</ele>
        <time>2013-09-05T12:45:45Z</time>
      </trkpt>
      <trkpt lat="50.728596970438957" lon="15.419239019975066">
        <ele>509.63999999999999</ele>
        <time>2013-09-05T12:45:46Z</time>
      </trkpt>
      <trkpt lat="50.728567969053984" lon="15.419519981369376">
        <ele>510.60000000000002</ele>
        <time>2013-09-05T12:45:47Z</time>
      </trkpt>
      <trkpt lat="50.728546008467674" lon="15.41978501714766">
        <ele>510.12</ele>
        <time>2013-09-05T12:45:48Z</time>
      </trkpt>
      <trkpt lat="50.728560006245971" lon="15.420054998248816">
        <ele>510.60000000000002</ele>
        <time>2013-09-05T12:45:49Z</time>
      </trkpt>
      <trkpt lat="50.728589007630944" lon="15.420307964086533">
        <ele>510.60000000000002</ele>
        <time>2013-09-05T12:45:50Z</time>
      </trkpt>
      <trkpt lat="50.728632006794214" lon="15.420551039278507">
        <ele>511.07999999999998</ele>
        <time>2013-09-05T12:45:51Z</time>
      </trkpt>
      <trkpt lat="50.728747006505728" lon="15.420934008434415">
        <ele>512.51999999999998</ele>
        <time>2013-09-05T12:45:53Z</time>
      </trkpt>
      <trkpt lat="50.728809032589197" lon="15.421060994267464">
        <ele>513</ele>
        <time>2013-09-05T12:45:54Z</time>
      </trkpt>
      <trkpt lat="50.728891007602215" lon="15.421129977330565">
        <ele>514.44000000000005</ele>
        <time>2013-09-05T12:45:55Z</time>
      </trkpt>
      <trkpt lat="50.729024028405547" lon="15.4211800172925">
        <ele>515.39999999999998</ele>
        <time>2013-09-05T12:45:56Z</time>
      </trkpt>
      <trkpt lat="50.729152020066977" lon="15.421261992305517">
        <ele>516.85000000000002</ele>
        <time>2013-09-05T12:45:57Z</time>
      </trkpt>
      <trkpt lat="50.730091966688633" lon="15.421816958114505">
        <ele>523.58000000000004</ele>
        <time>2013-09-05T12:46:03Z</time>
      </trkpt>
      <trkpt lat="50.730283996090293" lon="15.421870015561581">
        <ele>524.53999999999996</ele>
        <time>2013-09-05T12:46:04Z</time>
      </trkpt>
      <trkpt lat="50.730574009940028" lon="15.421949978917837">
        <ele>526.46000000000004</ele>
        <time>2013-09-05T12:46:05Z</time>
      </trkpt>
      <trkpt lat="50.732129020616412" lon="15.421883007511497">
        <ele>517.33000000000004</ele>
        <time>2013-09-05T12:46:17Z</time>
      </trkpt>
      <trkpt lat="50.732928989455104" lon="15.421902034431696">
        <ele>518.76999999999998</ele>
        <time>2013-09-05T12:46:23Z</time>
      </trkpt>
      <trkpt lat="50.733057986944914" lon="15.42193497531116">
        <ele>519.25</ele>
        <time>2013-09-05T12:46:24Z</time>
      </trkpt>
      <trkpt lat="50.734450975432992" lon="15.422607036307454">
        <ele>520.21000000000004</ele>
        <time>2013-09-05T12:46:35Z</time>
      </trkpt>
      <trkpt lat="50.735480021685362" lon="15.423303991556168">
        <ele>522.13</ele>
        <time>2013-09-05T12:46:44Z</time>
      </trkpt>
      <trkpt lat="50.735597033053637" lon="15.423383032903075">
        <ele>522.61000000000001</ele>
        <time>2013-09-05T12:46:45Z</time>
      </trkpt>
      <trkpt lat="50.735808005556464" lon="15.423614038154483">
        <ele>523.58000000000004</ele>
        <time>2013-09-05T12:46:47Z</time>
      </trkpt>
      <trkpt lat="50.736105982214212" lon="15.423944033682346">
        <ele>524.53999999999996</ele>
        <time>2013-09-05T12:46:50Z</time>
      </trkpt>
      <trkpt lat="50.736199021339417" lon="15.423998013138771">
        <ele>525.01999999999998</ele>
        <time>2013-09-05T12:46:51Z</time>
      </trkpt>
      <trkpt lat="50.736359031870961" lon="15.424026008695364">
        <ele>526.94000000000005</ele>
        <time>2013-09-05T12:46:52Z</time>
      </trkpt>
      <trkpt lat="50.736441006883979" lon="15.423967000097036">
        <ele>526.94000000000005</ele>
        <time>2013-09-05T12:46:53Z</time>
      </trkpt>
      <trkpt lat="50.736523987725377" lon="15.423863986507058">
        <ele>527.89999999999998</ele>
        <time>2013-09-05T12:46:54Z</time>
      </trkpt>
      <trkpt lat="50.736619038507342" lon="15.423747980967164">
        <ele>528.86000000000001</ele>
        <time>2013-09-05T12:46:55Z</time>
      </trkpt>
      <trkpt lat="50.736709982156754" lon="15.423604985699058">
        <ele>528.86000000000001</ele>
        <time>2013-09-05T12:46:56Z</time>
      </trkpt>
      <trkpt lat="50.736812995746732" lon="15.423471964895725">
        <ele>528.86000000000001</ele>
        <time>2013-09-05T12:46:57Z</time>
      </trkpt>
      <trkpt lat="50.737298978492618" lon="15.422784984111786">
        <ele>530.78999999999996</ele>
        <time>2013-09-05T12:47:01Z</time>
      </trkpt>
      <trkpt lat="50.737381037324667" lon="15.422576023265719">
        <ele>531.26999999999998</ele>
        <time>2013-09-05T12:47:02Z</time>
      </trkpt>
      <trkpt lat="50.737427975982428" lon="15.422366978600621">
        <ele>531.26999999999998</ele>
        <time>2013-09-05T12:47:03Z</time>
      </trkpt>
      <trkpt lat="50.737440967932343" lon="15.422160029411316">
        <ele>530.78999999999996</ele>
        <time>2013-09-05T12:47:04Z</time>
      </trkpt>
      <trkpt lat="50.737436022609472" lon="15.42195500805974">
        <ele>530.78999999999996</ele>
        <time>2013-09-05T12:47:05Z</time>
      </trkpt>
      <trkpt lat="50.737419007346034" lon="15.421747975051403">
        <ele>530.78999999999996</ele>
        <time>2013-09-05T12:47:06Z</time>
      </trkpt>
      <trkpt lat="50.737371984869242" lon="15.421508001163602">
        <ele>532.23000000000002</ele>
        <time>2013-09-05T12:47:07Z</time>
      </trkpt>
      <trkpt lat="50.737333009019494" lon="15.42133298702538">
        <ele>532.23000000000002</ele>
        <time>2013-09-05T12:47:08Z</time>
      </trkpt>
      <trkpt lat="50.737281963229179" lon="15.421155039221048">
        <ele>532.23000000000002</ele>
        <time>2013-09-05T12:47:09Z</time>
      </trkpt>
      <trkpt lat="50.737046012654901" lon="15.419930024072528">
        <ele>535.11000000000001</ele>
        <time>2013-09-05T12:47:17Z</time>
      </trkpt>
      <trkpt lat="50.73704500682652" lon="15.419851988554001">
        <ele>537.50999999999999</ele>
        <time>2013-09-05T12:47:18Z</time>
      </trkpt>
      <trkpt lat="50.73704500682652" lon="15.41976498439908">
        <ele>538.48000000000002</ele>
        <time>2013-09-05T12:47:19Z</time>
      </trkpt>
      <trkpt lat="50.737061016261578" lon="15.419633975252509">
        <ele>539.44000000000005</ele>
        <time>2013-09-05T12:47:28Z</time>
      </trkpt>
      <trkpt lat="50.737093035131693" lon="15.419602962210774">
        <ele>538.96000000000004</ele>
        <time>2013-09-05T12:48:03Z</time>
      </trkpt>
      <trkpt lat="50.737107032909989" lon="15.419588964432478">
        <ele>538.48000000000002</ele>
        <time>2013-09-05T12:49:04Z</time>
      </trkpt>
      <trkpt lat="50.737200994044542" lon="15.419577984139323">
        <ele>532.23000000000002</ele>
        <time>2013-09-05T12:49:50Z</time>
      </trkpt>
      <trkpt lat="50.737324040383101" lon="15.41963598690927">
        <ele>518.76999999999998</ele>
        <time>2013-09-05T12:50:36Z</time>
      </trkpt>
      <trkpt lat="50.737422024831176" lon="15.419328035786748">
        <ele>518.28999999999996</ele>
        <time>2013-09-05T12:50:41Z</time>
      </trkpt>
      <trkpt lat="50.737420013174415" lon="15.419127959758043">
        <ele>517.80999999999995</ele>
        <time>2013-09-05T12:50:42Z</time>
      </trkpt>
      <trkpt lat="50.737584969028831" lon="15.418322961777449">
        <ele>516.85000000000002</ele>
        <time>2013-09-05T12:50:47Z</time>
      </trkpt>
      <trkpt lat="50.737632997334003" lon="15.418221959844232">
        <ele>516.85000000000002</ele>
        <time>2013-09-05T12:50:48Z</time>
      </trkpt>
      <trkpt lat="50.737702986225486" lon="15.418127998709679">
        <ele>516.37</ele>
        <time>2013-09-05T12:50:49Z</time>
      </trkpt>
      <trkpt lat="50.737778004258871" lon="15.418033031746745">
        <ele>515.88</ele>
        <time>2013-09-05T12:50:50Z</time>
      </trkpt>
      <trkpt lat="50.737848998978734" lon="15.417934041470289">
        <ele>515.88</ele>
        <time>2013-09-05T12:50:51Z</time>
      </trkpt>
      <trkpt lat="50.7379250228405" lon="15.417845025658607">
        <ele>515.39999999999998</ele>
        <time>2013-09-05T12:50:52Z</time>
      </trkpt>
      <trkpt lat="50.737986965104938" lon="15.417751986533403">
        <ele>514.91999999999996</ele>
        <time>2013-09-05T12:50:53Z</time>
      </trkpt>
      <trkpt lat="50.738190980628133" lon="15.41748502291739">
        <ele>513.96000000000004</ele>
        <time>2013-09-05T12:50:57Z</time>
      </trkpt>
      <trkpt lat="50.738319978117943" lon="15.41720800101757">
        <ele>513.48000000000002</ele>
        <time>2013-09-05T12:51:05Z</time>
      </trkpt>
      <trkpt lat="50.738300029188395" lon="15.417180005460978">
        <ele>513.48000000000002</ele>
        <time>2013-09-05T12:51:10Z</time>
      </trkpt>
      <trkpt lat="50.738324001431465" lon="15.417196014896035">
        <ele>514.44000000000005</ele>
        <time>2013-09-05T12:51:24Z</time>
      </trkpt>
      <trkpt lat="50.738345040008426" lon="15.417202971875668">
        <ele>514.91999999999996</ele>
        <time>2013-09-05T12:51:26Z</time>
      </trkpt>
      <trkpt lat="50.738385021686554" lon="15.417168019339442">
        <ele>515.88</ele>
        <time>2013-09-05T12:51:29Z</time>
      </trkpt>
      <trkpt lat="50.738554000854492" lon="15.416947994381189">
        <ele>516.85000000000002</ele>
        <time>2013-09-05T12:51:37Z</time>
      </trkpt>
      <trkpt lat="50.739146014675498" lon="15.416611041873693">
        <ele>518.76999999999998</ele>
        <time>2013-09-05T12:51:47Z</time>
      </trkpt>
      <trkpt lat="50.73953996412456" lon="15.416363021358848">
        <ele>519.25</ele>
        <time>2013-09-05T12:51:52Z</time>
      </trkpt>
      <trkpt lat="50.73957902379334" lon="15.416291020810604">
        <ele>519.25</ele>
        <time>2013-09-05T12:51:53Z</time>
      </trkpt>
      <trkpt lat="50.739616993814707" lon="15.416208039969206">
        <ele>519.25</ele>
        <time>2013-09-05T12:51:54Z</time>
      </trkpt>
      <trkpt lat="50.740059977397323" lon="15.415479987859726">
        <ele>519.25</ele>
        <time>2013-09-05T12:52:04Z</time>
      </trkpt>
      <trkpt lat="50.740128038451076" lon="15.415334980934858">
        <ele>518.76999999999998</ele>
        <time>2013-09-05T12:52:06Z</time>
      </trkpt>
      <trkpt lat="50.740562975406647" lon="15.415520975366235">
        <ele>518.76999999999998</ele>
        <time>2013-09-05T12:52:10Z</time>
      </trkpt>
      <trkpt lat="50.740703959017992" lon="15.415620971471071">
        <ele>518.28999999999996</ele>
        <time>2013-09-05T12:52:11Z</time>
      </trkpt>
      <trkpt lat="50.74084997177124" lon="15.415749968960881">
        <ele>518.28999999999996</ele>
        <time>2013-09-05T12:52:12Z</time>
      </trkpt>
      <trkpt lat="50.74108399450779" lon="15.41598298586905">
        <ele>517.80999999999995</ele>
        <time>2013-09-05T12:52:13Z</time>
      </trkpt>
      <trkpt lat="50.741261020302773" lon="15.416189013049006">
        <ele>517.33000000000004</ele>
        <time>2013-09-05T12:52:14Z</time>
      </trkpt>
      <trkpt lat="50.741407033056021" lon="15.416395040228963">
        <ele>516.85000000000002</ele>
        <time>2013-09-05T12:52:15Z</time>
      </trkpt>
      <trkpt lat="50.742850983515382" lon="15.418144008144736">
        <ele>517.33000000000004</ele>
        <time>2013-09-05T12:52:23Z</time>
      </trkpt>
      <trkpt lat="50.743990000337362" lon="15.418922016397119">
        <ele>518.28999999999996</ele>
        <time>2013-09-05T12:52:30Z</time>
      </trkpt>
      <trkpt lat="50.744552006945014" lon="15.419142041355371">
        <ele>518.76999999999998</ele>
        <time>2013-09-05T12:52:33Z</time>
      </trkpt>
      <trkpt lat="50.744704976677895" lon="15.419112034142017">
        <ele>518.76999999999998</ele>
        <time>2013-09-05T12:52:34Z</time>
      </trkpt>
      <trkpt lat="50.744874039664865" lon="15.419082026928663">
        <ele>518.76999999999998</ele>
        <time>2013-09-05T12:52:35Z</time>
      </trkpt>
      <trkpt lat="50.745771992951632" lon="15.418973984196782">
        <ele>519.73000000000002</ele>
        <time>2013-09-05T12:52:42Z</time>
      </trkpt>
      <trkpt lat="50.745874000713229" lon="15.41888396255672">
        <ele>520.21000000000004</ele>
        <time>2013-09-05T12:52:43Z</time>
      </trkpt>
      <trkpt lat="50.746426032856107" lon="15.418265964835882">
        <ele>523.09000000000003</ele>
        <time>2013-09-05T12:52:49Z</time>
      </trkpt>
      <trkpt lat="50.74645696207881" lon="15.418092040345073">
        <ele>523.09000000000003</ele>
        <time>2013-09-05T12:52:50Z</time>
      </trkpt>
      <trkpt lat="50.746510019525886" lon="15.417927000671625">
        <ele>523.58000000000004</ele>
        <time>2013-09-05T12:52:51Z</time>
      </trkpt>
      <trkpt lat="50.746488980948925" lon="15.417717033997178">
        <ele>524.05999999999995</ele>
        <time>2013-09-05T12:52:52Z</time>
      </trkpt>
      <trkpt lat="50.74634900316596" lon="15.417435988783836">
        <ele>523.58000000000004</ele>
        <time>2013-09-05T12:52:53Z</time>
      </trkpt>
      <trkpt lat="50.745651964098215" lon="15.415288964286447">
        <ele>537.02999999999997</ele>
        <time>2013-09-05T12:53:02Z</time>
      </trkpt>
      <trkpt lat="50.745526989921927" lon="15.414931979030371">
        <ele>541.84000000000003</ele>
        <time>2013-09-05T12:53:08Z</time>
      </trkpt>
      <trkpt lat="50.745464041829109" lon="15.414856038987637">
        <ele>546.16999999999996</ele>
        <time>2013-09-05T12:53:36Z</time>
      </trkpt>
      <trkpt lat="50.745549034327269" lon="15.414897026494145">
        <ele>547.61000000000001</ele>
        <time>2013-09-05T12:53:52Z</time>
      </trkpt>
      <trkpt lat="50.746041974052787" lon="15.415215035900474">
        <ele>553.86000000000001</ele>
        <time>2013-09-05T12:54:07Z</time>
      </trkpt>
      <trkpt lat="50.746105005964637" lon="15.415236996486783">
        <ele>555.29999999999995</ele>
        <time>2013-09-05T12:54:18Z</time>
      </trkpt>
      <trkpt lat="50.746101988479495" lon="15.415244959294796">
        <ele>555.29999999999995</ele>
        <time>2013-09-05T12:54:21Z</time>
      </trkpt>
      <trkpt lat="50.746024958789349" lon="15.415181005373597">
        <ele>558.65999999999997</ele>
        <time>2013-09-05T12:54:33Z</time>
      </trkpt>
      <trkpt lat="50.745992017909884" lon="15.415156027302146">
        <ele>558.65999999999997</ele>
        <time>2013-09-05T12:54:35Z</time>
      </trkpt>
      <trkpt lat="50.745732011273503" lon="15.414957962930202">
        <ele>559.13999999999999</ele>
        <time>2013-09-05T12:54:47Z</time>
      </trkpt>
      <trkpt lat="50.745663028210402" lon="15.414915969595313">
        <ele>559.13999999999999</ele>
        <time>2013-09-05T12:55:02Z</time>
      </trkpt>
      <trkpt lat="50.745637966319919" lon="15.414895014837384">
        <ele>561.07000000000005</ele>
        <time>2013-09-05T12:55:08Z</time>
      </trkpt>
      <trkpt lat="50.745599996298552" lon="15.414883028715849">
        <ele>562.02999999999997</ele>
        <time>2013-09-05T12:55:22Z</time>
      </trkpt>
      <trkpt lat="50.745476027950644" lon="15.414873976260424">
        <ele>552.40999999999997</ele>
        <time>2013-09-05T12:55:41Z</time>
      </trkpt>
      <trkpt lat="50.74544602073729" lon="15.41488504037261">
        <ele>551.92999999999995</ele>
        <time>2013-09-05T12:55:53Z</time>
      </trkpt>
      <trkpt lat="50.745421964675188" lon="15.414252961054444">
        <ele>551.92999999999995</ele>
        <time>2013-09-05T12:55:59Z</time>
      </trkpt>
      <trkpt lat="50.7454679813236" lon="15.414143996313214">
        <ele>551.92999999999995</ele>
        <time>2013-09-05T12:56:00Z</time>
      </trkpt>
      <trkpt lat="50.745537970215082" lon="15.414036959409714">
        <ele>551.92999999999995</ele>
        <time>2013-09-05T12:56:01Z</time>
      </trkpt>
      <trkpt lat="50.745624974370003" lon="15.413931012153625">
        <ele>552.40999999999997</ele>
        <time>2013-09-05T12:56:02Z</time>
      </trkpt>
      <trkpt lat="50.745719019323587" lon="15.413824981078506">
        <ele>552.40999999999997</ele>
        <time>2013-09-05T12:56:03Z</time>
      </trkpt>
      <trkpt lat="50.745809962972999" lon="15.41372699663043">
        <ele>551.92999999999995</ele>
        <time>2013-09-05T12:56:04Z</time>
      </trkpt>
      <trkpt lat="50.745893027633429" lon="15.413648961111903">
        <ele>551.92999999999995</ele>
        <time>2013-09-05T12:56:05Z</time>
      </trkpt>
      <trkpt lat="50.745953964069486" lon="15.413573021069169">
        <ele>551.92999999999995</ele>
        <time>2013-09-05T12:56:06Z</time>
      </trkpt>
      <trkpt lat="50.746922995895147" lon="15.413000034168363">
        <ele>553.38</ele>
        <time>2013-09-05T12:56:15Z</time>
      </trkpt>
      <trkpt lat="50.747999986633658" lon="15.411898987367749">
        <ele>554.82000000000005</ele>
        <time>2013-09-05T12:56:23Z</time>
      </trkpt>
      <trkpt lat="50.748278014361858" lon="15.411632023751736">
        <ele>555.29999999999995</ele>
        <time>2013-09-05T12:56:25Z</time>
      </trkpt>
      <trkpt lat="50.748368036001921" lon="15.411421973258257">
        <ele>555.29999999999995</ele>
        <time>2013-09-05T12:56:26Z</time>
      </trkpt>
      <trkpt lat="50.748422015458345" lon="15.411145035177469">
        <ele>555.29999999999995</ele>
        <time>2013-09-05T12:56:27Z</time>
      </trkpt>
      <trkpt lat="50.748455040156841" lon="15.410835994407535">
        <ele>554.82000000000005</ele>
        <time>2013-09-05T12:56:28Z</time>
      </trkpt>
      <trkpt lat="50.748494016006589" lon="15.410532988607883">
        <ele>554.34000000000003</ele>
        <time>2013-09-05T12:56:29Z</time>
      </trkpt>
      <trkpt lat="50.74858102016151" lon="15.409975005313754">
        <ele>553.86000000000001</ele>
        <time>2013-09-05T12:56:31Z</time>
      </trkpt>
      <trkpt lat="50.748613961040974" lon="15.409710975363851">
        <ele>553.86000000000001</ele>
        <time>2013-09-05T12:56:32Z</time>
      </trkpt>
      <trkpt lat="50.748713035136461" lon="15.408343970775604">
        <ele>553.38</ele>
        <time>2013-09-05T12:56:37Z</time>
      </trkpt>
      <trkpt lat="50.74884002096951" lon="15.407951027154922">
        <ele>553.38</ele>
        <time>2013-09-05T12:56:39Z</time>
      </trkpt>
      <trkpt lat="50.748924007639289" lon="15.407785987481475">
        <ele>553.38</ele>
        <time>2013-09-05T12:56:40Z</time>
      </trkpt>
      <trkpt lat="50.749049987643957" lon="15.407648021355271">
        <ele>553.86000000000001</ele>
        <time>2013-09-05T12:56:41Z</time>
      </trkpt>
      <trkpt lat="50.749189965426922" lon="15.407521035522223">
        <ele>553.86000000000001</ele>
        <time>2013-09-05T12:56:42Z</time>
      </trkpt>
      <trkpt lat="50.749323992058635" lon="15.407378962263465">
        <ele>553.86000000000001</ele>
        <time>2013-09-05T12:56:43Z</time>
      </trkpt>
      <trkpt lat="50.749472016468644" lon="15.407266980037093">
        <ele>553.86000000000001</ele>
        <time>2013-09-05T12:56:44Z</time>
      </trkpt>
      <trkpt lat="50.750502990558743" lon="15.406633978709579">
        <ele>555.29999999999995</ele>
        <time>2013-09-05T12:56:52Z</time>
      </trkpt>
      <trkpt lat="50.750625031068921" lon="15.40661302395165">
        <ele>555.77999999999997</ele>
        <time>2013-09-05T12:56:53Z</time>
      </trkpt>
      <trkpt lat="50.750742964446545" lon="15.40659399703145">
        <ele>556.25999999999999</ele>
        <time>2013-09-05T12:56:54Z</time>
      </trkpt>
      <trkpt lat="50.751300025731325" lon="15.406572036445141">
        <ele>564.42999999999995</ele>
        <time>2013-09-05T12:56:58Z</time>
      </trkpt>
      <trkpt lat="50.751518039032817" lon="15.406590979546309">
        <ele>575.49000000000001</ele>
        <time>2013-09-05T12:57:00Z</time>
      </trkpt>
      <trkpt lat="50.752584971487522" lon="15.406180014833808">
        <ele>582.70000000000005</ele>
        <time>2013-09-05T12:57:08Z</time>
      </trkpt>
      <trkpt lat="50.752646997570992" lon="15.40616299957037">
        <ele>583.17999999999995</ele>
        <time>2013-09-05T12:57:09Z</time>
      </trkpt>
      <trkpt lat="50.752697959542274" lon="15.406181020662189">
        <ele>583.17999999999995</ele>
        <time>2013-09-05T12:57:10Z</time>
      </trkpt>
      <trkpt lat="50.752740036696196" lon="15.406216979026794">
        <ele>583.17999999999995</ele>
        <time>2013-09-05T12:57:11Z</time>
      </trkpt>
      <trkpt lat="50.752813965082169" lon="15.40624899789691">
        <ele>583.65999999999997</ele>
        <time>2013-09-05T12:57:12Z</time>
      </trkpt>
      <trkpt lat="50.752934999763966" lon="15.406644959002733">
        <ele>580.76999999999998</ele>
        <time>2013-09-05T12:57:13Z</time>
      </trkpt>
      <trkpt lat="50.753042036667466" lon="15.407503014430404">
        <ele>578.85000000000002</ele>
        <time>2013-09-05T12:57:14Z</time>
      </trkpt>
      <trkpt lat="50.75326600112021" lon="15.408441033214331">
        <ele>579.33000000000004</ele>
        <time>2013-09-05T12:57:17Z</time>
      </trkpt>
      <trkpt lat="50.753359040245414" lon="15.408682012930512">
        <ele>579.80999999999995</ele>
        <time>2013-09-05T12:57:18Z</time>
      </trkpt>
      <trkpt lat="50.753948036581278" lon="15.40938600897789">
        <ele>582.22000000000003</ele>
        <time>2013-09-05T12:57:21Z</time>
      </trkpt>
      <trkpt lat="50.754080973565578" lon="15.409550964832306">
        <ele>582.70000000000005</ele>
        <time>2013-09-05T12:57:22Z</time>
      </trkpt>
      <trkpt lat="50.754164960235357" lon="15.409698989242315">
        <ele>582.70000000000005</ele>
        <time>2013-09-05T12:57:23Z</time>
      </trkpt>
      <trkpt lat="50.754264034330845" lon="15.40981600061059">
        <ele>583.17999999999995</ele>
        <time>2013-09-05T12:57:24Z</time>
      </trkpt>
      <trkpt lat="50.754418009892106" lon="15.409878026694059">
        <ele>583.65999999999997</ele>
        <time>2013-09-05T12:57:25Z</time>
      </trkpt>
      <trkpt lat="50.754586989060044" lon="15.409951033070683">
        <ele>584.13999999999999</ele>
        <time>2013-09-05T12:57:26Z</time>
      </trkpt>
      <trkpt lat="50.75474901124835" lon="15.410023033618927">
        <ele>585.10000000000002</ele>
        <time>2013-09-05T12:57:27Z</time>
      </trkpt>
      <trkpt lat="50.754859987646341" lon="15.410048011690378">
        <ele>585.58000000000004</ele>
        <time>2013-09-05T12:57:28Z</time>
      </trkpt>
      <trkpt lat="50.75507297180593" lon="15.409979028627276">
        <ele>586.53999999999996</ele>
        <time>2013-09-05T12:57:29Z</time>
      </trkpt>
      <trkpt lat="50.755235999822617" lon="15.409938041120768">
        <ele>586.05999999999995</ele>
        <time>2013-09-05T12:57:30Z</time>
      </trkpt>
      <trkpt lat="50.75537396594882" lon="15.409810971468687">
        <ele>586.05999999999995</ele>
        <time>2013-09-05T12:57:31Z</time>
      </trkpt>
      <trkpt lat="50.75556599535048" lon="15.409660013392568">
        <ele>584.13999999999999</ele>
        <time>2013-09-05T12:57:32Z</time>
      </trkpt>
      <trkpt lat="50.756903998553753" lon="15.408793995156884">
        <ele>575.49000000000001</ele>
        <time>2013-09-05T12:57:39Z</time>
      </trkpt>
      <trkpt lat="50.758177964016795" lon="15.407521035522223">
        <ele>564.90999999999997</ele>
        <time>2013-09-05T12:57:48Z</time>
      </trkpt>
      <trkpt lat="50.759025039151311" lon="15.406083036214113">
        <ele>534.14999999999998</ele>
        <time>2013-09-05T12:57:56Z</time>
      </trkpt>
      <trkpt lat="50.759897008538246" lon="15.404300959780812">
        <ele>504.35000000000002</ele>
        <time>2013-09-05T12:58:06Z</time>
      </trkpt>
      <trkpt lat="50.759972026571631" lon="15.402589961886406">
        <ele>510.60000000000002</ele>
        <time>2013-09-05T12:58:14Z</time>
      </trkpt>
      <trkpt lat="50.760001027956605" lon="15.402410002425313">
        <ele>512.51999999999998</ele>
        <time>2013-09-05T12:58:15Z</time>
      </trkpt>
      <trkpt lat="50.760054001584649" lon="15.402252003550529">
        <ele>513.96000000000004</ele>
        <time>2013-09-05T12:58:16Z</time>
      </trkpt>
      <trkpt lat="50.76009901240468" lon="15.402092998847365">
        <ele>515.39999999999998</ele>
        <time>2013-09-05T12:58:17Z</time>
      </trkpt>
      <trkpt lat="50.760149974375963" lon="15.401945980265737">
        <ele>517.33000000000004</ele>
        <time>2013-09-05T12:58:18Z</time>
      </trkpt>
      <trkpt lat="50.760238990187645" lon="15.401817988604307">
        <ele>519.25</ele>
        <time>2013-09-05T12:58:19Z</time>
      </trkpt>
      <trkpt lat="50.760327000170946" lon="15.401682034134865">
        <ele>522.13</ele>
        <time>2013-09-05T12:58:20Z</time>
      </trkpt>
      <trkpt lat="50.760405035689473" lon="15.401553036645055">
        <ele>524.53999999999996</ele>
        <time>2013-09-05T12:58:21Z</time>
      </trkpt>
      <trkpt lat="50.761529970914125" lon="15.400463975965977">
        <ele>531.75</ele>
        <time>2013-09-05T12:58:31Z</time>
      </trkpt>
      <trkpt lat="50.762607967481017" lon="15.398997981101274">
        <ele>531.75</ele>
        <time>2013-09-05T12:58:41Z</time>
      </trkpt>
      <trkpt lat="50.763487983494997" lon="15.397490998730063">
        <ele>537.50999999999999</ele>
        <time>2013-09-05T12:58:52Z</time>
      </trkpt>
      <trkpt lat="50.763461999595165" lon="15.397301986813545">
        <ele>540.39999999999998</ele>
        <time>2013-09-05T12:58:53Z</time>
      </trkpt>
      <trkpt lat="50.763478009030223" lon="15.397111969068646">
        <ele>541.36000000000001</ele>
        <time>2013-09-05T12:58:55Z</time>
      </trkpt>
      <trkpt lat="50.763455964624882" lon="15.397028988227248">
        <ele>541.84000000000003</ele>
        <time>2013-09-05T12:58:56Z</time>
      </trkpt>
      <trkpt lat="50.763397039845586" lon="15.39692304097116">
        <ele>541.36000000000001</ele>
        <time>2013-09-05T12:58:57Z</time>
      </trkpt>
      <trkpt lat="50.762546025216579" lon="15.395426033064723">
        <ele>570.67999999999995</ele>
        <time>2013-09-05T12:59:04Z</time>
      </trkpt>
      <trkpt lat="50.762482993304729" lon="15.395197039470077">
        <ele>572.12</ele>
        <time>2013-09-05T12:59:05Z</time>
      </trkpt>
      <trkpt lat="50.762380985543132" lon="15.394697980955243">
        <ele>575.00999999999999</ele>
        <time>2013-09-05T12:59:07Z</time>
      </trkpt>
      <trkpt lat="50.7623550016433" lon="15.394416013732553">
        <ele>576.45000000000005</ele>
        <time>2013-09-05T12:59:08Z</time>
      </trkpt>
      <trkpt lat="50.762233966961503" lon="15.392015017569065">
        <ele>584.62</ele>
        <time>2013-09-05T12:59:15Z</time>
      </trkpt>
      <trkpt lat="50.762278977781534" lon="15.390636026859283">
        <ele>590.87</ele>
        <time>2013-09-05T12:59:19Z</time>
      </trkpt>
      <trkpt lat="50.762317031621933" lon="15.390280969440937">
        <ele>591.35000000000002</ele>
        <time>2013-09-05T12:59:20Z</time>
      </trkpt>
      <trkpt lat="50.7623550016433" lon="15.389933958649635">
        <ele>593.26999999999998</ele>
        <time>2013-09-05T12:59:21Z</time>
      </trkpt>
      <trkpt lat="50.762433959171176" lon="15.389602035284042">
        <ele>594.71000000000004</ele>
        <time>2013-09-05T12:59:22Z</time>
      </trkpt>
      <trkpt lat="50.762510988861322" lon="15.389268016442657">
        <ele>596.14999999999998</ele>
        <time>2013-09-05T12:59:23Z</time>
      </trkpt>
      <trkpt lat="50.762618025764823" lon="15.388950007036328">
        <ele>597.12</ele>
        <time>2013-09-05T12:59:24Z</time>
      </trkpt>
      <trkpt lat="50.763208027929068" lon="15.387838985770941">
        <ele>602.88</ele>
        <time>2013-09-05T12:59:28Z</time>
      </trkpt>
      <trkpt lat="50.763389999046922" lon="15.387604963034391">
        <ele>604.33000000000004</ele>
        <time>2013-09-05T12:59:29Z</time>
      </trkpt>
      <trkpt lat="50.763574987649918" lon="15.387379992753267">
        <ele>605.28999999999996</ele>
        <time>2013-09-05T12:59:30Z</time>
      </trkpt>
      <trkpt lat="50.763769028708339" lon="15.387188969179988">
        <ele>606.73000000000002</ele>
        <time>2013-09-05T12:59:31Z</time>
      </trkpt>
      <trkpt lat="50.763961980119348" lon="15.387010015547276">
        <ele>608.16999999999996</ele>
        <time>2013-09-05T12:59:32Z</time>
      </trkpt>
      <trkpt lat="50.764695983380079" lon="15.386522021144629">
        <ele>614.41999999999996</ele>
        <time>2013-09-05T12:59:36Z</time>
      </trkpt>
      <trkpt lat="50.765526965260506" lon="15.386188002303243">
        <ele>624.02999999999997</ele>
        <time>2013-09-05T12:59:41Z</time>
      </trkpt>
      <trkpt lat="50.765640959143639" lon="15.386035032570362">
        <ele>624.02999999999997</ele>
        <time>2013-09-05T12:59:42Z</time>
      </trkpt>
      <trkpt lat="50.765785966068506" lon="15.385870998725295">
        <ele>624.99000000000001</ele>
        <time>2013-09-05T12:59:43Z</time>
      </trkpt>
      <trkpt lat="50.765871964395046" lon="15.385656002908945">
        <ele>625.96000000000004</ele>
        <time>2013-09-05T12:59:44Z</time>
      </trkpt>
      <trkpt lat="50.765940025448799" lon="15.38543296046555">
        <ele>626.44000000000005</ele>
        <time>2013-09-05T12:59:45Z</time>
      </trkpt>
      <trkpt lat="50.765966009348631" lon="15.385206984356046">
        <ele>626.44000000000005</ele>
        <time>2013-09-05T12:59:46Z</time>
      </trkpt>
      <trkpt lat="50.765971038490534" lon="15.385015960782766">
        <ele>626.44000000000005</ele>
        <time>2013-09-05T12:59:47Z</time>
      </trkpt>
      <trkpt lat="50.765953017398715" lon="15.384842036291957">
        <ele>626.44000000000005</ele>
        <time>2013-09-05T12:59:48Z</time>
      </trkpt>
      <trkpt lat="50.7659209985286" lon="15.384705998003483">
        <ele>625.96000000000004</ele>
        <time>2013-09-05T12:59:49Z</time>
      </trkpt>
      <trkpt lat="50.765886968001723" lon="15.384499970823526">
        <ele>625.96000000000004</ele>
        <time>2013-09-05T12:59:51Z</time>
      </trkpt>
      <trkpt lat="50.765939019620419" lon="15.384440962225199">
        <ele>625.47000000000003</ele>
        <time>2013-09-05T12:59:52Z</time>
      </trkpt>
      <trkpt lat="50.766002973541617" lon="15.384393017739058">
        <ele>624.99000000000001</ele>
        <time>2013-09-05T12:59:53Z</time>
      </trkpt>
      <trkpt lat="50.766103975474834" lon="15.384377008304">
        <ele>624.02999999999997</ele>
        <time>2013-09-05T12:59:54Z</time>
      </trkpt>
      <trkpt lat="50.766220986843109" lon="15.384358987212181">
        <ele>623.07000000000005</ele>
        <time>2013-09-05T12:59:55Z</time>
      </trkpt>
      <trkpt lat="50.766475964337587" lon="15.384265026077628">
        <ele>623.54999999999995</ele>
        <time>2013-09-05T12:59:57Z</time>
      </trkpt>
      <trkpt lat="50.766946021467447" lon="15.383848026394844">
        <ele>625.47000000000003</ele>
        <time>2013-09-05T13:00:01Z</time>
      </trkpt>
      <trkpt lat="50.768180005252361" lon="15.382329979911447">
        <ele>628.36000000000001</ele>
        <time>2013-09-05T13:00:12Z</time>
      </trkpt>
      <trkpt lat="50.768695995211601" lon="15.381726985797286">
        <ele>628.36000000000001</ele>
        <time>2013-09-05T13:00:17Z</time>
      </trkpt>
      <trkpt lat="50.768784005194902" lon="15.381577033549547">
        <ele>627.88</ele>
        <time>2013-09-05T13:00:18Z</time>
      </trkpt>
      <trkpt lat="50.768871009349823" lon="15.381420962512493">
        <ele>627.39999999999998</ele>
        <time>2013-09-05T13:00:19Z</time>
      </trkpt>
      <trkpt lat="50.768946027383208" lon="15.381252989172935">
        <ele>626.44000000000005</ele>
        <time>2013-09-05T13:00:20Z</time>
      </trkpt>
      <trkpt lat="50.769020039588213" lon="15.381076969206333">
        <ele>626.44000000000005</ele>
        <time>2013-09-05T13:00:21Z</time>
      </trkpt>
      <trkpt lat="50.769081981852651" lon="15.380892986431718">
        <ele>626.91999999999996</ele>
        <time>2013-09-05T13:00:22Z</time>
      </trkpt>
      <trkpt lat="50.769504010677338" lon="15.37939103320241">
        <ele>633.64999999999998</ele>
        <time>2013-09-05T13:00:30Z</time>
      </trkpt>
      <trkpt lat="50.769503004848957" lon="15.379207972437143">
        <ele>634.61000000000001</ele>
        <time>2013-09-05T13:00:31Z</time>
      </trkpt>
      <trkpt lat="50.769480960443616" lon="15.379045028239489">
        <ele>635.09000000000003</ele>
        <time>2013-09-05T13:00:32Z</time>
      </trkpt>
      <trkpt lat="50.769431004300714" lon="15.378880994394422">
        <ele>635.57000000000005</ele>
        <time>2013-09-05T13:00:33Z</time>
      </trkpt>
      <trkpt lat="50.769364032894373" lon="15.378717966377735">
        <ele>636.04999999999995</ele>
        <time>2013-09-05T13:00:34Z</time>
      </trkpt>
      <trkpt lat="50.769290020689368" lon="15.378560973331332">
        <ele>636.52999999999997</ele>
        <time>2013-09-05T13:00:35Z</time>
      </trkpt>
      <trkpt lat="50.768730025738478" lon="15.377080980688334">
        <ele>643.74000000000001</ele>
        <time>2013-09-05T13:00:43Z</time>
      </trkpt>
      <trkpt lat="50.768488040193915" lon="15.376070039346814">
        <ele>651.42999999999995</ele>
        <time>2013-09-05T13:00:48Z</time>
      </trkpt>
      <trkpt lat="50.768429031595588" lon="15.375883039087057">
        <ele>652.38999999999999</ele>
        <time>2013-09-05T13:00:49Z</time>
      </trkpt>
      <trkpt lat="50.768307996913791" lon="15.375523958355188">
        <ele>653.83000000000004</ele>
        <time>2013-09-05T13:00:51Z</time>
      </trkpt>
      <trkpt lat="50.76828695833683" lon="15.375343998894095">
        <ele>654.79999999999995</ele>
        <time>2013-09-05T13:00:52Z</time>
      </trkpt>
      <trkpt lat="50.76828402467072" lon="15.375149035826325">
        <ele>655.27999999999997</ele>
        <time>2013-09-05T13:00:53Z</time>
      </trkpt>
      <trkpt lat="50.76828695833683" lon="15.374939991161227">
        <ele>656.24000000000001</ele>
        <time>2013-09-05T13:00:54Z</time>
      </trkpt>
      <trkpt lat="50.768302967771888" lon="15.374723989516497">
        <ele>655.75999999999999</ele>
        <time>2013-09-05T13:00:55Z</time>
      </trkpt>
      <trkpt lat="50.768315037712455" lon="15.374490972608328">
        <ele>656.72000000000003</ele>
        <time>2013-09-05T13:00:56Z</time>
      </trkpt>
      <trkpt lat="50.768346972763538" lon="15.372087964788079">
        <ele>664.40999999999997</ele>
        <time>2013-09-05T13:01:07Z</time>
      </trkpt>
      <trkpt lat="50.768365999683738" lon="15.371713964268565">
        <ele>662.97000000000003</ele>
        <time>2013-09-05T13:01:09Z</time>
      </trkpt>
      <trkpt lat="50.768402041867375" lon="15.371578009799123">
        <ele>662.49000000000001</ele>
        <time>2013-09-05T13:01:10Z</time>
      </trkpt>
      <trkpt lat="50.76843598857522" lon="15.371484970673919">
        <ele>663.45000000000005</ele>
        <time>2013-09-05T13:01:11Z</time>
      </trkpt>
      <trkpt lat="50.76852198690176" lon="15.37150701507926">
        <ele>662.97000000000003</ele>
        <time>2013-09-05T13:01:12Z</time>
      </trkpt>
      <trkpt lat="50.768569009378552" lon="15.371577003970742">
        <ele>662.97000000000003</ele>
        <time>2013-09-05T13:01:13Z</time>
      </trkpt>
      <trkpt lat="50.768591975793242" lon="15.371724022552371">
        <ele>663.92999999999995</ele>
        <time>2013-09-05T13:01:14Z</time>
      </trkpt>
      <trkpt lat="50.768598010763526" lon="15.371893001720309">
        <ele>664.88999999999999</ele>
        <time>2013-09-05T13:01:15Z</time>
      </trkpt>
      <trkpt lat="50.768598010763526" lon="15.372073967009783">
        <ele>664.88999999999999</ele>
        <time>2013-09-05T13:01:16Z</time>
      </trkpt>
      <trkpt lat="50.768625000491738" lon="15.372564978897572">
        <ele>665.85000000000002</ele>
        <time>2013-09-05T13:01:19Z</time>
      </trkpt>
      <trkpt lat="50.768645033240318" lon="15.372621975839138">
        <ele>666.33000000000004</ele>
        <time>2013-09-05T13:01:20Z</time>
      </trkpt>
      <trkpt lat="50.768804037943482" lon="15.372418966144323">
        <ele>667.28999999999996</ele>
        <time>2013-09-05T13:01:23Z</time>
      </trkpt>
      <trkpt lat="50.768839996308088" lon="15.372271025553346">
        <ele>668.25</ele>
        <time>2013-09-05T13:01:24Z</time>
      </trkpt>
      <trkpt lat="50.768876038491726" lon="15.372104980051517">
        <ele>668.73000000000002</ele>
        <time>2013-09-05T13:01:25Z</time>
      </trkpt>
      <trkpt lat="50.769043006002903" lon="15.371005022898316">
        <ele>674.01999999999998</ele>
        <time>2013-09-05T13:01:31Z</time>
      </trkpt>
      <trkpt lat="50.769029008224607" lon="15.370792960748076">
        <ele>675.46000000000004</ele>
        <time>2013-09-05T13:01:32Z</time>
      </trkpt>
      <trkpt lat="50.769049040973186" lon="15.370387025177479">
        <ele>674.98000000000002</ele>
        <time>2013-09-05T13:01:34Z</time>
      </trkpt>
      <trkpt lat="50.769063038751483" lon="15.370176974684">
        <ele>675.46000000000004</ele>
        <time>2013-09-05T13:01:35Z</time>
      </trkpt>
      <trkpt lat="50.769079970195889" lon="15.369963990524411">
        <ele>677.38999999999999</ele>
        <time>2013-09-05T13:01:36Z</time>
      </trkpt>
      <trkpt lat="50.769202010706067" lon="15.368717014789581">
        <ele>681.23000000000002</ele>
        <time>2013-09-05T13:01:42Z</time>
      </trkpt>
      <trkpt lat="50.769244004040956" lon="15.368524985387921">
        <ele>681.71000000000004</ele>
        <time>2013-09-05T13:01:43Z</time>
      </trkpt>
      <trkpt lat="50.769625967368484" lon="15.366670992225409">
        <ele>681.23000000000002</ele>
        <time>2013-09-05T13:01:52Z</time>
      </trkpt>
      <trkpt lat="50.769850015640259" lon="15.364656988531351">
        <ele>683.14999999999998</ele>
        <time>2013-09-05T13:02:02Z</time>
      </trkpt>
      <trkpt lat="50.770018994808197" lon="15.363171966746449">
        <ele>681.23000000000002</ele>
        <time>2013-09-05T13:02:10Z</time>
      </trkpt>
      <trkpt lat="50.770043972879648" lon="15.363054033368826">
        <ele>681.23000000000002</ele>
        <time>2013-09-05T13:02:11Z</time>
      </trkpt>
      <trkpt lat="50.770126031711698" lon="15.362998964264989">
        <ele>680.75</ele>
        <time>2013-09-05T13:02:12Z</time>
      </trkpt>
      <trkpt lat="50.770209012553096" lon="15.362968035042286">
        <ele>680.75</ele>
        <time>2013-09-05T13:02:13Z</time>
      </trkpt>
      <trkpt lat="50.770285958424211" lon="15.362946996465325">
        <ele>680.75</ele>
        <time>2013-09-05T13:02:14Z</time>
      </trkpt>
      <trkpt lat="50.770355025306344" lon="15.362937022000551">
        <ele>681.71000000000004</ele>
        <time>2013-09-05T13:02:15Z</time>
      </trkpt>
      <trkpt lat="50.770749980583787" lon="15.362964011728764">
        <ele>684.12</ele>
        <time>2013-09-05T13:02:20Z</time>
      </trkpt>
      <trkpt lat="50.770832961425185" lon="15.363036012277007">
        <ele>684.60000000000002</ele>
        <time>2013-09-05T13:02:21Z</time>
      </trkpt>
      <trkpt lat="50.770905967801809" lon="15.363155035302043">
        <ele>685.08000000000004</ele>
        <time>2013-09-05T13:02:22Z</time>
      </trkpt>
      <trkpt lat="50.770961036905646" lon="15.363302975893021">
        <ele>685.55999999999995</ele>
        <time>2013-09-05T13:02:23Z</time>
      </trkpt>
      <trkpt lat="50.771007975563407" lon="15.363477990031242">
        <ele>686.03999999999996</ele>
        <time>2013-09-05T13:02:24Z</time>
      </trkpt>
      <trkpt lat="50.77101401053369" lon="15.363670019432902">
        <ele>687</ele>
        <time>2013-09-05T13:02:25Z</time>
      </trkpt>
      <trkpt lat="50.771015016362071" lon="15.363870011642575">
        <ele>687.48000000000002</ele>
        <time>2013-09-05T13:02:26Z</time>
      </trkpt>
      <trkpt lat="50.771009987220168" lon="15.364075032994151">
        <ele>687.96000000000004</ele>
        <time>2013-09-05T13:02:27Z</time>
      </trkpt>
      <trkpt lat="50.770939998328686" lon="15.365049010142684">
        <ele>693.25</ele>
        <time>2013-09-05T13:02:32Z</time>
      </trkpt>
      <trkpt lat="50.770965982228518" lon="15.365196028724313">
        <ele>694.69000000000005</ele>
        <time>2013-09-05T13:02:33Z</time>
      </trkpt>
      <trkpt lat="50.771007975563407" lon="15.365308010950685">
        <ele>695.64999999999998</ele>
        <time>2013-09-05T13:02:34Z</time>
      </trkpt>
      <trkpt lat="50.771103026345372" lon="15.365348998457193">
        <ele>696.61000000000001</ele>
        <time>2013-09-05T13:02:35Z</time>
      </trkpt>
      <trkpt lat="50.771190030500293" lon="15.365311028435826">
        <ele>698.04999999999995</ele>
        <time>2013-09-05T13:02:36Z</time>
      </trkpt>
      <trkpt lat="50.771261025220156" lon="15.365197034552693">
        <ele>698.52999999999997</ele>
        <time>2013-09-05T13:02:37Z</time>
      </trkpt>
      <trkpt lat="50.771335959434509" lon="15.365065019577742">
        <ele>698.52999999999997</ele>
        <time>2013-09-05T13:02:38Z</time>
      </trkpt>
      <trkpt lat="50.771413994953036" lon="15.364923030138016">
        <ele>699.01999999999998</ele>
        <time>2013-09-05T13:02:39Z</time>
      </trkpt>
      <trkpt lat="50.771496975794435" lon="15.364775005728006">
        <ele>699.98000000000002</ele>
        <time>2013-09-05T13:02:40Z</time>
      </trkpt>
      <trkpt lat="50.771811967715621" lon="15.363949974998832">
        <ele>700.94000000000005</ele>
        <time>2013-09-05T13:02:45Z</time>
      </trkpt>
      <trkpt lat="50.771852033212781" lon="15.363753000274301">
        <ele>700.94000000000005</ele>
        <time>2013-09-05T13:02:46Z</time>
      </trkpt>
      <trkpt lat="50.772357964888215" lon="15.36153799854219">
        <ele>701.41999999999996</ele>
        <time>2013-09-05T13:02:57Z</time>
      </trkpt>
      <trkpt lat="50.772648984566331" lon="15.360601991415024">
        <ele>704.77999999999997</ele>
        <time>2013-09-05T13:03:02Z</time>
      </trkpt>
      <trkpt lat="50.772731965407729" lon="15.36044399254024">
        <ele>704.77999999999997</ele>
        <time>2013-09-05T13:03:03Z</time>
      </trkpt>
      <trkpt lat="50.772808995097876" lon="15.360289011150599">
        <ele>705.75</ele>
        <time>2013-09-05T13:03:04Z</time>
      </trkpt>
      <trkpt lat="50.772870015352964" lon="15.360109973698854">
        <ele>707.19000000000005</ele>
        <time>2013-09-05T13:03:05Z</time>
      </trkpt>
      <trkpt lat="50.772913014516234" lon="15.359912998974323">
        <ele>707.19000000000005</ele>
        <time>2013-09-05T13:03:06Z</time>
      </trkpt>
      <trkpt lat="50.772933969274163" lon="15.359696997329593">
        <ele>708.63</ele>
        <time>2013-09-05T13:03:07Z</time>
      </trkpt>
      <trkpt lat="50.77294603921473" lon="15.359472027048469">
        <ele>710.07000000000005</ele>
        <time>2013-09-05T13:03:08Z</time>
      </trkpt>
      <trkpt lat="50.772955007851124" lon="15.359234986826777">
        <ele>711.02999999999997</ele>
        <time>2013-09-05T13:03:09Z</time>
      </trkpt>
      <trkpt lat="50.773121975362301" lon="15.356943039223552">
        <ele>722.09000000000003</ele>
        <time>2013-09-05T13:03:20Z</time>
      </trkpt>
      <trkpt lat="50.773131027817726" lon="15.356158996000886">
        <ele>727.37</ele>
        <time>2013-09-05T13:03:24Z</time>
      </trkpt>
      <trkpt lat="50.77303203754127" lon="15.35410400480032">
        <ele>737.95000000000005</ele>
        <time>2013-09-05T13:03:34Z</time>
      </trkpt>
      <trkpt lat="50.772960959002376" lon="15.353711983188987">
        <ele>740.35000000000002</ele>
        <time>2013-09-05T13:03:36Z</time>
      </trkpt>
      <trkpt lat="50.772912008687854" lon="15.353523977100849">
        <ele>741.78999999999996</ele>
        <time>2013-09-05T13:03:37Z</time>
      </trkpt>
      <trkpt lat="50.772749986499548" lon="15.352754015475512">
        <ele>745.63999999999999</ele>
        <time>2013-09-05T13:03:41Z</time>
      </trkpt>
      <trkpt lat="50.772663988173008" lon="15.352152027189732">
        <ele>749</ele>
        <time>2013-09-05T13:03:44Z</time>
      </trkpt>
      <trkpt lat="50.772618977352977" lon="15.351955974474549">
        <ele>749.49000000000001</ele>
        <time>2013-09-05T13:03:45Z</time>
      </trkpt>
      <trkpt lat="50.772551000118256" lon="15.351775009185076">
        <ele>750.45000000000005</ele>
        <time>2013-09-05T13:03:46Z</time>
      </trkpt>
      <trkpt lat="50.771913975477219" lon="15.349727980792522">
        <ele>755.25</ele>
        <time>2013-09-05T13:03:57Z</time>
      </trkpt>
      <trkpt lat="50.771491024643183" lon="15.347912041470408">
        <ele>760.53999999999996</ele>
        <time>2013-09-05T13:04:07Z</time>
      </trkpt>
      <trkpt lat="50.771174021065235" lon="15.346887018531561">
        <ele>761.5</ele>
        <time>2013-09-05T13:04:14Z</time>
      </trkpt>
      <trkpt lat="50.771151976659894" lon="15.346765983849764">
        <ele>762.46000000000004</ele>
        <time>2013-09-05T13:04:15Z</time>
      </trkpt>
      <trkpt lat="50.7711620349437" lon="15.346629023551941">
        <ele>763.41999999999996</ele>
        <time>2013-09-05T13:04:16Z</time>
      </trkpt>
      <trkpt lat="50.77118500135839" lon="15.346488039940596">
        <ele>764.38999999999999</ele>
        <time>2013-09-05T13:04:17Z</time>
      </trkpt>
      <trkpt lat="50.771212996914983" lon="15.346341021358967">
        <ele>763.89999999999998</ele>
        <time>2013-09-05T13:04:18Z</time>
      </trkpt>
      <trkpt lat="50.771325984969735" lon="15.345839029178023">
        <ele>762.46000000000004</ele>
        <time>2013-09-05T13:04:22Z</time>
      </trkpt>
      <trkpt lat="50.771389016881585" lon="15.345764011144638">
        <ele>762.46000000000004</ele>
        <time>2013-09-05T13:04:23Z</time>
      </trkpt>
      <trkpt lat="50.771459005773067" lon="15.345697961747646">
        <ele>763.41999999999996</ele>
        <time>2013-09-05T13:04:24Z</time>
      </trkpt>
      <trkpt lat="50.771543998271227" lon="15.34563903696835">
        <ele>763.89999999999998</ele>
        <time>2013-09-05T13:04:25Z</time>
      </trkpt>
      <trkpt lat="50.771654974669218" lon="15.345571981742978">
        <ele>763.89999999999998</ele>
        <time>2013-09-05T13:04:26Z</time>
      </trkpt>
      <trkpt lat="50.772437006235123" lon="15.344949038699269">
        <ele>759.10000000000002</ele>
        <time>2013-09-05T13:04:33Z</time>
      </trkpt>
      <trkpt lat="50.772530967369676" lon="15.344811994582415">
        <ele>758.13999999999999</ele>
        <time>2013-09-05T13:04:34Z</time>
      </trkpt>
      <trkpt lat="50.772611014544964" lon="15.344665981829166">
        <ele>757.65999999999997</ele>
        <time>2013-09-05T13:04:35Z</time>
      </trkpt>
      <trkpt lat="50.772692989557981" lon="15.344514017924666">
        <ele>756.69000000000005</ele>
        <time>2013-09-05T13:04:36Z</time>
      </trkpt>
      <trkpt lat="50.772749986499548" lon="15.344345960766077">
        <ele>755.73000000000002</ele>
        <time>2013-09-05T13:04:37Z</time>
      </trkpt>
      <trkpt lat="50.772807989269495" lon="15.344166001304984">
        <ele>753.80999999999995</ele>
        <time>2013-09-05T13:04:38Z</time>
      </trkpt>
      <trkpt lat="50.772849982604384" lon="15.343967014923692">
        <ele>751.88999999999999</ele>
        <time>2013-09-05T13:04:39Z</time>
      </trkpt>
      <trkpt lat="50.772874960675836" lon="15.343757970258594">
        <ele>751.88999999999999</ele>
        <time>2013-09-05T13:04:40Z</time>
      </trkpt>
      <trkpt lat="50.77288300730288" lon="15.343538029119372">
        <ele>750.92999999999995</ele>
        <time>2013-09-05T13:04:41Z</time>
      </trkpt>
      <trkpt lat="50.7728820014745" lon="15.343318004161119">
        <ele>749.97000000000003</ele>
        <time>2013-09-05T13:04:42Z</time>
      </trkpt>
      <trkpt lat="50.772873032838106" lon="15.343089010566473">
        <ele>749</ele>
        <time>2013-09-05T13:04:43Z</time>
      </trkpt>
      <trkpt lat="50.772790974006057" lon="15.341065032407641">
        <ele>743.24000000000001</ele>
        <time>2013-09-05T13:04:51Z</time>
      </trkpt>
      <trkpt lat="50.772876972332597" lon="15.339891985058784">
        <ele>737.47000000000003</ele>
        <time>2013-09-05T13:04:56Z</time>
      </trkpt>
      <trkpt lat="50.772936986759305" lon="15.339699033647776">
        <ele>736.50999999999999</ele>
        <time>2013-09-05T13:04:57Z</time>
      </trkpt>
      <trkpt lat="50.773041006177664" lon="15.339534999802709">
        <ele>735.54999999999995</ele>
        <time>2013-09-05T13:04:58Z</time>
      </trkpt>
      <trkpt lat="50.773164974525571" lon="15.339398039504886">
        <ele>734.58000000000004</ele>
        <time>2013-09-05T13:04:59Z</time>
      </trkpt>
      <trkpt lat="50.773280980065465" lon="15.339278010651469">
        <ele>734.10000000000002</ele>
        <time>2013-09-05T13:05:00Z</time>
      </trkpt>
      <trkpt lat="50.774442041292787" lon="15.338205965235829">
        <ele>724.97000000000003</ele>
        <time>2013-09-05T13:05:08Z</time>
      </trkpt>
      <trkpt lat="50.774997007101774" lon="15.337606994435191">
        <ele>719.67999999999995</ele>
        <time>2013-09-05T13:05:12Z</time>
      </trkpt>
      <trkpt lat="50.775172021239996" lon="15.337527031078935">
        <ele>717.75999999999999</ele>
        <time>2013-09-05T13:05:13Z</time>
      </trkpt>
      <trkpt lat="50.775323985144496" lon="15.337463999167085">
        <ele>716.32000000000005</ele>
        <time>2013-09-05T13:05:14Z</time>
      </trkpt>
      <trkpt lat="50.775752970948815" lon="15.337301976978779">
        <ele>710.54999999999995</ele>
        <time>2013-09-05T13:05:17Z</time>
      </trkpt>
      <trkpt lat="50.775892026722431" lon="15.337178008630872">
        <ele>709.59000000000003</ele>
        <time>2013-09-05T13:05:18Z</time>
      </trkpt>
      <trkpt lat="50.776012977585196" lon="15.337026966735721">
        <ele>708.63</ele>
        <time>2013-09-05T13:05:19Z</time>
      </trkpt>
      <trkpt lat="50.776611026376486" lon="15.335850985720754">
        <ele>700.94000000000005</ele>
        <time>2013-09-05T13:05:25Z</time>
      </trkpt>
      <trkpt lat="50.776631981134415" lon="15.335633978247643">
        <ele>699.98000000000002</ele>
        <time>2013-09-05T13:05:26Z</time>
      </trkpt>
      <trkpt lat="50.776605997234583" lon="15.335388975217938">
        <ele>699.98000000000002</ele>
        <time>2013-09-05T13:05:27Z</time>
      </trkpt>
      <trkpt lat="50.776608008891344" lon="15.335195017978549">
        <ele>699.5</ele>
        <time>2013-09-05T13:05:28Z</time>
      </trkpt>
      <trkpt lat="50.776636004447937" lon="15.335008017718792">
        <ele>698.52999999999997</ele>
        <time>2013-09-05T13:05:29Z</time>
      </trkpt>
      <trkpt lat="50.776681015267968" lon="15.334844989702106">
        <ele>697.09000000000003</ele>
        <time>2013-09-05T13:05:30Z</time>
      </trkpt>
      <trkpt lat="50.776743041351438" lon="15.33470400609076">
        <ele>696.13</ele>
        <time>2013-09-05T13:05:31Z</time>
      </trkpt>
      <trkpt lat="50.776811018586159" lon="15.334579031914473">
        <ele>695.16999999999996</ele>
        <time>2013-09-05T13:05:32Z</time>
      </trkpt>
      <trkpt lat="50.776893999427557" lon="15.334469983354211">
        <ele>694.69000000000005</ele>
        <time>2013-09-05T13:05:33Z</time>
      </trkpt>
      <trkpt lat="50.776987038552761" lon="15.334371998906136">
        <ele>693.73000000000002</ele>
        <time>2013-09-05T13:05:34Z</time>
      </trkpt>
      <trkpt lat="50.777089968323708" lon="15.334290023893118">
        <ele>692.76999999999998</ele>
        <time>2013-09-05T13:05:35Z</time>
      </trkpt>
      <trkpt lat="50.777197005227208" lon="15.334215005859733">
        <ele>691.80999999999995</ele>
        <time>2013-09-05T13:05:36Z</time>
      </trkpt>
      <trkpt lat="50.777303036302328" lon="15.334149962291121">
        <ele>690.84000000000003</ele>
        <time>2013-09-05T13:05:37Z</time>
      </trkpt>
      <trkpt lat="50.777408983558416" lon="15.334109980612993">
        <ele>689.88</ele>
        <time>2013-09-05T13:05:38Z</time>
      </trkpt>
      <trkpt lat="50.777529012411833" lon="15.334089025855064">
        <ele>689.39999999999998</ele>
        <time>2013-09-05T13:05:39Z</time>
      </trkpt>
      <trkpt lat="50.777730010449886" lon="15.334013001993299">
        <ele>692.28999999999996</ele>
        <time>2013-09-05T13:05:41Z</time>
      </trkpt>
      <trkpt lat="50.778201995417476" lon="15.333719970658422">
        <ele>690.84000000000003</ele>
        <time>2013-09-05T13:05:45Z</time>
      </trkpt>
      <trkpt lat="50.778292017057538" lon="15.333706978708506">
        <ele>691.33000000000004</ele>
        <time>2013-09-05T13:05:46Z</time>
      </trkpt>
      <trkpt lat="50.778374997898936" lon="15.333744026720524">
        <ele>691.80999999999995</ele>
        <time>2013-09-05T13:05:47Z</time>
      </trkpt>
      <trkpt lat="50.778463007882237" lon="15.333805968984962">
        <ele>692.76999999999998</ele>
        <time>2013-09-05T13:05:48Z</time>
      </trkpt>
      <trkpt lat="50.778590999543667" lon="15.333898002281785">
        <ele>692.76999999999998</ele>
        <time>2013-09-05T13:05:49Z</time>
      </trkpt>
      <trkpt lat="50.778978997841477" lon="15.334023982286453">
        <ele>696.13</ele>
        <time>2013-09-05T13:05:52Z</time>
      </trkpt>
      <trkpt lat="50.779104977846146" lon="15.333999004215002">
        <ele>697.09000000000003</ele>
        <time>2013-09-05T13:05:53Z</time>
      </trkpt>
      <trkpt lat="50.779212014749646" lon="15.333891967311502">
        <ele>695.16999999999996</ele>
        <time>2013-09-05T13:05:54Z</time>
      </trkpt>
      <trkpt lat="50.779262976720929" lon="15.33373799175024">
        <ele>694.21000000000004</ele>
        <time>2013-09-05T13:05:55Z</time>
      </trkpt>
      <trkpt lat="50.779325002804399" lon="15.333610000088811">
        <ele>692.28999999999996</ele>
        <time>2013-09-05T13:05:56Z</time>
      </trkpt>
      <trkpt lat="50.779337994754314" lon="15.333426017314196">
        <ele>692.28999999999996</ele>
        <time>2013-09-05T13:05:57Z</time>
      </trkpt>
      <trkpt lat="50.779339000582695" lon="15.333247985690832">
        <ele>692.76999999999998</ele>
        <time>2013-09-05T13:05:58Z</time>
      </trkpt>
      <trkpt lat="50.779331037774682" lon="15.333058973774314">
        <ele>692.28999999999996</ele>
        <time>2013-09-05T13:05:59Z</time>
      </trkpt>
      <trkpt lat="50.779274040833116" lon="15.332871973514557">
        <ele>692.28999999999996</ele>
        <time>2013-09-05T13:06:00Z</time>
      </trkpt>
      <trkpt lat="50.77917899005115" lon="15.332695031538606">
        <ele>692.28999999999996</ele>
        <time>2013-09-05T13:06:01Z</time>
      </trkpt>
      <trkpt lat="50.779053010046482" lon="15.332523034885526">
        <ele>691.80999999999995</ele>
        <time>2013-09-05T13:06:02Z</time>
      </trkpt>
      <trkpt lat="50.77890096232295" lon="15.332359001040459">
        <ele>691.33000000000004</ele>
        <time>2013-09-05T13:06:03Z</time>
      </trkpt>
      <trkpt lat="50.778765007853508" lon="15.332208964973688">
        <ele>690.84000000000003</ele>
        <time>2013-09-05T13:06:04Z</time>
      </trkpt>
      <trkpt lat="50.778517993167043" lon="15.331900008022785">
        <ele>690.36000000000001</ele>
        <time>2013-09-05T13:06:06Z</time>
      </trkpt>
      <trkpt lat="50.77806101180613" lon="15.331209003925323">
        <ele>688.44000000000005</ele>
        <time>2013-09-05T13:06:11Z</time>
      </trkpt>
      <trkpt lat="50.77801801264286" lon="15.331082018092275">
        <ele>687.96000000000004</ele>
        <time>2013-09-05T13:06:12Z</time>
      </trkpt>
      <trkpt lat="50.778032010421157" lon="15.330915972590446">
        <ele>684.60000000000002</ele>
        <time>2013-09-05T13:06:13Z</time>
      </trkpt>
      <trkpt lat="50.778092024847865" lon="15.330797033384442">
        <ele>684.12</ele>
        <time>2013-09-05T13:06:14Z</time>
      </trkpt>
      <trkpt lat="50.778150027617812" lon="15.330684967339039">
        <ele>683.63</ele>
        <time>2013-09-05T13:06:15Z</time>
      </trkpt>
      <trkpt lat="50.778219010680914" lon="15.330570973455906">
        <ele>682.19000000000005</ele>
        <time>2013-09-05T13:06:16Z</time>
      </trkpt>
      <trkpt lat="50.77829604037106" lon="15.330456979572773">
        <ele>679.78999999999996</ele>
        <time>2013-09-05T13:06:17Z</time>
      </trkpt>
      <trkpt lat="50.778672974556684" lon="15.330008966848254">
        <ele>674.98000000000002</ele>
        <time>2013-09-05T13:06:22Z</time>
      </trkpt>
      <trkpt lat="50.778779005631804" lon="15.329930009320378">
        <ele>674.01999999999998</ele>
        <time>2013-09-05T13:06:23Z</time>
      </trkpt>
      <trkpt lat="50.77889802865684" lon="15.329861026257277">
        <ele>672.58000000000004</ele>
        <time>2013-09-05T13:06:24Z</time>
      </trkpt>
      <trkpt lat="50.77900598756969" lon="15.329757006838918">
        <ele>672.10000000000002</ele>
        <time>2013-09-05T13:06:25Z</time>
      </trkpt>
      <trkpt lat="50.779107995331287" lon="15.329651981592178">
        <ele>672.10000000000002</ele>
        <time>2013-09-05T13:06:26Z</time>
      </trkpt>
      <trkpt lat="50.78003796748817" lon="15.328609021380544">
        <ele>669.70000000000005</ele>
        <time>2013-09-05T13:06:34Z</time>
      </trkpt>
      <trkpt lat="50.780381038784981" lon="15.328237032517791">
        <ele>672.10000000000002</ele>
        <time>2013-09-05T13:06:37Z</time>
      </trkpt>
      <trkpt lat="50.78046502545476" lon="15.328097976744175">
        <ele>672.58000000000004</ele>
        <time>2013-09-05T13:06:38Z</time>
      </trkpt>
      <trkpt lat="50.780535014346242" lon="15.327950036153197">
        <ele>673.53999999999996</ele>
        <time>2013-09-05T13:06:39Z</time>
      </trkpt>
      <trkpt lat="50.78057499602437" lon="15.327772004529834">
        <ele>674.98000000000002</ele>
        <time>2013-09-05T13:06:40Z</time>
      </trkpt>
      <trkpt lat="50.78059502877295" lon="15.327564971521497">
        <ele>675.94000000000005</ele>
        <time>2013-09-05T13:06:41Z</time>
      </trkpt>
      <trkpt lat="50.780622018501163" lon="15.327372020110488">
        <ele>677.38999999999999</ele>
        <time>2013-09-05T13:06:42Z</time>
      </trkpt>
      <trkpt lat="50.78068102709949" lon="15.327232964336872">
        <ele>678.35000000000002</ele>
        <time>2013-09-05T13:06:43Z</time>
      </trkpt>
      <trkpt lat="50.780815975740552" lon="15.3271209821105">
        <ele>680.26999999999998</ele>
        <time>2013-09-05T13:06:45Z</time>
      </trkpt>
      <trkpt lat="50.780837014317513" lon="15.32716297544539">
        <ele>682.66999999999996</ele>
        <time>2013-09-05T13:06:46Z</time>
      </trkpt>
      <trkpt lat="50.780865009874105" lon="15.32724604010582">
        <ele>683.63</ele>
        <time>2013-09-05T13:06:47Z</time>
      </trkpt>
      <trkpt lat="50.78087599016726" lon="15.327322985976934">
        <ele>684.60000000000002</ele>
        <time>2013-09-05T13:06:48Z</time>
      </trkpt>
      <trkpt lat="50.780861992388964" lon="15.327468998730183">
        <ele>685.08000000000004</ele>
        <time>2013-09-05T13:06:49Z</time>
      </trkpt>
      <trkpt lat="50.780842965468764" lon="15.327652981504798">
        <ele>685.55999999999995</ele>
        <time>2013-09-05T13:06:50Z</time>
      </trkpt>
      <trkpt lat="50.780825028195977" lon="15.327835958451033">
        <ele>685.55999999999995</ele>
        <time>2013-09-05T13:06:51Z</time>
      </trkpt>
      <trkpt lat="50.780741041526198" lon="15.32814902253449">
        <ele>687</ele>
        <time>2013-09-05T13:06:52Z</time>
      </trkpt>
      <trkpt lat="50.780662000179291" lon="15.328357983380556">
        <ele>687.48000000000002</ele>
        <time>2013-09-05T13:06:53Z</time>
      </trkpt>
      <trkpt lat="50.780559992417693" lon="15.328592006117105">
        <ele>687.96000000000004</ele>
        <time>2013-09-05T13:06:54Z</time>
      </trkpt>
      <trkpt lat="50.780474999919534" lon="15.328789986670017">
        <ele>688.91999999999996</ele>
        <time>2013-09-05T13:06:55Z</time>
      </trkpt>
      <trkpt lat="50.780246006324887" lon="15.329305976629257">
        <ele>690.36000000000001</ele>
        <time>2013-09-05T13:06:58Z</time>
      </trkpt>
      <trkpt lat="50.780199989676476" lon="15.329492976889014">
        <ele>690.84000000000003</ele>
        <time>2013-09-05T13:06:59Z</time>
      </trkpt>
      <trkpt lat="50.780176017433405" lon="15.329706966876984">
        <ele>691.33000000000004</ele>
        <time>2013-09-05T13:07:00Z</time>
      </trkpt>
      <trkpt lat="50.78018800355494" lon="15.330453040078282">
        <ele>692.28999999999996</ele>
        <time>2013-09-05T13:07:04Z</time>
      </trkpt>
      <trkpt lat="50.780245000496507" lon="15.330511964857578">
        <ele>693.73000000000002</ele>
        <time>2013-09-05T13:07:05Z</time>
      </trkpt>
      <trkpt lat="50.78031700104475" lon="15.330513976514339">
        <ele>694.21000000000004</ele>
        <time>2013-09-05T13:07:06Z</time>
      </trkpt>
      <trkpt lat="50.780367963016033" lon="15.330456979572773">
        <ele>695.16999999999996</ele>
        <time>2013-09-05T13:07:07Z</time>
      </trkpt>
      <trkpt lat="50.780395036563277" lon="15.330352038145065">
        <ele>695.64999999999998</ele>
        <time>2013-09-05T13:07:08Z</time>
      </trkpt>
      <trkpt lat="50.780405011028051" lon="15.330202002078295">
        <ele>696.13</ele>
        <time>2013-09-05T13:07:09Z</time>
      </trkpt>
      <trkpt lat="50.780353965237737" lon="15.330037968233228">
        <ele>697.09000000000003</ele>
        <time>2013-09-05T13:07:10Z</time>
      </trkpt>
      <trkpt lat="50.780350025743246" lon="15.329874018207192">
        <ele>696.13</ele>
        <time>2013-09-05T13:07:11Z</time>
      </trkpt>
      <trkpt lat="50.780406016856432" lon="15.329736974090338">
        <ele>697.09000000000003</ele>
        <time>2013-09-05T13:07:12Z</time>
      </trkpt>
      <trkpt lat="50.780476005747914" lon="15.329623986035585">
        <ele>697.09000000000003</ele>
        <time>2013-09-05T13:07:13Z</time>
      </trkpt>
      <trkpt lat="50.780553035438061" lon="15.329504041001201">
        <ele>698.04999999999995</ele>
        <time>2013-09-05T13:07:14Z</time>
      </trkpt>
      <trkpt lat="50.781185030937195" lon="15.328698037192225">
        <ele>705.75</ele>
        <time>2013-09-05T13:07:20Z</time>
      </trkpt>
      <trkpt lat="50.781302964314818" lon="15.328616984188557">
        <ele>706.23000000000002</ele>
        <time>2013-09-05T13:07:21Z</time>
      </trkpt>
      <trkpt lat="50.781426010653377" lon="15.328554958105087">
        <ele>707.66999999999996</ele>
        <time>2013-09-05T13:07:22Z</time>
      </trkpt>
      <trkpt lat="50.781545033678412" lon="15.328486980870366">
        <ele>709.11000000000001</ele>
        <time>2013-09-05T13:07:23Z</time>
      </trkpt>
      <trkpt lat="50.781655004248023" lon="15.328401988372207">
        <ele>710.07000000000005</ele>
        <time>2013-09-05T13:07:24Z</time>
      </trkpt>
      <trkpt lat="50.781747037544847" lon="15.328304003924131">
        <ele>711.99000000000001</ele>
        <time>2013-09-05T13:07:25Z</time>
      </trkpt>
      <trkpt lat="50.781810991466045" lon="15.32819202169776">
        <ele>712.95000000000005</ele>
        <time>2013-09-05T13:07:26Z</time>
      </trkpt>
      <trkpt lat="50.781856002286077" lon="15.328056989237666">
        <ele>714.88</ele>
        <time>2013-09-05T13:07:27Z</time>
      </trkpt>
      <trkpt lat="50.781882992014289" lon="15.327883986756206">
        <ele>715.84000000000003</ele>
        <time>2013-09-05T13:07:28Z</time>
      </trkpt>
      <trkpt lat="50.781897995620966" lon="15.327687012031674">
        <ele>717.75999999999999</ele>
        <time>2013-09-05T13:07:29Z</time>
      </trkpt>
      <trkpt lat="50.781924985349178" lon="15.327488025650382">
        <ele>719.20000000000005</ele>
        <time>2013-09-05T13:07:30Z</time>
      </trkpt>
      <trkpt lat="50.781974019482732" lon="15.327281998470426">
        <ele>720.15999999999997</ele>
        <time>2013-09-05T13:07:31Z</time>
      </trkpt>
      <trkpt lat="50.781996985897422" lon="15.327068008482456">
        <ele>721.61000000000001</ele>
        <time>2013-09-05T13:07:32Z</time>
      </trkpt>
      <trkpt lat="50.782073009759188" lon="15.326198972761631">
        <ele>726.88999999999999</ele>
        <time>2013-09-05T13:07:36Z</time>
      </trkpt>
      <trkpt lat="50.782121960073709" lon="15.325992023572326">
        <ele>726.40999999999997</ele>
        <time>2013-09-05T13:07:37Z</time>
      </trkpt>
      <trkpt lat="50.782864009961486" lon="15.323607958853245">
        <ele>729.77999999999997</ele>
        <time>2013-09-05T13:07:49Z</time>
      </trkpt>
      <trkpt lat="50.783083029091358" lon="15.323024997487664">
        <ele>730.74000000000001</ele>
        <time>2013-09-05T13:07:52Z</time>
      </trkpt>
      <trkpt lat="50.783188976347446" lon="15.322860041633248">
        <ele>731.22000000000003</ele>
        <time>2013-09-05T13:07:53Z</time>
      </trkpt>
      <trkpt lat="50.78330397605896" lon="15.322703970596194">
        <ele>731.70000000000005</ele>
        <time>2013-09-05T13:07:54Z</time>
      </trkpt>
      <trkpt lat="50.783435991033912" lon="15.322576984763145">
        <ele>732.65999999999997</ele>
        <time>2013-09-05T13:07:55Z</time>
      </trkpt>
      <trkpt lat="50.78356197103858" lon="15.322451004758477">
        <ele>733.62</ele>
        <time>2013-09-05T13:07:56Z</time>
      </trkpt>
      <trkpt lat="50.783703038468957" lon="15.322345979511738">
        <ele>734.58000000000004</ele>
        <time>2013-09-05T13:07:57Z</time>
      </trkpt>
      <trkpt lat="50.783964972943068" lon="15.322108017280698">
        <ele>737.47000000000003</ele>
        <time>2013-09-05T13:07:59Z</time>
      </trkpt>
      <trkpt lat="50.784457996487617" lon="15.321605019271374">
        <ele>741.30999999999995</ele>
        <time>2013-09-05T13:08:03Z</time>
      </trkpt>
      <trkpt lat="50.784590011462569" lon="15.321514997631311">
        <ele>741.78999999999996</ele>
        <time>2013-09-05T13:08:04Z</time>
      </trkpt>
      <trkpt lat="50.785984005779028" lon="15.320832962170243">
        <ele>740.83000000000004</ele>
        <time>2013-09-05T13:08:14Z</time>
      </trkpt>
      <trkpt lat="50.786536959931254" lon="15.320616960525513">
        <ele>739.38999999999999</ele>
        <time>2013-09-05T13:08:18Z</time>
      </trkpt>
      <trkpt lat="50.786670986562967" lon="15.320514030754566">
        <ele>738.90999999999997</ele>
        <time>2013-09-05T13:08:19Z</time>
      </trkpt>
      <trkpt lat="50.787742026150227" lon="15.319397980347276">
        <ele>739.38999999999999</ele>
        <time>2013-09-05T13:08:28Z</time>
      </trkpt>
      <trkpt lat="50.788243012502789" lon="15.318908980116248">
        <ele>741.30999999999995</ele>
        <time>2013-09-05T13:08:32Z</time>
      </trkpt>
      <trkpt lat="50.788378966972232" lon="15.318831028416753">
        <ele>741.78999999999996</ele>
        <time>2013-09-05T13:08:33Z</time>
      </trkpt>
      <trkpt lat="50.788518022745848" lon="15.318762967363">
        <ele>742.75999999999999</ele>
        <time>2013-09-05T13:08:34Z</time>
      </trkpt>
      <trkpt lat="50.789606999605894" lon="15.318368012085557">
        <ele>753.80999999999995</ele>
        <time>2013-09-05T13:08:43Z</time>
      </trkpt>
      <trkpt lat="50.789696015417576" lon="15.318419979885221">
        <ele>754.76999999999998</ele>
        <time>2013-09-05T13:08:44Z</time>
      </trkpt>
      <trkpt lat="50.789772039279342" lon="15.318491980433464">
        <ele>755.73000000000002</ele>
        <time>2013-09-05T13:08:45Z</time>
      </trkpt>
      <trkpt lat="50.789838004857302" lon="15.318574961274862">
        <ele>755.25</ele>
        <time>2013-09-05T13:08:46Z</time>
      </trkpt>
      <trkpt lat="50.789878992363811" lon="15.318703958764672">
        <ele>755.73000000000002</ele>
        <time>2013-09-05T13:08:47Z</time>
      </trkpt>
      <trkpt lat="50.789896007627249" lon="15.318843014538288">
        <ele>755.25</ele>
        <time>2013-09-05T13:08:48Z</time>
      </trkpt>
      <trkpt lat="50.78987798653543" lon="15.318985003978014">
        <ele>755.73000000000002</ele>
        <time>2013-09-05T13:08:49Z</time>
      </trkpt>
      <trkpt lat="50.789867006242275" lon="15.319133028388023">
        <ele>756.21000000000004</ele>
        <time>2013-09-05T13:08:50Z</time>
      </trkpt>
      <trkpt lat="50.789631977677345" lon="15.320811001583934">
        <ele>759.10000000000002</ele>
        <time>2013-09-05T13:08:59Z</time>
      </trkpt>
      <trkpt lat="50.789606999605894" lon="15.321020968258381">
        <ele>759.10000000000002</ele>
        <time>2013-09-05T13:09:00Z</time>
      </trkpt>
      <trkpt lat="50.789558971300721" lon="15.322319995611906">
        <ele>759.58000000000004</ele>
        <time>2013-09-05T13:09:06Z</time>
      </trkpt>
      <trkpt lat="50.789574980735779" lon="15.322504984214902">
        <ele>759.10000000000002</ele>
        <time>2013-09-05T13:09:07Z</time>
      </trkpt>
      <trkpt lat="50.789625020697713" lon="15.322661977261305">
        <ele>759.10000000000002</ele>
        <time>2013-09-05T13:09:08Z</time>
      </trkpt>
      <trkpt lat="50.789709007367492" lon="15.32280002720654">
        <ele>759.10000000000002</ele>
        <time>2013-09-05T13:09:09Z</time>
      </trkpt>
      <trkpt lat="50.789788970723748" lon="15.322878984734416">
        <ele>759.10000000000002</ele>
        <time>2013-09-05T13:09:10Z</time>
      </trkpt>
      <trkpt lat="50.789900030940771" lon="15.322920978069305">
        <ele>758.62</ele>
        <time>2013-09-05T13:09:11Z</time>
      </trkpt>
      <trkpt lat="50.790021987631917" lon="15.322926007211208">
        <ele>758.62</ele>
        <time>2013-09-05T13:09:12Z</time>
      </trkpt>
      <trkpt lat="50.790147967636585" lon="15.322894994169474">
        <ele>758.13999999999999</ele>
        <time>2013-09-05T13:09:13Z</time>
      </trkpt>
      <trkpt lat="50.790278976783156" lon="15.322830034419894">
        <ele>758.13999999999999</ele>
        <time>2013-09-05T13:09:14Z</time>
      </trkpt>
      <trkpt lat="50.790395988151431" lon="15.322755016386509">
        <ele>757.17999999999995</ele>
        <time>2013-09-05T13:09:15Z</time>
      </trkpt>
      <trkpt lat="50.791775984689593" lon="15.321914982050657">
        <ele>757.65999999999997</ele>
        <time>2013-09-05T13:09:26Z</time>
      </trkpt>
      <trkpt lat="50.793348010629416" lon="15.321259014308453">
        <ele>757.17999999999995</ele>
        <time>2013-09-05T13:09:37Z</time>
      </trkpt>
      <trkpt lat="50.794450985267758" lon="15.320342034101486">
        <ele>759.58000000000004</ele>
        <time>2013-09-05T13:09:46Z</time>
      </trkpt>
      <trkpt lat="50.794569002464414" lon="15.32022301107645">
        <ele>760.05999999999995</ele>
        <time>2013-09-05T13:09:47Z</time>
      </trkpt>
      <trkpt lat="50.794671010226011" lon="15.320063000544906">
        <ele>760.53999999999996</ele>
        <time>2013-09-05T13:09:48Z</time>
      </trkpt>
      <trkpt lat="50.795905999839306" lon="15.318388966843486">
        <ele>762.94000000000005</ele>
        <time>2013-09-05T13:09:59Z</time>
      </trkpt>
      <trkpt lat="50.797683969140053" lon="15.31652600504458">
        <ele>762.46000000000004</ele>
        <time>2013-09-05T13:10:13Z</time>
      </trkpt>
      <trkpt lat="50.798803037032485" lon="15.315005024895072">
        <ele>765.35000000000002</ele>
        <time>2013-09-05T13:10:23Z</time>
      </trkpt>
      <trkpt lat="50.798906972631812" lon="15.314859012141824">
        <ele>766.30999999999995</ele>
        <time>2013-09-05T13:10:24Z</time>
      </trkpt>
      <trkpt lat="50.799169996753335" lon="15.314643010497093">
        <ele>767.26999999999998</ele>
        <time>2013-09-05T13:10:26Z</time>
      </trkpt>
      <trkpt lat="50.800174986943603" lon="15.313975978642702">
        <ele>771.11000000000001</ele>
        <time>2013-09-05T13:10:34Z</time>
      </trkpt>
      <trkpt lat="50.800267020240426" lon="15.313816973939538">
        <ele>768.71000000000004</ele>
        <time>2013-09-05T13:10:35Z</time>
      </trkpt>
      <trkpt lat="50.80031999386847" lon="15.313635002821684">
        <ele>767.75</ele>
        <time>2013-09-05T13:10:36Z</time>
      </trkpt>
      <trkpt lat="50.800365004688501" lon="15.313417995348573">
        <ele>766.30999999999995</ele>
        <time>2013-09-05T13:10:37Z</time>
      </trkpt>
      <trkpt lat="50.800394006073475" lon="15.313187995925546">
        <ele>766.78999999999996</ele>
        <time>2013-09-05T13:10:38Z</time>
      </trkpt>
      <trkpt lat="50.800801031291485" lon="15.311437016353011">
        <ele>761.01999999999998</ele>
        <time>2013-09-05T13:10:46Z</time>
      </trkpt>
      <trkpt lat="50.8008779771626" lon="15.311253033578396">
        <ele>760.53999999999996</ele>
        <time>2013-09-05T13:10:47Z</time>
      </trkpt>
      <trkpt lat="50.801663026213646" lon="15.309030991047621">
        <ele>758.13999999999999</ele>
        <time>2013-09-05T13:10:58Z</time>
      </trkpt>
      <trkpt lat="50.802680002525449" lon="15.307035008445382">
        <ele>761.5</ele>
        <time>2013-09-05T13:11:09Z</time>
      </trkpt>
      <trkpt lat="50.803318032994866" lon="15.3061050362885">
        <ele>764.87</ele>
        <time>2013-09-05T13:11:15Z</time>
      </trkpt>
      <trkpt lat="50.803445018827915" lon="15.305981989949942">
        <ele>764.87</ele>
        <time>2013-09-05T13:11:16Z</time>
      </trkpt>
      <trkpt lat="50.803578039631248" lon="15.305873025208712">
        <ele>764.87</ele>
        <time>2013-09-05T13:11:17Z</time>
      </trkpt>
      <trkpt lat="50.805043028667569" lon="15.304729985073209">
        <ele>768.71000000000004</ele>
        <time>2013-09-05T13:11:28Z</time>
      </trkpt>
      <trkpt lat="50.805136989802122" lon="15.304543990641832">
        <ele>767.26999999999998</ele>
        <time>2013-09-05T13:11:29Z</time>
      </trkpt>
      <trkpt lat="50.80521603114903" lon="15.304351961240172">
        <ele>765.83000000000004</ele>
        <time>2013-09-05T13:11:30Z</time>
      </trkpt>
      <trkpt lat="50.805285014212132" lon="15.304150963202119">
        <ele>763.89999999999998</ele>
        <time>2013-09-05T13:11:31Z</time>
      </trkpt>
      <trkpt lat="50.805332036688924" lon="15.303965974599123">
        <ele>762.46000000000004</ele>
        <time>2013-09-05T13:11:32Z</time>
      </trkpt>
      <trkpt lat="50.805320972576737" lon="15.303771011531353">
        <ele>762.94000000000005</ele>
        <time>2013-09-05T13:11:33Z</time>
      </trkpt>
      <trkpt lat="50.805248972028494" lon="15.303603038191795">
        <ele>762.46000000000004</ele>
        <time>2013-09-05T13:11:34Z</time>
      </trkpt>
      <trkpt lat="50.805180994793773" lon="15.303461970761418">
        <ele>761.98000000000002</ele>
        <time>2013-09-05T13:11:35Z</time>
      </trkpt>
      <trkpt lat="50.805091978982091" lon="15.303322998806834">
        <ele>761.98000000000002</ele>
        <time>2013-09-05T13:11:36Z</time>
      </trkpt>
      <trkpt lat="50.805013021454215" lon="15.303189978003502">
        <ele>762.46000000000004</ele>
        <time>2013-09-05T13:11:37Z</time>
      </trkpt>
      <trkpt lat="50.804940015077591" lon="15.303048994392157">
        <ele>762.94000000000005</ele>
        <time>2013-09-05T13:11:38Z</time>
      </trkpt>
      <trkpt lat="50.80487597733736" lon="15.30288202688098">
        <ele>762.46000000000004</ele>
        <time>2013-09-05T13:11:39Z</time>
      </trkpt>
      <trkpt lat="50.80483197234571" lon="15.302695026621222">
        <ele>762.46000000000004</ele>
        <time>2013-09-05T13:11:40Z</time>
      </trkpt>
      <trkpt lat="50.804804982617497" lon="15.302483970299363">
        <ele>761.98000000000002</ele>
        <time>2013-09-05T13:11:41Z</time>
      </trkpt>
      <trkpt lat="50.804797019809484" lon="15.302265034988523">
        <ele>761.01999999999998</ele>
        <time>2013-09-05T13:11:42Z</time>
      </trkpt>
      <trkpt lat="50.804802970960736" lon="15.302038975059986">
        <ele>761.01999999999998</ele>
        <time>2013-09-05T13:11:43Z</time>
      </trkpt>
      <trkpt lat="50.804823003709316" lon="15.301820961758494">
        <ele>760.53999999999996</ele>
        <time>2013-09-05T13:11:44Z</time>
      </trkpt>
      <trkpt lat="50.804862985387444" lon="15.301613006740808">
        <ele>759.58000000000004</ele>
        <time>2013-09-05T13:11:45Z</time>
      </trkpt>
      <trkpt lat="50.805274033918977" lon="15.299289962276816">
        <ele>758.13999999999999</ele>
        <time>2013-09-05T13:11:56Z</time>
      </trkpt>
      <trkpt lat="50.805922038853168" lon="15.297136986628175">
        <ele>762.46000000000004</ele>
        <time>2013-09-05T13:12:07Z</time>
      </trkpt>
      <trkpt lat="50.806023040786386" lon="15.296982005238533">
        <ele>762.46000000000004</ele>
        <time>2013-09-05T13:12:08Z</time>
      </trkpt>
      <trkpt lat="50.806126976385713" lon="15.296828029677272">
        <ele>763.41999999999996</ele>
        <time>2013-09-05T13:12:09Z</time>
      </trkpt>
      <trkpt lat="50.807423992082477" lon="15.295186014845967">
        <ele>772.08000000000004</ele>
        <time>2013-09-05T13:12:21Z</time>
      </trkpt>
      <trkpt lat="50.808384977281094" lon="15.294373976066709">
        <ele>778.32000000000005</ele>
        <time>2013-09-05T13:12:29Z</time>
      </trkpt>
      <trkpt lat="50.808521015569568" lon="15.294341035187244">
        <ele>779.28999999999996</ele>
        <time>2013-09-05T13:12:30Z</time>
      </trkpt>
      <trkpt lat="50.809943005442619" lon="15.294339023530483">
        <ele>784.09000000000003</ele>
        <time>2013-09-05T13:12:40Z</time>
      </trkpt>
      <trkpt lat="50.811247983947396" lon="15.294584026560187">
        <ele>790.34000000000003</ele>
        <time>2013-09-05T13:12:49Z</time>
      </trkpt>
      <trkpt lat="50.811518970876932" lon="15.294641023501754">
        <ele>790.82000000000005</ele>
        <time>2013-09-05T13:12:51Z</time>
      </trkpt>
      <trkpt lat="50.811655009165406" lon="15.294603975489736">
        <ele>791.29999999999995</ele>
        <time>2013-09-05T13:12:52Z</time>
      </trkpt>
      <trkpt lat="50.811783000826836" lon="15.294523006305099">
        <ele>791.29999999999995</ele>
        <time>2013-09-05T13:12:53Z</time>
      </trkpt>
      <trkpt lat="50.811892971396446" lon="15.294390991330147">
        <ele>792.74000000000001</ele>
        <time>2013-09-05T13:12:54Z</time>
      </trkpt>
      <trkpt lat="50.812006965279579" lon="15.294266017153859">
        <ele>792.74000000000001</ele>
        <time>2013-09-05T13:12:55Z</time>
      </trkpt>
      <trkpt lat="50.81211400218308" lon="15.294114975258708">
        <ele>793.22000000000003</ele>
        <time>2013-09-05T13:12:56Z</time>
      </trkpt>
      <trkpt lat="50.81351101398468" lon="15.292194010689855">
        <ele>798.99000000000001</ele>
        <time>2013-09-05T13:13:09Z</time>
      </trkpt>
      <trkpt lat="50.814620023593307" lon="15.291184997186065">
        <ele>802.36000000000001</ele>
        <time>2013-09-05T13:13:18Z</time>
      </trkpt>
      <trkpt lat="50.815156968310475" lon="15.291007971391082">
        <ele>803.32000000000005</ele>
        <time>2013-09-05T13:13:22Z</time>
      </trkpt>
      <trkpt lat="50.815298035740852" lon="15.291010988876224">
        <ele>803.32000000000005</ele>
        <time>2013-09-05T13:13:23Z</time>
      </trkpt>
      <trkpt lat="50.81544597633183" lon="15.291036972776055">
        <ele>802.84000000000003</ele>
        <time>2013-09-05T13:13:24Z</time>
      </trkpt>
      <trkpt lat="50.815585032105446" lon="15.291080977767706">
        <ele>802.84000000000003</ele>
        <time>2013-09-05T13:13:25Z</time>
      </trkpt>
      <trkpt lat="50.815720986574888" lon="15.291141998022795">
        <ele>803.79999999999995</ele>
        <time>2013-09-05T13:13:26Z</time>
      </trkpt>
      <trkpt lat="50.816493965685368" lon="15.291683971881866">
        <ele>808.13</ele>
        <time>2013-09-05T13:13:32Z</time>
      </trkpt>
      <trkpt lat="50.816623969003558" lon="15.291748009622097">
        <ele>808.61000000000001</ele>
        <time>2013-09-05T13:13:33Z</time>
      </trkpt>
      <trkpt lat="50.816761013120413" lon="15.291790002956986">
        <ele>809.09000000000003</ele>
        <time>2013-09-05T13:13:34Z</time>
      </trkpt>
      <trkpt lat="50.818219967186451" lon="15.292202979326248">
        <ele>813.40999999999997</ele>
        <time>2013-09-05T13:13:44Z</time>
      </trkpt>
      <trkpt lat="50.818791026249528" lon="15.29250699095428">
        <ele>814.37</ele>
        <time>2013-09-05T13:13:48Z</time>
      </trkpt>
      <trkpt lat="50.81892597489059" lon="15.292493999004364">
        <ele>814.37</ele>
        <time>2013-09-05T13:13:49Z</time>
      </trkpt>
      <trkpt lat="50.819041980430484" lon="15.292413029819727">
        <ele>814.37</ele>
        <time>2013-09-05T13:13:50Z</time>
      </trkpt>
      <trkpt lat="50.819152034819126" lon="15.292286965996027">
        <ele>815.34000000000003</ele>
        <time>2013-09-05T13:13:51Z</time>
      </trkpt>
      <trkpt lat="50.81922797486186" lon="15.292139025405049">
        <ele>817.25999999999999</ele>
        <time>2013-09-05T13:13:52Z</time>
      </trkpt>
      <trkpt lat="50.819341968744993" lon="15.292030982673168">
        <ele>818.22000000000003</ele>
        <time>2013-09-05T13:13:53Z</time>
      </trkpt>
      <trkpt lat="50.819469038397074" lon="15.291963005438447">
        <ele>819.65999999999997</ele>
        <time>2013-09-05T13:13:54Z</time>
      </trkpt>
      <trkpt lat="50.820836964994669" lon="15.29171003960073">
        <ele>829.75999999999999</ele>
        <time>2013-09-05T13:14:04Z</time>
      </trkpt>
      <trkpt lat="50.82109697163105" lon="15.291681960225105">
        <ele>833.60000000000002</ele>
        <time>2013-09-05T13:14:06Z</time>
      </trkpt>
      <trkpt lat="50.821233009919524" lon="15.291638961061835">
        <ele>834.55999999999995</ele>
        <time>2013-09-05T13:14:07Z</time>
      </trkpt>
      <trkpt lat="50.821368964388967" lon="15.291572995483875">
        <ele>836.48000000000002</ele>
        <time>2013-09-05T13:14:08Z</time>
      </trkpt>
      <trkpt lat="50.822582999244332" lon="15.291011994704604">
        <ele>843.69000000000005</ele>
        <time>2013-09-05T13:14:17Z</time>
      </trkpt>
      <trkpt lat="50.823156991973519" lon="15.290853995829821">
        <ele>847.05999999999995</ele>
        <time>2013-09-05T13:14:21Z</time>
      </trkpt>
      <trkpt lat="50.82328800112009" lon="15.290769003331661">
        <ele>848.01999999999998</ele>
        <time>2013-09-05T13:14:22Z</time>
      </trkpt>
      <trkpt lat="50.823420016095042" lon="15.290670013055205">
        <ele>848.5</ele>
        <time>2013-09-05T13:14:23Z</time>
      </trkpt>
      <trkpt lat="50.824874024838209" lon="15.289346007630229">
        <ele>858.11000000000001</ele>
        <time>2013-09-05T13:14:35Z</time>
      </trkpt>
      <trkpt lat="50.825782036408782" lon="15.288028037175536">
        <ele>864.36000000000001</ele>
        <time>2013-09-05T13:14:44Z</time>
      </trkpt>
      <trkpt lat="50.827152980491519" lon="15.28578202240169">
        <ele>866.76999999999998</ele>
        <time>2013-09-05T13:14:58Z</time>
      </trkpt>
      <trkpt lat="50.828369027003646" lon="15.284535968676209">
        <ele>867.73000000000002</ele>
        <time>2013-09-05T13:15:08Z</time>
      </trkpt>
      <trkpt lat="50.829616002738476" lon="15.283655030652881">
        <ele>873.00999999999999</ele>
        <time>2013-09-05T13:15:17Z</time>
      </trkpt>
      <trkpt lat="50.829723039641976" lon="15.283515974879265">
        <ele>873.5</ele>
        <time>2013-09-05T13:15:18Z</time>
      </trkpt>
      <trkpt lat="50.829939963296056" lon="15.283206012099981">
        <ele>873.5</ele>
        <time>2013-09-05T13:15:20Z</time>
      </trkpt>
      <trkpt lat="50.830036019906402" lon="15.283042984083295">
        <ele>874.46000000000004</ele>
        <time>2013-09-05T13:15:21Z</time>
      </trkpt>
      <trkpt lat="50.830124029889703" lon="15.282864030450583">
        <ele>875.41999999999996</ele>
        <time>2013-09-05T13:15:22Z</time>
      </trkpt>
      <trkpt lat="50.830968003720045" lon="15.280895959585905">
        <ele>882.14999999999998</ele>
        <time>2013-09-05T13:15:32Z</time>
      </trkpt>
      <trkpt lat="50.831070011481643" lon="15.280735027045012">
        <ele>883.11000000000001</ele>
        <time>2013-09-05T13:15:33Z</time>
      </trkpt>
      <trkpt lat="50.831203032284975" lon="15.280614998191595">
        <ele>883.59000000000003</ele>
        <time>2013-09-05T13:15:34Z</time>
      </trkpt>
      <trkpt lat="50.831348961219192" lon="15.28053998015821">
        <ele>883.59000000000003</ele>
        <time>2013-09-05T13:15:35Z</time>
      </trkpt>
      <trkpt lat="50.831498997285962" lon="15.280499998480082">
        <ele>884.07000000000005</ele>
        <time>2013-09-05T13:15:36Z</time>
      </trkpt>
      <trkpt lat="50.831641992554069" lon="15.280479965731502">
        <ele>885.02999999999997</ele>
        <time>2013-09-05T13:15:37Z</time>
      </trkpt>
      <trkpt lat="50.831797979772091" lon="15.28049798682332">
        <ele>885.02999999999997</ele>
        <time>2013-09-05T13:15:38Z</time>
      </trkpt>
      <trkpt lat="50.831964025273919" lon="15.280551966279745">
        <ele>885.50999999999999</ele>
        <time>2013-09-05T13:15:39Z</time>
      </trkpt>
      <trkpt lat="50.832130992785096" lon="15.280606029555202">
        <ele>885.99000000000001</ele>
        <time>2013-09-05T13:15:40Z</time>
      </trkpt>
      <trkpt lat="50.833644010126591" lon="15.281261997297406">
        <ele>890.32000000000005</ele>
        <time>2013-09-05T13:15:49Z</time>
      </trkpt>
      <trkpt lat="50.833806032314897" lon="15.281284041702747">
        <ele>890.79999999999995</ele>
        <time>2013-09-05T13:15:50Z</time>
      </trkpt>
      <trkpt lat="50.833977023139596" lon="15.281278006732464">
        <ele>890.79999999999995</ele>
        <time>2013-09-05T13:15:51Z</time>
      </trkpt>
      <trkpt lat="50.834152959287167" lon="15.281237019225955">
        <ele>890.79999999999995</ele>
        <time>2013-09-05T13:15:52Z</time>
      </trkpt>
      <trkpt lat="50.83433099091053" lon="15.281188990920782">
        <ele>890.79999999999995</ele>
        <time>2013-09-05T13:15:53Z</time>
      </trkpt>
      <trkpt lat="50.834506005048752" lon="15.2811190020293">
        <ele>890.79999999999995</ele>
        <time>2013-09-05T13:15:54Z</time>
      </trkpt>
      <trkpt lat="50.834676995873451" lon="15.281021017581224">
        <ele>890.79999999999995</ele>
        <time>2013-09-05T13:15:55Z</time>
      </trkpt>
      <trkpt lat="50.834843963384628" lon="15.280916998162866">
        <ele>890.32000000000005</ele>
        <time>2013-09-05T13:15:56Z</time>
      </trkpt>
      <trkpt lat="50.835818024352193" lon="15.280133038759232">
        <ele>885.02999999999997</ele>
        <time>2013-09-05T13:16:02Z</time>
      </trkpt>
      <trkpt lat="50.837427014485002" lon="15.278144013136625">
        <ele>873.98000000000002</ele>
        <time>2013-09-05T13:16:13Z</time>
      </trkpt>
      <trkpt lat="50.838587991893291" lon="15.276365960016847">
        <ele>866.28999999999996</ele>
        <time>2013-09-05T13:16:22Z</time>
      </trkpt>
      <trkpt lat="50.838986970484257" lon="15.27587503194809">
        <ele>862.91999999999996</ele>
        <time>2013-09-05T13:16:25Z</time>
      </trkpt>
      <trkpt lat="50.839128959923983" lon="15.275750979781151">
        <ele>862.44000000000005</ele>
        <time>2013-09-05T13:16:26Z</time>
      </trkpt>
      <trkpt lat="50.839281007647514" lon="15.275650983676314">
        <ele>861</ele>
        <time>2013-09-05T13:16:27Z</time>
      </trkpt>
      <trkpt lat="50.839444035664201" lon="15.275589041411877">
        <ele>860.03999999999996</ele>
        <time>2013-09-05T13:16:28Z</time>
      </trkpt>
      <trkpt lat="50.839618965983391" lon="15.275551993399858">
        <ele>858.59000000000003</ele>
        <time>2013-09-05T13:16:29Z</time>
      </trkpt>
      <trkpt lat="50.839799009263515" lon="15.275518968701363">
        <ele>857.63</ele>
        <time>2013-09-05T13:16:30Z</time>
      </trkpt>
      <trkpt lat="50.841277996078134" lon="15.275272037833929">
        <ele>851.38</ele>
        <time>2013-09-05T13:16:39Z</time>
      </trkpt>
      <trkpt lat="50.842554979026318" lon="15.274860989302397">
        <ele>843.69000000000005</ele>
        <time>2013-09-05T13:16:49Z</time>
      </trkpt>
      <trkpt lat="50.842649023979902" lon="15.274779014289379">
        <ele>843.21000000000004</ele>
        <time>2013-09-05T13:16:50Z</time>
      </trkpt>
      <trkpt lat="50.842756982892752" lon="15.274682035669684">
        <ele>841.76999999999998</ele>
        <time>2013-09-05T13:16:51Z</time>
      </trkpt>
      <trkpt lat="50.843950984999537" lon="15.273500019684434">
        <ele>836.48000000000002</ele>
        <time>2013-09-05T13:17:02Z</time>
      </trkpt>
      <trkpt lat="50.844763023778796" lon="15.272333007305861">
        <ele>831.20000000000005</ele>
        <time>2013-09-05T13:17:09Z</time>
      </trkpt>
      <trkpt lat="50.845387978479266" lon="15.27052603662014">
        <ele>825.90999999999997</ele>
        <time>2013-09-05T13:17:17Z</time>
      </trkpt>
      <trkpt lat="50.845540026202798" lon="15.269819023087621">
        <ele>823.99000000000001</ele>
        <time>2013-09-05T13:17:20Z</time>
      </trkpt>
      <trkpt lat="50.845612026751041" lon="15.269615007564425">
        <ele>823.02999999999997</ele>
        <time>2013-09-05T13:17:21Z</time>
      </trkpt>
      <trkpt lat="50.845704982057214" lon="15.269432030618191">
        <ele>822.54999999999995</ele>
        <time>2013-09-05T13:17:22Z</time>
      </trkpt>
      <trkpt lat="50.845805983990431" lon="15.269266990944743">
        <ele>821.58000000000004</ele>
        <time>2013-09-05T13:17:23Z</time>
      </trkpt>
      <trkpt lat="50.845904974266887" lon="15.269107986241579">
        <ele>820.62</ele>
        <time>2013-09-05T13:17:24Z</time>
      </trkpt>
      <trkpt lat="50.846121981739998" lon="15.268861977383494">
        <ele>818.70000000000005</ele>
        <time>2013-09-05T13:17:26Z</time>
      </trkpt>
      <trkpt lat="50.846251985058188" lon="15.268800035119057">
        <ele>817.74000000000001</ele>
        <time>2013-09-05T13:17:27Z</time>
      </trkpt>
      <trkpt lat="50.846381988376379" lon="15.268781008198857">
        <ele>816.77999999999997</ele>
        <time>2013-09-05T13:17:28Z</time>
      </trkpt>
      <trkpt lat="50.846744002774358" lon="15.268731974065304">
        <ele>814.37</ele>
        <time>2013-09-05T13:17:31Z</time>
      </trkpt>
      <trkpt lat="50.847875978797674" lon="15.268404996022582">
        <ele>806.67999999999995</ele>
        <time>2013-09-05T13:17:38Z</time>
      </trkpt>
      <trkpt lat="50.848356010392308" lon="15.268217995762825">
        <ele>803.32000000000005</ele>
        <time>2013-09-05T13:17:41Z</time>
      </trkpt>
      <trkpt lat="50.848511997610331" lon="15.268080029636621">
        <ele>801.88</ele>
        <time>2013-09-05T13:17:42Z</time>
      </trkpt>
      <trkpt lat="50.848696986213326" lon="15.267936028540134">
        <ele>800.91999999999996</ele>
        <time>2013-09-05T13:17:43Z</time>
      </trkpt>
      <trkpt lat="50.849774982780218" lon="15.266126040369272">
        <ele>794.66999999999996</ele>
        <time>2013-09-05T13:17:52Z</time>
      </trkpt>
      <trkpt lat="50.850648963823915" lon="15.264082029461861">
        <ele>791.29999999999995</ele>
        <time>2013-09-05T13:18:01Z</time>
      </trkpt>
      <trkpt lat="50.851092031225562" lon="15.263377027586102">
        <ele>789.86000000000001</ele>
        <time>2013-09-05T13:18:05Z</time>
      </trkpt>
      <trkpt lat="50.851229997351766" lon="15.263187009841204">
        <ele>788.89999999999998</ele>
        <time>2013-09-05T13:18:06Z</time>
      </trkpt>
      <trkpt lat="50.85278601385653" lon="15.261686984449625">
        <ele>775.44000000000005</ele>
        <time>2013-09-05T13:18:15Z</time>
      </trkpt>
      <trkpt lat="50.855038985610008" lon="15.259746992960572">
        <ele>758.13999999999999</ele>
        <time>2013-09-05T13:18:27Z</time>
      </trkpt>
      <trkpt lat="50.856442032381892" lon="15.258514015004039">
        <ele>748.03999999999996</ele>
        <time>2013-09-05T13:18:35Z</time>
      </trkpt>
      <trkpt lat="50.856539011001587" lon="15.258371019735932">
        <ele>746.60000000000002</ele>
        <time>2013-09-05T13:18:36Z</time>
      </trkpt>
      <trkpt lat="50.856616962701082" lon="15.258230958133936">
        <ele>745.63999999999999</ele>
        <time>2013-09-05T13:18:37Z</time>
      </trkpt>
      <trkpt lat="50.856698015704751" lon="15.258117970079184">
        <ele>744.20000000000005</ele>
        <time>2013-09-05T13:18:38Z</time>
      </trkpt>
      <trkpt lat="50.85680203512311" lon="15.258069019764662">
        <ele>742.75999999999999</ele>
        <time>2013-09-05T13:18:39Z</time>
      </trkpt>
      <trkpt lat="50.856874035671353" lon="15.258067008107901">
        <ele>741.30999999999995</ele>
        <time>2013-09-05T13:18:40Z</time>
      </trkpt>
      <trkpt lat="50.8569769654423" lon="15.258138002827764">
        <ele>739.87</ele>
        <time>2013-09-05T13:18:41Z</time>
      </trkpt>
      <trkpt lat="50.857066987082362" lon="15.258214026689529">
        <ele>737.95000000000005</ele>
        <time>2013-09-05T13:18:42Z</time>
      </trkpt>
      <trkpt lat="50.85695500485599" lon="15.258399015292525">
        <ele>739.38999999999999</ele>
        <time>2013-09-05T13:18:43Z</time>
      </trkpt>
      <trkpt lat="50.856875041499734" lon="15.258553996682167">
        <ele>738.42999999999995</ele>
        <time>2013-09-05T13:18:44Z</time>
      </trkpt>
      <trkpt lat="50.856726011261344" lon="15.25868802331388">
        <ele>736.99000000000001</ele>
        <time>2013-09-05T13:18:45Z</time>
      </trkpt>
      <trkpt lat="50.856591984629631" lon="15.258858008310199">
        <ele>735.54999999999995</ele>
        <time>2013-09-05T13:18:46Z</time>
      </trkpt>
      <trkpt lat="50.856454018503428" lon="15.259020030498505">
        <ele>734.58000000000004</ele>
        <time>2013-09-05T13:18:47Z</time>
      </trkpt>
      <trkpt lat="50.85633197799325" lon="15.259215999394655">
        <ele>733.62</ele>
        <time>2013-09-05T13:18:48Z</time>
      </trkpt>
      <trkpt lat="50.856222007423639" lon="15.259437030181289">
        <ele>732.65999999999997</ele>
        <time>2013-09-05T13:18:49Z</time>
      </trkpt>
      <trkpt lat="50.855229003354907" lon="15.261404011398554">
        <ele>724.00999999999999</ele>
        <time>2013-09-05T13:18:58Z</time>
      </trkpt>
      <trkpt lat="50.85512800142169" lon="15.261524962261319">
        <ele>723.52999999999997</ele>
        <time>2013-09-05T13:18:59Z</time>
      </trkpt>
      <trkpt lat="50.854904036968946" lon="15.261939028277993">
        <ele>720.15999999999997</ele>
        <time>2013-09-05T13:19:05Z</time>
      </trkpt>
      <trkpt lat="50.855005038902164" lon="15.261855041608214">
        <ele>718.72000000000003</ele>
        <time>2013-09-05T13:19:06Z</time>
      </trkpt>
      <trkpt lat="50.855046026408672" lon="15.26173803023994">
        <ele>717.75999999999999</ele>
        <time>2013-09-05T13:19:07Z</time>
      </trkpt>
      <trkpt lat="50.85512800142169" lon="15.261591011658311">
        <ele>717.27999999999997</ele>
        <time>2013-09-05T13:19:08Z</time>
      </trkpt>
      <trkpt lat="50.855262028053403" lon="15.261454973369837">
        <ele>716.32000000000005</ele>
        <time>2013-09-05T13:19:09Z</time>
      </trkpt>
      <trkpt lat="50.855479035526514" lon="15.261357994750142">
        <ele>715.84000000000003</ele>
        <time>2013-09-05T13:19:10Z</time>
      </trkpt>
      <trkpt lat="50.855614989995956" lon="15.261253975331783">
        <ele>714.88</ele>
        <time>2013-09-05T13:19:11Z</time>
      </trkpt>
      <trkpt lat="50.856856014579535" lon="15.260489964857697">
        <ele>709.59000000000003</ele>
        <time>2013-09-05T13:19:18Z</time>
      </trkpt>
      <trkpt lat="50.85858503356576" lon="15.259025981649756">
        <ele>700.94000000000005</ele>
        <time>2013-09-05T13:19:28Z</time>
      </trkpt>
      <trkpt lat="50.858839005231857" lon="15.258730016648769">
        <ele>699.98000000000002</ele>
        <time>2013-09-05T13:19:30Z</time>
      </trkpt>
      <trkpt lat="50.858917962759733" lon="15.258565982803702">
        <ele>699.01999999999998</ele>
        <time>2013-09-05T13:19:31Z</time>
      </trkpt>
      <trkpt lat="50.859074033796787" lon="15.258298013359308">
        <ele>696.61000000000001</ele>
        <time>2013-09-05T13:19:33Z</time>
      </trkpt>
      <trkpt lat="50.859263967722654" lon="15.258292984217405">
        <ele>694.21000000000004</ele>
        <time>2013-09-05T13:19:35Z</time>
      </trkpt>
      <trkpt lat="50.859342003241181" lon="15.2583899628371">
        <ele>692.28999999999996</ele>
        <time>2013-09-05T13:19:36Z</time>
      </trkpt>
      <trkpt lat="50.859337979927659" lon="15.258505968376994">
        <ele>691.33000000000004</ele>
        <time>2013-09-05T13:19:37Z</time>
      </trkpt>
      <trkpt lat="50.859392965212464" lon="15.258628008887172">
        <ele>689.88</ele>
        <time>2013-09-05T13:19:38Z</time>
      </trkpt>
      <trkpt lat="50.859271008521318" lon="15.258772009983659">
        <ele>688.44000000000005</ele>
        <time>2013-09-05T13:19:39Z</time>
      </trkpt>
      <trkpt lat="50.859161959961057" lon="15.258905030786991">
        <ele>687</ele>
        <time>2013-09-05T13:19:40Z</time>
      </trkpt>
      <trkpt lat="50.859083002433181" lon="15.259112985804677">
        <ele>685.55999999999995</ele>
        <time>2013-09-05T13:19:41Z</time>
      </trkpt>
      <trkpt lat="50.859019970521331" lon="15.259344996884465">
        <ele>685.55999999999995</ele>
        <time>2013-09-05T13:19:42Z</time>
      </trkpt>
      <trkpt lat="50.858935983851552" lon="15.259539037942886">
        <ele>685.08000000000004</ele>
        <time>2013-09-05T13:19:43Z</time>
      </trkpt>
      <trkpt lat="50.858825007453561" lon="15.259708017110825">
        <ele>684.60000000000002</ele>
        <time>2013-09-05T13:19:44Z</time>
      </trkpt>
      <trkpt lat="50.858690980821848" lon="15.259839026257396">
        <ele>683.63</ele>
        <time>2013-09-05T13:19:45Z</time>
      </trkpt>
      <trkpt lat="50.858557038009167" lon="15.259942039847374">
        <ele>682.66999999999996</ele>
        <time>2013-09-05T13:19:46Z</time>
      </trkpt>
      <trkpt lat="50.85845997557044" lon="15.260025020688772">
        <ele>681.71000000000004</ele>
        <time>2013-09-05T13:19:47Z</time>
      </trkpt>
      <trkpt lat="50.858388980850577" lon="15.26012996211648">
        <ele>680.26999999999998</ele>
        <time>2013-09-05T13:19:48Z</time>
      </trkpt>
      <trkpt lat="50.858358973637223" lon="15.260249990969896">
        <ele>679.78999999999996</ele>
        <time>2013-09-05T13:19:49Z</time>
      </trkpt>
      <trkpt lat="50.85832997225225" lon="15.26034202426672">
        <ele>678.83000000000004</ele>
        <time>2013-09-05T13:19:50Z</time>
      </trkpt>
      <trkpt lat="50.85830700583756" lon="15.260392986238003">
        <ele>677.87</ele>
        <time>2013-09-05T13:19:51Z</time>
      </trkpt>
      <trkpt lat="50.858985017985106" lon="15.260526007041335">
        <ele>675.94000000000005</ele>
        <time>2013-09-05T13:19:55Z</time>
      </trkpt>
      <trkpt lat="50.859190039336681" lon="15.260581998154521">
        <ele>674.98000000000002</ele>
        <time>2013-09-05T13:19:56Z</time>
      </trkpt>
      <trkpt lat="50.860331989824772" lon="15.259688990190625">
        <ele>673.05999999999995</ele>
        <time>2013-09-05T13:20:03Z</time>
      </trkpt>
      <trkpt lat="50.860525025054812" lon="15.258570006117225">
        <ele>673.05999999999995</ele>
        <time>2013-09-05T13:20:05Z</time>
      </trkpt>
      <trkpt lat="50.860862983390689" lon="15.258026020601392">
        <ele>677.38999999999999</ele>
        <time>2013-09-05T13:20:07Z</time>
      </trkpt>
      <trkpt lat="50.860854014754295" lon="15.257755033671856">
        <ele>674.98000000000002</ele>
        <time>2013-09-05T13:20:08Z</time>
      </trkpt>
      <trkpt lat="50.860896008089185" lon="15.257488992065191">
        <ele>669.70000000000005</ele>
        <time>2013-09-05T13:20:09Z</time>
      </trkpt>
      <trkpt lat="50.861001033335924" lon="15.254984982311726">
        <ele>659.12</ele>
        <time>2013-09-05T13:20:18Z</time>
      </trkpt>
      <trkpt lat="50.861029028892517" lon="15.254736039787531">
        <ele>659.12</ele>
        <time>2013-09-05T13:20:19Z</time>
      </trkpt>
      <trkpt lat="50.861094994470477" lon="15.254563959315419">
        <ele>654.79999999999995</ele>
        <time>2013-09-05T13:20:20Z</time>
      </trkpt>
      <trkpt lat="50.861123995855451" lon="15.25439003482461">
        <ele>655.75999999999999</ele>
        <time>2013-09-05T13:20:21Z</time>
      </trkpt>
      <trkpt lat="50.861119972541928" lon="15.254214014858007">
        <ele>656.72000000000003</ele>
        <time>2013-09-05T13:20:22Z</time>
      </trkpt>
      <trkpt lat="50.861131036654115" lon="15.254059033468366">
        <ele>657.20000000000005</ele>
        <time>2013-09-05T13:20:23Z</time>
      </trkpt>
      <trkpt lat="50.861173029989004" lon="15.253937998786569">
        <ele>658.15999999999997</ele>
        <time>2013-09-05T13:20:24Z</time>
      </trkpt>
      <trkpt lat="50.861227009445429" lon="15.253869015723467">
        <ele>658.15999999999997</ele>
        <time>2013-09-05T13:20:25Z</time>
      </trkpt>
      <trkpt lat="50.86127202026546" lon="15.253869015723467">
        <ele>659.12</ele>
        <time>2013-09-05T13:20:26Z</time>
      </trkpt>
      <trkpt lat="50.861333962529898" lon="15.254348963499069">
        <ele>657.20000000000005</ele>
        <time>2013-09-05T13:20:29Z</time>
      </trkpt>
      <trkpt lat="50.861323988065124" lon="15.254546022042632">
        <ele>657.20000000000005</ele>
        <time>2013-09-05T13:20:30Z</time>
      </trkpt>
      <trkpt lat="50.861308984458447" lon="15.254986993968487">
        <ele>656.72000000000003</ele>
        <time>2013-09-05T13:20:32Z</time>
      </trkpt>
      <trkpt lat="50.861403029412031" lon="15.256721964105964">
        <ele>653.83000000000004</ele>
        <time>2013-09-05T13:20:39Z</time>
      </trkpt>
      <trkpt lat="50.861424989998341" lon="15.256923967972398">
        <ele>652.87</ele>
        <time>2013-09-05T13:20:40Z</time>
      </trkpt>
      <trkpt lat="50.861442005261779" lon="15.257071992382407">
        <ele>652.38999999999999</ele>
        <time>2013-09-05T13:20:41Z</time>
      </trkpt>
      <trkpt lat="50.861494978889823" lon="15.257193027064204">
        <ele>649.50999999999999</ele>
        <time>2013-09-05T13:20:42Z</time>
      </trkpt>
      <trkpt lat="50.861605033278465" lon="15.257275002077222">
        <ele>649.50999999999999</ele>
        <time>2013-09-05T13:20:43Z</time>
      </trkpt>
      <trkpt lat="50.861726989969611" lon="15.257333004847169">
        <ele>649.02999999999997</ele>
        <time>2013-09-05T13:20:44Z</time>
      </trkpt>
      <trkpt lat="50.861847018823028" lon="15.257370974868536">
        <ele>648.54999999999995</ele>
        <time>2013-09-05T13:20:45Z</time>
      </trkpt>
      <trkpt lat="50.861959001049399" lon="15.257373992353678">
        <ele>648.07000000000005</ele>
        <time>2013-09-05T13:20:46Z</time>
      </trkpt>
      <trkpt lat="50.862037036567926" lon="15.257299980148673">
        <ele>646.62</ele>
        <time>2013-09-05T13:20:47Z</time>
      </trkpt>
      <trkpt lat="50.862156981602311" lon="15.25705698877573">
        <ele>640.38</ele>
        <time>2013-09-05T13:20:48Z</time>
      </trkpt>
      <trkpt lat="50.862178020179272" lon="15.256922962144017">
        <ele>640.86000000000001</ele>
        <time>2013-09-05T13:20:49Z</time>
      </trkpt>
      <trkpt lat="50.862166034057736" lon="15.256809974089265">
        <ele>635.57000000000005</ele>
        <time>2013-09-05T13:20:50Z</time>
      </trkpt>
      <trkpt lat="50.862136026844382" lon="15.256639989092946">
        <ele>628.36000000000001</ele>
        <time>2013-09-05T13:20:51Z</time>
      </trkpt>
      <trkpt lat="50.862092021852732" lon="15.256405966356397">
        <ele>628.36000000000001</ele>
        <time>2013-09-05T13:20:52Z</time>
      </trkpt>
      <trkpt lat="50.862079029902816" lon="15.256213014945388">
        <ele>623.07000000000005</ele>
        <time>2013-09-05T13:20:53Z</time>
      </trkpt>
      <trkpt lat="50.862164022400975" lon="15.255958959460258">
        <ele>607.69000000000005</ele>
        <time>2013-09-05T13:20:55Z</time>
      </trkpt>
      <trkpt lat="50.862224036827683" lon="15.25574304163456">
        <ele>607.21000000000004</ele>
        <time>2013-09-05T13:20:56Z</time>
      </trkpt>
      <trkpt lat="50.862317997962236" lon="15.255069974809885">
        <ele>608.64999999999998</ele>
        <time>2013-09-05T13:20:59Z</time>
      </trkpt>
      <trkpt lat="50.862418999895453" lon="15.254918010905385">
        <ele>608.64999999999998</ele>
        <time>2013-09-05T13:21:00Z</time>
      </trkpt>
      <trkpt lat="50.86249896325171" lon="15.25479999370873">
        <ele>608.64999999999998</ele>
        <time>2013-09-05T13:21:01Z</time>
      </trkpt>
      <trkpt lat="50.862570041790605" lon="15.254688011482358">
        <ele>608.64999999999998</ele>
        <time>2013-09-05T13:21:02Z</time>
      </trkpt>
      <trkpt lat="50.862578004598618" lon="15.254486007615924">
        <ele>604.80999999999995</ele>
        <time>2013-09-05T13:21:03Z</time>
      </trkpt>
      <trkpt lat="50.862679006531835" lon="15.254341000691056">
        <ele>603.85000000000002</ele>
        <time>2013-09-05T13:21:04Z</time>
      </trkpt>
      <trkpt lat="50.862737009301782" lon="15.254133967682719">
        <ele>604.33000000000004</ele>
        <time>2013-09-05T13:21:05Z</time>
      </trkpt>
      <trkpt lat="50.86280096322298" lon="15.253917966037989">
        <ele>603.36000000000001</ele>
        <time>2013-09-05T13:21:06Z</time>
      </trkpt>
      <trkpt lat="50.862851003184915" lon="15.253668017685413">
        <ele>602.88</ele>
        <time>2013-09-05T13:21:07Z</time>
      </trkpt>
      <trkpt lat="50.862910011783242" lon="15.253414968028665">
        <ele>600.48000000000002</ele>
        <time>2013-09-05T13:21:08Z</time>
      </trkpt>
      <trkpt lat="50.863180998712778" lon="15.25248097255826">
        <ele>598.55999999999995</ele>
        <time>2013-09-05T13:21:12Z</time>
      </trkpt>
      <trkpt lat="50.863307984545827" lon="15.251826010644436">
        <ele>592.78999999999996</ele>
        <time>2013-09-05T13:21:15Z</time>
      </trkpt>
      <trkpt lat="50.863404041156173" lon="15.251566004008055">
        <ele>590.38999999999999</ele>
        <time>2013-09-05T13:21:17Z</time>
      </trkpt>
      <trkpt lat="50.863475035876036" lon="15.251505989581347">
        <ele>589.42999999999995</ele>
        <time>2013-09-05T13:21:18Z</time>
      </trkpt>
      <trkpt lat="50.863960012793541" lon="15.251381015405059">
        <ele>584.62</ele>
        <time>2013-09-05T13:21:23Z</time>
      </trkpt>
      <trkpt lat="50.864091021940112" lon="15.251353019848466">
        <ele>583.17999999999995</ele>
        <time>2013-09-05T13:21:24Z</time>
      </trkpt>
      <trkpt lat="50.86449502967298" lon="15.251258974894881">
        <ele>578.37</ele>
        <time>2013-09-05T13:21:27Z</time>
      </trkpt>
      <trkpt lat="50.864735003560781" lon="15.251307003200054">
        <ele>574.52999999999997</ele>
        <time>2013-09-05T13:21:29Z</time>
      </trkpt>
      <trkpt lat="50.864859977737069" lon="15.2514289598912">
        <ele>572.60000000000002</ele>
        <time>2013-09-05T13:21:30Z</time>
      </trkpt>
      <trkpt lat="50.864856038242579" lon="15.251530967652798">
        <ele>569.72000000000003</ele>
        <time>2013-09-05T13:21:31Z</time>
      </trkpt>
      <trkpt lat="50.864886967465281" lon="15.251658037304878">
        <ele>568.27999999999997</ele>
        <time>2013-09-05T13:21:32Z</time>
      </trkpt>
      <trkpt lat="50.865029962733388" lon="15.251893987879157">
        <ele>566.83000000000004</ele>
        <time>2013-09-05T13:21:34Z</time>
      </trkpt>
      <trkpt lat="50.865121996030211" lon="15.251938998699188">
        <ele>564.42999999999995</ele>
        <time>2013-09-05T13:21:35Z</time>
      </trkpt>
      <trkpt lat="50.865211011841893" lon="15.251898011192679">
        <ele>562.50999999999999</ele>
        <time>2013-09-05T13:21:36Z</time>
      </trkpt>
      <trkpt lat="50.865344032645226" lon="15.251825004816055">
        <ele>561.07000000000005</ele>
        <time>2013-09-05T13:21:37Z</time>
      </trkpt>
      <trkpt lat="50.865452997386456" lon="15.251688966527581">
        <ele>559.13999999999999</ele>
        <time>2013-09-05T13:21:38Z</time>
      </trkpt>
      <trkpt lat="50.865579983219504" lon="15.251546977087855">
        <ele>558.17999999999995</ele>
        <time>2013-09-05T13:21:39Z</time>
      </trkpt>
      <trkpt lat="50.865709986537695" lon="15.251391995698214">
        <ele>557.22000000000003</ele>
        <time>2013-09-05T13:21:40Z</time>
      </trkpt>
      <trkpt lat="50.866609029471874" lon="15.250221965834498">
        <ele>550.49000000000001</ele>
        <time>2013-09-05T13:21:47Z</time>
      </trkpt>
      <trkpt lat="50.866685975342989" lon="15.249946033582091">
        <ele>549.52999999999997</ele>
        <time>2013-09-05T13:21:48Z</time>
      </trkpt>
      <trkpt lat="50.866742972284555" lon="15.249647973105311">
        <ele>549.04999999999995</ele>
        <time>2013-09-05T13:21:49Z</time>
      </trkpt>
      <trkpt lat="50.867500025779009" lon="15.247340016067028">
        <ele>543.75999999999999</ele>
        <time>2013-09-05T13:21:58Z</time>
      </trkpt>
      <trkpt lat="50.867905961349607" lon="15.246536023914814">
        <ele>542.32000000000005</ele>
        <time>2013-09-05T13:22:02Z</time>
      </trkpt>
      <trkpt lat="50.868005035445094" lon="15.246358998119831">
        <ele>541.84000000000003</ele>
        <time>2013-09-05T13:22:03Z</time>
      </trkpt>
      <trkpt lat="50.868931990116835" lon="15.245574032887816">
        <ele>537.50999999999999</ele>
        <time>2013-09-05T13:22:11Z</time>
      </trkpt>
      <trkpt lat="50.869060987606645" lon="15.245412010699511">
        <ele>537.99000000000001</ele>
        <time>2013-09-05T13:22:13Z</time>
      </trkpt>
      <trkpt lat="50.869058975949883" lon="15.245269015431404">
        <ele>537.99000000000001</ele>
        <time>2013-09-05T13:22:14Z</time>
      </trkpt>
      <trkpt lat="50.869060987606645" lon="15.245142029598355">
        <ele>537.99000000000001</ele>
        <time>2013-09-05T13:22:15Z</time>
      </trkpt>
      <trkpt lat="50.869078002870083" lon="15.245014037936926">
        <ele>536.07000000000005</ele>
        <time>2013-09-05T13:22:18Z</time>
      </trkpt>
      <trkpt lat="50.868680030107498" lon="15.245062988251448">
        <ele>535.59000000000003</ele>
        <time>2013-09-05T13:22:22Z</time>
      </trkpt>
      <trkpt lat="50.868562012910843" lon="15.245060976594687">
        <ele>535.59000000000003</ele>
        <time>2013-09-05T13:22:23Z</time>
      </trkpt>
      <trkpt lat="50.8684709854424" lon="15.245058964937925">
        <ele>535.59000000000003</ele>
        <time>2013-09-05T13:22:24Z</time>
      </trkpt>
      <trkpt lat="50.868423040956259" lon="15.245025018230081">
        <ele>534.63</ele>
        <time>2013-09-05T13:22:25Z</time>
      </trkpt>
      <trkpt lat="50.868382975459099" lon="15.24491798132658">
        <ele>533.19000000000005</ele>
        <time>2013-09-05T13:22:26Z</time>
      </trkpt>
      <trkpt lat="50.868357997387648" lon="15.244802981615067">
        <ele>532.71000000000004</ele>
        <time>2013-09-05T13:22:27Z</time>
      </trkpt>
      <trkpt lat="50.868396973237395" lon="15.244693011045456">
        <ele>532.23000000000002</ele>
        <time>2013-09-05T13:22:28Z</time>
      </trkpt>
      <trkpt lat="50.868495041504502" lon="15.244586979970336">
        <ele>531.75</ele>
        <time>2013-09-05T13:22:29Z</time>
      </trkpt>
      <trkpt lat="50.868563018739223" lon="15.244425963610411">
        <ele>531.26999999999998</ele>
        <time>2013-09-05T13:22:30Z</time>
      </trkpt>
      <trkpt lat="50.868610963225365" lon="15.244219014421105">
        <ele>530.29999999999995</ele>
        <time>2013-09-05T13:22:31Z</time>
      </trkpt>
      <trkpt lat="50.868667960166931" lon="15.244011981412768">
        <ele>529.34000000000003</ele>
        <time>2013-09-05T13:22:32Z</time>
      </trkpt>
      <trkpt lat="50.868682963773608" lon="15.243748035281897">
        <ele>528.38</ele>
        <time>2013-09-05T13:22:33Z</time>
      </trkpt>
      <trkpt lat="50.868803998455405" lon="15.243035992607474">
        <ele>525.5</ele>
        <time>2013-09-05T13:22:36Z</time>
      </trkpt>
      <trkpt lat="50.869583012536168" lon="15.241061970591545">
        <ele>513.96000000000004</ele>
        <time>2013-09-05T13:22:45Z</time>
      </trkpt>
      <trkpt lat="50.869670016691089" lon="15.240733986720443">
        <ele>512.03999999999996</ele>
        <time>2013-09-05T13:22:47Z</time>
      </trkpt>
      <trkpt lat="50.869676973670721" lon="15.240558972582221">
        <ele>511.07999999999998</ele>
        <time>2013-09-05T13:22:48Z</time>
      </trkpt>
      <trkpt lat="50.869659036397934" lon="15.240388987585902">
        <ele>511.07999999999998</ele>
        <time>2013-09-05T13:22:49Z</time>
      </trkpt>
      <trkpt lat="50.869747968390584" lon="15.239934017881751">
        <ele>508.67000000000002</ele>
        <time>2013-09-05T13:22:52Z</time>
      </trkpt>
      <trkpt lat="50.86984402500093" lon="15.239851037040353">
        <ele>508.19</ele>
        <time>2013-09-05T13:22:53Z</time>
      </trkpt>
      <trkpt lat="50.869937986135483" lon="15.239791022613645">
        <ele>507.23000000000002</ele>
        <time>2013-09-05T13:22:54Z</time>
      </trkpt>
      <trkpt lat="50.870028007775545" lon="15.239748023450375">
        <ele>506.75</ele>
        <time>2013-09-05T13:22:55Z</time>
      </trkpt>
      <trkpt lat="50.870129009708762" lon="15.239708041772246">
        <ele>505.79000000000002</ele>
        <time>2013-09-05T13:22:56Z</time>
      </trkpt>
      <trkpt lat="50.870220959186554" lon="15.239640986546874">
        <ele>504.82999999999998</ele>
        <time>2013-09-05T13:22:57Z</time>
      </trkpt>
      <trkpt lat="50.870249960571527" lon="15.239469995722175">
        <ele>502.91000000000003</ele>
        <time>2013-09-05T13:22:58Z</time>
      </trkpt>
      <trkpt lat="50.870397984981537" lon="15.239152992144227">
        <ele>501.45999999999998</ele>
        <time>2013-09-05T13:23:00Z</time>
      </trkpt>
      <trkpt lat="50.870456993579865" lon="15.238974960520864">
        <ele>500.98000000000002</ele>
        <time>2013-09-05T13:23:01Z</time>
      </trkpt>
      <trkpt lat="50.870475014671683" lon="15.238769017159939">
        <ele>499.54000000000002</ele>
        <time>2013-09-05T13:23:02Z</time>
      </trkpt>
      <trkpt lat="50.87068498134613" lon="15.236996999010444">
        <ele>491.85000000000002</ele>
        <time>2013-09-05T13:23:11Z</time>
      </trkpt>
      <trkpt lat="50.870733009651303" lon="15.236829025670886">
        <ele>490.88999999999999</ele>
        <time>2013-09-05T13:23:12Z</time>
      </trkpt>
      <trkpt lat="50.87077097967267" lon="15.236648982390761">
        <ele>489.44999999999999</ele>
        <time>2013-09-05T13:23:13Z</time>
      </trkpt>
      <trkpt lat="50.870831999927759" lon="15.236486038193107">
        <ele>488.49000000000001</ele>
        <time>2013-09-05T13:23:14Z</time>
      </trkpt>
      <trkpt lat="50.871481010690331" lon="15.23473204113543">
        <ele>478.87</ele>
        <time>2013-09-05T13:23:24Z</time>
      </trkpt>
      <trkpt lat="50.871602967381477" lon="15.23443398065865">
        <ele>477.43000000000001</ele>
        <time>2013-09-05T13:23:26Z</time>
      </trkpt>
      <trkpt lat="50.871641021221876" lon="15.234269024804235">
        <ele>477.91000000000003</ele>
        <time>2013-09-05T13:23:27Z</time>
      </trkpt>
      <trkpt lat="50.871784016489983" lon="15.233345003798604">
        <ele>479.35000000000002</ele>
        <time>2013-09-05T13:23:32Z</time>
      </trkpt>
      <trkpt lat="50.871825003996491" lon="15.233155991882086">
        <ele>479.35000000000002</ele>
        <time>2013-09-05T13:23:33Z</time>
      </trkpt>
      <trkpt lat="50.871875965967774" lon="15.232981983572245">
        <ele>479.35000000000002</ele>
        <time>2013-09-05T13:23:34Z</time>
      </trkpt>
      <trkpt lat="50.87192902341485" lon="15.232818033546209">
        <ele>479.35000000000002</ele>
        <time>2013-09-05T13:23:35Z</time>
      </trkpt>
      <trkpt lat="50.871977973729372" lon="15.232644025236368">
        <ele>479.35000000000002</ele>
        <time>2013-09-05T13:23:36Z</time>
      </trkpt>
      <trkpt lat="50.872043017297983" lon="15.232476973906159">
        <ele>479.83999999999997</ele>
        <time>2013-09-05T13:23:37Z</time>
      </trkpt>
      <trkpt lat="50.87212398648262" lon="15.232319980859756">
        <ele>479.35000000000002</ele>
        <time>2013-09-05T13:23:38Z</time>
      </trkpt>
      <trkpt lat="50.872277040034533" lon="15.232003983110189">
        <ele>478.38999999999999</ele>
        <time>2013-09-05T13:23:40Z</time>
      </trkpt>
      <trkpt lat="50.872333031147718" lon="15.231820000335574">
        <ele>477.91000000000003</ele>
        <time>2013-09-05T13:23:41Z</time>
      </trkpt>
      <trkpt lat="50.872384998947382" lon="15.231629982590675">
        <ele>477.43000000000001</ele>
        <time>2013-09-05T13:23:42Z</time>
      </trkpt>
      <trkpt lat="50.872426992282271" lon="15.231438959017396">
        <ele>476.47000000000003</ele>
        <time>2013-09-05T13:23:43Z</time>
      </trkpt>
      <trkpt lat="50.872458005324006" lon="15.231241984292865">
        <ele>475.50999999999999</ele>
        <time>2013-09-05T13:23:44Z</time>
      </trkpt>
      <trkpt lat="50.872564958408475" lon="15.229832986369729">
        <ele>470.69999999999999</ele>
        <time>2013-09-05T13:23:51Z</time>
      </trkpt>
      <trkpt lat="50.872567975893617" lon="15.229477006942034">
        <ele>468.77999999999997</ele>
        <time>2013-09-05T13:23:53Z</time>
      </trkpt>
      <trkpt lat="50.872584991157055" lon="15.229289000853896">
        <ele>467.81999999999999</ele>
        <time>2013-09-05T13:23:54Z</time>
      </trkpt>
      <trkpt lat="50.872620027512312" lon="15.229102000594139">
        <ele>466.86000000000001</ele>
        <time>2013-09-05T13:23:55Z</time>
      </trkpt>
      <trkpt lat="50.872666966170073" lon="15.228921035304666">
        <ele>465.89999999999998</ele>
        <time>2013-09-05T13:23:56Z</time>
      </trkpt>
      <trkpt lat="50.872707031667233" lon="15.22873998619616">
        <ele>464.93000000000001</ele>
        <time>2013-09-05T13:23:57Z</time>
      </trkpt>
      <trkpt lat="50.872772997245193" lon="15.228400016203523">
        <ele>463.49000000000001</ele>
        <time>2013-09-05T13:23:59Z</time>
      </trkpt>
      <trkpt lat="50.872797975316644" lon="15.228227013722062">
        <ele>462.52999999999997</ele>
        <time>2013-09-05T13:24:00Z</time>
      </trkpt>
      <trkpt lat="50.87281197309494" lon="15.228059040382504">
        <ele>461.56999999999999</ele>
        <time>2013-09-05T13:24:01Z</time>
      </trkpt>
      <trkpt lat="50.872822031378746" lon="15.227722004055977">
        <ele>460.13</ele>
        <time>2013-09-05T13:24:03Z</time>
      </trkpt>
      <trkpt lat="50.872829994186759" lon="15.227161003276706">
        <ele>457.72000000000003</ele>
        <time>2013-09-05T13:24:06Z</time>
      </trkpt>
      <trkpt lat="50.872943988069892" lon="15.226226001977921">
        <ele>454.83999999999997</ele>
        <time>2013-09-05T13:24:11Z</time>
      </trkpt>
      <trkpt lat="50.872945999726653" lon="15.226031038910151">
        <ele>454.36000000000001</ele>
        <time>2013-09-05T13:24:12Z</time>
      </trkpt>
      <trkpt lat="50.872953040525317" lon="15.225834986194968">
        <ele>453.39999999999998</ele>
        <time>2013-09-05T13:24:13Z</time>
      </trkpt>
      <trkpt lat="50.872967038303614" lon="15.225230986252427">
        <ele>452.44</ele>
        <time>2013-09-05T13:24:16Z</time>
      </trkpt>
      <trkpt lat="50.872996961697936" lon="15.225025964900851">
        <ele>452.92000000000002</ele>
        <time>2013-09-05T13:24:17Z</time>
      </trkpt>
      <trkpt lat="50.873354030773044" lon="15.223634988069534">
        <ele>445.70999999999998</ele>
        <time>2013-09-05T13:24:24Z</time>
      </trkpt>
      <trkpt lat="50.873735994100571" lon="15.22190697491169">
        <ele>439.94</ele>
        <time>2013-09-05T13:24:34Z</time>
      </trkpt>
      <trkpt lat="50.87375502102077" lon="15.221653003245592">
        <ele>438.01999999999998</ele>
        <time>2013-09-05T13:24:36Z</time>
      </trkpt>
      <trkpt lat="50.873714033514261" lon="15.221402971073985">
        <ele>437.06</ele>
        <time>2013-09-05T13:24:38Z</time>
      </trkpt>
      <trkpt lat="50.873659970238805" lon="15.221303980797529">
        <ele>436.57999999999998</ele>
        <time>2013-09-05T13:24:39Z</time>
      </trkpt>
      <trkpt lat="50.87358302436769" lon="15.221212031319737">
        <ele>435.61000000000001</ele>
        <time>2013-09-05T13:24:40Z</time>
      </trkpt>
      <trkpt lat="50.873485961928964" lon="15.221127960830927">
        <ele>434.64999999999998</ele>
        <time>2013-09-05T13:24:41Z</time>
      </trkpt>
      <trkpt lat="50.873404992744327" lon="15.221064006909728">
        <ele>434.17000000000002</ele>
        <time>2013-09-05T13:24:42Z</time>
      </trkpt>
      <trkpt lat="50.873255040496588" lon="15.220869965851307">
        <ele>432.73000000000002</ele>
        <time>2013-09-05T13:24:44Z</time>
      </trkpt>
      <trkpt lat="50.872985981404781" lon="15.220337966457009">
        <ele>432.25</ele>
        <time>2013-09-05T13:24:48Z</time>
      </trkpt>
      <trkpt lat="50.872847009450197" lon="15.219881990924478">
        <ele>432.25</ele>
        <time>2013-09-05T13:24:51Z</time>
      </trkpt>
      <trkpt lat="50.872825970873237" lon="15.219717035070062">
        <ele>432.25</ele>
        <time>2013-09-05T13:24:52Z</time>
      </trkpt>
      <trkpt lat="50.872807027772069" lon="15.219527017325163">
        <ele>432.73000000000002</ele>
        <time>2013-09-05T13:24:53Z</time>
      </trkpt>
      <trkpt lat="50.87280803360045" lon="15.219329036772251">
        <ele>433.20999999999998</ele>
        <time>2013-09-05T13:24:54Z</time>
      </trkpt>
      <trkpt lat="50.87283100001514" lon="15.21915796212852">
        <ele>433.20999999999998</ele>
        <time>2013-09-05T13:24:55Z</time>
      </trkpt>
      <trkpt lat="50.872891014441848" lon="15.219000969082117">
        <ele>433.69</ele>
        <time>2013-09-05T13:24:56Z</time>
      </trkpt>
      <trkpt lat="50.872958991676569" lon="15.218873983249068">
        <ele>433.20999999999998</ele>
        <time>2013-09-05T13:24:57Z</time>
      </trkpt>
      <trkpt lat="50.87304700165987" lon="15.218767030164599">
        <ele>432.73000000000002</ele>
        <time>2013-09-05T13:24:58Z</time>
      </trkpt>
      <trkpt lat="50.873144986107945" lon="15.218668961897492">
        <ele>431.76999999999998</ele>
        <time>2013-09-05T13:24:59Z</time>
      </trkpt>
      <trkpt lat="50.873494008556008" lon="15.218150038272142">
        <ele>429.85000000000002</ele>
        <time>2013-09-05T13:25:03Z</time>
      </trkpt>
      <trkpt lat="50.873565003275871" lon="15.217972006648779">
        <ele>428.88999999999999</ele>
        <time>2013-09-05T13:25:04Z</time>
      </trkpt>
      <trkpt lat="50.873843031004071" lon="15.21726599894464">
        <ele>427.44</ele>
        <time>2013-09-05T13:25:08Z</time>
      </trkpt>
      <trkpt lat="50.873931962996721" lon="15.21711596287787">
        <ele>426.95999999999998</ele>
        <time>2013-09-05T13:25:09Z</time>
      </trkpt>
      <trkpt lat="50.874014021828771" lon="15.216960981488228">
        <ele>426.48000000000002</ele>
        <time>2013-09-05T13:25:10Z</time>
      </trkpt>
      <trkpt lat="50.87418501265347" lon="15.216697035357356">
        <ele>426</ele>
        <time>2013-09-05T13:25:12Z</time>
      </trkpt>
      <trkpt lat="50.874290959909558" lon="15.216595027595758">
        <ele>426</ele>
        <time>2013-09-05T13:25:13Z</time>
      </trkpt>
      <trkpt lat="50.874406965449452" lon="15.216506011784077">
        <ele>426</ele>
        <time>2013-09-05T13:25:14Z</time>
      </trkpt>
      <trkpt lat="50.87452900595963" lon="15.216453960165381">
        <ele>425.51999999999998</ele>
        <time>2013-09-05T13:25:15Z</time>
      </trkpt>
      <trkpt lat="50.874649034813046" lon="15.216401992365718">
        <ele>425.04000000000002</ele>
        <time>2013-09-05T13:25:16Z</time>
      </trkpt>
      <trkpt lat="50.874771997332573" lon="15.216361004859209">
        <ele>424.56</ele>
        <time>2013-09-05T13:25:17Z</time>
      </trkpt>
      <trkpt lat="50.874880962073803" lon="15.216292021796107">
        <ele>424.56</ele>
        <time>2013-09-05T13:25:18Z</time>
      </trkpt>
      <trkpt lat="50.874999985098839" lon="15.216202000156045">
        <ele>424.56</ele>
        <time>2013-09-05T13:25:19Z</time>
      </trkpt>
      <trkpt lat="50.875096041709185" lon="15.216070991009474">
        <ele>424.56</ele>
        <time>2013-09-05T13:25:20Z</time>
      </trkpt>
      <trkpt lat="50.875191008672118" lon="15.21589295938611">
        <ele>423.60000000000002</ele>
        <time>2013-09-05T13:25:21Z</time>
      </trkpt>
      <trkpt lat="50.875267032533884" lon="15.21572096273303">
        <ele>423.60000000000002</ele>
        <time>2013-09-05T13:25:22Z</time>
      </trkpt>
      <trkpt lat="50.875326963141561" lon="15.215528011322021">
        <ele>422.63999999999999</ele>
        <time>2013-09-05T13:25:23Z</time>
      </trkpt>
      <trkpt lat="50.875381026417017" lon="15.215326007455587">
        <ele>422.16000000000003</ele>
        <time>2013-09-05T13:25:24Z</time>
      </trkpt>
      <trkpt lat="50.875426959246397" lon="15.21511503495276">
        <ele>421.19</ele>
        <time>2013-09-05T13:25:25Z</time>
      </trkpt>
      <trkpt lat="50.875611025840044" lon="15.214525032788515">
        <ele>419.26999999999998</ele>
        <time>2013-09-05T13:25:28Z</time>
      </trkpt>
      <trkpt lat="50.875687971711159" lon="15.214341972023249">
        <ele>418.31</ele>
        <time>2013-09-05T13:25:29Z</time>
      </trkpt>
      <trkpt lat="50.87637796998024" lon="15.212956024333835">
        <ele>413.5</ele>
        <time>2013-09-05T13:25:38Z</time>
      </trkpt>
      <trkpt lat="50.876585002988577" lon="15.212327968329191">
        <ele>410.13999999999999</ele>
        <time>2013-09-05T13:25:42Z</time>
      </trkpt>
      <trkpt lat="50.876578968018293" lon="15.212165024131536">
        <ele>409.66000000000003</ele>
        <time>2013-09-05T13:25:43Z</time>
      </trkpt>
      <trkpt lat="50.87654803879559" lon="15.212013982236385">
        <ele>410.13999999999999</ele>
        <time>2013-09-05T13:25:44Z</time>
      </trkpt>
      <trkpt lat="50.876488024368882" lon="15.211860006675124">
        <ele>409.66000000000003</ele>
        <time>2013-09-05T13:25:45Z</time>
      </trkpt>
      <trkpt lat="50.87642096914351" lon="15.211706031113863">
        <ele>408.22000000000003</ele>
        <time>2013-09-05T13:25:46Z</time>
      </trkpt>
      <trkpt lat="50.876362966373563" lon="15.211564963683486">
        <ele>407.74000000000001</ele>
        <time>2013-09-05T13:25:47Z</time>
      </trkpt>
      <trkpt lat="50.876186024397612" lon="15.211173025891185">
        <ele>407.25999999999999</ele>
        <time>2013-09-05T13:25:50Z</time>
      </trkpt>
      <trkpt lat="50.876158028841019" lon="15.211036987602711">
        <ele>406.76999999999998</ele>
        <time>2013-09-05T13:25:51Z</time>
      </trkpt>
      <trkpt lat="50.876159034669399" lon="15.210898015648127">
        <ele>406.76999999999998</ele>
        <time>2013-09-05T13:25:52Z</time>
      </trkpt>
      <trkpt lat="50.876143025234342" lon="15.210743034258485">
        <ele>407.74000000000001</ele>
        <time>2013-09-05T13:25:53Z</time>
      </trkpt>
      <trkpt lat="50.876142019405961" lon="15.210591992363334">
        <ele>408.22000000000003</ele>
        <time>2013-09-05T13:25:54Z</time>
      </trkpt>
      <trkpt lat="50.876087034121156" lon="15.210309019312263">
        <ele>406.29000000000002</ele>
        <time>2013-09-05T13:25:56Z</time>
      </trkpt>
      <trkpt lat="50.87599198333919" lon="15.21017499268055">
        <ele>403.88999999999999</ele>
        <time>2013-09-05T13:25:57Z</time>
      </trkpt>
      <trkpt lat="50.875542964786291" lon="15.209264969453216">
        <ele>401.97000000000003</ele>
        <time>2013-09-05T13:26:03Z</time>
      </trkpt>
      <trkpt lat="50.875306008383632" lon="15.208569020032883">
        <ele>401.49000000000001</ele>
        <time>2013-09-05T13:26:07Z</time>
      </trkpt>
      <trkpt lat="50.875234007835388" lon="15.208426024764776">
        <ele>401.00999999999999</ele>
        <time>2013-09-05T13:26:08Z</time>
      </trkpt>
      <trkpt lat="50.875067040324211" lon="15.208163000643253">
        <ele>402.44999999999999</ele>
        <time>2013-09-05T13:26:10Z</time>
      </trkpt>
      <trkpt lat="50.874824970960617" lon="15.207653967663646">
        <ele>402.93000000000001</ele>
        <time>2013-09-05T13:26:14Z</time>
      </trkpt>
      <trkpt lat="50.87480996735394" lon="15.207492029294372">
        <ele>403.41000000000003</ele>
        <time>2013-09-05T13:26:15Z</time>
      </trkpt>
      <trkpt lat="50.874817008152604" lon="15.207307962700725">
        <ele>401.49000000000001</ele>
        <time>2013-09-05T13:26:16Z</time>
      </trkpt>
      <trkpt lat="50.874826982617378" lon="15.207126997411251">
        <ele>400.05000000000001</ele>
        <time>2013-09-05T13:26:17Z</time>
      </trkpt>
      <trkpt lat="50.874843997880816" lon="15.206942008808255">
        <ele>397.63999999999999</ele>
        <time>2013-09-05T13:26:18Z</time>
      </trkpt>
      <trkpt lat="50.87487299926579" lon="15.206766994670033">
        <ele>397.16000000000003</ele>
        <time>2013-09-05T13:26:19Z</time>
      </trkpt>
      <trkpt lat="50.875007025897503" lon="15.205675000324845">
        <ele>392.83999999999997</ele>
        <time>2013-09-05T13:26:25Z</time>
      </trkpt>
      <trkpt lat="50.87498196400702" lon="15.205494035035372">
        <ele>392.83999999999997</ele>
        <time>2013-09-05T13:26:26Z</time>
      </trkpt>
      <trkpt lat="50.874947011470795" lon="15.205305023118854">
        <ele>391.87</ele>
        <time>2013-09-05T13:26:27Z</time>
      </trkpt>
      <trkpt lat="50.874897977337241" lon="15.204940997064114">
        <ele>392.83999999999997</ele>
        <time>2013-09-05T13:26:29Z</time>
      </trkpt>
      <trkpt lat="50.87489596568048" lon="15.204745028167963">
        <ele>392.83999999999997</ele>
        <time>2013-09-05T13:26:30Z</time>
      </trkpt>
      <trkpt lat="50.874745007604361" lon="15.202762959524989">
        <ele>389.94999999999999</ele>
        <time>2013-09-05T13:26:40Z</time>
      </trkpt>
      <trkpt lat="50.874737966805696" lon="15.200695982202888">
        <ele>385.14999999999998</ele>
        <time>2013-09-05T13:26:50Z</time>
      </trkpt>
      <trkpt lat="50.874792030081153" lon="15.200518034398556">
        <ele>384.18000000000001</ele>
        <time>2013-09-05T13:26:51Z</time>
      </trkpt>
      <trkpt lat="50.874832011759281" lon="15.200329022482038">
        <ele>383.22000000000003</ele>
        <time>2013-09-05T13:26:52Z</time>
      </trkpt>
      <trkpt lat="50.874847015365958" lon="15.200116960331798">
        <ele>384.66000000000003</ele>
        <time>2013-09-05T13:26:53Z</time>
      </trkpt>
      <trkpt lat="50.874937037006021" lon="15.199954016134143">
        <ele>384.66000000000003</ele>
        <time>2013-09-05T13:26:54Z</time>
      </trkpt>
      <trkpt lat="50.87562502361834" lon="15.198420966044068">
        <ele>383.22000000000003</ele>
        <time>2013-09-05T13:27:03Z</time>
      </trkpt>
      <trkpt lat="50.875719990581274" lon="15.198043026030064">
        <ele>382.74000000000001</ele>
        <time>2013-09-05T13:27:05Z</time>
      </trkpt>
      <trkpt lat="50.875730970874429" lon="15.197832975536585">
        <ele>381.30000000000001</ele>
        <time>2013-09-05T13:27:06Z</time>
      </trkpt>
      <trkpt lat="50.875736000016332" lon="15.197426034137607">
        <ele>379.86000000000001</ele>
        <time>2013-09-05T13:27:08Z</time>
      </trkpt>
      <trkpt lat="50.875623011961579" lon="15.195325026288629">
        <ele>376.97000000000003</ele>
        <time>2013-09-05T13:27:18Z</time>
      </trkpt>
      <trkpt lat="50.875645978376269" lon="15.194919006898999">
        <ele>376.49000000000001</ele>
        <time>2013-09-05T13:27:20Z</time>
      </trkpt>
      <trkpt lat="50.875686965882778" lon="15.194731000810862">
        <ele>376.49000000000001</ele>
        <time>2013-09-05T13:27:21Z</time>
      </trkpt>
      <trkpt lat="50.875737005844712" lon="15.194548023864627">
        <ele>376.49000000000001</ele>
        <time>2013-09-05T13:27:22Z</time>
      </trkpt>
      <trkpt lat="50.875886958092451" lon="15.194004038348794">
        <ele>376.49000000000001</ele>
        <time>2013-09-05T13:27:25Z</time>
      </trkpt>
      <trkpt lat="50.875916965305805" lon="15.193829024210572">
        <ele>376.97000000000003</ele>
        <time>2013-09-05T13:27:26Z</time>
      </trkpt>
      <trkpt lat="50.875928029417992" lon="15.193654010072351">
        <ele>377.94</ele>
        <time>2013-09-05T13:27:27Z</time>
      </trkpt>
      <trkpt lat="50.875899028033018" lon="15.193470027297735">
        <ele>376.97000000000003</ele>
        <time>2013-09-05T13:27:28Z</time>
      </trkpt>
      <trkpt lat="50.875878995284438" lon="15.193286966532469">
        <ele>375.52999999999997</ele>
        <time>2013-09-05T13:27:29Z</time>
      </trkpt>
      <trkpt lat="50.875791991129518" lon="15.192737029865384">
        <ele>372.64999999999998</ele>
        <time>2013-09-05T13:27:32Z</time>
      </trkpt>
      <trkpt lat="50.875780005007982" lon="15.192539971321821">
        <ele>371.20999999999998</ele>
        <time>2013-09-05T13:27:33Z</time>
      </trkpt>
      <trkpt lat="50.875802971422672" lon="15.19236302934587">
        <ele>370.24000000000001</ele>
        <time>2013-09-05T13:27:34Z</time>
      </trkpt>
      <trkpt lat="50.875825015828013" lon="15.192167982459068">
        <ele>370.24000000000001</ele>
        <time>2013-09-05T13:27:35Z</time>
      </trkpt>
      <trkpt lat="50.875874971970916" lon="15.191982993856072">
        <ele>369.75999999999999</ele>
        <time>2013-09-05T13:27:36Z</time>
      </trkpt>
      <trkpt lat="50.875934986397624" lon="15.191799011081457">
        <ele>369.75999999999999</ele>
        <time>2013-09-05T13:27:37Z</time>
      </trkpt>
      <trkpt lat="50.876366989687085" lon="15.190346008166671">
        <ele>368.31999999999999</ele>
        <time>2013-09-05T13:27:45Z</time>
      </trkpt>
      <trkpt lat="50.876647029072046" lon="15.18967998214066">
        <ele>367.83999999999997</ele>
        <time>2013-09-05T13:27:49Z</time>
      </trkpt>
      <trkpt lat="50.877295034006238" lon="15.187927996739745">
        <ele>369.27999999999997</ele>
        <time>2013-09-05T13:27:59Z</time>
      </trkpt>
      <trkpt lat="50.877337027341127" lon="15.187735967338085">
        <ele>369.75999999999999</ele>
        <time>2013-09-05T13:28:00Z</time>
      </trkpt>
      <trkpt lat="50.87736401706934" lon="15.187542010098696">
        <ele>370.24000000000001</ele>
        <time>2013-09-05T13:28:01Z</time>
      </trkpt>
      <trkpt lat="50.877369968220592" lon="15.187354004010558">
        <ele>370.24000000000001</ele>
        <time>2013-09-05T13:28:02Z</time>
      </trkpt>
      <trkpt lat="50.877330992370844" lon="15.187190975993872">
        <ele>371.20999999999998</ele>
        <time>2013-09-05T13:28:03Z</time>
      </trkpt>
      <trkpt lat="50.877253040671349" lon="15.187053009867668">
        <ele>371.69</ele>
        <time>2013-09-05T13:28:04Z</time>
      </trkpt>
      <trkpt lat="50.877154972404242" lon="15.186915965750813">
        <ele>372.17000000000002</ele>
        <time>2013-09-05T13:28:05Z</time>
      </trkpt>
      <trkpt lat="50.877055982127786" lon="15.186779005452991">
        <ele>372.64999999999998</ele>
        <time>2013-09-05T13:28:06Z</time>
      </trkpt>
      <trkpt lat="50.876371013000607" lon="15.185575028881431">
        <ele>374.56999999999999</ele>
        <time>2013-09-05T13:28:14Z</time>
      </trkpt>
      <trkpt lat="50.87631200440228" lon="15.185418035835028">
        <ele>375.05000000000001</ele>
        <time>2013-09-05T13:28:15Z</time>
      </trkpt>
      <trkpt lat="50.876267999410629" lon="15.185243021696806">
        <ele>375.52999999999997</ele>
        <time>2013-09-05T13:28:16Z</time>
      </trkpt>
      <trkpt lat="50.876231035217643" lon="15.18506096675992">
        <ele>375.52999999999997</ele>
        <time>2013-09-05T13:28:17Z</time>
      </trkpt>
      <trkpt lat="50.876202033832669" lon="15.18486600369215">
        <ele>375.52999999999997</ele>
        <time>2013-09-05T13:28:18Z</time>
      </trkpt>
      <trkpt lat="50.876171020790935" lon="15.184674980118871">
        <ele>375.52999999999997</ele>
        <time>2013-09-05T13:28:19Z</time>
      </trkpt>
      <trkpt lat="50.876064989715815" lon="15.18389998935163">
        <ele>374.56999999999999</ele>
        <time>2013-09-05T13:28:23Z</time>
      </trkpt>
      <trkpt lat="50.876030959188938" lon="15.183460023254156">
        <ele>374.08999999999997</ele>
        <time>2013-09-05T13:28:26Z</time>
      </trkpt>
      <trkpt lat="50.876057026907802" lon="15.183352986350656">
        <ele>373.61000000000001</ele>
        <time>2013-09-05T13:28:27Z</time>
      </trkpt>
      <trkpt lat="50.876111006364226" lon="15.183284003287554">
        <ele>373.13</ele>
        <time>2013-09-05T13:28:28Z</time>
      </trkpt>
      <trkpt lat="50.876187030225992" lon="15.183233041316271">
        <ele>373.13</ele>
        <time>2013-09-05T13:28:29Z</time>
      </trkpt>
      <trkpt lat="50.876267999410629" lon="15.183185013011098">
        <ele>373.13</ele>
        <time>2013-09-05T13:28:30Z</time>
      </trkpt>
      <trkpt lat="50.877368962392211" lon="15.182672040537">
        <ele>374.08999999999997</ele>
        <time>2013-09-05T13:28:41Z</time>
      </trkpt>
      <trkpt lat="50.878326008096337" lon="15.182441035285592">
        <ele>377.94</ele>
        <time>2013-09-05T13:28:50Z</time>
      </trkpt>
      <trkpt lat="50.8784160297364" lon="15.182365011423826">
        <ele>377.94</ele>
        <time>2013-09-05T13:28:51Z</time>
      </trkpt>
      <trkpt lat="50.878663966432214" lon="15.182109028100967">
        <ele>377.94</ele>
        <time>2013-09-05T13:28:54Z</time>
      </trkpt>
      <trkpt lat="50.878732027485967" lon="15.18201095983386">
        <ele>377.94</ele>
        <time>2013-09-05T13:28:55Z</time>
      </trkpt>
      <trkpt lat="50.878792963922024" lon="15.181910963729024">
        <ele>377.44999999999999</ele>
        <time>2013-09-05T13:28:56Z</time>
      </trkpt>
      <trkpt lat="50.878893965855241" lon="15.181725975126028">
        <ele>377.44999999999999</ele>
        <time>2013-09-05T13:28:58Z</time>
      </trkpt>
      <trkpt lat="50.879026986658573" lon="15.181435039266944">
        <ele>377.94</ele>
        <time>2013-09-05T13:29:01Z</time>
      </trkpt>
      <trkpt lat="50.879375003278255" lon="15.180609002709389">
        <ele>381.77999999999997</ele>
        <time>2013-09-05T13:29:07Z</time>
      </trkpt>
      <trkpt lat="50.880162985995412" lon="15.178999006748199">
        <ele>382.25999999999999</ele>
        <time>2013-09-05T13:29:18Z</time>
      </trkpt>
      <trkpt lat="50.88024596683681" lon="15.178858023136854">
        <ele>382.74000000000001</ele>
        <time>2013-09-05T13:29:19Z</time>
      </trkpt>
      <trkpt lat="50.880332970991731" lon="15.178727013990283">
        <ele>382.74000000000001</ele>
        <time>2013-09-05T13:29:20Z</time>
      </trkpt>
      <trkpt lat="50.881230002269149" lon="15.177576011046767">
        <ele>376.00999999999999</ele>
        <time>2013-09-05T13:29:30Z</time>
      </trkpt>
      <trkpt lat="50.881780022755265" lon="15.176686020568013">
        <ele>366.39999999999998</ele>
        <time>2013-09-05T13:29:37Z</time>
      </trkpt>
      <trkpt lat="50.881836013868451" lon="15.176547970622778">
        <ele>365.92000000000002</ele>
        <time>2013-09-05T13:29:38Z</time>
      </trkpt>
      <trkpt lat="50.881882030516863" lon="15.176383014768362">
        <ele>364.95999999999998</ele>
        <time>2013-09-05T13:29:39Z</time>
      </trkpt>
      <trkpt lat="50.882075987756252" lon="15.175677007064223">
        <ele>360.14999999999998</ele>
        <time>2013-09-05T13:29:43Z</time>
      </trkpt>
      <trkpt lat="50.882152011618018" lon="15.175528982654214">
        <ele>359.67000000000002</ele>
        <time>2013-09-05T13:29:44Z</time>
      </trkpt>
      <trkpt lat="50.8822410274297" lon="15.175403002649546">
        <ele>359.19</ele>
        <time>2013-09-05T13:29:45Z</time>
      </trkpt>
      <trkpt lat="50.882568005472422" lon="15.174883995205164">
        <ele>356.31</ele>
        <time>2013-09-05T13:29:49Z</time>
      </trkpt>
      <trkpt lat="50.882620979100466" lon="15.174744017422199">
        <ele>356.31</ele>
        <time>2013-09-05T13:29:50Z</time>
      </trkpt>
      <trkpt lat="50.882656015455723" lon="15.174584006890655">
        <ele>356.79000000000002</ele>
        <time>2013-09-05T13:29:51Z</time>
      </trkpt>
      <trkpt lat="50.882657021284103" lon="15.174408992752433">
        <ele>357.26999999999998</ele>
        <time>2013-09-05T13:29:52Z</time>
      </trkpt>
      <trkpt lat="50.882658027112484" lon="15.174233978614211">
        <ele>357.75</ele>
        <time>2013-09-05T13:29:53Z</time>
      </trkpt>
      <trkpt lat="50.882646963000298" lon="15.174055024981499">
        <ele>357.26999999999998</ele>
        <time>2013-09-05T13:29:54Z</time>
      </trkpt>
      <trkpt lat="50.88263195939362" lon="15.173305012285709">
        <ele>358.23000000000002</ele>
        <time>2013-09-05T13:29:58Z</time>
      </trkpt>
      <trkpt lat="50.882425010204315" lon="15.17126401886344">
        <ele>355.33999999999997</ele>
        <time>2013-09-05T13:30:08Z</time>
      </trkpt>
      <trkpt lat="50.88243699632585" lon="15.170563040301204">
        <ele>354.38</ele>
        <time>2013-09-05T13:30:11Z</time>
      </trkpt>
      <trkpt lat="50.882472032681108" lon="15.170345026999712">
        <ele>353.89999999999998</ele>
        <time>2013-09-05T13:30:12Z</time>
      </trkpt>
      <trkpt lat="50.882498016580939" lon="15.170122990384698">
        <ele>353.89999999999998</ele>
        <time>2013-09-05T13:30:13Z</time>
      </trkpt>
      <trkpt lat="50.882611004635692" lon="15.169690987095237">
        <ele>352.94</ele>
        <time>2013-09-05T13:30:15Z</time>
      </trkpt>
      <trkpt lat="50.882680993527174" lon="15.169497029855847">
        <ele>352.94</ele>
        <time>2013-09-05T13:30:16Z</time>
      </trkpt>
      <trkpt lat="50.883439974859357" lon="15.167544968426228">
        <ele>351.98000000000002</ele>
        <time>2013-09-05T13:30:26Z</time>
      </trkpt>
      <trkpt lat="50.884505985304713" lon="15.165814021602273">
        <ele>352.94</ele>
        <time>2013-09-05T13:30:37Z</time>
      </trkpt>
      <trkpt lat="50.885245017707348" lon="15.164521029219031">
        <ele>349.57999999999998</ele>
        <time>2013-09-05T13:30:45Z</time>
      </trkpt>
      <trkpt lat="50.886241039261222" lon="15.163540011271834">
        <ele>349.57999999999998</ele>
        <time>2013-09-05T13:30:54Z</time>
      </trkpt>
      <trkpt lat="50.886336006224155" lon="15.163433980196714">
        <ele>349.57999999999998</ele>
        <time>2013-09-05T13:30:55Z</time>
      </trkpt>
      <trkpt lat="50.886424016207457" lon="15.163318980485201">
        <ele>349.10000000000002</ele>
        <time>2013-09-05T13:30:56Z</time>
      </trkpt>
      <trkpt lat="50.886499034240842" lon="15.163185959681869">
        <ele>349.57999999999998</ele>
        <time>2013-09-05T13:30:57Z</time>
      </trkpt>
      <trkpt lat="50.886555025354028" lon="15.163024021312594">
        <ele>348.13</ele>
        <time>2013-09-05T13:30:58Z</time>
      </trkpt>
      <trkpt lat="50.88660397566855" lon="15.162846995517612">
        <ele>348.13</ele>
        <time>2013-09-05T13:30:59Z</time>
      </trkpt>
      <trkpt lat="50.886653009802103" lon="15.162655971944332">
        <ele>347.17000000000002</ele>
        <time>2013-09-05T13:31:00Z</time>
      </trkpt>
      <trkpt lat="50.886850990355015" lon="15.161828007549047">
        <ele>343.32999999999998</ele>
        <time>2013-09-05T13:31:04Z</time>
      </trkpt>
      <trkpt lat="50.886903963983059" lon="15.16142601147294">
        <ele>341.88999999999999</ele>
        <time>2013-09-05T13:31:06Z</time>
      </trkpt>
      <trkpt lat="50.886959033086896" lon="15.160818994045258">
        <ele>342.37</ele>
        <time>2013-09-05T13:31:09Z</time>
      </trkpt>
      <trkpt lat="50.887175034731627" lon="15.15962197445333">
        <ele>340.44</ele>
        <time>2013-09-05T13:31:15Z</time>
      </trkpt>
      <trkpt lat="50.88724703527987" lon="15.158969024196267">
        <ele>340.44</ele>
        <time>2013-09-05T13:31:18Z</time>
      </trkpt>
      <trkpt lat="50.887393970042467" lon="15.157679971307516">
        <ele>339.48000000000002</ele>
        <time>2013-09-05T13:31:24Z</time>
      </trkpt>
      <trkpt lat="50.887448033317924" lon="15.157491965219378">
        <ele>339</ele>
        <time>2013-09-05T13:31:25Z</time>
      </trkpt>
      <trkpt lat="50.888354033231735" lon="15.155185014009476">
        <ele>342.85000000000002</ele>
        <time>2013-09-05T13:31:38Z</time>
      </trkpt>
      <trkpt lat="50.888969013467431" lon="15.154040968045592">
        <ele>346.20999999999998</ele>
        <time>2013-09-05T13:31:45Z</time>
      </trkpt>
      <trkpt lat="50.889530014246702" lon="15.153482984751463">
        <ele>348.13</ele>
        <time>2013-09-05T13:31:50Z</time>
      </trkpt>
      <trkpt lat="50.890741031616926" lon="15.152394007891417">
        <ele>342.85000000000002</ele>
        <time>2013-09-05T13:32:00Z</time>
      </trkpt>
      <trkpt lat="50.891790026798844" lon="15.15100697055459">
        <ele>343.32999999999998</ele>
        <time>2013-09-05T13:32:10Z</time>
      </trkpt>
      <trkpt lat="50.892155980691314" lon="15.15036097727716">
        <ele>343.81</ele>
        <time>2013-09-05T13:32:14Z</time>
      </trkpt>
      <trkpt lat="50.892267962917686" lon="15.150199960917234">
        <ele>343.81</ele>
        <time>2013-09-05T13:32:15Z</time>
      </trkpt>
      <trkpt lat="50.892686974257231" lon="15.149551033973694">
        <ele>338.51999999999998</ele>
        <time>2013-09-05T13:32:19Z</time>
      </trkpt>
      <trkpt lat="50.892775990068913" lon="15.149370990693569">
        <ele>338.51999999999998</ele>
        <time>2013-09-05T13:32:20Z</time>
      </trkpt>
      <trkpt lat="50.892843967303634" lon="15.149172004312277">
        <ele>338.04000000000002</ele>
        <time>2013-09-05T13:32:21Z</time>
      </trkpt>
      <trkpt lat="50.893189972266555" lon="15.148170031607151">
        <ele>334.68000000000001</ele>
        <time>2013-09-05T13:32:26Z</time>
      </trkpt>
      <trkpt lat="50.893287034705281" lon="15.147989988327026">
        <ele>334.68000000000001</ele>
        <time>2013-09-05T13:32:27Z</time>
      </trkpt>
      <trkpt lat="50.893691964447498" lon="15.147299990057945">
        <ele>333.70999999999998</ele>
        <time>2013-09-05T13:32:31Z</time>
      </trkpt>
      <trkpt lat="50.894037969410419" lon="15.146881984546781">
        <ele>333.23000000000002</ele>
        <time>2013-09-05T13:32:34Z</time>
      </trkpt>
      <trkpt lat="50.894130002707243" lon="15.146730020642281">
        <ele>333.23000000000002</ele>
        <time>2013-09-05T13:32:35Z</time>
      </trkpt>
      <trkpt lat="50.894221030175686" lon="15.146576967090368">
        <ele>333.23000000000002</ele>
        <time>2013-09-05T13:32:36Z</time>
      </trkpt>
      <trkpt lat="50.894668959081173" lon="15.145880011841655">
        <ele>334.19999999999999</ele>
        <time>2013-09-05T13:32:41Z</time>
      </trkpt>
      <trkpt lat="50.894781025126576" lon="15.145792001858354">
        <ele>334.19999999999999</ele>
        <time>2013-09-05T13:32:42Z</time>
      </trkpt>
      <trkpt lat="50.894900970160961" lon="15.145729975774884">
        <ele>334.68000000000001</ele>
        <time>2013-09-05T13:32:43Z</time>
      </trkpt>
      <trkpt lat="50.895638996735215" lon="15.145365027710795">
        <ele>336.12</ele>
        <time>2013-09-05T13:32:49Z</time>
      </trkpt>
      <trkpt lat="50.895742010325193" lon="15.145262014120817">
        <ele>335.16000000000003</ele>
        <time>2013-09-05T13:32:50Z</time>
      </trkpt>
      <trkpt lat="50.895936973392963" lon="15.145030003041029">
        <ele>335.16000000000003</ele>
        <time>2013-09-05T13:32:52Z</time>
      </trkpt>
      <trkpt lat="50.896549019962549" lon="15.14410799369216">
        <ele>336.12</ele>
        <time>2013-09-05T13:33:01Z</time>
      </trkpt>
      <trkpt lat="50.897027961909771" lon="15.142791029065847">
        <ele>333.70999999999998</ele>
        <time>2013-09-05T13:33:12Z</time>
      </trkpt>
      <trkpt lat="50.89745401404798" lon="15.141583029180765">
        <ele>330.35000000000002</ele>
        <time>2013-09-05T13:33:21Z</time>
      </trkpt>
      <trkpt lat="50.897472035139799" lon="15.141443973407149">
        <ele>330.82999999999998</ele>
        <time>2013-09-05T13:33:22Z</time>
      </trkpt>
      <trkpt lat="50.897484021261334" lon="15.141300978139043">
        <ele>330.35000000000002</ele>
        <time>2013-09-05T13:33:23Z</time>
      </trkpt>
      <trkpt lat="50.897659035399556" lon="15.139641026034951">
        <ele>330.35000000000002</ele>
        <time>2013-09-05T13:33:33Z</time>
      </trkpt>
      <trkpt lat="50.897719971835613" lon="15.139283034950495">
        <ele>327.94999999999999</ele>
        <time>2013-09-05T13:33:36Z</time>
      </trkpt>
      <trkpt lat="50.897723995149136" lon="15.139224026352167">
        <ele>326.99000000000001</ele>
        <time>2013-09-05T13:33:37Z</time>
      </trkpt>
      <trkpt lat="50.897717960178852" lon="15.139169041067362">
        <ele>326.01999999999998</ele>
        <time>2013-09-05T13:33:38Z</time>
      </trkpt>
      <trkpt lat="50.897709997370839" lon="15.139117995277047">
        <ele>325.54000000000002</ele>
        <time>2013-09-05T13:33:39Z</time>
      </trkpt>
      <trkpt lat="50.897685019299388" lon="15.139057980850339">
        <ele>324.57999999999998</ele>
        <time>2013-09-05T13:33:40Z</time>
      </trkpt>
      <trkpt lat="50.897656017914414" lon="15.139019005000591">
        <ele>324.57999999999998</ele>
        <time>2013-09-05T13:33:41Z</time>
      </trkpt>
      <trkpt lat="50.897619975730777" lon="15.138983968645334">
        <ele>324.57999999999998</ele>
        <time>2013-09-05T13:33:42Z</time>
      </trkpt>
      <trkpt lat="50.897575970739126" lon="15.138958990573883">
        <ele>324.10000000000002</ele>
        <time>2013-09-05T13:33:43Z</time>
      </trkpt>
      <trkpt lat="50.897530037909746" lon="15.138936024159193">
        <ele>323.13999999999999</ele>
        <time>2013-09-05T13:33:44Z</time>
      </trkpt>
      <trkpt lat="50.897466000169516" lon="15.138895958662033">
        <ele>324.10000000000002</ele>
        <time>2013-09-05T13:33:45Z</time>
      </trkpt>
      <trkpt lat="50.897392993792892" lon="15.138858994469047">
        <ele>324.57999999999998</ele>
        <time>2013-09-05T13:33:46Z</time>
      </trkpt>
      <trkpt lat="50.897309007123113" lon="15.138804009184241">
        <ele>324.10000000000002</ele>
        <time>2013-09-05T13:33:47Z</time>
      </trkpt>
      <trkpt lat="50.897228959947824" lon="15.138705018907785">
        <ele>325.06</ele>
        <time>2013-09-05T13:33:48Z</time>
      </trkpt>
      <trkpt lat="50.897154025733471" lon="15.138570992276073">
        <ele>326.01999999999998</ele>
        <time>2013-09-05T13:33:49Z</time>
      </trkpt>
      <trkpt lat="50.897102979943156" lon="15.138447023928165">
        <ele>325.54000000000002</ele>
        <time>2013-09-05T13:33:50Z</time>
      </trkpt>
      <trkpt lat="50.897055035457015" lon="15.138293970376253">
        <ele>326.01999999999998</ele>
        <time>2013-09-05T13:33:51Z</time>
      </trkpt>
      <trkpt lat="50.897029973566532" lon="15.138130020350218">
        <ele>326.5</ele>
        <time>2013-09-05T13:33:52Z</time>
      </trkpt>
      <trkpt lat="50.897009018808603" lon="15.137951988726854">
        <ele>327.47000000000003</ele>
        <time>2013-09-05T13:33:53Z</time>
      </trkpt>
      <trkpt lat="50.896997032687068" lon="15.137772029265761">
        <ele>328.43000000000001</ele>
        <time>2013-09-05T13:33:54Z</time>
      </trkpt>
      <trkpt lat="50.896975994110107" lon="15.13757798820734">
        <ele>329.38999999999999</ele>
        <time>2013-09-05T13:33:55Z</time>
      </trkpt>
      <trkpt lat="50.896986974403262" lon="15.137201976031065">
        <ele>331.31</ele>
        <time>2013-09-05T13:33:57Z</time>
      </trkpt>
      <trkpt lat="50.896996026858687" lon="15.136448023840785">
        <ele>330.35000000000002</ele>
        <time>2013-09-05T13:34:01Z</time>
      </trkpt>
      <trkpt lat="50.896780025213957" lon="15.134845990687609">
        <ele>332.26999999999998</ele>
        <time>2013-09-05T13:34:10Z</time>
      </trkpt>
      <trkpt lat="50.896741971373558" lon="15.134219024330378">
        <ele>328.91000000000003</ele>
        <time>2013-09-05T13:34:14Z</time>
      </trkpt>
      <trkpt lat="50.896748006343842" lon="15.132530992850661">
        <ele>335.63999999999999</ele>
        <time>2013-09-05T13:34:25Z</time>
      </trkpt>
      <trkpt lat="50.896742977201939" lon="15.131177986040711">
        <ele>341.41000000000003</ele>
        <time>2013-09-05T13:34:30Z</time>
      </trkpt>
      <trkpt lat="50.896782036870718" lon="15.129354000091553">
        <ele>340.44</ele>
        <time>2013-09-05T13:34:37Z</time>
      </trkpt>
      <trkpt lat="50.896699978038669" lon="15.126893995329738">
        <ele>329.87</ele>
        <time>2013-09-05T13:34:48Z</time>
      </trkpt>
      <trkpt lat="50.896762004122138" lon="15.125641990453005">
        <ele>326.01999999999998</ele>
        <time>2013-09-05T13:34:55Z</time>
      </trkpt>
      <trkpt lat="50.89680802077055" lon="15.125530008226633">
        <ele>326.01999999999998</ele>
        <time>2013-09-05T13:34:56Z</time>
      </trkpt>
      <trkpt lat="50.896879015490413" lon="15.125448033213615">
        <ele>326.01999999999998</ele>
        <time>2013-09-05T13:34:57Z</time>
      </trkpt>
      <trkpt lat="50.896956967189908" lon="15.125371003523469">
        <ele>325.06</ele>
        <time>2013-09-05T13:34:58Z</time>
      </trkpt>
      <trkpt lat="50.897054029628634" lon="15.125326998531818">
        <ele>324.57999999999998</ele>
        <time>2013-09-05T13:34:59Z</time>
      </trkpt>
      <trkpt lat="50.897168023511767" lon="15.125300008803606">
        <ele>324.10000000000002</ele>
        <time>2013-09-05T13:35:00Z</time>
      </trkpt>
      <trkpt lat="50.897284029051661" lon="15.125268995761871">
        <ele>323.62</ele>
        <time>2013-09-05T13:35:01Z</time>
      </trkpt>
      <trkpt lat="50.898413993418217" lon="15.12505098246038">
        <ele>316.41000000000003</ele>
        <time>2013-09-05T13:35:10Z</time>
      </trkpt>
      <trkpt lat="50.899632973596454" lon="15.124870017170906">
        <ele>307.27999999999997</ele>
        <time>2013-09-05T13:35:20Z</time>
      </trkpt>
      <trkpt lat="50.900680040940642" lon="15.124775972217321">
        <ele>311.60000000000002</ele>
        <time>2013-09-05T13:35:32Z</time>
      </trkpt>
      <trkpt lat="50.900872992351651" lon="15.124797010794282">
        <ele>314.97000000000003</ele>
        <time>2013-09-05T13:35:40Z</time>
      </trkpt>
      <trkpt lat="50.900882966816425" lon="15.124790975823998">
        <ele>315.44999999999999</ele>
        <time>2013-09-05T13:35:54Z</time>
      </trkpt>
      <trkpt lat="50.900926971808076" lon="15.124735990539193">
        <ele>316.41000000000003</ele>
        <time>2013-09-05T13:35:55Z</time>
      </trkpt>
      <trkpt lat="50.900944992899895" lon="15.124653009697795">
        <ele>315.93000000000001</ele>
        <time>2013-09-05T13:35:56Z</time>
      </trkpt>
      <trkpt lat="50.900967037305236" lon="15.124566005542874">
        <ele>315.93000000000001</ele>
        <time>2013-09-05T13:35:57Z</time>
      </trkpt>
      <trkpt lat="50.900971982628107" lon="15.12446902692318">
        <ele>316.41000000000003</ele>
        <time>2013-09-05T13:35:58Z</time>
      </trkpt>
      <trkpt lat="50.900988997891545" lon="15.124374981969595">
        <ele>315.93000000000001</ele>
        <time>2013-09-05T13:35:59Z</time>
      </trkpt>
      <trkpt lat="50.901123024523258" lon="15.123476022854447">
        <ele>315.44999999999999</ele>
        <time>2013-09-05T13:36:09Z</time>
      </trkpt>
      <trkpt lat="50.901200976222754" lon="15.123194977641106">
        <ele>316.41000000000003</ele>
        <time>2013-09-05T13:36:12Z</time>
      </trkpt>
      <trkpt lat="50.901295021176338" lon="15.123004959896207">
        <ele>314.97000000000003</ele>
        <time>2013-09-05T13:36:14Z</time>
      </trkpt>
      <trkpt lat="50.901354029774666" lon="15.122921979054809">
        <ele>314.97000000000003</ele>
        <time>2013-09-05T13:36:15Z</time>
      </trkpt>
      <trkpt lat="50.90207302942872" lon="15.122026959434152">
        <ele>317.85000000000002</ele>
        <time>2013-09-05T13:36:25Z</time>
      </trkpt>
      <trkpt lat="50.90250302106142" lon="15.12163502164185">
        <ele>318.81</ele>
        <time>2013-09-05T13:36:29Z</time>
      </trkpt>
      <trkpt lat="50.902592958882451" lon="15.121496971696615">
        <ele>319.30000000000001</ele>
        <time>2013-09-05T13:36:30Z</time>
      </trkpt>
      <trkpt lat="50.902668982744217" lon="15.121347019448876">
        <ele>319.77999999999997</ele>
        <time>2013-09-05T13:36:31Z</time>
      </trkpt>
      <trkpt lat="50.902727991342545" lon="15.121181979775429">
        <ele>320.25999999999999</ele>
        <time>2013-09-05T13:36:32Z</time>
      </trkpt>
      <trkpt lat="50.902781970798969" lon="15.121005037799478">
        <ele>320.74000000000001</ele>
        <time>2013-09-05T13:36:33Z</time>
      </trkpt>
      <trkpt lat="50.902818012982607" lon="15.120805967599154">
        <ele>319.30000000000001</ele>
        <time>2013-09-05T13:36:34Z</time>
      </trkpt>
      <trkpt lat="50.903193019330502" lon="15.119230002164841">
        <ele>318.32999999999998</ele>
        <time>2013-09-05T13:36:42Z</time>
      </trkpt>
      <trkpt lat="50.903286980465055" lon="15.119074014946818">
        <ele>319.30000000000001</ele>
        <time>2013-09-05T13:36:43Z</time>
      </trkpt>
      <trkpt lat="50.903884023427963" lon="15.117405010387301">
        <ele>309.19999999999999</ele>
        <time>2013-09-05T13:36:53Z</time>
      </trkpt>
      <trkpt lat="50.904091978445649" lon="15.116676036268473">
        <ele>305.36000000000001</ele>
        <time>2013-09-05T13:36:57Z</time>
      </trkpt>
      <trkpt lat="50.904146963730454" lon="15.116333970800042">
        <ele>306.31999999999999</ele>
        <time>2013-09-05T13:36:59Z</time>
      </trkpt>
      <trkpt lat="50.904137995094061" lon="15.116162979975343">
        <ele>307.75999999999999</ele>
        <time>2013-09-05T13:37:00Z</time>
      </trkpt>
      <trkpt lat="50.904120979830623" lon="15.115995006635785">
        <ele>308.24000000000001</ele>
        <time>2013-09-05T13:37:01Z</time>
      </trkpt>
      <trkpt lat="50.903844963759184" lon="15.114546027034521">
        <ele>316.41000000000003</ele>
        <time>2013-09-05T13:37:09Z</time>
      </trkpt>
      <trkpt lat="50.903776986524463" lon="15.114408982917666">
        <ele>316.41000000000003</ele>
        <time>2013-09-05T13:37:10Z</time>
      </trkpt>
      <trkpt lat="50.903715966269374" lon="15.114357015118003">
        <ele>317.85000000000002</ele>
        <time>2013-09-05T13:37:11Z</time>
      </trkpt>
      <trkpt lat="50.903614964336157" lon="15.114360032603145">
        <ele>318.81</ele>
        <time>2013-09-05T13:37:12Z</time>
      </trkpt>
      <trkpt lat="50.903500970453024" lon="15.114381993189454">
        <ele>320.25999999999999</ele>
        <time>2013-09-05T13:37:13Z</time>
      </trkpt>
      <trkpt lat="50.9026750177145" lon="15.114644011482596">
        <ele>330.35000000000002</ele>
        <time>2013-09-05T13:37:20Z</time>
      </trkpt>
      <trkpt lat="50.90254602022469" lon="15.1146300137043">
        <ele>331.31</ele>
        <time>2013-09-05T13:37:21Z</time>
      </trkpt>
      <trkpt lat="50.902425991371274" lon="15.114612998440862">
        <ele>332.26999999999998</ele>
        <time>2013-09-05T13:37:22Z</time>
      </trkpt>
      <trkpt lat="50.902297999709845" lon="15.114606041461229">
        <ele>333.23000000000002</ele>
        <time>2013-09-05T13:37:23Z</time>
      </trkpt>
      <trkpt lat="50.902163973078132" lon="15.114625990390778">
        <ele>333.70999999999998</ele>
        <time>2013-09-05T13:37:24Z</time>
      </trkpt>
      <trkpt lat="50.902028018608689" lon="15.114653985947371">
        <ele>334.68000000000001</ele>
        <time>2013-09-05T13:37:25Z</time>
      </trkpt>
      <trkpt lat="50.900646010413766" lon="15.114836040884256">
        <ele>346.20999999999998</ele>
        <time>2013-09-05T13:37:35Z</time>
      </trkpt>
      <trkpt lat="50.900368988513947" lon="15.114788012579083">
        <ele>347.17000000000002</ele>
        <time>2013-09-05T13:37:37Z</time>
      </trkpt>
      <trkpt lat="50.900229010730982" lon="15.114736966788769">
        <ele>347.64999999999998</ele>
        <time>2013-09-05T13:37:38Z</time>
      </trkpt>
      <trkpt lat="50.898331012576818" lon="15.113959964364767">
        <ele>355.33999999999997</ele>
        <time>2013-09-05T13:37:52Z</time>
      </trkpt>
      <trkpt lat="50.896305022761226" lon="15.113346995785832">
        <ele>355.33999999999997</ele>
        <time>2013-09-05T13:38:06Z</time>
      </trkpt>
      <trkpt lat="50.894726039841771" lon="15.112951034680009">
        <ele>351.98000000000002</ele>
        <time>2013-09-05T13:38:17Z</time>
      </trkpt>
      <trkpt lat="50.89459796436131" lon="15.112871993333101">
        <ele>351.01999999999998</ele>
        <time>2013-09-05T13:38:18Z</time>
      </trkpt>
      <trkpt lat="50.894478019326925" lon="15.112762022763491">
        <ele>351.01999999999998</ele>
        <time>2013-09-05T13:38:19Z</time>
      </trkpt>
      <trkpt lat="50.894362013787031" lon="15.112620033323765">
        <ele>351.5</ele>
        <time>2013-09-05T13:38:20Z</time>
      </trkpt>
      <trkpt lat="50.894254976883531" lon="15.112493969500065">
        <ele>351.5</ele>
        <time>2013-09-05T13:38:21Z</time>
      </trkpt>
      <trkpt lat="50.893805958330631" lon="15.112042017281055">
        <ele>354.86000000000001</ele>
        <time>2013-09-05T13:38:25Z</time>
      </trkpt>
      <trkpt lat="50.893681989982724" lon="15.111957024782896">
        <ele>355.82999999999998</ele>
        <time>2013-09-05T13:38:26Z</time>
      </trkpt>
      <trkpt lat="50.893544023856521" lon="15.11190103366971">
        <ele>356.31</ele>
        <time>2013-09-05T13:38:27Z</time>
      </trkpt>
      <trkpt lat="50.892367037013173" lon="15.111576989293098">
        <ele>353.42000000000002</ele>
        <time>2013-09-05T13:38:34Z</time>
      </trkpt>
      <trkpt lat="50.890917973592877" lon="15.111053958535194">
        <ele>351.01999999999998</ele>
        <time>2013-09-05T13:38:43Z</time>
      </trkpt>
      <trkpt lat="50.889769988134503" lon="15.110134966671467">
        <ele>349.10000000000002</ele>
        <time>2013-09-05T13:38:50Z</time>
      </trkpt>
      <trkpt lat="50.889295991510153" lon="15.109825003892183">
        <ele>348.13</ele>
        <time>2013-09-05T13:38:53Z</time>
      </trkpt>
      <trkpt lat="50.889120977371931" lon="15.109758032485843">
        <ele>348.13</ele>
        <time>2013-09-05T13:38:54Z</time>
      </trkpt>
      <trkpt lat="50.888927020132542" lon="15.109734982252121">
        <ele>347.64999999999998</ele>
        <time>2013-09-05T13:38:55Z</time>
      </trkpt>
      <trkpt lat="50.888711018487811" lon="15.109740011394024">
        <ele>347.17000000000002</ele>
        <time>2013-09-05T13:38:56Z</time>
      </trkpt>
      <trkpt lat="50.888499962165952" lon="15.109779993072152">
        <ele>347.64999999999998</ele>
        <time>2013-09-05T13:38:57Z</time>
      </trkpt>
      <trkpt lat="50.886851996183395" lon="15.109737999737263">
        <ele>348.62</ele>
        <time>2013-09-05T13:39:05Z</time>
      </trkpt>
      <trkpt lat="50.88507603853941" lon="15.109977973625064">
        <ele>349.10000000000002</ele>
        <time>2013-09-05T13:39:14Z</time>
      </trkpt>
      <trkpt lat="50.883179968222976" lon="15.110589014366269">
        <ele>352.45999999999998</ele>
        <time>2013-09-05T13:39:24Z</time>
      </trkpt>
      <trkpt lat="50.881585981696844" lon="15.111302984878421">
        <ele>359.67000000000002</ele>
        <time>2013-09-05T13:39:32Z</time>
      </trkpt>
      <trkpt lat="50.881407028064132" lon="15.111374985426664">
        <ele>360.63</ele>
        <time>2013-09-05T13:39:33Z</time>
      </trkpt>
      <trkpt lat="50.88032903149724" lon="15.111456038430333">
        <ele>363.51999999999998</ele>
        <time>2013-09-05T13:39:39Z</time>
      </trkpt>
      <trkpt lat="50.878314021974802" lon="15.111119002103806">
        <ele>371.20999999999998</ele>
        <time>2013-09-05T13:39:49Z</time>
      </trkpt>
      <trkpt lat="50.876588020473719" lon="15.110620027408004">
        <ele>377.94</ele>
        <time>2013-09-05T13:39:58Z</time>
      </trkpt>
      <trkpt lat="50.875999024137855" lon="15.110628996044397">
        <ele>381.77999999999997</ele>
        <time>2013-09-05T13:40:01Z</time>
      </trkpt>
      <trkpt lat="50.875806994736195" lon="15.110712982714176">
        <ele>383.69999999999999</ele>
        <time>2013-09-05T13:40:02Z</time>
      </trkpt>
      <trkpt lat="50.875627035275102" lon="15.110823959112167">
        <ele>384.66000000000003</ele>
        <time>2013-09-05T13:40:03Z</time>
      </trkpt>
      <trkpt lat="50.87506502866745" lon="15.111074997112155">
        <ele>388.02999999999997</ele>
        <time>2013-09-05T13:40:06Z</time>
      </trkpt>
      <trkpt lat="50.874889008700848" lon="15.111111961305141">
        <ele>388.99000000000001</ele>
        <time>2013-09-05T13:40:07Z</time>
      </trkpt>
      <trkpt lat="50.874138996005058" lon="15.111203994601965">
        <ele>390.91000000000003</ele>
        <time>2013-09-05T13:40:12Z</time>
      </trkpt>
      <trkpt lat="50.874046962708235" lon="15.111154960468411">
        <ele>391.87</ele>
        <time>2013-09-05T13:40:13Z</time>
      </trkpt>
      <trkpt lat="50.873960964381695" lon="15.111039038747549">
        <ele>392.83999999999997</ele>
        <time>2013-09-05T13:40:14Z</time>
      </trkpt>
      <trkpt lat="50.873749991878867" lon="15.11072002351284">
        <ele>394.75999999999999</ele>
        <time>2013-09-05T13:40:16Z</time>
      </trkpt>
      <trkpt lat="50.873612025752664" lon="15.110575016587973">
        <ele>396.68000000000001</ele>
        <time>2013-09-05T13:40:17Z</time>
      </trkpt>
      <trkpt lat="50.873100981116295" lon="15.11007403023541">
        <ele>401.00999999999999</ele>
        <time>2013-09-05T13:40:21Z</time>
      </trkpt>
      <trkpt lat="50.873014982789755" lon="15.109934974461794">
        <ele>402.44999999999999</ele>
        <time>2013-09-05T13:40:22Z</time>
      </trkpt>
      <trkpt lat="50.872954968363047" lon="15.109756020829082">
        <ele>403.41000000000003</ele>
        <time>2013-09-05T13:40:23Z</time>
      </trkpt>
      <trkpt lat="50.872806021943688" lon="15.109503977000713">
        <ele>405.81</ele>
        <time>2013-09-05T13:40:25Z</time>
      </trkpt>
      <trkpt lat="50.872720023617148" lon="15.109457960352302">
        <ele>407.25999999999999</ele>
        <time>2013-09-05T13:40:26Z</time>
      </trkpt>
      <trkpt lat="50.872581973671913" lon="15.109471036121249">
        <ele>409.18000000000001</ele>
        <time>2013-09-05T13:40:27Z</time>
      </trkpt>
      <trkpt lat="50.872443001717329" lon="15.109574971720576">
        <ele>411.10000000000002</ele>
        <time>2013-09-05T13:40:28Z</time>
      </trkpt>
      <trkpt lat="50.87231601588428" lon="15.109688965603709">
        <ele>412.54000000000002</ele>
        <time>2013-09-05T13:40:29Z</time>
      </trkpt>
      <trkpt lat="50.872223982587457" lon="15.109826009720564">
        <ele>412.54000000000002</ele>
        <time>2013-09-05T13:40:30Z</time>
      </trkpt>
      <trkpt lat="50.872104037553072" lon="15.109917037189007">
        <ele>413.01999999999998</ele>
        <time>2013-09-05T13:40:31Z</time>
      </trkpt>
      <trkpt lat="50.871963975951076" lon="15.109955007210374">
        <ele>413.98000000000002</ele>
        <time>2013-09-05T13:40:32Z</time>
      </trkpt>
      <trkpt lat="50.87184595875442" lon="15.109975039958954">
        <ele>415.43000000000001</ele>
        <time>2013-09-05T13:40:33Z</time>
      </trkpt>
      <trkpt lat="50.87173598818481" lon="15.109966993331909">
        <ele>416.38999999999999</ele>
        <time>2013-09-05T13:40:34Z</time>
      </trkpt>
      <trkpt lat="50.87162702344358" lon="15.109938997775316">
        <ele>417.35000000000002</ele>
        <time>2013-09-05T13:40:35Z</time>
      </trkpt>
      <trkpt lat="50.87150196544826" lon="15.109886024147272">
        <ele>418.31</ele>
        <time>2013-09-05T13:40:36Z</time>
      </trkpt>
      <trkpt lat="50.871362993493676" lon="15.109813017770648">
        <ele>419.26999999999998</ele>
        <time>2013-09-05T13:40:37Z</time>
      </trkpt>
      <trkpt lat="50.871229972690344" lon="15.109745040535927">
        <ele>420.23000000000002</ele>
        <time>2013-09-05T13:40:38Z</time>
      </trkpt>
      <trkpt lat="50.870881034061313" lon="15.109457960352302">
        <ele>423.12</ele>
        <time>2013-09-05T13:40:41Z</time>
      </trkpt>
      <trkpt lat="50.870751030743122" lon="15.109285963699222">
        <ele>423.60000000000002</ele>
        <time>2013-09-05T13:40:42Z</time>
      </trkpt>
      <trkpt lat="50.870545003563166" lon="15.109041966497898">
        <ele>426.48000000000002</ele>
        <time>2013-09-05T13:40:44Z</time>
      </trkpt>
      <trkpt lat="50.870430003851652" lon="15.108970971778035">
        <ele>427.92000000000002</ele>
        <time>2013-09-05T13:40:45Z</time>
      </trkpt>
      <trkpt lat="50.870282985270023" lon="15.108955968171358">
        <ele>428.88999999999999</ele>
        <time>2013-09-05T13:40:46Z</time>
      </trkpt>
      <trkpt lat="50.870131021365523" lon="15.108967032283545">
        <ele>430.81</ele>
        <time>2013-09-05T13:40:47Z</time>
      </trkpt>
      <trkpt lat="50.869991965591908" lon="15.108982035890222">
        <ele>432.25</ele>
        <time>2013-09-05T13:40:48Z</time>
      </trkpt>
      <trkpt lat="50.869863973930478" lon="15.109030986204743">
        <ele>433.69</ele>
        <time>2013-09-05T13:40:49Z</time>
      </trkpt>
      <trkpt lat="50.868941964581609" lon="15.109246987849474">
        <ele>439.45999999999998</ele>
        <time>2013-09-05T13:40:56Z</time>
      </trkpt>
      <trkpt lat="50.868394039571285" lon="15.1093889772892">
        <ele>444.26999999999998</ele>
        <time>2013-09-05T13:41:03Z</time>
      </trkpt>
      <trkpt lat="50.868308963254094" lon="15.109351007267833">
        <ele>445.23000000000002</ele>
        <time>2013-09-05T13:41:04Z</time>
      </trkpt>
      <trkpt lat="50.868215002119541" lon="15.109293004497886">
        <ele>445.23000000000002</ele>
        <time>2013-09-05T13:41:05Z</time>
      </trkpt>
      <trkpt lat="50.868109976872802" lon="15.109144980087876">
        <ele>445.70999999999998</ele>
        <time>2013-09-05T13:41:06Z</time>
      </trkpt>
      <trkpt lat="50.868021966889501" lon="15.108974995091558">
        <ele>446.67000000000002</ele>
        <time>2013-09-05T13:41:07Z</time>
      </trkpt>
      <trkpt lat="50.867947032675147" lon="15.108772991225123">
        <ele>447.63</ele>
        <time>2013-09-05T13:41:08Z</time>
      </trkpt>
      <trkpt lat="50.867867991328239" lon="15.108534023165703">
        <ele>450.02999999999997</ele>
        <time>2013-09-05T13:41:09Z</time>
      </trkpt>
      <trkpt lat="50.867804037407041" lon="15.108324978500605">
        <ele>450.51999999999998</ele>
        <time>2013-09-05T13:41:10Z</time>
      </trkpt>
      <trkpt lat="50.86763103492558" lon="15.107656018808484">
        <ele>452.92000000000002</ele>
        <time>2013-09-05T13:41:14Z</time>
      </trkpt>
      <trkpt lat="50.867603961378336" lon="15.107488967478275">
        <ele>453.39999999999998</ele>
        <time>2013-09-05T13:41:15Z</time>
      </trkpt>
      <trkpt lat="50.867583006620407" lon="15.107300039380789">
        <ele>453.88</ele>
        <time>2013-09-05T13:41:16Z</time>
      </trkpt>
      <trkpt lat="50.867556016892195" lon="15.107125025242567">
        <ele>454.36000000000001</ele>
        <time>2013-09-05T13:41:17Z</time>
      </trkpt>
      <trkpt lat="50.86752500385046" lon="15.106968032196164">
        <ele>454.36000000000001</ele>
        <time>2013-09-05T13:41:18Z</time>
      </trkpt>
      <trkpt lat="50.867478987202048" lon="15.106841968372464">
        <ele>455.31999999999999</ele>
        <time>2013-09-05T13:41:19Z</time>
      </trkpt>
      <trkpt lat="50.867377985268831" lon="15.106750018894672">
        <ele>455.80000000000001</ele>
        <time>2013-09-05T13:41:20Z</time>
      </trkpt>
      <trkpt lat="50.867244964465499" lon="15.106679024174809">
        <ele>457.72000000000003</ele>
        <time>2013-09-05T13:41:21Z</time>
      </trkpt>
      <trkpt lat="50.867101969197392" lon="15.106619009748101">
        <ele>458.69</ele>
        <time>2013-09-05T13:41:22Z</time>
      </trkpt>
      <trkpt lat="50.866941958665848" lon="15.106576010584831">
        <ele>459.17000000000002</ele>
        <time>2013-09-05T13:41:23Z</time>
      </trkpt>
      <trkpt lat="50.866809021681547" lon="15.106555977836251">
        <ele>460.13</ele>
        <time>2013-09-05T13:41:24Z</time>
      </trkpt>
      <trkpt lat="50.866692010313272" lon="15.106554972007871">
        <ele>462.05000000000001</ele>
        <time>2013-09-05T13:41:25Z</time>
      </trkpt>
      <trkpt lat="50.866410965099931" lon="15.106383981183171">
        <ele>465.42000000000002</ele>
        <time>2013-09-05T13:41:28Z</time>
      </trkpt>
      <trkpt lat="50.866332007572055" lon="15.106290020048618">
        <ele>467.33999999999997</ele>
        <time>2013-09-05T13:41:29Z</time>
      </trkpt>
      <trkpt lat="50.866131009534001" lon="15.106093967333436">
        <ele>470.22000000000003</ele>
        <time>2013-09-05T13:41:31Z</time>
      </trkpt>
      <trkpt lat="50.866012992337346" lon="15.106022972613573">
        <ele>471.66000000000003</ele>
        <time>2013-09-05T13:41:32Z</time>
      </trkpt>
      <trkpt lat="50.864982018247247" lon="15.105381002649665">
        <ele>481.75999999999999</ele>
        <time>2013-09-05T13:41:40Z</time>
      </trkpt>
      <trkpt lat="50.863985996693373" lon="15.104614980518818">
        <ele>492.32999999999998</ele>
        <time>2013-09-05T13:41:47Z</time>
      </trkpt>
      <trkpt lat="50.86367997340858" lon="15.10431700386107">
        <ele>498.57999999999998</ele>
        <time>2013-09-05T13:41:50Z</time>
      </trkpt>
      <trkpt lat="50.863633034750819" lon="15.104192029684782">
        <ele>499.06</ele>
        <time>2013-09-05T13:41:51Z</time>
      </trkpt>
      <trkpt lat="50.863423990085721" lon="15.103834038600326">
        <ele>500.01999999999998</ele>
        <time>2013-09-05T13:41:54Z</time>
      </trkpt>
      <trkpt lat="50.863342015072703" lon="15.103698000311852">
        <ele>500.01999999999998</ele>
        <time>2013-09-05T13:41:55Z</time>
      </trkpt>
      <trkpt lat="50.863255010917783" lon="15.103532038629055">
        <ele>500.5</ele>
        <time>2013-09-05T13:41:56Z</time>
      </trkpt>
      <trkpt lat="50.86262502707541" lon="15.102396961301565">
        <ele>505.79000000000002</ele>
        <time>2013-09-05T13:42:03Z</time>
      </trkpt>
      <trkpt lat="50.861818017438054" lon="15.101367998868227">
        <ele>509.63999999999999</ele>
        <time>2013-09-05T13:42:09Z</time>
      </trkpt>
      <trkpt lat="50.861692959442735" lon="15.101147973909974">
        <ele>510.12</ele>
        <time>2013-09-05T13:42:10Z</time>
      </trkpt>
      <trkpt lat="50.860843034461141" lon="15.099206976592541">
        <ele>502.91000000000003</ele>
        <time>2013-09-05T13:42:17Z</time>
      </trkpt>
      <trkpt lat="50.860611023381352" lon="15.098679000511765">
        <ele>489.44999999999999</ele>
        <time>2013-09-05T13:42:19Z</time>
      </trkpt>
      <trkpt lat="50.860482025891542" lon="15.098500968888402">
        <ele>488.00999999999999</ele>
        <time>2013-09-05T13:42:20Z</time>
      </trkpt>
      <trkpt lat="50.859479969367385" lon="15.097407968714833">
        <ele>457.72000000000003</ele>
        <time>2013-09-05T13:42:28Z</time>
      </trkpt>
      <trkpt lat="50.859284000471234" lon="15.097061963751912">
        <ele>453.39999999999998</ele>
        <time>2013-09-05T13:42:31Z</time>
      </trkpt>
      <trkpt lat="50.859232032671571" lon="15.096899019554257">
        <ele>451.95999999999998</ele>
        <time>2013-09-05T13:42:32Z</time>
      </trkpt>
      <trkpt lat="50.859160032123327" lon="15.09669098071754">
        <ele>450.51999999999998</ele>
        <time>2013-09-05T13:42:33Z</time>
      </trkpt>
      <trkpt lat="50.85897303186357" lon="15.096144983544946">
        <ele>442.81999999999999</ele>
        <time>2013-09-05T13:42:36Z</time>
      </trkpt>
      <trkpt lat="50.858894996345043" lon="15.095985978841782">
        <ele>440.42000000000002</ele>
        <time>2013-09-05T13:42:37Z</time>
      </trkpt>
      <trkpt lat="50.857798978686333" lon="15.094243967905641">
        <ele>427.44</ele>
        <time>2013-09-05T13:42:48Z</time>
      </trkpt>
      <trkpt lat="50.857467977330089" lon="15.093856975436211">
        <ele>425.51999999999998</ele>
        <time>2013-09-05T13:42:51Z</time>
      </trkpt>
      <trkpt lat="50.857345014810562" lon="15.093781035393476">
        <ele>424.56</ele>
        <time>2013-09-05T13:42:52Z</time>
      </trkpt>
      <trkpt lat="50.85721299983561" lon="15.093712974339724">
        <ele>424.07999999999998</ele>
        <time>2013-09-05T13:42:53Z</time>
      </trkpt>
      <trkpt lat="50.856962967664003" lon="15.093606021255255">
        <ele>422.16000000000003</ele>
        <time>2013-09-05T13:42:55Z</time>
      </trkpt>
      <trkpt lat="50.856855008751154" lon="15.093514993786812">
        <ele>421.68000000000001</ele>
        <time>2013-09-05T13:42:56Z</time>
      </trkpt>
      <trkpt lat="50.856750989332795" lon="15.093390019610524">
        <ele>420.70999999999998</ele>
        <time>2013-09-05T13:42:57Z</time>
      </trkpt>
      <trkpt lat="50.856673959642649" lon="15.093250963836908">
        <ele>420.23000000000002</ele>
        <time>2013-09-05T13:42:58Z</time>
      </trkpt>
      <trkpt lat="50.856582010164857" lon="15.093104029074311">
        <ele>419.26999999999998</ele>
        <time>2013-09-05T13:42:59Z</time>
      </trkpt>
      <trkpt lat="50.855796961113811" lon="15.092047993093729">
        <ele>416.87</ele>
        <time>2013-09-05T13:43:07Z</time>
      </trkpt>
      <trkpt lat="50.855741975829005" lon="15.091912038624287">
        <ele>417.35000000000002</ele>
        <time>2013-09-05T13:43:08Z</time>
      </trkpt>
      <trkpt lat="50.855092965066433" lon="15.090728010982275">
        <ele>411.57999999999998</ele>
        <time>2013-09-05T13:43:16Z</time>
      </trkpt>
      <trkpt lat="50.855044014751911" lon="15.090551991015673">
        <ele>410.62</ele>
        <time>2013-09-05T13:43:17Z</time>
      </trkpt>
      <trkpt lat="50.855015013366938" lon="15.090357027947903">
        <ele>410.13999999999999</ele>
        <time>2013-09-05T13:43:18Z</time>
      </trkpt>
      <trkpt lat="50.854923985898495" lon="15.089766019955277">
        <ele>409.66000000000003</ele>
        <time>2013-09-05T13:43:21Z</time>
      </trkpt>
      <trkpt lat="50.854861959815025" lon="15.089596034958959">
        <ele>409.66000000000003</ele>
        <time>2013-09-05T13:43:22Z</time>
      </trkpt>
      <trkpt lat="50.854774033650756" lon="15.089419009163976">
        <ele>410.13999999999999</ele>
        <time>2013-09-05T13:43:23Z</time>
      </trkpt>
      <trkpt lat="50.854715025052428" lon="15.089309960603714">
        <ele>409.66000000000003</ele>
        <time>2013-09-05T13:43:24Z</time>
      </trkpt>
      <trkpt lat="50.854619974270463" lon="15.089198984205723">
        <ele>410.13999999999999</ele>
        <time>2013-09-05T13:43:25Z</time>
      </trkpt>
      <trkpt lat="50.854513021185994" lon="15.089107034727931">
        <ele>410.13999999999999</ele>
        <time>2013-09-05T13:43:26Z</time>
      </trkpt>
      <trkpt lat="50.8543970156461" lon="15.089024975895882">
        <ele>409.66000000000003</ele>
        <time>2013-09-05T13:43:27Z</time>
      </trkpt>
      <trkpt lat="50.854065008461475" lon="15.088723981752992">
        <ele>409.18000000000001</ele>
        <time>2013-09-05T13:43:30Z</time>
      </trkpt>
      <trkpt lat="50.853036968037486" lon="15.08732495829463">
        <ele>406.76999999999998</ele>
        <time>2013-09-05T13:43:40Z</time>
      </trkpt>
      <trkpt lat="50.851794015616179" lon="15.085655031725764">
        <ele>403.41000000000003</ele>
        <time>2013-09-05T13:43:52Z</time>
      </trkpt>
      <trkpt lat="50.851184986531734" lon="15.084822960197926">
        <ele>398.12</ele>
        <time>2013-09-05T13:43:58Z</time>
      </trkpt>
      <trkpt lat="50.850318968296051" lon="15.083709005266428">
        <ele>393.80000000000001</ele>
        <time>2013-09-05T13:44:06Z</time>
      </trkpt>
      <trkpt lat="50.850192988291383" lon="15.083632981404662">
        <ele>392.83999999999997</ele>
        <time>2013-09-05T13:44:07Z</time>
      </trkpt>
      <trkpt lat="50.850063990801573" lon="15.083570033311844">
        <ele>392.36000000000001</ele>
        <time>2013-09-05T13:44:08Z</time>
      </trkpt>
      <trkpt lat="50.84993096999824" lon="15.083528039976954">
        <ele>392.36000000000001</ele>
        <time>2013-09-05T13:44:09Z</time>
      </trkpt>
      <trkpt lat="50.849791998043656" lon="15.083485040813684">
        <ele>392.36000000000001</ele>
        <time>2013-09-05T13:44:10Z</time>
      </trkpt>
      <trkpt lat="50.849411962553859" lon="15.083303991705179">
        <ele>393.31999999999999</ele>
        <time>2013-09-05T13:44:13Z</time>
      </trkpt>
      <trkpt lat="50.849297968670726" lon="15.083195026963949">
        <ele>392.83999999999997</ele>
        <time>2013-09-05T13:44:14Z</time>
      </trkpt>
      <trkpt lat="50.849193027243018" lon="15.0830680411309">
        <ele>392.83999999999997</ele>
        <time>2013-09-05T13:44:15Z</time>
      </trkpt>
      <trkpt lat="50.849104011431336" lon="15.082923034206033">
        <ele>391.87</ele>
        <time>2013-09-05T13:44:16Z</time>
      </trkpt>
      <trkpt lat="50.849025975912809" lon="15.082752965390682">
        <ele>391.87</ele>
        <time>2013-09-05T13:44:17Z</time>
      </trkpt>
      <trkpt lat="50.848968978971243" lon="15.082566970959306">
        <ele>392.36000000000001</ele>
        <time>2013-09-05T13:44:18Z</time>
      </trkpt>
      <trkpt lat="50.848923968151212" lon="15.082377037033439">
        <ele>392.36000000000001</ele>
        <time>2013-09-05T13:44:19Z</time>
      </trkpt>
      <trkpt lat="50.848887003958225" lon="15.082176961004734">
        <ele>391.87</ele>
        <time>2013-09-05T13:44:20Z</time>
      </trkpt>
      <trkpt lat="50.848864959552884" lon="15.081977974623442">
        <ele>390.91000000000003</ele>
        <time>2013-09-05T13:44:21Z</time>
      </trkpt>
      <trkpt lat="50.848697992041707" lon="15.080738039687276">
        <ele>391.38999999999999</ele>
        <time>2013-09-05T13:44:27Z</time>
      </trkpt>
      <trkpt lat="50.848648035898805" lon="15.080580962821841">
        <ele>391.38999999999999</ele>
        <time>2013-09-05T13:44:28Z</time>
      </trkpt>
      <trkpt lat="50.848568994551897" lon="15.080450037494302">
        <ele>391.38999999999999</ele>
        <time>2013-09-05T13:44:29Z</time>
      </trkpt>
      <trkpt lat="50.848466986790299" lon="15.080332020297647">
        <ele>390.43000000000001</ele>
        <time>2013-09-05T13:44:30Z</time>
      </trkpt>
      <trkpt lat="50.848355004563928" lon="15.080219032242894">
        <ele>389.94999999999999</ele>
        <time>2013-09-05T13:44:31Z</time>
      </trkpt>
      <trkpt lat="50.847046002745628" lon="15.078881029039621">
        <ele>388.50999999999999</ele>
        <time>2013-09-05T13:44:43Z</time>
      </trkpt>
      <trkpt lat="50.846949024125934" lon="15.078744990751147">
        <ele>388.02999999999997</ele>
        <time>2013-09-05T13:44:44Z</time>
      </trkpt>
      <trkpt lat="50.846865959465504" lon="15.078586991876364">
        <ele>388.99000000000001</ele>
        <time>2013-09-05T13:44:45Z</time>
      </trkpt>
      <trkpt lat="50.846794964745641" lon="15.078429998829961">
        <ele>388.50999999999999</ele>
        <time>2013-09-05T13:44:46Z</time>
      </trkpt>
      <trkpt lat="50.846031038090587" lon="15.076422030106187">
        <ele>388.50999999999999</ele>
        <time>2013-09-05T13:44:57Z</time>
      </trkpt>
      <trkpt lat="50.845946967601776" lon="15.076225977391005">
        <ele>388.50999999999999</ele>
        <time>2013-09-05T13:44:58Z</time>
      </trkpt>
      <trkpt lat="50.844983970746398" lon="15.073759015649557">
        <ele>387.55000000000001</ele>
        <time>2013-09-05T13:45:11Z</time>
      </trkpt>
      <trkpt lat="50.844847010448575" lon="15.073591964319348">
        <ele>386.11000000000001</ele>
        <time>2013-09-05T13:45:12Z</time>
      </trkpt>
      <trkpt lat="50.844748020172119" lon="15.073441006243229">
        <ele>386.11000000000001</ele>
        <time>2013-09-05T13:45:13Z</time>
      </trkpt>
      <trkpt lat="50.844639977440238" lon="15.073297005146742">
        <ele>386.11000000000001</ele>
        <time>2013-09-05T13:45:14Z</time>
      </trkpt>
      <trkpt lat="50.84453696385026" lon="15.073167001828551">
        <ele>386.11000000000001</ele>
        <time>2013-09-05T13:45:15Z</time>
      </trkpt>
      <trkpt lat="50.844425987452269" lon="15.073049990460277">
        <ele>386.11000000000001</ele>
        <time>2013-09-05T13:45:16Z</time>
      </trkpt>
      <trkpt lat="50.844305958598852" lon="15.072943959385157">
        <ele>385.63</ele>
        <time>2013-09-05T13:45:17Z</time>
      </trkpt>
      <trkpt lat="50.842969967052341" lon="15.071812989190221">
        <ele>386.11000000000001</ele>
        <time>2013-09-05T13:45:28Z</time>
      </trkpt>
      <trkpt lat="50.842879023402929" lon="15.07168198004365">
        <ele>387.06999999999999</ele>
        <time>2013-09-05T13:45:29Z</time>
      </trkpt>
      <trkpt lat="50.842809034511447" lon="15.071571003645658">
        <ele>387.06999999999999</ele>
        <time>2013-09-05T13:45:30Z</time>
      </trkpt>
      <trkpt lat="50.842570988461375" lon="15.07112299092114">
        <ele>388.50999999999999</ele>
        <time>2013-09-05T13:45:37Z</time>
      </trkpt>
      <trkpt lat="50.842549027875066" lon="15.071077980101109">
        <ele>386.58999999999997</ele>
        <time>2013-09-05T13:45:46Z</time>
      </trkpt>
      <trkpt lat="50.842390023171902" lon="15.070856027305126">
        <ele>387.06999999999999</ele>
        <time>2013-09-05T13:45:54Z</time>
      </trkpt>
      <trkpt lat="50.842340989038348" lon="15.070764999836683">
        <ele>387.06999999999999</ele>
        <time>2013-09-05T13:45:55Z</time>
      </trkpt>
      <trkpt lat="50.841729026287794" lon="15.069806026294827">
        <ele>387.55000000000001</ele>
        <time>2013-09-05T13:46:03Z</time>
      </trkpt>
      <trkpt lat="50.840620016679168" lon="15.068610012531281">
        <ele>382.25999999999999</ele>
        <time>2013-09-05T13:46:13Z</time>
      </trkpt>
      <trkpt lat="50.839220993220806" lon="15.067200008779764">
        <ele>377.94</ele>
        <time>2013-09-05T13:46:23Z</time>
      </trkpt>
      <trkpt lat="50.837088972330093" lon="15.064937984570861">
        <ele>380.33999999999997</ele>
        <time>2013-09-05T13:46:38Z</time>
      </trkpt>
      <trkpt lat="50.836776997894049" lon="15.0645059812814">
        <ele>381.77999999999997</ele>
        <time>2013-09-05T13:46:41Z</time>
      </trkpt>
      <trkpt lat="50.836701979860663" lon="15.064332978799939">
        <ele>381.77999999999997</ele>
        <time>2013-09-05T13:46:42Z</time>
      </trkpt>
      <trkpt lat="50.836634002625942" lon="15.064124017953873">
        <ele>381.30000000000001</ele>
        <time>2013-09-05T13:46:43Z</time>
      </trkpt>
      <trkpt lat="50.836218008771539" lon="15.062609994783998">
        <ele>377.94</ele>
        <time>2013-09-05T13:46:50Z</time>
      </trkpt>
      <trkpt lat="50.836132010444999" lon="15.062447972595692">
        <ele>377.44999999999999</ele>
        <time>2013-09-05T13:46:51Z</time>
      </trkpt>
      <trkpt lat="50.83600502461195" lon="15.062302965670824">
        <ele>376.49000000000001</ele>
        <time>2013-09-05T13:46:52Z</time>
      </trkpt>
      <trkpt lat="50.834854021668434" lon="15.060944007709622">
        <ele>374.56999999999999</ele>
        <time>2013-09-05T13:47:01Z</time>
      </trkpt>
      <trkpt lat="50.833971993997693" lon="15.059593012556434">
        <ele>374.56999999999999</ele>
        <time>2013-09-05T13:47:09Z</time>
      </trkpt>
      <trkpt lat="50.833197003230453" lon="15.0584049616009">
        <ele>374.08999999999997</ele>
        <time>2013-09-05T13:47:18Z</time>
      </trkpt>
      <trkpt lat="50.832274993881583" lon="15.057296035811305">
        <ele>374.56999999999999</ele>
        <time>2013-09-05T13:47:27Z</time>
      </trkpt>
      <trkpt lat="50.831674011424184" lon="15.056345025077462">
        <ele>379.86000000000001</ele>
        <time>2013-09-05T13:47:34Z</time>
      </trkpt>
      <trkpt lat="50.831607040017843" lon="15.056171016767621">
        <ele>380.81999999999999</ele>
        <time>2013-09-05T13:47:35Z</time>
      </trkpt>
      <trkpt lat="50.831521041691303" lon="15.056011006236076">
        <ele>381.30000000000001</ele>
        <time>2013-09-05T13:47:36Z</time>
      </trkpt>
      <trkpt lat="50.831453986465931" lon="15.05586901679635">
        <ele>381.77999999999997</ele>
        <time>2013-09-05T13:47:37Z</time>
      </trkpt>
      <trkpt lat="50.831379974260926" lon="15.055748987942934">
        <ele>382.25999999999999</ele>
        <time>2013-09-05T13:47:38Z</time>
      </trkpt>
      <trkpt lat="50.831315014511347" lon="15.055628959089518">
        <ele>382.25999999999999</ele>
        <time>2013-09-05T13:47:39Z</time>
      </trkpt>
      <trkpt lat="50.831274027004838" lon="15.055515971034765">
        <ele>382.74000000000001</ele>
        <time>2013-09-05T13:47:40Z</time>
      </trkpt>
      <trkpt lat="50.831246031448245" lon="15.055373981595039">
        <ele>382.25999999999999</ele>
        <time>2013-09-05T13:47:41Z</time>
      </trkpt>
      <trkpt lat="50.831224992871284" lon="15.055211959406734">
        <ele>381.77999999999997</ele>
        <time>2013-09-05T13:47:42Z</time>
      </trkpt>
      <trkpt lat="50.831262040883303" lon="15.055079022422433">
        <ele>381.30000000000001</ele>
        <time>2013-09-05T13:47:43Z</time>
      </trkpt>
      <trkpt lat="50.831302022561431" lon="15.054938038811088">
        <ele>380.33999999999997</ele>
        <time>2013-09-05T13:47:44Z</time>
      </trkpt>
      <trkpt lat="50.83136597648263" lon="15.054814992472529">
        <ele>379.38</ele>
        <time>2013-09-05T13:47:45Z</time>
      </trkpt>
      <trkpt lat="50.831405958160758" lon="15.054681971669197">
        <ele>378.42000000000002</ele>
        <time>2013-09-05T13:47:46Z</time>
      </trkpt>
      <trkpt lat="50.831918008625507" lon="15.053115980699658">
        <ele>373.61000000000001</ele>
        <time>2013-09-05T13:47:57Z</time>
      </trkpt>
      <trkpt lat="50.83228999748826" lon="15.052042007446289">
        <ele>369.27999999999997</ele>
        <time>2013-09-05T13:48:07Z</time>
      </trkpt>
      <trkpt lat="50.832320004701614" lon="15.05187202244997">
        <ele>372.17000000000002</ele>
        <time>2013-09-05T13:48:14Z</time>
      </trkpt>
      <trkpt lat="50.832326039671898" lon="15.051837991923094">
        <ele>372.64999999999998</ele>
        <time>2013-09-05T13:48:35Z</time>
      </trkpt>
      <trkpt lat="50.832330984994769" lon="15.051812008023262">
        <ele>373.13</ele>
        <time>2013-09-05T13:48:36Z</time>
      </trkpt>
      <trkpt lat="50.832348000258207" lon="15.051689967513084">
        <ele>373.61000000000001</ele>
        <time>2013-09-05T13:48:39Z</time>
      </trkpt>
      <trkpt lat="50.832318998873234" lon="15.051538003608584">
        <ele>377.94</ele>
        <time>2013-09-05T13:48:48Z</time>
      </trkpt>
      <trkpt lat="50.832280023023486" lon="15.051501961424947">
        <ele>378.42000000000002</ele>
        <time>2013-09-05T13:48:49Z</time>
      </trkpt>
      <trkpt lat="50.832211961969733" lon="15.051472038030624">
        <ele>377.94</ele>
        <time>2013-09-05T13:48:50Z</time>
      </trkpt>
      <trkpt lat="50.831381985917687" lon="15.051136007532477">
        <ele>377.44999999999999</ele>
        <time>2013-09-05T13:48:57Z</time>
      </trkpt>
      <trkpt lat="50.829940969124436" lon="15.050568971782923">
        <ele>377.94</ele>
        <time>2013-09-05T13:49:07Z</time>
      </trkpt>
      <trkpt lat="50.829808032140136" lon="15.050494037568569">
        <ele>378.42000000000002</ele>
        <time>2013-09-05T13:49:08Z</time>
      </trkpt>
      <trkpt lat="50.829684985801578" lon="15.050385994836688">
        <ele>378.42000000000002</ele>
        <time>2013-09-05T13:49:09Z</time>
      </trkpt>
      <trkpt lat="50.829419028013945" lon="15.05017502233386">
        <ele>379.86000000000001</ele>
        <time>2013-09-05T13:49:11Z</time>
      </trkpt>
      <trkpt lat="50.82928198389709" lon="15.050102015957236">
        <ele>380.81999999999999</ele>
        <time>2013-09-05T13:49:12Z</time>
      </trkpt>
      <trkpt lat="50.829127002507448" lon="15.050038984045386">
        <ele>381.30000000000001</ele>
        <time>2013-09-05T13:49:13Z</time>
      </trkpt>
      <trkpt lat="50.826993975788355" lon="15.049409000203013">
        <ele>387.06999999999999</ele>
        <time>2013-09-05T13:49:27Z</time>
      </trkpt>
      <trkpt lat="50.826718965545297" lon="15.049284026026726">
        <ele>386.58999999999997</ele>
        <time>2013-09-05T13:49:29Z</time>
      </trkpt>
      <trkpt lat="50.826588962227106" lon="15.049188975244761">
        <ele>387.06999999999999</ele>
        <time>2013-09-05T13:49:30Z</time>
      </trkpt>
      <trkpt lat="50.826469017192721" lon="15.049070036038756">
        <ele>387.06999999999999</ele>
        <time>2013-09-05T13:49:31Z</time>
      </trkpt>
      <trkpt lat="50.825087008997798" lon="15.047451993450522">
        <ele>385.63</ele>
        <time>2013-09-05T13:49:43Z</time>
      </trkpt>
      <trkpt lat="50.825025988742709" lon="15.047283014282584">
        <ele>385.14999999999998</ele>
        <time>2013-09-05T13:49:44Z</time>
      </trkpt>
      <trkpt lat="50.824800012633204" lon="15.046706004068255">
        <ele>387.06999999999999</ele>
        <time>2013-09-05T13:49:47Z</time>
      </trkpt>
      <trkpt lat="50.824688030406833" lon="15.046558985486627">
        <ele>387.06999999999999</ele>
        <time>2013-09-05T13:49:48Z</time>
      </trkpt>
      <trkpt lat="50.824568001553416" lon="15.046445997431874">
        <ele>387.06999999999999</ele>
        <time>2013-09-05T13:49:49Z</time>
      </trkpt>
      <trkpt lat="50.82444503903389" lon="15.046346001327038">
        <ele>387.06999999999999</ele>
        <time>2013-09-05T13:49:50Z</time>
      </trkpt>
      <trkpt lat="50.824329033493996" lon="15.046224966645241">
        <ele>385.14999999999998</ele>
        <time>2013-09-05T13:49:51Z</time>
      </trkpt>
      <trkpt lat="50.824203975498676" lon="15.046122958883643">
        <ele>385.63</ele>
        <time>2013-09-05T13:49:52Z</time>
      </trkpt>
      <trkpt lat="50.823984034359455" lon="15.045882984995842">
        <ele>387.06999999999999</ele>
        <time>2013-09-05T13:49:54Z</time>
      </trkpt>
      <trkpt lat="50.823879009112716" lon="15.045744013041258">
        <ele>388.02999999999997</ele>
        <time>2013-09-05T13:49:55Z</time>
      </trkpt>
      <trkpt lat="50.823270985856652" lon="15.044171987101436">
        <ele>391.87</ele>
        <time>2013-09-05T13:50:03Z</time>
      </trkpt>
      <trkpt lat="50.822939984500408" lon="15.043152999132872">
        <ele>393.80000000000001</ele>
        <time>2013-09-05T13:50:08Z</time>
      </trkpt>
      <trkpt lat="50.822739992290735" lon="15.04282702691853">
        <ele>394.27999999999997</ele>
        <time>2013-09-05T13:50:10Z</time>
      </trkpt>
      <trkpt lat="50.822630021721125" lon="15.042686965316534">
        <ele>394.75999999999999</ele>
        <time>2013-09-05T13:50:11Z</time>
      </trkpt>
      <trkpt lat="50.822508987039328" lon="15.042567020282149">
        <ele>394.75999999999999</ele>
        <time>2013-09-05T13:50:12Z</time>
      </trkpt>
      <trkpt lat="50.82156996242702" lon="15.041898982599378">
        <ele>400.52999999999997</ele>
        <time>2013-09-05T13:50:19Z</time>
      </trkpt>
      <trkpt lat="50.820735963061452" lon="15.041058026254177">
        <ele>402.93000000000001</ele>
        <time>2013-09-05T13:50:26Z</time>
      </trkpt>
      <trkpt lat="50.820632027462125" lon="15.04091402515769">
        <ele>402.93000000000001</ele>
        <time>2013-09-05T13:50:27Z</time>
      </trkpt>
      <trkpt lat="50.820533959195018" lon="15.040741022676229">
        <ele>403.41000000000003</ele>
        <time>2013-09-05T13:50:28Z</time>
      </trkpt>
      <trkpt lat="50.81974295899272" lon="15.039129015058279">
        <ele>404.85000000000002</ele>
        <time>2013-09-05T13:50:35Z</time>
      </trkpt>
      <trkpt lat="50.818933015689254" lon="15.037254989147186">
        <ele>409.18000000000001</ele>
        <time>2013-09-05T13:50:43Z</time>
      </trkpt>
      <trkpt lat="50.81858298741281" lon="15.036086970940232">
        <ele>410.13999999999999</ele>
        <time>2013-09-05T13:50:49Z</time>
      </trkpt>
      <trkpt lat="50.818583993241191" lon="15.035940958186984">
        <ele>410.62</ele>
        <time>2013-09-05T13:50:50Z</time>
      </trkpt>
      <trkpt lat="50.818586004897952" lon="15.035709030926228">
        <ele>409.66000000000003</ele>
        <time>2013-09-05T13:50:52Z</time>
      </trkpt>
      <trkpt lat="50.818536970764399" lon="15.03562998957932">
        <ele>409.66000000000003</ele>
        <time>2013-09-05T13:50:53Z</time>
      </trkpt>
      <trkpt lat="50.818472011014819" lon="15.035576010122895">
        <ele>409.66000000000003</ele>
        <time>2013-09-05T13:50:54Z</time>
      </trkpt>
      <trkpt lat="50.818166993558407" lon="15.035363025963306">
        <ele>410.13999999999999</ele>
        <time>2013-09-05T13:50:57Z</time>
      </trkpt>
      <trkpt lat="50.818040007725358" lon="15.035201003775001">
        <ele>410.62</ele>
        <time>2013-09-05T13:50:58Z</time>
      </trkpt>
      <trkpt lat="50.817115986719728" lon="15.033881021663547">
        <ele>415.43000000000001</ele>
        <time>2013-09-05T13:51:04Z</time>
      </trkpt>
      <trkpt lat="50.815051021054387" lon="15.031189005821943">
        <ele>421.68000000000001</ele>
        <time>2013-09-05T13:51:17Z</time>
      </trkpt>
      <trkpt lat="50.813320996239781" lon="15.029782019555569">
        <ele>421.68000000000001</ele>
        <time>2013-09-05T13:51:26Z</time>
      </trkpt>
      <trkpt lat="50.811331970617175" lon="15.028929999098182">
        <ele>419.26999999999998</ele>
        <time>2013-09-05T13:51:35Z</time>
      </trkpt>
      <trkpt lat="50.808873977512121" lon="15.028630010783672">
        <ele>410.62</ele>
        <time>2013-09-05T13:51:46Z</time>
      </trkpt>
      <trkpt lat="50.805526999756694" lon="15.028308983892202">
        <ele>399.07999999999998</ele>
        <time>2013-09-05T13:52:01Z</time>
      </trkpt>
      <trkpt lat="50.802312958985567" lon="15.027933977544308">
        <ele>389.94999999999999</ele>
        <time>2013-09-05T13:52:16Z</time>
      </trkpt>
      <trkpt lat="50.800077002495527" lon="15.027456041425467">
        <ele>381.77999999999997</ele>
        <time>2013-09-05T13:52:27Z</time>
      </trkpt>
      <trkpt lat="50.798740005120635" lon="15.026305038481951">
        <ele>379.86000000000001</ele>
        <time>2013-09-05T13:52:34Z</time>
      </trkpt>
      <trkpt lat="50.797767033800483" lon="15.024613989517093">
        <ele>378.89999999999998</ele>
        <time>2013-09-05T13:52:41Z</time>
      </trkpt>
      <trkpt lat="50.797123974189162" lon="15.022229002788663">
        <ele>375.52999999999997</ele>
        <time>2013-09-05T13:52:49Z</time>
      </trkpt>
      <trkpt lat="50.796469012275338" lon="15.017523989081383">
        <ele>370.73000000000002</ele>
        <time>2013-09-05T13:53:03Z</time>
      </trkpt>
      <trkpt lat="50.795912034809589" lon="15.013246033340693">
        <ele>364.95999999999998</ele>
        <time>2013-09-05T13:53:16Z</time>
      </trkpt>
      <trkpt lat="50.795451030135155" lon="15.010442035272717">
        <ele>359.19</ele>
        <time>2013-09-05T13:53:26Z</time>
      </trkpt>
      <trkpt lat="50.795059008523822" lon="15.009469985961914">
        <ele>355.82999999999998</ele>
        <time>2013-09-05T13:53:30Z</time>
      </trkpt>
      <trkpt lat="50.794923976063728" lon="15.009262030944228">
        <ele>354.86000000000001</ele>
        <time>2013-09-05T13:53:31Z</time>
      </trkpt>
      <trkpt lat="50.79477796331048" lon="15.009072013199329">
        <ele>353.89999999999998</ele>
        <time>2013-09-05T13:53:32Z</time>
      </trkpt>
      <trkpt lat="50.794620970264077" lon="15.008899010717869">
        <ele>352.94</ele>
        <time>2013-09-05T13:53:33Z</time>
      </trkpt>
      <trkpt lat="50.794451991096139" lon="15.008750986307859">
        <ele>351.5</ele>
        <time>2013-09-05T13:53:34Z</time>
      </trkpt>
      <trkpt lat="50.794276976957917" lon="15.008621988818049">
        <ele>351.01999999999998</ele>
        <time>2013-09-05T13:53:35Z</time>
      </trkpt>
      <trkpt lat="50.794087965041399" lon="15.008510006591678">
        <ele>350.06</ele>
        <time>2013-09-05T13:53:36Z</time>
      </trkpt>
      <trkpt lat="50.793908005580306" lon="15.008434988558292">
        <ele>348.13</ele>
        <time>2013-09-05T13:53:37Z</time>
      </trkpt>
      <trkpt lat="50.793724022805691" lon="15.00838503241539">
        <ele>346.20999999999998</ele>
        <time>2013-09-05T13:53:38Z</time>
      </trkpt>
      <trkpt lat="50.793535010889173" lon="15.008370028808713">
        <ele>344.29000000000002</ele>
        <time>2013-09-05T13:53:39Z</time>
      </trkpt>
      <trkpt lat="50.793349016457796" lon="15.008359970524907">
        <ele>343.32999999999998</ele>
        <time>2013-09-05T13:53:40Z</time>
      </trkpt>
      <trkpt lat="50.793158998712897" lon="15.008376985788345">
        <ele>342.37</ele>
        <time>2013-09-05T13:53:41Z</time>
      </trkpt>
      <trkpt lat="50.792979961261153" lon="15.008415961638093">
        <ele>340.92000000000002</ele>
        <time>2013-09-05T13:53:42Z</time>
      </trkpt>
      <trkpt lat="50.792810982093215" lon="15.008476981893182">
        <ele>339.95999999999998</ele>
        <time>2013-09-05T13:53:43Z</time>
      </trkpt>
      <trkpt lat="50.792646026238799" lon="15.008547976613045">
        <ele>339</ele>
        <time>2013-09-05T13:53:44Z</time>
      </trkpt>
      <trkpt lat="50.792485009878874" lon="15.008631041273475">
        <ele>338.04000000000002</ele>
        <time>2013-09-05T13:53:45Z</time>
      </trkpt>
      <trkpt lat="50.79172401688993" lon="15.009001018479466">
        <ele>332.75</ele>
        <time>2013-09-05T13:53:50Z</time>
      </trkpt>
      <trkpt lat="50.791594013571739" lon="15.009000012651086">
        <ele>331.79000000000002</ele>
        <time>2013-09-05T13:53:51Z</time>
      </trkpt>
      <trkpt lat="50.791473984718323" lon="15.008967993780971">
        <ele>331.31</ele>
        <time>2013-09-05T13:53:52Z</time>
      </trkpt>
      <trkpt lat="50.791369965299964" lon="15.008891969919205">
        <ele>330.35000000000002</ele>
        <time>2013-09-05T13:53:53Z</time>
      </trkpt>
      <trkpt lat="50.791301988065243" lon="15.008788034319878">
        <ele>329.38999999999999</ele>
        <time>2013-09-05T13:53:54Z</time>
      </trkpt>
      <trkpt lat="50.79125203192234" lon="15.008675968274474">
        <ele>328.43000000000001</ele>
        <time>2013-09-05T13:53:55Z</time>
      </trkpt>
      <trkpt lat="50.791196040809155" lon="15.008586030453444">
        <ele>327.94999999999999</ele>
        <time>2013-09-05T13:53:56Z</time>
      </trkpt>
      <trkpt lat="50.791128985583782" lon="15.008534984663129">
        <ele>326.99000000000001</ele>
        <time>2013-09-05T13:53:57Z</time>
      </trkpt>
      <trkpt lat="50.791043993085623" lon="15.008533978834748">
        <ele>328.43000000000001</ele>
        <time>2013-09-05T13:53:58Z</time>
      </trkpt>
      <trkpt lat="50.790949026122689" lon="15.008556023240089">
        <ele>328.43000000000001</ele>
        <time>2013-09-05T13:53:59Z</time>
      </trkpt>
      <trkpt lat="50.790847018361092" lon="15.008560968562961">
        <ele>327.94999999999999</ele>
        <time>2013-09-05T13:54:00Z</time>
      </trkpt>
      <trkpt lat="50.790748028084636" lon="15.008543031290174">
        <ele>327.47000000000003</ele>
        <time>2013-09-05T13:54:01Z</time>
      </trkpt>
      <trkpt lat="50.790635962039232" lon="15.008484022691846">
        <ele>327.47000000000003</ele>
        <time>2013-09-05T13:54:02Z</time>
      </trkpt>
      <trkpt lat="50.790048977360129" lon="15.008254023268819">
        <ele>326.01999999999998</ele>
        <time>2013-09-05T13:54:08Z</time>
      </trkpt>
      <trkpt lat="50.78996398486197" lon="15.008270032703876">
        <ele>325.54000000000002</ele>
        <time>2013-09-05T13:54:09Z</time>
      </trkpt>
      <trkpt lat="50.789873963221908" lon="15.008316971361637">
        <ele>325.06</ele>
        <time>2013-09-05T13:54:10Z</time>
      </trkpt>
      <trkpt lat="50.789787964895368" lon="15.008391989395022">
        <ele>324.57999999999998</ele>
        <time>2013-09-05T13:54:11Z</time>
      </trkpt>
      <trkpt lat="50.789703978225589" lon="15.008520986884832">
        <ele>324.10000000000002</ele>
        <time>2013-09-05T13:54:12Z</time>
      </trkpt>
      <trkpt lat="50.789644969627261" lon="15.008691977709532">
        <ele>323.13999999999999</ele>
        <time>2013-09-05T13:54:13Z</time>
      </trkpt>
      <trkpt lat="50.789620997384191" lon="15.008887024596334">
        <ele>323.13999999999999</ele>
        <time>2013-09-05T13:54:14Z</time>
      </trkpt>
      <trkpt lat="50.789631977677345" lon="15.009089028462768">
        <ele>323.13999999999999</ele>
        <time>2013-09-05T13:54:15Z</time>
      </trkpt>
      <trkpt lat="50.789688974618912" lon="15.009275022894144">
        <ele>323.13999999999999</ele>
        <time>2013-09-05T13:54:16Z</time>
      </trkpt>
      <trkpt lat="50.789772039279342" lon="15.009452970698476">
        <ele>323.13999999999999</ele>
        <time>2013-09-05T13:54:17Z</time>
      </trkpt>
      <trkpt lat="50.789885027334094" lon="15.009634019806981">
        <ele>322.18000000000001</ele>
        <time>2013-09-05T13:54:18Z</time>
      </trkpt>
      <trkpt lat="50.789998015388846" lon="15.009810961782932">
        <ele>321.69999999999999</ele>
        <time>2013-09-05T13:54:19Z</time>
      </trkpt>
      <trkpt lat="50.790102034807205" lon="15.010007014498115">
        <ele>321.22000000000003</ele>
        <time>2013-09-05T13:54:20Z</time>
      </trkpt>
      <trkpt lat="50.790193984284997" lon="15.010227039456367">
        <ele>320.74000000000001</ele>
        <time>2013-09-05T13:54:21Z</time>
      </trkpt>
      <trkpt lat="50.790265984833241" lon="15.010474976152182">
        <ele>320.74000000000001</ele>
        <time>2013-09-05T13:54:22Z</time>
      </trkpt>
      <trkpt lat="50.790318036451936" lon="15.010742023587227">
        <ele>320.25999999999999</ele>
        <time>2013-09-05T13:54:23Z</time>
      </trkpt>
      <trkpt lat="50.790344020351768" lon="15.011015022173524">
        <ele>320.25999999999999</ele>
        <time>2013-09-05T13:54:24Z</time>
      </trkpt>
      <trkpt lat="50.790366986766458" lon="15.011297995224595">
        <ele>320.74000000000001</ele>
        <time>2013-09-05T13:54:25Z</time>
      </trkpt>
      <trkpt lat="50.790644008666277" lon="15.013834023848176">
        <ele>321.69999999999999</ele>
        <time>2013-09-05T13:54:33Z</time>
      </trkpt>
      <trkpt lat="50.790560021996498" lon="15.016187997534871">
        <ele>323.13999999999999</ele>
        <time>2013-09-05T13:54:40Z</time>
      </trkpt>
      <trkpt lat="50.789981000125408" lon="15.018284982070327">
        <ele>326.5</ele>
        <time>2013-09-05T13:54:47Z</time>
      </trkpt>
      <trkpt lat="50.788979027420282" lon="15.019908975809813">
        <ele>327.47000000000003</ele>
        <time>2013-09-05T13:54:54Z</time>
      </trkpt>
      <trkpt lat="50.786910960450768" lon="15.022143004462123">
        <ele>331.79000000000002</ele>
        <time>2013-09-05T13:55:06Z</time>
      </trkpt>
      <trkpt lat="50.78528000973165" lon="15.023110024631023">
        <ele>334.19999999999999</ele>
        <time>2013-09-05T13:55:14Z</time>
      </trkpt>
      <trkpt lat="50.782837020233274" lon="15.024110991507769">
        <ele>332.75</ele>
        <time>2013-09-05T13:55:25Z</time>
      </trkpt>
      <trkpt lat="50.781753994524479" lon="15.025342041626573">
        <ele>333.70999999999998</ele>
        <time>2013-09-05T13:55:31Z</time>
      </trkpt>
      <trkpt lat="50.781603958457708" lon="15.025605987757444">
        <ele>333.70999999999998</ele>
        <time>2013-09-05T13:55:32Z</time>
      </trkpt>
      <trkpt lat="50.781460041180253" lon="15.025882003828883">
        <ele>334.19999999999999</ele>
        <time>2013-09-05T13:55:33Z</time>
      </trkpt>
      <trkpt lat="50.781327020376921" lon="15.026171011850238">
        <ele>335.63999999999999</ele>
        <time>2013-09-05T13:55:34Z</time>
      </trkpt>
      <trkpt lat="50.781209003180265" lon="15.026480974629521">
        <ele>336.12</ele>
        <time>2013-09-05T13:55:35Z</time>
      </trkpt>
      <trkpt lat="50.781099032610655" lon="15.026800995692611">
        <ele>336.60000000000002</ele>
        <time>2013-09-05T13:55:36Z</time>
      </trkpt>
      <trkpt lat="50.780137041583657" lon="15.029683029279113">
        <ele>343.81</ele>
        <time>2013-09-05T13:55:45Z</time>
      </trkpt>
      <trkpt lat="50.778616983443499" lon="15.032245041802526">
        <ele>351.5</ele>
        <time>2013-09-05T13:55:55Z</time>
      </trkpt>
      <trkpt lat="50.777620961889625" lon="15.033508026972413">
        <ele>353.42000000000002</ele>
        <time>2013-09-05T13:56:02Z</time>
      </trkpt>
      <trkpt lat="50.777379982173443" lon="15.033752024173737">
        <ele>352.94</ele>
        <time>2013-09-05T13:56:04Z</time>
      </trkpt>
      <trkpt lat="50.777255007997155" lon="15.033830981701612">
        <ele>351.98000000000002</ele>
        <time>2013-09-05T13:56:05Z</time>
      </trkpt>
      <trkpt lat="50.777121987193823" lon="15.033893007785082">
        <ele>352.94</ele>
        <time>2013-09-05T13:56:06Z</time>
      </trkpt>
      <trkpt lat="50.776978991925716" lon="15.033925026655197">
        <ele>353.42000000000002</ele>
        <time>2013-09-05T13:56:07Z</time>
      </trkpt>
      <trkpt lat="50.776840019971132" lon="15.03395201638341">
        <ele>354.38</ele>
        <time>2013-09-05T13:56:08Z</time>
      </trkpt>
      <trkpt lat="50.776704987511039" lon="15.033965008333325">
        <ele>354.86000000000001</ele>
        <time>2013-09-05T13:56:09Z</time>
      </trkpt>
      <trkpt lat="50.776350013911724" lon="15.034068021923304">
        <ele>354.38</ele>
        <time>2013-09-05T13:56:12Z</time>
      </trkpt>
      <trkpt lat="50.776242977008224" lon="15.034135999158025">
        <ele>354.38</ele>
        <time>2013-09-05T13:56:13Z</time>
      </trkpt>
      <trkpt lat="50.776144992560148" lon="15.034216968342662">
        <ele>354.38</ele>
        <time>2013-09-05T13:56:14Z</time>
      </trkpt>
      <trkpt lat="50.776061005890369" lon="15.034311013296247">
        <ele>354.38</ele>
        <time>2013-09-05T13:56:15Z</time>
      </trkpt>
      <trkpt lat="50.775987999513745" lon="15.034408997744322">
        <ele>354.38</ele>
        <time>2013-09-05T13:56:16Z</time>
      </trkpt>
      <trkpt lat="50.775923961773515" lon="15.034502036869526">
        <ele>354.38</ele>
        <time>2013-09-05T13:56:17Z</time>
      </trkpt>
      <trkpt lat="50.775678036734462" lon="15.034695994108915">
        <ele>354.38</ele>
        <time>2013-09-05T13:56:23Z</time>
      </trkpt>
      <trkpt lat="50.775510985404253" lon="15.034831026569009">
        <ele>353.42000000000002</ele>
        <time>2013-09-05T13:56:26Z</time>
      </trkpt>
      <trkpt lat="50.775492964312434" lon="15.034934040158987">
        <ele>353.42000000000002</ele>
        <time>2013-09-05T13:56:27Z</time>
      </trkpt>
      <trkpt lat="50.775508973747492" lon="15.035049039870501">
        <ele>354.38</ele>
        <time>2013-09-05T13:56:28Z</time>
      </trkpt>
      <trkpt lat="50.775548033416271" lon="15.035132020711899">
        <ele>354.86000000000001</ele>
        <time>2013-09-05T13:56:29Z</time>
      </trkpt>
      <trkpt lat="50.775598995387554" lon="15.035205027088523">
        <ele>354.86000000000001</ele>
        <time>2013-09-05T13:56:30Z</time>
      </trkpt>
      <trkpt lat="50.775650963187218" lon="15.035290019586682">
        <ele>355.33999999999997</ele>
        <time>2013-09-05T13:56:31Z</time>
      </trkpt>
      <trkpt lat="50.775680970400572" lon="15.035384986549616">
        <ele>355.82999999999998</ele>
        <time>2013-09-05T13:56:32Z</time>
      </trkpt>
      <trkpt lat="50.775699997320771" lon="15.035484982654452">
        <ele>356.31</ele>
        <time>2013-09-05T13:56:33Z</time>
      </trkpt>
      <trkpt lat="50.775742996484041" lon="15.035774996504188">
        <ele>356.31</ele>
        <time>2013-09-05T13:56:36Z</time>
      </trkpt>
      <trkpt lat="50.775800999253988" lon="15.036023017019033">
        <ele>356.79000000000002</ele>
        <time>2013-09-05T13:56:40Z</time>
      </trkpt>
      <trkpt lat="50.775846010074019" lon="15.036071967333555">
        <ele>356.79000000000002</ele>
        <time>2013-09-05T13:56:41Z</time>
      </trkpt>
      <trkpt lat="50.775954974815249" lon="15.036236001178622">
        <ele>355.33999999999997</ele>
        <time>2013-09-05T13:56:44Z</time>
      </trkpt>
      <trkpt lat="50.776048013940454" lon="15.036565996706486">
        <ele>357.26999999999998</ele>
        <time>2013-09-05T13:56:53Z</time>
      </trkpt>
      <trkpt lat="50.776070980355144" lon="15.036759031936526">
        <ele>359.19</ele>
        <time>2013-09-05T13:56:57Z</time>
      </trkpt>
      <trkpt lat="50.776068968698382" lon="15.036836983636022">
        <ele>359.67000000000002</ele>
        <time>2013-09-05T13:56:58Z</time>
      </trkpt>
      <trkpt lat="50.776044996455312" lon="15.036889035254717">
        <ele>359.19</ele>
        <time>2013-09-05T13:56:59Z</time>
      </trkpt>
      <trkpt lat="50.776000991463661" lon="15.036907978355885">
        <ele>358.70999999999998</ele>
        <time>2013-09-05T13:57:00Z</time>
      </trkpt>
      <trkpt lat="50.775957992300391" lon="15.036904038861394">
        <ele>358.70999999999998</ele>
        <time>2013-09-05T13:57:01Z</time>
      </trkpt>
      <trkpt lat="50.775860007852316" lon="15.036933040246367">
        <ele>360.14999999999998</ele>
        <time>2013-09-05T13:57:04Z</time>
      </trkpt>
      <trkpt lat="50.775850033387542" lon="15.03696296364069">
        <ele>360.14999999999998</ele>
        <time>2013-09-05T13:57:05Z</time>
      </trkpt>
      <trkpt lat="50.775835029780865" lon="15.036977967247367">
        <ele>360.14999999999998</ele>
        <time>2013-09-05T13:57:06Z</time>
      </trkpt>
      <trkpt lat="50.775811979547143" lon="15.036976961418986">
        <ele>359.19</ele>
        <time>2013-09-05T13:57:07Z</time>
      </trkpt>
      <trkpt lat="50.775803010910749" lon="15.036990959197283">
        <ele>359.19</ele>
        <time>2013-09-05T13:57:08Z</time>
      </trkpt>
      <trkpt lat="50.775820026174188" lon="15.03700302913785">
        <ele>357.75</ele>
        <time>2013-09-05T13:57:18Z</time>
      </trkpt>
      <trkpt lat="50.775830000638962" lon="15.037007974460721">
        <ele>358.23000000000002</ele>
        <time>2013-09-05T13:57:19Z</time>
      </trkpt>
      <trkpt lat="50.775845004245639" lon="15.036997999995947">
        <ele>358.23000000000002</ele>
        <time>2013-09-05T13:57:20Z</time>
      </trkpt>
      <trkpt lat="50.775861013680696" lon="15.036990037187934">
        <ele>357.75</ele>
        <time>2013-09-05T13:57:21Z</time>
      </trkpt>
      <trkpt lat="50.775852967053652" lon="15.036985008046031">
        <ele>357.26999999999998</ele>
        <time>2013-09-05T13:57:37Z</time>
      </trkpt>
      <trkpt lat="50.775774009525776" lon="15.036813011392951">
        <ele>335.16000000000003</ele>
        <time>2013-09-05T13:58:28Z</time>
      </trkpt>
    </trkseg>
  </trk>

  <trk>
    <name>Track vom: 05 SEP 2013 16:00</name>
    <trkseg>
      <trkpt lat="50.77745801769197" lon="15.03842300735414">
        <ele>346.20999999999998</ele>
        <time>2013-09-05T14:00:25Z</time>
      </trkpt>
      <trkpt lat="50.778480023145676" lon="15.039233034476638">
        <ele>343.81</ele>
        <time>2013-09-05T14:00:33Z</time>
      </trkpt>
      <trkpt lat="50.780046014115214" lon="15.039635030552745">
        <ele>342.85000000000002</ele>
        <time>2013-09-05T14:00:44Z</time>
      </trkpt>
      <trkpt lat="50.781043963506818" lon="15.040045995265245">
        <ele>350.54000000000002</ele>
        <time>2013-09-05T14:00:53Z</time>
      </trkpt>
      <trkpt lat="50.78134504146874" lon="15.040279012173414">
        <ele>352.94</ele>
        <time>2013-09-05T14:01:00Z</time>
      </trkpt>
      <trkpt lat="50.781533969566226" lon="15.040471963584423">
        <ele>355.82999999999998</ele>
        <time>2013-09-05T14:01:07Z</time>
      </trkpt>
      <trkpt lat="50.782078038901091" lon="15.041106976568699">
        <ele>362.55000000000001</ele>
        <time>2013-09-05T14:01:18Z</time>
      </trkpt>
      <trkpt lat="50.782555975019932" lon="15.041923960670829">
        <ele>371.20999999999998</ele>
        <time>2013-09-05T14:01:27Z</time>
      </trkpt>
      <trkpt lat="50.782597968354821" lon="15.042046001181006">
        <ele>372.17000000000002</ele>
        <time>2013-09-05T14:01:28Z</time>
      </trkpt>
      <trkpt lat="50.783136002719402" lon="15.043314015492797">
        <ele>375.05000000000001</ele>
        <time>2013-09-05T14:01:39Z</time>
      </trkpt>
      <trkpt lat="50.783661967143416" lon="15.04456995986402">
        <ele>380.81999999999999</ele>
        <time>2013-09-05T14:01:49Z</time>
      </trkpt>
      <trkpt lat="50.78403303399682" lon="15.045388033613563">
        <ele>379.38</ele>
        <time>2013-09-05T14:01:55Z</time>
      </trkpt>
      <trkpt lat="50.784069998189807" lon="15.04540697671473">
        <ele>379.38</ele>
        <time>2013-09-05T14:01:56Z</time>
      </trkpt>
      <trkpt lat="50.784101011231542" lon="15.04536297172308">
        <ele>376.49000000000001</ele>
        <time>2013-09-05T14:01:57Z</time>
      </trkpt>
      <trkpt lat="50.784088019281626" lon="15.045306980609894">
        <ele>376.00999999999999</ele>
        <time>2013-09-05T14:01:58Z</time>
      </trkpt>
      <trkpt lat="50.784061029553413" lon="15.045245038345456">
        <ele>376.00999999999999</ele>
        <time>2013-09-05T14:01:59Z</time>
      </trkpt>
      <trkpt lat="50.784023981541395" lon="15.045167002826929">
        <ele>375.52999999999997</ele>
        <time>2013-09-05T14:02:00Z</time>
      </trkpt>
      <trkpt lat="50.783586027100682" lon="15.044162012636662">
        <ele>372.17000000000002</ele>
        <time>2013-09-05T14:02:07Z</time>
      </trkpt>
      <trkpt lat="50.782878007739782" lon="15.042530978098512">
        <ele>367.83999999999997</ele>
        <time>2013-09-05T14:02:18Z</time>
      </trkpt>
      <trkpt lat="50.782759990543127" lon="15.042256973683834">
        <ele>366.88</ele>
        <time>2013-09-05T14:02:25Z</time>
      </trkpt>
      <trkpt lat="50.782758984714746" lon="15.042252028360963">
        <ele>367.36000000000001</ele>
        <time>2013-09-05T14:02:43Z</time>
      </trkpt>
      <trkpt lat="50.782756973057985" lon="15.042184973135591">
        <ele>367.83999999999997</ele>
        <time>2013-09-05T14:02:44Z</time>
      </trkpt>
      <trkpt lat="50.782737024128437" lon="15.042126970365644">
        <ele>368.31999999999999</ele>
        <time>2013-09-05T14:02:45Z</time>
      </trkpt>
      <trkpt lat="50.782683966681361" lon="15.041935024783015">
        <ele>369.75999999999999</ele>
        <time>2013-09-05T14:02:48Z</time>
      </trkpt>
      <trkpt lat="50.782657982781529" lon="15.04186000674963">
        <ele>369.75999999999999</ele>
        <time>2013-09-05T14:02:49Z</time>
      </trkpt>
      <trkpt lat="50.78259302303195" lon="15.041705025359988">
        <ele>369.75999999999999</ele>
        <time>2013-09-05T14:02:51Z</time>
      </trkpt>
      <trkpt lat="50.782530996948481" lon="15.041632018983364">
        <ele>369.75999999999999</ele>
        <time>2013-09-05T14:02:52Z</time>
      </trkpt>
      <trkpt lat="50.781931020319462" lon="15.040775975212455">
        <ele>363.04000000000002</ele>
        <time>2013-09-05T14:03:00Z</time>
      </trkpt>
      <trkpt lat="50.781098026782274" lon="15.040030991658568">
        <ele>351.98000000000002</ele>
        <time>2013-09-05T14:03:10Z</time>
      </trkpt>
      <trkpt lat="50.780308032408357" lon="15.039664031937718">
        <ele>344.76999999999998</ele>
        <time>2013-09-05T14:03:18Z</time>
      </trkpt>
      <trkpt lat="50.778890987858176" lon="15.039283996447921">
        <ele>339.48000000000002</ele>
        <time>2013-09-05T14:03:28Z</time>
      </trkpt>
      <trkpt lat="50.777751971036196" lon="15.038755014538765">
        <ele>339.95999999999998</ele>
        <time>2013-09-05T14:03:37Z</time>
      </trkpt>
      <trkpt lat="50.776919983327389" lon="15.03775798715651">
        <ele>345.25</ele>
        <time>2013-09-05T14:03:46Z</time>
      </trkpt>
      <trkpt lat="50.77651203610003" lon="15.037239985540509">
        <ele>348.13</ele>
        <time>2013-09-05T14:03:54Z</time>
      </trkpt>
      <trkpt lat="50.776384966447949" lon="15.037028007209301">
        <ele>349.10000000000002</ele>
        <time>2013-09-05T14:04:02Z</time>
      </trkpt>
      <trkpt lat="50.776381026953459" lon="15.036956006661057">
        <ele>349.10000000000002</ele>
        <time>2013-09-05T14:04:03Z</time>
      </trkpt>
      <trkpt lat="50.776383960619569" lon="15.036861961707473">
        <ele>349.10000000000002</ele>
        <time>2013-09-05T14:04:04Z</time>
      </trkpt>
      <trkpt lat="50.776404999196529" lon="15.036760959774256">
        <ele>348.62</ele>
        <time>2013-09-05T14:04:05Z</time>
      </trkpt>
      <trkpt lat="50.776465013623238" lon="15.036654006689787">
        <ele>349.57999999999998</ele>
        <time>2013-09-05T14:04:06Z</time>
      </trkpt>
      <trkpt lat="50.776519998908043" lon="15.036540012806654">
        <ele>349.10000000000002</ele>
        <time>2013-09-05T14:04:07Z</time>
      </trkpt>
      <trkpt lat="50.776723008602858" lon="15.036182021722198">
        <ele>349.10000000000002</ele>
        <time>2013-09-05T14:04:10Z</time>
      </trkpt>
      <trkpt lat="50.777647029608488" lon="15.034617036581039">
        <ele>351.98000000000002</ele>
        <time>2013-09-05T14:04:22Z</time>
      </trkpt>
      <trkpt lat="50.77898402698338" lon="15.032377978786826">
        <ele>347.64999999999998</ele>
        <time>2013-09-05T14:04:37Z</time>
      </trkpt>
      <trkpt lat="50.779990023002028" lon="15.031244996935129">
        <ele>344.29000000000002</ele>
        <time>2013-09-05T14:04:46Z</time>
      </trkpt>
      <trkpt lat="50.781235992908478" lon="15.029801968485117">
        <ele>341.41000000000003</ele>
        <time>2013-09-05T14:04:58Z</time>
      </trkpt>
      <trkpt lat="50.781384017318487" lon="15.029449006542563">
        <ele>340.44</ele>
        <time>2013-09-05T14:05:00Z</time>
      </trkpt>
      <trkpt lat="50.781429028138518" lon="15.029253959655762">
        <ele>339.95999999999998</ele>
        <time>2013-09-05T14:05:01Z</time>
      </trkpt>
      <trkpt lat="50.781453000381589" lon="15.029047010466456">
        <ele>339.48000000000002</ele>
        <time>2013-09-05T14:05:02Z</time>
      </trkpt>
      <trkpt lat="50.781532041728497" lon="15.027628960087895">
        <ele>336.12</ele>
        <time>2013-09-05T14:05:09Z</time>
      </trkpt>
      <trkpt lat="50.781666990369558" lon="15.026880037039518">
        <ele>334.19999999999999</ele>
        <time>2013-09-05T14:05:13Z</time>
      </trkpt>
      <trkpt lat="50.781718036159873" lon="15.026709968224168">
        <ele>333.23000000000002</ele>
        <time>2013-09-05T14:05:14Z</time>
      </trkpt>
      <trkpt lat="50.781835969537497" lon="15.026420960202813">
        <ele>332.75</ele>
        <time>2013-09-05T14:05:16Z</time>
      </trkpt>
      <trkpt lat="50.781895983964205" lon="15.026307972148061">
        <ele>332.26999999999998</ele>
        <time>2013-09-05T14:05:17Z</time>
      </trkpt>
      <trkpt lat="50.781995980069041" lon="15.026037991046906">
        <ele>332.26999999999998</ele>
        <time>2013-09-05T14:05:21Z</time>
      </trkpt>
      <trkpt lat="50.78197100199759" lon="15.026021981611848">
        <ele>331.31</ele>
        <time>2013-09-05T14:05:22Z</time>
      </trkpt>
      <trkpt lat="50.781945018097758" lon="15.026027010753751">
        <ele>330.35000000000002</ele>
        <time>2013-09-05T14:05:23Z</time>
      </trkpt>
      <trkpt lat="50.781920962035656" lon="15.026034973561764">
        <ele>330.35000000000002</ele>
        <time>2013-09-05T14:05:24Z</time>
      </trkpt>
      <trkpt lat="50.781905958428979" lon="15.02604503184557">
        <ele>330.35000000000002</ele>
        <time>2013-09-05T14:05:25Z</time>
      </trkpt>
      <trkpt lat="50.781890032812953" lon="15.026064980775118">
        <ele>330.82999999999998</ele>
        <time>2013-09-05T14:05:47Z</time>
      </trkpt>
      <trkpt lat="50.781880980357528" lon="15.026072021573782">
        <ele>331.79000000000002</ele>
        <time>2013-09-05T14:05:54Z</time>
      </trkpt>
      <trkpt lat="50.781867988407612" lon="15.026107979938388">
        <ele>331.79000000000002</ele>
        <time>2013-09-05T14:05:55Z</time>
      </trkpt>
      <trkpt lat="50.781857008114457" lon="15.026160031557083">
        <ele>332.26999999999998</ele>
        <time>2013-09-05T14:05:56Z</time>
      </trkpt>
      <trkpt lat="50.781646035611629" lon="15.026717009022832">
        <ele>333.70999999999998</ele>
        <time>2013-09-05T14:06:01Z</time>
      </trkpt>
      <trkpt lat="50.781586021184921" lon="15.02688598819077">
        <ele>334.68000000000001</ele>
        <time>2013-09-05T14:06:02Z</time>
      </trkpt>
      <trkpt lat="50.781527012586594" lon="15.027072988450527">
        <ele>335.16000000000003</ele>
        <time>2013-09-05T14:06:03Z</time>
      </trkpt>
      <trkpt lat="50.781437996774912" lon="15.027479007840157">
        <ele>337.07999999999998</ele>
        <time>2013-09-05T14:06:05Z</time>
      </trkpt>
      <trkpt lat="50.781413018703461" lon="15.027689980342984">
        <ele>338.04000000000002</ele>
        <time>2013-09-05T14:06:06Z</time>
      </trkpt>
      <trkpt lat="50.7813919801265" lon="15.027899025008082">
        <ele>339</ele>
        <time>2013-09-05T14:06:07Z</time>
      </trkpt>
      <trkpt lat="50.781316962093115" lon="15.029224958270788">
        <ele>342.37</ele>
        <time>2013-09-05T14:06:13Z</time>
      </trkpt>
      <trkpt lat="50.781277986243367" lon="15.029430985450745">
        <ele>342.37</ele>
        <time>2013-09-05T14:06:14Z</time>
      </trkpt>
      <trkpt lat="50.781209003180265" lon="15.029627038165927">
        <ele>341.88999999999999</ele>
        <time>2013-09-05T14:06:15Z</time>
      </trkpt>
      <trkpt lat="50.781128033995628" lon="15.02978797070682">
        <ele>342.37</ele>
        <time>2013-09-05T14:06:16Z</time>
      </trkpt>
      <trkpt lat="50.781042035669088" lon="15.029929038137197">
        <ele>342.37</ele>
        <time>2013-09-05T14:06:17Z</time>
      </trkpt>
      <trkpt lat="50.7806839607656" lon="15.030423989519477">
        <ele>343.81</ele>
        <time>2013-09-05T14:06:22Z</time>
      </trkpt>
      <trkpt lat="50.780645990744233" lon="15.030450979247689">
        <ele>343.32999999999998</ele>
        <time>2013-09-05T14:06:23Z</time>
      </trkpt>
      <trkpt lat="50.78061698935926" lon="15.030456008389592">
        <ele>343.32999999999998</ele>
        <time>2013-09-05T14:06:24Z</time>
      </trkpt>
      <trkpt lat="50.780613971874118" lon="15.030493978410959">
        <ele>342.85000000000002</ele>
        <time>2013-09-05T14:06:36Z</time>
      </trkpt>
      <trkpt lat="50.78053099103272" lon="15.030476963147521">
        <ele>343.32999999999998</ele>
        <time>2013-09-05T14:07:30Z</time>
      </trkpt>
      <trkpt lat="50.780496038496494" lon="15.030448967590928">
        <ele>343.81</ele>
        <time>2013-09-05T14:07:31Z</time>
      </trkpt>
      <trkpt lat="50.780474999919534" lon="15.030404962599277">
        <ele>345.25</ele>
        <time>2013-09-05T14:07:32Z</time>
      </trkpt>
      <trkpt lat="50.78046603128314" lon="15.030361963436007">
        <ele>345.73000000000002</ele>
        <time>2013-09-05T14:07:33Z</time>
      </trkpt>
      <trkpt lat="50.780472988262773" lon="15.030321981757879">
        <ele>346.20999999999998</ele>
        <time>2013-09-05T14:07:34Z</time>
      </trkpt>
      <trkpt lat="50.78048899769783" lon="15.030285017564893">
        <ele>346.69</ele>
        <time>2013-09-05T14:07:35Z</time>
      </trkpt>
      <trkpt lat="50.78050802461803" lon="15.030261967331171">
        <ele>347.17000000000002</ele>
        <time>2013-09-05T14:07:36Z</time>
      </trkpt>
      <trkpt lat="50.780517999082804" lon="15.030030962079763">
        <ele>346.69</ele>
        <time>2013-09-05T14:07:43Z</time>
      </trkpt>
      <trkpt lat="50.780428983271122" lon="15.030010007321835">
        <ele>346.69</ele>
        <time>2013-09-05T14:07:46Z</time>
      </trkpt>
      <trkpt lat="50.78040199354291" lon="15.030048983171582">
        <ele>347.17000000000002</ele>
        <time>2013-09-05T14:07:47Z</time>
      </trkpt>
      <trkpt lat="50.780390007421374" lon="15.030094999819994">
        <ele>347.64999999999998</ele>
        <time>2013-09-05T14:07:48Z</time>
      </trkpt>
      <trkpt lat="50.780384978279471" lon="15.030154008418322">
        <ele>348.13</ele>
        <time>2013-09-05T14:07:49Z</time>
      </trkpt>
      <trkpt lat="50.780384978279471" lon="15.030202958732843">
        <ele>348.13</ele>
        <time>2013-09-05T14:07:50Z</time>
      </trkpt>
      <trkpt lat="50.780381038784981" lon="15.030246041715145">
        <ele>347.64999999999998</ele>
        <time>2013-09-05T14:07:51Z</time>
      </trkpt>
      <trkpt lat="50.780367963016033" lon="15.030272025614977">
        <ele>347.64999999999998</ele>
        <time>2013-09-05T14:07:52Z</time>
      </trkpt>
      <trkpt lat="50.780352959409356" lon="15.030262973159552">
        <ele>347.64999999999998</ele>
        <time>2013-09-05T14:07:53Z</time>
      </trkpt>
      <trkpt lat="50.780349019914865" lon="15.03021796233952">
        <ele>347.64999999999998</ele>
        <time>2013-09-05T14:07:54Z</time>
      </trkpt>
      <trkpt lat="50.780361006036401" lon="15.030174041166902">
        <ele>347.64999999999998</ele>
        <time>2013-09-05T14:07:55Z</time>
      </trkpt>
      <trkpt lat="50.780381038784981" lon="15.030132969841361">
        <ele>347.64999999999998</ele>
        <time>2013-09-05T14:07:56Z</time>
      </trkpt>
      <trkpt lat="50.780400987714529" lon="15.030096005648375">
        <ele>346.69</ele>
        <time>2013-09-05T14:07:57Z</time>
      </trkpt>
      <trkpt lat="50.780376009643078" lon="15.030054012313485">
        <ele>347.17000000000002</ele>
        <time>2013-09-05T14:08:09Z</time>
      </trkpt>
      <trkpt lat="50.780368968844414" lon="15.030067004263401">
        <ele>347.17000000000002</ele>
        <time>2013-09-05T14:08:46Z</time>
      </trkpt>
      <trkpt lat="50.780323036015034" lon="15.03000196069479">
        <ele>347.17000000000002</ele>
        <time>2013-09-05T14:09:17Z</time>
      </trkpt>
      <trkpt lat="50.78042202629149" lon="15.029920991510153">
        <ele>346.20999999999998</ele>
        <time>2013-09-05T14:12:39Z</time>
      </trkpt>
      <trkpt lat="50.780432000756264" lon="15.029872041195631">
        <ele>345.73000000000002</ele>
        <time>2013-09-05T14:12:41Z</time>
      </trkpt>
      <trkpt lat="50.78037902712822" lon="15.029748994857073">
        <ele>343.32999999999998</ele>
        <time>2013-09-05T14:12:45Z</time>
      </trkpt>
      <trkpt lat="50.780430994927883" lon="15.029643969610333">
        <ele>343.32999999999998</ele>
        <time>2013-09-05T14:12:47Z</time>
      </trkpt>
      <trkpt lat="50.780483968555927" lon="15.029575992375612">
        <ele>344.29000000000002</ele>
        <time>2013-09-05T14:12:48Z</time>
      </trkpt>
      <trkpt lat="50.780533002689481" lon="15.029461998492479">
        <ele>344.76999999999998</ele>
        <time>2013-09-05T14:12:49Z</time>
      </trkpt>
      <trkpt lat="50.780572984367609" lon="15.029316991567612">
        <ele>344.29000000000002</ele>
        <time>2013-09-05T14:12:50Z</time>
      </trkpt>
      <trkpt lat="50.78061698935926" lon="15.029157986864448">
        <ele>343.81</ele>
        <time>2013-09-05T14:12:51Z</time>
      </trkpt>
      <trkpt lat="50.78068102709949" lon="15.028983978554606">
        <ele>343.81</ele>
        <time>2013-09-05T14:12:52Z</time>
      </trkpt>
      <trkpt lat="50.780751015990973" lon="15.028762025758624">
        <ele>342.85000000000002</ele>
        <time>2013-09-05T14:12:53Z</time>
      </trkpt>
      <trkpt lat="50.781201962381601" lon="15.027182959020138">
        <ele>339.48000000000002</ele>
        <time>2013-09-05T14:12:58Z</time>
      </trkpt>
      <trkpt lat="50.781650980934501" lon="15.025902036577463">
        <ele>336.60000000000002</ele>
        <time>2013-09-05T14:13:02Z</time>
      </trkpt>
      <trkpt lat="50.781796993687749" lon="15.025628032162786">
        <ele>336.60000000000002</ele>
        <time>2013-09-05T14:13:03Z</time>
      </trkpt>
      <trkpt lat="50.781947029754519" lon="15.025368025526404">
        <ele>335.63999999999999</ele>
        <time>2013-09-05T14:13:04Z</time>
      </trkpt>
      <trkpt lat="50.782109973952174" lon="15.025126961991191">
        <ele>335.16000000000003</ele>
        <time>2013-09-05T14:13:05Z</time>
      </trkpt>
      <trkpt lat="50.782285993918777" lon="15.024896040558815">
        <ele>334.68000000000001</ele>
        <time>2013-09-05T14:13:06Z</time>
      </trkpt>
      <trkpt lat="50.783498017117381" lon="15.023923991248012">
        <ele>333.23000000000002</ele>
        <time>2013-09-05T14:13:12Z</time>
      </trkpt>
      <trkpt lat="50.785677982494235" lon="15.023084040731192">
        <ele>336.60000000000002</ele>
        <time>2013-09-05T14:13:22Z</time>
      </trkpt>
      <trkpt lat="50.787360984832048" lon="15.021923985332251">
        <ele>334.68000000000001</ele>
        <time>2013-09-05T14:13:30Z</time>
      </trkpt>
      <trkpt lat="50.789168961346149" lon="15.019915010780096">
        <ele>326.5</ele>
        <time>2013-09-05T14:13:40Z</time>
      </trkpt>
      <trkpt lat="50.789962979033589" lon="15.018744980916381">
        <ele>324.10000000000002</ele>
        <time>2013-09-05T14:13:46Z</time>
      </trkpt>
      <trkpt lat="50.790666975080967" lon="15.017206985503435">
        <ele>321.69999999999999</ele>
        <time>2013-09-05T14:13:54Z</time>
      </trkpt>
      <trkpt lat="50.79071600921452" lon="15.017013028264046">
        <ele>321.22000000000003</ele>
        <time>2013-09-05T14:13:55Z</time>
      </trkpt>
      <trkpt lat="50.790750039741397" lon="15.016819993034005">
        <ele>320.74000000000001</ele>
        <time>2013-09-05T14:13:56Z</time>
      </trkpt>
      <trkpt lat="50.790945002809167" lon="15.015071025118232">
        <ele>319.30000000000001</ele>
        <time>2013-09-05T14:14:05Z</time>
      </trkpt>
      <trkpt lat="50.790969980880618" lon="15.014225961640477">
        <ele>319.30000000000001</ele>
        <time>2013-09-05T14:14:09Z</time>
      </trkpt>
      <trkpt lat="50.790966963395476" lon="15.014008032158017">
        <ele>319.30000000000001</ele>
        <time>2013-09-05T14:14:10Z</time>
      </trkpt>
      <trkpt lat="50.790959000587463" lon="15.013787001371384">
        <ele>319.30000000000001</ele>
        <time>2013-09-05T14:14:11Z</time>
      </trkpt>
      <trkpt lat="50.790702011436224" lon="15.011646011844277">
        <ele>319.30000000000001</ele>
        <time>2013-09-05T14:14:20Z</time>
      </trkpt>
      <trkpt lat="50.790688013657928" lon="15.010350001975894">
        <ele>321.22000000000003</ele>
        <time>2013-09-05T14:14:25Z</time>
      </trkpt>
      <trkpt lat="50.790723972022533" lon="15.01010499894619">
        <ele>321.69999999999999</ele>
        <time>2013-09-05T14:14:26Z</time>
      </trkpt>
      <trkpt lat="50.790775017812848" lon="15.009876005351543">
        <ele>321.69999999999999</ele>
        <time>2013-09-05T14:14:27Z</time>
      </trkpt>
      <trkpt lat="50.790889011695981" lon="15.009454982355237">
        <ele>322.66000000000003</ele>
        <time>2013-09-05T14:14:29Z</time>
      </trkpt>
      <trkpt lat="50.791031001135707" lon="15.009163040667772">
        <ele>323.13999999999999</ele>
        <time>2013-09-05T14:14:31Z</time>
      </trkpt>
      <trkpt lat="50.791115993633866" lon="15.009089028462768">
        <ele>324.10000000000002</ele>
        <time>2013-09-05T14:14:32Z</time>
      </trkpt>
      <trkpt lat="50.791282961145043" lon="15.008975034579635">
        <ele>325.06</ele>
        <time>2013-09-05T14:14:34Z</time>
      </trkpt>
      <trkpt lat="50.791330989450216" lon="15.008875038474798">
        <ele>326.5</ele>
        <time>2013-09-05T14:14:35Z</time>
      </trkpt>
      <trkpt lat="50.79134096391499" lon="15.008760038763285">
        <ele>325.54000000000002</ele>
        <time>2013-09-05T14:14:36Z</time>
      </trkpt>
      <trkpt lat="50.791300982236862" lon="15.008644033223391">
        <ele>325.54000000000002</ele>
        <time>2013-09-05T14:14:37Z</time>
      </trkpt>
      <trkpt lat="50.791247002780437" lon="15.008575972169638">
        <ele>325.06</ele>
        <time>2013-09-05T14:14:38Z</time>
      </trkpt>
      <trkpt lat="50.791169973090291" lon="15.008555017411709">
        <ele>324.57999999999998</ele>
        <time>2013-09-05T14:14:39Z</time>
      </trkpt>
      <trkpt lat="50.791078023612499" lon="15.008573038503528">
        <ele>325.06</ele>
        <time>2013-09-05T14:14:40Z</time>
      </trkpt>
      <trkpt lat="50.790978027507663" lon="15.008602039888501">
        <ele>325.06</ele>
        <time>2013-09-05T14:14:41Z</time>
      </trkpt>
      <trkpt lat="50.790871996432543" lon="15.00860002823174">
        <ele>325.54000000000002</ele>
        <time>2013-09-05T14:14:42Z</time>
      </trkpt>
      <trkpt lat="50.790764037519693" lon="15.008559040725231">
        <ele>326.01999999999998</ele>
        <time>2013-09-05T14:14:43Z</time>
      </trkpt>
      <trkpt lat="50.790118966251612" lon="15.008271038532257">
        <ele>326.01999999999998</ele>
        <time>2013-09-05T14:14:48Z</time>
      </trkpt>
      <trkpt lat="50.789981000125408" lon="15.008282018825412">
        <ele>325.06</ele>
        <time>2013-09-05T14:14:49Z</time>
      </trkpt>
      <trkpt lat="50.789846973493695" lon="15.008346978574991">
        <ele>324.57999999999998</ele>
        <time>2013-09-05T14:14:50Z</time>
      </trkpt>
      <trkpt lat="50.789729040116072" lon="15.008477987721562">
        <ele>323.62</ele>
        <time>2013-09-05T14:14:51Z</time>
      </trkpt>
      <trkpt lat="50.789645975455642" lon="15.008658031001687">
        <ele>322.66000000000003</ele>
        <time>2013-09-05T14:14:52Z</time>
      </trkpt>
      <trkpt lat="50.789614962413907" lon="15.008876966312528">
        <ele>321.69999999999999</ele>
        <time>2013-09-05T14:14:53Z</time>
      </trkpt>
      <trkpt lat="50.789633989334106" lon="15.009107971563935">
        <ele>321.22000000000003</ele>
        <time>2013-09-05T14:14:54Z</time>
      </trkpt>
      <trkpt lat="50.789698027074337" lon="15.009321039542556">
        <ele>320.74000000000001</ele>
        <time>2013-09-05T14:14:55Z</time>
      </trkpt>
      <trkpt lat="50.789789976552129" lon="15.009508039802313">
        <ele>320.25999999999999</ele>
        <time>2013-09-05T14:14:56Z</time>
      </trkpt>
      <trkpt lat="50.789903970435262" lon="15.009694034233689">
        <ele>319.77999999999997</ele>
        <time>2013-09-05T14:14:57Z</time>
      </trkpt>
      <trkpt lat="50.790123995393515" lon="15.0100820325315">
        <ele>319.77999999999997</ele>
        <time>2013-09-05T14:14:59Z</time>
      </trkpt>
      <trkpt lat="50.790210999548435" lon="15.010314965620637">
        <ele>319.77999999999997</ele>
        <time>2013-09-05T14:15:00Z</time>
      </trkpt>
      <trkpt lat="50.790275959298015" lon="15.010582013055682">
        <ele>319.30000000000001</ele>
        <time>2013-09-05T14:15:01Z</time>
      </trkpt>
      <trkpt lat="50.790315018966794" lon="15.01087898388505">
        <ele>319.77999999999997</ele>
        <time>2013-09-05T14:15:02Z</time>
      </trkpt>
      <trkpt lat="50.790339997038245" lon="15.011196993291378">
        <ele>319.30000000000001</ele>
        <time>2013-09-05T14:15:03Z</time>
      </trkpt>
      <trkpt lat="50.790644008666277" lon="15.013952041044831">
        <ele>320.74000000000001</ele>
        <time>2013-09-05T14:15:11Z</time>
      </trkpt>
      <trkpt lat="50.790563961490989" lon="15.016062017530203">
        <ele>323.13999999999999</ele>
        <time>2013-09-05T14:15:17Z</time>
      </trkpt>
      <trkpt lat="50.789960967376828" lon="15.018293028697371">
        <ele>325.54000000000002</ele>
        <time>2013-09-05T14:15:24Z</time>
      </trkpt>
      <trkpt lat="50.788912978023291" lon="15.020006038248539">
        <ele>328.91000000000003</ele>
        <time>2013-09-05T14:15:31Z</time>
      </trkpt>
      <trkpt lat="50.786415003240108" lon="15.02252496778965">
        <ele>336.12</ele>
        <time>2013-09-05T14:15:45Z</time>
      </trkpt>
      <trkpt lat="50.784973986446857" lon="15.023231981322169">
        <ele>336.12</ele>
        <time>2013-09-05T14:15:52Z</time>
      </trkpt>
      <trkpt lat="50.782618001103401" lon="15.02430503256619">
        <ele>335.16000000000003</ele>
        <time>2013-09-05T14:16:03Z</time>
      </trkpt>
      <trkpt lat="50.781620973721147" lon="15.025542033836246">
        <ele>337.07999999999998</ele>
        <time>2013-09-05T14:16:09Z</time>
      </trkpt>
      <trkpt lat="50.780860986560583" lon="15.02752996981144">
        <ele>341.88999999999999</ele>
        <time>2013-09-05T14:16:16Z</time>
      </trkpt>
      <trkpt lat="50.779925985261798" lon="15.030039008706808">
        <ele>347.17000000000002</ele>
        <time>2013-09-05T14:16:25Z</time>
      </trkpt>
      <trkpt lat="50.778497038409114" lon="15.032383007928729">
        <ele>352.94</ele>
        <time>2013-09-05T14:16:36Z</time>
      </trkpt>
      <trkpt lat="50.77752498909831" lon="15.033593019470572">
        <ele>355.82999999999998</ele>
        <time>2013-09-05T14:16:44Z</time>
      </trkpt>
      <trkpt lat="50.777334971353412" lon="15.033783037215471">
        <ele>356.31</ele>
        <time>2013-09-05T14:16:46Z</time>
      </trkpt>
      <trkpt lat="50.777229024097323" lon="15.033849002793431">
        <ele>356.79000000000002</ele>
        <time>2013-09-05T14:16:47Z</time>
      </trkpt>
      <trkpt lat="50.777119975537062" lon="15.033898036926985">
        <ele>356.79000000000002</ele>
        <time>2013-09-05T14:16:48Z</time>
      </trkpt>
      <trkpt lat="50.777006987482309" lon="15.03393198363483">
        <ele>356.79000000000002</ele>
        <time>2013-09-05T14:16:49Z</time>
      </trkpt>
      <trkpt lat="50.776891987770796" lon="15.033950004726648">
        <ele>357.26999999999998</ele>
        <time>2013-09-05T14:16:50Z</time>
      </trkpt>
      <trkpt lat="50.776775982230902" lon="15.033957967534661">
        <ele>357.75</ele>
        <time>2013-09-05T14:16:51Z</time>
      </trkpt>
      <trkpt lat="50.776468031108379" lon="15.033993003889918">
        <ele>357.75</ele>
        <time>2013-09-05T14:16:54Z</time>
      </trkpt>
      <trkpt lat="50.776372980326414" lon="15.034028040245175">
        <ele>357.75</ele>
        <time>2013-09-05T14:16:55Z</time>
      </trkpt>
      <trkpt lat="50.776282036677003" lon="15.034065004438162">
        <ele>357.75</ele>
        <time>2013-09-05T14:16:56Z</time>
      </trkpt>
      <trkpt lat="50.776196038350463" lon="15.034124013036489">
        <ele>357.26999999999998</ele>
        <time>2013-09-05T14:16:57Z</time>
      </trkpt>
      <trkpt lat="50.776121020317078" lon="15.034195007756352">
        <ele>357.26999999999998</ele>
        <time>2013-09-05T14:16:58Z</time>
      </trkpt>
      <trkpt lat="50.776056982576847" lon="15.034261979162693">
        <ele>356.79000000000002</ele>
        <time>2013-09-05T14:16:59Z</time>
      </trkpt>
      <trkpt lat="50.776008032262325" lon="15.034317970275879">
        <ele>356.79000000000002</ele>
        <time>2013-09-05T14:17:00Z</time>
      </trkpt>
      <trkpt lat="50.775828994810581" lon="15.034557022154331">
        <ele>354.38</ele>
        <time>2013-09-05T14:17:09Z</time>
      </trkpt>
      <trkpt lat="50.775701003149152" lon="15.034642014652491">
        <ele>353.89999999999998</ele>
        <time>2013-09-05T14:17:20Z</time>
      </trkpt>
      <trkpt lat="50.775651969015598" lon="15.034646959975362">
        <ele>352.94</ele>
        <time>2013-09-05T14:17:21Z</time>
      </trkpt>
      <trkpt lat="50.775597989559174" lon="15.034665986895561">
        <ele>352.94</ele>
        <time>2013-09-05T14:17:22Z</time>
      </trkpt>
      <trkpt lat="50.775548033416271" lon="15.034721978008747">
        <ele>352.45999999999998</ele>
        <time>2013-09-05T14:17:23Z</time>
      </trkpt>
      <trkpt lat="50.775512997061014" lon="15.034806970506907">
        <ele>351.98000000000002</ele>
        <time>2013-09-05T14:17:24Z</time>
      </trkpt>
      <trkpt lat="50.775502016767859" lon="15.034910989925265">
        <ele>351.98000000000002</ele>
        <time>2013-09-05T14:17:25Z</time>
      </trkpt>
      <trkpt lat="50.775515008717775" lon="15.035008974373341">
        <ele>351.98000000000002</ele>
        <time>2013-09-05T14:17:26Z</time>
      </trkpt>
      <trkpt lat="50.775545015931129" lon="15.035088015720248">
        <ele>351.98000000000002</ele>
        <time>2013-09-05T14:17:27Z</time>
      </trkpt>
      <trkpt lat="50.775583991780877" lon="15.035150041803718">
        <ele>351.98000000000002</ele>
        <time>2013-09-05T14:17:28Z</time>
      </trkpt>
      <trkpt lat="50.775622967630625" lon="15.035213995724916">
        <ele>351.98000000000002</ele>
        <time>2013-09-05T14:17:29Z</time>
      </trkpt>
      <trkpt lat="50.775677030906081" lon="15.035369982942939">
        <ele>351.98000000000002</ele>
        <time>2013-09-05T14:17:31Z</time>
      </trkpt>
      <trkpt lat="50.775693962350488" lon="15.035461010411382">
        <ele>351.98000000000002</ele>
        <time>2013-09-05T14:17:32Z</time>
      </trkpt>
      <trkpt lat="50.775724975392222" lon="15.035653961822391">
        <ele>351.5</ele>
        <time>2013-09-05T14:17:34Z</time>
      </trkpt>
      <trkpt lat="50.775876017287374" lon="15.036086970940232">
        <ele>352.45999999999998</ele>
        <time>2013-09-05T14:17:42Z</time>
      </trkpt>
      <trkpt lat="50.776013983413577" lon="15.036461977288127">
        <ele>352.94</ele>
        <time>2013-09-05T14:17:51Z</time>
      </trkpt>
      <trkpt lat="50.776071986183524" lon="15.036658030003309">
        <ele>354.38</ele>
        <time>2013-09-05T14:18:03Z</time>
      </trkpt>
      <trkpt lat="50.776096964254975" lon="15.036730030551553">
        <ele>354.38</ele>
        <time>2013-09-05T14:18:04Z</time>
      </trkpt>
      <trkpt lat="50.776121020317078" lon="15.036817034706473">
        <ele>354.38</ele>
        <time>2013-09-05T14:18:05Z</time>
      </trkpt>
      <trkpt lat="50.776145998388529" lon="15.0369209703058">
        <ele>354.38</ele>
        <time>2013-09-05T14:18:06Z</time>
      </trkpt>
      <trkpt lat="50.776197966188192" lon="15.037017026916146">
        <ele>353.89999999999998</ele>
        <time>2013-09-05T14:18:07Z</time>
      </trkpt>
      <trkpt lat="50.776264015585184" lon="15.037104031071067">
        <ele>353.42000000000002</ele>
        <time>2013-09-05T14:18:08Z</time>
      </trkpt>
      <trkpt lat="50.776334004476666" lon="15.03717795945704">
        <ele>352.94</ele>
        <time>2013-09-05T14:18:09Z</time>
      </trkpt>
      <trkpt lat="50.776466019451618" lon="15.037321960553527">
        <ele>351.5</ele>
        <time>2013-09-05T14:18:11Z</time>
      </trkpt>
      <trkpt lat="50.776515975594521" lon="15.037388009950519">
        <ele>351.01999999999998</ele>
        <time>2013-09-05T14:18:12Z</time>
      </trkpt>
      <trkpt lat="50.776553023606539" lon="15.037450036033988">
        <ele>351.01999999999998</ele>
        <time>2013-09-05T14:18:13Z</time>
      </trkpt>
      <trkpt lat="50.776564003899693" lon="15.037512984126806">
        <ele>350.54000000000002</ele>
        <time>2013-09-05T14:18:14Z</time>
      </trkpt>
      <trkpt lat="50.776549000293016" lon="15.037566963583231">
        <ele>350.54000000000002</ele>
        <time>2013-09-05T14:18:15Z</time>
      </trkpt>
      <trkpt lat="50.77651203610003" lon="15.037592025473714">
        <ele>349.57999999999998</ele>
        <time>2013-09-05T14:18:16Z</time>
      </trkpt>
      <trkpt lat="50.776466019451618" lon="15.037595964968204">
        <ele>349.10000000000002</ele>
        <time>2013-09-05T14:18:17Z</time>
      </trkpt>
      <trkpt lat="50.776417991146445" lon="15.037590013816953">
        <ele>348.13</ele>
        <time>2013-09-05T14:18:18Z</time>
      </trkpt>
      <trkpt lat="50.776370968669653" lon="15.037583978846669">
        <ele>347.17000000000002</ele>
        <time>2013-09-05T14:18:19Z</time>
      </trkpt>
      <trkpt lat="50.776321012526751" lon="15.037593031302094">
        <ele>345.73000000000002</ele>
        <time>2013-09-05T14:18:20Z</time>
      </trkpt>
      <trkpt lat="50.776269966736436" lon="15.037613986060023">
        <ele>344.29000000000002</ele>
        <time>2013-09-05T14:18:21Z</time>
      </trkpt>
      <trkpt lat="50.776223028078675" lon="15.037629995495081">
        <ele>343.32999999999998</ele>
        <time>2013-09-05T14:18:22Z</time>
      </trkpt>
      <trkpt lat="50.776180028915405" lon="15.037639969959855">
        <ele>342.37</ele>
        <time>2013-09-05T14:18:23Z</time>
      </trkpt>
      <trkpt lat="50.776145998388529" lon="15.037665031850338">
        <ele>341.41000000000003</ele>
        <time>2013-09-05T14:18:24Z</time>
      </trkpt>
      <trkpt lat="50.776124037802219" lon="15.037656985223293">
        <ele>341.88999999999999</ele>
        <time>2013-09-05T14:18:25Z</time>
      </trkpt>
      <trkpt lat="50.776067040860653" lon="15.037622032687068">
        <ele>339.48000000000002</ele>
        <time>2013-09-05T14:18:38Z</time>
      </trkpt>
      <trkpt lat="50.776057988405228" lon="15.037576016038656">
        <ele>340.44</ele>
        <time>2013-09-05T14:19:10Z</time>
      </trkpt>
      <trkpt lat="50.775924967601895" lon="15.038167024031281">
        <ele>356.79000000000002</ele>
        <time>2013-09-05T14:30:46Z</time>
      </trkpt>
      <trkpt lat="50.775932008400559" lon="15.038782004266977">
        <ele>360.14999999999998</ele>
        <time>2013-09-05T14:30:52Z</time>
      </trkpt>
      <trkpt lat="50.775920022279024" lon="15.038836989551783">
        <ele>361.11000000000001</ele>
        <time>2013-09-05T14:30:53Z</time>
      </trkpt>
      <trkpt lat="50.775895966216922" lon="15.038858028128743">
        <ele>360.14999999999998</ele>
        <time>2013-09-05T14:30:54Z</time>
      </trkpt>
      <trkpt lat="50.775872999802232" lon="15.038860039785504">
        <ele>357.75</ele>
        <time>2013-09-05T14:30:55Z</time>
      </trkpt>
      <trkpt lat="50.775832012295723" lon="15.038836989551783">
        <ele>357.75</ele>
        <time>2013-09-05T14:30:56Z</time>
      </trkpt>
      <trkpt lat="50.775776021182537" lon="15.038805976510048">
        <ele>358.23000000000002</ele>
        <time>2013-09-05T14:30:57Z</time>
      </trkpt>
      <trkpt lat="50.775711983442307" lon="15.038763983175159">
        <ele>358.23000000000002</ele>
        <time>2013-09-05T14:30:58Z</time>
      </trkpt>
      <trkpt lat="50.775354998186231" lon="15.03846500068903">
        <ele>356.31</ele>
        <time>2013-09-05T14:31:08Z</time>
      </trkpt>
      <trkpt lat="50.775362038984895" lon="15.03842300735414">
        <ele>355.82999999999998</ele>
        <time>2013-09-05T14:31:09Z</time>
      </trkpt>
      <trkpt lat="50.77537695877254" lon="15.038365004584193">
        <ele>355.33999999999997</ele>
        <time>2013-09-05T14:31:10Z</time>
      </trkpt>
      <trkpt lat="50.775413000956178" lon="15.038295015692711">
        <ele>354.86000000000001</ele>
        <time>2013-09-05T14:31:11Z</time>
      </trkpt>
      <trkpt lat="50.775461029261351" lon="15.038211029022932">
        <ele>355.33999999999997</ele>
        <time>2013-09-05T14:31:12Z</time>
      </trkpt>
      <trkpt lat="50.775522971525788" lon="15.038125030696392">
        <ele>354.38</ele>
        <time>2013-09-05T14:31:13Z</time>
      </trkpt>
      <trkpt lat="50.775588015094399" lon="15.038026962429285">
        <ele>353.89999999999998</ele>
        <time>2013-09-05T14:31:14Z</time>
      </trkpt>
      <trkpt lat="50.776197966188192" lon="15.037104031071067">
        <ele>346.69</ele>
        <time>2013-09-05T14:31:25Z</time>
      </trkpt>
      <trkpt lat="50.776344984769821" lon="15.036881994456053">
        <ele>345.73000000000002</ele>
        <time>2013-09-05T14:31:28Z</time>
      </trkpt>
      <trkpt lat="50.77634297311306" lon="15.03679096698761">
        <ele>344.76999999999998</ele>
        <time>2013-09-05T14:31:29Z</time>
      </trkpt>
      <trkpt lat="50.776316989213228" lon="15.03672500140965">
        <ele>344.29000000000002</ele>
        <time>2013-09-05T14:31:30Z</time>
      </trkpt>
      <trkpt lat="50.776276001706719" lon="15.036676973104477">
        <ele>344.29000000000002</ele>
        <time>2013-09-05T14:31:31Z</time>
      </trkpt>
      <trkpt lat="50.776235014200211" lon="15.036641014739871">
        <ele>343.81</ele>
        <time>2013-09-05T14:31:32Z</time>
      </trkpt>
      <trkpt lat="50.776112973690033" lon="15.036501958966255">
        <ele>345.73000000000002</ele>
        <time>2013-09-05T14:31:37Z</time>
      </trkpt>
      <trkpt lat="50.776093024760485" lon="15.03644797950983">
        <ele>346.69</ele>
        <time>2013-09-05T14:31:38Z</time>
      </trkpt>
      <trkpt lat="50.776079026982188" lon="15.036402968689799">
        <ele>346.69</ele>
        <time>2013-09-05T14:31:39Z</time>
      </trkpt>
      <trkpt lat="50.776069974526763" lon="15.036364998668432">
        <ele>346.69</ele>
        <time>2013-09-05T14:31:40Z</time>
      </trkpt>
      <trkpt lat="50.776058994233608" lon="15.036337003111839">
        <ele>346.20999999999998</ele>
        <time>2013-09-05T14:31:41Z</time>
      </trkpt>
      <trkpt lat="50.776009038090706" lon="15.036131981760263">
        <ele>347.64999999999998</ele>
        <time>2013-09-05T14:31:53Z</time>
      </trkpt>
      <trkpt lat="50.775997973978519" lon="15.036026034504175">
        <ele>348.13</ele>
        <time>2013-09-05T14:32:05Z</time>
      </trkpt>
      <trkpt lat="50.775963021442294" lon="15.035740965977311">
        <ele>348.62</ele>
        <time>2013-09-05T14:32:09Z</time>
      </trkpt>
      <trkpt lat="50.775886997580528" lon="15.035534016788006">
        <ele>348.13</ele>
        <time>2013-09-05T14:32:12Z</time>
      </trkpt>
      <trkpt lat="50.775872999802232" lon="15.035472996532917">
        <ele>348.13</ele>
        <time>2013-09-05T14:32:13Z</time>
      </trkpt>
      <trkpt lat="50.775876017287374" lon="15.035433014854789">
        <ele>348.13</ele>
        <time>2013-09-05T14:32:14Z</time>
      </trkpt>
      <trkpt lat="50.775837963446975" lon="15.034947032108903">
        <ele>348.13</ele>
        <time>2013-09-05T14:32:21Z</time>
      </trkpt>
      <trkpt lat="50.775756994262338" lon="15.034758020192385">
        <ele>347.64999999999998</ele>
        <time>2013-09-05T14:32:25Z</time>
      </trkpt>
      <trkpt lat="50.775710977613926" lon="15.03472700715065">
        <ele>347.64999999999998</ele>
        <time>2013-09-05T14:32:26Z</time>
      </trkpt>
      <trkpt lat="50.775664038956165" lon="15.034713009372354">
        <ele>347.17000000000002</ele>
        <time>2013-09-05T14:32:27Z</time>
      </trkpt>
      <trkpt lat="50.77552598901093" lon="15.034617036581039">
        <ele>346.69</ele>
        <time>2013-09-05T14:32:30Z</time>
      </trkpt>
      <trkpt lat="50.77548298984766" lon="15.034519974142313">
        <ele>346.20999999999998</ele>
        <time>2013-09-05T14:32:31Z</time>
      </trkpt>
      <trkpt lat="50.775450970977545" lon="15.034435987472534">
        <ele>346.20999999999998</ele>
        <time>2013-09-05T14:32:32Z</time>
      </trkpt>
      <trkpt lat="50.775418030098081" lon="15.034330040216446">
        <ele>346.20999999999998</ele>
        <time>2013-09-05T14:32:33Z</time>
      </trkpt>
      <trkpt lat="50.775388022884727" lon="15.034194001927972">
        <ele>346.20999999999998</ele>
        <time>2013-09-05T14:32:34Z</time>
      </trkpt>
      <trkpt lat="50.775141008198261" lon="15.032604038715363">
        <ele>347.64999999999998</ele>
        <time>2013-09-05T14:32:44Z</time>
      </trkpt>
      <trkpt lat="50.77473096549511" lon="15.03060202114284">
        <ele>357.75</ele>
        <time>2013-09-05T14:32:56Z</time>
      </trkpt>
      <trkpt lat="50.774357970803976" lon="15.029713036492467">
        <ele>362.55000000000001</ele>
        <time>2013-09-05T14:33:05Z</time>
      </trkpt>
      <trkpt lat="50.774155966937542" lon="15.029295030981302">
        <ele>365.92000000000002</ele>
        <time>2013-09-05T14:33:14Z</time>
      </trkpt>
      <trkpt lat="50.774138029664755" lon="15.029223030433059">
        <ele>365.92000000000002</ele>
        <time>2013-09-05T14:33:15Z</time>
      </trkpt>
      <trkpt lat="50.774141969159245" lon="15.029144994914532">
        <ele>365.92000000000002</ele>
        <time>2013-09-05T14:33:16Z</time>
      </trkpt>
      <trkpt lat="50.774153033271432" lon="15.028937961906195">
        <ele>365.92000000000002</ele>
        <time>2013-09-05T14:33:18Z</time>
      </trkpt>
      <trkpt lat="50.774134006351233" lon="15.0288409832865">
        <ele>365.92000000000002</ele>
        <time>2013-09-05T14:33:19Z</time>
      </trkpt>
      <trkpt lat="50.77408698387444" lon="15.028758002445102">
        <ele>365.92000000000002</ele>
        <time>2013-09-05T14:33:20Z</time>
      </trkpt>
      <trkpt lat="50.774025963619351" lon="15.028701005503535">
        <ele>366.39999999999998</ele>
        <time>2013-09-05T14:33:21Z</time>
      </trkpt>
      <trkpt lat="50.773954968899488" lon="15.028662029653788">
        <ele>366.88</ele>
        <time>2013-09-05T14:33:22Z</time>
      </trkpt>
      <trkpt lat="50.773823037743568" lon="15.028516016900539">
        <ele>367.83999999999997</ele>
        <time>2013-09-05T14:33:24Z</time>
      </trkpt>
      <trkpt lat="50.773770986124873" lon="15.028403028845787">
        <ele>368.80000000000001</ele>
        <time>2013-09-05T14:33:25Z</time>
      </trkpt>
      <trkpt lat="50.773425986990333" lon="15.027369959279895">
        <ele>375.05000000000001</ele>
        <time>2013-09-05T14:33:34Z</time>
      </trkpt>
      <trkpt lat="50.773280980065465" lon="15.026095993816853">
        <ele>377.44999999999999</ele>
        <time>2013-09-05T14:33:44Z</time>
      </trkpt>
      <trkpt lat="50.773299001157284" lon="15.02591603435576">
        <ele>377.94</ele>
        <time>2013-09-05T14:33:47Z</time>
      </trkpt>
      <trkpt lat="50.773337977007031" lon="15.025644963607192">
        <ele>377.44999999999999</ele>
        <time>2013-09-05T14:33:50Z</time>
      </trkpt>
      <trkpt lat="50.773314004763961" lon="15.025549996644258">
        <ele>377.94</ele>
        <time>2013-09-05T14:33:51Z</time>
      </trkpt>
      <trkpt lat="50.77326999977231" lon="15.025457041338086">
        <ele>378.42000000000002</ele>
        <time>2013-09-05T14:33:52Z</time>
      </trkpt>
      <trkpt lat="50.773228006437421" lon="15.025357967242599">
        <ele>378.42000000000002</ele>
        <time>2013-09-05T14:33:53Z</time>
      </trkpt>
      <trkpt lat="50.77320403419435" lon="15.025232993066311">
        <ele>378.42000000000002</ele>
        <time>2013-09-05T14:33:54Z</time>
      </trkpt>
      <trkpt lat="50.773189030587673" lon="15.025100978091359">
        <ele>378.89999999999998</ele>
        <time>2013-09-05T14:33:55Z</time>
      </trkpt>
      <trkpt lat="50.773177966475487" lon="15.024955971166492">
        <ele>379.38</ele>
        <time>2013-09-05T14:33:56Z</time>
      </trkpt>
      <trkpt lat="50.773137984797359" lon="15.024442998692393">
        <ele>379.86000000000001</ele>
        <time>2013-09-05T14:33:59Z</time>
      </trkpt>
      <trkpt lat="50.773145025596023" lon="15.024254992604256">
        <ele>379.86000000000001</ele>
        <time>2013-09-05T14:34:00Z</time>
      </trkpt>
      <trkpt lat="50.773165980353951" lon="15.024067992344499">
        <ele>380.33999999999997</ele>
        <time>2013-09-05T14:34:01Z</time>
      </trkpt>
      <trkpt lat="50.77320696786046" lon="15.023886021226645">
        <ele>380.33999999999997</ele>
        <time>2013-09-05T14:34:02Z</time>
      </trkpt>
      <trkpt lat="50.773262958973646" lon="15.023707989603281">
        <ele>380.33999999999997</ele>
        <time>2013-09-05T14:34:03Z</time>
      </trkpt>
      <trkpt lat="50.773334037512541" lon="15.023538004606962">
        <ele>380.33999999999997</ele>
        <time>2013-09-05T14:34:04Z</time>
      </trkpt>
      <trkpt lat="50.773416012525558" lon="15.023370031267405">
        <ele>380.33999999999997</ele>
        <time>2013-09-05T14:34:05Z</time>
      </trkpt>
      <trkpt lat="50.773506034165621" lon="15.023204991593957">
        <ele>380.33999999999997</ele>
        <time>2013-09-05T14:34:06Z</time>
      </trkpt>
      <trkpt lat="50.774116991087794" lon="15.022100005298853">
        <ele>379.38</ele>
        <time>2013-09-05T14:34:14Z</time>
      </trkpt>
      <trkpt lat="50.774119002744555" lon="15.021992968395352">
        <ele>378.89999999999998</ele>
        <time>2013-09-05T14:34:15Z</time>
      </trkpt>
      <trkpt lat="50.774090001359582" lon="15.021895989775658">
        <ele>378.89999999999998</ele>
        <time>2013-09-05T14:34:16Z</time>
      </trkpt>
      <trkpt lat="50.774045996367931" lon="15.021810997277498">
        <ele>379.38</ele>
        <time>2013-09-05T14:34:17Z</time>
      </trkpt>
      <trkpt lat="50.773991011083126" lon="15.021729022264481">
        <ele>379.38</ele>
        <time>2013-09-05T14:34:18Z</time>
      </trkpt>
      <trkpt lat="50.773359015583992" lon="15.020758984610438">
        <ele>380.33999999999997</ele>
        <time>2013-09-05T14:34:28Z</time>
      </trkpt>
      <trkpt lat="50.772673962637782" lon="15.01970998942852">
        <ele>382.74000000000001</ele>
        <time>2013-09-05T14:34:39Z</time>
      </trkpt>
      <trkpt lat="50.772598022595048" lon="15.019584009423852">
        <ele>382.74000000000001</ele>
        <time>2013-09-05T14:34:40Z</time>
      </trkpt>
      <trkpt lat="50.771950017660856" lon="15.018568960949779">
        <ele>382.25999999999999</ele>
        <time>2013-09-05T14:34:49Z</time>
      </trkpt>
      <trkpt lat="50.771212996914983" lon="15.017357021570206">
        <ele>379.38</ele>
        <time>2013-09-05T14:34:55Z</time>
      </trkpt>
      <trkpt lat="50.770749980583787" lon="15.01650801859796">
        <ele>379.38</ele>
        <time>2013-09-05T14:35:00Z</time>
      </trkpt>
      <trkpt lat="50.77069298364222" lon="15.016353037208319">
        <ele>378.89999999999998</ele>
        <time>2013-09-05T14:35:01Z</time>
      </trkpt>
      <trkpt lat="50.770642021670938" lon="15.016184980049729">
        <ele>378.42000000000002</ele>
        <time>2013-09-05T14:35:02Z</time>
      </trkpt>
      <trkpt lat="50.770373968407512" lon="15.015374030917883">
        <ele>376.97000000000003</ele>
        <time>2013-09-05T14:35:07Z</time>
      </trkpt>
      <trkpt lat="50.770298028364778" lon="15.015237992629409">
        <ele>378.42000000000002</ele>
        <time>2013-09-05T14:35:08Z</time>
      </trkpt>
      <trkpt lat="50.769927967339754" lon="15.014711022377014">
        <ele>378.89999999999998</ele>
        <time>2013-09-05T14:35:12Z</time>
      </trkpt>
      <trkpt lat="50.769815985113382" lon="15.014608008787036">
        <ele>379.38</ele>
        <time>2013-09-05T14:35:13Z</time>
      </trkpt>
      <trkpt lat="50.76839298941195" lon="15.013643000274897">
        <ele>385.14999999999998</ele>
        <time>2013-09-05T14:35:25Z</time>
      </trkpt>
      <trkpt lat="50.76828402467072" lon="15.013546021655202">
        <ele>385.14999999999998</ele>
        <time>2013-09-05T14:35:26Z</time>
      </trkpt>
      <trkpt lat="50.768190985545516" lon="15.013430016115308">
        <ele>385.63</ele>
        <time>2013-09-05T14:35:27Z</time>
      </trkpt>
      <trkpt lat="50.768131976947188" lon="15.013288026675582">
        <ele>385.63</ele>
        <time>2013-09-05T14:35:28Z</time>
      </trkpt>
      <trkpt lat="50.768099036067724" lon="15.013131033629179">
        <ele>385.14999999999998</ele>
        <time>2013-09-05T14:35:29Z</time>
      </trkpt>
      <trkpt lat="50.768075985834002" lon="15.012978985905647">
        <ele>385.14999999999998</ele>
        <time>2013-09-05T14:35:30Z</time>
      </trkpt>
      <trkpt lat="50.768061988055706" lon="15.012830039486289">
        <ele>385.14999999999998</ele>
        <time>2013-09-05T14:35:31Z</time>
      </trkpt>
      <trkpt lat="50.768022006377578" lon="15.012422008439898">
        <ele>386.58999999999997</ele>
        <time>2013-09-05T14:35:35Z</time>
      </trkpt>
      <trkpt lat="50.76798596419394" lon="15.012358976528049">
        <ele>387.06999999999999</ele>
        <time>2013-09-05T14:35:36Z</time>
      </trkpt>
      <trkpt lat="50.767921004444361" lon="15.012312959879637">
        <ele>387.55000000000001</ele>
        <time>2013-09-05T14:35:37Z</time>
      </trkpt>
      <trkpt lat="50.767084993422031" lon="15.011792024597526">
        <ele>392.83999999999997</ele>
        <time>2013-09-05T14:35:45Z</time>
      </trkpt>
      <trkpt lat="50.765443984419107" lon="15.010890970006585">
        <ele>398.60000000000002</ele>
        <time>2013-09-05T14:35:58Z</time>
      </trkpt>
      <trkpt lat="50.765335019677877" lon="15.010778987780213">
        <ele>398.60000000000002</ele>
        <time>2013-09-05T14:35:59Z</time>
      </trkpt>
      <trkpt lat="50.76506202109158" lon="15.010483022779226">
        <ele>400.05000000000001</ele>
        <time>2013-09-05T14:36:02Z</time>
      </trkpt>
      <trkpt lat="50.764974011108279" lon="15.010441029444337">
        <ele>400.05000000000001</ele>
        <time>2013-09-05T14:36:03Z</time>
      </trkpt>
      <trkpt lat="50.764882983639836" lon="15.01044899225235">
        <ele>400.05000000000001</ele>
        <time>2013-09-05T14:36:04Z</time>
      </trkpt>
      <trkpt lat="50.764801008626819" lon="15.010509006679058">
        <ele>400.52999999999997</ele>
        <time>2013-09-05T14:36:05Z</time>
      </trkpt>
      <trkpt lat="50.76472096145153" lon="15.010601039975882">
        <ele>400.52999999999997</ele>
        <time>2013-09-05T14:36:06Z</time>
      </trkpt>
      <trkpt lat="50.7646310236305" lon="15.010704975575209">
        <ele>400.52999999999997</ele>
        <time>2013-09-05T14:36:07Z</time>
      </trkpt>
      <trkpt lat="50.763726029545069" lon="15.011785989627242">
        <ele>407.25999999999999</ele>
        <time>2013-09-05T14:36:16Z</time>
      </trkpt>
      <trkpt lat="50.763668026775122" lon="15.011965027078986">
        <ele>407.74000000000001</ele>
        <time>2013-09-05T14:36:17Z</time>
      </trkpt>
      <trkpt lat="50.763629972934723" lon="15.012150015681982">
        <ele>408.22000000000003</ele>
        <time>2013-09-05T14:36:18Z</time>
      </trkpt>
      <trkpt lat="50.763609018176794" lon="15.012351013720036">
        <ele>409.66000000000003</ele>
        <time>2013-09-05T14:36:19Z</time>
      </trkpt>
      <trkpt lat="50.763595020398498" lon="15.012556035071611">
        <ele>410.13999999999999</ele>
        <time>2013-09-05T14:36:20Z</time>
      </trkpt>
      <trkpt lat="50.763414977118373" lon="15.014599040150642">
        <ele>411.10000000000002</ele>
        <time>2013-09-05T14:36:30Z</time>
      </trkpt>
      <trkpt lat="50.763138039037585" lon="15.016914959996939">
        <ele>410.13999999999999</ele>
        <time>2013-09-05T14:36:42Z</time>
      </trkpt>
      <trkpt lat="50.763081964105368" lon="15.017014034092426">
        <ele>410.13999999999999</ele>
        <time>2013-09-05T14:36:43Z</time>
      </trkpt>
      <trkpt lat="50.763009963557124" lon="15.017060972750187">
        <ele>410.62</ele>
        <time>2013-09-05T14:36:44Z</time>
      </trkpt>
      <trkpt lat="50.76293402351439" lon="15.017072958871722">
        <ele>410.62</ele>
        <time>2013-09-05T14:36:45Z</time>
      </trkpt>
      <trkpt lat="50.762864034622908" lon="15.017082011327147">
        <ele>410.13999999999999</ele>
        <time>2013-09-05T14:36:46Z</time>
      </trkpt>
      <trkpt lat="50.762797985225916" lon="15.017116963863373">
        <ele>410.13999999999999</ele>
        <time>2013-09-05T14:36:47Z</time>
      </trkpt>
      <trkpt lat="50.762745011597872" lon="15.017197011038661">
        <ele>408.69999999999999</ele>
        <time>2013-09-05T14:36:48Z</time>
      </trkpt>
      <trkpt lat="50.762716010212898" lon="15.017313016578555">
        <ele>408.69999999999999</ele>
        <time>2013-09-05T14:36:49Z</time>
      </trkpt>
      <trkpt lat="50.762703018262982" lon="15.017456011846662">
        <ele>408.69999999999999</ele>
        <time>2013-09-05T14:36:50Z</time>
      </trkpt>
      <trkpt lat="50.762692959979177" lon="15.017620967701077">
        <ele>408.69999999999999</ele>
        <time>2013-09-05T14:36:51Z</time>
      </trkpt>
      <trkpt lat="50.762476036325097" lon="15.019499016925693">
        <ele>406.76999999999998</ele>
        <time>2013-09-05T14:37:00Z</time>
      </trkpt>
      <trkpt lat="50.762417027726769" lon="15.019717030227184">
        <ele>406.76999999999998</ele>
        <time>2013-09-05T14:37:01Z</time>
      </trkpt>
      <trkpt lat="50.762347038835287" lon="15.019920961931348">
        <ele>406.29000000000002</ele>
        <time>2013-09-05T14:37:02Z</time>
      </trkpt>
      <trkpt lat="50.762271014973521" lon="15.020110979676247">
        <ele>405.81</ele>
        <time>2013-09-05T14:37:03Z</time>
      </trkpt>
      <trkpt lat="50.761906988918781" lon="15.020767031237483">
        <ele>405.32999999999998</ele>
        <time>2013-09-05T14:37:08Z</time>
      </trkpt>
      <trkpt lat="50.761829959228635" lon="15.020851017907262">
        <ele>405.32999999999998</ele>
        <time>2013-09-05T14:37:09Z</time>
      </trkpt>
      <trkpt lat="50.761740021407604" lon="15.020928969606757">
        <ele>405.81</ele>
        <time>2013-09-05T14:37:10Z</time>
      </trkpt>
      <trkpt lat="50.761642958968878" lon="15.02099996432662">
        <ele>405.32999999999998</ele>
        <time>2013-09-05T14:37:11Z</time>
      </trkpt>
      <trkpt lat="50.76153701171279" lon="15.021069031208754">
        <ele>405.32999999999998</ele>
        <time>2013-09-05T14:37:12Z</time>
      </trkpt>
      <trkpt lat="50.760352984070778" lon="15.021529030054808">
        <ele>401.97000000000003</ele>
        <time>2013-09-05T14:37:21Z</time>
      </trkpt>
      <trkpt lat="50.759081030264497" lon="15.021921973675489">
        <ele>396.19999999999999</ele>
        <time>2013-09-05T14:37:31Z</time>
      </trkpt>
      <trkpt lat="50.758973993360996" lon="15.021975031122565">
        <ele>395.24000000000001</ele>
        <time>2013-09-05T14:37:32Z</time>
      </trkpt>
      <trkpt lat="50.758886989206076" lon="15.022054994478822">
        <ele>394.27999999999997</ele>
        <time>2013-09-05T14:37:33Z</time>
      </trkpt>
      <trkpt lat="50.758833009749651" lon="15.022174017503858">
        <ele>393.80000000000001</ele>
        <time>2013-09-05T14:37:34Z</time>
      </trkpt>
      <trkpt lat="50.758813982829452" lon="15.022312989458442">
        <ele>392.83999999999997</ele>
        <time>2013-09-05T14:37:35Z</time>
      </trkpt>
      <trkpt lat="50.758826974779367" lon="15.022451039403677">
        <ele>392.36000000000001</ele>
        <time>2013-09-05T14:37:36Z</time>
      </trkpt>
      <trkpt lat="50.758878020569682" lon="15.022568972781301">
        <ele>392.36000000000001</ele>
        <time>2013-09-05T14:37:37Z</time>
      </trkpt>
      <trkpt lat="50.758944991976023" lon="15.022660000249743">
        <ele>392.36000000000001</ele>
        <time>2013-09-05T14:37:38Z</time>
      </trkpt>
      <trkpt lat="50.75902403332293" lon="15.022752033546567">
        <ele>392.36000000000001</ele>
        <time>2013-09-05T14:37:39Z</time>
      </trkpt>
      <trkpt lat="50.759159987792373" lon="15.022983960807323">
        <ele>391.87</ele>
        <time>2013-09-05T14:37:41Z</time>
      </trkpt>
      <trkpt lat="50.759204998612404" lon="15.023133996874094">
        <ele>390.91000000000003</ele>
        <time>2013-09-05T14:37:42Z</time>
      </trkpt>
      <trkpt lat="50.75924196280539" lon="15.023300964385271">
        <ele>390.43000000000001</ele>
        <time>2013-09-05T14:37:43Z</time>
      </trkpt>
      <trkpt lat="50.759421000257134" lon="15.024464037269354">
        <ele>387.55000000000001</ele>
        <time>2013-09-05T14:37:50Z</time>
      </trkpt>
      <trkpt lat="50.759356040507555" lon="15.026449961587787">
        <ele>380.81999999999999</ele>
        <time>2013-09-05T14:38:02Z</time>
      </trkpt>
      <trkpt lat="50.759370038285851" lon="15.026608966290951">
        <ele>379.38</ele>
        <time>2013-09-05T14:38:03Z</time>
      </trkpt>
      <trkpt lat="50.759482020512223" lon="15.028008995577693">
        <ele>376.49000000000001</ele>
        <time>2013-09-05T14:38:14Z</time>
      </trkpt>
      <trkpt lat="50.759451007470489" lon="15.028308983892202">
        <ele>376.00999999999999</ele>
        <time>2013-09-05T14:38:17Z</time>
      </trkpt>
      <trkpt lat="50.759414965286851" lon="15.028384001925588">
        <ele>375.52999999999997</ele>
        <time>2013-09-05T14:38:18Z</time>
      </trkpt>
      <trkpt lat="50.759372971951962" lon="15.028437981382012">
        <ele>375.05000000000001</ele>
        <time>2013-09-05T14:38:19Z</time>
      </trkpt>
      <trkpt lat="50.759319998323917" lon="15.028462959453464">
        <ele>374.56999999999999</ele>
        <time>2013-09-05T14:38:20Z</time>
      </trkpt>
      <trkpt lat="50.75926098972559" lon="15.028485003858805">
        <ele>374.56999999999999</ele>
        <time>2013-09-05T14:38:21Z</time>
      </trkpt>
      <trkpt lat="50.759119000285864" lon="15.028524985536933">
        <ele>374.08999999999997</ele>
        <time>2013-09-05T14:38:23Z</time>
      </trkpt>
      <trkpt lat="50.758883971720934" lon="15.02860302105546">
        <ele>373.13</ele>
        <time>2013-09-05T14:38:26Z</time>
      </trkpt>
      <trkpt lat="50.757708996534348" lon="15.029091015458107">
        <ele>378.89999999999998</ele>
        <time>2013-09-05T14:38:39Z</time>
      </trkpt>
      <trkpt lat="50.756900981068611" lon="15.029621003195643">
        <ele>382.25999999999999</ele>
        <time>2013-09-05T14:38:51Z</time>
      </trkpt>
      <trkpt lat="50.756653966382146" lon="15.029804985970259">
        <ele>383.69999999999999</ele>
        <time>2013-09-05T14:38:55Z</time>
      </trkpt>
      <trkpt lat="50.756592024117708" lon="15.0298270303756">
        <ele>383.69999999999999</ele>
        <time>2013-09-05T14:38:56Z</time>
      </trkpt>
      <trkpt lat="50.756525974720716" lon="15.02983096987009">
        <ele>384.18000000000001</ele>
        <time>2013-09-05T14:38:57Z</time>
      </trkpt>
      <trkpt lat="50.756455985829234" lon="15.029812026768923">
        <ele>384.18000000000001</ele>
        <time>2013-09-05T14:38:58Z</time>
      </trkpt>
      <trkpt lat="50.756385996937752" lon="15.02976399846375">
        <ele>384.18000000000001</ele>
        <time>2013-09-05T14:38:59Z</time>
      </trkpt>
      <trkpt lat="50.75631701387465" lon="15.029662996530533">
        <ele>384.66000000000003</ele>
        <time>2013-09-05T14:39:00Z</time>
      </trkpt>
      <trkpt lat="50.756256999447942" lon="15.0295490026474">
        <ele>385.14999999999998</ele>
        <time>2013-09-05T14:39:01Z</time>
      </trkpt>
      <trkpt lat="50.756195979192853" lon="15.029435008764267">
        <ele>385.14999999999998</ele>
        <time>2013-09-05T14:39:02Z</time>
      </trkpt>
      <trkpt lat="50.75612498447299" lon="15.029321014881134">
        <ele>385.14999999999998</ele>
        <time>2013-09-05T14:39:03Z</time>
      </trkpt>
      <trkpt lat="50.756036974489689" lon="15.029224036261439">
        <ele>385.14999999999998</ele>
        <time>2013-09-05T14:39:04Z</time>
      </trkpt>
      <trkpt lat="50.755942007526755" lon="15.029138959944248">
        <ele>385.14999999999998</ele>
        <time>2013-09-05T14:39:05Z</time>
      </trkpt>
      <trkpt lat="50.755841005593538" lon="15.029063019901514">
        <ele>384.66000000000003</ele>
        <time>2013-09-05T14:39:06Z</time>
      </trkpt>
      <trkpt lat="50.755557026714087" lon="15.028873002156615">
        <ele>384.18000000000001</ele>
        <time>2013-09-05T14:39:09Z</time>
      </trkpt>
      <trkpt lat="50.755456024780869" lon="15.028838971629739">
        <ele>384.66000000000003</ele>
        <time>2013-09-05T14:39:10Z</time>
      </trkpt>
      <trkpt lat="50.755357034504414" lon="15.0288409832865">
        <ele>384.18000000000001</ele>
        <time>2013-09-05T14:39:11Z</time>
      </trkpt>
      <trkpt lat="50.755257038399577" lon="15.028851041570306">
        <ele>384.18000000000001</ele>
        <time>2013-09-05T14:39:12Z</time>
      </trkpt>
      <trkpt lat="50.755169028416276" lon="15.028880964964628">
        <ele>384.18000000000001</ele>
        <time>2013-09-05T14:39:13Z</time>
      </trkpt>
      <trkpt lat="50.755083030089736" lon="15.028923964127898">
        <ele>384.66000000000003</ele>
        <time>2013-09-05T14:39:14Z</time>
      </trkpt>
      <trkpt lat="50.753935966640711" lon="15.029685040935874">
        <ele>396.19999999999999</ele>
        <time>2013-09-05T14:39:28Z</time>
      </trkpt>
      <trkpt lat="50.753019992262125" lon="15.030416026711464">
        <ele>399.56999999999999</ele>
        <time>2013-09-05T14:39:39Z</time>
      </trkpt>
      <trkpt lat="50.751692969352007" lon="15.03148396499455">
        <ele>411.10000000000002</ele>
        <time>2013-09-05T14:39:54Z</time>
      </trkpt>
      <trkpt lat="50.750890988856554" lon="15.032129036262631">
        <ele>415.91000000000003</ele>
        <time>2013-09-05T14:40:03Z</time>
      </trkpt>
      <trkpt lat="50.75081798247993" lon="15.032138004899025">
        <ele>415.91000000000003</ele>
        <time>2013-09-05T14:40:04Z</time>
      </trkpt>
      <trkpt lat="50.750759979709983" lon="15.032082013785839">
        <ele>415.91000000000003</ele>
        <time>2013-09-05T14:40:05Z</time>
      </trkpt>
      <trkpt lat="50.750713041052222" lon="15.031987968832254">
        <ele>416.87</ele>
        <time>2013-09-05T14:40:06Z</time>
      </trkpt>
      <trkpt lat="50.750679010525346" lon="15.03184899687767">
        <ele>416.87</ele>
        <time>2013-09-05T14:40:07Z</time>
      </trkpt>
      <trkpt lat="50.750646991655231" lon="15.031710024923086">
        <ele>416.38999999999999</ele>
        <time>2013-09-05T14:40:08Z</time>
      </trkpt>
      <trkpt lat="50.750543978065252" lon="15.031422022730112">
        <ele>416.38999999999999</ele>
        <time>2013-09-05T14:40:10Z</time>
      </trkpt>
      <trkpt lat="50.750478012487292" lon="15.031292019411922">
        <ele>416.38999999999999</ele>
        <time>2013-09-05T14:40:11Z</time>
      </trkpt>
      <trkpt lat="50.750394025817513" lon="15.031169978901744">
        <ele>417.82999999999998</ele>
        <time>2013-09-05T14:40:12Z</time>
      </trkpt>
      <trkpt lat="50.750297969207168" lon="15.031066965311766">
        <ele>418.79000000000002</ele>
        <time>2013-09-05T14:40:13Z</time>
      </trkpt>
      <trkpt lat="50.750190010294318" lon="15.030985996127129">
        <ele>419.26999999999998</ele>
        <time>2013-09-05T14:40:14Z</time>
      </trkpt>
      <trkpt lat="50.750072998926044" lon="15.030931010842323">
        <ele>419.26999999999998</ele>
        <time>2013-09-05T14:40:15Z</time>
      </trkpt>
      <trkpt lat="50.749950958415866" lon="15.030888011679053">
        <ele>419.75</ele>
        <time>2013-09-05T14:40:16Z</time>
      </trkpt>
      <trkpt lat="50.749508980661631" lon="15.030705034732819">
        <ele>421.19</ele>
        <time>2013-09-05T14:40:20Z</time>
      </trkpt>
      <trkpt lat="50.749417031183839" lon="15.030636973679066">
        <ele>421.19</ele>
        <time>2013-09-05T14:40:21Z</time>
      </trkpt>
      <trkpt lat="50.749343018978834" lon="15.030535971745849">
        <ele>421.19</ele>
        <time>2013-09-05T14:40:22Z</time>
      </trkpt>
      <trkpt lat="50.749280992895365" lon="15.03040999174118">
        <ele>421.19</ele>
        <time>2013-09-05T14:40:23Z</time>
      </trkpt>
      <trkpt lat="50.749221984297037" lon="15.030251992866397">
        <ele>421.19</ele>
        <time>2013-09-05T14:40:24Z</time>
      </trkpt>
      <trkpt lat="50.749164987355471" lon="15.030092988163233">
        <ele>422.16000000000003</ele>
        <time>2013-09-05T14:40:25Z</time>
      </trkpt>
      <trkpt lat="50.748701971024275" lon="15.028717014938593">
        <ele>426</ele>
        <time>2013-09-05T14:40:33Z</time>
      </trkpt>
      <trkpt lat="50.748622007668018" lon="15.028565973043442">
        <ele>426.48000000000002</ele>
        <time>2013-09-05T14:40:34Z</time>
      </trkpt>
      <trkpt lat="50.748533997684717" lon="15.02843102440238">
        <ele>427.44</ele>
        <time>2013-09-05T14:40:35Z</time>
      </trkpt>
      <trkpt lat="50.748439030721784" lon="15.028321975842118">
        <ele>427.92000000000002</ele>
        <time>2013-09-05T14:40:36Z</time>
      </trkpt>
      <trkpt lat="50.748332999646664" lon="15.028235977515578">
        <ele>428.39999999999998</ele>
        <time>2013-09-05T14:40:37Z</time>
      </trkpt>
      <trkpt lat="50.748219005763531" lon="15.028175041079521">
        <ele>428.88999999999999</ele>
        <time>2013-09-05T14:40:38Z</time>
      </trkpt>
      <trkpt lat="50.748103000223637" lon="15.028122989460826">
        <ele>429.37</ele>
        <time>2013-09-05T14:40:39Z</time>
      </trkpt>
      <trkpt lat="50.74664899148047" lon="15.027445983141661">
        <ele>435.61000000000001</ele>
        <time>2013-09-05T14:40:51Z</time>
      </trkpt>
      <trkpt lat="50.745324986055493" lon="15.026401011273265">
        <ele>440.42000000000002</ele>
        <time>2013-09-05T14:41:02Z</time>
      </trkpt>
      <trkpt lat="50.743764024227858" lon="15.025167027488351">
        <ele>445.23000000000002</ele>
        <time>2013-09-05T14:41:15Z</time>
      </trkpt>
      <trkpt lat="50.74366201646626" lon="15.025068959221244">
        <ele>445.70999999999998</ele>
        <time>2013-09-05T14:41:16Z</time>
      </trkpt>
      <trkpt lat="50.743575012311339" lon="15.024927975609899">
        <ele>444.75</ele>
        <time>2013-09-05T14:41:17Z</time>
      </trkpt>
      <trkpt lat="50.743506029248238" lon="15.024760002270341">
        <ele>445.23000000000002</ele>
        <time>2013-09-05T14:41:18Z</time>
      </trkpt>
      <trkpt lat="50.743450960144401" lon="15.024575013667345">
        <ele>446.67000000000002</ele>
        <time>2013-09-05T14:41:19Z</time>
      </trkpt>
      <trkpt lat="50.743405027315021" lon="15.024383990094066">
        <ele>447.63</ele>
        <time>2013-09-05T14:41:20Z</time>
      </trkpt>
      <trkpt lat="50.74263003654778" lon="15.021819965913892">
        <ele>459.17000000000002</ele>
        <time>2013-09-05T14:41:34Z</time>
      </trkpt>
      <trkpt lat="50.742488969117403" lon="15.021511008962989">
        <ele>460.61000000000001</ele>
        <time>2013-09-05T14:41:36Z</time>
      </trkpt>
      <trkpt lat="50.742403976619244" lon="15.021400032564998">
        <ele>461.56999999999999</ele>
        <time>2013-09-05T14:41:37Z</time>
      </trkpt>
      <trkpt lat="50.742300041019917" lon="15.021330965682864">
        <ele>462.52999999999997</ele>
        <time>2013-09-05T14:41:38Z</time>
      </trkpt>
      <trkpt lat="50.742184035480022" lon="15.021295007318258">
        <ele>462.52999999999997</ele>
        <time>2013-09-05T14:41:39Z</time>
      </trkpt>
      <trkpt lat="50.742066018283367" lon="15.021272962912917">
        <ele>463.00999999999999</ele>
        <time>2013-09-05T14:41:40Z</time>
      </trkpt>
      <trkpt lat="50.741940038278699" lon="15.021256031468511">
        <ele>463.00999999999999</ele>
        <time>2013-09-05T14:41:41Z</time>
      </trkpt>
      <trkpt lat="50.741202011704445" lon="15.020984038710594">
        <ele>465.42000000000002</ele>
        <time>2013-09-05T14:41:47Z</time>
      </trkpt>
      <trkpt lat="50.741100003942847" lon="15.020894017070532">
        <ele>464.93000000000001</ele>
        <time>2013-09-05T14:41:48Z</time>
      </trkpt>
      <trkpt lat="50.741003025323153" lon="15.020789997652173">
        <ele>465.89999999999998</ele>
        <time>2013-09-05T14:41:49Z</time>
      </trkpt>
      <trkpt lat="50.740221999585629" lon="15.019802022725344">
        <ele>474.55000000000001</ele>
        <time>2013-09-05T14:41:57Z</time>
      </trkpt>
      <trkpt lat="50.740064000710845" lon="15.019505973905325">
        <ele>476.47000000000003</ele>
        <time>2013-09-05T14:41:59Z</time>
      </trkpt>
      <trkpt lat="50.739714978262782" lon="15.01846200786531">
        <ele>481.75999999999999</ele>
        <time>2013-09-05T14:42:05Z</time>
      </trkpt>
      <trkpt lat="50.739686982706189" lon="15.018281964585185">
        <ele>482.72000000000003</ele>
        <time>2013-09-05T14:42:06Z</time>
      </trkpt>
      <trkpt lat="50.739685976877809" lon="15.018104016780853">
        <ele>483.19999999999999</ele>
        <time>2013-09-05T14:42:07Z</time>
      </trkpt>
      <trkpt lat="50.739705003798008" lon="15.017950963228941">
        <ele>484.16000000000003</ele>
        <time>2013-09-05T14:42:08Z</time>
      </trkpt>
      <trkpt lat="50.739725958555937" lon="15.017811991274357">
        <ele>483.68000000000001</ele>
        <time>2013-09-05T14:42:09Z</time>
      </trkpt>
      <trkpt lat="50.739729981869459" lon="15.017687017098069">
        <ele>484.16000000000003</ele>
        <time>2013-09-05T14:42:10Z</time>
      </trkpt>
      <trkpt lat="50.739712966606021" lon="15.017586015164852">
        <ele>484.16000000000003</ele>
        <time>2013-09-05T14:42:11Z</time>
      </trkpt>
      <trkpt lat="50.739671979099512" lon="15.017523989081383">
        <ele>484.16000000000003</ele>
        <time>2013-09-05T14:42:12Z</time>
      </trkpt>
      <trkpt lat="50.739615987986326" lon="15.017498005181551">
        <ele>484.63999999999999</ele>
        <time>2013-09-05T14:42:13Z</time>
      </trkpt>
      <trkpt lat="50.739555973559618" lon="15.017491970211267">
        <ele>484.63999999999999</ele>
        <time>2013-09-05T14:42:14Z</time>
      </trkpt>
      <trkpt lat="50.739412978291512" lon="15.017455006018281">
        <ele>486.07999999999998</ele>
        <time>2013-09-05T14:42:17Z</time>
      </trkpt>
      <trkpt lat="50.739371990785003" lon="15.017399014905095">
        <ele>486.56</ele>
        <time>2013-09-05T14:42:18Z</time>
      </trkpt>
      <trkpt lat="50.739340977743268" lon="15.017313016578555">
        <ele>487.05000000000001</ele>
        <time>2013-09-05T14:42:19Z</time>
      </trkpt>
      <trkpt lat="50.739170992746949" lon="15.01657297834754">
        <ele>490.41000000000003</ele>
        <time>2013-09-05T14:42:24Z</time>
      </trkpt>
      <trkpt lat="50.739148026332259" lon="15.016381032764912">
        <ele>491.85000000000002</ele>
        <time>2013-09-05T14:42:25Z</time>
      </trkpt>
      <trkpt lat="50.73900100775063" lon="15.015172027051449">
        <ele>497.62</ele>
        <time>2013-09-05T14:42:31Z</time>
      </trkpt>
      <trkpt lat="50.738647961989045" lon="15.013869982212782">
        <ele>503.38999999999999</ele>
        <time>2013-09-05T14:42:38Z</time>
      </trkpt>
      <trkpt lat="50.738318972289562" lon="15.012120008468628">
        <ele>511.56</ele>
        <time>2013-09-05T14:42:47Z</time>
      </trkpt>
      <trkpt lat="50.737930973991752" lon="15.011279974132776">
        <ele>516.37</ele>
        <time>2013-09-05T14:42:52Z</time>
      </trkpt>
      <trkpt lat="50.737879006192088" lon="15.011095991358161">
        <ele>517.33000000000004</ele>
        <time>2013-09-05T14:42:53Z</time>
      </trkpt>
      <trkpt lat="50.737847993150353" lon="15.010902034118772">
        <ele>518.28999999999996</ele>
        <time>2013-09-05T14:42:54Z</time>
      </trkpt>
      <trkpt lat="50.737833995372057" lon="15.010698018595576">
        <ele>519.25</ele>
        <time>2013-09-05T14:42:55Z</time>
      </trkpt>
      <trkpt lat="50.737823015078902" lon="15.01049199141562">
        <ele>520.21000000000004</ele>
        <time>2013-09-05T14:42:56Z</time>
      </trkpt>
      <trkpt lat="50.737803988158703" lon="15.009698979556561">
        <ele>523.09000000000003</ele>
        <time>2013-09-05T14:43:00Z</time>
      </trkpt>
      <trkpt lat="50.737843969836831" lon="15.009526982903481">
        <ele>523.58000000000004</ele>
        <time>2013-09-05T14:43:01Z</time>
      </trkpt>
      <trkpt lat="50.737903984263539" lon="15.009364960715175">
        <ele>523.58000000000004</ele>
        <time>2013-09-05T14:43:02Z</time>
      </trkpt>
      <trkpt lat="50.737985037267208" lon="15.009211990982294">
        <ele>524.05999999999995</ele>
        <time>2013-09-05T14:43:03Z</time>
      </trkpt>
      <trkpt lat="50.738063994795084" lon="15.009044017642736">
        <ele>525.01999999999998</ele>
        <time>2013-09-05T14:43:04Z</time>
      </trkpt>
      <trkpt lat="50.73811998590827" lon="15.008862968534231">
        <ele>525.01999999999998</ele>
        <time>2013-09-05T14:43:05Z</time>
      </trkpt>
      <trkpt lat="50.738154016435146" lon="15.008663982152939">
        <ele>526.94000000000005</ele>
        <time>2013-09-05T14:43:06Z</time>
      </trkpt>
      <trkpt lat="50.738157033920288" lon="15.008458038792014">
        <ele>527.89999999999998</ele>
        <time>2013-09-05T14:43:07Z</time>
      </trkpt>
      <trkpt lat="50.738143036141992" lon="15.008246982470155">
        <ele>528.86000000000001</ele>
        <time>2013-09-05T14:43:08Z</time>
      </trkpt>
      <trkpt lat="50.738075980916619" lon="15.00677696429193">
        <ele>535.59000000000003</ele>
        <time>2013-09-05T14:43:15Z</time>
      </trkpt>
      <trkpt lat="50.738027030602098" lon="15.006600022315979">
        <ele>536.07000000000005</ele>
        <time>2013-09-05T14:43:16Z</time>
      </trkpt>
      <trkpt lat="50.737951006740332" lon="15.006447974592447">
        <ele>537.02999999999997</ele>
        <time>2013-09-05T14:43:17Z</time>
      </trkpt>
      <trkpt lat="50.737854028120637" lon="15.006318977102637">
        <ele>537.99000000000001</ele>
        <time>2013-09-05T14:43:18Z</time>
      </trkpt>
      <trkpt lat="50.737750008702278" lon="15.006199032068253">
        <ele>538.96000000000004</ele>
        <time>2013-09-05T14:43:19Z</time>
      </trkpt>
      <trkpt lat="50.737424036487937" lon="15.005887979641557">
        <ele>541.84000000000003</ele>
        <time>2013-09-05T14:43:22Z</time>
      </trkpt>
      <trkpt lat="50.737309036776423" lon="15.005863001570106">
        <ele>542.79999999999995</ele>
        <time>2013-09-05T14:43:23Z</time>
      </trkpt>
      <trkpt lat="50.737205017358065" lon="15.00591304153204">
        <ele>542.32000000000005</ele>
        <time>2013-09-05T14:43:24Z</time>
      </trkpt>
      <trkpt lat="50.737124970182776" lon="15.00604597851634">
        <ele>542.79999999999995</ele>
        <time>2013-09-05T14:43:25Z</time>
      </trkpt>
      <trkpt lat="50.737062022089958" lon="15.006205989047885">
        <ele>543.75999999999999</ele>
        <time>2013-09-05T14:43:26Z</time>
      </trkpt>
      <trkpt lat="50.737018017098308" lon="15.006368011236191">
        <ele>544.72000000000003</ele>
        <time>2013-09-05T14:43:27Z</time>
      </trkpt>
      <trkpt lat="50.736969988793135" lon="15.006519975140691">
        <ele>545.20000000000005</ele>
        <time>2013-09-05T14:43:28Z</time>
      </trkpt>
      <trkpt lat="50.736902011558414" lon="15.006627012044191">
        <ele>546.16999999999996</ele>
        <time>2013-09-05T14:43:29Z</time>
      </trkpt>
      <trkpt lat="50.736810984089971" lon="15.006679985672235">
        <ele>546.64999999999998</ele>
        <time>2013-09-05T14:43:30Z</time>
      </trkpt>
      <trkpt lat="50.736732026562095" lon="15.006630029529333">
        <ele>547.61000000000001</ele>
        <time>2013-09-05T14:43:31Z</time>
      </trkpt>
      <trkpt lat="50.736662959679961" lon="15.006520980969071">
        <ele>548.09000000000003</ele>
        <time>2013-09-05T14:43:32Z</time>
      </trkpt>
      <trkpt lat="50.73661501519382" lon="15.006379997357726">
        <ele>549.04999999999995</ele>
        <time>2013-09-05T14:43:33Z</time>
      </trkpt>
      <trkpt lat="50.736588025465608" lon="15.006202971562743">
        <ele>549.52999999999997</ele>
        <time>2013-09-05T14:43:34Z</time>
      </trkpt>
      <trkpt lat="50.736570004373789" lon="15.006016977131367">
        <ele>550.00999999999999</ele>
        <time>2013-09-05T14:43:35Z</time>
      </trkpt>
      <trkpt lat="50.73655198328197" lon="15.005814973264933">
        <ele>550.97000000000003</ele>
        <time>2013-09-05T14:43:36Z</time>
      </trkpt>
      <trkpt lat="50.736305974423885" lon="15.00350802205503">
        <ele>563.47000000000003</ele>
        <time>2013-09-05T14:43:46Z</time>
      </trkpt>
      <trkpt lat="50.736043034121394" lon="15.001958040520549">
        <ele>569.72000000000003</ele>
        <time>2013-09-05T14:43:53Z</time>
      </trkpt>
      <trkpt lat="50.736045967787504" lon="15.001782020553946">
        <ele>570.67999999999995</ele>
        <time>2013-09-05T14:43:54Z</time>
      </trkpt>
      <trkpt lat="50.73609902523458" lon="15.001678001135588">
        <ele>571.15999999999997</ele>
        <time>2013-09-05T14:43:55Z</time>
      </trkpt>
      <trkpt lat="50.736167002469301" lon="15.001624021679163">
        <ele>572.12</ele>
        <time>2013-09-05T14:43:56Z</time>
      </trkpt>
      <trkpt lat="50.736264986917377" lon="15.001612035557628">
        <ele>573.55999999999995</ele>
        <time>2013-09-05T14:43:57Z</time>
      </trkpt>
      <trkpt lat="50.73637998662889" lon="15.001660985872149">
        <ele>574.03999999999996</ele>
        <time>2013-09-05T14:43:58Z</time>
      </trkpt>
      <trkpt lat="50.736504960805178" lon="15.001729968935251">
        <ele>575.00999999999999</ele>
        <time>2013-09-05T14:43:59Z</time>
      </trkpt>
      <trkpt lat="50.736673017963767" lon="15.001783026382327">
        <ele>575.97000000000003</ele>
        <time>2013-09-05T14:44:00Z</time>
      </trkpt>
      <trkpt lat="50.736838979646564" lon="15.001846980303526">
        <ele>576.45000000000005</ele>
        <time>2013-09-05T14:44:01Z</time>
      </trkpt>
      <trkpt lat="50.73829298838973" lon="15.002519963309169">
        <ele>584.13999999999999</ele>
        <time>2013-09-05T14:44:09Z</time>
      </trkpt>
      <trkpt lat="50.739428987726569" lon="15.003431998193264">
        <ele>590.87</ele>
        <time>2013-09-05T14:44:16Z</time>
      </trkpt>
      <trkpt lat="50.739597966894507" lon="15.003486983478069">
        <ele>592.30999999999995</ele>
        <time>2013-09-05T14:44:17Z</time>
      </trkpt>
      <trkpt lat="50.739771975204349" lon="15.00348899513483">
        <ele>593.75</ele>
        <time>2013-09-05T14:44:18Z</time>
      </trkpt>
      <trkpt lat="50.739928968250751" lon="15.003468040376902">
        <ele>594.71000000000004</ele>
        <time>2013-09-05T14:44:19Z</time>
      </trkpt>
      <trkpt lat="50.74009501375258" lon="15.003396961838007">
        <ele>595.66999999999996</ele>
        <time>2013-09-05T14:44:20Z</time>
      </trkpt>
      <trkpt lat="50.740828011184931" lon="15.002903016284108">
        <ele>607.21000000000004</ele>
        <time>2013-09-05T14:44:25Z</time>
      </trkpt>
      <trkpt lat="50.740942005068064" lon="15.002724984660745">
        <ele>608.16999999999996</ele>
        <time>2013-09-05T14:44:26Z</time>
      </trkpt>
      <trkpt lat="50.741609958931804" lon="15.001465016975999">
        <ele>615.86000000000001</ele>
        <time>2013-09-05T14:44:32Z</time>
      </trkpt>
      <trkpt lat="50.741761000826955" lon="15.001324033364654">
        <ele>616.82000000000005</ele>
        <time>2013-09-05T14:44:33Z</time>
      </trkpt>
      <trkpt lat="50.74192201718688" lon="15.001225965097547">
        <ele>617.77999999999997</ele>
        <time>2013-09-05T14:44:34Z</time>
      </trkpt>
      <trkpt lat="50.74252400547266" lon="15.000894041731954">
        <ele>621.63</ele>
        <time>2013-09-05T14:44:38Z</time>
      </trkpt>
      <trkpt lat="50.742630958557129" lon="15.000773007050157">
        <ele>622.11000000000001</ele>
        <time>2013-09-05T14:44:39Z</time>
      </trkpt>
      <trkpt lat="50.742715029045939" lon="15.000616014003754">
        <ele>622.59000000000003</ele>
        <time>2013-09-05T14:44:40Z</time>
      </trkpt>
      <trkpt lat="50.742768002673984" lon="15.000434964895248">
        <ele>623.54999999999995</ele>
        <time>2013-09-05T14:44:41Z</time>
      </trkpt>
      <trkpt lat="50.742785017937422" lon="15.00024301931262">
        <ele>624.50999999999999</ele>
        <time>2013-09-05T14:44:42Z</time>
      </trkpt>
      <trkpt lat="50.742783006280661" lon="15.000037997961044">
        <ele>624.99000000000001</ele>
        <time>2013-09-05T14:44:43Z</time>
      </trkpt>
      <trkpt lat="50.742794992402196" lon="14.999819984659553">
        <ele>625.96000000000004</ele>
        <time>2013-09-05T14:44:44Z</time>
      </trkpt>
      <trkpt lat="50.742833968251944" lon="14.999599037691951">
        <ele>626.91999999999996</ele>
        <time>2013-09-05T14:44:45Z</time>
      </trkpt>
      <trkpt lat="50.742891971021891" lon="14.999384041875601">
        <ele>628.36000000000001</ele>
        <time>2013-09-05T14:44:46Z</time>
      </trkpt>
      <trkpt lat="50.742972018197179" lon="14.999182038009167">
        <ele>628.84000000000003</ele>
        <time>2013-09-05T14:44:47Z</time>
      </trkpt>
      <trkpt lat="50.743050975725055" lon="14.998966036364436">
        <ele>630.27999999999997</ele>
        <time>2013-09-05T14:44:48Z</time>
      </trkpt>
      <trkpt lat="50.743735022842884" lon="14.997352017089725">
        <ele>637.49000000000001</ele>
        <time>2013-09-05T14:44:56Z</time>
      </trkpt>
      <trkpt lat="50.744036016985774" lon="14.996344009414315">
        <ele>640.38</ele>
        <time>2013-09-05T14:45:01Z</time>
      </trkpt>
      <trkpt lat="50.744067030027509" lon="14.996150974184275">
        <ele>640.86000000000001</ele>
        <time>2013-09-05T14:45:02Z</time>
      </trkpt>
      <trkpt lat="50.744073987007141" lon="14.995957016944885">
        <ele>641.34000000000003</ele>
        <time>2013-09-05T14:45:03Z</time>
      </trkpt>
      <trkpt lat="50.74404900893569" lon="14.995763981714845">
        <ele>641.82000000000005</ele>
        <time>2013-09-05T14:45:04Z</time>
      </trkpt>
      <trkpt lat="50.743995029479265" lon="14.995587039738894">
        <ele>642.29999999999995</ele>
        <time>2013-09-05T14:45:05Z</time>
      </trkpt>
      <trkpt lat="50.743923028931022" lon="14.995425017550588">
        <ele>643.74000000000001</ele>
        <time>2013-09-05T14:45:06Z</time>
      </trkpt>
      <trkpt lat="50.743839964270592" lon="14.995266012847424">
        <ele>644.70000000000005</ele>
        <time>2013-09-05T14:45:07Z</time>
      </trkpt>
      <trkpt lat="50.743584986776114" lon="14.994766032323241">
        <ele>648.54999999999995</ele>
        <time>2013-09-05T14:45:10Z</time>
      </trkpt>
      <trkpt lat="50.743525978177786" lon="14.994574002921581">
        <ele>649.50999999999999</ele>
        <time>2013-09-05T14:45:11Z</time>
      </trkpt>
      <trkpt lat="50.743499994277954" lon="14.994388008490205">
        <ele>650.95000000000005</ele>
        <time>2013-09-05T14:45:12Z</time>
      </trkpt>
      <trkpt lat="50.743458000943065" lon="14.993993975222111">
        <ele>653.35000000000002</ele>
        <time>2013-09-05T14:45:14Z</time>
      </trkpt>
      <trkpt lat="50.74340402148664" lon="14.99381996691227">
        <ele>652.87</ele>
        <time>2013-09-05T14:45:15Z</time>
      </trkpt>
      <trkpt lat="50.743329003453255" lon="14.993671020492911">
        <ele>654.30999999999995</ele>
        <time>2013-09-05T14:45:16Z</time>
      </trkpt>
      <trkpt lat="50.74321199208498" lon="14.993588961660862">
        <ele>654.79999999999995</ele>
        <time>2013-09-05T14:45:17Z</time>
      </trkpt>
      <trkpt lat="50.743088023737073" lon="14.99358200468123">
        <ele>655.75999999999999</ele>
        <time>2013-09-05T14:45:18Z</time>
      </trkpt>
      <trkpt lat="50.742971012368798" lon="14.993662973865867">
        <ele>656.72000000000003</ele>
        <time>2013-09-05T14:45:19Z</time>
      </trkpt>
      <trkpt lat="50.742879984900355" lon="14.993806974962354">
        <ele>658.15999999999997</ele>
        <time>2013-09-05T14:45:20Z</time>
      </trkpt>
      <trkpt lat="50.742795998230577" lon="14.993995986878872">
        <ele>659.60000000000002</ele>
        <time>2013-09-05T14:45:21Z</time>
      </trkpt>
      <trkpt lat="50.742717040702701" lon="14.994200002402067">
        <ele>661.03999999999996</ele>
        <time>2013-09-05T14:45:22Z</time>
      </trkpt>
      <trkpt lat="50.74222301132977" lon="14.995600031688809">
        <ele>669.22000000000003</ele>
        <time>2013-09-05T14:45:29Z</time>
      </trkpt>
      <trkpt lat="50.742117986083031" lon="14.995998004451394">
        <ele>671.13999999999999</ele>
        <time>2013-09-05T14:45:31Z</time>
      </trkpt>
      <trkpt lat="50.742049003019929" lon="14.996156003326178">
        <ele>672.10000000000002</ele>
        <time>2013-09-05T14:45:32Z</time>
      </trkpt>
      <trkpt lat="50.741952024400234" lon="14.996263962239027">
        <ele>673.05999999999995</ele>
        <time>2013-09-05T14:45:33Z</time>
      </trkpt>
      <trkpt lat="50.741837024688721" lon="14.996306039392948">
        <ele>673.53999999999996</ele>
        <time>2013-09-05T14:45:34Z</time>
      </trkpt>
      <trkpt lat="50.741721019148827" lon="14.996257005259395">
        <ele>674.5</ele>
        <time>2013-09-05T14:45:35Z</time>
      </trkpt>
      <trkpt lat="50.741626974195242" lon="14.996124990284443">
        <ele>674.98000000000002</ele>
        <time>2013-09-05T14:45:36Z</time>
      </trkpt>
      <trkpt lat="50.741566959768534" lon="14.995946958661079">
        <ele>675.94000000000005</ele>
        <time>2013-09-05T14:45:37Z</time>
      </trkpt>
      <trkpt lat="50.741523038595915" lon="14.995729029178619">
        <ele>677.38999999999999</ele>
        <time>2013-09-05T14:45:38Z</time>
      </trkpt>
      <trkpt lat="50.741498982533813" lon="14.995498023927212">
        <ele>677.87</ele>
        <time>2013-09-05T14:45:39Z</time>
      </trkpt>
      <trkpt lat="50.741477021947503" lon="14.995256960391998">
        <ele>679.30999999999995</ele>
        <time>2013-09-05T14:45:40Z</time>
      </trkpt>
      <trkpt lat="50.741461012512445" lon="14.995015980675817">
        <ele>679.78999999999996</ele>
        <time>2013-09-05T14:45:41Z</time>
      </trkpt>
      <trkpt lat="50.741490013897419" lon="14.992951015010476">
        <ele>689.88</ele>
        <time>2013-09-05T14:45:49Z</time>
      </trkpt>
      <trkpt lat="50.741740968078375" lon="14.990479024127126">
        <ele>699.01999999999998</ele>
        <time>2013-09-05T14:45:58Z</time>
      </trkpt>
      <trkpt lat="50.742170959711075" lon="14.98724402859807">
        <ele>712.47000000000003</ele>
        <time>2013-09-05T14:46:10Z</time>
      </trkpt>
      <trkpt lat="50.742260981351137" lon="14.984678998589516">
        <ele>718.24000000000001</ele>
        <time>2013-09-05T14:46:19Z</time>
      </trkpt>
      <trkpt lat="50.742562981322408" lon="14.982457039877772">
        <ele>725.92999999999995</ele>
        <time>2013-09-05T14:46:27Z</time>
      </trkpt>
      <trkpt lat="50.742689967155457" lon="14.981545004993677">
        <ele>731.22000000000003</ele>
        <time>2013-09-05T14:46:30Z</time>
      </trkpt>
      <trkpt lat="50.742770014330745" lon="14.98127200640738">
        <ele>732.17999999999995</ele>
        <time>2013-09-05T14:46:31Z</time>
      </trkpt>
      <trkpt lat="50.742865987122059" lon="14.981011999770999">
        <ele>734.10000000000002</ele>
        <time>2013-09-05T14:46:32Z</time>
      </trkpt>
      <trkpt lat="50.742979981005192" lon="14.98075601644814">
        <ele>736.02999999999997</ele>
        <time>2013-09-05T14:46:33Z</time>
      </trkpt>
      <trkpt lat="50.743085006251931" lon="14.980510007590055">
        <ele>737.47000000000003</ele>
        <time>2013-09-05T14:46:34Z</time>
      </trkpt>
      <trkpt lat="50.743531007319689" lon="14.979671984910965">
        <ele>742.75999999999999</ele>
        <time>2013-09-05T14:46:38Z</time>
      </trkpt>
      <trkpt lat="50.743651958182454" lon="14.979534018784761">
        <ele>744.67999999999995</ele>
        <time>2013-09-05T14:46:39Z</time>
      </trkpt>
      <trkpt lat="50.743779027834535" lon="14.979418013244867">
        <ele>746.12</ele>
        <time>2013-09-05T14:46:40Z</time>
      </trkpt>
      <trkpt lat="50.743885980919003" lon="14.979275017976761">
        <ele>748.51999999999998</ele>
        <time>2013-09-05T14:46:41Z</time>
      </trkpt>
      <trkpt lat="50.743945995345712" lon="14.978733966127038">
        <ele>751.88999999999999</ele>
        <time>2013-09-05T14:46:44Z</time>
      </trkpt>
      <trkpt lat="50.743931997567415" lon="14.978568004444242">
        <ele>752.85000000000002</ele>
        <time>2013-09-05T14:46:45Z</time>
      </trkpt>
      <trkpt lat="50.743851028382778" lon="14.97806902974844">
        <ele>754.28999999999996</ele>
        <time>2013-09-05T14:46:48Z</time>
      </trkpt>
      <trkpt lat="50.743795037269592" lon="14.977937014773488">
        <ele>754.28999999999996</ele>
        <time>2013-09-05T14:46:49Z</time>
      </trkpt>
      <trkpt lat="50.743722030892968" lon="14.977841963991523">
        <ele>754.28999999999996</ele>
        <time>2013-09-05T14:46:50Z</time>
      </trkpt>
      <trkpt lat="50.743631003424525" lon="14.977784967049956">
        <ele>754.28999999999996</ele>
        <time>2013-09-05T14:46:51Z</time>
      </trkpt>
      <trkpt lat="50.743525978177786" lon="14.977741967886686">
        <ele>754.28999999999996</ele>
        <time>2013-09-05T14:46:52Z</time>
      </trkpt>
      <trkpt lat="50.743203023448586" lon="14.977605007588863">
        <ele>753.33000000000004</ele>
        <time>2013-09-05T14:46:55Z</time>
      </trkpt>
      <trkpt lat="50.743100009858608" lon="14.977535018697381">
        <ele>752.85000000000002</ele>
        <time>2013-09-05T14:46:56Z</time>
      </trkpt>
      <trkpt lat="50.743002025410533" lon="14.977446002885699">
        <ele>752.85000000000002</ele>
        <time>2013-09-05T14:46:57Z</time>
      </trkpt>
      <trkpt lat="50.742915021255612" lon="14.977345000952482">
        <ele>751.88999999999999</ele>
        <time>2013-09-05T14:46:58Z</time>
      </trkpt>
      <trkpt lat="50.742838997393847" lon="14.977231007069349">
        <ele>751.40999999999997</ele>
        <time>2013-09-05T14:46:59Z</time>
      </trkpt>
      <trkpt lat="50.742769008502364" lon="14.977097986266017">
        <ele>750.92999999999995</ele>
        <time>2013-09-05T14:47:00Z</time>
      </trkpt>
      <trkpt lat="50.742702959105372" lon="14.976938981562853">
        <ele>750.45000000000005</ele>
        <time>2013-09-05T14:47:01Z</time>
      </trkpt>
      <trkpt lat="50.742637999355793" lon="14.976784000173211">
        <ele>749.97000000000003</ele>
        <time>2013-09-05T14:47:02Z</time>
      </trkpt>
      <trkpt lat="50.742015978321433" lon="14.975565019994974">
        <ele>743.72000000000003</ele>
        <time>2013-09-05T14:47:11Z</time>
      </trkpt>
      <trkpt lat="50.741992006078362" lon="14.975423030555248">
        <ele>743.72000000000003</ele>
        <time>2013-09-05T14:47:12Z</time>
      </trkpt>
      <trkpt lat="50.741997035220265" lon="14.975279029458761">
        <ele>742.75999999999999</ele>
        <time>2013-09-05T14:47:13Z</time>
      </trkpt>
      <trkpt lat="50.742032993584871" lon="14.975153971463442">
        <ele>742.27999999999997</ele>
        <time>2013-09-05T14:47:14Z</time>
      </trkpt>
      <trkpt lat="50.742086973041296" lon="14.97506202198565">
        <ele>741.78999999999996</ele>
        <time>2013-09-05T14:47:15Z</time>
      </trkpt>
      <trkpt lat="50.742155034095049" lon="14.974993038922548">
        <ele>741.30999999999995</ele>
        <time>2013-09-05T14:47:16Z</time>
      </trkpt>
      <trkpt lat="50.742211025208235" lon="14.974946016445756">
        <ele>740.35000000000002</ele>
        <time>2013-09-05T14:47:17Z</time>
      </trkpt>
      <trkpt lat="50.74228797107935" lon="14.974931012839079">
        <ele>739.87</ele>
        <time>2013-09-05T14:47:18Z</time>
      </trkpt>
      <trkpt lat="50.742376986891031" lon="14.974913997575641">
        <ele>739.38999999999999</ele>
        <time>2013-09-05T14:47:19Z</time>
      </trkpt>
      <trkpt lat="50.74243800714612" lon="14.974820036441088">
        <ele>738.90999999999997</ele>
        <time>2013-09-05T14:47:20Z</time>
      </trkpt>
      <trkpt lat="50.742530962452292" lon="14.974736971780658">
        <ele>738.90999999999997</ele>
        <time>2013-09-05T14:47:21Z</time>
      </trkpt>
      <trkpt lat="50.742515036836267" lon="14.974619960412383">
        <ele>738.42999999999995</ele>
        <time>2013-09-05T14:47:22Z</time>
      </trkpt>
      <trkpt lat="50.742457034066319" lon="14.97454603202641">
        <ele>736.99000000000001</ele>
        <time>2013-09-05T14:47:23Z</time>
      </trkpt>
      <trkpt lat="50.742386961355805" lon="14.974500015377998">
        <ele>736.50999999999999</ele>
        <time>2013-09-05T14:47:24Z</time>
      </trkpt>
      <trkpt lat="50.742302974686027" lon="14.97446003369987">
        <ele>736.02999999999997</ele>
        <time>2013-09-05T14:47:25Z</time>
      </trkpt>
      <trkpt lat="50.74220197275281" lon="14.974429020658135">
        <ele>736.02999999999997</ele>
        <time>2013-09-05T14:47:26Z</time>
      </trkpt>
      <trkpt lat="50.742103988304734" lon="14.974407982081175">
        <ele>735.07000000000005</ele>
        <time>2013-09-05T14:47:27Z</time>
      </trkpt>
      <trkpt lat="50.740895988419652" lon="14.973866008222103">
        <ele>729.29999999999995</ele>
        <time>2013-09-05T14:47:39Z</time>
      </trkpt>
      <trkpt lat="50.740818036720157" lon="14.973765006288886">
        <ele>728.34000000000003</ele>
        <time>2013-09-05T14:47:40Z</time>
      </trkpt>
      <trkpt lat="50.740772020071745" lon="14.973627962172031">
        <ele>727.37</ele>
        <time>2013-09-05T14:47:41Z</time>
      </trkpt>
      <trkpt lat="50.740775959566236" lon="14.973481027409434">
        <ele>726.40999999999997</ele>
        <time>2013-09-05T14:47:42Z</time>
      </trkpt>
      <trkpt lat="50.740822982043028" lon="14.973360998556018">
        <ele>725.45000000000005</ele>
        <time>2013-09-05T14:47:43Z</time>
      </trkpt>
      <trkpt lat="50.74089297093451" lon="14.973253961652517">
        <ele>724.97000000000003</ele>
        <time>2013-09-05T14:47:44Z</time>
      </trkpt>
      <trkpt lat="50.74097796343267" lon="14.9731529597193">
        <ele>724.00999999999999</ele>
        <time>2013-09-05T14:47:45Z</time>
      </trkpt>
      <trkpt lat="50.741139985620975" lon="14.972922960296273">
        <ele>722.09000000000003</ele>
        <time>2013-09-05T14:47:47Z</time>
      </trkpt>
      <trkpt lat="50.741204023361206" lon="14.972787005826831">
        <ele>721.61000000000001</ele>
        <time>2013-09-05T14:47:48Z</time>
      </trkpt>
      <trkpt lat="50.74125699698925" lon="14.972639987245202">
        <ele>720.64999999999998</ele>
        <time>2013-09-05T14:47:49Z</time>
      </trkpt>
      <trkpt lat="50.741393035277724" lon="14.972211001440883">
        <ele>717.75999999999999</ele>
        <time>2013-09-05T14:47:52Z</time>
      </trkpt>
      <trkpt lat="50.741391023620963" lon="14.972073035314679">
        <ele>717.27999999999997</ele>
        <time>2013-09-05T14:47:53Z</time>
      </trkpt>
      <trkpt lat="50.741350036114454" lon="14.971960969269276">
        <ele>716.32000000000005</ele>
        <time>2013-09-05T14:47:54Z</time>
      </trkpt>
      <trkpt lat="50.741278035566211" lon="14.971897015348077">
        <ele>715.36000000000001</ele>
        <time>2013-09-05T14:47:55Z</time>
      </trkpt>
      <trkpt lat="50.74119103141129" lon="14.971903972327709">
        <ele>714.39999999999998</ele>
        <time>2013-09-05T14:47:56Z</time>
      </trkpt>
      <trkpt lat="50.741117019206285" lon="14.971973961219192">
        <ele>713.91999999999996</ele>
        <time>2013-09-05T14:47:57Z</time>
      </trkpt>
      <trkpt lat="50.741060022264719" lon="14.972082003951073">
        <ele>713.44000000000005</ele>
        <time>2013-09-05T14:47:58Z</time>
      </trkpt>
      <trkpt lat="50.741010988131166" lon="14.972203960642219">
        <ele>712.95000000000005</ele>
        <time>2013-09-05T14:47:59Z</time>
      </trkpt>
      <trkpt lat="50.740967988967896" lon="14.972324995324016">
        <ele>711.99000000000001</ele>
        <time>2013-09-05T14:48:00Z</time>
      </trkpt>
      <trkpt lat="50.740920966491103" lon="14.972437983378768">
        <ele>711.99000000000001</ele>
        <time>2013-09-05T14:48:01Z</time>
      </trkpt>
      <trkpt lat="50.740859024226665" lon="14.972509983927011">
        <ele>711.02999999999997</ele>
        <time>2013-09-05T14:48:02Z</time>
      </trkpt>
      <trkpt lat="50.740788029506803" lon="14.972511995583773">
        <ele>710.54999999999995</ele>
        <time>2013-09-05T14:48:03Z</time>
      </trkpt>
      <trkpt lat="50.740731032565236" lon="14.97244200669229">
        <ele>710.07000000000005</ele>
        <time>2013-09-05T14:48:04Z</time>
      </trkpt>
      <trkpt lat="50.740699013695121" lon="14.972328012809157">
        <ele>709.59000000000003</ele>
        <time>2013-09-05T14:48:05Z</time>
      </trkpt>
      <trkpt lat="50.740713011473417" lon="14.972216030582786">
        <ele>708.14999999999998</ele>
        <time>2013-09-05T14:48:06Z</time>
      </trkpt>
      <trkpt lat="50.740756010636687" lon="14.972134977579117">
        <ele>707.66999999999996</ele>
        <time>2013-09-05T14:48:07Z</time>
      </trkpt>
      <trkpt lat="50.740801021456718" lon="14.97205400839448">
        <ele>706.71000000000004</ele>
        <time>2013-09-05T14:48:08Z</time>
      </trkpt>
      <trkpt lat="50.740847960114479" lon="14.971971027553082">
        <ele>706.71000000000004</ele>
        <time>2013-09-05T14:48:09Z</time>
      </trkpt>
      <trkpt lat="50.740887019783258" lon="14.971880000084639">
        <ele>705.75</ele>
        <time>2013-09-05T14:48:10Z</time>
      </trkpt>
      <trkpt lat="50.740919960662723" lon="14.971766006201506">
        <ele>705.75</ele>
        <time>2013-09-05T14:48:11Z</time>
      </trkpt>
      <trkpt lat="50.740940999239683" lon="14.971638014540076">
        <ele>705.25999999999999</ele>
        <time>2013-09-05T14:48:12Z</time>
      </trkpt>
      <trkpt lat="50.741032026708126" lon="14.970664959400892">
        <ele>700.94000000000005</ele>
        <time>2013-09-05T14:48:18Z</time>
      </trkpt>
      <trkpt lat="50.741067985072732" lon="14.970491034910083">
        <ele>699.98000000000002</ele>
        <time>2013-09-05T14:48:19Z</time>
      </trkpt>
      <trkpt lat="50.741120036691427" lon="14.970327001065016">
        <ele>699.01999999999998</ele>
        <time>2013-09-05T14:48:20Z</time>
      </trkpt>
      <trkpt lat="50.741189019754529" lon="14.970175037160516">
        <ele>698.52999999999997</ele>
        <time>2013-09-05T14:48:21Z</time>
      </trkpt>
      <trkpt lat="50.741267977282405" lon="14.9700359813869">
        <ele>697.57000000000005</ele>
        <time>2013-09-05T14:48:22Z</time>
      </trkpt>
      <trkpt lat="50.741347018629313" lon="14.969898015260696">
        <ele>697.09000000000003</ele>
        <time>2013-09-05T14:48:23Z</time>
      </trkpt>
      <trkpt lat="50.74183601886034" lon="14.968936024233699">
        <ele>693.25</ele>
        <time>2013-09-05T14:48:30Z</time>
      </trkpt>
      <trkpt lat="50.741824032738805" lon="14.968769978731871">
        <ele>691.33000000000004</ele>
        <time>2013-09-05T14:48:31Z</time>
      </trkpt>
      <trkpt lat="50.741788996383548" lon="14.968619020655751">
        <ele>690.84000000000003</ele>
        <time>2013-09-05T14:48:32Z</time>
      </trkpt>
      <trkpt lat="50.741724036633968" lon="14.968502009287477">
        <ele>689.88</ele>
        <time>2013-09-05T14:48:33Z</time>
      </trkpt>
      <trkpt lat="50.741637032479048" lon="14.968437971547246">
        <ele>688.44000000000005</ele>
        <time>2013-09-05T14:48:34Z</time>
      </trkpt>
      <trkpt lat="50.741541981697083" lon="14.968436965718865">
        <ele>687.48000000000002</ele>
        <time>2013-09-05T14:48:35Z</time>
      </trkpt>
      <trkpt lat="50.74144902639091" lon="14.96848801150918">
        <ele>687</ele>
        <time>2013-09-05T14:48:36Z</time>
      </trkpt>
      <trkpt lat="50.741355987265706" lon="14.968564035370946">
        <ele>686.51999999999998</ele>
        <time>2013-09-05T14:48:37Z</time>
      </trkpt>
      <trkpt lat="50.741076031699777" lon="14.968847008422017">
        <ele>684.60000000000002</ele>
        <time>2013-09-05T14:48:40Z</time>
      </trkpt>
      <trkpt lat="50.740625001490116" lon="14.969312958419323">
        <ele>680.26999999999998</ele>
        <time>2013-09-05T14:48:45Z</time>
      </trkpt>
      <trkpt lat="50.740520982071757" lon="14.969338020309806">
        <ele>679.30999999999995</ele>
        <time>2013-09-05T14:48:46Z</time>
      </trkpt>
      <trkpt lat="50.740506984293461" lon="14.969210028648376">
        <ele>678.83000000000004</ele>
        <time>2013-09-05T14:48:47Z</time>
      </trkpt>
      <trkpt lat="50.740492986515164" lon="14.969088993966579">
        <ele>677.87</ele>
        <time>2013-09-05T14:48:48Z</time>
      </trkpt>
      <trkpt lat="50.740510001778603" lon="14.968956978991628">
        <ele>676.90999999999997</ele>
        <time>2013-09-05T14:48:49Z</time>
      </trkpt>
      <trkpt lat="50.740566998720169" lon="14.968821024522185">
        <ele>676.41999999999996</ele>
        <time>2013-09-05T14:48:50Z</time>
      </trkpt>
      <trkpt lat="50.740635981783271" lon="14.968683980405331">
        <ele>675.94000000000005</ele>
        <time>2013-09-05T14:48:51Z</time>
      </trkpt>
      <trkpt lat="50.74069700203836" lon="14.968541990965605">
        <ele>675.46000000000004</ele>
        <time>2013-09-05T14:48:52Z</time>
      </trkpt>
      <trkpt lat="50.740919038653374" lon="14.968081992119551">
        <ele>673.05999999999995</ele>
        <time>2013-09-05T14:48:55Z</time>
      </trkpt>
      <trkpt lat="50.740971006453037" lon="14.967899015173316">
        <ele>672.58000000000004</ele>
        <time>2013-09-05T14:48:56Z</time>
      </trkpt>
      <trkpt lat="50.74121399782598" lon="14.967036014422774">
        <ele>667.28999999999996</ele>
        <time>2013-09-05T14:49:01Z</time>
      </trkpt>
      <trkpt lat="50.741280969232321" lon="14.966882038861513">
        <ele>666.33000000000004</ele>
        <time>2013-09-05T14:49:02Z</time>
      </trkpt>
      <trkpt lat="50.741359004750848" lon="14.966740971431136">
        <ele>665.37</ele>
        <time>2013-09-05T14:49:03Z</time>
      </trkpt>
      <trkpt lat="50.741447014734149" lon="14.966612979769707">
        <ele>664.40999999999997</ele>
        <time>2013-09-05T14:49:04Z</time>
      </trkpt>
      <trkpt lat="50.741539970040321" lon="14.966494962573051">
        <ele>663.45000000000005</ele>
        <time>2013-09-05T14:49:05Z</time>
      </trkpt>
      <trkpt lat="50.741974990814924" lon="14.965968998149037">
        <ele>658.63999999999999</ele>
        <time>2013-09-05T14:49:10Z</time>
      </trkpt>
      <trkpt lat="50.741980019956827" lon="14.965818040072918">
        <ele>656.72000000000003</ele>
        <time>2013-09-05T14:49:11Z</time>
      </trkpt>
      <trkpt lat="50.741952024400234" lon="14.965684013441205">
        <ele>655.75999999999999</ele>
        <time>2013-09-05T14:49:12Z</time>
      </trkpt>
      <trkpt lat="50.741897039115429" lon="14.965592985972762">
        <ele>654.79999999999995</ele>
        <time>2013-09-05T14:49:13Z</time>
      </trkpt>
      <trkpt lat="50.741822021082044" lon="14.965569013729692">
        <ele>653.83000000000004</ele>
        <time>2013-09-05T14:49:14Z</time>
      </trkpt>
      <trkpt lat="50.741726970300078" lon="14.965573959052563">
        <ele>653.35000000000002</ele>
        <time>2013-09-05T14:49:15Z</time>
      </trkpt>
      <trkpt lat="50.741623034700751" lon="14.965619975700974">
        <ele>652.87</ele>
        <time>2013-09-05T14:49:16Z</time>
      </trkpt>
      <trkpt lat="50.741517003625631" lon="14.965691976249218">
        <ele>651.90999999999997</ele>
        <time>2013-09-05T14:49:17Z</time>
      </trkpt>
      <trkpt lat="50.741410972550511" lon="14.965789960697293">
        <ele>650.95000000000005</ele>
        <time>2013-09-05T14:49:18Z</time>
      </trkpt>
      <trkpt lat="50.741303013637662" lon="14.965906972065568">
        <ele>650.47000000000003</ele>
        <time>2013-09-05T14:49:19Z</time>
      </trkpt>
      <trkpt lat="50.741207040846348" lon="14.966045022010803">
        <ele>649.50999999999999</ele>
        <time>2013-09-05T14:49:20Z</time>
      </trkpt>
      <trkpt lat="50.741120958700776" lon="14.966187011450529">
        <ele>649.50999999999999</ele>
        <time>2013-09-05T14:49:21Z</time>
      </trkpt>
      <trkpt lat="50.741048036143184" lon="14.966337969526649">
        <ele>649.02999999999997</ele>
        <time>2013-09-05T14:49:22Z</time>
      </trkpt>
      <trkpt lat="50.740985004231334" lon="14.966491023078561">
        <ele>648.54999999999995</ele>
        <time>2013-09-05T14:49:23Z</time>
      </trkpt>
      <trkpt lat="50.740145975723863" lon="14.968012003228068">
        <ele>646.62</ele>
        <time>2013-09-05T14:49:33Z</time>
      </trkpt>
      <trkpt lat="50.739765018224716" lon="14.968491028994322">
        <ele>645.17999999999995</ele>
        <time>2013-09-05T14:49:37Z</time>
      </trkpt>
      <trkpt lat="50.739660998806357" lon="14.968545008450747">
        <ele>644.70000000000005</ele>
        <time>2013-09-05T14:49:38Z</time>
      </trkpt>
      <trkpt lat="50.739577012136579" lon="14.9684679787606">
        <ele>644.70000000000005</ele>
        <time>2013-09-05T14:49:39Z</time>
      </trkpt>
      <trkpt lat="50.73949403129518" lon="14.968347027897835">
        <ele>644.70000000000005</ele>
        <time>2013-09-05T14:49:40Z</time>
      </trkpt>
      <trkpt lat="50.739413984119892" lon="14.968233034014702">
        <ele>644.70000000000005</ele>
        <time>2013-09-05T14:49:41Z</time>
      </trkpt>
      <trkpt lat="50.739308958873153" lon="14.968138989061117">
        <ele>644.22000000000003</ele>
        <time>2013-09-05T14:49:42Z</time>
      </trkpt>
      <trkpt lat="50.739203011617064" lon="14.968116022646427">
        <ele>644.22000000000003</ele>
        <time>2013-09-05T14:49:43Z</time>
      </trkpt>
      <trkpt lat="50.739084994420409" lon="14.968133959919214">
        <ele>644.22000000000003</ele>
        <time>2013-09-05T14:49:44Z</time>
      </trkpt>
      <trkpt lat="50.73848501779139" lon="14.968293970450759">
        <ele>645.17999999999995</ele>
        <time>2013-09-05T14:49:49Z</time>
      </trkpt>
      <trkpt lat="50.738384015858173" lon="14.968260023742914">
        <ele>644.70000000000005</ele>
        <time>2013-09-05T14:49:50Z</time>
      </trkpt>
      <trkpt lat="50.738302040845156" lon="14.968174025416374">
        <ele>644.70000000000005</ele>
        <time>2013-09-05T14:49:51Z</time>
      </trkpt>
      <trkpt lat="50.738260969519615" lon="14.968035975471139">
        <ele>644.70000000000005</ele>
        <time>2013-09-05T14:49:52Z</time>
      </trkpt>
      <trkpt lat="50.738259963691235" lon="14.967875964939594">
        <ele>644.70000000000005</ele>
        <time>2013-09-05T14:49:53Z</time>
      </trkpt>
      <trkpt lat="50.738274967297912" lon="14.967708997428417">
        <ele>644.70000000000005</ele>
        <time>2013-09-05T14:49:54Z</time>
      </trkpt>
      <trkpt lat="50.738311009481549" lon="14.967533983290195">
        <ele>643.74000000000001</ele>
        <time>2013-09-05T14:49:55Z</time>
      </trkpt>
      <trkpt lat="50.738339005038142" lon="14.967354023829103">
        <ele>643.74000000000001</ele>
        <time>2013-09-05T14:49:56Z</time>
      </trkpt>
      <trkpt lat="50.738350991159678" lon="14.967167023569345">
        <ele>644.22000000000003</ele>
        <time>2013-09-05T14:49:57Z</time>
      </trkpt>
      <trkpt lat="50.738357026129961" lon="14.966979017481208">
        <ele>644.70000000000005</ele>
        <time>2013-09-05T14:49:58Z</time>
      </trkpt>
      <trkpt lat="50.738348979502916" lon="14.96679101139307">
        <ele>644.70000000000005</ele>
        <time>2013-09-05T14:49:59Z</time>
      </trkpt>
      <trkpt lat="50.738379992544651" lon="14.964467966929078">
        <ele>640.38</ele>
        <time>2013-09-05T14:50:10Z</time>
      </trkpt>
      <trkpt lat="50.738413017243147" lon="14.963745027780533">
        <ele>637.97000000000003</ele>
        <time>2013-09-05T14:50:13Z</time>
      </trkpt>
      <trkpt lat="50.738393990322948" lon="14.963511005043983">
        <ele>637.49000000000001</ele>
        <time>2013-09-05T14:50:14Z</time>
      </trkpt>
      <trkpt lat="50.738310003653169" lon="14.96326700784266">
        <ele>636.04999999999995</ele>
        <time>2013-09-05T14:50:15Z</time>
      </trkpt>
      <trkpt lat="50.738243032246828" lon="14.963069027289748">
        <ele>634.61000000000001</ele>
        <time>2013-09-05T14:50:16Z</time>
      </trkpt>
      <trkpt lat="50.738169020041823" lon="14.962889989838004">
        <ele>633.16999999999996</ele>
        <time>2013-09-05T14:50:17Z</time>
      </trkpt>
      <trkpt lat="50.738071035593748" lon="14.962732996791601">
        <ele>632.20000000000005</ele>
        <time>2013-09-05T14:50:18Z</time>
      </trkpt>
      <trkpt lat="50.737957041710615" lon="14.962598970159888">
        <ele>631.24000000000001</ele>
        <time>2013-09-05T14:50:19Z</time>
      </trkpt>
      <trkpt lat="50.737829972058535" lon="14.962467961013317">
        <ele>630.27999999999997</ele>
        <time>2013-09-05T14:50:20Z</time>
      </trkpt>
      <trkpt lat="50.736433966085315" lon="14.96122500859201">
        <ele>622.59000000000003</ele>
        <time>2013-09-05T14:50:30Z</time>
      </trkpt>
      <trkpt lat="50.735960975289345" lon="14.960928959771991">
        <ele>620.66999999999996</ele>
        <time>2013-09-05T14:50:33Z</time>
      </trkpt>
      <trkpt lat="50.735817980021238" lon="14.960800968110561">
        <ele>619.23000000000002</ele>
        <time>2013-09-05T14:50:34Z</time>
      </trkpt>
      <trkpt lat="50.735270977020264" lon="14.960252037271857">
        <ele>618.25999999999999</ele>
        <time>2013-09-05T14:50:38Z</time>
      </trkpt>
      <trkpt lat="50.735114989802241" lon="14.960206020623446">
        <ele>617.29999999999995</ele>
        <time>2013-09-05T14:50:39Z</time>
      </trkpt>
      <trkpt lat="50.734951039776206" lon="14.960200991481543">
        <ele>617.29999999999995</ele>
        <time>2013-09-05T14:50:40Z</time>
      </trkpt>
      <trkpt lat="50.734792035073042" lon="14.960221024230123">
        <ele>617.29999999999995</ele>
        <time>2013-09-05T14:50:41Z</time>
      </trkpt>
      <trkpt lat="50.734636969864368" lon="14.960277015343308">
        <ele>616.82000000000005</ele>
        <time>2013-09-05T14:50:42Z</time>
      </trkpt>
      <trkpt lat="50.734486011788249" lon="14.960337029770017">
        <ele>616.82000000000005</ele>
        <time>2013-09-05T14:50:43Z</time>
      </trkpt>
      <trkpt lat="50.732913985848427" lon="14.961068015545607">
        <ele>614.41999999999996</ele>
        <time>2013-09-05T14:50:54Z</time>
      </trkpt>
      <trkpt lat="50.731434999033809" lon="14.961273036897182">
        <ele>606.73000000000002</ele>
        <time>2013-09-05T14:51:03Z</time>
      </trkpt>
      <trkpt lat="50.73126501403749" lon="14.961232971400023">
        <ele>605.28999999999996</ele>
        <time>2013-09-05T14:51:04Z</time>
      </trkpt>
      <trkpt lat="50.731095029041171" lon="14.961172034963965">
        <ele>604.33000000000004</ele>
        <time>2013-09-05T14:51:05Z</time>
      </trkpt>
      <trkpt lat="50.730918003246188" lon="14.961064998060465">
        <ele>603.36000000000001</ele>
        <time>2013-09-05T14:51:06Z</time>
      </trkpt>
      <trkpt lat="50.730755981057882" lon="14.960941029712558">
        <ele>602.88</ele>
        <time>2013-09-05T14:51:07Z</time>
      </trkpt>
      <trkpt lat="50.730604017153382" lon="14.960799040272832">
        <ele>602.39999999999998</ele>
        <time>2013-09-05T14:51:08Z</time>
      </trkpt>
      <trkpt lat="50.730452975258231" lon="14.960654033347964">
        <ele>601.91999999999996</ele>
        <time>2013-09-05T14:51:09Z</time>
      </trkpt>
      <trkpt lat="50.72952501475811" lon="14.96006797067821">
        <ele>599.51999999999998</ele>
        <time>2013-09-05T14:51:15Z</time>
      </trkpt>
      <trkpt lat="50.729359975084662" lon="14.960033018141985">
        <ele>599.03999999999996</ele>
        <time>2013-09-05T14:51:16Z</time>
      </trkpt>
      <trkpt lat="50.72900801897049" lon="14.960022959858179">
        <ele>598.08000000000004</ele>
        <time>2013-09-05T14:51:18Z</time>
      </trkpt>
      <trkpt lat="50.727186966687441" lon="14.960672976449132">
        <ele>599.51999999999998</ele>
        <time>2013-09-05T14:51:29Z</time>
      </trkpt>
      <trkpt lat="50.727026034146547" lon="14.960751011967659">
        <ele>600</ele>
        <time>2013-09-05T14:51:30Z</time>
      </trkpt>
      <trkpt lat="50.725813005119562" lon="14.961894974112511">
        <ele>596.63999999999999</ele>
        <time>2013-09-05T14:51:38Z</time>
      </trkpt>
      <trkpt lat="50.723605966195464" lon="14.964323965832591">
        <ele>592.30999999999995</ele>
        <time>2013-09-05T14:51:53Z</time>
      </trkpt>
      <trkpt lat="50.722192022949457" lon="14.965906972065568">
        <ele>582.70000000000005</ele>
        <time>2013-09-05T14:52:04Z</time>
      </trkpt>
      <trkpt lat="50.720704989507794" lon="14.967454019933939">
        <ele>573.08000000000004</ele>
        <time>2013-09-05T14:52:18Z</time>
      </trkpt>
      <trkpt lat="50.719577958807349" lon="14.968856982886791">
        <ele>570.67999999999995</ele>
        <time>2013-09-05T14:52:30Z</time>
      </trkpt>
      <trkpt lat="50.718628959730268" lon="14.970050984993577">
        <ele>567.79999999999995</ele>
        <time>2013-09-05T14:52:40Z</time>
      </trkpt>
      <trkpt lat="50.717430012300611" lon="14.971949988976121">
        <ele>564.42999999999995</ele>
        <time>2013-09-05T14:52:53Z</time>
      </trkpt>
      <trkpt lat="50.716747976839542" lon="14.973067967221141">
        <ele>561.07000000000005</ele>
        <time>2013-09-05T14:53:03Z</time>
      </trkpt>
      <trkpt lat="50.716700032353401" lon="14.973119013011456">
        <ele>560.59000000000003</ele>
        <time>2013-09-05T14:53:10Z</time>
      </trkpt>
      <trkpt lat="50.716705983504653" lon="14.973137034103274">
        <ele>560.11000000000001</ele>
        <time>2013-09-05T14:54:16Z</time>
      </trkpt>
      <trkpt lat="50.716717969626188" lon="14.973158994689584">
        <ele>560.59000000000003</ele>
        <time>2013-09-05T14:54:17Z</time>
      </trkpt>
      <trkpt lat="50.716735990718007" lon="14.973154971376061">
        <ele>560.59000000000003</ele>
        <time>2013-09-05T14:54:18Z</time>
      </trkpt>
      <trkpt lat="50.716760968789458" lon="14.973123036324978">
        <ele>560.59000000000003</ele>
        <time>2013-09-05T14:54:19Z</time>
      </trkpt>
      <trkpt lat="50.716790976002812" lon="14.973066039383411">
        <ele>560.59000000000003</ele>
        <time>2013-09-05T14:54:20Z</time>
      </trkpt>
      <trkpt lat="50.717276036739349" lon="14.972242014482617">
        <ele>562.99000000000001</ele>
        <time>2013-09-05T14:54:28Z</time>
      </trkpt>
      <trkpt lat="50.718262000009418" lon="14.970654984936118">
        <ele>568.27999999999997</ele>
        <time>2013-09-05T14:54:38Z</time>
      </trkpt>
      <trkpt lat="50.719372015446424" lon="14.969199970364571">
        <ele>571.15999999999997</ele>
        <time>2013-09-05T14:54:48Z</time>
      </trkpt>
      <trkpt lat="50.720455041155219" lon="14.967759037390351">
        <ele>573.55999999999995</ele>
        <time>2013-09-05T14:54:58Z</time>
      </trkpt>
      <trkpt lat="50.72202798910439" lon="14.966223975643516">
        <ele>576.45000000000005</ele>
        <time>2013-09-05T14:55:11Z</time>
      </trkpt>
      <trkpt lat="50.723372027277946" lon="14.964802991598845">
        <ele>583.65999999999997</ele>
        <time>2013-09-05T14:55:21Z</time>
      </trkpt>
      <trkpt lat="50.725196013227105" lon="14.962829975411296">
        <ele>596.14999999999998</ele>
        <time>2013-09-05T14:55:32Z</time>
      </trkpt>
      <trkpt lat="50.727180009707808" lon="14.960846984758973">
        <ele>604.33000000000004</ele>
        <time>2013-09-05T14:55:44Z</time>
      </trkpt>
      <trkpt lat="50.728678023442626" lon="14.960183976218104">
        <ele>606.73000000000002</ele>
        <time>2013-09-05T14:55:52Z</time>
      </trkpt>
      <trkpt lat="50.729648983106017" lon="14.96002203784883">
        <ele>607.21000000000004</ele>
        <time>2013-09-05T14:55:57Z</time>
      </trkpt>
      <trkpt lat="50.729858027771115" lon="14.960123039782047">
        <ele>607.21000000000004</ele>
        <time>2013-09-05T14:55:58Z</time>
      </trkpt>
      <trkpt lat="50.730035975575447" lon="14.960184982046485">
        <ele>608.64999999999998</ele>
        <time>2013-09-05T14:55:59Z</time>
      </trkpt>
      <trkpt lat="50.730380974709988" lon="14.960416993126273">
        <ele>609.61000000000001</ele>
        <time>2013-09-05T14:56:01Z</time>
      </trkpt>
      <trkpt lat="50.731197036802769" lon="14.961195001378655">
        <ele>612.98000000000002</ele>
        <time>2013-09-05T14:56:06Z</time>
      </trkpt>
      <trkpt lat="50.731366015970707" lon="14.961282005533576">
        <ele>613.94000000000005</ele>
        <time>2013-09-05T14:56:07Z</time>
      </trkpt>
      <trkpt lat="50.731548992916942" lon="14.96133103966713">
        <ele>614.89999999999998</ele>
        <time>2013-09-05T14:56:08Z</time>
      </trkpt>
      <trkpt lat="50.731732975691557" lon="14.9613550119102">
        <ele>615.38</ele>
        <time>2013-09-05T14:56:09Z</time>
      </trkpt>
      <trkpt lat="50.731922993436456" lon="14.961361968889832">
        <ele>616.82000000000005</ele>
        <time>2013-09-05T14:56:10Z</time>
      </trkpt>
      <trkpt lat="50.733571965247393" lon="14.960960978642106">
        <ele>622.11000000000001</ele>
        <time>2013-09-05T14:56:19Z</time>
      </trkpt>
      <trkpt lat="50.735006025061011" lon="14.96038899756968">
        <ele>623.07000000000005</ele>
        <time>2013-09-05T14:56:27Z</time>
      </trkpt>
      <trkpt lat="50.735181039199233" lon="14.960354967042804">
        <ele>622.59000000000003</ele>
        <time>2013-09-05T14:56:28Z</time>
      </trkpt>
      <trkpt lat="50.735363010317087" lon="14.960384974256158">
        <ele>623.07000000000005</ele>
        <time>2013-09-05T14:56:29Z</time>
      </trkpt>
      <trkpt lat="50.735526038333774" lon="14.960512965917587">
        <ele>623.07000000000005</ele>
        <time>2013-09-05T14:56:30Z</time>
      </trkpt>
      <trkpt lat="50.735675990581512" lon="14.960659984499216">
        <ele>623.54999999999995</ele>
        <time>2013-09-05T14:56:31Z</time>
      </trkpt>
      <trkpt lat="50.735831977799535" lon="14.960841033607721">
        <ele>623.07000000000005</ele>
        <time>2013-09-05T14:56:32Z</time>
      </trkpt>
      <trkpt lat="50.736163984984159" lon="14.961133981123567">
        <ele>623.07000000000005</ele>
        <time>2013-09-05T14:56:34Z</time>
      </trkpt>
      <trkpt lat="50.736343022435904" lon="14.961240012198687">
        <ele>623.07000000000005</ele>
        <time>2013-09-05T14:56:35Z</time>
      </trkpt>
      <trkpt lat="50.736712999641895" lon="14.961434975266457">
        <ele>624.50999999999999</ele>
        <time>2013-09-05T14:56:37Z</time>
      </trkpt>
      <trkpt lat="50.736890025436878" lon="14.961577970534563">
        <ele>625.96000000000004</ele>
        <time>2013-09-05T14:56:38Z</time>
      </trkpt>
      <trkpt lat="50.738178994506598" lon="14.962829975411296">
        <ele>635.09000000000003</ele>
        <time>2013-09-05T14:56:46Z</time>
      </trkpt>
      <trkpt lat="50.738305980339646" lon="14.963029967620969">
        <ele>636.52999999999997</ele>
        <time>2013-09-05T14:56:47Z</time>
      </trkpt>
      <trkpt lat="50.738416034728289" lon="14.963273964822292">
        <ele>637.49000000000001</ele>
        <time>2013-09-05T14:56:48Z</time>
      </trkpt>
      <trkpt lat="50.73848401196301" lon="14.963555010035634">
        <ele>638.45000000000005</ele>
        <time>2013-09-05T14:56:49Z</time>
      </trkpt>
      <trkpt lat="50.738516030833125" lon="14.96384896337986">
        <ele>638.92999999999995</ele>
        <time>2013-09-05T14:56:50Z</time>
      </trkpt>
      <trkpt lat="50.738492980599403" lon="14.964177031069994">
        <ele>638.92999999999995</ele>
        <time>2013-09-05T14:56:51Z</time>
      </trkpt>
      <trkpt lat="50.738474959507585" lon="14.964484982192516">
        <ele>640.38</ele>
        <time>2013-09-05T14:56:52Z</time>
      </trkpt>
      <trkpt lat="50.738407988101244" lon="14.967442033812404">
        <ele>648.07000000000005</ele>
        <time>2013-09-05T14:57:02Z</time>
      </trkpt>
      <trkpt lat="50.738373035565019" lon="14.967694999650121">
        <ele>648.54999999999995</ele>
        <time>2013-09-05T14:57:03Z</time>
      </trkpt>
      <trkpt lat="50.738351996988058" lon="14.968260023742914">
        <ele>648.54999999999995</ele>
        <time>2013-09-05T14:57:06Z</time>
      </trkpt>
      <trkpt lat="50.738423997536302" lon="14.968372005969286">
        <ele>648.54999999999995</ele>
        <time>2013-09-05T14:57:07Z</time>
      </trkpt>
      <trkpt lat="50.738532962277532" lon="14.968422967940569">
        <ele>648.54999999999995</ele>
        <time>2013-09-05T14:57:08Z</time>
      </trkpt>
      <trkpt lat="50.738661037757993" lon="14.96842397376895">
        <ele>648.54999999999995</ele>
        <time>2013-09-05T14:57:09Z</time>
      </trkpt>
      <trkpt lat="50.738797998055816" lon="14.968392038717866">
        <ele>649.02999999999997</ele>
        <time>2013-09-05T14:57:10Z</time>
      </trkpt>
      <trkpt lat="50.738941999152303" lon="14.968343004584312">
        <ele>649.02999999999997</ele>
        <time>2013-09-05T14:57:11Z</time>
      </trkpt>
      <trkpt lat="50.739078037440777" lon="14.968289025127888">
        <ele>649.99000000000001</ele>
        <time>2013-09-05T14:57:12Z</time>
      </trkpt>
      <trkpt lat="50.739208040758967" lon="14.968248959630728">
        <ele>650.95000000000005</ele>
        <time>2013-09-05T14:57:13Z</time>
      </trkpt>
      <trkpt lat="50.739347012713552" lon="14.968242002651095">
        <ele>650.95000000000005</ele>
        <time>2013-09-05T14:57:14Z</time>
      </trkpt>
      <trkpt lat="50.739468969404697" lon="14.968285001814365">
        <ele>650.95000000000005</ele>
        <time>2013-09-05T14:57:15Z</time>
      </trkpt>
      <trkpt lat="50.739561002701521" lon="14.968393966555595">
        <ele>650.47000000000003</ele>
        <time>2013-09-05T14:57:16Z</time>
      </trkpt>
      <trkpt lat="50.739654041826725" lon="14.968493040651083">
        <ele>650.47000000000003</ele>
        <time>2013-09-05T14:57:17Z</time>
      </trkpt>
      <trkpt lat="50.739765018224716" lon="14.96853101067245">
        <ele>650.95000000000005</ele>
        <time>2013-09-05T14:57:18Z</time>
      </trkpt>
      <trkpt lat="50.739872977137566" lon="14.968505026772618">
        <ele>650.95000000000005</ele>
        <time>2013-09-05T14:57:19Z</time>
      </trkpt>
      <trkpt lat="50.739979008212686" lon="14.968394972383976">
        <ele>650.95000000000005</ele>
        <time>2013-09-05T14:57:20Z</time>
      </trkpt>
      <trkpt lat="50.740088978782296" lon="14.968256000429392">
        <ele>651.42999999999995</ele>
        <time>2013-09-05T14:57:21Z</time>
      </trkpt>
      <trkpt lat="50.740185035392642" lon="14.968090038746595">
        <ele>652.87</ele>
        <time>2013-09-05T14:57:22Z</time>
      </trkpt>
      <trkpt lat="50.741140991449356" lon="14.966329000890255">
        <ele>651.90999999999997</ele>
        <time>2013-09-05T14:57:30Z</time>
      </trkpt>
      <trkpt lat="50.74127996340394" lon="14.966118028387427">
        <ele>652.38999999999999</ele>
        <time>2013-09-05T14:57:31Z</time>
      </trkpt>
      <trkpt lat="50.741414995864034" lon="14.965925998985767">
        <ele>652.87</ele>
        <time>2013-09-05T14:57:32Z</time>
      </trkpt>
      <trkpt lat="50.741554973646998" lon="14.9657619651407">
        <ele>653.35000000000002</ele>
        <time>2013-09-05T14:57:33Z</time>
      </trkpt>
      <trkpt lat="50.741696041077375" lon="14.965685019269586">
        <ele>653.35000000000002</ele>
        <time>2013-09-05T14:57:34Z</time>
      </trkpt>
      <trkpt lat="50.741827972233295" lon="14.965662974864244">
        <ele>653.83000000000004</ele>
        <time>2013-09-05T14:57:35Z</time>
      </trkpt>
      <trkpt lat="50.741895027458668" lon="14.965703962370753">
        <ele>654.30999999999995</ele>
        <time>2013-09-05T14:57:36Z</time>
      </trkpt>
      <trkpt lat="50.741936014965177" lon="14.965799013152719">
        <ele>654.30999999999995</ele>
        <time>2013-09-05T14:57:37Z</time>
      </trkpt>
      <trkpt lat="50.741912964731455" lon="14.96590998955071">
        <ele>655.27999999999997</ele>
        <time>2013-09-05T14:57:38Z</time>
      </trkpt>
      <trkpt lat="50.741844987496734" lon="14.966037981212139">
        <ele>655.75999999999999</ele>
        <time>2013-09-05T14:57:39Z</time>
      </trkpt>
      <trkpt lat="50.741761000826955" lon="14.966163961216807">
        <ele>656.24000000000001</ele>
        <time>2013-09-05T14:57:40Z</time>
      </trkpt>
      <trkpt lat="50.741652958095074" lon="14.966281978413463">
        <ele>658.15999999999997</ele>
        <time>2013-09-05T14:57:41Z</time>
      </trkpt>
      <trkpt lat="50.741549022495747" lon="14.966414999216795">
        <ele>659.60000000000002</ele>
        <time>2013-09-05T14:57:42Z</time>
      </trkpt>
      <trkpt lat="50.741224978119135" lon="14.966934006661177">
        <ele>662.00999999999999</ele>
        <time>2013-09-05T14:57:45Z</time>
      </trkpt>
      <trkpt lat="50.74114702641964" lon="14.967164006084204">
        <ele>663.92999999999995</ele>
        <time>2013-09-05T14:57:46Z</time>
      </trkpt>
      <trkpt lat="50.741072008386254" lon="14.96741596609354">
        <ele>665.37</ele>
        <time>2013-09-05T14:57:47Z</time>
      </trkpt>
      <trkpt lat="50.740765985101461" lon="14.96848801150918">
        <ele>668.73000000000002</ele>
        <time>2013-09-05T14:57:51Z</time>
      </trkpt>
      <trkpt lat="50.740656014531851" lon="14.968707030639052">
        <ele>669.22000000000003</ele>
        <time>2013-09-05T14:57:52Z</time>
      </trkpt>
      <trkpt lat="50.740470020100474" lon="14.969081031158566">
        <ele>670.17999999999995</ele>
        <time>2013-09-05T14:57:54Z</time>
      </trkpt>
      <trkpt lat="50.740416962653399" lon="14.969237018376589">
        <ele>671.62</ele>
        <time>2013-09-05T14:57:55Z</time>
      </trkpt>
      <trkpt lat="50.74045903980732" lon="14.969384036958218">
        <ele>672.10000000000002</ele>
        <time>2013-09-05T14:57:56Z</time>
      </trkpt>
      <trkpt lat="50.740534979850054" lon="14.969496019184589">
        <ele>672.10000000000002</ele>
        <time>2013-09-05T14:57:57Z</time>
      </trkpt>
      <trkpt lat="50.740640005096793" lon="14.969543963670731">
        <ele>671.13999999999999</ele>
        <time>2013-09-05T14:57:58Z</time>
      </trkpt>
      <trkpt lat="50.740777971222997" lon="14.969504987820983">
        <ele>669.70000000000005</ele>
        <time>2013-09-05T14:57:59Z</time>
      </trkpt>
      <trkpt lat="50.740881990641356" lon="14.969403985887766">
        <ele>669.70000000000005</ele>
        <time>2013-09-05T14:58:00Z</time>
      </trkpt>
      <trkpt lat="50.740990033373237" lon="14.96928202919662">
        <ele>671.13999999999999</ele>
        <time>2013-09-05T14:58:01Z</time>
      </trkpt>
      <trkpt lat="50.741544999182224" lon="14.968661013990641">
        <ele>674.5</ele>
        <time>2013-09-05T14:58:06Z</time>
      </trkpt>
      <trkpt lat="50.741672990843654" lon="14.968648022040725">
        <ele>675.46000000000004</ele>
        <time>2013-09-05T14:58:07Z</time>
      </trkpt>
      <trkpt lat="50.741763012483716" lon="14.968708958476782">
        <ele>676.41999999999996</ele>
        <time>2013-09-05T14:58:08Z</time>
      </trkpt>
      <trkpt lat="50.741810034960508" lon="14.968830998986959">
        <ele>677.87</ele>
        <time>2013-09-05T14:58:09Z</time>
      </trkpt>
      <trkpt lat="50.7417500205338" lon="14.969021016731858">
        <ele>678.83000000000004</ele>
        <time>2013-09-05T14:58:10Z</time>
      </trkpt>
      <trkpt lat="50.741710960865021" lon="14.969207011163235">
        <ele>679.78999999999996</ele>
        <time>2013-09-05T14:58:11Z</time>
      </trkpt>
      <trkpt lat="50.741652036085725" lon="14.969394011422992">
        <ele>680.75</ele>
        <time>2013-09-05T14:58:12Z</time>
      </trkpt>
      <trkpt lat="50.741558996960521" lon="14.969576988369226">
        <ele>683.63</ele>
        <time>2013-09-05T14:58:13Z</time>
      </trkpt>
      <trkpt lat="50.741462018340826" lon="14.969762982800603">
        <ele>685.08000000000004</ele>
        <time>2013-09-05T14:58:14Z</time>
      </trkpt>
      <trkpt lat="50.74106203392148" lon="14.970578039065003">
        <ele>690.36000000000001</ele>
        <time>2013-09-05T14:58:18Z</time>
      </trkpt>
      <trkpt lat="50.741002019494772" lon="14.970804015174508">
        <ele>691.80999999999995</ele>
        <time>2013-09-05T14:58:19Z</time>
      </trkpt>
      <trkpt lat="50.740962959825993" lon="14.971042983233929">
        <ele>692.76999999999998</ele>
        <time>2013-09-05T14:58:20Z</time>
      </trkpt>
      <trkpt lat="50.740902023389935" lon="14.971805987879634">
        <ele>697.09000000000003</ele>
        <time>2013-09-05T14:58:23Z</time>
      </trkpt>
      <trkpt lat="50.740857012569904" lon="14.972008997574449">
        <ele>698.04999999999995</ele>
        <time>2013-09-05T14:58:24Z</time>
      </trkpt>
      <trkpt lat="50.740790963172913" lon="14.972164984792471">
        <ele>699.5</ele>
        <time>2013-09-05T14:58:25Z</time>
      </trkpt>
      <trkpt lat="50.74067696928978" lon="14.972425997257233">
        <ele>702.38</ele>
        <time>2013-09-05T14:58:27Z</time>
      </trkpt>
      <trkpt lat="50.740681998431683" lon="14.972576033324003">
        <ele>703.34000000000003</ele>
        <time>2013-09-05T14:58:28Z</time>
      </trkpt>
      <trkpt lat="50.740736983716488" lon="14.972669994458556">
        <ele>703.34000000000003</ele>
        <time>2013-09-05T14:58:29Z</time>
      </trkpt>
      <trkpt lat="50.740832034498453" lon="14.972673011943698">
        <ele>703.82000000000005</ele>
        <time>2013-09-05T14:58:30Z</time>
      </trkpt>
      <trkpt lat="50.740919960662723" lon="14.97259397059679">
        <ele>705.25999999999999</ele>
        <time>2013-09-05T14:58:31Z</time>
      </trkpt>
      <trkpt lat="50.740990033373237" lon="14.972445024177432">
        <ele>706.23000000000002</ele>
        <time>2013-09-05T14:58:32Z</time>
      </trkpt>
      <trkpt lat="50.741055998951197" lon="14.972271015867591">
        <ele>707.19000000000005</ele>
        <time>2013-09-05T14:58:33Z</time>
      </trkpt>
      <trkpt lat="50.741125987842679" lon="14.972118968144059">
        <ele>707.66999999999996</ele>
        <time>2013-09-05T14:58:34Z</time>
      </trkpt>
      <trkpt lat="50.741230007261038" lon="14.9720339756459">
        <ele>708.63</ele>
        <time>2013-09-05T14:58:35Z</time>
      </trkpt>
      <trkpt lat="50.741301001980901" lon="14.972088960930705">
        <ele>710.54999999999995</ele>
        <time>2013-09-05T14:58:36Z</time>
      </trkpt>
      <trkpt lat="50.741346012800932" lon="14.972215024754405">
        <ele>711.02999999999997</ele>
        <time>2013-09-05T14:58:37Z</time>
      </trkpt>
      <trkpt lat="50.741359004750848" lon="14.972347961738706">
        <ele>712.47000000000003</ele>
        <time>2013-09-05T14:58:38Z</time>
      </trkpt>
      <trkpt lat="50.741330003365874" lon="14.972495986148715">
        <ele>713.44000000000005</ele>
        <time>2013-09-05T14:58:39Z</time>
      </trkpt>
      <trkpt lat="50.741265965625644" lon="14.972664965316653">
        <ele>714.39999999999998</ele>
        <time>2013-09-05T14:58:40Z</time>
      </trkpt>
      <trkpt lat="50.74112799949944" lon="14.972998984158039">
        <ele>718.72000000000003</ele>
        <time>2013-09-05T14:58:42Z</time>
      </trkpt>
      <trkpt lat="50.741037977859378" lon="14.973156983032823">
        <ele>719.67999999999995</ele>
        <time>2013-09-05T14:58:43Z</time>
      </trkpt>
      <trkpt lat="50.740933958441019" lon="14.973290003836155">
        <ele>720.64999999999998</ele>
        <time>2013-09-05T14:58:44Z</time>
      </trkpt>
      <trkpt lat="50.740724997594953" lon="14.973681019619107">
        <ele>724.49000000000001</ele>
        <time>2013-09-05T14:58:47Z</time>
      </trkpt>
      <trkpt lat="50.740743018686771" lon="14.973840024322271">
        <ele>724.97000000000003</ele>
        <time>2013-09-05T14:58:48Z</time>
      </trkpt>
      <trkpt lat="50.740800015628338" lon="14.973961981013417">
        <ele>725.92999999999995</ele>
        <time>2013-09-05T14:58:49Z</time>
      </trkpt>
      <trkpt lat="50.740900011733174" lon="14.974058037623763">
        <ele>727.37</ele>
        <time>2013-09-05T14:58:50Z</time>
      </trkpt>
      <trkpt lat="50.741017023101449" lon="14.974148981273174">
        <ele>728.34000000000003</ele>
        <time>2013-09-05T14:58:51Z</time>
      </trkpt>
      <trkpt lat="50.741157000884414" lon="14.974242020398378">
        <ele>729.77999999999997</ele>
        <time>2013-09-05T14:58:52Z</time>
      </trkpt>
      <trkpt lat="50.741475010290742" lon="14.974421979859471">
        <ele>732.17999999999995</ele>
        <time>2013-09-05T14:58:54Z</time>
      </trkpt>
      <trkpt lat="50.741637032479048" lon="14.974486017599702">
        <ele>732.65999999999997</ele>
        <time>2013-09-05T14:58:55Z</time>
      </trkpt>
      <trkpt lat="50.742392996326089" lon="14.97467796318233">
        <ele>736.99000000000001</ele>
        <time>2013-09-05T14:59:00Z</time>
      </trkpt>
      <trkpt lat="50.742505984380841" lon="14.974757004529238">
        <ele>737.95000000000005</ele>
        <time>2013-09-05T14:59:01Z</time>
      </trkpt>
      <trkpt lat="50.742598017677665" lon="14.974870998412371">
        <ele>738.90999999999997</ele>
        <time>2013-09-05T14:59:02Z</time>
      </trkpt>
      <trkpt lat="50.742618972435594" lon="14.975028997287154">
        <ele>739.38999999999999</ele>
        <time>2013-09-05T14:59:03Z</time>
      </trkpt>
      <trkpt lat="50.742591982707381" lon="14.975155983120203">
        <ele>740.35000000000002</ele>
        <time>2013-09-05T14:59:04Z</time>
      </trkpt>
      <trkpt lat="50.742562981322408" lon="14.975246004760265">
        <ele>741.30999999999995</ele>
        <time>2013-09-05T14:59:05Z</time>
      </trkpt>
      <trkpt lat="50.742542026564479" lon="14.975329991430044">
        <ele>742.27999999999997</ele>
        <time>2013-09-05T14:59:06Z</time>
      </trkpt>
      <trkpt lat="50.742400959134102" lon="14.975311970338225">
        <ele>741.78999999999996</ele>
        <time>2013-09-05T14:59:07Z</time>
      </trkpt>
      <trkpt lat="50.742236003279686" lon="14.975341977551579">
        <ele>743.24000000000001</ele>
        <time>2013-09-05T14:59:08Z</time>
      </trkpt>
      <trkpt lat="50.742142964154482" lon="14.975444991141558">
        <ele>743.24000000000001</ele>
        <time>2013-09-05T14:59:09Z</time>
      </trkpt>
      <trkpt lat="50.742100970819592" lon="14.975611958652735">
        <ele>745.63999999999999</ele>
        <time>2013-09-05T14:59:10Z</time>
      </trkpt>
      <trkpt lat="50.742100970819592" lon="14.975768029689789">
        <ele>747.55999999999995</ele>
        <time>2013-09-05T14:59:11Z</time>
      </trkpt>
      <trkpt lat="50.74215897358954" lon="14.975930973887444">
        <ele>749</ele>
        <time>2013-09-05T14:59:12Z</time>
      </trkpt>
      <trkpt lat="50.742242038249969" lon="14.976102970540524">
        <ele>750.45000000000005</ele>
        <time>2013-09-05T14:59:13Z</time>
      </trkpt>
      <trkpt lat="50.742340022698045" lon="14.97628603130579">
        <ele>750.92999999999995</ele>
        <time>2013-09-05T14:59:14Z</time>
      </trkpt>
      <trkpt lat="50.742932036519051" lon="14.977506017312407">
        <ele>757.65999999999997</ele>
        <time>2013-09-05T14:59:20Z</time>
      </trkpt>
      <trkpt lat="50.74306002818048" lon="14.977672984823585">
        <ele>758.13999999999999</ele>
        <time>2013-09-05T14:59:21Z</time>
      </trkpt>
      <trkpt lat="50.743193970993161" lon="14.977796031162143">
        <ele>759.10000000000002</ele>
        <time>2013-09-05T14:59:22Z</time>
      </trkpt>
      <trkpt lat="50.743341995403171" lon="14.977875994518399">
        <ele>760.05999999999995</ele>
        <time>2013-09-05T14:59:23Z</time>
      </trkpt>
      <trkpt lat="50.743478033691645" lon="14.977931985631585">
        <ele>760.05999999999995</ele>
        <time>2013-09-05T14:59:24Z</time>
      </trkpt>
      <trkpt lat="50.743596972897649" lon="14.977972973138094">
        <ele>760.53999999999996</ele>
        <time>2013-09-05T14:59:25Z</time>
      </trkpt>
      <trkpt lat="50.743768969550729" lon="14.978058971464634">
        <ele>761.01999999999998</ele>
        <time>2013-09-05T14:59:27Z</time>
      </trkpt>
      <trkpt lat="50.743824960663915" lon="14.9781159684062">
        <ele>761.5</ele>
        <time>2013-09-05T14:59:28Z</time>
      </trkpt>
      <trkpt lat="50.743863014504313" lon="14.978187968954444">
        <ele>762.94000000000005</ele>
        <time>2013-09-05T14:59:29Z</time>
      </trkpt>
      <trkpt lat="50.74392001144588" lon="14.978334987536073">
        <ele>763.41999999999996</ele>
        <time>2013-09-05T14:59:31Z</time>
      </trkpt>
      <trkpt lat="50.743939960375428" lon="14.97841402888298">
        <ele>763.41999999999996</ele>
        <time>2013-09-05T14:59:32Z</time>
      </trkpt>
      <trkpt lat="50.743949012830853" lon="14.978492986410856">
        <ele>763.41999999999996</ele>
        <time>2013-09-05T14:59:33Z</time>
      </trkpt>
      <trkpt lat="50.743955969810486" lon="14.978571021929383">
        <ele>763.41999999999996</ele>
        <time>2013-09-05T14:59:34Z</time>
      </trkpt>
      <trkpt lat="50.743959993124008" lon="14.978640004992485">
        <ele>762.94000000000005</ele>
        <time>2013-09-05T14:59:35Z</time>
      </trkpt>
      <trkpt lat="50.743951024487615" lon="14.97869398444891">
        <ele>762.94000000000005</ele>
        <time>2013-09-05T14:59:36Z</time>
      </trkpt>
      <trkpt lat="50.743937026709318" lon="14.978727009147406">
        <ele>762.94000000000005</ele>
        <time>2013-09-05T14:59:37Z</time>
      </trkpt>
      <trkpt lat="50.743908025324345" lon="14.978716028854251">
        <ele>761.01999999999998</ele>
        <time>2013-09-05T14:59:43Z</time>
      </trkpt>
      <trkpt lat="50.743882963433862" lon="14.978734971955419">
        <ele>761.01999999999998</ele>
        <time>2013-09-05T14:59:44Z</time>
      </trkpt>
      <trkpt lat="50.743835018947721" lon="14.97875701636076">
        <ele>761.01999999999998</ele>
        <time>2013-09-05T14:59:45Z</time>
      </trkpt>
      <trkpt lat="50.743771987035871" lon="14.978767996653914">
        <ele>760.53999999999996</ele>
        <time>2013-09-05T14:59:46Z</time>
      </trkpt>
      <trkpt lat="50.743696969002485" lon="14.978774031624198">
        <ele>760.53999999999996</ele>
        <time>2013-09-05T14:59:47Z</time>
      </trkpt>
      <trkpt lat="50.743192965164781" lon="14.978791968896985">
        <ele>760.53999999999996</ele>
        <time>2013-09-05T14:59:52Z</time>
      </trkpt>
      <trkpt lat="50.743088023737073" lon="14.978769002482295">
        <ele>760.53999999999996</ele>
        <time>2013-09-05T14:59:53Z</time>
      </trkpt>
      <trkpt lat="50.742603968828917" lon="14.978613015264273">
        <ele>761.01999999999998</ele>
        <time>2013-09-05T14:59:57Z</time>
      </trkpt>
      <trkpt lat="50.742462985217571" lon="14.978605974465609">
        <ele>761.5</ele>
        <time>2013-09-05T14:59:58Z</time>
      </trkpt>
      <trkpt lat="50.742322001606226" lon="14.978619972243905">
        <ele>761.98000000000002</ele>
        <time>2013-09-05T14:59:59Z</time>
      </trkpt>
      <trkpt lat="50.74217900633812" lon="14.978663977235556">
        <ele>762.46000000000004</ele>
        <time>2013-09-05T15:00:00Z</time>
      </trkpt>
      <trkpt lat="50.742036011070013" lon="14.978724997490644">
        <ele>762.94000000000005</ele>
        <time>2013-09-05T15:00:01Z</time>
      </trkpt>
      <trkpt lat="50.740689961239696" lon="14.97905801050365">
        <ele>769.19000000000005</ele>
        <time>2013-09-05T15:00:10Z</time>
      </trkpt>
      <trkpt lat="50.740560041740537" lon="14.979092963039875">
        <ele>770.14999999999998</ele>
        <time>2013-09-05T15:00:11Z</time>
      </trkpt>
      <trkpt lat="50.740447975695133" lon="14.979182984679937">
        <ele>771.60000000000002</ele>
        <time>2013-09-05T15:00:12Z</time>
      </trkpt>
      <trkpt lat="50.740356026217341" lon="14.97933897189796">
        <ele>772.55999999999995</ele>
        <time>2013-09-05T15:00:13Z</time>
      </trkpt>
      <trkpt lat="50.74026701040566" lon="14.979495964944363">
        <ele>773.51999999999998</ele>
        <time>2013-09-05T15:00:14Z</time>
      </trkpt>
      <trkpt lat="50.740180006250739" lon="14.979664022102952">
        <ele>774</ele>
        <time>2013-09-05T15:00:15Z</time>
      </trkpt>
      <trkpt lat="50.740081015974283" lon="14.979816991835833">
        <ele>774.96000000000004</ele>
        <time>2013-09-05T15:00:16Z</time>
      </trkpt>
      <trkpt lat="50.739974984899163" lon="14.979956969618797">
        <ele>775.44000000000005</ele>
        <time>2013-09-05T15:00:17Z</time>
      </trkpt>
      <trkpt lat="50.739791002124548" lon="14.980275984853506">
        <ele>777.36000000000001</ele>
        <time>2013-09-05T15:00:19Z</time>
      </trkpt>
      <trkpt lat="50.73973098769784" lon="14.980471031740308">
        <ele>778.32000000000005</ele>
        <time>2013-09-05T15:00:20Z</time>
      </trkpt>
      <trkpt lat="50.739690000191331" lon="14.980698013678193">
        <ele>779.28999999999996</ele>
        <time>2013-09-05T15:00:21Z</time>
      </trkpt>
      <trkpt lat="50.73945103213191" lon="14.982385961338878">
        <ele>787.46000000000004</ele>
        <time>2013-09-05T15:00:28Z</time>
      </trkpt>
      <trkpt lat="50.739393029361963" lon="14.982605986297131">
        <ele>787.94000000000005</ele>
        <time>2013-09-05T15:00:29Z</time>
      </trkpt>
      <trkpt lat="50.73932496830821" lon="14.982829028740525">
        <ele>787.94000000000005</ele>
        <time>2013-09-05T15:00:30Z</time>
      </trkpt>
      <trkpt lat="50.738686015829444" lon="14.984364006668329">
        <ele>796.11000000000001</ele>
        <time>2013-09-05T15:00:37Z</time>
      </trkpt>
      <trkpt lat="50.738615021109581" lon="14.984597023576498">
        <ele>798.50999999999999</ele>
        <time>2013-09-05T15:00:38Z</time>
      </trkpt>
      <trkpt lat="50.738346967846155" lon="14.985521966591477">
        <ele>805.72000000000003</ele>
        <time>2013-09-05T15:00:42Z</time>
      </trkpt>
      <trkpt lat="50.738246971741319" lon="14.985709972679615">
        <ele>809.09000000000003</ele>
        <time>2013-09-05T15:00:43Z</time>
      </trkpt>
      <trkpt lat="50.738146975636482" lon="14.985908959060907">
        <ele>810.52999999999997</ele>
        <time>2013-09-05T15:00:44Z</time>
      </trkpt>
      <trkpt lat="50.738041028380394" lon="14.986097970977426">
        <ele>811.97000000000003</ele>
        <time>2013-09-05T15:00:45Z</time>
      </trkpt>
      <trkpt lat="50.737924017012119" lon="14.986259993165731">
        <ele>812.45000000000005</ele>
        <time>2013-09-05T15:00:46Z</time>
      </trkpt>
      <trkpt lat="50.737790996208787" lon="14.986396031454206">
        <ele>814.85000000000002</ele>
        <time>2013-09-05T15:00:47Z</time>
      </trkpt>
      <trkpt lat="50.737664010375738" lon="14.986541038379073">
        <ele>816.29999999999995</ele>
        <time>2013-09-05T15:00:48Z</time>
      </trkpt>
      <trkpt lat="50.73753903619945" lon="14.986676992848516">
        <ele>818.22000000000003</ele>
        <time>2013-09-05T15:00:49Z</time>
      </trkpt>
      <trkpt lat="50.737439962103963" lon="14.986852006986737">
        <ele>819.17999999999995</ele>
        <time>2013-09-05T15:00:50Z</time>
      </trkpt>
      <trkpt lat="50.737367961555719" lon="14.98705199919641">
        <ele>821.58000000000004</ele>
        <time>2013-09-05T15:00:51Z</time>
      </trkpt>
      <trkpt lat="50.73730300180614" lon="14.987262971699238">
        <ele>824.95000000000005</ele>
        <time>2013-09-05T15:00:52Z</time>
      </trkpt>
      <trkpt lat="50.737247010692954" lon="14.987462041899562">
        <ele>828.30999999999995</ele>
        <time>2013-09-05T15:00:53Z</time>
      </trkpt>
      <trkpt lat="50.737209040671587" lon="14.987658010795712">
        <ele>829.26999999999998</ele>
        <time>2013-09-05T15:00:54Z</time>
      </trkpt>
      <trkpt lat="50.737180961295962" lon="14.987850040197372">
        <ele>829.75999999999999</ele>
        <time>2013-09-05T15:00:55Z</time>
      </trkpt>
      <trkpt lat="50.737172998487949" lon="14.988043997436762">
        <ele>829.26999999999998</ele>
        <time>2013-09-05T15:00:56Z</time>
      </trkpt>
      <trkpt lat="50.737168975174427" lon="14.988213982433081">
        <ele>829.26999999999998</ele>
        <time>2013-09-05T15:00:57Z</time>
      </trkpt>
      <trkpt lat="50.73717400431633" lon="14.988383967429399">
        <ele>829.26999999999998</ele>
        <time>2013-09-05T15:00:58Z</time>
      </trkpt>
      <trkpt lat="50.737188002094626" lon="14.988682027906179">
        <ele>829.26999999999998</ele>
        <time>2013-09-05T15:01:00Z</time>
      </trkpt>
      <trkpt lat="50.737166041508317" lon="14.988800967112184">
        <ele>829.75999999999999</ele>
        <time>2013-09-05T15:01:01Z</time>
      </trkpt>
      <trkpt lat="50.737114995718002" lon="14.988899035379291">
        <ele>830.24000000000001</ele>
        <time>2013-09-05T15:01:02Z</time>
      </trkpt>
      <trkpt lat="50.737032014876604" lon="14.988954020664096">
        <ele>830.72000000000003</ele>
        <time>2013-09-05T15:01:03Z</time>
      </trkpt>
      <trkpt lat="50.736935958266258" lon="14.988970030099154">
        <ele>831.67999999999995</ele>
        <time>2013-09-05T15:01:04Z</time>
      </trkpt>
      <trkpt lat="50.736832022666931" lon="14.988969024270773">
        <ele>833.12</ele>
        <time>2013-09-05T15:01:05Z</time>
      </trkpt>
      <trkpt lat="50.736715011298656" lon="14.988943040370941">
        <ele>834.55999999999995</ele>
        <time>2013-09-05T15:01:06Z</time>
      </trkpt>
      <trkpt lat="50.73659498244524" lon="14.988914960995317">
        <ele>836.48000000000002</ele>
        <time>2013-09-05T15:01:07Z</time>
      </trkpt>
      <trkpt lat="50.736368000507355" lon="14.988820999860764">
        <ele>839.37</ele>
        <time>2013-09-05T15:01:09Z</time>
      </trkpt>
      <trkpt lat="50.736260041594505" lon="14.988738019019365">
        <ele>841.28999999999996</ele>
        <time>2013-09-05T15:01:10Z</time>
      </trkpt>
      <trkpt lat="50.736029958352447" lon="14.988548001274467">
        <ele>844.65999999999997</ele>
        <time>2013-09-05T15:01:12Z</time>
      </trkpt>
      <trkpt lat="50.735895009711385" lon="14.988488992676139">
        <ele>847.05999999999995</ele>
        <time>2013-09-05T15:01:13Z</time>
      </trkpt>
      <trkpt lat="50.735751008614898" lon="14.988453034311533">
        <ele>848.5</ele>
        <time>2013-09-05T15:01:14Z</time>
      </trkpt>
      <trkpt lat="50.73545697145164" lon="14.988370975479484">
        <ele>851.87</ele>
        <time>2013-09-05T15:01:16Z</time>
      </trkpt>
      <trkpt lat="50.735163018107414" lon="14.988257987424731">
        <ele>855.71000000000004</ele>
        <time>2013-09-05T15:01:18Z</time>
      </trkpt>
      <trkpt lat="50.735012982040644" lon="14.988240972161293">
        <ele>857.63</ele>
        <time>2013-09-05T15:01:19Z</time>
      </trkpt>
      <trkpt lat="50.734859006479383" lon="14.988257987424731">
        <ele>859.55999999999995</ele>
        <time>2013-09-05T15:01:20Z</time>
      </trkpt>
      <trkpt lat="50.733578000217676" lon="14.988228986039758">
        <ele>872.04999999999995</ele>
        <time>2013-09-05T15:01:28Z</time>
      </trkpt>
      <trkpt lat="50.732823964208364" lon="14.988296963274479">
        <ele>880.22000000000003</ele>
        <time>2013-09-05T15:01:33Z</time>
      </trkpt>
      <trkpt lat="50.732679963111877" lon="14.988292017951608">
        <ele>881.19000000000005</ele>
        <time>2013-09-05T15:01:34Z</time>
      </trkpt>
      <trkpt lat="50.732535040006042" lon="14.988262010738254">
        <ele>882.14999999999998</ele>
        <time>2013-09-05T15:01:35Z</time>
      </trkpt>
      <trkpt lat="50.732386009767652" lon="14.988242983818054">
        <ele>883.11000000000001</ele>
        <time>2013-09-05T15:01:36Z</time>
      </trkpt>
      <trkpt lat="50.732236979529262" lon="14.988257987424731">
        <ele>884.07000000000005</ele>
        <time>2013-09-05T15:01:37Z</time>
      </trkpt>
      <trkpt lat="50.732093984261155" lon="14.988302998244762">
        <ele>884.54999999999995</ele>
        <time>2013-09-05T15:01:38Z</time>
      </trkpt>
      <trkpt lat="50.731959035620093" lon="14.988358989357948">
        <ele>885.50999999999999</ele>
        <time>2013-09-05T15:01:39Z</time>
      </trkpt>
      <trkpt lat="50.731839006766677" lon="14.988399976864457">
        <ele>886.95000000000005</ele>
        <time>2013-09-05T15:01:40Z</time>
      </trkpt>
      <trkpt lat="50.731711015105247" lon="14.988388996571302">
        <ele>887.90999999999997</ele>
        <time>2013-09-05T15:01:41Z</time>
      </trkpt>
      <trkpt lat="50.731586962938309" lon="14.988367035984993">
        <ele>889.36000000000001</ele>
        <time>2013-09-05T15:01:42Z</time>
      </trkpt>
      <trkpt lat="50.731457965448499" lon="14.988351026549935">
        <ele>890.32000000000005</ele>
        <time>2013-09-05T15:01:43Z</time>
      </trkpt>
      <trkpt lat="50.731316981837153" lon="14.98834197409451">
        <ele>891.27999999999997</ele>
        <time>2013-09-05T15:01:44Z</time>
      </trkpt>
      <trkpt lat="50.731019005179405" lon="14.988294029608369">
        <ele>893.67999999999995</ele>
        <time>2013-09-05T15:00:25Z</time>
      </trkpt>
      <trkpt lat="50.730883972719312" lon="14.988204007968307">
        <ele>895.61000000000001</ele>
        <time>2013-09-05T15:00:26Z</time>
      </trkpt>
      <trkpt lat="50.730775007978082" lon="14.988112980499864">
        <ele>897.52999999999997</ele>
        <time>2013-09-05T15:00:27Z</time>
      </trkpt>
      <trkpt lat="50.730647016316652" lon="14.988047014921904">
        <ele>898.97000000000003</ele>
        <time>2013-09-05T15:00:28Z</time>
      </trkpt>
      <trkpt lat="50.730508966371417" lon="14.988011978566647">
        <ele>900.40999999999997</ele>
        <time>2013-09-05T15:00:29Z</time>
      </trkpt>
      <trkpt lat="50.730381980538368" lon="14.98799798078835">
        <ele>900.88999999999999</ele>
        <time>2013-09-05T15:00:30Z</time>
      </trkpt>
      <trkpt lat="50.730272009968758" lon="14.987976020202041">
        <ele>902.82000000000005</ele>
        <time>2013-09-05T15:00:31Z</time>
      </trkpt>
      <trkpt lat="50.730176037177444" lon="14.987903013825417">
        <ele>903.77999999999997</ele>
        <time>2013-09-05T15:00:32Z</time>
      </trkpt>
      <trkpt lat="50.730135971680284" lon="14.987782984972">
        <ele>905.22000000000003</ele>
        <time>2013-09-05T15:00:33Z</time>
      </trkpt>
      <trkpt lat="50.730125997215509" lon="14.987664967775345">
        <ele>906.17999999999995</ele>
        <time>2013-09-05T15:00:34Z</time>
      </trkpt>
      <trkpt lat="50.730136977508664" lon="14.987547034397721">
        <ele>907.13999999999999</ele>
        <time>2013-09-05T15:00:35Z</time>
      </trkpt>
      <trkpt lat="50.730166984722018" lon="14.987431028857827">
        <ele>907.62</ele>
        <time>2013-09-05T15:00:36Z</time>
      </trkpt>
      <trkpt lat="50.73021300137043" lon="14.987306976690888">
        <ele>908.10000000000002</ele>
        <time>2013-09-05T15:00:37Z</time>
      </trkpt>
      <trkpt lat="50.730265974998474" lon="14.987203041091561">
        <ele>908.58000000000004</ele>
        <time>2013-09-05T15:00:38Z</time>
      </trkpt>
      <trkpt lat="50.73032196611166" lon="14.987111007794738">
        <ele>909.53999999999996</ele>
        <time>2013-09-05T15:00:39Z</time>
      </trkpt>
      <trkpt lat="50.730434032157063" lon="14.986912021413445">
        <ele>912.42999999999995</ele>
        <time>2013-09-05T15:00:41Z</time>
      </trkpt>
      <trkpt lat="50.730478037148714" lon="14.986786963418126">
        <ele>912.90999999999997</ele>
        <time>2013-09-05T15:00:42Z</time>
      </trkpt>
      <trkpt lat="50.730525981634855" lon="14.98664204031229">
        <ele>914.35000000000002</ele>
        <time>2013-09-05T15:00:43Z</time>
      </trkpt>
      <trkpt lat="50.730667971074581" lon="14.986008033156395">
        <ele>915.78999999999996</ele>
        <time>2013-09-05T15:00:47Z</time>
      </trkpt>
      <trkpt lat="50.73072899132967" lon="14.985845005139709">
        <ele>916.75</ele>
        <time>2013-09-05T15:00:48Z</time>
      </trkpt>
      <trkpt lat="50.731256967410445" lon="14.984640022739768">
        <ele>923</ele>
        <time>2013-09-05T15:00:56Z</time>
      </trkpt>
      <trkpt lat="50.731306001543999" lon="14.984485963359475">
        <ele>923.48000000000002</ele>
        <time>2013-09-05T15:00:57Z</time>
      </trkpt>
      <trkpt lat="50.731345983222127" lon="14.984332993626595">
        <ele>924.92999999999995</ele>
        <time>2013-09-05T15:00:58Z</time>
      </trkpt>
      <trkpt lat="50.731378002092242" lon="14.98417398892343">
        <ele>925.88999999999999</ele>
        <time>2013-09-05T15:00:59Z</time>
      </trkpt>
      <trkpt lat="50.731398034840822" lon="14.984016995877028">
        <ele>928.28999999999996</ele>
        <time>2013-09-05T15:01:00Z</time>
      </trkpt>
      <trkpt lat="50.731396023184061" lon="14.983852040022612">
        <ele>929.73000000000002</ele>
        <time>2013-09-05T15:01:01Z</time>
      </trkpt>
      <trkpt lat="50.731389988213778" lon="14.983683982864022">
        <ele>930.69000000000005</ele>
        <time>2013-09-05T15:01:02Z</time>
      </trkpt>
      <trkpt lat="50.731387976557016" lon="14.983331020921469">
        <ele>932.62</ele>
        <time>2013-09-05T15:01:04Z</time>
      </trkpt>
      <trkpt lat="50.731401974335313" lon="14.983158018440008">
        <ele>933.10000000000002</ele>
        <time>2013-09-05T15:01:05Z</time>
      </trkpt>
      <trkpt lat="50.731600038707256" lon="14.982149004936218">
        <ele>937.41999999999996</ele>
        <time>2013-09-05T15:01:11Z</time>
      </trkpt>
      <trkpt lat="50.731656029820442" lon="14.982006009668112">
        <ele>938.38</ele>
        <time>2013-09-05T15:01:12Z</time>
      </trkpt>
      <trkpt lat="50.731840012595057" lon="14.981632009148598">
        <ele>943.19000000000005</ele>
        <time>2013-09-05T15:01:15Z</time>
      </trkpt>
      <trkpt lat="50.731896003708243" lon="14.981547016650438">
        <ele>944.63</ele>
        <time>2013-09-05T15:01:16Z</time>
      </trkpt>
      <trkpt lat="50.731948977336287" lon="14.981483984738588">
        <ele>945.11000000000001</ele>
        <time>2013-09-05T15:01:17Z</time>
      </trkpt>
      <trkpt lat="50.732006980106235" lon="14.981449032202363">
        <ele>946.55999999999995</ele>
        <time>2013-09-05T15:01:18Z</time>
      </trkpt>
      <trkpt lat="50.732064982876182" lon="14.98144400306046">
        <ele>948.48000000000002</ele>
        <time>2013-09-05T15:01:19Z</time>
      </trkpt>
      <trkpt lat="50.732141006737947" lon="14.98146403580904">
        <ele>950.39999999999998</ele>
        <time>2013-09-05T15:01:20Z</time>
      </trkpt>
      <trkpt lat="50.732219964265823" lon="14.981505023315549">
        <ele>951.36000000000001</ele>
        <time>2013-09-05T15:01:21Z</time>
      </trkpt>
      <trkpt lat="50.732281990349293" lon="14.981553973630071">
        <ele>952.79999999999995</ele>
        <time>2013-09-05T15:01:22Z</time>
      </trkpt>
      <trkpt lat="50.732346028089523" lon="14.981622034683824">
        <ele>954.25</ele>
        <time>2013-09-05T15:01:23Z</time>
      </trkpt>
      <trkpt lat="50.732381986454129" lon="14.981719013303518">
        <ele>955.69000000000005</ele>
        <time>2013-09-05T15:01:24Z</time>
      </trkpt>
      <trkpt lat="50.732420040294528" lon="14.981824038550258">
        <ele>957.61000000000001</ele>
        <time>2013-09-05T15:01:25Z</time>
      </trkpt>
      <trkpt lat="50.732906023040414" lon="14.983228007331491">
        <ele>972.99000000000001</ele>
        <time>2013-09-05T15:01:37Z</time>
      </trkpt>
      <trkpt lat="50.733009958639741" lon="14.983518021181226">
        <ele>975.38999999999999</ele>
        <time>2013-09-05T15:01:40Z</time>
      </trkpt>
      <trkpt lat="50.733032003045082" lon="14.983617011457682">
        <ele>976.36000000000001</ele>
        <time>2013-09-05T15:01:41Z</time>
      </trkpt>
      <trkpt lat="50.733040971681476" lon="14.983707033097744">
        <ele>977.32000000000005</ele>
        <time>2013-09-05T15:01:42Z</time>
      </trkpt>
      <trkpt lat="50.733047006651759" lon="14.9838060233742">
        <ele>978.75999999999999</ele>
        <time>2013-09-05T15:01:43Z</time>
      </trkpt>
      <trkpt lat="50.733053963631392" lon="14.983907025307417">
        <ele>979.72000000000003</ele>
        <time>2013-09-05T15:01:44Z</time>
      </trkpt>
      <trkpt lat="50.733090005815029" lon="14.984703976660967">
        <ele>986.45000000000005</ele>
        <time>2013-09-05T15:01:51Z</time>
      </trkpt>
      <trkpt lat="50.733080031350255" lon="14.9848179705441">
        <ele>987.40999999999997</ele>
        <time>2013-09-05T15:01:52Z</time>
      </trkpt>
      <trkpt lat="50.733066033571959" lon="14.984930036589503">
        <ele>988.37</ele>
        <time>2013-09-05T15:01:53Z</time>
      </trkpt>
      <trkpt lat="50.73304901830852" lon="14.985031960532069">
        <ele>989.33000000000004</ele>
        <time>2013-09-05T15:01:54Z</time>
      </trkpt>
      <trkpt lat="50.73302898555994" lon="14.985123993828893">
        <ele>990.29999999999995</ele>
        <time>2013-09-05T15:01:55Z</time>
      </trkpt>
      <trkpt lat="50.73294198140502" lon="14.98546103015542">
        <ele>993.17999999999995</ele>
        <time>2013-09-05T15:02:03Z</time>
      </trkpt>
      <trkpt lat="50.73289998807013" lon="14.985519032925367">
        <ele>992.22000000000003</ele>
        <time>2013-09-05T15:03:27Z</time>
      </trkpt>
      <trkpt lat="50.732849026098847" lon="14.985579969361424">
        <ele>991.74000000000001</ele>
        <time>2013-09-05T15:03:28Z</time>
      </trkpt>
      <trkpt lat="50.732789011672139" lon="14.985608970746398">
        <ele>991.25999999999999</ele>
        <time>2013-09-05T15:03:29Z</time>
      </trkpt>
      <trkpt lat="50.732742995023727" lon="14.985593967139721">
        <ele>991.74000000000001</ele>
        <time>2013-09-05T15:03:30Z</time>
      </trkpt>
      <trkpt lat="50.732694966718554" lon="14.985563959926367">
        <ele>992.70000000000005</ele>
        <time>2013-09-05T15:03:31Z</time>
      </trkpt>
      <trkpt lat="50.732659008353949" lon="14.985530013218522">
        <ele>993.17999999999995</ele>
        <time>2013-09-05T15:03:32Z</time>
      </trkpt>
      <trkpt lat="50.732630006968975" lon="14.985486008226871">
        <ele>993.65999999999997</ele>
        <time>2013-09-05T15:03:33Z</time>
      </trkpt>
      <trkpt lat="50.732592036947608" lon="14.985407972708344">
        <ele>994.13999999999999</ele>
        <time>2013-09-05T15:03:34Z</time>
      </trkpt>
      <trkpt lat="50.732560018077493" lon="14.985338989645243">
        <ele>994.13999999999999</ele>
        <time>2013-09-05T15:03:35Z</time>
      </trkpt>
      <trkpt lat="50.732461027801037" lon="14.985077977180481">
        <ele>995.58000000000004</ele>
        <time>2013-09-05T15:03:38Z</time>
      </trkpt>
      <trkpt lat="50.732436971738935" lon="14.984974041581154">
        <ele>996.05999999999995</ele>
        <time>2013-09-05T15:03:39Z</time>
      </trkpt>
      <trkpt lat="50.732422973960638" lon="14.984874967485666">
        <ele>997.01999999999998</ele>
        <time>2013-09-05T15:03:40Z</time>
      </trkpt>
      <trkpt lat="50.732423979789019" lon="14.984777988865972">
        <ele>997.99000000000001</ele>
        <time>2013-09-05T15:03:41Z</time>
      </trkpt>
      <trkpt lat="50.732420962303877" lon="14.984684027731419">
        <ele>998.95000000000005</ele>
        <time>2013-09-05T15:03:42Z</time>
      </trkpt>
      <trkpt lat="50.732420962303877" lon="14.984590988606215">
        <ele>999.42999999999995</ele>
        <time>2013-09-05T15:03:43Z</time>
      </trkpt>
      <trkpt lat="50.732424985617399" lon="14.984505996108055">
        <ele>999.90999999999997</ele>
        <time>2013-09-05T15:03:44Z</time>
      </trkpt>
      <trkpt lat="50.732431020587683" lon="14.984445981681347">
        <ele>1000.39</ele>
        <time>2013-09-05T15:03:45Z</time>
      </trkpt>
      <trkpt lat="50.732440995052457" lon="14.984398037195206">
        <ele>1000.87</ele>
        <time>2013-09-05T15:03:46Z</time>
      </trkpt>
      <trkpt lat="50.732458010315895" lon="14.984357971698046">
        <ele>1001.35</ele>
        <time>2013-09-05T15:03:47Z</time>
      </trkpt>
      <trkpt lat="50.732476031407714" lon="14.984321007505059">
        <ele>1001.35</ele>
        <time>2013-09-05T15:03:48Z</time>
      </trkpt>
      <trkpt lat="50.73249296285212" lon="14.984296029433608">
        <ele>1002.3099999999999</ele>
        <time>2013-09-05T15:03:49Z</time>
      </trkpt>
      <trkpt lat="50.732506960630417" lon="14.984275996685028">
        <ele>1003.27</ele>
        <time>2013-09-05T15:03:50Z</time>
      </trkpt>
      <trkpt lat="50.732518024742603" lon="14.984271973371506">
        <ele>1003.75</ele>
        <time>2013-09-05T15:03:51Z</time>
      </trkpt>
      <trkpt lat="50.73272698558867" lon="14.984326036646962">
        <ele>1008.08</ele>
        <time>2013-09-05T15:04:03Z</time>
      </trkpt>
      <trkpt lat="50.732852965593338" lon="14.984612027183175">
        <ele>1009.52</ele>
        <time>2013-09-05T15:04:14Z</time>
      </trkpt>
      <trkpt lat="50.732866963371634" lon="14.984626024961472">
        <ele>1009.52</ele>
        <time>2013-09-05T15:04:16Z</time>
      </trkpt>
      <trkpt lat="50.732933012768626" lon="14.984628958627582">
        <ele>1010.96</ele>
        <time>2013-09-05T15:04:24Z</time>
      </trkpt>
      <trkpt lat="50.732976011931896" lon="14.984545977786183">
        <ele>1012.41</ele>
        <time>2013-09-05T15:04:36Z</time>
      </trkpt>
      <trkpt lat="50.732465973123908" lon="14.984164014458656">
        <ele>1007.6</ele>
        <time>2013-09-05T15:07:03Z</time>
      </trkpt>
      <trkpt lat="50.73238299228251" lon="14.984465008601546">
        <ele>1004.72</ele>
        <time>2013-09-05T15:07:09Z</time>
      </trkpt>
      <trkpt lat="50.732385003939271" lon="14.98455997556448">
        <ele>1004.23</ele>
        <time>2013-09-05T15:07:10Z</time>
      </trkpt>
      <trkpt lat="50.73238299228251" lon="14.984640022739768">
        <ele>1003.75</ele>
        <time>2013-09-05T15:07:11Z</time>
      </trkpt>
      <trkpt lat="50.732391038909554" lon="14.984728032723069">
        <ele>1003.75</ele>
        <time>2013-09-05T15:07:12Z</time>
      </trkpt>
      <trkpt lat="50.7324059586972" lon="14.984831968322396">
        <ele>1003.27</ele>
        <time>2013-09-05T15:07:13Z</time>
      </trkpt>
      <trkpt lat="50.73240696452558" lon="14.984905980527401">
        <ele>1002.3099999999999</ele>
        <time>2013-09-05T15:07:14Z</time>
      </trkpt>
      <trkpt lat="50.73244996368885" lon="14.985220972448587">
        <ele>1000.39</ele>
        <time>2013-09-05T15:07:22Z</time>
      </trkpt>
      <trkpt lat="50.732531016692519" lon="14.98539799824357">
        <ele>999.90999999999997</ele>
        <time>2013-09-05T15:08:06Z</time>
      </trkpt>
      <trkpt lat="50.732639981433749" lon="14.985560020431876">
        <ele>998.47000000000003</ele>
        <time>2013-09-05T15:08:09Z</time>
      </trkpt>
      <trkpt lat="50.732687003910542" lon="14.985576029866934">
        <ele>997.50999999999999</ele>
        <time>2013-09-05T15:08:10Z</time>
      </trkpt>
      <trkpt lat="50.732734026387334" lon="14.985579969361424">
        <ele>996.53999999999996</ele>
        <time>2013-09-05T15:08:11Z</time>
      </trkpt>
      <trkpt lat="50.732779959216714" lon="14.985578041523695">
        <ele>996.05999999999995</ele>
        <time>2013-09-05T15:08:12Z</time>
      </trkpt>
      <trkpt lat="50.732832010835409" lon="14.985559014603496">
        <ele>995.58000000000004</ele>
        <time>2013-09-05T15:08:13Z</time>
      </trkpt>
      <trkpt lat="50.73287702165544" lon="14.985508974641562">
        <ele>994.62</ele>
        <time>2013-09-05T15:08:14Z</time>
      </trkpt>
      <trkpt lat="50.73289898224175" lon="14.985429011285305">
        <ele>994.13999999999999</ele>
        <time>2013-09-05T15:08:15Z</time>
      </trkpt>
      <trkpt lat="50.732925971969962" lon="14.985364973545074">
        <ele>994.13999999999999</ele>
        <time>2013-09-05T15:08:16Z</time>
      </trkpt>
      <trkpt lat="50.732951033860445" lon="14.985299007967114">
        <ele>994.13999999999999</ele>
        <time>2013-09-05T15:08:17Z</time>
      </trkpt>
      <trkpt lat="50.732958996668458" lon="14.985232036560774">
        <ele>993.65999999999997</ele>
        <time>2013-09-05T15:08:18Z</time>
      </trkpt>
      <trkpt lat="50.733086988329887" lon="14.984715962782502">
        <ele>989.80999999999995</ele>
        <time>2013-09-05T15:08:24Z</time>
      </trkpt>
      <trkpt lat="50.73309201747179" lon="14.984604986384511">
        <ele>988.85000000000002</ele>
        <time>2013-09-05T15:08:25Z</time>
      </trkpt>
      <trkpt lat="50.733087994158268" lon="14.984500966966152">
        <ele>988.37</ele>
        <time>2013-09-05T15:08:26Z</time>
      </trkpt>
      <trkpt lat="50.733019011095166" lon="14.983491031453013">
        <ele>982.12</ele>
        <time>2013-09-05T15:08:34Z</time>
      </trkpt>
      <trkpt lat="50.732987998053432" lon="14.983374020084739">
        <ele>981.15999999999997</ele>
        <time>2013-09-05T15:08:35Z</time>
      </trkpt>
      <trkpt lat="50.732954973354936" lon="14.983265977352858">
        <ele>980.67999999999995</ele>
        <time>2013-09-05T15:08:36Z</time>
      </trkpt>
      <trkpt lat="50.732659008353949" lon="14.982365006580949">
        <ele>972.02999999999997</ele>
        <time>2013-09-05T15:08:44Z</time>
      </trkpt>
      <trkpt lat="50.732329012826085" lon="14.981613988056779">
        <ele>964.82000000000005</ele>
        <time>2013-09-05T15:08:51Z</time>
      </trkpt>
      <trkpt lat="50.732262041419744" lon="14.981536036357284">
        <ele>963.86000000000001</ele>
        <time>2013-09-05T15:08:52Z</time>
      </trkpt>
      <trkpt lat="50.73218802921474" lon="14.981482978910208">
        <ele>962.89999999999998</ele>
        <time>2013-09-05T15:08:53Z</time>
      </trkpt>
      <trkpt lat="50.73210597038269" lon="14.981465041637421">
        <ele>961.94000000000005</ele>
        <time>2013-09-05T15:08:54Z</time>
      </trkpt>
      <trkpt lat="50.732026007026434" lon="14.981479961425066">
        <ele>960.49000000000001</ele>
        <time>2013-09-05T15:08:55Z</time>
      </trkpt>
      <trkpt lat="50.731951994821429" lon="14.981531007215381">
        <ele>959.52999999999997</ele>
        <time>2013-09-05T15:08:56Z</time>
      </trkpt>
      <trkpt lat="50.731893992051482" lon="14.981619017198682">
        <ele>959.04999999999995</ele>
        <time>2013-09-05T15:08:57Z</time>
      </trkpt>
      <trkpt lat="50.731840012595057" lon="14.981713984161615">
        <ele>959.04999999999995</ele>
        <time>2013-09-05T15:08:58Z</time>
      </trkpt>
      <trkpt lat="50.731590986251831" lon="14.982244977727532">
        <ele>956.16999999999996</ele>
        <time>2013-09-05T15:09:03Z</time>
      </trkpt>
      <trkpt lat="50.731553016230464" lon="14.982384033501148">
        <ele>955.21000000000004</ele>
        <time>2013-09-05T15:09:04Z</time>
      </trkpt>
      <trkpt lat="50.731511022895575" lon="14.982537003234029">
        <ele>954.73000000000002</ele>
        <time>2013-09-05T15:09:05Z</time>
      </trkpt>
      <trkpt lat="50.7313940115273" lon="14.983211997896433">
        <ele>950.88</ele>
        <time>2013-09-05T15:09:09Z</time>
      </trkpt>
      <trkpt lat="50.731390994042158" lon="14.98342196457088">
        <ele>948.96000000000004</ele>
        <time>2013-09-05T15:09:10Z</time>
      </trkpt>
      <trkpt lat="50.7313940115273" lon="14.983606031164527">
        <ele>948</ele>
        <time>2013-09-05T15:09:11Z</time>
      </trkpt>
      <trkpt lat="50.731405997648835" lon="14.983793031424284">
        <ele>947.03999999999996</ele>
        <time>2013-09-05T15:09:12Z</time>
      </trkpt>
      <trkpt lat="50.731413038447499" lon="14.983970979228616">
        <ele>946.55999999999995</ele>
        <time>2013-09-05T15:09:13Z</time>
      </trkpt>
      <trkpt lat="50.731402980163693" lon="14.984154962003231">
        <ele>946.07000000000005</ele>
        <time>2013-09-05T15:09:14Z</time>
      </trkpt>
      <trkpt lat="50.731383031234145" lon="14.984326958656311">
        <ele>945.11000000000001</ele>
        <time>2013-09-05T15:09:15Z</time>
      </trkpt>
      <trkpt lat="50.73135201819241" lon="14.984499961137772">
        <ele>944.63</ele>
        <time>2013-09-05T15:09:16Z</time>
      </trkpt>
      <trkpt lat="50.73130801320076" lon="14.984665000811219">
        <ele>943.66999999999996</ele>
        <time>2013-09-05T15:09:17Z</time>
      </trkpt>
      <trkpt lat="50.731254033744335" lon="14.984824005514383">
        <ele>942.23000000000002</ele>
        <time>2013-09-05T15:09:18Z</time>
      </trkpt>
      <trkpt lat="50.731181027367711" lon="14.98496700078249">
        <ele>941.26999999999998</ele>
        <time>2013-09-05T15:09:19Z</time>
      </trkpt>
      <trkpt lat="50.731112966313958" lon="14.985111001878977">
        <ele>941.26999999999998</ele>
        <time>2013-09-05T15:09:20Z</time>
      </trkpt>
      <trkpt lat="50.730635030195117" lon="14.986280025914311">
        <ele>935.01999999999998</ele>
        <time>2013-09-05T15:09:28Z</time>
      </trkpt>
      <trkpt lat="50.730602005496621" lon="14.986440036445856">
        <ele>933.58000000000004</ele>
        <time>2013-09-05T15:09:29Z</time>
      </trkpt>
      <trkpt lat="50.730496980249882" lon="14.986912021413445">
        <ele>931.16999999999996</ele>
        <time>2013-09-05T15:09:32Z</time>
      </trkpt>
      <trkpt lat="50.730438977479935" lon="14.987059039995074">
        <ele>929.73000000000002</ele>
        <time>2013-09-05T15:09:33Z</time>
      </trkpt>
      <trkpt lat="50.730368988588452" lon="14.9872010294348">
        <ele>928.28999999999996</ele>
        <time>2013-09-05T15:09:34Z</time>
      </trkpt>
      <trkpt lat="50.730154998600483" lon="14.987614005804062">
        <ele>926.37</ele>
        <time>2013-09-05T15:09:37Z</time>
      </trkpt>
      <trkpt lat="50.730117028579116" lon="14.987769993022084">
        <ele>925.40999999999997</ele>
        <time>2013-09-05T15:09:38Z</time>
      </trkpt>
      <trkpt lat="50.730115016922355" lon="14.987924974411726">
        <ele>924.45000000000005</ele>
        <time>2013-09-05T15:09:39Z</time>
      </trkpt>
      <trkpt lat="50.730161033570766" lon="14.988051960244775">
        <ele>923</ele>
        <time>2013-09-05T15:09:40Z</time>
      </trkpt>
      <trkpt lat="50.730251977220178" lon="14.988120021298528">
        <ele>921.08000000000004</ele>
        <time>2013-09-05T15:09:41Z</time>
      </trkpt>
      <trkpt lat="50.730361025780439" lon="14.988142987713218">
        <ele>920.60000000000002</ele>
        <time>2013-09-05T15:09:42Z</time>
      </trkpt>
      <trkpt lat="50.730479964986444" lon="14.988144999369979">
        <ele>919.15999999999997</ele>
        <time>2013-09-05T15:09:43Z</time>
      </trkpt>
      <trkpt lat="50.73059999383986" lon="14.988178024068475">
        <ele>918.20000000000005</ele>
        <time>2013-09-05T15:09:44Z</time>
      </trkpt>
      <trkpt lat="50.730718011036515" lon="14.988261004909873">
        <ele>916.75</ele>
        <time>2013-09-05T15:09:45Z</time>
      </trkpt>
      <trkpt lat="50.730846002697945" lon="14.988342979922891">
        <ele>915.30999999999995</ele>
        <time>2013-09-05T15:09:46Z</time>
      </trkpt>
      <trkpt lat="50.730973994359374" lon="14.988421015441418">
        <ele>914.35000000000002</ele>
        <time>2013-09-05T15:09:47Z</time>
      </trkpt>
      <trkpt lat="50.731109026819468" lon="14.988458985462785">
        <ele>912.90999999999997</ele>
        <time>2013-09-05T15:11:09Z</time>
      </trkpt>
      <trkpt lat="50.731241041794419" lon="14.98847097158432">
        <ele>912.42999999999995</ele>
        <time>2013-09-05T15:11:10Z</time>
      </trkpt>
      <trkpt lat="50.731379007920623" lon="14.988471977412701">
        <ele>911.47000000000003</ele>
        <time>2013-09-05T15:11:11Z</time>
      </trkpt>
      <trkpt lat="50.73152300901711" lon="14.9884910043329">
        <ele>910.50999999999999</ele>
        <time>2013-09-05T15:11:12Z</time>
      </trkpt>
      <trkpt lat="50.731827020645142" lon="14.988531991839409">
        <ele>908.58000000000004</ele>
        <time>2013-09-05T15:11:14Z</time>
      </trkpt>
      <trkpt lat="50.731979990378022" lon="14.988496033474803">
        <ele>907.62</ele>
        <time>2013-09-05T15:11:15Z</time>
      </trkpt>
      <trkpt lat="50.732130026444793" lon="14.98842797242105">
        <ele>906.65999999999997</ele>
        <time>2013-09-05T15:11:16Z</time>
      </trkpt>
      <trkpt lat="50.73227696120739" lon="14.988370975479484">
        <ele>905.22000000000003</ele>
        <time>2013-09-05T15:11:17Z</time>
      </trkpt>
      <trkpt lat="50.732431020587683" lon="14.988355971872807">
        <ele>903.77999999999997</ele>
        <time>2013-09-05T15:11:18Z</time>
      </trkpt>
      <trkpt lat="50.73257602751255" lon="14.988367035984993">
        <ele>901.37</ele>
        <time>2013-09-05T15:11:19Z</time>
      </trkpt>
      <trkpt lat="50.732706030830741" lon="14.988370975479484">
        <ele>898.49000000000001</ele>
        <time>2013-09-05T15:11:20Z</time>
      </trkpt>
      <trkpt lat="50.733000990003347" lon="14.988358989357948">
        <ele>894.63999999999999</ele>
        <time>2013-09-05T15:11:22Z</time>
      </trkpt>
      <trkpt lat="50.734634036198258" lon="14.988396037369967">
        <ele>874.46000000000004</ele>
        <time>2013-09-05T15:11:33Z</time>
      </trkpt>
      <trkpt lat="50.73526100255549" lon="14.988324036821723">
        <ele>867.73000000000002</ele>
        <time>2013-09-05T15:11:37Z</time>
      </trkpt>
      <trkpt lat="50.735409026965499" lon="14.988371981307864">
        <ele>865.79999999999995</ele>
        <time>2013-09-05T15:11:38Z</time>
      </trkpt>
      <trkpt lat="50.736160967499018" lon="14.988609021529555">
        <ele>855.23000000000002</ele>
        <time>2013-09-05T15:11:43Z</time>
      </trkpt>
      <trkpt lat="50.736302034929395" lon="14.988700971007347">
        <ele>853.78999999999996</ele>
        <time>2013-09-05T15:11:44Z</time>
      </trkpt>
      <trkpt lat="50.736564975231886" lon="14.988890988752246">
        <ele>849.94000000000005</ele>
        <time>2013-09-05T15:11:46Z</time>
      </trkpt>
      <trkpt lat="50.736695984378457" lon="14.988940022885799">
        <ele>848.01999999999998</ele>
        <time>2013-09-05T15:11:47Z</time>
      </trkpt>
      <trkpt lat="50.736827999353409" lon="14.988958965986967">
        <ele>846.58000000000004</ele>
        <time>2013-09-05T15:11:48Z</time>
      </trkpt>
      <trkpt lat="50.737084988504648" lon="14.988960977643728">
        <ele>843.21000000000004</ele>
        <time>2013-09-05T15:11:50Z</time>
      </trkpt>
      <trkpt lat="50.73719403706491" lon="14.988913033157587">
        <ele>842.73000000000002</ele>
        <time>2013-09-05T15:11:51Z</time>
      </trkpt>
      <trkpt lat="50.737272994592786" lon="14.98881203122437">
        <ele>841.76999999999998</ele>
        <time>2013-09-05T15:11:52Z</time>
      </trkpt>
      <trkpt lat="50.737314987927675" lon="14.988670963793993">
        <ele>841.76999999999998</ele>
        <time>2013-09-05T15:11:53Z</time>
      </trkpt>
      <trkpt lat="50.737326974049211" lon="14.988503996282816">
        <ele>841.28999999999996</ele>
        <time>2013-09-05T15:11:54Z</time>
      </trkpt>
      <trkpt lat="50.737318005412817" lon="14.988313978537917">
        <ele>841.28999999999996</ele>
        <time>2013-09-05T15:11:55Z</time>
      </trkpt>
      <trkpt lat="50.73730300180614" lon="14.988112980499864">
        <ele>841.28999999999996</ele>
        <time>2013-09-05T15:11:56Z</time>
      </trkpt>
      <trkpt lat="50.737300990149379" lon="14.987908964976668">
        <ele>841.28999999999996</ele>
        <time>2013-09-05T15:11:57Z</time>
      </trkpt>
      <trkpt lat="50.737316999584436" lon="14.987694974988699">
        <ele>841.28999999999996</ele>
        <time>2013-09-05T15:11:58Z</time>
      </trkpt>
      <trkpt lat="50.737350024282932" lon="14.987475033849478">
        <ele>840.33000000000004</ele>
        <time>2013-09-05T15:11:59Z</time>
      </trkpt>
      <trkpt lat="50.737396962940693" lon="14.987251991406083">
        <ele>840.33000000000004</ele>
        <time>2013-09-05T15:12:00Z</time>
      </trkpt>
      <trkpt lat="50.737450020387769" lon="14.98702802695334">
        <ele>839.37</ele>
        <time>2013-09-05T15:12:01Z</time>
      </trkpt>
      <trkpt lat="50.737515985965729" lon="14.986817976459861">
        <ele>838.40999999999997</ele>
        <time>2013-09-05T15:12:02Z</time>
      </trkpt>
      <trkpt lat="50.737601984292269" lon="14.986633993685246">
        <ele>837.45000000000005</ele>
        <time>2013-09-05T15:12:03Z</time>
      </trkpt>
      <trkpt lat="50.737714972347021" lon="14.986482029780746">
        <ele>836.48000000000002</ele>
        <time>2013-09-05T15:12:04Z</time>
      </trkpt>
      <trkpt lat="50.737843969836831" lon="14.986351020634174">
        <ele>835.03999999999996</ele>
        <time>2013-09-05T15:12:05Z</time>
      </trkpt>
      <trkpt lat="50.738094002008438" lon="14.986067963764071">
        <ele>832.63999999999999</ele>
        <time>2013-09-05T15:12:07Z</time>
      </trkpt>
      <trkpt lat="50.738203972578049" lon="14.985899990424514">
        <ele>831.67999999999995</ele>
        <time>2013-09-05T15:12:08Z</time>
      </trkpt>
      <trkpt lat="50.738301035016775" lon="14.98571801930666">
        <ele>830.24000000000001</ele>
        <time>2013-09-05T15:12:09Z</time>
      </trkpt>
      <trkpt lat="50.738389967009425" lon="14.985519032925367">
        <ele>828.30999999999995</ele>
        <time>2013-09-05T15:12:10Z</time>
      </trkpt>
      <trkpt lat="50.738466996699572" lon="14.985303031280637">
        <ele>826.87</ele>
        <time>2013-09-05T15:12:11Z</time>
      </trkpt>
      <trkpt lat="50.738532040268183" lon="14.985077977180481">
        <ele>825.42999999999995</ele>
        <time>2013-09-05T15:12:12Z</time>
      </trkpt>
      <trkpt lat="50.738585013896227" lon="14.984842026606202">
        <ele>823.99000000000001</ele>
        <time>2013-09-05T15:12:13Z</time>
      </trkpt>
      <trkpt lat="50.738837979733944" lon="14.983942983672023">
        <ele>818.70000000000005</ele>
        <time>2013-09-05T15:12:17Z</time>
      </trkpt>
      <trkpt lat="50.738929007202387" lon="14.983747014775872">
        <ele>817.25999999999999</ele>
        <time>2013-09-05T15:12:18Z</time>
      </trkpt>
      <trkpt lat="50.739545999094844" lon="14.982055965811014">
        <ele>807.15999999999997</ele>
        <time>2013-09-05T15:12:26Z</time>
      </trkpt>
      <trkpt lat="50.739578017964959" lon="14.981821021065116">
        <ele>805.24000000000001</ele>
        <time>2013-09-05T15:12:27Z</time>
      </trkpt>
      <trkpt lat="50.739854034036398" lon="14.980165008455515">
        <ele>797.07000000000005</ele>
        <time>2013-09-05T15:12:34Z</time>
      </trkpt>
      <trkpt lat="50.739951012656093" lon="14.979996029287577">
        <ele>796.11000000000001</ele>
        <time>2013-09-05T15:12:35Z</time>
      </trkpt>
      <trkpt lat="50.740064000710845" lon="14.979851022362709">
        <ele>795.14999999999998</ele>
        <time>2013-09-05T15:12:36Z</time>
      </trkpt>
      <trkpt lat="50.740185035392642" lon="14.979696040973067">
        <ele>794.19000000000005</ele>
        <time>2013-09-05T15:12:37Z</time>
      </trkpt>
      <trkpt lat="50.740286037325859" lon="14.979528989642859">
        <ele>793.22000000000003</ele>
        <time>2013-09-05T15:12:38Z</time>
      </trkpt>
      <trkpt lat="50.74037304148078" lon="14.979353975504637">
        <ele>791.77999999999997</ele>
        <time>2013-09-05T15:12:39Z</time>
      </trkpt>
      <trkpt lat="50.74045903980732" lon="14.979182984679937">
        <ele>790.82000000000005</ele>
        <time>2013-09-05T15:12:40Z</time>
      </trkpt>
      <trkpt lat="50.740564987063408" lon="14.979054993018508">
        <ele>789.38</ele>
        <time>2013-09-05T15:12:41Z</time>
      </trkpt>
      <trkpt lat="50.740691972896457" lon="14.978980980813503">
        <ele>787.94000000000005</ele>
        <time>2013-09-05T15:12:42Z</time>
      </trkpt>
      <trkpt lat="50.740833962336183" lon="14.978953991085291">
        <ele>786.5</ele>
        <time>2013-09-05T15:12:43Z</time>
      </trkpt>
      <trkpt lat="50.74097896926105" lon="14.978933958336711">
        <ele>785.04999999999995</ele>
        <time>2013-09-05T15:12:44Z</time>
      </trkpt>
      <trkpt lat="50.742433983832598" lon="14.97850002720952">
        <ele>775.91999999999996</ele>
        <time>2013-09-05T15:12:54Z</time>
      </trkpt>
      <trkpt lat="50.742573039606214" lon="14.978493992239237">
        <ele>774.96000000000004</ele>
        <time>2013-09-05T15:12:55Z</time>
      </trkpt>
      <trkpt lat="50.742717962712049" lon="14.978525005280972">
        <ele>773.51999999999998</ele>
        <time>2013-09-05T15:12:56Z</time>
      </trkpt>
      <trkpt lat="50.742858024314046" lon="14.978582002222538">
        <ele>772.55999999999995</ele>
        <time>2013-09-05T15:12:57Z</time>
      </trkpt>
      <trkpt lat="50.743118030950427" lon="14.97871401719749">
        <ele>771.60000000000002</ele>
        <time>2013-09-05T15:12:59Z</time>
      </trkpt>
      <trkpt lat="50.743251973763108" lon="14.978742012754083">
        <ele>771.11000000000001</ele>
        <time>2013-09-05T15:13:00Z</time>
      </trkpt>
      <trkpt lat="50.743379965424538" lon="14.978747963905334">
        <ele>771.11000000000001</ele>
        <time>2013-09-05T15:13:01Z</time>
      </trkpt>
      <trkpt lat="50.743875000625849" lon="14.978772019967437">
        <ele>768.23000000000002</ele>
        <time>2013-09-05T15:13:07Z</time>
      </trkpt>
      <trkpt lat="50.743913976475596" lon="14.978788029402494">
        <ele>768.71000000000004</ele>
        <time>2013-09-05T15:13:08Z</time>
      </trkpt>
      <trkpt lat="50.743941972032189" lon="14.978816024959087">
        <ele>768.23000000000002</ele>
        <time>2013-09-05T15:13:09Z</time>
      </trkpt>
      <trkpt lat="50.743967033922672" lon="14.978857012465596">
        <ele>767.75</ele>
        <time>2013-09-05T15:13:10Z</time>
      </trkpt>
      <trkpt lat="50.743986982852221" lon="14.978927001357079">
        <ele>767.75</ele>
        <time>2013-09-05T15:13:11Z</time>
      </trkpt>
      <trkpt lat="50.743993017822504" lon="14.979032026603818">
        <ele>767.26999999999998</ele>
        <time>2013-09-05T15:13:12Z</time>
      </trkpt>
      <trkpt lat="50.743981031700969" lon="14.979163035750389">
        <ele>767.26999999999998</ele>
        <time>2013-09-05T15:13:13Z</time>
      </trkpt>
      <trkpt lat="50.74394297786057" lon="14.979307036846876">
        <ele>766.30999999999995</ele>
        <time>2013-09-05T15:13:14Z</time>
      </trkpt>
      <trkpt lat="50.743872988969088" lon="14.979448020458221">
        <ele>765.83000000000004</ele>
        <time>2013-09-05T15:13:15Z</time>
      </trkpt>
      <trkpt lat="50.743765030056238" lon="14.97957500629127">
        <ele>764.38999999999999</ele>
        <time>2013-09-05T15:13:16Z</time>
      </trkpt>
      <trkpt lat="50.74364198371768" lon="14.979699980467558">
        <ele>763.89999999999998</ele>
        <time>2013-09-05T15:13:17Z</time>
      </trkpt>
      <trkpt lat="50.743524972349405" lon="14.979850016534328">
        <ele>762.46000000000004</ele>
        <time>2013-09-05T15:13:18Z</time>
      </trkpt>
      <trkpt lat="50.743408966809511" lon="14.980032993480563">
        <ele>761.5</ele>
        <time>2013-09-05T15:13:19Z</time>
      </trkpt>
      <trkpt lat="50.743302013725042" lon="14.980234997346997">
        <ele>760.05999999999995</ele>
        <time>2013-09-05T15:13:20Z</time>
      </trkpt>
      <trkpt lat="50.743203023448586" lon="14.980453010648489">
        <ele>758.62</ele>
        <time>2013-09-05T15:13:21Z</time>
      </trkpt>
      <trkpt lat="50.743104033172131" lon="14.980684015899897">
        <ele>756.69000000000005</ele>
        <time>2013-09-05T15:13:22Z</time>
      </trkpt>
      <trkpt lat="50.74271896854043" lon="14.981604013592005">
        <ele>751.88999999999999</ele>
        <time>2013-09-05T15:13:26Z</time>
      </trkpt>
      <trkpt lat="50.742646967992187" lon="14.98185102827847">
        <ele>750.92999999999995</ele>
        <time>2013-09-05T15:13:27Z</time>
      </trkpt>
      <trkpt lat="50.742590976879001" lon="14.982110029086471">
        <ele>749.49000000000001</ele>
        <time>2013-09-05T15:13:28Z</time>
      </trkpt>
      <trkpt lat="50.742218988016248" lon="14.984834985807538">
        <ele>737.95000000000005</ele>
        <time>2013-09-05T15:13:38Z</time>
      </trkpt>
      <trkpt lat="50.742105999961495" lon="14.988397965207696">
        <ele>721.13</ele>
        <time>2013-09-05T15:13:51Z</time>
      </trkpt>
      <trkpt lat="50.741641977801919" lon="14.991292990744114">
        <ele>708.14999999999998</ele>
        <time>2013-09-05T15:14:02Z</time>
      </trkpt>
      <trkpt lat="50.741467969492078" lon="14.99351897276938">
        <ele>697.09000000000003</ele>
        <time>2013-09-05T15:14:10Z</time>
      </trkpt>
      <trkpt lat="50.741519015282393" lon="14.996028011664748">
        <ele>684.12</ele>
        <time>2013-09-05T15:14:20Z</time>
      </trkpt>
      <trkpt lat="50.741565031930804" lon="14.996208976954222">
        <ele>683.14999999999998</ele>
        <time>2013-09-05T15:14:21Z</time>
      </trkpt>
      <trkpt lat="50.741639966145158" lon="14.996351972222328">
        <ele>682.19000000000005</ele>
        <time>2013-09-05T15:14:22Z</time>
      </trkpt>
      <trkpt lat="50.741735016927123" lon="14.996447023004293">
        <ele>681.23000000000002</ele>
        <time>2013-09-05T15:14:23Z</time>
      </trkpt>
      <trkpt lat="50.741842975839972" lon="14.996476024389267">
        <ele>679.30999999999995</ele>
        <time>2013-09-05T15:14:24Z</time>
      </trkpt>
      <trkpt lat="50.741957975551486" lon="14.996450962498784">
        <ele>677.38999999999999</ele>
        <time>2013-09-05T15:14:25Z</time>
      </trkpt>
      <trkpt lat="50.742056965827942" lon="14.996350966393948">
        <ele>675.46000000000004</ele>
        <time>2013-09-05T15:14:26Z</time>
      </trkpt>
      <trkpt lat="50.742139024659991" lon="14.99620595946908">
        <ele>674.01999999999998</ele>
        <time>2013-09-05T15:14:27Z</time>
      </trkpt>
      <trkpt lat="50.742205996066332" lon="14.996026000007987">
        <ele>673.53999999999996</ele>
        <time>2013-09-05T15:14:28Z</time>
      </trkpt>
      <trkpt lat="50.742257963865995" lon="14.99581896699965">
        <ele>672.10000000000002</ele>
        <time>2013-09-05T15:14:29Z</time>
      </trkpt>
      <trkpt lat="50.74230900965631" lon="14.99558100476861">
        <ele>671.13999999999999</ele>
        <time>2013-09-05T15:14:30Z</time>
      </trkpt>
      <trkpt lat="50.742385033518076" lon="14.995328038930893">
        <ele>670.17999999999995</ele>
        <time>2013-09-05T15:14:31Z</time>
      </trkpt>
      <trkpt lat="50.742490980774164" lon="14.995061997324228">
        <ele>668.73000000000002</ele>
        <time>2013-09-05T15:14:32Z</time>
      </trkpt>
      <trkpt lat="50.742949973791838" lon="14.993942007422447">
        <ele>663.92999999999995</ele>
        <time>2013-09-05T15:14:37Z</time>
      </trkpt>
      <trkpt lat="50.743048964068294" lon="14.99379800632596">
        <ele>662.00999999999999</ele>
        <time>2013-09-05T15:14:38Z</time>
      </trkpt>
      <trkpt lat="50.743159018456936" lon="14.99371200799942">
        <ele>661.03999999999996</ele>
        <time>2013-09-05T15:14:39Z</time>
      </trkpt>
      <trkpt lat="50.743273012340069" lon="14.993722988292575">
        <ele>660.08000000000004</ele>
        <time>2013-09-05T15:14:40Z</time>
      </trkpt>
      <trkpt lat="50.743378959596157" lon="14.993837988004088">
        <ele>659.60000000000002</ele>
        <time>2013-09-05T15:14:41Z</time>
      </trkpt>
      <trkpt lat="50.743450960144401" lon="14.993994981050491">
        <ele>658.63999999999999</ele>
        <time>2013-09-05T15:14:42Z</time>
      </trkpt>
      <trkpt lat="50.743483984842896" lon="14.994198996573687">
        <ele>657.20000000000005</ele>
        <time>2013-09-05T15:14:43Z</time>
      </trkpt>
      <trkpt lat="50.743510974571109" lon="14.994424972683191">
        <ele>656.24000000000001</ele>
        <time>2013-09-05T15:14:44Z</time>
      </trkpt>
      <trkpt lat="50.743554979562759" lon="14.994666958227754">
        <ele>655.27999999999997</ele>
        <time>2013-09-05T15:14:45Z</time>
      </trkpt>
      <trkpt lat="50.743629997596145" lon="14.994903998449445">
        <ele>654.79999999999995</ele>
        <time>2013-09-05T15:14:46Z</time>
      </trkpt>
      <trkpt lat="50.743728987872601" lon="14.995129974558949">
        <ele>653.35000000000002</ele>
        <time>2013-09-05T15:14:47Z</time>
      </trkpt>
      <trkpt lat="50.743842981755733" lon="14.995334995910525">
        <ele>652.38999999999999</ele>
        <time>2013-09-05T15:14:48Z</time>
      </trkpt>
      <trkpt lat="50.744031993672252" lon="14.995757024735212">
        <ele>649.99000000000001</ele>
        <time>2013-09-05T15:14:50Z</time>
      </trkpt>
      <trkpt lat="50.744060995057225" lon="14.995999010279775">
        <ele>649.50999999999999</ele>
        <time>2013-09-05T15:14:51Z</time>
      </trkpt>
      <trkpt lat="50.744045991450548" lon="14.996254993602633">
        <ele>648.54999999999995</ele>
        <time>2013-09-05T15:14:52Z</time>
      </trkpt>
      <trkpt lat="50.743982037529349" lon="14.996517011895776">
        <ele>647.10000000000002</ele>
        <time>2013-09-05T15:14:53Z</time>
      </trkpt>
      <trkpt lat="50.743905007839203" lon="14.996781041845679">
        <ele>646.13999999999999</ele>
        <time>2013-09-05T15:14:54Z</time>
      </trkpt>
      <trkpt lat="50.743056004866958" lon="14.999085981398821">
        <ele>636.52999999999997</ele>
        <time>2013-09-05T15:15:03Z</time>
      </trkpt>
      <trkpt lat="50.742919966578484" lon="14.999289996922016">
        <ele>634.61000000000001</ele>
        <time>2013-09-05T15:15:04Z</time>
      </trkpt>
      <trkpt lat="50.742805972695351" lon="14.99951396137476">
        <ele>633.64999999999998</ele>
        <time>2013-09-05T15:15:05Z</time>
      </trkpt>
      <trkpt lat="50.742722991853952" lon="14.999742032960057">
        <ele>632.20000000000005</ele>
        <time>2013-09-05T15:15:06Z</time>
      </trkpt>
      <trkpt lat="50.742668006569147" lon="14.999972032383084">
        <ele>631.24000000000001</ele>
        <time>2013-09-05T15:15:07Z</time>
      </trkpt>
      <trkpt lat="50.742639005184174" lon="15.00019901432097">
        <ele>630.27999999999997</ele>
        <time>2013-09-05T15:15:08Z</time>
      </trkpt>
      <trkpt lat="50.742641016840935" lon="15.000416021794081">
        <ele>629.79999999999995</ele>
        <time>2013-09-05T15:15:09Z</time>
      </trkpt>
      <trkpt lat="50.742641016840935" lon="15.000620037317276">
        <ele>628.36000000000001</ele>
        <time>2013-09-05T15:15:10Z</time>
      </trkpt>
      <trkpt lat="50.742596006020904" lon="15.000810977071524">
        <ele>625.96000000000004</ele>
        <time>2013-09-05T15:15:11Z</time>
      </trkpt>
      <trkpt lat="50.742488969117403" lon="15.000969981774688">
        <ele>624.50999999999999</ele>
        <time>2013-09-05T15:15:12Z</time>
      </trkpt>
      <trkpt lat="50.742360977455974" lon="15.001089004799724">
        <ele>623.54999999999995</ele>
        <time>2013-09-05T15:15:13Z</time>
      </trkpt>
      <trkpt lat="50.742210019379854" lon="15.001175003126264">
        <ele>621.63</ele>
        <time>2013-09-05T15:15:14Z</time>
      </trkpt>
      <trkpt lat="50.742055959999561" lon="15.001258989796042">
        <ele>620.66999999999996</ele>
        <time>2013-09-05T15:15:15Z</time>
      </trkpt>
      <trkpt lat="50.7419019844383" lon="15.001349011436105">
        <ele>619.23000000000002</ele>
        <time>2013-09-05T15:15:16Z</time>
      </trkpt>
      <trkpt lat="50.741607025265694" lon="15.001546991989017">
        <ele>617.29999999999995</ele>
        <time>2013-09-05T15:15:18Z</time>
      </trkpt>
      <trkpt lat="50.741472998633981" lon="15.001708008348942">
        <ele>619.23000000000002</ele>
        <time>2013-09-05T15:15:19Z</time>
      </trkpt>
      <trkpt lat="50.741354981437325" lon="15.001924009993672">
        <ele>618.25999999999999</ele>
        <time>2013-09-05T15:15:20Z</time>
      </trkpt>
      <trkpt lat="50.740757016465068" lon="15.003040982410312">
        <ele>613.46000000000004</ele>
        <time>2013-09-05T15:15:25Z</time>
      </trkpt>
      <trkpt lat="50.740619972348213" lon="15.003217002376914">
        <ele>612.01999999999998</ele>
        <time>2013-09-05T15:15:26Z</time>
      </trkpt>
      <trkpt lat="50.740447975695133" lon="15.003340970724821">
        <ele>610.57000000000005</ele>
        <time>2013-09-05T15:15:27Z</time>
      </trkpt>
      <trkpt lat="50.73973199352622" lon="15.003695022314787">
        <ele>605.76999999999998</ele>
        <time>2013-09-05T15:15:31Z</time>
      </trkpt>
      <trkpt lat="50.739556979387999" lon="15.003712959587574">
        <ele>604.80999999999995</ele>
        <time>2013-09-05T15:15:32Z</time>
      </trkpt>
      <trkpt lat="50.739363022148609" lon="15.003669960424304">
        <ele>602.88</ele>
        <time>2013-09-05T15:15:33Z</time>
      </trkpt>
      <trkpt lat="50.739178033545613" lon="15.003581028431654">
        <ele>600.96000000000004</ele>
        <time>2013-09-05T15:15:34Z</time>
      </trkpt>
      <trkpt lat="50.739019028842449" lon="15.003437027335167">
        <ele>599.51999999999998</ele>
        <time>2013-09-05T15:15:35Z</time>
      </trkpt>
      <trkpt lat="50.738861029967666" lon="15.003283973783255">
        <ele>598.08000000000004</ele>
        <time>2013-09-05T15:15:36Z</time>
      </trkpt>
      <trkpt lat="50.738696996122599" lon="15.00312203541398">
        <ele>597.60000000000002</ele>
        <time>2013-09-05T15:15:37Z</time>
      </trkpt>
      <trkpt lat="50.738068018108606" lon="15.002586012706161">
        <ele>596.14999999999998</ele>
        <time>2013-09-05T15:15:41Z</time>
      </trkpt>
      <trkpt lat="50.737899038940668" lon="15.002496996894479">
        <ele>594.71000000000004</ele>
        <time>2013-09-05T15:15:42Z</time>
      </trkpt>
      <trkpt lat="50.736416028812528" lon="15.001810016110539">
        <ele>588.46000000000004</ele>
        <time>2013-09-05T15:15:51Z</time>
      </trkpt>
      <trkpt lat="50.736292982473969" lon="15.001715971156955">
        <ele>587.5</ele>
        <time>2013-09-05T15:15:52Z</time>
      </trkpt>
      <trkpt lat="50.736175971105695" lon="15.001679006963968">
        <ele>586.53999999999996</ele>
        <time>2013-09-05T15:15:53Z</time>
      </trkpt>
      <trkpt lat="50.736075975000858" lon="15.001673977822065">
        <ele>586.53999999999996</ele>
        <time>2013-09-05T15:15:54Z</time>
      </trkpt>
      <trkpt lat="50.735996011644602" lon="15.001771962270141">
        <ele>586.53999999999996</ele>
        <time>2013-09-05T15:15:55Z</time>
      </trkpt>
      <trkpt lat="50.735960975289345" lon="15.001937001943588">
        <ele>585.10000000000002</ele>
        <time>2013-09-05T15:15:56Z</time>
      </trkpt>
      <trkpt lat="50.735954018309712" lon="15.002127019688487">
        <ele>584.62</ele>
        <time>2013-09-05T15:15:57Z</time>
      </trkpt>
      <trkpt lat="50.735988970845938" lon="15.002332041040063">
        <ele>580.76999999999998</ele>
        <time>2013-09-05T15:15:58Z</time>
      </trkpt>
      <trkpt lat="50.73603599332273" lon="15.002539996057749">
        <ele>578.37</ele>
        <time>2013-09-05T15:15:59Z</time>
      </trkpt>
      <trkpt lat="50.736098019406199" lon="15.002753986045718">
        <ele>574.52999999999997</ele>
        <time>2013-09-05T15:16:00Z</time>
      </trkpt>
      <trkpt lat="50.736472019925714" lon="15.005063032731414">
        <ele>563.95000000000005</ele>
        <time>2013-09-05T15:16:09Z</time>
      </trkpt>
      <trkpt lat="50.736618032678962" lon="15.006569009274244">
        <ele>556.25999999999999</ele>
        <time>2013-09-05T15:16:15Z</time>
      </trkpt>
      <trkpt lat="50.736703025177121" lon="15.006704041734338">
        <ele>555.29999999999995</ele>
        <time>2013-09-05T15:16:16Z</time>
      </trkpt>
      <trkpt lat="50.736829005181789" lon="15.006744023412466">
        <ele>553.38</ele>
        <time>2013-09-05T15:16:17Z</time>
      </trkpt>
      <trkpt lat="50.736925983801484" lon="15.006757015362382">
        <ele>552.40999999999997</ele>
        <time>2013-09-05T15:16:18Z</time>
      </trkpt>
      <trkpt lat="50.737023968249559" lon="15.00671099871397">
        <ele>551.45000000000005</ele>
        <time>2013-09-05T15:16:19Z</time>
      </trkpt>
      <trkpt lat="50.737078031525016" lon="15.006574960425496">
        <ele>549.52999999999997</ele>
        <time>2013-09-05T15:16:20Z</time>
      </trkpt>
      <trkpt lat="50.737126981839538" lon="15.00643003731966">
        <ele>550.00999999999999</ele>
        <time>2013-09-05T15:16:21Z</time>
      </trkpt>
      <trkpt lat="50.737168975174427" lon="15.006266003474593">
        <ele>549.52999999999997</ele>
        <time>2013-09-05T15:16:22Z</time>
      </trkpt>
      <trkpt lat="50.737219015136361" lon="15.006124014034867">
        <ele>548.57000000000005</ele>
        <time>2013-09-05T15:16:23Z</time>
      </trkpt>
      <trkpt lat="50.737291015684605" lon="15.006036004051566">
        <ele>547.61000000000001</ele>
        <time>2013-09-05T15:16:24Z</time>
      </trkpt>
      <trkpt lat="50.737387994304299" lon="15.006024017930031">
        <ele>547.13</ele>
        <time>2013-09-05T15:16:25Z</time>
      </trkpt>
      <trkpt lat="50.737486984580755" lon="15.006074979901314">
        <ele>546.16999999999996</ele>
        <time>2013-09-05T15:16:26Z</time>
      </trkpt>
      <trkpt lat="50.737585974857211" lon="15.006166007369757">
        <ele>545.69000000000005</ele>
        <time>2013-09-05T15:16:27Z</time>
      </trkpt>
      <trkpt lat="50.737686976790428" lon="15.006275977939367">
        <ele>544.72000000000003</ele>
        <time>2013-09-05T15:16:28Z</time>
      </trkpt>
      <trkpt lat="50.737982019782066" lon="15.006636986508965">
        <ele>540.88</ele>
        <time>2013-09-05T15:16:31Z</time>
      </trkpt>
      <trkpt lat="50.738049997016788" lon="15.006792973726988">
        <ele>539.44000000000005</ele>
        <time>2013-09-05T15:16:32Z</time>
      </trkpt>
      <trkpt lat="50.738086039200425" lon="15.006964970380068">
        <ele>538.48000000000002</ele>
        <time>2013-09-05T15:16:33Z</time>
      </trkpt>
      <trkpt lat="50.738088972866535" lon="15.007155993953347">
        <ele>537.02999999999997</ele>
        <time>2013-09-05T15:16:34Z</time>
      </trkpt>
      <trkpt lat="50.738092996180058" lon="15.007361015304923">
        <ele>537.99000000000001</ele>
        <time>2013-09-05T15:16:35Z</time>
      </trkpt>
      <trkpt lat="50.738171031698585" lon="15.008831033483148">
        <ele>534.14999999999998</ele>
        <time>2013-09-05T15:16:42Z</time>
      </trkpt>
      <trkpt lat="50.738145969808102" lon="15.009020967409015">
        <ele>533.19000000000005</ele>
        <time>2013-09-05T15:16:43Z</time>
      </trkpt>
      <trkpt lat="50.738078998401761" lon="15.009195981547236">
        <ele>532.23000000000002</ele>
        <time>2013-09-05T15:16:44Z</time>
      </trkpt>
      <trkpt lat="50.737858973443508" lon="15.009682970121503">
        <ele>530.78999999999996</ele>
        <time>2013-09-05T15:16:47Z</time>
      </trkpt>
      <trkpt lat="50.737810023128986" lon="15.009856978431344">
        <ele>529.82000000000005</ele>
        <time>2013-09-05T15:16:48Z</time>
      </trkpt>
      <trkpt lat="50.737786972895265" lon="15.010046996176243">
        <ele>528.86000000000001</ele>
        <time>2013-09-05T15:16:49Z</time>
      </trkpt>
      <trkpt lat="50.737792002037168" lon="15.010241959244013">
        <ele>528.86000000000001</ele>
        <time>2013-09-05T15:16:50Z</time>
      </trkpt>
      <trkpt lat="50.73779602535069" lon="15.010443963110447">
        <ele>527.89999999999998</ele>
        <time>2013-09-05T15:16:51Z</time>
      </trkpt>
      <trkpt lat="50.73784195818007" lon="15.011218031868339">
        <ele>523.58000000000004</ele>
        <time>2013-09-05T15:16:55Z</time>
      </trkpt>
      <trkpt lat="50.737885963171721" lon="15.01139204017818">
        <ele>522.61000000000001</ele>
        <time>2013-09-05T15:16:56Z</time>
      </trkpt>
      <trkpt lat="50.737945977598429" lon="15.011550961062312">
        <ele>521.64999999999998</ele>
        <time>2013-09-05T15:16:57Z</time>
      </trkpt>
      <trkpt lat="50.738016972318292" lon="15.011705020442605">
        <ele>520.69000000000005</ele>
        <time>2013-09-05T15:16:58Z</time>
      </trkpt>
      <trkpt lat="50.73809701949358" lon="15.011855978518724">
        <ele>519.73000000000002</ele>
        <time>2013-09-05T15:16:59Z</time>
      </trkpt>
      <trkpt lat="50.738542014732957" lon="15.01326497644186">
        <ele>511.56</ele>
        <time>2013-09-05T15:17:07Z</time>
      </trkpt>
      <trkpt lat="50.738934958353639" lon="15.015082005411386">
        <ele>502.43000000000001</ele>
        <time>2013-09-05T15:17:17Z</time>
      </trkpt>
      <trkpt lat="50.739068984985352" lon="15.015646023675799">
        <ele>499.54000000000002</ele>
        <time>2013-09-05T15:17:20Z</time>
      </trkpt>
      <trkpt lat="50.739093041047454" lon="15.015850961208344">
        <ele>498.57999999999998</ele>
        <time>2013-09-05T15:17:21Z</time>
      </trkpt>
      <trkpt lat="50.739164035767317" lon="15.016669034957886">
        <ele>494.74000000000001</ele>
        <time>2013-09-05T15:17:25Z</time>
      </trkpt>
      <trkpt lat="50.739202005788684" lon="15.016861986368895">
        <ele>493.76999999999998</ele>
        <time>2013-09-05T15:17:26Z</time>
      </trkpt>
      <trkpt lat="50.739251039922237" lon="15.017054015770555">
        <ele>492.81</ele>
        <time>2013-09-05T15:17:27Z</time>
      </trkpt>
      <trkpt lat="50.73996601626277" lon="15.019634971395135">
        <ele>478.38999999999999</ele>
        <time>2013-09-05T15:17:40Z</time>
      </trkpt>
      <trkpt lat="50.740746958181262" lon="15.021469015628099">
        <ele>469.25999999999999</ele>
        <time>2013-09-05T15:17:50Z</time>
      </trkpt>
      <trkpt lat="50.741419019177556" lon="15.024025999009609">
        <ele>455.80000000000001</ele>
        <time>2013-09-05T15:18:02Z</time>
      </trkpt>
      <trkpt lat="50.742449993267655" lon="15.027839010581374">
        <ele>438.98000000000002</ele>
        <time>2013-09-05T15:18:20Z</time>
      </trkpt>
      <trkpt lat="50.743323974311352" lon="15.030579976737499">
        <ele>425.51999999999998</ele>
        <time>2013-09-05T15:18:34Z</time>
      </trkpt>
      <trkpt lat="50.743767963722348" lon="15.033880015835166">
        <ele>413.98000000000002</ele>
        <time>2013-09-05T15:18:49Z</time>
      </trkpt>
      <trkpt lat="50.743835018947721" lon="15.034312019124627">
        <ele>412.54000000000002</ele>
        <time>2013-09-05T15:18:51Z</time>
      </trkpt>
      <trkpt lat="50.744054038077593" lon="15.035279039293528">
        <ele>409.18000000000001</ele>
        <time>2013-09-05T15:18:56Z</time>
      </trkpt>
      <trkpt lat="50.744056971743703" lon="15.035442989319563">
        <ele>408.69999999999999</ele>
        <time>2013-09-05T15:18:57Z</time>
      </trkpt>
      <trkpt lat="50.744044985622168" lon="15.035597970709205">
        <ele>407.74000000000001</ele>
        <time>2013-09-05T15:18:58Z</time>
      </trkpt>
      <trkpt lat="50.74398597702384" lon="15.036084959283471">
        <ele>405.32999999999998</ele>
        <time>2013-09-05T15:19:02Z</time>
      </trkpt>
      <trkpt lat="50.743957981467247" lon="15.036185039207339">
        <ele>405.32999999999998</ele>
        <time>2013-09-05T15:19:03Z</time>
      </trkpt>
      <trkpt lat="50.743912970647216" lon="15.03627497702837">
        <ele>404.85000000000002</ele>
        <time>2013-09-05T15:19:04Z</time>
      </trkpt>
      <trkpt lat="50.743852034211159" lon="15.036469018086791">
        <ele>403.88999999999999</ele>
        <time>2013-09-05T15:19:06Z</time>
      </trkpt>
      <trkpt lat="50.743867037817836" lon="15.036565996706486">
        <ele>402.93000000000001</ele>
        <time>2013-09-05T15:19:07Z</time>
      </trkpt>
      <trkpt lat="50.74392001144588" lon="15.036635985597968">
        <ele>402.93000000000001</ele>
        <time>2013-09-05T15:19:08Z</time>
      </trkpt>
      <trkpt lat="50.743990000337362" lon="15.036655012518167">
        <ele>401.97000000000003</ele>
        <time>2013-09-05T15:19:09Z</time>
      </trkpt>
      <trkpt lat="50.744067030027509" lon="15.036634979769588">
        <ele>401.97000000000003</ele>
        <time>2013-09-05T15:19:10Z</time>
      </trkpt>
      <trkpt lat="50.744146993383765" lon="15.036574965342879">
        <ele>401.49000000000001</ele>
        <time>2013-09-05T15:19:11Z</time>
      </trkpt>
      <trkpt lat="50.744419991970062" lon="15.036448985338211">
        <ele>401.49000000000001</ele>
        <time>2013-09-05T15:19:14Z</time>
      </trkpt>
      <trkpt lat="50.745592033490539" lon="15.036035003140569">
        <ele>409.18000000000001</ele>
        <time>2013-09-05T15:19:24Z</time>
      </trkpt>
      <trkpt lat="50.747126005589962" lon="15.035195974633098">
        <ele>413.98000000000002</ele>
        <time>2013-09-05T15:19:36Z</time>
      </trkpt>
      <trkpt lat="50.74907798320055" lon="15.033811032772064">
        <ele>418.31</ele>
        <time>2013-09-05T15:19:52Z</time>
      </trkpt>
      <trkpt lat="50.75036795809865" lon="15.032896986231208">
        <ele>424.07999999999998</ele>
        <time>2013-09-05T15:20:03Z</time>
      </trkpt>
      <trkpt lat="50.750805996358395" lon="15.032498007640243">
        <ele>421.19</ele>
        <time>2013-09-05T15:20:08Z</time>
      </trkpt>
      <trkpt lat="50.750893000513315" lon="15.032455008476973">
        <ele>421.68000000000001</ele>
        <time>2013-09-05T15:20:09Z</time>
      </trkpt>
      <trkpt lat="50.7509680185467" lon="15.032474035397172">
        <ele>420.70999999999998</ele>
        <time>2013-09-05T15:20:10Z</time>
      </trkpt>
      <trkpt lat="50.751025015488267" lon="15.032547041773796">
        <ele>419.26999999999998</ele>
        <time>2013-09-05T15:20:11Z</time>
      </trkpt>
      <trkpt lat="50.751072037965059" lon="15.032635973766446">
        <ele>417.35000000000002</ele>
        <time>2013-09-05T15:20:12Z</time>
      </trkpt>
      <trkpt lat="50.751133980229497" lon="15.032747033983469">
        <ele>415.91000000000003</ele>
        <time>2013-09-05T15:20:13Z</time>
      </trkpt>
      <trkpt lat="50.751991029828787" lon="15.034112026914954">
        <ele>407.74000000000001</ele>
        <time>2013-09-05T15:20:23Z</time>
      </trkpt>
      <trkpt lat="50.752433007583022" lon="15.034828009083867">
        <ele>404.85000000000002</ele>
        <time>2013-09-05T15:20:28Z</time>
      </trkpt>
      <trkpt lat="50.752500984817743" lon="15.034998999908566">
        <ele>403.88999999999999</ele>
        <time>2013-09-05T15:20:29Z</time>
      </trkpt>
      <trkpt lat="50.75255898758769" lon="15.035184994339943">
        <ele>403.41000000000003</ele>
        <time>2013-09-05T15:20:30Z</time>
      </trkpt>
      <trkpt lat="50.753015968948603" lon="15.036872019991279">
        <ele>394.75999999999999</ele>
        <time>2013-09-05T15:20:39Z</time>
      </trkpt>
      <trkpt lat="50.753034995868802" lon="15.037059020251036">
        <ele>393.80000000000001</ele>
        <time>2013-09-05T15:20:40Z</time>
      </trkpt>
      <trkpt lat="50.753029966726899" lon="15.037244008854032">
        <ele>392.83999999999997</ele>
        <time>2013-09-05T15:20:41Z</time>
      </trkpt>
      <trkpt lat="50.753013035282493" lon="15.037426985800266">
        <ele>391.87</ele>
        <time>2013-09-05T15:20:42Z</time>
      </trkpt>
      <trkpt lat="50.752994008362293" lon="15.037611974403262">
        <ele>390.91000000000003</ele>
        <time>2013-09-05T15:20:43Z</time>
      </trkpt>
      <trkpt lat="50.75298797339201" lon="15.037798974663019">
        <ele>390.43000000000001</ele>
        <time>2013-09-05T15:20:44Z</time>
      </trkpt>
      <trkpt lat="50.753001971170306" lon="15.037983041256666">
        <ele>389.47000000000003</ele>
        <time>2013-09-05T15:20:45Z</time>
      </trkpt>
      <trkpt lat="50.753043964505196" lon="15.03814497962594">
        <ele>388.50999999999999</ele>
        <time>2013-09-05T15:20:46Z</time>
      </trkpt>
      <trkpt lat="50.753106996417046" lon="15.038287974894047">
        <ele>388.02999999999997</ele>
        <time>2013-09-05T15:20:47Z</time>
      </trkpt>
      <trkpt lat="50.753190983086824" lon="15.038409009575844">
        <ele>387.55000000000001</ele>
        <time>2013-09-05T15:20:48Z</time>
      </trkpt>
      <trkpt lat="50.7532889675349" lon="15.038520991802216">
        <ele>386.58999999999997</ele>
        <time>2013-09-05T15:20:49Z</time>
      </trkpt>
      <trkpt lat="50.754456985741854" lon="15.039804009720683">
        <ele>380.81999999999999</ele>
        <time>2013-09-05T15:21:00Z</time>
      </trkpt>
      <trkpt lat="50.75520096346736" lon="15.041262963786721">
        <ele>374.08999999999997</ele>
        <time>2013-09-05T15:21:09Z</time>
      </trkpt>
      <trkpt lat="50.755642019212246" lon="15.042283041402698">
        <ele>371.20999999999998</ele>
        <time>2013-09-05T15:21:15Z</time>
      </trkpt>
      <trkpt lat="50.755734974518418" lon="15.042427964508533">
        <ele>370.24000000000001</ele>
        <time>2013-09-05T15:21:16Z</time>
      </trkpt>
      <trkpt lat="50.755832958966494" lon="15.042562996968627">
        <ele>369.75999999999999</ele>
        <time>2013-09-05T15:21:17Z</time>
      </trkpt>
      <trkpt lat="50.756590012460947" lon="15.043362965807319">
        <ele>364.95999999999998</ele>
        <time>2013-09-05T15:21:24Z</time>
      </trkpt>
      <trkpt lat="50.756708029657602" lon="15.043424991890788">
        <ele>362.55000000000001</ele>
        <time>2013-09-05T15:21:25Z</time>
      </trkpt>
      <trkpt lat="50.756839038804173" lon="15.043460028246045">
        <ele>362.06999999999999</ele>
        <time>2013-09-05T15:21:26Z</time>
      </trkpt>
      <trkpt lat="50.756973987445235" lon="15.043467991054058">
        <ele>361.58999999999997</ele>
        <time>2013-09-05T15:21:27Z</time>
      </trkpt>
      <trkpt lat="50.757106002420187" lon="15.043454999104142">
        <ele>361.58999999999997</ele>
        <time>2013-09-05T15:21:28Z</time>
      </trkpt>
      <trkpt lat="50.757243968546391" lon="15.043420968577266">
        <ele>362.06999999999999</ele>
        <time>2013-09-05T15:21:29Z</time>
      </trkpt>
      <trkpt lat="50.758693031966686" lon="15.042925011366606">
        <ele>363.51999999999998</ele>
        <time>2013-09-05T15:21:40Z</time>
      </trkpt>
      <trkpt lat="50.760522969067097" lon="15.042354036122561">
        <ele>364.48000000000002</ele>
        <time>2013-09-05T15:21:54Z</time>
      </trkpt>
      <trkpt lat="50.761900031939149" lon="15.041950028389692">
        <ele>362.55000000000001</ele>
        <time>2013-09-05T15:22:04Z</time>
      </trkpt>
      <trkpt lat="50.763851003721356" lon="15.041455999016762">
        <ele>358.70999999999998</ele>
        <time>2013-09-05T15:22:19Z</time>
      </trkpt>
      <trkpt lat="50.763944964855909" lon="15.041487012058496">
        <ele>358.23000000000002</ele>
        <time>2013-09-05T15:22:20Z</time>
      </trkpt>
      <trkpt lat="50.764038003981113" lon="15.041549038141966">
        <ele>357.26999999999998</ele>
        <time>2013-09-05T15:22:21Z</time>
      </trkpt>
      <trkpt lat="50.764110004529357" lon="15.041676023975015">
        <ele>356.79000000000002</ele>
        <time>2013-09-05T15:22:22Z</time>
      </trkpt>
      <trkpt lat="50.764164989814162" lon="15.04181700758636">
        <ele>356.31</ele>
        <time>2013-09-05T15:22:23Z</time>
      </trkpt>
      <trkpt lat="50.764220980927348" lon="15.041938964277506">
        <ele>356.79000000000002</ele>
        <time>2013-09-05T15:22:24Z</time>
      </trkpt>
      <trkpt lat="50.764570003375411" lon="15.042887041345239">
        <ele>354.86000000000001</ele>
        <time>2013-09-05T15:22:32Z</time>
      </trkpt>
      <trkpt lat="50.764613002538681" lon="15.042973961681128">
        <ele>354.86000000000001</ele>
        <time>2013-09-05T15:22:33Z</time>
      </trkpt>
      <trkpt lat="50.764733031392097" lon="15.04329901188612">
        <ele>354.38</ele>
        <time>2013-09-05T15:22:36Z</time>
      </trkpt>
      <trkpt lat="50.764764966443181" lon="15.043427003547549">
        <ele>354.38</ele>
        <time>2013-09-05T15:22:37Z</time>
      </trkpt>
      <trkpt lat="50.76497602276504" lon="15.044181039556861">
        <ele>354.38</ele>
        <time>2013-09-05T15:22:43Z</time>
      </trkpt>
      <trkpt lat="50.76499898917973" lon="15.044277012348175">
        <ele>354.86000000000001</ele>
        <time>2013-09-05T15:22:44Z</time>
      </trkpt>
      <trkpt lat="50.765039976686239" lon="15.044345995411277">
        <ele>354.38</ele>
        <time>2013-09-05T15:22:45Z</time>
      </trkpt>
      <trkpt lat="50.76508398167789" lon="15.044386982917786">
        <ele>354.38</ele>
        <time>2013-09-05T15:22:46Z</time>
      </trkpt>
      <trkpt lat="50.765138966962695" lon="15.04439796321094">
        <ele>353.89999999999998</ele>
        <time>2013-09-05T15:22:47Z</time>
      </trkpt>
      <trkpt lat="50.765197975561023" lon="15.044370973482728">
        <ele>353.89999999999998</ele>
        <time>2013-09-05T15:22:48Z</time>
      </trkpt>
      <trkpt lat="50.76525597833097" lon="15.044323028996587">
        <ele>353.89999999999998</ele>
        <time>2013-09-05T15:22:49Z</time>
      </trkpt>
      <trkpt lat="50.765300989151001" lon="15.044272989034653">
        <ele>352.45999999999998</ele>
        <time>2013-09-05T15:22:50Z</time>
      </trkpt>
      <trkpt lat="50.765344994142652" lon="15.04422496072948">
        <ele>352.45999999999998</ele>
        <time>2013-09-05T15:22:51Z</time>
      </trkpt>
      <trkpt lat="50.76540500856936" lon="15.044134017080069">
        <ele>351.98000000000002</ele>
        <time>2013-09-05T15:22:59Z</time>
      </trkpt>
      <trkpt lat="50.76559997163713" lon="15.043955985456705">
        <ele>351.01999999999998</ele>
        <time>2013-09-05T15:23:10Z</time>
      </trkpt>
      <trkpt lat="50.765678007155657" lon="15.04396503791213">
        <ele>351.01999999999998</ele>
        <time>2013-09-05T15:23:11Z</time>
      </trkpt>
      <trkpt lat="50.76574900187552" lon="15.0440080370754">
        <ele>351.5</ele>
        <time>2013-09-05T15:23:12Z</time>
      </trkpt>
      <trkpt lat="50.765809016302228" lon="15.044071990996599">
        <ele>351.5</ele>
        <time>2013-09-05T15:23:13Z</time>
      </trkpt>
      <trkpt lat="50.76585897244513" lon="15.04413602873683">
        <ele>351.01999999999998</ele>
        <time>2013-09-05T15:23:14Z</time>
      </trkpt>
      <trkpt lat="50.766048990190029" lon="15.044357981532812">
        <ele>350.06</ele>
        <time>2013-09-05T15:23:22Z</time>
      </trkpt>
      <trkpt lat="50.766058964654803" lon="15.044414978474379">
        <ele>350.06</ele>
        <time>2013-09-05T15:23:35Z</time>
      </trkpt>
      <trkpt lat="50.766088971868157" lon="15.044466024264693">
        <ele>349.57999999999998</ele>
        <time>2013-09-05T15:23:36Z</time>
      </trkpt>
      <trkpt lat="50.766293993219733" lon="15.044676996767521">
        <ele>350.06</ele>
        <time>2013-09-05T15:23:40Z</time>
      </trkpt>
      <trkpt lat="50.766834039241076" lon="15.045102965086699">
        <ele>347.64999999999998</ele>
        <time>2013-09-05T15:23:47Z</time>
      </trkpt>
      <trkpt lat="50.766907967627048" lon="15.045184018090367">
        <ele>347.17000000000002</ele>
        <time>2013-09-05T15:23:48Z</time>
      </trkpt>
      <trkpt lat="50.766972005367279" lon="15.045271022245288">
        <ele>346.69</ele>
        <time>2013-09-05T15:23:49Z</time>
      </trkpt>
      <trkpt lat="50.767521020025015" lon="15.046330997720361">
        <ele>347.64999999999998</ele>
        <time>2013-09-05T15:23:59Z</time>
      </trkpt>
      <trkpt lat="50.767577011138201" lon="15.046537024900317">
        <ele>348.62</ele>
        <time>2013-09-05T15:24:01Z</time>
      </trkpt>
      <trkpt lat="50.767687987536192" lon="15.046811029314995">
        <ele>349.57999999999998</ele>
        <time>2013-09-05T15:24:04Z</time>
      </trkpt>
      <trkpt lat="50.768278995528817" lon="15.047959014773369">
        <ele>353.42000000000002</ele>
        <time>2013-09-05T15:24:14Z</time>
      </trkpt>
      <trkpt lat="50.768368011340499" lon="15.048050964251161">
        <ele>354.38</ele>
        <time>2013-09-05T15:24:15Z</time>
      </trkpt>
      <trkpt lat="50.769176026806235" lon="15.04867197945714">
        <ele>359.19</ele>
        <time>2013-09-05T15:24:24Z</time>
      </trkpt>
      <trkpt lat="50.76927300542593" lon="15.048696035519242">
        <ele>360.14999999999998</ele>
        <time>2013-09-05T15:24:25Z</time>
      </trkpt>
      <trkpt lat="50.769366966560483" lon="15.048711039125919">
        <ele>360.63</ele>
        <time>2013-09-05T15:24:26Z</time>
      </trkpt>
      <trkpt lat="50.770290987566113" lon="15.048763006925583">
        <ele>364.95999999999998</ele>
        <time>2013-09-05T15:24:36Z</time>
      </trkpt>
      <trkpt lat="50.770527021959424" lon="15.048773987218738">
        <ele>365.92000000000002</ele>
        <time>2013-09-05T15:24:39Z</time>
      </trkpt>
      <trkpt lat="50.770600028336048" lon="15.048792008310556">
        <ele>365.92000000000002</ele>
        <time>2013-09-05T15:24:40Z</time>
      </trkpt>
      <trkpt lat="50.770933963358402" lon="15.048882029950619">
        <ele>365.92000000000002</ele>
        <time>2013-09-05T15:24:45Z</time>
      </trkpt>
      <trkpt lat="50.770964976400137" lon="15.048951013013721">
        <ele>366.39999999999998</ele>
        <time>2013-09-05T15:24:46Z</time>
      </trkpt>
      <trkpt lat="50.770978974178433" lon="15.049021001905203">
        <ele>366.39999999999998</ele>
        <time>2013-09-05T15:24:47Z</time>
      </trkpt>
      <trkpt lat="50.770960031077266" lon="15.049141030758619">
        <ele>365.92000000000002</ele>
        <time>2013-09-05T15:24:48Z</time>
      </trkpt>
      <trkpt lat="50.770961036905646" lon="15.049234991893172">
        <ele>365.92000000000002</ele>
        <time>2013-09-05T15:24:49Z</time>
      </trkpt>
      <trkpt lat="50.770933963358402" lon="15.050598978996277">
        <ele>365.92000000000002</ele>
        <time>2013-09-05T15:25:00Z</time>
      </trkpt>
      <trkpt lat="50.770847965031862" lon="15.051317978650331">
        <ele>361.58999999999997</ele>
        <time>2013-09-05T15:25:07Z</time>
      </trkpt>
      <trkpt lat="50.770867997780442" lon="15.051375981420279">
        <ele>362.06999999999999</ele>
        <time>2013-09-05T15:25:08Z</time>
      </trkpt>
      <trkpt lat="50.770890964195132" lon="15.05139802582562">
        <ele>360.14999999999998</ele>
        <time>2013-09-05T15:25:09Z</time>
      </trkpt>
      <trkpt lat="50.77092801220715" lon="15.051404982805252">
        <ele>360.14999999999998</ele>
        <time>2013-09-05T15:25:10Z</time>
      </trkpt>
      <trkpt lat="50.770972017198801" lon="15.05135896615684">
        <ele>359.67000000000002</ele>
        <time>2013-09-05T15:25:11Z</time>
      </trkpt>
      <trkpt lat="50.771000012755394" lon="15.05127196200192">
        <ele>359.67000000000002</ele>
        <time>2013-09-05T15:25:12Z</time>
      </trkpt>
      <trkpt lat="50.771032031625509" lon="15.051170038059354">
        <ele>359.19</ele>
        <time>2013-09-05T15:25:13Z</time>
      </trkpt>
      <trkpt lat="50.771496975794435" lon="15.049977041780949">
        <ele>356.79000000000002</ele>
        <time>2013-09-05T15:25:21Z</time>
      </trkpt>
      <trkpt lat="50.7724520098418" lon="15.04766296595335">
        <ele>349.57999999999998</ele>
        <time>2013-09-05T15:25:35Z</time>
      </trkpt>
      <trkpt lat="50.772855011746287" lon="15.046880012378097">
        <ele>345.25</ele>
        <time>2013-09-05T15:25:41Z</time>
      </trkpt>
      <trkpt lat="50.772923994809389" lon="15.046825027093291">
        <ele>345.25</ele>
        <time>2013-09-05T15:25:42Z</time>
      </trkpt>
      <trkpt lat="50.772981997579336" lon="15.046797031536698">
        <ele>345.73000000000002</ele>
        <time>2013-09-05T15:25:43Z</time>
      </trkpt>
      <trkpt lat="50.77301099896431" lon="15.04680298268795">
        <ele>344.76999999999998</ele>
        <time>2013-09-05T15:25:44Z</time>
      </trkpt>
      <trkpt lat="50.773014016449451" lon="15.046829972416162">
        <ele>341.41000000000003</ele>
        <time>2013-09-05T15:25:54Z</time>
      </trkpt>
      <trkpt lat="50.773078976199031" lon="15.046882024034858">
        <ele>342.37</ele>
        <time>2013-09-05T15:26:10Z</time>
      </trkpt>
      <trkpt lat="50.77311996370554" lon="15.046864002943039">
        <ele>342.37</ele>
        <time>2013-09-05T15:26:11Z</time>
      </trkpt>
      <trkpt lat="50.773165980353951" lon="15.046797031536698">
        <ele>342.37</ele>
        <time>2013-09-05T15:26:12Z</time>
      </trkpt>
      <trkpt lat="50.773209985345602" lon="15.046684965491295">
        <ele>342.85000000000002</ele>
        <time>2013-09-05T15:26:13Z</time>
      </trkpt>
      <trkpt lat="50.773243010044098" lon="15.046562002971768">
        <ele>343.32999999999998</ele>
        <time>2013-09-05T15:26:14Z</time>
      </trkpt>
      <trkpt lat="50.773277040570974" lon="15.046433005481958">
        <ele>342.85000000000002</ele>
        <time>2013-09-05T15:26:15Z</time>
      </trkpt>
      <trkpt lat="50.773640982806683" lon="15.045530023053288">
        <ele>342.85000000000002</ele>
        <time>2013-09-05T15:26:26Z</time>
      </trkpt>
      <trkpt lat="50.773900989443064" lon="15.044961981475353">
        <ele>344.76999999999998</ele>
        <time>2013-09-05T15:26:36Z</time>
      </trkpt>
      <trkpt lat="50.774103999137878" lon="15.044564008712769">
        <ele>344.76999999999998</ele>
        <time>2013-09-05T15:26:40Z</time>
      </trkpt>
      <trkpt lat="50.774156972765923" lon="15.0444380287081">
        <ele>345.73000000000002</ele>
        <time>2013-09-05T15:26:41Z</time>
      </trkpt>
      <trkpt lat="50.774197038263083" lon="15.044305007904768">
        <ele>346.20999999999998</ele>
        <time>2013-09-05T15:26:42Z</time>
      </trkpt>
      <trkpt lat="50.774227967485785" lon="15.044175004586577">
        <ele>345.73000000000002</ele>
        <time>2013-09-05T15:26:43Z</time>
      </trkpt>
      <trkpt lat="50.774252023547888" lon="15.044035026803613">
        <ele>346.69</ele>
        <time>2013-09-05T15:26:44Z</time>
      </trkpt>
      <trkpt lat="50.774288987740874" lon="15.043733026832342">
        <ele>346.69</ele>
        <time>2013-09-05T15:26:46Z</time>
      </trkpt>
      <trkpt lat="50.774299968034029" lon="15.043581984937191">
        <ele>346.69</ele>
        <time>2013-09-05T15:26:47Z</time>
      </trkpt>
      <trkpt lat="50.774295022711158" lon="15.043430021032691">
        <ele>346.69</ele>
        <time>2013-09-05T15:26:48Z</time>
      </trkpt>
      <trkpt lat="50.774273984134197" lon="15.043285014107823">
        <ele>346.20999999999998</ele>
        <time>2013-09-05T15:26:49Z</time>
      </trkpt>
      <trkpt lat="50.774241965264082" lon="15.043145958334208">
        <ele>347.64999999999998</ele>
        <time>2013-09-05T15:26:50Z</time>
      </trkpt>
      <trkpt lat="50.774195026606321" lon="15.043016960844398">
        <ele>347.17000000000002</ele>
        <time>2013-09-05T15:26:51Z</time>
      </trkpt>
      <trkpt lat="50.774134006351233" lon="15.042902966961265">
        <ele>346.69</ele>
        <time>2013-09-05T15:26:52Z</time>
      </trkpt>
      <trkpt lat="50.77406401745975" lon="15.042801965028048">
        <ele>346.69</ele>
        <time>2013-09-05T15:26:53Z</time>
      </trkpt>
      <trkpt lat="50.773979024961591" lon="15.042716972529888">
        <ele>346.69</ele>
        <time>2013-09-05T15:26:54Z</time>
      </trkpt>
      <trkpt lat="50.773886991664767" lon="15.042657963931561">
        <ele>347.64999999999998</ele>
        <time>2013-09-05T15:26:55Z</time>
      </trkpt>
      <trkpt lat="50.773782972246408" lon="15.042640026658773">
        <ele>348.13</ele>
        <time>2013-09-05T15:26:56Z</time>
      </trkpt>
      <trkpt lat="50.773682976141572" lon="15.042648995295167">
        <ele>348.13</ele>
        <time>2013-09-05T15:26:57Z</time>
      </trkpt>
      <trkpt lat="50.773574011400342" lon="15.042670033872128">
        <ele>348.62</ele>
        <time>2013-09-05T15:26:58Z</time>
      </trkpt>
      <trkpt lat="50.773279974237084" lon="15.042632985860109">
        <ele>349.57999999999998</ele>
        <time>2013-09-05T15:27:01Z</time>
      </trkpt>
      <trkpt lat="50.773199005052447" lon="15.042540030553937">
        <ele>349.57999999999998</ele>
        <time>2013-09-05T15:27:02Z</time>
      </trkpt>
      <trkpt lat="50.773146031424403" lon="15.042387982830405">
        <ele>350.06</ele>
        <time>2013-09-05T15:27:03Z</time>
      </trkpt>
      <trkpt lat="50.773095991462469" lon="15.042231995612383">
        <ele>350.54000000000002</ele>
        <time>2013-09-05T15:27:04Z</time>
      </trkpt>
      <trkpt lat="50.773069001734257" lon="15.042061004787683">
        <ele>351.5</ele>
        <time>2013-09-05T15:27:05Z</time>
      </trkpt>
      <trkpt lat="50.773050980642438" lon="15.041885990649462">
        <ele>351.98000000000002</ele>
        <time>2013-09-05T15:27:06Z</time>
      </trkpt>
      <trkpt lat="50.773050980642438" lon="15.04171097651124">
        <ele>352.94</ele>
        <time>2013-09-05T15:27:07Z</time>
      </trkpt>
      <trkpt lat="50.773060033097863" lon="15.041536968201399">
        <ele>353.89999999999998</ele>
        <time>2013-09-05T15:27:08Z</time>
      </trkpt>
      <trkpt lat="50.773081993684173" lon="15.041377041488886">
        <ele>355.33999999999997</ele>
        <time>2013-09-05T15:27:09Z</time>
      </trkpt>
      <trkpt lat="50.773116024211049" lon="15.041202027350664">
        <ele>355.82999999999998</ele>
        <time>2013-09-05T15:27:10Z</time>
      </trkpt>
      <trkpt lat="50.773158017545938" lon="15.041016032919288">
        <ele>357.26999999999998</ele>
        <time>2013-09-05T15:27:11Z</time>
      </trkpt>
      <trkpt lat="50.77320596203208" lon="15.040853004902601">
        <ele>358.23000000000002</ele>
        <time>2013-09-05T15:27:12Z</time>
      </trkpt>
      <trkpt lat="50.773282991722226" lon="15.040689976885915">
        <ele>357.75</ele>
        <time>2013-09-05T15:27:13Z</time>
      </trkpt>
      <trkpt lat="50.773353986442089" lon="15.040547987446189">
        <ele>359.19</ele>
        <time>2013-09-05T15:27:14Z</time>
      </trkpt>
      <trkpt lat="50.773422969505191" lon="15.040430976077914">
        <ele>361.11000000000001</ele>
        <time>2013-09-05T15:27:15Z</time>
      </trkpt>
      <trkpt lat="50.773499999195337" lon="15.040318993851542">
        <ele>362.06999999999999</ele>
        <time>2013-09-05T15:27:16Z</time>
      </trkpt>
      <trkpt lat="50.773589015007019" lon="15.040208017453551">
        <ele>363.04000000000002</ele>
        <time>2013-09-05T15:27:17Z</time>
      </trkpt>
      <trkpt lat="50.773683981969953" lon="15.040105003863573">
        <ele>363.51999999999998</ele>
        <time>2013-09-05T15:27:18Z</time>
      </trkpt>
      <trkpt lat="50.774523010477424" lon="15.03932498395443">
        <ele>365.44</ele>
        <time>2013-09-05T15:27:28Z</time>
      </trkpt>
      <trkpt lat="50.775309987366199" lon="15.038498025387526">
        <ele>364</ele>
        <time>2013-09-05T15:27:38Z</time>
      </trkpt>
      <trkpt lat="50.775360027328134" lon="15.038476986810565">
        <ele>364.48000000000002</ele>
        <time>2013-09-05T15:27:39Z</time>
      </trkpt>
      <trkpt lat="50.775414006784558" lon="15.038501964882016">
        <ele>364.48000000000002</ele>
        <time>2013-09-05T15:27:40Z</time>
      </trkpt>
      <trkpt lat="50.775799993425608" lon="15.038784015923738">
        <ele>362.55000000000001</ele>
        <time>2013-09-05T15:27:46Z</time>
      </trkpt>
      <trkpt lat="50.775935025885701" lon="15.038839001208544">
        <ele>364</ele>
        <time>2013-09-05T15:27:49Z</time>
      </trkpt>
      <trkpt lat="50.775964027270675" lon="15.038794996216893">
        <ele>364</ele>
        <time>2013-09-05T15:27:50Z</time>
      </trkpt>
      <trkpt lat="50.775982970371842" lon="15.038725007325411">
        <ele>362.06999999999999</ele>
        <time>2013-09-05T15:27:51Z</time>
      </trkpt>
      <trkpt lat="50.775995962321758" lon="15.03863800317049">
        <ele>361.11000000000001</ele>
        <time>2013-09-05T15:27:52Z</time>
      </trkpt>
      <trkpt lat="50.776005014777184" lon="15.038545969873667">
        <ele>361.58999999999997</ele>
        <time>2013-09-05T15:27:53Z</time>
      </trkpt>
      <trkpt lat="50.776005014777184" lon="15.038446979597211">
        <ele>360.14999999999998</ele>
        <time>2013-09-05T15:27:54Z</time>
      </trkpt>
      <trkpt lat="50.776011971756816" lon="15.038006007671356">
        <ele>355.82999999999998</ele>
        <time>2013-09-05T15:27:58Z</time>
      </trkpt>
      <trkpt lat="50.776033010333776" lon="15.037915986031294">
        <ele>355.33999999999997</ele>
        <time>2013-09-05T15:27:59Z</time>
      </trkpt>
      <trkpt lat="50.776071986183524" lon="15.037747006863356">
        <ele>352.94</ele>
        <time>2013-09-05T15:28:02Z</time>
      </trkpt>
      <trkpt lat="50.776098975911736" lon="15.037721022963524">
        <ele>352.45999999999998</ele>
        <time>2013-09-05T15:28:03Z</time>
      </trkpt>
      <trkpt lat="50.77612797729671" lon="15.03771498799324">
        <ele>352.45999999999998</ele>
        <time>2013-09-05T15:28:04Z</time>
      </trkpt>
      <trkpt lat="50.776193020865321" lon="15.037636030465364">
        <ele>352.45999999999998</ele>
        <time>2013-09-05T15:28:07Z</time>
      </trkpt>
      <trkpt lat="50.776196038350463" lon="15.037594037130475">
        <ele>351.01999999999998</ele>
        <time>2013-09-05T15:28:08Z</time>
      </trkpt>
      <trkpt lat="50.77619100920856" lon="15.037565035745502">
        <ele>351.5</ele>
        <time>2013-09-05T15:28:09Z</time>
      </trkpt>
      <trkpt lat="50.776153039187193" lon="15.037574004381895">
        <ele>350.54000000000002</ele>
        <time>2013-09-05T15:28:10Z</time>
      </trkpt>
      <trkpt lat="50.776129988953471" lon="15.037594959139824">
        <ele>350.54000000000002</ele>
        <time>2013-09-05T15:28:11Z</time>
      </trkpt>
    </trkseg>
  </trk>

  <trk>
    <name>Track vom: 06 SEP 2013 08:20</name>
    <trkseg>
      <trkpt lat="50.775410989299417" lon="15.038253022357821">
        <ele>366.39999999999998</ele>
        <time>2013-09-06T06:20:10Z</time>
      </trkpt>
      <trkpt lat="50.775549961254001" lon="15.038042971864343">
        <ele>364</ele>
        <time>2013-09-06T06:20:13Z</time>
      </trkpt>
      <trkpt lat="50.775588015094399" lon="15.037955967709422">
        <ele>364</ele>
        <time>2013-09-06T06:20:14Z</time>
      </trkpt>
      <trkpt lat="50.775701003149152" lon="15.037771984934807">
        <ele>362.55000000000001</ele>
        <time>2013-09-06T06:20:16Z</time>
      </trkpt>
      <trkpt lat="50.775768980383873" lon="15.037666959688067">
        <ele>362.06999999999999</ele>
        <time>2013-09-06T06:20:17Z</time>
      </trkpt>
      <trkpt lat="50.776186985895038" lon="15.037077963352203">
        <ele>354.38</ele>
        <time>2013-09-06T06:20:25Z</time>
      </trkpt>
      <trkpt lat="50.776258986443281" lon="15.037018032744527">
        <ele>352.94</ele>
        <time>2013-09-06T06:20:27Z</time>
      </trkpt>
      <trkpt lat="50.776337021961808" lon="15.036925999447703">
        <ele>352.94</ele>
        <time>2013-09-06T06:20:29Z</time>
      </trkpt>
      <trkpt lat="50.776359988376498" lon="15.036862967535853">
        <ele>352.45999999999998</ele>
        <time>2013-09-06T06:20:30Z</time>
      </trkpt>
      <trkpt lat="50.776359988376498" lon="15.036784010007977">
        <ele>353.89999999999998</ele>
        <time>2013-09-06T06:20:31Z</time>
      </trkpt>
      <trkpt lat="50.77634003944695" lon="15.036713015288115">
        <ele>354.38</ele>
        <time>2013-09-06T06:20:32Z</time>
      </trkpt>
      <trkpt lat="50.77629997394979" lon="15.036648977547884">
        <ele>354.86000000000001</ele>
        <time>2013-09-06T06:20:33Z</time>
      </trkpt>
      <trkpt lat="50.776249011978507" lon="15.036605978384614">
        <ele>354.86000000000001</ele>
        <time>2013-09-06T06:20:34Z</time>
      </trkpt>
      <trkpt lat="50.776199977844954" lon="15.036559039726853">
        <ele>356.31</ele>
        <time>2013-09-06T06:20:35Z</time>
      </trkpt>
      <trkpt lat="50.776112973690033" lon="15.036454014480114">
        <ele>357.75</ele>
        <time>2013-09-06T06:20:37Z</time>
      </trkpt>
      <trkpt lat="50.776098975911736" lon="15.036400035023689">
        <ele>358.70999999999998</ele>
        <time>2013-09-06T06:20:38Z</time>
      </trkpt>
      <trkpt lat="50.776078021153808" lon="15.036345971748233">
        <ele>358.23000000000002</ele>
        <time>2013-09-06T06:20:39Z</time>
      </trkpt>
      <trkpt lat="50.776034016162157" lon="15.036069033667445">
        <ele>359.19</ele>
        <time>2013-09-06T06:20:48Z</time>
      </trkpt>
      <trkpt lat="50.776030998677015" lon="15.035996027290821">
        <ele>359.67000000000002</ele>
        <time>2013-09-06T06:20:49Z</time>
      </trkpt>
      <trkpt lat="50.776030998677015" lon="15.035899970680475">
        <ele>361.11000000000001</ele>
        <time>2013-09-06T06:20:50Z</time>
      </trkpt>
      <trkpt lat="50.776024041697383" lon="15.035726968199015">
        <ele>362.06999999999999</ele>
        <time>2013-09-06T06:20:52Z</time>
      </trkpt>
      <trkpt lat="50.776004008948803" lon="15.035652033984661">
        <ele>362.06999999999999</ele>
        <time>2013-09-06T06:20:53Z</time>
      </trkpt>
      <trkpt lat="50.775979030877352" lon="15.035581039264798">
        <ele>362.06999999999999</ele>
        <time>2013-09-06T06:20:54Z</time>
      </trkpt>
      <trkpt lat="50.775885991752148" lon="15.035100001841784">
        <ele>363.51999999999998</ele>
        <time>2013-09-06T06:21:02Z</time>
      </trkpt>
      <trkpt lat="50.775877023115754" lon="15.035006962716579">
        <ele>363.51999999999998</ele>
        <time>2013-09-06T06:21:03Z</time>
      </trkpt>
      <trkpt lat="50.775884985923767" lon="15.034800013527274">
        <ele>363.04000000000002</ele>
        <time>2013-09-06T06:21:05Z</time>
      </trkpt>
      <trkpt lat="50.775909963995218" lon="15.034698005765676">
        <ele>363.04000000000002</ele>
        <time>2013-09-06T06:21:06Z</time>
      </trkpt>
      <trkpt lat="50.775947012007236" lon="15.034604966640472">
        <ele>363.04000000000002</ele>
        <time>2013-09-06T06:21:07Z</time>
      </trkpt>
      <trkpt lat="50.775995962321758" lon="15.0345120113343">
        <ele>363.04000000000002</ele>
        <time>2013-09-06T06:21:08Z</time>
      </trkpt>
      <trkpt lat="50.776056982576847" lon="15.034432969987392">
        <ele>362.55000000000001</ele>
        <time>2013-09-06T06:21:09Z</time>
      </trkpt>
      <trkpt lat="50.776118002831936" lon="15.034345965832472">
        <ele>362.55000000000001</ele>
        <time>2013-09-06T06:21:10Z</time>
      </trkpt>
      <trkpt lat="50.776252029463649" lon="15.034166006371379">
        <ele>362.55000000000001</ele>
        <time>2013-09-06T06:21:12Z</time>
      </trkpt>
      <trkpt lat="50.776338027790189" lon="15.034102974459529">
        <ele>362.55000000000001</ele>
        <time>2013-09-06T06:21:13Z</time>
      </trkpt>
      <trkpt lat="50.776434000581503" lon="15.034090988337994">
        <ele>362.55000000000001</ele>
        <time>2013-09-06T06:21:14Z</time>
      </trkpt>
      <trkpt lat="50.776515975594521" lon="15.034143961966038">
        <ele>362.06999999999999</ele>
        <time>2013-09-06T06:21:15Z</time>
      </trkpt>
      <trkpt lat="50.776546988636255" lon="15.034255022183061">
        <ele>360.63</ele>
        <time>2013-09-06T06:21:16Z</time>
      </trkpt>
      <trkpt lat="50.776556963101029" lon="15.034396005794406">
        <ele>360.63</ele>
        <time>2013-09-06T06:21:17Z</time>
      </trkpt>
      <trkpt lat="50.776543971151114" lon="15.034527014940977">
        <ele>360.63</ele>
        <time>2013-09-06T06:21:18Z</time>
      </trkpt>
      <trkpt lat="50.776503989472985" lon="15.034654000774026">
        <ele>361.58999999999997</ele>
        <time>2013-09-06T06:21:19Z</time>
      </trkpt>
      <trkpt lat="50.776443975046277" lon="15.034769000485539">
        <ele>362.06999999999999</ele>
        <time>2013-09-06T06:21:20Z</time>
      </trkpt>
      <trkpt lat="50.776355965062976" lon="15.03487603738904">
        <ele>362.55000000000001</ele>
        <time>2013-09-06T06:21:21Z</time>
      </trkpt>
      <trkpt lat="50.776260998100042" lon="15.034977961331606">
        <ele>362.06999999999999</ele>
        <time>2013-09-06T06:21:22Z</time>
      </trkpt>
      <trkpt lat="50.776156978681684" lon="15.035078963264823">
        <ele>363.04000000000002</ele>
        <time>2013-09-06T06:21:23Z</time>
      </trkpt>
      <trkpt lat="50.77490103431046" lon="15.036041038110852">
        <ele>364.95999999999998</ele>
        <time>2013-09-06T06:21:32Z</time>
      </trkpt>
      <trkpt lat="50.772842019796371" lon="15.037556989118457">
        <ele>363.04000000000002</ele>
        <time>2013-09-06T06:21:44Z</time>
      </trkpt>
      <trkpt lat="50.771216014400125" lon="15.038731964305043">
        <ele>361.11000000000001</ele>
        <time>2013-09-06T06:21:53Z</time>
      </trkpt>
      <trkpt lat="50.769082987681031" lon="15.040475986897945">
        <ele>362.06999999999999</ele>
        <time>2013-09-06T06:22:04Z</time>
      </trkpt>
      <trkpt lat="50.766760027036071" lon="15.043203961104155">
        <ele>357.26999999999998</ele>
        <time>2013-09-06T06:22:17Z</time>
      </trkpt>
      <trkpt lat="50.765485977753997" lon="15.044498965144157">
        <ele>357.26999999999998</ele>
        <time>2013-09-06T06:22:25Z</time>
      </trkpt>
      <trkpt lat="50.764278983697295" lon="15.045956997200847">
        <ele>358.70999999999998</ele>
        <time>2013-09-06T06:22:34Z</time>
      </trkpt>
      <trkpt lat="50.760408975183964" lon="15.048497971147299">
        <ele>361.58999999999997</ele>
        <time>2013-09-06T06:22:58Z</time>
      </trkpt>
      <trkpt lat="50.75911003164947" lon="15.049367006868124">
        <ele>372.64999999999998</ele>
        <time>2013-09-06T06:23:05Z</time>
      </trkpt>
      <trkpt lat="50.757921980693936" lon="15.050953030586243">
        <ele>375.52999999999997</ele>
        <time>2013-09-06T06:23:13Z</time>
      </trkpt>
      <trkpt lat="50.756340986117721" lon="15.052282987162471">
        <ele>373.61000000000001</ele>
        <time>2013-09-06T06:23:22Z</time>
      </trkpt>
      <trkpt lat="50.75459998100996" lon="15.052577024325728">
        <ele>371.69</ele>
        <time>2013-09-06T06:23:31Z</time>
      </trkpt>
      <trkpt lat="50.752921001985669" lon="15.052995029836893">
        <ele>374.08999999999997</ele>
        <time>2013-09-06T06:23:40Z</time>
      </trkpt>
      <trkpt lat="50.749912988394499" lon="15.053830035030842">
        <ele>377.94</ele>
        <time>2013-09-06T06:23:54Z</time>
      </trkpt>
      <trkpt lat="50.746916960924864" lon="15.054147038608789">
        <ele>382.74000000000001</ele>
        <time>2013-09-06T06:24:08Z</time>
      </trkpt>
      <trkpt lat="50.744879990816116" lon="15.054062968119979">
        <ele>386.58999999999997</ele>
        <time>2013-09-06T06:24:18Z</time>
      </trkpt>
      <trkpt lat="50.74336102232337" lon="15.053819976747036">
        <ele>388.02999999999997</ele>
        <time>2013-09-06T06:24:26Z</time>
      </trkpt>
      <trkpt lat="50.743097998201847" lon="15.053758034482598">
        <ele>388.02999999999997</ele>
        <time>2013-09-06T06:24:28Z</time>
      </trkpt>
      <trkpt lat="50.742990961298347" lon="15.053714029490948">
        <ele>388.02999999999997</ele>
        <time>2013-09-06T06:24:29Z</time>
      </trkpt>
      <trkpt lat="50.742899011820555" lon="15.053667007014155">
        <ele>388.02999999999997</ele>
        <time>2013-09-06T06:24:30Z</time>
      </trkpt>
      <trkpt lat="50.742832962423563" lon="15.053598023951054">
        <ele>387.06999999999999</ele>
        <time>2013-09-06T06:24:31Z</time>
      </trkpt>
      <trkpt lat="50.742764985188842" lon="15.053520994260907">
        <ele>387.06999999999999</ele>
        <time>2013-09-06T06:24:32Z</time>
      </trkpt>
      <trkpt lat="50.742704970762134" lon="15.053422003984451">
        <ele>386.58999999999997</ele>
        <time>2013-09-06T06:24:33Z</time>
      </trkpt>
      <trkpt lat="50.742655014619231" lon="15.053297029808164">
        <ele>385.63</ele>
        <time>2013-09-06T06:24:34Z</time>
      </trkpt>
      <trkpt lat="50.74263003654778" lon="15.053183035925031">
        <ele>382.74000000000001</ele>
        <time>2013-09-06T06:24:35Z</time>
      </trkpt>
      <trkpt lat="50.742614027112722" lon="15.053065018728375">
        <ele>383.22000000000003</ele>
        <time>2013-09-06T06:24:36Z</time>
      </trkpt>
      <trkpt lat="50.74258703738451" lon="15.052964016795158">
        <ele>382.25999999999999</ele>
        <time>2013-09-06T06:24:37Z</time>
      </trkpt>
      <trkpt lat="50.742571027949452" lon="15.052869971841574">
        <ele>384.66000000000003</ele>
        <time>2013-09-06T06:24:38Z</time>
      </trkpt>
      <trkpt lat="50.742506990209222" lon="15.052801994606853">
        <ele>384.18000000000001</ele>
        <time>2013-09-06T06:24:39Z</time>
      </trkpt>
      <trkpt lat="50.742430966347456" lon="15.052743991836905">
        <ele>383.69999999999999</ele>
        <time>2013-09-06T06:24:40Z</time>
      </trkpt>
      <trkpt lat="50.742340022698045" lon="15.052703004330397">
        <ele>384.66000000000003</ele>
        <time>2013-09-06T06:24:41Z</time>
      </trkpt>
      <trkpt lat="50.742241032421589" lon="15.05266796797514">
        <ele>383.69999999999999</ele>
        <time>2013-09-06T06:24:42Z</time>
      </trkpt>
      <trkpt lat="50.741884969174862" lon="15.05249303765595">
        <ele>385.14999999999998</ele>
        <time>2013-09-06T06:24:46Z</time>
      </trkpt>
      <trkpt lat="50.741825038567185" lon="15.052421037107706">
        <ele>385.14999999999998</ele>
        <time>2013-09-06T06:24:47Z</time>
      </trkpt>
      <trkpt lat="50.741780027747154" lon="15.05234400741756">
        <ele>384.66000000000003</ele>
        <time>2013-09-06T06:24:48Z</time>
      </trkpt>
      <trkpt lat="50.7417500205338" lon="15.052253985777497">
        <ele>384.18000000000001</ele>
        <time>2013-09-06T06:24:49Z</time>
      </trkpt>
      <trkpt lat="50.741723030805588" lon="15.052160024642944">
        <ele>383.69999999999999</ele>
        <time>2013-09-06T06:24:50Z</time>
      </trkpt>
      <trkpt lat="50.74168598279357" lon="15.052070003002882">
        <ele>383.22000000000003</ele>
        <time>2013-09-06T06:24:51Z</time>
      </trkpt>
      <trkpt lat="50.741633009165525" lon="15.052003031596541">
        <ele>382.25999999999999</ele>
        <time>2013-09-06T06:24:52Z</time>
      </trkpt>
      <trkpt lat="50.741568971425295" lon="15.051972018554807">
        <ele>382.74000000000001</ele>
        <time>2013-09-06T06:24:53Z</time>
      </trkpt>
      <trkpt lat="50.741307036951184" lon="15.051848972216249">
        <ele>385.14999999999998</ele>
        <time>2013-09-06T06:24:56Z</time>
      </trkpt>
      <trkpt lat="50.741220032796264" lon="15.051768003031611">
        <ele>386.11000000000001</ele>
        <time>2013-09-06T06:24:57Z</time>
      </trkpt>
      <trkpt lat="50.740974023938179" lon="15.051497016102076">
        <ele>388.50999999999999</ele>
        <time>2013-09-06T06:25:00Z</time>
      </trkpt>
      <trkpt lat="50.740920966491103" lon="15.051410011947155">
        <ele>389.94999999999999</ele>
        <time>2013-09-06T06:25:01Z</time>
      </trkpt>
      <trkpt lat="50.740887019783258" lon="15.051327031105757">
        <ele>391.38999999999999</ele>
        <time>2013-09-06T06:25:02Z</time>
      </trkpt>
      <trkpt lat="50.74080596677959" lon="15.051006004214287">
        <ele>393.31999999999999</ele>
        <time>2013-09-06T06:25:06Z</time>
      </trkpt>
      <trkpt lat="50.740750981494784" lon="15.050104027613997">
        <ele>395.72000000000003</ele>
        <time>2013-09-06T06:25:12Z</time>
      </trkpt>
      <trkpt lat="50.740671018138528" lon="15.048213992267847">
        <ele>399.56999999999999</ele>
        <time>2013-09-06T06:25:23Z</time>
      </trkpt>
      <trkpt lat="50.740714017301798" lon="15.047417040914297">
        <ele>397.16000000000003</ele>
        <time>2013-09-06T06:25:28Z</time>
      </trkpt>
      <trkpt lat="50.740752993151546" lon="15.047336993739009">
        <ele>396.68000000000001</ele>
        <time>2013-09-06T06:25:29Z</time>
      </trkpt>
      <trkpt lat="50.740799009799957" lon="15.047303969040513">
        <ele>396.19999999999999</ele>
        <time>2013-09-06T06:25:30Z</time>
      </trkpt>
      <trkpt lat="50.740855000913143" lon="15.047298017889261">
        <ele>396.68000000000001</ele>
        <time>2013-09-06T06:25:31Z</time>
      </trkpt>
      <trkpt lat="50.740929013118148" lon="15.047300029546022">
        <ele>396.68000000000001</ele>
        <time>2013-09-06T06:25:32Z</time>
      </trkpt>
      <trkpt lat="50.741225983947515" lon="15.047284020110965">
        <ele>399.07999999999998</ele>
        <time>2013-09-06T06:25:36Z</time>
      </trkpt>
      <trkpt lat="50.741274012252688" lon="15.047227023169398">
        <ele>400.52999999999997</ele>
        <time>2013-09-06T06:25:37Z</time>
      </trkpt>
      <trkpt lat="50.741310976445675" lon="15.047137001529336">
        <ele>401.97000000000003</ele>
        <time>2013-09-06T06:25:38Z</time>
      </trkpt>
      <trkpt lat="50.74134198948741" lon="15.047040022909641">
        <ele>402.44999999999999</ele>
        <time>2013-09-06T06:25:39Z</time>
      </trkpt>
      <trkpt lat="50.741364033892751" lon="15.046913037076592">
        <ele>401.49000000000001</ele>
        <time>2013-09-06T06:25:40Z</time>
      </trkpt>
      <trkpt lat="50.741379959508777" lon="15.046784961596131">
        <ele>401.49000000000001</ele>
        <time>2013-09-06T06:25:41Z</time>
      </trkpt>
      <trkpt lat="50.741389011964202" lon="15.04667398519814">
        <ele>402.44999999999999</ele>
        <time>2013-09-06T06:25:42Z</time>
      </trkpt>
      <trkpt lat="50.741453971713781" lon="15.045778965577483">
        <ele>404.85000000000002</ele>
        <time>2013-09-06T06:25:51Z</time>
      </trkpt>
      <trkpt lat="50.741479033604264" lon="15.045699002221227">
        <ele>404.85000000000002</ele>
        <time>2013-09-06T06:25:52Z</time>
      </trkpt>
      <trkpt lat="50.74151499196887" lon="15.045648040249944">
        <ele>405.32999999999998</ele>
        <time>2013-09-06T06:25:53Z</time>
      </trkpt>
      <trkpt lat="50.741568971425295" lon="15.045637981966138">
        <ele>405.81</ele>
        <time>2013-09-06T06:25:54Z</time>
      </trkpt>
      <trkpt lat="50.741633009165525" lon="15.045648040249944">
        <ele>405.81</ele>
        <time>2013-09-06T06:25:55Z</time>
      </trkpt>
      <trkpt lat="50.741701992228627" lon="15.045660026371479">
        <ele>406.29000000000002</ele>
        <time>2013-09-06T06:25:56Z</time>
      </trkpt>
      <trkpt lat="50.741931991651654" lon="15.045690033584833">
        <ele>407.25999999999999</ele>
        <time>2013-09-06T06:25:59Z</time>
      </trkpt>
      <trkpt lat="50.742936981841922" lon="15.045546032488346">
        <ele>407.74000000000001</ele>
        <time>2013-09-06T06:26:11Z</time>
      </trkpt>
      <trkpt lat="50.743370996788144" lon="15.045391973108053">
        <ele>403.41000000000003</ele>
        <time>2013-09-06T06:26:20Z</time>
      </trkpt>
      <trkpt lat="50.743391029536724" lon="15.04538300447166">
        <ele>404.85000000000002</ele>
        <time>2013-09-06T06:26:22Z</time>
      </trkpt>
      <trkpt lat="50.743412990123034" lon="15.045397002249956">
        <ele>404.85000000000002</ele>
        <time>2013-09-06T06:26:23Z</time>
      </trkpt>
      <trkpt lat="50.743450960144401" lon="15.045430026948452">
        <ele>403.88999999999999</ele>
        <time>2013-09-06T06:26:24Z</time>
      </trkpt>
      <trkpt lat="50.743563026189804" lon="15.045475037768483">
        <ele>402.44999999999999</ele>
        <time>2013-09-06T06:26:26Z</time>
      </trkpt>
      <trkpt lat="50.743621028959751" lon="15.045442013069987">
        <ele>401.97000000000003</ele>
        <time>2013-09-06T06:26:27Z</time>
      </trkpt>
      <trkpt lat="50.743666961789131" lon="15.045361965894699">
        <ele>402.44999999999999</ele>
        <time>2013-09-06T06:26:28Z</time>
      </trkpt>
      <trkpt lat="50.743680959567428" lon="15.045259958133101">
        <ele>402.44999999999999</ele>
        <time>2013-09-06T06:26:29Z</time>
      </trkpt>
      <trkpt lat="50.743660004809499" lon="15.04514797590673">
        <ele>401.49000000000001</ele>
        <time>2013-09-06T06:26:30Z</time>
      </trkpt>
      <trkpt lat="50.743612982332706" lon="15.045046973973513">
        <ele>401.00999999999999</ele>
        <time>2013-09-06T06:26:31Z</time>
      </trkpt>
      <trkpt lat="50.743551040068269" lon="15.044943960383534">
        <ele>401.49000000000001</ele>
        <time>2013-09-06T06:26:32Z</time>
      </trkpt>
      <trkpt lat="50.74351298622787" lon="15.044800965115428">
        <ele>401.97000000000003</ele>
        <time>2013-09-06T06:26:33Z</time>
      </trkpt>
      <trkpt lat="50.743068996816874" lon="15.042988965287805">
        <ele>402.44999999999999</ele>
        <time>2013-09-06T06:26:43Z</time>
      </trkpt>
      <trkpt lat="50.742948967963457" lon="15.040747979655862">
        <ele>400.52999999999997</ele>
        <time>2013-09-06T06:26:54Z</time>
      </trkpt>
      <trkpt lat="50.743264965713024" lon="15.03878996707499">
        <ele>399.56999999999999</ele>
        <time>2013-09-06T06:27:03Z</time>
      </trkpt>
      <trkpt lat="50.743686994537711" lon="15.037453975528479">
        <ele>400.52999999999997</ele>
        <time>2013-09-06T06:27:12Z</time>
      </trkpt>
      <trkpt lat="50.743769975379109" lon="15.037286002188921">
        <ele>401.00999999999999</ele>
        <time>2013-09-06T06:27:14Z</time>
      </trkpt>
      <trkpt lat="50.743777016177773" lon="15.037250965833664">
        <ele>401.00999999999999</ele>
        <time>2013-09-06T06:27:15Z</time>
      </trkpt>
      <trkpt lat="50.74377098120749" lon="15.037244008854032">
        <ele>401.49000000000001</ele>
        <time>2013-09-06T06:27:29Z</time>
      </trkpt>
      <trkpt lat="50.743833007290959" lon="15.036959024146199">
        <ele>401.00999999999999</ele>
        <time>2013-09-06T06:28:02Z</time>
      </trkpt>
      <trkpt lat="50.743854967877269" lon="15.036866990849376">
        <ele>401.49000000000001</ele>
        <time>2013-09-06T06:28:03Z</time>
      </trkpt>
      <trkpt lat="50.743885980919003" lon="15.036778980866075">
        <ele>401.49000000000001</ele>
        <time>2013-09-06T06:28:04Z</time>
      </trkpt>
      <trkpt lat="50.743927974253893" lon="15.036691976711154">
        <ele>401.49000000000001</ele>
        <time>2013-09-06T06:28:05Z</time>
      </trkpt>
      <trkpt lat="50.743982959538698" lon="15.036606984212995">
        <ele>401.97000000000003</ele>
        <time>2013-09-06T06:28:06Z</time>
      </trkpt>
      <trkpt lat="50.744026964530349" lon="15.036530960351229">
        <ele>401.97000000000003</ele>
        <time>2013-09-06T06:28:07Z</time>
      </trkpt>
      <trkpt lat="50.744056971743703" lon="15.03644697368145">
        <ele>401.97000000000003</ele>
        <time>2013-09-06T06:28:08Z</time>
      </trkpt>
      <trkpt lat="50.744068035855889" lon="15.036346977576613">
        <ele>402.44999999999999</ele>
        <time>2013-09-06T06:28:09Z</time>
      </trkpt>
      <trkpt lat="50.744059989228845" lon="15.036246981471777">
        <ele>402.93000000000001</ele>
        <time>2013-09-06T06:28:10Z</time>
      </trkpt>
      <trkpt lat="50.744043979793787" lon="15.036140028387308">
        <ele>403.88999999999999</ele>
        <time>2013-09-06T06:28:11Z</time>
      </trkpt>
      <trkpt lat="50.744023025035858" lon="15.03603802062571">
        <ele>403.88999999999999</ele>
        <time>2013-09-06T06:28:12Z</time>
      </trkpt>
      <trkpt lat="50.744012966752052" lon="15.035923020914197">
        <ele>404.37</ele>
        <time>2013-09-06T06:28:13Z</time>
      </trkpt>
      <trkpt lat="50.744011038914323" lon="15.035798968747258">
        <ele>404.85000000000002</ele>
        <time>2013-09-06T06:28:14Z</time>
      </trkpt>
      <trkpt lat="50.744014978408813" lon="15.035667037591338">
        <ele>405.32999999999998</ele>
        <time>2013-09-06T06:28:15Z</time>
      </trkpt>
      <trkpt lat="50.744023025035858" lon="15.035538962110877">
        <ele>406.29000000000002</ele>
        <time>2013-09-06T06:28:16Z</time>
      </trkpt>
      <trkpt lat="50.744024030864239" lon="15.035120034590364">
        <ele>407.25999999999999</ele>
        <time>2013-09-06T06:28:19Z</time>
      </trkpt>
      <trkpt lat="50.744005003944039" lon="15.034974021837115">
        <ele>407.25999999999999</ele>
        <time>2013-09-06T06:28:20Z</time>
      </trkpt>
      <trkpt lat="50.743965022265911" lon="15.034827003255486">
        <ele>407.74000000000001</ele>
        <time>2013-09-06T06:28:21Z</time>
      </trkpt>
      <trkpt lat="50.743772992864251" lon="15.0339749827981">
        <ele>410.13999999999999</ele>
        <time>2013-09-06T06:28:26Z</time>
      </trkpt>
      <trkpt lat="50.743722030892968" lon="15.03358799032867">
        <ele>410.62</ele>
        <time>2013-09-06T06:28:28Z</time>
      </trkpt>
      <trkpt lat="50.743496976792812" lon="15.031219013035297">
        <ele>417.82999999999998</ele>
        <time>2013-09-06T06:28:41Z</time>
      </trkpt>
      <trkpt lat="50.743172010406852" lon="15.029738014563918">
        <ele>424.07999999999998</ele>
        <time>2013-09-06T06:28:49Z</time>
      </trkpt>
      <trkpt lat="50.742439012974501" lon="15.027665002271533">
        <ele>432.73000000000002</ele>
        <time>2013-09-06T06:29:00Z</time>
      </trkpt>
      <trkpt lat="50.741806011646986" lon="15.025405995547771">
        <ele>442.33999999999997</ele>
        <time>2013-09-06T06:29:11Z</time>
      </trkpt>
      <trkpt lat="50.741125987842679" lon="15.022925036028028">
        <ele>453.39999999999998</ele>
        <time>2013-09-06T06:29:23Z</time>
      </trkpt>
      <trkpt lat="50.740843014791608" lon="15.021701026707888">
        <ele>463.00999999999999</ele>
        <time>2013-09-06T06:29:31Z</time>
      </trkpt>
      <trkpt lat="50.740749975666404" lon="15.021300036460161">
        <ele>463.97000000000003</ele>
        <time>2013-09-06T06:30:05Z</time>
      </trkpt>
      <trkpt lat="50.740605974569917" lon="15.020834002643824">
        <ele>466.86000000000001</ele>
        <time>2013-09-06T06:30:08Z</time>
      </trkpt>
      <trkpt lat="50.740532968193293" lon="15.020667035132647">
        <ele>467.33999999999997</ele>
        <time>2013-09-06T06:30:09Z</time>
      </trkpt>
      <trkpt lat="50.73977499268949" lon="15.019019991159439">
        <ele>474.55000000000001</ele>
        <time>2013-09-06T06:30:18Z</time>
      </trkpt>
      <trkpt lat="50.739236958324909" lon="15.016897022724152">
        <ele>490.41000000000003</ele>
        <time>2013-09-06T06:30:28Z</time>
      </trkpt>
      <trkpt lat="50.739154983311892" lon="15.016491003334522">
        <ele>491.85000000000002</ele>
        <time>2013-09-06T06:30:30Z</time>
      </trkpt>
      <trkpt lat="50.739136962220073" lon="15.016268966719508">
        <ele>492.81</ele>
        <time>2013-09-06T06:30:31Z</time>
      </trkpt>
      <trkpt lat="50.739075019955635" lon="15.015421975404024">
        <ele>499.06</ele>
        <time>2013-09-06T06:30:35Z</time>
      </trkpt>
      <trkpt lat="50.739035960286856" lon="15.015218965709209">
        <ele>500.98000000000002</ele>
        <time>2013-09-06T06:30:36Z</time>
      </trkpt>
      <trkpt lat="50.738643016666174" lon="15.013793036341667">
        <ele>511.07999999999998</ele>
        <time>2013-09-06T06:30:44Z</time>
      </trkpt>
      <trkpt lat="50.738618960604072" lon="15.013593966141343">
        <ele>512.51999999999998</ele>
        <time>2013-09-06T06:30:45Z</time>
      </trkpt>
      <trkpt lat="50.738306986168027" lon="15.012070974335074">
        <ele>519.73000000000002</ele>
        <time>2013-09-06T06:30:53Z</time>
      </trkpt>
      <trkpt lat="50.738222999498248" lon="15.011906018480659">
        <ele>520.69000000000005</ele>
        <time>2013-09-06T06:30:54Z</time>
      </trkpt>
      <trkpt lat="50.737985959276557" lon="15.011424981057644">
        <ele>523.58000000000004</ele>
        <time>2013-09-06T06:30:57Z</time>
      </trkpt>
      <trkpt lat="50.7379250228405" lon="15.011249966919422">
        <ele>524.53999999999996</ele>
        <time>2013-09-06T06:30:58Z</time>
      </trkpt>
      <trkpt lat="50.737871965393424" lon="15.011065984144807">
        <ele>525.98000000000002</ele>
        <time>2013-09-06T06:30:59Z</time>
      </trkpt>
      <trkpt lat="50.737843969836831" lon="15.010874038562179">
        <ele>526.94000000000005</ele>
        <time>2013-09-06T06:31:00Z</time>
      </trkpt>
      <trkpt lat="50.737836007028818" lon="15.010673962533474">
        <ele>528.38</ele>
        <time>2013-09-06T06:31:01Z</time>
      </trkpt>
      <trkpt lat="50.737828966230154" lon="15.010453015565872">
        <ele>528.86000000000001</ele>
        <time>2013-09-06T06:31:02Z</time>
      </trkpt>
      <trkpt lat="50.73783902451396" lon="15.009624967351556">
        <ele>533.19000000000005</ele>
        <time>2013-09-06T06:31:06Z</time>
      </trkpt>
      <trkpt lat="50.737889986485243" lon="15.009446013718843">
        <ele>534.63</ele>
        <time>2013-09-06T06:31:07Z</time>
      </trkpt>
      <trkpt lat="50.73796802200377" lon="15.009278040379286">
        <ele>536.07000000000005</ele>
        <time>2013-09-06T06:31:08Z</time>
      </trkpt>
      <trkpt lat="50.73812099173665" lon="15.008951984345913">
        <ele>537.50999999999999</ele>
        <time>2013-09-06T06:31:10Z</time>
      </trkpt>
      <trkpt lat="50.738174971193075" lon="15.008764984086156">
        <ele>539.44000000000005</ele>
        <time>2013-09-06T06:31:11Z</time>
      </trkpt>
      <trkpt lat="50.738202966749668" lon="15.008547976613045">
        <ele>540.39999999999998</ele>
        <time>2013-09-06T06:31:12Z</time>
      </trkpt>
      <trkpt lat="50.738186035305262" lon="15.008343039080501">
        <ele>540.88</ele>
        <time>2013-09-06T06:31:13Z</time>
      </trkpt>
      <trkpt lat="50.738164996728301" lon="15.008135000243783">
        <ele>541.36000000000001</ele>
        <time>2013-09-06T06:31:14Z</time>
      </trkpt>
      <trkpt lat="50.738101964816451" lon="15.006857011467218">
        <ele>546.64999999999998</ele>
        <time>2013-09-06T06:31:20Z</time>
      </trkpt>
      <trkpt lat="50.738044967874885" lon="15.006676968187094">
        <ele>547.13</ele>
        <time>2013-09-06T06:31:21Z</time>
      </trkpt>
      <trkpt lat="50.73796902783215" lon="15.0065160356462">
        <ele>547.61000000000001</ele>
        <time>2013-09-06T06:31:22Z</time>
      </trkpt>
      <trkpt lat="50.737875988706946" lon="15.006374968215823">
        <ele>548.57000000000005</ele>
        <time>2013-09-06T06:31:23Z</time>
      </trkpt>
      <trkpt lat="50.737767023965716" lon="15.006244964897633">
        <ele>549.04999999999995</ele>
        <time>2013-09-06T06:31:24Z</time>
      </trkpt>
      <trkpt lat="50.737424958497286" lon="15.005908012390137">
        <ele>550.97000000000003</ele>
        <time>2013-09-06T06:31:27Z</time>
      </trkpt>
      <trkpt lat="50.737318005412817" lon="15.005909018218517">
        <ele>551.45000000000005</ele>
        <time>2013-09-06T06:31:28Z</time>
      </trkpt>
      <trkpt lat="50.737210968509316" lon="15.005978001281619">
        <ele>551.92999999999995</ele>
        <time>2013-09-06T06:31:29Z</time>
      </trkpt>
      <trkpt lat="50.737127987667918" lon="15.006112027913332">
        <ele>552.40999999999997</ele>
        <time>2013-09-06T06:31:30Z</time>
      </trkpt>
      <trkpt lat="50.7370650395751" lon="15.006298022344708">
        <ele>552.89999999999998</ele>
        <time>2013-09-06T06:31:31Z</time>
      </trkpt>
      <trkpt lat="50.737013993784785" lon="15.006490973755717">
        <ele>553.38</ele>
        <time>2013-09-06T06:31:32Z</time>
      </trkpt>
      <trkpt lat="50.736939981579781" lon="15.006650984287262">
        <ele>553.86000000000001</ele>
        <time>2013-09-06T06:31:33Z</time>
      </trkpt>
      <trkpt lat="50.736855994910002" lon="15.006750980392098">
        <ele>554.34000000000003</ele>
        <time>2013-09-06T06:31:34Z</time>
      </trkpt>
      <trkpt lat="50.736760022118688" lon="15.006751986220479">
        <ele>555.29999999999995</ele>
        <time>2013-09-06T06:31:35Z</time>
      </trkpt>
      <trkpt lat="50.736662959679961" lon="15.006681997328997">
        <ele>555.77999999999997</ele>
        <time>2013-09-06T06:31:36Z</time>
      </trkpt>
      <trkpt lat="50.736567992717028" lon="15.006557023152709">
        <ele>556.74000000000001</ele>
        <time>2013-09-06T06:31:37Z</time>
      </trkpt>
      <trkpt lat="50.736477971076965" lon="15.006441017612815">
        <ele>557.22000000000003</ele>
        <time>2013-09-06T06:31:38Z</time>
      </trkpt>
      <trkpt lat="50.736408988013864" lon="15.006274972110987">
        <ele>558.65999999999997</ele>
        <time>2013-09-06T06:31:39Z</time>
      </trkpt>
      <trkpt lat="50.736436983570457" lon="15.006032986566424">
        <ele>558.65999999999997</ele>
        <time>2013-09-06T06:31:40Z</time>
      </trkpt>
      <trkpt lat="50.736462967470288" lon="15.005793012678623">
        <ele>558.65999999999997</ele>
        <time>2013-09-06T06:31:41Z</time>
      </trkpt>
      <trkpt lat="50.736490041017532" lon="15.005526971071959">
        <ele>558.65999999999997</ele>
        <time>2013-09-06T06:31:42Z</time>
      </trkpt>
      <trkpt lat="50.736472019925714" lon="15.005289008840919">
        <ele>559.62</ele>
        <time>2013-09-06T06:31:43Z</time>
      </trkpt>
      <trkpt lat="50.736213019117713" lon="15.002960013225675">
        <ele>566.35000000000002</ele>
        <time>2013-09-06T06:31:52Z</time>
      </trkpt>
      <trkpt lat="50.736052002757788" lon="15.001898026093841">
        <ele>568.75999999999999</ele>
        <time>2013-09-06T06:31:57Z</time>
      </trkpt>
      <trkpt lat="50.736053008586168" lon="15.001772968098521">
        <ele>569.24000000000001</ele>
        <time>2013-09-06T06:31:58Z</time>
      </trkpt>
      <trkpt lat="50.73605895973742" lon="15.001724017783999">
        <ele>570.67999999999995</ele>
        <time>2013-09-06T06:31:59Z</time>
      </trkpt>
      <trkpt lat="50.736088966950774" lon="15.001712031662464">
        <ele>571.15999999999997</ele>
        <time>2013-09-06T06:32:00Z</time>
      </trkpt>
      <trkpt lat="50.736146969720721" lon="15.001717982813716">
        <ele>572.12</ele>
        <time>2013-09-06T06:32:01Z</time>
      </trkpt>
      <trkpt lat="50.736215030774474" lon="15.001828959211707">
        <ele>573.08000000000004</ele>
        <time>2013-09-06T06:32:02Z</time>
      </trkpt>
      <trkpt lat="50.736305974423885" lon="15.001959968358278">
        <ele>573.55999999999995</ele>
        <time>2013-09-06T06:32:03Z</time>
      </trkpt>
      <trkpt lat="50.73640001937747" lon="15.002073040232062">
        <ele>574.52999999999997</ele>
        <time>2013-09-06T06:32:04Z</time>
      </trkpt>
      <trkpt lat="50.736479982733727" lon="15.002184016630054">
        <ele>575.00999999999999</ele>
        <time>2013-09-06T06:32:05Z</time>
      </trkpt>
      <trkpt lat="50.738590965047479" lon="15.002632029354572">
        <ele>580.76999999999998</ele>
        <time>2013-09-06T06:32:15Z</time>
      </trkpt>
      <trkpt lat="50.738732032477856" lon="15.002767983824015">
        <ele>581.73000000000002</ele>
        <time>2013-09-06T06:32:16Z</time>
      </trkpt>
      <trkpt lat="50.739448014646769" lon="15.003414982929826">
        <ele>585.10000000000002</ele>
        <time>2013-09-06T06:32:21Z</time>
      </trkpt>
      <trkpt lat="50.739617999643087" lon="15.00346502289176">
        <ele>585.58000000000004</ele>
        <time>2013-09-06T06:32:22Z</time>
      </trkpt>
      <trkpt lat="50.739783961325884" lon="15.003496035933495">
        <ele>586.05999999999995</ele>
        <time>2013-09-06T06:32:23Z</time>
      </trkpt>
      <trkpt lat="50.739936009049416" lon="15.003480026498437">
        <ele>587.5</ele>
        <time>2013-09-06T06:32:24Z</time>
      </trkpt>
      <trkpt lat="50.740099959075451" lon="15.003415988758206">
        <ele>587.98000000000002</ele>
        <time>2013-09-06T06:32:25Z</time>
      </trkpt>
      <trkpt lat="50.740255024284124" lon="15.003334013745189">
        <ele>588.95000000000005</ele>
        <time>2013-09-06T06:32:26Z</time>
      </trkpt>
      <trkpt lat="50.74041604064405" lon="15.003238040953875">
        <ele>589.90999999999997</ele>
        <time>2013-09-06T06:32:27Z</time>
      </trkpt>
      <trkpt lat="50.740899005904794" lon="15.002818023785949">
        <ele>592.30999999999995</ele>
        <time>2013-09-06T06:32:30Z</time>
      </trkpt>
      <trkpt lat="50.740991961210966" lon="15.002615014091134">
        <ele>592.78999999999996</ele>
        <time>2013-09-06T06:32:31Z</time>
      </trkpt>
      <trkpt lat="50.74153401888907" lon="15.001436015591025">
        <ele>602.39999999999998</ele>
        <time>2013-09-06T06:32:37Z</time>
      </trkpt>
      <trkpt lat="50.741659998893738" lon="15.001271981745958">
        <ele>603.36000000000001</ele>
        <time>2013-09-06T06:32:38Z</time>
      </trkpt>
      <trkpt lat="50.74187901802361" lon="15.001111971214414">
        <ele>606.73000000000002</ele>
        <time>2013-09-06T06:32:39Z</time>
      </trkpt>
      <trkpt lat="50.742053026333451" lon="15.001026978716254">
        <ele>607.69000000000005</ele>
        <time>2013-09-06T06:32:40Z</time>
      </trkpt>
      <trkpt lat="50.742233991622925" lon="15.000961013138294">
        <ele>608.64999999999998</ele>
        <time>2013-09-06T06:32:41Z</time>
      </trkpt>
      <trkpt lat="50.742528028786182" lon="15.000792033970356">
        <ele>611.05999999999995</ele>
        <time>2013-09-06T06:32:43Z</time>
      </trkpt>
      <trkpt lat="50.742648979648948" lon="15.000669993460178">
        <ele>612.5</ele>
        <time>2013-09-06T06:32:44Z</time>
      </trkpt>
      <trkpt lat="50.74271896854043" lon="15.000495985150337">
        <ele>613.94000000000005</ele>
        <time>2013-09-06T06:32:45Z</time>
      </trkpt>
      <trkpt lat="50.742742018774152" lon="15.000309990718961">
        <ele>614.41999999999996</ele>
        <time>2013-09-06T06:32:46Z</time>
      </trkpt>
      <trkpt lat="50.742742018774152" lon="15.00011301599443">
        <ele>616.34000000000003</ele>
        <time>2013-09-06T06:32:47Z</time>
      </trkpt>
      <trkpt lat="50.742723997682333" lon="14.99989902600646">
        <ele>617.77999999999997</ele>
        <time>2013-09-06T06:32:48Z</time>
      </trkpt>
      <trkpt lat="50.742730032652617" lon="14.999485965818167">
        <ele>619.71000000000004</ele>
        <time>2013-09-06T06:32:50Z</time>
      </trkpt>
      <trkpt lat="50.742785017937422" lon="14.999303994700313">
        <ele>621.14999999999998</ele>
        <time>2013-09-06T06:32:51Z</time>
      </trkpt>
      <trkpt lat="50.742873027920723" lon="14.999123029410839">
        <ele>622.11000000000001</ele>
        <time>2013-09-06T06:32:52Z</time>
      </trkpt>
      <trkpt lat="50.743255997076631" lon="14.998322976753116">
        <ele>625.96000000000004</ele>
        <time>2013-09-06T06:32:56Z</time>
      </trkpt>
      <trkpt lat="50.743330009281635" lon="14.998092977330089">
        <ele>627.39999999999998</ele>
        <time>2013-09-06T06:32:57Z</time>
      </trkpt>
      <trkpt lat="50.743845999240875" lon="14.996409974992275">
        <ele>633.16999999999996</ele>
        <time>2013-09-06T06:33:04Z</time>
      </trkpt>
      <trkpt lat="50.743884975090623" lon="14.996172012761235">
        <ele>633.64999999999998</ele>
        <time>2013-09-06T06:33:05Z</time>
      </trkpt>
      <trkpt lat="50.743913976475596" lon="14.995900020003319">
        <ele>636.04999999999995</ele>
        <time>2013-09-06T06:33:06Z</time>
      </trkpt>
      <trkpt lat="50.743970973417163" lon="14.995614029467106">
        <ele>640.86000000000001</ele>
        <time>2013-09-06T06:33:07Z</time>
      </trkpt>
      <trkpt lat="50.743908025324345" lon="14.995373971760273">
        <ele>642.29999999999995</ele>
        <time>2013-09-06T06:33:08Z</time>
      </trkpt>
      <trkpt lat="50.743804005905986" lon="14.995178002864122">
        <ele>644.22000000000003</ele>
        <time>2013-09-06T06:33:09Z</time>
      </trkpt>
      <trkpt lat="50.74368498288095" lon="14.994982033967972">
        <ele>646.62</ele>
        <time>2013-09-06T06:33:10Z</time>
      </trkpt>
      <trkpt lat="50.743584986776114" lon="14.994777012616396">
        <ele>649.99000000000001</ele>
        <time>2013-09-06T06:33:11Z</time>
      </trkpt>
      <trkpt lat="50.743523966521025" lon="14.994546007364988">
        <ele>652.38999999999999</ele>
        <time>2013-09-06T06:33:12Z</time>
      </trkpt>
      <trkpt lat="50.743492031469941" lon="14.994322964921594">
        <ele>653.83000000000004</ele>
        <time>2013-09-06T06:33:13Z</time>
      </trkpt>
      <trkpt lat="50.743471998721361" lon="14.994116015732288">
        <ele>655.27999999999997</ele>
        <time>2013-09-06T06:33:14Z</time>
      </trkpt>
      <trkpt lat="50.743453977629542" lon="14.993933038786054">
        <ele>657.67999999999995</ele>
        <time>2013-09-06T06:33:15Z</time>
      </trkpt>
      <trkpt lat="50.743389017879963" lon="14.993776967749">
        <ele>658.15999999999997</ele>
        <time>2013-09-06T06:33:16Z</time>
      </trkpt>
      <trkpt lat="50.743294972926378" lon="14.993656016886234">
        <ele>658.15999999999997</ele>
        <time>2013-09-06T06:33:17Z</time>
      </trkpt>
      <trkpt lat="50.743178967386484" lon="14.99360497109592">
        <ele>658.15999999999997</ele>
        <time>2013-09-06T06:33:18Z</time>
      </trkpt>
      <trkpt lat="50.743071008473635" lon="14.993621986359358">
        <ele>658.15999999999997</ele>
        <time>2013-09-06T06:33:19Z</time>
      </trkpt>
      <trkpt lat="50.742969000712037" lon="14.993717959150672">
        <ele>659.12</ele>
        <time>2013-09-06T06:33:20Z</time>
      </trkpt>
      <trkpt lat="50.742884008213878" lon="14.993887022137642">
        <ele>659.60000000000002</ele>
        <time>2013-09-06T06:33:21Z</time>
      </trkpt>
      <trkpt lat="50.742801027372479" lon="14.994107969105244">
        <ele>660.08000000000004</ele>
        <time>2013-09-06T06:33:22Z</time>
      </trkpt>
      <trkpt lat="50.74224497191608" lon="14.995615035295486">
        <ele>666.33000000000004</ele>
        <time>2013-09-06T06:33:28Z</time>
      </trkpt>
      <trkpt lat="50.742132989689708" lon="14.996061958372593">
        <ele>668.73000000000002</ele>
        <time>2013-09-06T06:33:30Z</time>
      </trkpt>
      <trkpt lat="50.742057971656322" lon="14.996220963075757">
        <ele>670.17999999999995</ele>
        <time>2013-09-06T06:33:31Z</time>
      </trkpt>
      <trkpt lat="50.741956969723105" lon="14.996324982494116">
        <ele>671.13999999999999</ele>
        <time>2013-09-06T06:33:32Z</time>
      </trkpt>
      <trkpt lat="50.741843981668353" lon="14.996349038556218">
        <ele>672.58000000000004</ele>
        <time>2013-09-06T06:33:33Z</time>
      </trkpt>
      <trkpt lat="50.741731999441981" lon="14.996250970289111">
        <ele>674.98000000000002</ele>
        <time>2013-09-06T06:33:34Z</time>
      </trkpt>
      <trkpt lat="50.741648012772202" lon="14.996113004162908">
        <ele>676.41999999999996</ele>
        <time>2013-09-06T06:33:35Z</time>
      </trkpt>
      <trkpt lat="50.741584980860353" lon="14.995941007509828">
        <ele>677.38999999999999</ele>
        <time>2013-09-06T06:33:36Z</time>
      </trkpt>
      <trkpt lat="50.741544999182224" lon="14.995725005865097">
        <ele>678.83000000000004</ele>
        <time>2013-09-06T06:33:37Z</time>
      </trkpt>
      <trkpt lat="50.741518009454012" lon="14.995482014492154">
        <ele>680.26999999999998</ele>
        <time>2013-09-06T06:33:38Z</time>
      </trkpt>
      <trkpt lat="50.74149202555418" lon="14.995230976492167">
        <ele>680.75</ele>
        <time>2013-09-06T06:33:39Z</time>
      </trkpt>
      <trkpt lat="50.741459000855684" lon="14.994725966826081">
        <ele>681.23000000000002</ele>
        <time>2013-09-06T06:33:41Z</time>
      </trkpt>
      <trkpt lat="50.741464029997587" lon="14.991807974874973">
        <ele>691.33000000000004</ele>
        <time>2013-09-06T06:33:52Z</time>
      </trkpt>
      <trkpt lat="50.741511974483728" lon="14.991291984915733">
        <ele>692.28999999999996</ele>
        <time>2013-09-06T06:33:54Z</time>
      </trkpt>
      <trkpt lat="50.741808023303747" lon="14.988965000957251">
        <ele>697.09000000000003</ele>
        <time>2013-09-06T06:34:03Z</time>
      </trkpt>
      <trkpt lat="50.741920005530119" lon="14.986677998676896">
        <ele>703.34000000000003</ele>
        <time>2013-09-06T06:34:11Z</time>
      </trkpt>
      <trkpt lat="50.741958981379867" lon="14.984069969505072">
        <ele>709.59000000000003</ele>
        <time>2013-09-06T06:34:20Z</time>
      </trkpt>
      <trkpt lat="50.742236003279686" lon="14.982115980237722">
        <ele>715.36000000000001</ele>
        <time>2013-09-06T06:34:27Z</time>
      </trkpt>
      <trkpt lat="50.742616960778832" lon="14.980897000059485">
        <ele>719.20000000000005</ele>
        <time>2013-09-06T06:34:32Z</time>
      </trkpt>
      <trkpt lat="50.742723997682333" lon="14.980688039213419">
        <ele>720.15999999999997</ele>
        <time>2013-09-06T06:34:33Z</time>
      </trkpt>
      <trkpt lat="50.743223978206515" lon="14.979910030961037">
        <ele>722.09000000000003</ele>
        <time>2013-09-06T06:34:38Z</time>
      </trkpt>
      <trkpt lat="50.743581969290972" lon="14.979486996307969">
        <ele>724.00999999999999</ele>
        <time>2013-09-06T06:34:45Z</time>
      </trkpt>
      <trkpt lat="50.743632009252906" lon="14.97942203655839">
        <ele>724.97000000000003</ele>
        <time>2013-09-06T06:34:46Z</time>
      </trkpt>
      <trkpt lat="50.743651036173105" lon="14.979312987998128">
        <ele>725.45000000000005</ele>
        <time>2013-09-06T06:34:47Z</time>
      </trkpt>
      <trkpt lat="50.743681965395808" lon="14.979168986901641">
        <ele>728.34000000000003</ele>
        <time>2013-09-06T06:34:48Z</time>
      </trkpt>
      <trkpt lat="50.743711972609162" lon="14.978987015783787">
        <ele>729.77999999999997</ele>
        <time>2013-09-06T06:34:49Z</time>
      </trkpt>
      <trkpt lat="50.743808029219508" lon="14.978406988084316">
        <ele>740.83000000000004</ele>
        <time>2013-09-06T06:34:52Z</time>
      </trkpt>
      <trkpt lat="50.743785984814167" lon="14.978231973946095">
        <ele>742.75999999999999</ele>
        <time>2013-09-06T06:34:53Z</time>
      </trkpt>
      <trkpt lat="50.743768969550729" lon="14.97805000282824">
        <ele>745.63999999999999</ele>
        <time>2013-09-06T06:34:54Z</time>
      </trkpt>
      <trkpt lat="50.743715995922685" lon="14.97792100533843">
        <ele>747.55999999999995</ele>
        <time>2013-09-06T06:34:55Z</time>
      </trkpt>
      <trkpt lat="50.743640977889299" lon="14.977824026718736">
        <ele>748.51999999999998</ele>
        <time>2013-09-06T06:34:56Z</time>
      </trkpt>
      <trkpt lat="50.743534024804831" lon="14.977756971493363">
        <ele>749</ele>
        <time>2013-09-06T06:34:57Z</time>
      </trkpt>
      <trkpt lat="50.743417013436556" lon="14.977710032835603">
        <ele>749</ele>
        <time>2013-09-06T06:34:58Z</time>
      </trkpt>
      <trkpt lat="50.743179973214865" lon="14.977558990940452">
        <ele>749.49000000000001</ele>
        <time>2013-09-06T06:35:00Z</time>
      </trkpt>
      <trkpt lat="50.743052987381816" lon="14.977442985400558">
        <ele>749.97000000000003</ele>
        <time>2013-09-06T06:35:01Z</time>
      </trkpt>
      <trkpt lat="50.742926001548767" lon="14.977307030931115">
        <ele>750.45000000000005</ele>
        <time>2013-09-06T06:35:02Z</time>
      </trkpt>
      <trkpt lat="50.742809996008873" lon="14.97712598182261">
        <ele>750.92999999999995</ele>
        <time>2013-09-06T06:35:03Z</time>
      </trkpt>
      <trkpt lat="50.742702037096024" lon="14.97695499099791">
        <ele>753.33000000000004</ele>
        <time>2013-09-06T06:35:04Z</time>
      </trkpt>
      <trkpt lat="50.742604974657297" lon="14.976770002394915">
        <ele>755.25</ele>
        <time>2013-09-06T06:35:05Z</time>
      </trkpt>
      <trkpt lat="50.742040034383535" lon="14.975525038316846">
        <ele>751.88999999999999</ele>
        <time>2013-09-06T06:35:12Z</time>
      </trkpt>
      <trkpt lat="50.742035005241632" lon="14.975358992815018">
        <ele>751.40999999999997</ele>
        <time>2013-09-06T06:35:13Z</time>
      </trkpt>
      <trkpt lat="50.742060989141464" lon="14.975226977840066">
        <ele>750.45000000000005</ele>
        <time>2013-09-06T06:35:14Z</time>
      </trkpt>
      <trkpt lat="50.742161991074681" lon="14.975111978128552">
        <ele>750.92999999999995</ele>
        <time>2013-09-06T06:35:15Z</time>
      </trkpt>
      <trkpt lat="50.74228897690773" lon="14.975037965923548">
        <ele>750.92999999999995</ele>
        <time>2013-09-06T06:35:16Z</time>
      </trkpt>
      <trkpt lat="50.742400037124753" lon="14.975013993680477">
        <ele>750.92999999999995</ele>
        <time>2013-09-06T06:35:17Z</time>
      </trkpt>
      <trkpt lat="50.742511013522744" lon="14.974981974810362">
        <ele>749.49000000000001</ele>
        <time>2013-09-06T06:35:18Z</time>
      </trkpt>
      <trkpt lat="50.742658032104373" lon="14.974808972328901">
        <ele>749</ele>
        <time>2013-09-06T06:35:20Z</time>
      </trkpt>
      <trkpt lat="50.742678986862302" lon="14.974644016474485">
        <ele>748.03999999999996</ele>
        <time>2013-09-06T06:35:21Z</time>
      </trkpt>
      <trkpt lat="50.742590976879001" lon="14.974412005394697">
        <ele>746.60000000000002</ele>
        <time>2013-09-06T06:35:23Z</time>
      </trkpt>
      <trkpt lat="50.742501961067319" lon="14.974331958219409">
        <ele>745.15999999999997</ele>
        <time>2013-09-06T06:35:24Z</time>
      </trkpt>
      <trkpt lat="50.742361983284354" lon="14.974304968491197">
        <ele>743.72000000000003</ele>
        <time>2013-09-06T06:35:25Z</time>
      </trkpt>
      <trkpt lat="50.742239020764828" lon="14.974270015954971">
        <ele>743.24000000000001</ele>
        <time>2013-09-06T06:35:26Z</time>
      </trkpt>
      <trkpt lat="50.74213701300323" lon="14.974212013185024">
        <ele>742.27999999999997</ele>
        <time>2013-09-06T06:35:27Z</time>
      </trkpt>
      <trkpt lat="50.741963004693389" lon="14.974177982658148">
        <ele>742.75999999999999</ele>
        <time>2013-09-06T06:35:28Z</time>
      </trkpt>
      <trkpt lat="50.741744991391897" lon="14.974144035950303">
        <ele>742.27999999999997</ele>
        <time>2013-09-06T06:35:29Z</time>
      </trkpt>
      <trkpt lat="50.741044012829661" lon="14.973814962431788">
        <ele>739.87</ele>
        <time>2013-09-06T06:35:33Z</time>
      </trkpt>
      <trkpt lat="50.740929013118148" lon="14.973713960498571">
        <ele>740.35000000000002</ele>
        <time>2013-09-06T06:35:34Z</time>
      </trkpt>
      <trkpt lat="50.740865981206298" lon="14.973577000200748">
        <ele>739.38999999999999</ele>
        <time>2013-09-06T06:35:35Z</time>
      </trkpt>
      <trkpt lat="50.740860030055046" lon="14.973427969962358">
        <ele>737.95000000000005</ele>
        <time>2013-09-06T06:35:36Z</time>
      </trkpt>
      <trkpt lat="50.740890959277749" lon="14.97325798496604">
        <ele>737.47000000000003</ele>
        <time>2013-09-06T06:35:37Z</time>
      </trkpt>
      <trkpt lat="50.740979975089431" lon="14.97314902022481">
        <ele>735.54999999999995</ele>
        <time>2013-09-06T06:35:38Z</time>
      </trkpt>
      <trkpt lat="50.741080977022648" lon="14.973053969442844">
        <ele>734.10000000000002</ele>
        <time>2013-09-06T06:35:39Z</time>
      </trkpt>
      <trkpt lat="50.741166975349188" lon="14.97293503023684">
        <ele>733.13999999999999</ele>
        <time>2013-09-06T06:35:40Z</time>
      </trkpt>
      <trkpt lat="50.741248028352857" lon="14.972787005826831">
        <ele>731.22000000000003</ele>
        <time>2013-09-06T06:35:41Z</time>
      </trkpt>
      <trkpt lat="50.741318017244339" lon="14.972629006952047">
        <ele>730.74000000000001</ele>
        <time>2013-09-06T06:35:42Z</time>
      </trkpt>
      <trkpt lat="50.741464029997587" lon="14.972182000055909">
        <ele>727.86000000000001</ele>
        <time>2013-09-06T06:35:45Z</time>
      </trkpt>
      <trkpt lat="50.741409966722131" lon="14.972070017829537">
        <ele>723.52999999999997</ele>
        <time>2013-09-06T06:35:46Z</time>
      </trkpt>
      <trkpt lat="50.741364033892751" lon="14.971949988976121">
        <ele>723.04999999999995</ele>
        <time>2013-09-06T06:35:47Z</time>
      </trkpt>
      <trkpt lat="50.741287004202604" lon="14.971859967336059">
        <ele>721.61000000000001</ele>
        <time>2013-09-06T06:35:48Z</time>
      </trkpt>
      <trkpt lat="50.741207040846348" lon="14.971804982051253">
        <ele>719.67999999999995</ele>
        <time>2013-09-06T06:35:49Z</time>
      </trkpt>
      <trkpt lat="50.741144008934498" lon="14.971781009808183">
        <ele>718.72000000000003</ele>
        <time>2013-09-06T06:35:50Z</time>
      </trkpt>
      <trkpt lat="50.741074020043015" lon="14.971792995929718">
        <ele>715.84000000000003</ele>
        <time>2013-09-06T06:35:52Z</time>
      </trkpt>
      <trkpt lat="50.741012999787927" lon="14.971887040883303">
        <ele>714.88</ele>
        <time>2013-09-06T06:35:53Z</time>
      </trkpt>
      <trkpt lat="50.740950973704457" lon="14.971915036439896">
        <ele>713.44000000000005</ele>
        <time>2013-09-06T06:35:54Z</time>
      </trkpt>
      <trkpt lat="50.740786017850041" lon="14.971801964566112">
        <ele>710.54999999999995</ele>
        <time>2013-09-06T06:35:57Z</time>
      </trkpt>
      <trkpt lat="50.740721980109811" lon="14.971714038401842">
        <ele>708.14999999999998</ele>
        <time>2013-09-06T06:35:59Z</time>
      </trkpt>
      <trkpt lat="50.740726003423333" lon="14.971536006778479">
        <ele>707.19000000000005</ele>
        <time>2013-09-06T06:36:00Z</time>
      </trkpt>
      <trkpt lat="50.740773025900126" lon="14.971322016790509">
        <ele>705.75</ele>
        <time>2013-09-06T06:36:01Z</time>
      </trkpt>
      <trkpt lat="50.740833962336183" lon="14.971075002104044">
        <ele>704.77999999999997</ele>
        <time>2013-09-06T06:36:02Z</time>
      </trkpt>
      <trkpt lat="50.740852989256382" lon="14.970841985195875">
        <ele>705.75</ele>
        <time>2013-09-06T06:36:03Z</time>
      </trkpt>
      <trkpt lat="50.741001013666391" lon="14.970208983868361">
        <ele>702.86000000000001</ele>
        <time>2013-09-06T06:36:06Z</time>
      </trkpt>
      <trkpt lat="50.741095980629325" lon="14.970022989436984">
        <ele>702.38</ele>
        <time>2013-09-06T06:36:07Z</time>
      </trkpt>
      <trkpt lat="50.741221038624644" lon="14.969848981127143">
        <ele>701.89999999999998</ele>
        <time>2013-09-06T06:36:08Z</time>
      </trkpt>
      <trkpt lat="50.741347018629313" lon="14.969695005565882">
        <ele>700.46000000000004</ele>
        <time>2013-09-06T06:36:09Z</time>
      </trkpt>
      <trkpt lat="50.741463024169207" lon="14.969541030004621">
        <ele>699.5</ele>
        <time>2013-09-06T06:36:10Z</time>
      </trkpt>
      <trkpt lat="50.741565031930804" lon="14.969367021694779">
        <ele>698.52999999999997</ele>
        <time>2013-09-06T06:36:11Z</time>
      </trkpt>
      <trkpt lat="50.741652958095074" lon="14.969203993678093">
        <ele>697.57000000000005</ele>
        <time>2013-09-06T06:36:12Z</time>
      </trkpt>
      <trkpt lat="50.741718001663685" lon="14.969039037823677">
        <ele>697.57000000000005</ele>
        <time>2013-09-06T06:36:13Z</time>
      </trkpt>
      <trkpt lat="50.74177298694849" lon="14.968866035342216">
        <ele>698.04999999999995</ele>
        <time>2013-09-06T06:36:14Z</time>
      </trkpt>
      <trkpt lat="50.741783967241645" lon="14.968681968748569">
        <ele>699.5</ele>
        <time>2013-09-06T06:36:15Z</time>
      </trkpt>
      <trkpt lat="50.74172898195684" lon="14.968550037592649">
        <ele>698.52999999999997</ele>
        <time>2013-09-06T06:36:16Z</time>
      </trkpt>
      <trkpt lat="50.74164398945868" lon="14.968453980982304">
        <ele>699.01999999999998</ele>
        <time>2013-09-06T06:36:17Z</time>
      </trkpt>
      <trkpt lat="50.741526978090405" lon="14.968440989032388">
        <ele>697.57000000000005</ele>
        <time>2013-09-06T06:36:18Z</time>
      </trkpt>
      <trkpt lat="50.741411978378892" lon="14.968499997630715">
        <ele>696.61000000000001</ele>
        <time>2013-09-06T06:36:19Z</time>
      </trkpt>
      <trkpt lat="50.741301001980901" lon="14.96859697625041">
        <ele>696.13</ele>
        <time>2013-09-06T06:36:20Z</time>
      </trkpt>
      <trkpt lat="50.741184996441007" lon="14.968723962083459">
        <ele>694.69000000000005</ele>
        <time>2013-09-06T06:36:21Z</time>
      </trkpt>
      <trkpt lat="50.741075025871396" lon="14.968856982886791">
        <ele>694.21000000000004</ele>
        <time>2013-09-06T06:36:22Z</time>
      </trkpt>
      <trkpt lat="50.74067696928978" lon="14.969300972297788">
        <ele>691.80999999999995</ele>
        <time>2013-09-06T06:36:26Z</time>
      </trkpt>
      <trkpt lat="50.740584013983607" lon="14.969301978126168">
        <ele>690.84000000000003</ele>
        <time>2013-09-06T06:36:27Z</time>
      </trkpt>
      <trkpt lat="50.740522993728518" lon="14.969226038083434">
        <ele>690.84000000000003</ele>
        <time>2013-09-06T06:36:28Z</time>
      </trkpt>
      <trkpt lat="50.740489969030023" lon="14.969096034765244">
        <ele>689.88</ele>
        <time>2013-09-06T06:36:29Z</time>
      </trkpt>
      <trkpt lat="50.740489969030023" lon="14.968942981213331">
        <ele>688.91999999999996</ele>
        <time>2013-09-06T06:36:30Z</time>
      </trkpt>
      <trkpt lat="50.740513019263744" lon="14.968798980116844">
        <ele>688.44000000000005</ele>
        <time>2013-09-06T06:36:31Z</time>
      </trkpt>
      <trkpt lat="50.74056800454855" lon="14.968657996505499">
        <ele>687.48000000000002</ele>
        <time>2013-09-06T06:36:32Z</time>
      </trkpt>
      <trkpt lat="50.740685015916824" lon="14.968484994024038">
        <ele>687.48000000000002</ele>
        <time>2013-09-06T06:36:33Z</time>
      </trkpt>
      <trkpt lat="50.74078400619328" lon="14.968285001814365">
        <ele>687.48000000000002</ele>
        <time>2013-09-06T06:36:34Z</time>
      </trkpt>
      <trkpt lat="50.740874027833343" lon="14.968061959370971">
        <ele>686.51999999999998</ele>
        <time>2013-09-06T06:36:35Z</time>
      </trkpt>
      <trkpt lat="50.740948040038347" lon="14.967848975211382">
        <ele>685.55999999999995</ele>
        <time>2013-09-06T06:36:36Z</time>
      </trkpt>
      <trkpt lat="50.741028003394604" lon="14.967601960524917">
        <ele>684.60000000000002</ele>
        <time>2013-09-06T06:36:37Z</time>
      </trkpt>
      <trkpt lat="50.74125699698925" lon="14.966902993619442">
        <ele>682.66999999999996</ele>
        <time>2013-09-06T06:36:40Z</time>
      </trkpt>
      <trkpt lat="50.741404015570879" lon="14.966691015288234">
        <ele>680.26999999999998</ele>
        <time>2013-09-06T06:36:41Z</time>
      </trkpt>
      <trkpt lat="50.741523960605264" lon="14.966516001150012">
        <ele>679.78999999999996</ele>
        <time>2013-09-06T06:36:42Z</time>
      </trkpt>
      <trkpt lat="50.741652958095074" lon="14.966372000053525">
        <ele>678.35000000000002</ele>
        <time>2013-09-06T06:36:43Z</time>
      </trkpt>
      <trkpt lat="50.741759994998574" lon="14.966224981471896">
        <ele>676.41999999999996</ele>
        <time>2013-09-06T06:36:44Z</time>
      </trkpt>
      <trkpt lat="50.742001980543137" lon="14.965856010094285">
        <ele>674.5</ele>
        <time>2013-09-06T06:36:47Z</time>
      </trkpt>
      <trkpt lat="50.742012960836291" lon="14.965728018432856">
        <ele>673.53999999999996</ele>
        <time>2013-09-06T06:36:48Z</time>
      </trkpt>
      <trkpt lat="50.741963004693389" lon="14.965613018721342">
        <ele>673.05999999999995</ele>
        <time>2013-09-06T06:36:49Z</time>
      </trkpt>
      <trkpt lat="50.741882035508752" lon="14.965482009574771">
        <ele>668.73000000000002</ele>
        <time>2013-09-06T06:36:51Z</time>
      </trkpt>
      <trkpt lat="50.741860996931791" lon="14.965321999043226">
        <ele>667.76999999999998</ele>
        <time>2013-09-06T06:36:53Z</time>
      </trkpt>
      <trkpt lat="50.741679025813937" lon="14.965400034561753">
        <ele>664.88999999999999</ele>
        <time>2013-09-06T06:36:54Z</time>
      </trkpt>
      <trkpt lat="50.741562014445662" lon="14.965435992926359">
        <ele>663.92999999999995</ele>
        <time>2013-09-06T06:36:55Z</time>
      </trkpt>
      <trkpt lat="50.741412984207273" lon="14.96578199788928">
        <ele>661.03999999999996</ele>
        <time>2013-09-06T06:36:56Z</time>
      </trkpt>
      <trkpt lat="50.741247022524476" lon="14.966126997023821">
        <ele>660.55999999999995</ele>
        <time>2013-09-06T06:36:57Z</time>
      </trkpt>
      <trkpt lat="50.741123976185918" lon="14.966497980058193">
        <ele>661.03999999999996</ele>
        <time>2013-09-06T06:36:58Z</time>
      </trkpt>
      <trkpt lat="50.739974984899163" lon="14.968364965170622">
        <ele>657.20000000000005</ele>
        <time>2013-09-06T06:37:07Z</time>
      </trkpt>
      <trkpt lat="50.739863002672791" lon="14.968521036207676">
        <ele>657.20000000000005</ele>
        <time>2013-09-06T06:37:08Z</time>
      </trkpt>
      <trkpt lat="50.739764012396336" lon="14.968583984300494">
        <ele>656.72000000000003</ele>
        <time>2013-09-06T06:37:09Z</time>
      </trkpt>
      <trkpt lat="50.73968899436295" lon="14.968552971258759">
        <ele>656.72000000000003</ele>
        <time>2013-09-06T06:37:10Z</time>
      </trkpt>
      <trkpt lat="50.739610036835074" lon="14.968437971547246">
        <ele>657.20000000000005</ele>
        <time>2013-09-06T06:37:11Z</time>
      </trkpt>
      <trkpt lat="50.739495037123561" lon="14.968306040391326">
        <ele>658.15999999999997</ele>
        <time>2013-09-06T06:37:12Z</time>
      </trkpt>
      <trkpt lat="50.739268977195024" lon="14.968098001554608">
        <ele>658.63999999999999</ele>
        <time>2013-09-06T06:37:14Z</time>
      </trkpt>
      <trkpt lat="50.739142997190356" lon="14.96807998046279">
        <ele>658.15999999999997</ele>
        <time>2013-09-06T06:37:15Z</time>
      </trkpt>
      <trkpt lat="50.739003019407392" lon="14.968107976019382">
        <ele>657.67999999999995</ele>
        <time>2013-09-06T06:37:16Z</time>
      </trkpt>
      <trkpt lat="50.738857006654143" lon="14.968162961304188">
        <ele>657.20000000000005</ele>
        <time>2013-09-06T06:37:17Z</time>
      </trkpt>
      <trkpt lat="50.738732032477856" lon="14.968205038458109">
        <ele>657.20000000000005</ele>
        <time>2013-09-06T06:37:18Z</time>
      </trkpt>
      <trkpt lat="50.738603034988046" lon="14.968247031792998">
        <ele>656.72000000000003</ele>
        <time>2013-09-06T06:37:19Z</time>
      </trkpt>
      <trkpt lat="50.73848401196301" lon="14.968220964074135">
        <ele>657.67999999999995</ele>
        <time>2013-09-06T06:37:20Z</time>
      </trkpt>
      <trkpt lat="50.738376975059509" lon="14.968121973797679">
        <ele>657.67999999999995</ele>
        <time>2013-09-06T06:37:21Z</time>
      </trkpt>
      <trkpt lat="50.738325007259846" lon="14.967979984357953">
        <ele>658.15999999999997</ele>
        <time>2013-09-06T06:37:22Z</time>
      </trkpt>
      <trkpt lat="50.738311009481549" lon="14.967818967998028">
        <ele>657.67999999999995</ele>
        <time>2013-09-06T06:37:23Z</time>
      </trkpt>
      <trkpt lat="50.738329030573368" lon="14.967631967738271">
        <ele>657.20000000000005</ele>
        <time>2013-09-06T06:37:24Z</time>
      </trkpt>
      <trkpt lat="50.738360965624452" lon="14.967422001063824">
        <ele>657.67999999999995</ele>
        <time>2013-09-06T06:37:25Z</time>
      </trkpt>
      <trkpt lat="50.738388039171696" lon="14.967208011075854">
        <ele>656.24000000000001</ele>
        <time>2013-09-06T06:37:26Z</time>
      </trkpt>
      <trkpt lat="50.738392984494567" lon="14.966979017481208">
        <ele>656.24000000000001</ele>
        <time>2013-09-06T06:37:27Z</time>
      </trkpt>
      <trkpt lat="50.738380998373032" lon="14.966761004179716">
        <ele>655.27999999999997</ele>
        <time>2013-09-06T06:37:28Z</time>
      </trkpt>
      <trkpt lat="50.738362977281213" lon="14.966329000890255">
        <ele>654.30999999999995</ele>
        <time>2013-09-06T06:37:30Z</time>
      </trkpt>
      <trkpt lat="50.738361971452832" lon="14.963919958099723">
        <ele>648.54999999999995</ele>
        <time>2013-09-06T06:37:40Z</time>
      </trkpt>
      <trkpt lat="50.738357026129961" lon="14.963666992262006">
        <ele>648.07000000000005</ele>
        <time>2013-09-06T06:37:41Z</time>
      </trkpt>
      <trkpt lat="50.738321989774704" lon="14.963420983403921">
        <ele>647.10000000000002</ele>
        <time>2013-09-06T06:37:42Z</time>
      </trkpt>
      <trkpt lat="50.738300029188395" lon="14.963172040879726">
        <ele>647.10000000000002</ele>
        <time>2013-09-06T06:37:43Z</time>
      </trkpt>
      <trkpt lat="50.738253006711602" lon="14.962956039234996">
        <ele>647.10000000000002</ele>
        <time>2013-09-06T06:37:44Z</time>
      </trkpt>
      <trkpt lat="50.738156028091908" lon="14.962772978469729">
        <ele>646.13999999999999</ele>
        <time>2013-09-06T06:37:45Z</time>
      </trkpt>
      <trkpt lat="50.738030970096588" lon="14.962623026221991">
        <ele>644.70000000000005</ele>
        <time>2013-09-06T06:37:46Z</time>
      </trkpt>
      <trkpt lat="50.737900966778398" lon="14.962481958791614">
        <ele>643.25999999999999</ele>
        <time>2013-09-06T06:37:47Z</time>
      </trkpt>
      <trkpt lat="50.736479982733727" lon="14.961241018027067">
        <ele>628.84000000000003</ele>
        <time>2013-09-06T06:37:57Z</time>
      </trkpt>
      <trkpt lat="50.735700968652964" lon="14.960681023076177">
        <ele>622.11000000000001</ele>
        <time>2013-09-06T06:38:02Z</time>
      </trkpt>
      <trkpt lat="50.735245998948812" lon="14.960242984816432">
        <ele>619.23000000000002</ele>
        <time>2013-09-06T06:38:05Z</time>
      </trkpt>
      <trkpt lat="50.734775019809604" lon="14.960080962628126">
        <ele>615.86000000000001</ele>
        <time>2013-09-06T06:38:08Z</time>
      </trkpt>
      <trkpt lat="50.733030997216702" lon="14.960927031934261">
        <ele>611.53999999999996</ele>
        <time>2013-09-06T06:38:18Z</time>
      </trkpt>
      <trkpt lat="50.73171503841877" lon="14.961198018863797">
        <ele>613.94000000000005</ele>
        <time>2013-09-06T06:38:25Z</time>
      </trkpt>
      <trkpt lat="50.731319999322295" lon="14.961153008043766">
        <ele>613.46000000000004</ele>
        <time>2013-09-06T06:38:27Z</time>
      </trkpt>
      <trkpt lat="50.73113702237606" lon="14.961062986403704">
        <ele>612.98000000000002</ele>
        <time>2013-09-06T06:38:28Z</time>
      </trkpt>
      <trkpt lat="50.730963014066219" lon="14.96096801944077">
        <ele>612.01999999999998</ele>
        <time>2013-09-06T06:38:29Z</time>
      </trkpt>
      <trkpt lat="50.729812011122704" lon="14.96004500426352">
        <ele>608.16999999999996</ele>
        <time>2013-09-06T06:38:36Z</time>
      </trkpt>
      <trkpt lat="50.729631967842579" lon="14.959962023422122">
        <ele>606.25</ele>
        <time>2013-09-06T06:38:37Z</time>
      </trkpt>
      <trkpt lat="50.729463994503021" lon="14.959902008995414">
        <ele>605.28999999999996</ele>
        <time>2013-09-06T06:38:38Z</time>
      </trkpt>
      <trkpt lat="50.729299038648605" lon="14.959870995953679">
        <ele>604.80999999999995</ele>
        <time>2013-09-06T06:38:39Z</time>
      </trkpt>
      <trkpt lat="50.729127964004874" lon="14.959874013438821">
        <ele>604.33000000000004</ele>
        <time>2013-09-06T06:38:40Z</time>
      </trkpt>
      <trkpt lat="50.728967031463981" lon="14.959910977631807">
        <ele>603.85000000000002</ele>
        <time>2013-09-06T06:38:41Z</time>
      </trkpt>
      <trkpt lat="50.728798974305391" lon="14.959973003715277">
        <ele>603.85000000000002</ele>
        <time>2013-09-06T06:38:42Z</time>
      </trkpt>
      <trkpt lat="50.728638963773847" lon="14.960032012313604">
        <ele>602.88</ele>
        <time>2013-09-06T06:38:43Z</time>
      </trkpt>
      <trkpt lat="50.727664986625314" lon="14.960468960925937">
        <ele>602.39999999999998</ele>
        <time>2013-09-06T06:38:49Z</time>
      </trkpt>
      <trkpt lat="50.726958978921175" lon="14.960853019729257">
        <ele>600.96000000000004</ele>
        <time>2013-09-06T06:38:53Z</time>
      </trkpt>
      <trkpt lat="50.726767033338547" lon="14.961021998897195">
        <ele>599.51999999999998</ele>
        <time>2013-09-06T06:38:54Z</time>
      </trkpt>
      <trkpt lat="50.725344959646463" lon="14.962565023452044">
        <ele>596.14999999999998</ele>
        <time>2013-09-06T06:39:02Z</time>
      </trkpt>
      <trkpt lat="50.723296003416181" lon="14.964853031560779">
        <ele>588.95000000000005</ele>
        <time>2013-09-06T06:39:15Z</time>
      </trkpt>
      <trkpt lat="50.721951965242624" lon="14.966298993676901">
        <ele>581.25</ele>
        <time>2013-09-06T06:39:24Z</time>
      </trkpt>
      <trkpt lat="50.720529975369573" lon="14.967662980780005">
        <ele>579.80999999999995</ele>
        <time>2013-09-06T06:39:36Z</time>
      </trkpt>
      <trkpt lat="50.719559015706182" lon="14.968941975384951">
        <ele>578.37</ele>
        <time>2013-09-06T06:39:45Z</time>
      </trkpt>
      <trkpt lat="50.718626026064157" lon="14.970052996650338">
        <ele>577.40999999999997</ele>
        <time>2013-09-06T06:39:52Z</time>
      </trkpt>
      <trkpt lat="50.717883976176381" lon="14.971169969066978">
        <ele>575.97000000000003</ele>
        <time>2013-09-06T06:39:59Z</time>
      </trkpt>
      <trkpt lat="50.717266984283924" lon="14.972093990072608">
        <ele>571.63999999999999</ele>
        <time>2013-09-06T06:40:05Z</time>
      </trkpt>
      <trkpt lat="50.717142010107636" lon="14.972198009490967">
        <ele>571.63999999999999</ele>
        <time>2013-09-06T06:40:06Z</time>
      </trkpt>
      <trkpt lat="50.717005971819162" lon="14.972304040566087">
        <ele>571.63999999999999</ele>
        <time>2013-09-06T06:40:07Z</time>
      </trkpt>
      <trkpt lat="50.716871023178101" lon="14.972390960901976">
        <ele>570.67999999999995</ele>
        <time>2013-09-06T06:40:08Z</time>
      </trkpt>
      <trkpt lat="50.716732973232865" lon="14.972458016127348">
        <ele>568.75999999999999</ele>
        <time>2013-09-06T06:40:09Z</time>
      </trkpt>
      <trkpt lat="50.716597018763423" lon="14.972519036382437">
        <ele>567.79999999999995</ele>
        <time>2013-09-06T06:40:10Z</time>
      </trkpt>
      <trkpt lat="50.714753000065684" lon="14.97317299246788">
        <ele>547.13</ele>
        <time>2013-09-06T06:40:24Z</time>
      </trkpt>
      <trkpt lat="50.714625008404255" lon="14.973156983032823">
        <ele>546.16999999999996</ele>
        <time>2013-09-06T06:40:25Z</time>
      </trkpt>
      <trkpt lat="50.714490981772542" lon="14.973127981647849">
        <ele>545.69000000000005</ele>
        <time>2013-09-06T06:40:26Z</time>
      </trkpt>
      <trkpt lat="50.714357038959861" lon="14.97308598831296">
        <ele>544.72000000000003</ele>
        <time>2013-09-06T06:40:27Z</time>
      </trkpt>
      <trkpt lat="50.714221000671387" lon="14.973036032170057">
        <ele>543.27999999999997</ele>
        <time>2013-09-06T06:40:28Z</time>
      </trkpt>
      <trkpt lat="50.712603963911533" lon="14.97237796895206">
        <ele>529.34000000000003</ele>
        <time>2013-09-06T06:40:41Z</time>
      </trkpt>
      <trkpt lat="50.711709028109908" lon="14.971772041171789">
        <ele>519.25</ele>
        <time>2013-09-06T06:40:47Z</time>
      </trkpt>
      <trkpt lat="50.711579024791718" lon="14.971588980406523">
        <ele>517.33000000000004</ele>
        <time>2013-09-06T06:40:48Z</time>
      </trkpt>
      <trkpt lat="50.711457990109921" lon="14.971395023167133">
        <ele>515.39999999999998</ele>
        <time>2013-09-06T06:40:49Z</time>
      </trkpt>
      <trkpt lat="50.711353970691562" lon="14.971182039007545">
        <ele>513</ele>
        <time>2013-09-06T06:40:50Z</time>
      </trkpt>
      <trkpt lat="50.711261015385389" lon="14.970946004614234">
        <ele>510.60000000000002</ele>
        <time>2013-09-06T06:40:51Z</time>
      </trkpt>
      <trkpt lat="50.710432967171073" lon="14.968808032572269">
        <ele>495.69999999999999</ele>
        <time>2013-09-06T06:41:00Z</time>
      </trkpt>
      <trkpt lat="50.710316961631179" lon="14.968608040362597">
        <ele>493.76999999999998</ele>
        <time>2013-09-06T06:41:01Z</time>
      </trkpt>
      <trkpt lat="50.710191987454891" lon="14.968421962112188">
        <ele>491.85000000000002</ele>
        <time>2013-09-06T06:41:02Z</time>
      </trkpt>
      <trkpt lat="50.70874803699553" lon="14.966674000024796">
        <ele>479.35000000000002</ele>
        <time>2013-09-06T06:41:13Z</time>
      </trkpt>
      <trkpt lat="50.708648962900043" lon="14.966507032513618">
        <ele>478.38999999999999</ele>
        <time>2013-09-06T06:41:14Z</time>
      </trkpt>
      <trkpt lat="50.708565982058644" lon="14.966319026425481">
        <ele>477.91000000000003</ele>
        <time>2013-09-06T06:41:15Z</time>
      </trkpt>
      <trkpt lat="50.708517031744123" lon="14.966105036437511">
        <ele>475.99000000000001</ele>
        <time>2013-09-06T06:41:16Z</time>
      </trkpt>
      <trkpt lat="50.708485012874007" lon="14.965856010094285">
        <ele>475.99000000000001</ele>
        <time>2013-09-06T06:41:17Z</time>
      </trkpt>
      <trkpt lat="50.708456011489034" lon="14.965615030378103">
        <ele>475.02999999999997</ele>
        <time>2013-09-06T06:41:18Z</time>
      </trkpt>
      <trkpt lat="50.708067007362843" lon="14.963153013959527">
        <ele>473.11000000000001</ele>
        <time>2013-09-06T06:41:27Z</time>
      </trkpt>
      <trkpt lat="50.707879001274705" lon="14.962399983778596">
        <ele>472.63</ele>
        <time>2013-09-06T06:41:30Z</time>
      </trkpt>
      <trkpt lat="50.707692001014948" lon="14.961960017681122">
        <ele>472.63</ele>
        <time>2013-09-06T06:41:32Z</time>
      </trkpt>
      <trkpt lat="50.707574989646673" lon="14.961751978844404">
        <ele>472.63</ele>
        <time>2013-09-06T06:41:33Z</time>
      </trkpt>
      <trkpt lat="50.707441968843341" lon="14.961561961099505">
        <ele>472.13999999999999</ele>
        <time>2013-09-06T06:41:34Z</time>
      </trkpt>
      <trkpt lat="50.70728799328208" lon="14.961399016901851">
        <ele>471.66000000000003</ele>
        <time>2013-09-06T06:41:35Z</time>
      </trkpt>
      <trkpt lat="50.707124965265393" lon="14.961259961128235">
        <ele>471.18000000000001</ele>
        <time>2013-09-06T06:41:36Z</time>
      </trkpt>
      <trkpt lat="50.706961015239358" lon="14.961121995002031">
        <ele>471.18000000000001</ele>
        <time>2013-09-06T06:41:37Z</time>
      </trkpt>
      <trkpt lat="50.706508979201317" lon="14.960755035281181">
        <ele>470.69999999999999</ele>
        <time>2013-09-06T06:41:40Z</time>
      </trkpt>
      <trkpt lat="50.706335976719856" lon="14.960684962570667">
        <ele>469.25999999999999</ele>
        <time>2013-09-06T06:41:41Z</time>
      </trkpt>
      <trkpt lat="50.706151993945241" lon="14.960637018084526">
        <ele>468.77999999999997</ele>
        <time>2013-09-06T06:41:42Z</time>
      </trkpt>
      <trkpt lat="50.704541997984052" lon="14.959917012602091">
        <ele>463.00999999999999</ele>
        <time>2013-09-06T06:41:51Z</time>
      </trkpt>
      <trkpt lat="50.703608002513647" lon="14.959257021546364">
        <ele>455.31999999999999</ele>
        <time>2013-09-06T06:41:57Z</time>
      </trkpt>
      <trkpt lat="50.703456960618496" lon="14.959229025989771">
        <ele>453.88</ele>
        <time>2013-09-06T06:41:58Z</time>
      </trkpt>
      <trkpt lat="50.703309020027518" lon="14.959236988797784">
        <ele>453.39999999999998</ele>
        <time>2013-09-06T06:41:59Z</time>
      </trkpt>
      <trkpt lat="50.702478960156441" lon="14.959341008216143">
        <ele>452.44</ele>
        <time>2013-09-06T06:42:05Z</time>
      </trkpt>
      <trkpt lat="50.702374018728733" lon="14.959287028759718">
        <ele>451.95999999999998</ele>
        <time>2013-09-06T06:42:06Z</time>
      </trkpt>
      <trkpt lat="50.702292965725064" lon="14.959192983806133">
        <ele>451.95999999999998</ele>
        <time>2013-09-06T06:42:07Z</time>
      </trkpt>
      <trkpt lat="50.702246027067304" lon="14.959053006023169">
        <ele>452.44</ele>
        <time>2013-09-06T06:42:08Z</time>
      </trkpt>
      <trkpt lat="50.702229011803865" lon="14.958901964128017">
        <ele>452.44</ele>
        <time>2013-09-06T06:42:09Z</time>
      </trkpt>
      <trkpt lat="50.70223999209702" lon="14.958736002445221">
        <ele>451</ele>
        <time>2013-09-06T06:42:10Z</time>
      </trkpt>
      <trkpt lat="50.702263964340091" lon="14.958549002185464">
        <ele>450.02999999999997</ele>
        <time>2013-09-06T06:42:11Z</time>
      </trkpt>
      <trkpt lat="50.702292965725064" lon="14.958381028845906">
        <ele>449.55000000000001</ele>
        <time>2013-09-06T06:42:12Z</time>
      </trkpt>
      <trkpt lat="50.702358009293675" lon="14.958020020276308">
        <ele>448.58999999999997</ele>
        <time>2013-09-06T06:42:14Z</time>
      </trkpt>
      <trkpt lat="50.702375024557114" lon="14.957833020016551">
        <ele>448.11000000000001</ele>
        <time>2013-09-06T06:42:15Z</time>
      </trkpt>
      <trkpt lat="50.702386004850268" lon="14.956795005127788">
        <ele>447.14999999999998</ele>
        <time>2013-09-06T06:42:20Z</time>
      </trkpt>
      <trkpt lat="50.70232599042356" lon="14.956403989344835">
        <ele>447.14999999999998</ele>
        <time>2013-09-06T06:42:22Z</time>
      </trkpt>
      <trkpt lat="50.702261030673981" lon="14.95622000657022">
        <ele>446.67000000000002</ele>
        <time>2013-09-06T06:42:23Z</time>
      </trkpt>
      <trkpt lat="50.702190035954118" lon="14.956051027402282">
        <ele>446.19</ele>
        <time>2013-09-06T06:42:24Z</time>
      </trkpt>
      <trkpt lat="50.702064977958798" lon="14.955707034096122">
        <ele>445.23000000000002</ele>
        <time>2013-09-06T06:42:26Z</time>
      </trkpt>
      <trkpt lat="50.702016027644277" lon="14.955517016351223">
        <ele>444.75</ele>
        <time>2013-09-06T06:42:27Z</time>
      </trkpt>
      <trkpt lat="50.701991971582174" lon="14.955310989171267">
        <ele>443.79000000000002</ele>
        <time>2013-09-06T06:42:28Z</time>
      </trkpt>
      <trkpt lat="50.701965987682343" lon="14.95450196787715">
        <ele>440.42000000000002</ele>
        <time>2013-09-06T06:42:32Z</time>
      </trkpt>
      <trkpt lat="50.7020010240376" lon="14.954297030344605">
        <ele>440.42000000000002</ele>
        <time>2013-09-06T06:42:33Z</time>
      </trkpt>
      <trkpt lat="50.702430009841919" lon="14.952186970040202">
        <ele>432.73000000000002</ele>
        <time>2013-09-06T06:42:43Z</time>
      </trkpt>
      <trkpt lat="50.702627990394831" lon="14.951626975089312">
        <ele>430.81</ele>
        <time>2013-09-06T06:42:46Z</time>
      </trkpt>
      <trkpt lat="50.70271197706461" lon="14.951457995921373">
        <ele>430.81</ele>
        <time>2013-09-06T06:42:47Z</time>
      </trkpt>
      <trkpt lat="50.703445980325341" lon="14.950179001316428">
        <ele>428.88999999999999</ele>
        <time>2013-09-06T06:42:55Z</time>
      </trkpt>
      <trkpt lat="50.703543964773417" lon="14.950047992169857">
        <ele>427.92000000000002</ele>
        <time>2013-09-06T06:42:56Z</time>
      </trkpt>
      <trkpt lat="50.703661981970072" lon="14.949932992458344">
        <ele>428.39999999999998</ele>
        <time>2013-09-06T06:42:57Z</time>
      </trkpt>
      <trkpt lat="50.703787039965391" lon="14.949826039373875">
        <ele>427.92000000000002</ele>
        <time>2013-09-06T06:42:58Z</time>
      </trkpt>
      <trkpt lat="50.703916037455201" lon="14.949739035218954">
        <ele>426.95999999999998</ele>
        <time>2013-09-06T06:42:59Z</time>
      </trkpt>
      <trkpt lat="50.704045034945011" lon="14.949655970558524">
        <ele>425.04000000000002</ele>
        <time>2013-09-06T06:43:00Z</time>
      </trkpt>
      <trkpt lat="50.704166991636157" lon="14.949566032737494">
        <ele>424.07999999999998</ele>
        <time>2013-09-06T06:43:01Z</time>
      </trkpt>
      <trkpt lat="50.704282997176051" lon="14.949447009712458">
        <ele>424.07999999999998</ele>
        <time>2013-09-06T06:43:02Z</time>
      </trkpt>
      <trkpt lat="50.704373018816113" lon="14.949280964210629">
        <ele>423.12</ele>
        <time>2013-09-06T06:43:03Z</time>
      </trkpt>
      <trkpt lat="50.704448958858848" lon="14.949103016406298">
        <ele>421.68000000000001</ele>
        <time>2013-09-06T06:43:04Z</time>
      </trkpt>
      <trkpt lat="50.704526994377375" lon="14.948909981176257">
        <ele>421.19</ele>
        <time>2013-09-06T06:43:05Z</time>
      </trkpt>
      <trkpt lat="50.704724974930286" lon="14.948144964873791">
        <ele>416.38999999999999</ele>
        <time>2013-09-06T06:43:09Z</time>
      </trkpt>
      <trkpt lat="50.704755987972021" lon="14.947931980714202">
        <ele>415.43000000000001</ele>
        <time>2013-09-06T06:43:10Z</time>
      </trkpt>
      <trkpt lat="50.704757999628782" lon="14.947695024311543">
        <ele>415.43000000000001</ele>
        <time>2013-09-06T06:43:11Z</time>
      </trkpt>
      <trkpt lat="50.704722963273525" lon="14.94747499935329">
        <ele>413.98000000000002</ele>
        <time>2013-09-06T06:43:12Z</time>
      </trkpt>
      <trkpt lat="50.704678036272526" lon="14.947262015193701">
        <ele>413.01999999999998</ele>
        <time>2013-09-06T06:43:13Z</time>
      </trkpt>
      <trkpt lat="50.704327002167702" lon="14.945819992572069">
        <ele>410.13999999999999</ele>
        <time>2013-09-06T06:43:20Z</time>
      </trkpt>
      <trkpt lat="50.704305963590741" lon="14.945614971220493">
        <ele>409.66000000000003</ele>
        <time>2013-09-06T06:43:21Z</time>
      </trkpt>
      <trkpt lat="50.704308981075883" lon="14.945402992889285">
        <ele>409.18000000000001</ele>
        <time>2013-09-06T06:43:22Z</time>
      </trkpt>
      <trkpt lat="50.704425992444158" lon="14.943011971190572">
        <ele>405.81</ele>
        <time>2013-09-06T06:43:33Z</time>
      </trkpt>
      <trkpt lat="50.704303029924631" lon="14.940314004197717">
        <ele>401.49000000000001</ele>
        <time>2013-09-06T06:43:45Z</time>
      </trkpt>
      <trkpt lat="50.70423798635602" lon="14.93815298192203">
        <ele>399.07999999999998</ele>
        <time>2013-09-06T06:43:55Z</time>
      </trkpt>
      <trkpt lat="50.703853005543351" lon="14.935583006590605">
        <ele>397.16000000000003</ele>
        <time>2013-09-06T06:44:07Z</time>
      </trkpt>
      <trkpt lat="50.703848982229829" lon="14.935362981632352">
        <ele>397.63999999999999</ele>
        <time>2013-09-06T06:44:08Z</time>
      </trkpt>
      <trkpt lat="50.703872032463551" lon="14.935153014957905">
        <ele>398.12</ele>
        <time>2013-09-06T06:44:09Z</time>
      </trkpt>
      <trkpt lat="50.70460201241076" lon="14.932597959414124">
        <ele>396.68000000000001</ele>
        <time>2013-09-06T06:44:22Z</time>
      </trkpt>
      <trkpt lat="50.704672001302242" lon="14.932450018823147">
        <ele>396.19999999999999</ele>
        <time>2013-09-06T06:44:23Z</time>
      </trkpt>
      <trkpt lat="50.704759005457163" lon="14.932313980534673">
        <ele>395.72000000000003</ele>
        <time>2013-09-06T06:44:24Z</time>
      </trkpt>
      <trkpt lat="50.704851960763335" lon="14.932194035500288">
        <ele>395.24000000000001</ele>
        <time>2013-09-06T06:44:25Z</time>
      </trkpt>
      <trkpt lat="50.704941982403398" lon="14.932108959183097">
        <ele>394.75999999999999</ele>
        <time>2013-09-06T06:44:26Z</time>
      </trkpt>
      <trkpt lat="50.705040972679853" lon="14.932026984170079">
        <ele>394.27999999999997</ele>
        <time>2013-09-06T06:44:27Z</time>
      </trkpt>
      <trkpt lat="50.705130994319916" lon="14.9319620244205">
        <ele>393.80000000000001</ele>
        <time>2013-09-06T06:44:28Z</time>
      </trkpt>
      <trkpt lat="50.705369040369987" lon="14.931781981140375">
        <ele>393.31999999999999</ele>
        <time>2013-09-06T06:44:31Z</time>
      </trkpt>
      <trkpt lat="50.705427965149283" lon="14.931709980592132">
        <ele>392.83999999999997</ele>
        <time>2013-09-06T06:44:32Z</time>
      </trkpt>
      <trkpt lat="50.70546300150454" lon="14.931622976437211">
        <ele>393.31999999999999</ele>
        <time>2013-09-06T06:44:33Z</time>
      </trkpt>
      <trkpt lat="50.705475993454456" lon="14.931522980332375">
        <ele>394.27999999999997</ele>
        <time>2013-09-06T06:44:34Z</time>
      </trkpt>
      <trkpt lat="50.705431988462806" lon="14.931437987834215">
        <ele>393.31999999999999</ele>
        <time>2013-09-06T06:44:35Z</time>
      </trkpt>
      <trkpt lat="50.705370968207717" lon="14.931374033913016">
        <ele>393.80000000000001</ele>
        <time>2013-09-06T06:44:36Z</time>
      </trkpt>
      <trkpt lat="50.705285975709558" lon="14.93129801005125">
        <ele>393.80000000000001</ele>
        <time>2013-09-06T06:44:37Z</time>
      </trkpt>
      <trkpt lat="50.704501010477543" lon="14.930301988497376">
        <ele>392.36000000000001</ele>
        <time>2013-09-06T06:44:44Z</time>
      </trkpt>
      <trkpt lat="50.703536001965404" lon="14.929472012445331">
        <ele>388.99000000000001</ele>
        <time>2013-09-06T06:44:50Z</time>
      </trkpt>
      <trkpt lat="50.703380014747381" lon="14.929292974993587">
        <ele>388.50999999999999</ele>
        <time>2013-09-06T06:44:51Z</time>
      </trkpt>
      <trkpt lat="50.701667005196214" lon="14.927126001566648">
        <ele>385.14999999999998</ele>
        <time>2013-09-06T06:45:02Z</time>
      </trkpt>
      <trkpt lat="50.699976040050387" lon="14.925048965960741">
        <ele>381.30000000000001</ele>
        <time>2013-09-06T06:45:13Z</time>
      </trkpt>
      <trkpt lat="50.698708025738597" lon="14.92390600964427">
        <ele>378.89999999999998</ele>
        <time>2013-09-06T06:45:23Z</time>
      </trkpt>
      <trkpt lat="50.697113033384085" lon="14.922663979232311">
        <ele>374.56999999999999</ele>
        <time>2013-09-06T06:45:36Z</time>
      </trkpt>
      <trkpt lat="50.696645993739367" lon="14.922196017578244">
        <ele>373.13</ele>
        <time>2013-09-06T06:45:40Z</time>
      </trkpt>
      <trkpt lat="50.696518002077937" lon="14.922126028686762">
        <ele>373.61000000000001</ele>
        <time>2013-09-06T06:45:41Z</time>
      </trkpt>
      <trkpt lat="50.696384981274605" lon="14.922091998159885">
        <ele>372.64999999999998</ele>
        <time>2013-09-06T06:45:42Z</time>
      </trkpt>
      <trkpt lat="50.695618037134409" lon="14.921969035640359">
        <ele>373.13</ele>
        <time>2013-09-06T06:45:48Z</time>
      </trkpt>
      <trkpt lat="50.695490967482328" lon="14.921982027590275">
        <ele>373.13</ele>
        <time>2013-09-06T06:45:49Z</time>
      </trkpt>
      <trkpt lat="50.69514999166131" lon="14.921982027590275">
        <ele>374.08999999999997</ele>
        <time>2013-09-06T06:45:52Z</time>
      </trkpt>
      <trkpt lat="50.695057036355138" lon="14.921923018991947">
        <ele>373.61000000000001</ele>
        <time>2013-09-06T06:45:53Z</time>
      </trkpt>
      <trkpt lat="50.694970032200217" lon="14.921839032322168">
        <ele>373.61000000000001</ele>
        <time>2013-09-06T06:45:54Z</time>
      </trkpt>
      <trkpt lat="50.694896019995213" lon="14.921730989590287">
        <ele>374.08999999999997</ele>
        <time>2013-09-06T06:45:55Z</time>
      </trkpt>
      <trkpt lat="50.69482896476984" lon="14.921599980443716">
        <ele>373.61000000000001</ele>
        <time>2013-09-06T06:45:56Z</time>
      </trkpt>
      <trkpt lat="50.694770039990544" lon="14.921447010710835">
        <ele>373.61000000000001</ele>
        <time>2013-09-06T06:45:57Z</time>
      </trkpt>
      <trkpt lat="50.694714970886707" lon="14.92128498852253">
        <ele>373.61000000000001</ele>
        <time>2013-09-06T06:45:58Z</time>
      </trkpt>
      <trkpt lat="50.694597959518433" lon="14.92081300355494">
        <ele>374.56999999999999</ele>
        <time>2013-09-06T06:46:01Z</time>
      </trkpt>
      <trkpt lat="50.69458999671042" lon="14.920647963881493">
        <ele>374.56999999999999</ele>
        <time>2013-09-06T06:46:02Z</time>
      </trkpt>
      <trkpt lat="50.694609023630619" lon="14.920483008027077">
        <ele>374.56999999999999</ele>
        <time>2013-09-06T06:46:03Z</time>
      </trkpt>
      <trkpt lat="50.69465302862227" lon="14.92034001275897">
        <ele>374.08999999999997</ele>
        <time>2013-09-06T06:46:04Z</time>
      </trkpt>
      <trkpt lat="50.694712037220597" lon="14.920197017490864">
        <ele>373.13</ele>
        <time>2013-09-06T06:46:05Z</time>
      </trkpt>
      <trkpt lat="50.694768028333783" lon="14.920042036101222">
        <ele>373.13</ele>
        <time>2013-09-06T06:46:06Z</time>
      </trkpt>
      <trkpt lat="50.695331962779164" lon="14.918526001274586">
        <ele>370.24000000000001</ele>
        <time>2013-09-06T06:46:15Z</time>
      </trkpt>
      <trkpt lat="50.695371022447944" lon="14.918334977701306">
        <ele>369.75999999999999</ele>
        <time>2013-09-06T06:46:16Z</time>
      </trkpt>
      <trkpt lat="50.69536498747766" lon="14.918153006583452">
        <ele>368.31999999999999</ele>
        <time>2013-09-06T06:46:17Z</time>
      </trkpt>
      <trkpt lat="50.695357024669647" lon="14.917967012152076">
        <ele>368.31999999999999</ele>
        <time>2013-09-06T06:46:18Z</time>
      </trkpt>
      <trkpt lat="50.695349983870983" lon="14.917779006063938">
        <ele>368.31999999999999</ele>
        <time>2013-09-06T06:46:19Z</time>
      </trkpt>
      <trkpt lat="50.695360964164138" lon="14.917209036648273">
        <ele>368.80000000000001</ele>
        <time>2013-09-06T06:46:22Z</time>
      </trkpt>
      <trkpt lat="50.695404969155788" lon="14.917035028338432">
        <ele>368.80000000000001</ele>
        <time>2013-09-06T06:46:23Z</time>
      </trkpt>
      <trkpt lat="50.695849964395165" lon="14.916056022047997">
        <ele>367.83999999999997</ele>
        <time>2013-09-06T06:46:29Z</time>
      </trkpt>
      <trkpt lat="50.695937974378467" lon="14.915911015123129">
        <ele>367.36000000000001</ele>
        <time>2013-09-06T06:46:30Z</time>
      </trkpt>
      <trkpt lat="50.696833999827504" lon="14.914203034713864">
        <ele>365.44</ele>
        <time>2013-09-06T06:46:41Z</time>
      </trkpt>
      <trkpt lat="50.69723398424685" lon="14.912978019565344">
        <ele>363.51999999999998</ele>
        <time>2013-09-06T06:46:48Z</time>
      </trkpt>
      <trkpt lat="50.697445040568709" lon="14.912489019334316">
        <ele>362.06999999999999</ele>
        <time>2013-09-06T06:46:51Z</time>
      </trkpt>
      <trkpt lat="50.697492985054851" lon="14.912311993539333">
        <ele>361.11000000000001</ele>
        <time>2013-09-06T06:46:52Z</time>
      </trkpt>
      <trkpt lat="50.697526009753346" lon="14.912130022421479">
        <ele>361.11000000000001</ele>
        <time>2013-09-06T06:46:53Z</time>
      </trkpt>
      <trkpt lat="50.697701023891568" lon="14.910570988431573">
        <ele>359.19</ele>
        <time>2013-09-06T06:47:01Z</time>
      </trkpt>
      <trkpt lat="50.697735976427794" lon="14.909092001616955">
        <ele>357.75</ele>
        <time>2013-09-06T06:47:08Z</time>
      </trkpt>
      <trkpt lat="50.697917025536299" lon="14.907369017601013">
        <ele>354.86000000000001</ele>
        <time>2013-09-06T06:47:16Z</time>
      </trkpt>
      <trkpt lat="50.698258001357317" lon="14.905910985544324">
        <ele>351.98000000000002</ele>
        <time>2013-09-06T06:47:23Z</time>
      </trkpt>
      <trkpt lat="50.698274010792375" lon="14.905690038576722">
        <ele>351.5</ele>
        <time>2013-09-06T06:47:24Z</time>
      </trkpt>
      <trkpt lat="50.698262024670839" lon="14.905470013618469">
        <ele>350.54000000000002</ele>
        <time>2013-09-06T06:47:25Z</time>
      </trkpt>
      <trkpt lat="50.698239980265498" lon="14.9052560236305">
        <ele>350.54000000000002</ele>
        <time>2013-09-06T06:47:26Z</time>
      </trkpt>
      <trkpt lat="50.698215002194047" lon="14.90504203364253">
        <ele>350.54000000000002</ele>
        <time>2013-09-06T06:47:27Z</time>
      </trkpt>
      <trkpt lat="50.697990031912923" lon="14.903297005221248">
        <ele>351.5</ele>
        <time>2013-09-06T06:47:35Z</time>
      </trkpt>
      <trkpt lat="50.697991959750652" lon="14.903078991919756">
        <ele>351.5</ele>
        <time>2013-09-06T06:47:36Z</time>
      </trkpt>
      <trkpt lat="50.698010986670852" lon="14.902862990275025">
        <ele>351.5</ele>
        <time>2013-09-06T06:47:37Z</time>
      </trkpt>
      <trkpt lat="50.698051974177361" lon="14.902642965316772">
        <ele>351.98000000000002</ele>
        <time>2013-09-06T06:47:38Z</time>
      </trkpt>
      <trkpt lat="50.698104025796056" lon="14.902417995035648">
        <ele>351.98000000000002</ele>
        <time>2013-09-06T06:47:39Z</time>
      </trkpt>
      <trkpt lat="50.698734009638429" lon="14.900355963036418">
        <ele>353.42000000000002</ele>
        <time>2013-09-06T06:47:47Z</time>
      </trkpt>
      <trkpt lat="50.699717961251736" lon="14.897079980000854">
        <ele>351.98000000000002</ele>
        <time>2013-09-06T06:47:59Z</time>
      </trkpt>
      <trkpt lat="50.700077963992953" lon="14.895946998149157">
        <ele>348.62</ele>
        <time>2013-09-06T06:48:04Z</time>
      </trkpt>
      <trkpt lat="50.700186006724834" lon="14.895777013152838">
        <ele>349.10000000000002</ele>
        <time>2013-09-06T06:48:05Z</time>
      </trkpt>
      <trkpt lat="50.700295977294445" lon="14.895650027319789">
        <ele>349.57999999999998</ele>
        <time>2013-09-06T06:48:06Z</time>
      </trkpt>
      <trkpt lat="50.700419023633003" lon="14.895536033436656">
        <ele>349.57999999999998</ele>
        <time>2013-09-06T06:48:07Z</time>
      </trkpt>
      <trkpt lat="50.700539974495769" lon="14.895448023453355">
        <ele>350.54000000000002</ele>
        <time>2013-09-06T06:48:08Z</time>
      </trkpt>
      <trkpt lat="50.701373973861337" lon="14.894801024347544">
        <ele>351.98000000000002</ele>
        <time>2013-09-06T06:48:16Z</time>
      </trkpt>
      <trkpt lat="50.701478999108076" lon="14.894675966352224">
        <ele>351.5</ele>
        <time>2013-09-06T06:48:17Z</time>
      </trkpt>
      <trkpt lat="50.702211996540427" lon="14.893820006400347">
        <ele>349.10000000000002</ele>
        <time>2013-09-06T06:48:22Z</time>
      </trkpt>
      <trkpt lat="50.703471964225173" lon="14.891769038513303">
        <ele>342.85000000000002</ele>
        <time>2013-09-06T06:48:31Z</time>
      </trkpt>
      <trkpt lat="50.704420963302255" lon="14.889675993472338">
        <ele>337.56</ele>
        <time>2013-09-06T06:48:39Z</time>
      </trkpt>
      <trkpt lat="50.704488018527627" lon="14.889365024864674">
        <ele>336.60000000000002</ele>
        <time>2013-09-06T06:48:40Z</time>
      </trkpt>
      <trkpt lat="50.704524982720613" lon="14.889052966609597">
        <ele>336.12</ele>
        <time>2013-09-06T06:48:41Z</time>
      </trkpt>
      <trkpt lat="50.704551972448826" lon="14.88873696886003">
        <ele>336.12</ele>
        <time>2013-09-06T06:48:42Z</time>
      </trkpt>
      <trkpt lat="50.704565970227122" lon="14.888418037444353">
        <ele>336.12</ele>
        <time>2013-09-06T06:48:43Z</time>
      </trkpt>
      <trkpt lat="50.704545015469193" lon="14.886204963549972">
        <ele>336.12</ele>
        <time>2013-09-06T06:48:50Z</time>
      </trkpt>
      <trkpt lat="50.704644005745649" lon="14.885638011619449">
        <ele>336.60000000000002</ele>
        <time>2013-09-06T06:48:52Z</time>
      </trkpt>
      <trkpt lat="50.704741990193725" lon="14.885375993326306">
        <ele>336.12</ele>
        <time>2013-09-06T06:48:53Z</time>
      </trkpt>
      <trkpt lat="50.704884985461831" lon="14.885114980861545">
        <ele>336.12</ele>
        <time>2013-09-06T06:48:54Z</time>
      </trkpt>
      <trkpt lat="50.705030998215079" lon="14.884887998923659">
        <ele>335.63999999999999</ele>
        <time>2013-09-06T06:48:55Z</time>
      </trkpt>
      <trkpt lat="50.705185979604721" lon="14.884684989228845">
        <ele>335.16000000000003</ele>
        <time>2013-09-06T06:48:56Z</time>
      </trkpt>
      <trkpt lat="50.705344984307885" lon="14.884498994797468">
        <ele>335.16000000000003</ele>
        <time>2013-09-06T06:48:57Z</time>
      </trkpt>
      <trkpt lat="50.707041984423995" lon="14.882887993007898">
        <ele>332.75</ele>
        <time>2013-09-06T06:49:07Z</time>
      </trkpt>
      <trkpt lat="50.708908969536424" lon="14.881464997306466">
        <ele>327.94999999999999</ele>
        <time>2013-09-06T06:49:18Z</time>
      </trkpt>
      <trkpt lat="50.710062989965081" lon="14.880088018253446">
        <ele>326.01999999999998</ele>
        <time>2013-09-06T06:49:28Z</time>
      </trkpt>
      <trkpt lat="50.711302002891898" lon="14.878407027572393">
        <ele>323.62</ele>
        <time>2013-09-06T06:49:40Z</time>
      </trkpt>
      <trkpt lat="50.711512975394726" lon="14.878173004835844">
        <ele>323.62</ele>
        <time>2013-09-06T06:49:42Z</time>
      </trkpt>
      <trkpt lat="50.711826039478183" lon="14.877786012366414">
        <ele>323.13999999999999</ele>
        <time>2013-09-06T06:49:45Z</time>
      </trkpt>
      <trkpt lat="50.711897034198046" lon="14.877592977136374">
        <ele>323.62</ele>
        <time>2013-09-06T06:49:46Z</time>
      </trkpt>
      <trkpt lat="50.711960988119245" lon="14.877401031553745">
        <ele>323.62</ele>
        <time>2013-09-06T06:49:47Z</time>
      </trkpt>
      <trkpt lat="50.712011028081179" lon="14.877182012423873">
        <ele>324.10000000000002</ele>
        <time>2013-09-06T06:49:48Z</time>
      </trkpt>
      <trkpt lat="50.712050003930926" lon="14.876971039921045">
        <ele>324.57999999999998</ele>
        <time>2013-09-06T06:49:49Z</time>
      </trkpt>
      <trkpt lat="50.712269023060799" lon="14.874914959073067">
        <ele>324.57999999999998</ele>
        <time>2013-09-06T06:49:59Z</time>
      </trkpt>
      <trkpt lat="50.712276985868812" lon="14.874708009883761">
        <ele>326.99000000000001</ele>
        <time>2013-09-06T06:50:00Z</time>
      </trkpt>
      <trkpt lat="50.712259970605373" lon="14.874493014067411">
        <ele>327.94999999999999</ele>
        <time>2013-09-06T06:50:01Z</time>
      </trkpt>
      <trkpt lat="50.712218983098865" lon="14.874287992715836">
        <ele>327.47000000000003</ele>
        <time>2013-09-06T06:50:02Z</time>
      </trkpt>
      <trkpt lat="50.712160980328918" lon="14.874094035476446">
        <ele>328.43000000000001</ele>
        <time>2013-09-06T06:50:03Z</time>
      </trkpt>
      <trkpt lat="50.712084034457803" lon="14.873922038823366">
        <ele>326.99000000000001</ele>
        <time>2013-09-06T06:50:04Z</time>
      </trkpt>
      <trkpt lat="50.712008010596037" lon="14.873751970008016">
        <ele>326.5</ele>
        <time>2013-09-06T06:50:05Z</time>
      </trkpt>
      <trkpt lat="50.711793014779687" lon="14.873241009190679">
        <ele>326.99000000000001</ele>
        <time>2013-09-06T06:50:08Z</time>
      </trkpt>
      <trkpt lat="50.711744986474514" lon="14.873045040294528">
        <ele>327.94999999999999</ele>
        <time>2013-09-06T06:50:09Z</time>
      </trkpt>
      <trkpt lat="50.711711961776018" lon="14.872844964265823">
        <ele>328.43000000000001</ele>
        <time>2013-09-06T06:50:10Z</time>
      </trkpt>
      <trkpt lat="50.711623029783368" lon="14.871520958840847">
        <ele>329.87</ele>
        <time>2013-09-06T06:50:16Z</time>
      </trkpt>
      <trkpt lat="50.711719002574682" lon="14.869069000706077">
        <ele>332.26999999999998</ele>
        <time>2013-09-06T06:50:27Z</time>
      </trkpt>
      <trkpt lat="50.711684972047806" lon="14.868849981576204">
        <ele>332.75</ele>
        <time>2013-09-06T06:50:28Z</time>
      </trkpt>
      <trkpt lat="50.711227990686893" lon="14.867015015333891">
        <ele>331.79000000000002</ele>
        <time>2013-09-06T06:50:37Z</time>
      </trkpt>
      <trkpt lat="50.710430033504963" lon="14.86518801189959">
        <ele>326.99000000000001</ele>
        <time>2013-09-06T06:50:47Z</time>
      </trkpt>
      <trkpt lat="50.710392985492945" lon="14.864977961406112">
        <ele>327.94999999999999</ele>
        <time>2013-09-06T06:50:48Z</time>
      </trkpt>
      <trkpt lat="50.710117975249887" lon="14.862642008811235">
        <ele>331.79000000000002</ele>
        <time>2013-09-06T06:50:59Z</time>
      </trkpt>
      <trkpt lat="50.710036000236869" lon="14.861386986449361">
        <ele>329.38999999999999</ele>
        <time>2013-09-06T06:51:05Z</time>
      </trkpt>
      <trkpt lat="50.709993001073599" lon="14.861193029209971">
        <ele>328.43000000000001</ele>
        <time>2013-09-06T06:51:06Z</time>
      </trkpt>
      <trkpt lat="50.709903985261917" lon="14.861032012850046">
        <ele>325.06</ele>
        <time>2013-09-06T06:51:07Z</time>
      </trkpt>
      <trkpt lat="50.7098029833287" lon="14.860897986218333">
        <ele>325.54000000000002</ele>
        <time>2013-09-06T06:51:08Z</time>
      </trkpt>
      <trkpt lat="50.709688989445567" lon="14.860807964578271">
        <ele>324.10000000000002</ele>
        <time>2013-09-06T06:51:09Z</time>
      </trkpt>
      <trkpt lat="50.709562003612518" lon="14.860743004828691">
        <ele>323.13999999999999</ele>
        <time>2013-09-06T06:51:10Z</time>
      </trkpt>
      <trkpt lat="50.709443986415863" lon="14.860700005665421">
        <ele>322.18000000000001</ele>
        <time>2013-09-06T06:51:11Z</time>
      </trkpt>
      <trkpt lat="50.709321023896337" lon="14.860659018158913">
        <ele>321.22000000000003</ele>
        <time>2013-09-06T06:51:12Z</time>
      </trkpt>
      <trkpt lat="50.708964038640261" lon="14.860521974042058">
        <ele>321.22000000000003</ele>
        <time>2013-09-06T06:51:15Z</time>
      </trkpt>
      <trkpt lat="50.708863036707044" lon="14.860436981543899">
        <ele>321.22000000000003</ele>
        <time>2013-09-06T06:51:16Z</time>
      </trkpt>
      <trkpt lat="50.708776032552123" lon="14.860320976004004">
        <ele>322.18000000000001</ele>
        <time>2013-09-06T06:51:17Z</time>
      </trkpt>
      <trkpt lat="50.708701014518738" lon="14.860190972685814">
        <ele>322.66000000000003</ele>
        <time>2013-09-06T06:51:18Z</time>
      </trkpt>
      <trkpt lat="50.70864200592041" lon="14.860028028488159">
        <ele>324.10000000000002</ele>
        <time>2013-09-06T06:51:19Z</time>
      </trkpt>
      <trkpt lat="50.708587020635605" lon="14.859865000471473">
        <ele>325.54000000000002</ele>
        <time>2013-09-06T06:51:20Z</time>
      </trkpt>
      <trkpt lat="50.708537986502051" lon="14.859689986333251">
        <ele>326.99000000000001</ele>
        <time>2013-09-06T06:51:21Z</time>
      </trkpt>
      <trkpt lat="50.70849297568202" lon="14.859517989680171">
        <ele>327.94999999999999</ele>
        <time>2013-09-06T06:51:22Z</time>
      </trkpt>
      <trkpt lat="50.70831997320056" lon="14.858854981139302">
        <ele>331.79000000000002</ele>
        <time>2013-09-06T06:51:26Z</time>
      </trkpt>
      <trkpt lat="50.708260964602232" lon="14.858716009184718">
        <ele>333.23000000000002</ele>
        <time>2013-09-06T06:51:27Z</time>
      </trkpt>
      <trkpt lat="50.708172032609582" lon="14.858582988381386">
        <ele>334.19999999999999</ele>
        <time>2013-09-06T06:51:28Z</time>
      </trkpt>
      <trkpt lat="50.708081005141139" lon="14.858481986448169">
        <ele>335.16000000000003</ele>
        <time>2013-09-06T06:51:29Z</time>
      </trkpt>
      <trkpt lat="50.707982014864683" lon="14.858419960364699">
        <ele>335.16000000000003</ele>
        <time>2013-09-06T06:51:30Z</time>
      </trkpt>
      <trkpt lat="50.707873972132802" lon="14.858381990343332">
        <ele>334.68000000000001</ele>
        <time>2013-09-06T06:51:31Z</time>
      </trkpt>
      <trkpt lat="50.707765007391572" lon="14.858342008665204">
        <ele>336.60000000000002</ele>
        <time>2013-09-06T06:51:32Z</time>
      </trkpt>
      <trkpt lat="50.707226973026991" lon="14.858117960393429">
        <ele>338.51999999999998</ele>
        <time>2013-09-06T06:51:37Z</time>
      </trkpt>
      <trkpt lat="50.707122031599283" lon="14.858037997037172">
        <ele>338.51999999999998</ele>
        <time>2013-09-06T06:51:38Z</time>
      </trkpt>
      <trkpt lat="50.707021029666066" lon="14.857929032295942">
        <ele>339.48000000000002</ele>
        <time>2013-09-06T06:51:39Z</time>
      </trkpt>
      <trkpt lat="50.70692203938961" lon="14.857807997614145">
        <ele>340.44</ele>
        <time>2013-09-06T06:51:40Z</time>
      </trkpt>
      <trkpt lat="50.706841992214322" lon="14.8576670140028">
        <ele>342.85000000000002</ele>
        <time>2013-09-06T06:51:41Z</time>
      </trkpt>
      <trkpt lat="50.706760017201304" lon="14.857519995421171">
        <ele>344.29000000000002</ele>
        <time>2013-09-06T06:51:42Z</time>
      </trkpt>
      <trkpt lat="50.706688016653061" lon="14.857373982667923">
        <ele>344.76999999999998</ele>
        <time>2013-09-06T06:51:43Z</time>
      </trkpt>
      <trkpt lat="50.706628002226353" lon="14.857208020985126">
        <ele>346.20999999999998</ele>
        <time>2013-09-06T06:51:44Z</time>
      </trkpt>
      <trkpt lat="50.706275962293148" lon="14.856309983879328">
        <ele>349.10000000000002</ele>
        <time>2013-09-06T06:51:49Z</time>
      </trkpt>
      <trkpt lat="50.705555034801364" lon="14.854597980156541">
        <ele>337.07999999999998</ele>
        <time>2013-09-06T06:51:55Z</time>
      </trkpt>
      <trkpt lat="50.703771030530334" lon="14.850797960534692">
        <ele>324.57999999999998</ele>
        <time>2013-09-06T06:52:09Z</time>
      </trkpt>
      <trkpt lat="50.702665038406849" lon="14.848391013219953">
        <ele>320.25999999999999</ele>
        <time>2013-09-06T06:52:19Z</time>
      </trkpt>
      <trkpt lat="50.702465968206525" lon="14.847562965005636">
        <ele>318.32999999999998</ele>
        <time>2013-09-06T06:52:23Z</time>
      </trkpt>
      <trkpt lat="50.702248960733414" lon="14.845396997407079">
        <ele>315.93000000000001</ele>
        <time>2013-09-06T06:52:33Z</time>
      </trkpt>
      <trkpt lat="50.702211996540427" lon="14.844140969216824">
        <ele>315.44999999999999</ele>
        <time>2013-09-06T06:52:39Z</time>
      </trkpt>
      <trkpt lat="50.702223982661963" lon="14.84393703751266">
        <ele>317.37</ele>
        <time>2013-09-06T06:52:40Z</time>
      </trkpt>
      <trkpt lat="50.702210990712047" lon="14.841721029952168">
        <ele>320.74000000000001</ele>
        <time>2013-09-06T06:52:51Z</time>
      </trkpt>
      <trkpt lat="50.702248960733414" lon="14.839798975735903">
        <ele>317.85000000000002</ele>
        <time>2013-09-06T06:53:01Z</time>
      </trkpt>
      <trkpt lat="50.702312998473644" lon="14.839432016015053">
        <ele>318.32999999999998</ele>
        <time>2013-09-06T06:53:03Z</time>
      </trkpt>
      <trkpt lat="50.702359015122056" lon="14.83925499022007">
        <ele>318.32999999999998</ele>
        <time>2013-09-06T06:53:04Z</time>
      </trkpt>
      <trkpt lat="50.702408971264958" lon="14.839087016880512">
        <ele>317.85000000000002</ele>
        <time>2013-09-06T06:53:05Z</time>
      </trkpt>
      <trkpt lat="50.702470997348428" lon="14.838926000520587">
        <ele>316.88999999999999</ele>
        <time>2013-09-06T06:53:06Z</time>
      </trkpt>
      <trkpt lat="50.70253998041153" lon="14.8387819994241">
        <ele>316.41000000000003</ele>
        <time>2013-09-06T06:53:07Z</time>
      </trkpt>
      <trkpt lat="50.702614998444915" lon="14.838640009984374">
        <ele>316.41000000000003</ele>
        <time>2013-09-06T06:53:08Z</time>
      </trkpt>
      <trkpt lat="50.702697979286313" lon="14.838505983352661">
        <ele>316.88999999999999</ele>
        <time>2013-09-06T06:53:09Z</time>
      </trkpt>
      <trkpt lat="50.702791018411517" lon="14.838390983641148">
        <ele>317.37</ele>
        <time>2013-09-06T06:53:10Z</time>
      </trkpt>
      <trkpt lat="50.702895959839225" lon="14.83828897587955">
        <ele>317.37</ele>
        <time>2013-09-06T06:53:11Z</time>
      </trkpt>
      <trkpt lat="50.703000985085964" lon="14.83820297755301">
        <ele>317.37</ele>
        <time>2013-09-06T06:53:12Z</time>
      </trkpt>
      <trkpt lat="50.703101987019181" lon="14.838132988661528">
        <ele>316.41000000000003</ele>
        <time>2013-09-06T06:53:13Z</time>
      </trkpt>
      <trkpt lat="50.703212041407824" lon="14.838070040568709">
        <ele>317.37</ele>
        <time>2013-09-06T06:53:14Z</time>
      </trkpt>
      <trkpt lat="50.703545976430178" lon="14.837906006723642">
        <ele>315.93000000000001</ele>
        <time>2013-09-06T06:53:17Z</time>
      </trkpt>
      <trkpt lat="50.703646978363395" lon="14.837811039760709">
        <ele>315.44999999999999</ele>
        <time>2013-09-06T06:53:18Z</time>
      </trkpt>
      <trkpt lat="50.703734988346696" lon="14.837710037827492">
        <ele>314.00999999999999</ele>
        <time>2013-09-06T06:53:19Z</time>
      </trkpt>
      <trkpt lat="50.703802965581417" lon="14.837576011195779">
        <ele>314.00999999999999</ele>
        <time>2013-09-06T06:53:20Z</time>
      </trkpt>
      <trkpt lat="50.703838001936674" lon="14.837413989007473">
        <ele>313.52999999999997</ele>
        <time>2013-09-06T06:53:21Z</time>
      </trkpt>
      <trkpt lat="50.703846970573068" lon="14.83723696321249">
        <ele>313.05000000000001</ele>
        <time>2013-09-06T06:53:22Z</time>
      </trkpt>
      <trkpt lat="50.703830039128661" lon="14.837046023458242">
        <ele>312.08999999999997</ele>
        <time>2013-09-06T06:53:23Z</time>
      </trkpt>
      <trkpt lat="50.703801959753036" lon="14.836858017370105">
        <ele>312.08999999999997</ele>
        <time>2013-09-06T06:53:24Z</time>
      </trkpt>
      <trkpt lat="50.703762983903289" lon="14.836662970483303">
        <ele>311.60000000000002</ele>
        <time>2013-09-06T06:53:25Z</time>
      </trkpt>
      <trkpt lat="50.703344978392124" lon="14.834459032863379">
        <ele>312.56999999999999</ele>
        <time>2013-09-06T06:53:34Z</time>
      </trkpt>
      <trkpt lat="50.702660009264946" lon="14.830502020195127">
        <ele>314.49000000000001</ele>
        <time>2013-09-06T06:53:48Z</time>
      </trkpt>
      <trkpt lat="50.702444007620215" lon="14.827490989118814">
        <ele>314.00999999999999</ele>
        <time>2013-09-06T06:53:58Z</time>
      </trkpt>
      <trkpt lat="50.702756987884641" lon="14.824781036004424">
        <ele>311.60000000000002</ele>
        <time>2013-09-06T06:54:07Z</time>
      </trkpt>
      <trkpt lat="50.702769979834557" lon="14.824462020769715">
        <ele>311.60000000000002</ele>
        <time>2013-09-06T06:54:08Z</time>
      </trkpt>
      <trkpt lat="50.702805016189814" lon="14.819375965744257">
        <ele>310.16000000000003</ele>
        <time>2013-09-06T06:54:24Z</time>
      </trkpt>
      <trkpt lat="50.703102992847562" lon="14.816877990961075">
        <ele>311.12</ele>
        <time>2013-09-06T06:54:32Z</time>
      </trkpt>
      <trkpt lat="50.70374496281147" lon="14.812426026910543">
        <ele>309.68000000000001</ele>
        <time>2013-09-06T06:54:47Z</time>
      </trkpt>
      <trkpt lat="50.703902039676905" lon="14.81162304058671">
        <ele>310.16000000000003</ele>
        <time>2013-09-06T06:54:50Z</time>
      </trkpt>
      <trkpt lat="50.704137990251184" lon="14.810845032334328">
        <ele>309.19999999999999</ele>
        <time>2013-09-06T06:54:53Z</time>
      </trkpt>
      <trkpt lat="50.704918010160327" lon="14.807713972404599">
        <ele>305.83999999999997</ele>
        <time>2013-09-06T06:55:04Z</time>
      </trkpt>
      <trkpt lat="50.705944960936904" lon="14.805757971480489">
        <ele>305.83999999999997</ele>
        <time>2013-09-06T06:55:12Z</time>
      </trkpt>
      <trkpt lat="50.707058999687433" lon="14.803582029417157">
        <ele>303.43000000000001</ele>
        <time>2013-09-06T06:55:21Z</time>
      </trkpt>
      <trkpt lat="50.707557974383235" lon="14.801149014383554">
        <ele>304.88</ele>
        <time>2013-09-06T06:55:29Z</time>
      </trkpt>
      <trkpt lat="50.707536013796926" lon="14.799023028463125">
        <ele>303.91000000000003</ele>
        <time>2013-09-06T06:55:36Z</time>
      </trkpt>
      <trkpt lat="50.706982975825667" lon="14.796740971505642">
        <ele>302.47000000000003</ele>
        <time>2013-09-06T06:55:44Z</time>
      </trkpt>
      <trkpt lat="50.706111006438732" lon="14.795043971389532">
        <ele>302.94999999999999</ele>
        <time>2013-09-06T06:55:51Z</time>
      </trkpt>
      <trkpt lat="50.704770991578698" lon="14.793441016227007">
        <ele>304.38999999999999</ele>
        <time>2013-09-06T06:56:00Z</time>
      </trkpt>
      <trkpt lat="50.703777987509966" lon="14.791702022776008">
        <ele>305.83999999999997</ele>
        <time>2013-09-06T06:56:08Z</time>
      </trkpt>
      <trkpt lat="50.703298039734364" lon="14.789805030450225">
        <ele>311.60000000000002</ele>
        <time>2013-09-06T06:56:15Z</time>
      </trkpt>
      <trkpt lat="50.703274989500642" lon="14.788177013397217">
        <ele>312.56999999999999</ele>
        <time>2013-09-06T06:56:22Z</time>
      </trkpt>
      <trkpt lat="50.703559974208474" lon="14.785795966163278">
        <ele>310.16000000000003</ele>
        <time>2013-09-06T06:56:30Z</time>
      </trkpt>
      <trkpt lat="50.704144025221467" lon="14.78051302023232">
        <ele>308.72000000000003</ele>
        <time>2013-09-06T06:56:46Z</time>
      </trkpt>
      <trkpt lat="50.704226000234485" lon="14.777200995013118">
        <ele>310.16000000000003</ele>
        <time>2013-09-06T06:56:56Z</time>
      </trkpt>
      <trkpt lat="50.704100020229816" lon="14.773673973977566">
        <ele>316.88999999999999</ele>
        <time>2013-09-06T06:57:07Z</time>
      </trkpt>
      <trkpt lat="50.704572005197406" lon="14.771672040224075">
        <ele>318.81</ele>
        <time>2013-09-06T06:57:14Z</time>
      </trkpt>
      <trkpt lat="50.705858040601015" lon="14.76736600510776">
        <ele>323.13999999999999</ele>
        <time>2013-09-06T06:57:29Z</time>
      </trkpt>
      <trkpt lat="50.707280030474067" lon="14.762976989150047">
        <ele>320.74000000000001</ele>
        <time>2013-09-06T06:57:44Z</time>
      </trkpt>
      <trkpt lat="50.708376970142126" lon="14.760135021060705">
        <ele>324.10000000000002</ele>
        <time>2013-09-06T06:57:55Z</time>
      </trkpt>
      <trkpt lat="50.708902012556791" lon="14.758629966527224">
        <ele>328.43000000000001</ele>
        <time>2013-09-06T06:58:03Z</time>
      </trkpt>
      <trkpt lat="50.70907199755311" lon="14.758190000429749">
        <ele>331.79000000000002</ele>
        <time>2013-09-06T06:58:09Z</time>
      </trkpt>
      <trkpt lat="50.70909203030169" lon="14.758149012923241">
        <ele>330.35000000000002</ele>
        <time>2013-09-06T06:58:16Z</time>
      </trkpt>
      <trkpt lat="50.709085995331407" lon="14.758087992668152">
        <ele>330.35000000000002</ele>
        <time>2013-09-06T06:58:17Z</time>
      </trkpt>
      <trkpt lat="50.709064034745097" lon="14.758016997948289">
        <ele>329.87</ele>
        <time>2013-09-06T06:58:18Z</time>
      </trkpt>
      <trkpt lat="50.709034027531743" lon="14.757948014885187">
        <ele>329.38999999999999</ele>
        <time>2013-09-06T06:58:19Z</time>
      </trkpt>
      <trkpt lat="50.70898599922657" lon="14.757886994630098">
        <ele>330.35000000000002</ele>
        <time>2013-09-06T06:58:20Z</time>
      </trkpt>
      <trkpt lat="50.708925984799862" lon="14.757838966324925">
        <ele>329.87</ele>
        <time>2013-09-06T06:58:21Z</time>
      </trkpt>
      <trkpt lat="50.708858007565141" lon="14.757791021838784">
        <ele>330.35000000000002</ele>
        <time>2013-09-06T06:58:22Z</time>
      </trkpt>
      <trkpt lat="50.708600012585521" lon="14.757578959688544">
        <ele>330.35000000000002</ele>
        <time>2013-09-06T06:58:25Z</time>
      </trkpt>
      <trkpt lat="50.707743968814611" lon="14.756614034995437">
        <ele>330.82999999999998</ele>
        <time>2013-09-06T06:58:31Z</time>
      </trkpt>
      <trkpt lat="50.706497998908162" lon="14.754489976912737">
        <ele>335.16000000000003</ele>
        <time>2013-09-06T06:58:40Z</time>
      </trkpt>
      <trkpt lat="50.705322017893195" lon="14.752850979566574">
        <ele>332.75</ele>
        <time>2013-09-06T06:58:48Z</time>
      </trkpt>
      <trkpt lat="50.703620994463563" lon="14.751090025529265">
        <ele>323.62</ele>
        <time>2013-09-06T06:58:57Z</time>
      </trkpt>
      <trkpt lat="50.70088597945869" lon="14.74828502163291">
        <ele>319.30000000000001</ele>
        <time>2013-09-06T06:59:11Z</time>
      </trkpt>
      <trkpt lat="50.697894981130958" lon="14.74637302570045">
        <ele>306.80000000000001</ele>
        <time>2013-09-06T06:59:25Z</time>
      </trkpt>
      <trkpt lat="50.696117011830211" lon="14.745346996933222">
        <ele>303.43000000000001</ele>
        <time>2013-09-06T06:59:34Z</time>
      </trkpt>
      <trkpt lat="50.694279028102756" lon="14.744781972840428">
        <ele>297.67000000000002</ele>
        <time>2013-09-06T06:59:43Z</time>
      </trkpt>
      <trkpt lat="50.692929038777947" lon="14.74381797015667">
        <ele>290.94</ele>
        <time>2013-09-06T06:59:51Z</time>
      </trkpt>
      <trkpt lat="50.691227009519935" lon="14.741574972867966">
        <ele>289.00999999999999</ele>
        <time>2013-09-06T07:00:03Z</time>
      </trkpt>
      <trkpt lat="50.688818972557783" lon="14.738351963460445">
        <ele>290.45999999999998</ele>
        <time>2013-09-06T07:00:19Z</time>
      </trkpt>
      <trkpt lat="50.688158981502056" lon="14.737523999065161">
        <ele>291.89999999999998</ele>
        <time>2013-09-06T07:00:23Z</time>
      </trkpt>
      <trkpt lat="50.687982961535454" lon="14.737372035160661">
        <ele>291.89999999999998</ele>
        <time>2013-09-06T07:00:24Z</time>
      </trkpt>
      <trkpt lat="50.687796967104077" lon="14.737248988822103">
        <ele>292.38</ele>
        <time>2013-09-06T07:00:25Z</time>
      </trkpt>
      <trkpt lat="50.686671026051044" lon="14.736621016636491">
        <ele>301.50999999999999</ele>
        <time>2013-09-06T07:00:32Z</time>
      </trkpt>
      <trkpt lat="50.685389013960958" lon="14.73573898896575">
        <ele>311.12</ele>
        <time>2013-09-06T07:00:41Z</time>
      </trkpt>
      <trkpt lat="50.683850012719631" lon="14.733897987753153">
        <ele>305.36000000000001</ele>
        <time>2013-09-06T07:00:51Z</time>
      </trkpt>
      <trkpt lat="50.682918028905988" lon="14.732509022578597">
        <ele>297.67000000000002</ele>
        <time>2013-09-06T07:00:56Z</time>
      </trkpt>
      <trkpt lat="50.681611960753798" lon="14.730467023327947">
        <ele>292.38</ele>
        <time>2013-09-06T07:01:03Z</time>
      </trkpt>
      <trkpt lat="50.681407023221254" lon="14.730263007804751">
        <ele>292.38</ele>
        <time>2013-09-06T07:01:04Z</time>
      </trkpt>
      <trkpt lat="50.681190015748143" lon="14.730113977566361">
        <ele>292.86000000000001</ele>
        <time>2013-09-06T07:01:05Z</time>
      </trkpt>
      <trkpt lat="50.679023964330554" lon="14.729032041504979">
        <ele>297.67000000000002</ele>
        <time>2013-09-06T07:01:15Z</time>
      </trkpt>
      <trkpt lat="50.676988000050187" lon="14.728637002408504">
        <ele>296.22000000000003</ele>
        <time>2013-09-06T07:01:25Z</time>
      </trkpt>
      <trkpt lat="50.674026003107429" lon="14.728115983307362">
        <ele>294.30000000000001</ele>
        <time>2013-09-06T07:01:39Z</time>
      </trkpt>
      <trkpt lat="50.670332014560699" lon="14.72746797837317">
        <ele>293.81999999999999</ele>
        <time>2013-09-06T07:01:57Z</time>
      </trkpt>
      <trkpt lat="50.669042961671948" lon="14.72718701697886">
        <ele>293.81999999999999</ele>
        <time>2013-09-06T07:02:05Z</time>
      </trkpt>
      <trkpt lat="50.667621977627277" lon="14.726900020614266">
        <ele>293.81999999999999</ele>
        <time>2013-09-06T07:02:17Z</time>
      </trkpt>
      <trkpt lat="50.665775025263429" lon="14.72654202952981">
        <ele>293.33999999999997</ele>
        <time>2013-09-06T07:02:33Z</time>
      </trkpt>
      <trkpt lat="50.665432959794998" lon="14.726452007889748">
        <ele>293.33999999999997</ele>
        <time>2013-09-06T07:02:36Z</time>
      </trkpt>
      <trkpt lat="50.66532701253891" lon="14.726396016776562">
        <ele>292.86000000000001</ele>
        <time>2013-09-06T07:02:37Z</time>
      </trkpt>
      <trkpt lat="50.665225004777312" lon="14.726326027885079">
        <ele>292.86000000000001</ele>
        <time>2013-09-06T07:02:38Z</time>
      </trkpt>
      <trkpt lat="50.665122997015715" lon="14.726236006245017">
        <ele>293.33999999999997</ele>
        <time>2013-09-06T07:02:39Z</time>
      </trkpt>
      <trkpt lat="50.665025012567639" lon="14.726138021796942">
        <ele>293.81999999999999</ele>
        <time>2013-09-06T07:02:40Z</time>
      </trkpt>
      <trkpt lat="50.663907034322619" lon="14.725455986335874">
        <ele>289.97000000000003</ele>
        <time>2013-09-06T07:02:51Z</time>
      </trkpt>
      <trkpt lat="50.662884023040533" lon="14.725102018564939">
        <ele>284.20999999999998</ele>
        <time>2013-09-06T07:03:03Z</time>
      </trkpt>
      <trkpt lat="50.662718983367085" lon="14.72499598748982">
        <ele>281.80000000000001</ele>
        <time>2013-09-06T07:03:05Z</time>
      </trkpt>
      <trkpt lat="50.662272982299328" lon="14.724617963656783">
        <ele>280.36000000000001</ele>
        <time>2013-09-06T07:03:13Z</time>
      </trkpt>
      <trkpt lat="50.66221003420651" lon="14.724605977535248">
        <ele>279.88</ele>
        <time>2013-09-06T07:03:14Z</time>
      </trkpt>
      <trkpt lat="50.662121018394828" lon="14.724622992798686">
        <ele>279.39999999999998</ele>
        <time>2013-09-06T07:03:15Z</time>
      </trkpt>
      <trkpt lat="50.66139598377049" lon="14.72473899833858">
        <ele>278.92000000000002</ele>
        <time>2013-09-06T07:03:21Z</time>
      </trkpt>
      <trkpt lat="50.660711014643312" lon="14.724533976987004">
        <ele>280.36000000000001</ele>
        <time>2013-09-06T07:03:30Z</time>
      </trkpt>
      <trkpt lat="50.660647982731462" lon="14.724505981430411">
        <ele>280.83999999999997</ele>
        <time>2013-09-06T07:03:31Z</time>
      </trkpt>
      <trkpt lat="50.660588974133134" lon="14.724453007802367">
        <ele>280.83999999999997</ele>
        <time>2013-09-06T07:03:32Z</time>
      </trkpt>
      <trkpt lat="50.660543963313103" lon="14.724377989768982">
        <ele>281.31999999999999</ele>
        <time>2013-09-06T07:03:33Z</time>
      </trkpt>
      <trkpt lat="50.660456037148833" lon="14.724267013370991">
        <ele>281.80000000000001</ele>
        <time>2013-09-06T07:03:35Z</time>
      </trkpt>
      <trkpt lat="50.660410020500422" lon="14.724262990057468">
        <ele>281.80000000000001</ele>
        <time>2013-09-06T07:03:36Z</time>
      </trkpt>
      <trkpt lat="50.660368027165532" lon="14.724294003099203">
        <ele>281.80000000000001</ele>
        <time>2013-09-06T07:03:37Z</time>
      </trkpt>
      <trkpt lat="50.660335002467036" lon="14.724343959242105">
        <ele>281.80000000000001</ele>
        <time>2013-09-06T07:03:38Z</time>
      </trkpt>
      <trkpt lat="50.66030097194016" lon="14.724406991153955">
        <ele>281.31999999999999</ele>
        <time>2013-09-06T07:03:39Z</time>
      </trkpt>
      <trkpt lat="50.660198964178562" lon="14.724514028057456">
        <ele>281.31999999999999</ele>
        <time>2013-09-06T07:03:41Z</time>
      </trkpt>
      <trkpt lat="50.660131992772222" lon="14.724545041099191">
        <ele>281.80000000000001</ele>
        <time>2013-09-06T07:03:42Z</time>
      </trkpt>
      <trkpt lat="50.660058986395597" lon="14.724559960886836">
        <ele>281.80000000000001</ele>
        <time>2013-09-06T07:03:43Z</time>
      </trkpt>
      <trkpt lat="50.659005967900157" lon="14.724663980305195">
        <ele>280.36000000000001</ele>
        <time>2013-09-06T07:03:57Z</time>
      </trkpt>
      <trkpt lat="50.658415965735912" lon="14.72460899502039">
        <ele>279.88</ele>
        <time>2013-09-06T07:04:07Z</time>
      </trkpt>
      <trkpt lat="50.65755195915699" lon="14.724372960627079">
        <ele>278.92000000000002</ele>
        <time>2013-09-06T07:04:17Z</time>
      </trkpt>
      <trkpt lat="50.65643004141748" lon="14.724399028345942">
        <ele>274.58999999999997</ele>
        <time>2013-09-06T07:04:29Z</time>
      </trkpt>
      <trkpt lat="50.656022010371089" lon="14.724421994760633">
        <ele>275.56</ele>
        <time>2013-09-06T07:04:33Z</time>
      </trkpt>
      <trkpt lat="50.655930982902646" lon="14.724459964782">
        <ele>276.04000000000002</ele>
        <time>2013-09-06T07:04:34Z</time>
      </trkpt>
      <trkpt lat="50.655849007889628" lon="14.724511010572314">
        <ele>276.04000000000002</ele>
        <time>2013-09-06T07:04:35Z</time>
      </trkpt>
      <trkpt lat="50.655782036483288" lon="14.724574964493513">
        <ele>276.04000000000002</ele>
        <time>2013-09-06T07:04:36Z</time>
      </trkpt>
      <trkpt lat="50.655708024278283" lon="14.724656017497182">
        <ele>276.04000000000002</ele>
        <time>2013-09-06T07:04:37Z</time>
      </trkpt>
      <trkpt lat="50.65546402707696" lon="14.72501702606678">
        <ele>275.06999999999999</ele>
        <time>2013-09-06T07:04:41Z</time>
      </trkpt>
      <trkpt lat="50.655384985730052" lon="14.725069999694824">
        <ele>276.51999999999998</ele>
        <time>2013-09-06T07:04:42Z</time>
      </trkpt>
      <trkpt lat="50.655147023499012" lon="14.725279966369271">
        <ele>276.51999999999998</ele>
        <time>2013-09-06T07:04:45Z</time>
      </trkpt>
      <trkpt lat="50.655078962445259" lon="14.725360013544559">
        <ele>275.56</ele>
        <time>2013-09-06T07:04:46Z</time>
      </trkpt>
      <trkpt lat="50.654897997155786" lon="14.725553970783949">
        <ele>275.56</ele>
        <time>2013-09-06T07:04:49Z</time>
      </trkpt>
      <trkpt lat="50.654832031577826" lon="14.725580038502812">
        <ele>276.51999999999998</ele>
        <time>2013-09-06T07:04:50Z</time>
      </trkpt>
      <trkpt lat="50.654758019372821" lon="14.725592024624348">
        <ele>277</ele>
        <time>2013-09-06T07:04:51Z</time>
      </trkpt>
      <trkpt lat="50.654674032703042" lon="14.725580038502812">
        <ele>277.48000000000002</ele>
        <time>2013-09-06T07:04:52Z</time>
      </trkpt>
      <trkpt lat="50.654591973870993" lon="14.725564029067755">
        <ele>277</ele>
        <time>2013-09-06T07:04:53Z</time>
      </trkpt>
      <trkpt lat="50.654433974996209" lon="14.725578026846051">
        <ele>277</ele>
        <time>2013-09-06T07:04:55Z</time>
      </trkpt>
      <trkpt lat="50.654344037175179" lon="14.72559898160398">
        <ele>277</ele>
        <time>2013-09-06T07:04:56Z</time>
      </trkpt>
      <trkpt lat="50.653859982267022" lon="14.725828981027007">
        <ele>276.04000000000002</ele>
        <time>2013-09-06T07:05:01Z</time>
      </trkpt>
      <trkpt lat="50.65295398235321" lon="14.726677983999252">
        <ele>279.88</ele>
        <time>2013-09-06T07:05:12Z</time>
      </trkpt>
      <trkpt lat="50.652880975976586" lon="14.726732969284058">
        <ele>280.36000000000001</ele>
        <time>2013-09-06T07:05:13Z</time>
      </trkpt>
      <trkpt lat="50.652811992913485" lon="14.726786026731133">
        <ele>280.83999999999997</ele>
        <time>2013-09-06T07:05:14Z</time>
      </trkpt>
      <trkpt lat="50.652585010975599" lon="14.726916030049324">
        <ele>277.95999999999998</ele>
        <time>2013-09-06T07:05:18Z</time>
      </trkpt>
      <trkpt lat="50.652542011812329" lon="14.726948970928788">
        <ele>277.95999999999998</ele>
        <time>2013-09-06T07:05:19Z</time>
      </trkpt>
      <trkpt lat="50.652432041242719" lon="14.727002028375864">
        <ele>277.95999999999998</ele>
        <time>2013-09-06T07:05:21Z</time>
      </trkpt>
      <trkpt lat="50.652365991845727" lon="14.726998005062342">
        <ele>278.92000000000002</ele>
        <time>2013-09-06T07:05:22Z</time>
      </trkpt>
      <trkpt lat="50.652303965762258" lon="14.726967997848988">
        <ele>279.88</ele>
        <time>2013-09-06T07:05:23Z</time>
      </trkpt>
      <trkpt lat="50.652230037376285" lon="14.726900020614266">
        <ele>281.31999999999999</ele>
        <time>2013-09-06T07:05:24Z</time>
      </trkpt>
      <trkpt lat="50.652140015736222" lon="14.726807987317443">
        <ele>282.27999999999997</ele>
        <time>2013-09-06T07:05:25Z</time>
      </trkpt>
      <trkpt lat="50.651498967781663" lon="14.726185966283083">
        <ele>285.17000000000002</ele>
        <time>2013-09-06T07:05:31Z</time>
      </trkpt>
      <trkpt lat="50.651401989161968" lon="14.72604900598526">
        <ele>285.64999999999998</ele>
        <time>2013-09-06T07:05:32Z</time>
      </trkpt>
      <trkpt lat="50.651310039684176" lon="14.725894024595618">
        <ele>286.61000000000001</ele>
        <time>2013-09-06T07:05:33Z</time>
      </trkpt>
      <trkpt lat="50.651041986420751" lon="14.725364036858082">
        <ele>289.49000000000001</ele>
        <time>2013-09-06T07:05:36Z</time>
      </trkpt>
      <trkpt lat="50.650931010022759" lon="14.725227998569608">
        <ele>289.97000000000003</ele>
        <time>2013-09-06T07:05:37Z</time>
      </trkpt>
      <trkpt lat="50.650809975340962" lon="14.725118027999997">
        <ele>290.45999999999998</ele>
        <time>2013-09-06T07:05:38Z</time>
      </trkpt>
      <trkpt lat="50.649755029007792" lon="14.723969036713243">
        <ele>293.33999999999997</ele>
        <time>2013-09-06T07:05:46Z</time>
      </trkpt>
      <trkpt lat="50.648187026381493" lon="14.722349988296628">
        <ele>295.74000000000001</ele>
        <time>2013-09-06T07:05:56Z</time>
      </trkpt>
      <trkpt lat="50.645814025774598" lon="14.719741959124804">
        <ele>294.77999999999997</ele>
        <time>2013-09-06T07:06:11Z</time>
      </trkpt>
      <trkpt lat="50.645142970606685" lon="14.718654993921518">
        <ele>293.33999999999997</ele>
        <time>2013-09-06T07:06:16Z</time>
      </trkpt>
      <trkpt lat="50.644997963681817" lon="14.718503030017018">
        <ele>292.86000000000001</ele>
        <time>2013-09-06T07:06:17Z</time>
      </trkpt>
      <trkpt lat="50.644837031140924" lon="14.718389958143234">
        <ele>292.38</ele>
        <time>2013-09-06T07:06:18Z</time>
      </trkpt>
      <trkpt lat="50.644660005345941" lon="14.718308988958597">
        <ele>291.89999999999998</ele>
        <time>2013-09-06T07:06:19Z</time>
      </trkpt>
      <trkpt lat="50.644478034228086" lon="14.718242017552257">
        <ele>290.94</ele>
        <time>2013-09-06T07:06:20Z</time>
      </trkpt>
      <trkpt lat="50.642564026638865" lon="14.717228980734944">
        <ele>289.97000000000003</ele>
        <time>2013-09-06T07:06:30Z</time>
      </trkpt>
      <trkpt lat="50.641022007912397" lon="14.716528002172709">
        <ele>293.81999999999999</ele>
        <time>2013-09-06T07:06:38Z</time>
      </trkpt>
      <trkpt lat="50.640160012990236" lon="14.716313006356359">
        <ele>293.33999999999997</ele>
        <time>2013-09-06T07:06:43Z</time>
      </trkpt>
      <trkpt lat="50.639989022165537" lon="14.716341001912951">
        <ele>292.38</ele>
        <time>2013-09-06T07:06:44Z</time>
      </trkpt>
      <trkpt lat="50.63982498832047" lon="14.71640202216804">
        <ele>291.42000000000002</ele>
        <time>2013-09-06T07:06:45Z</time>
      </trkpt>
      <trkpt lat="50.638246005401015" lon="14.717035023495555">
        <ele>285.64999999999998</ele>
        <time>2013-09-06T07:06:54Z</time>
      </trkpt>
      <trkpt lat="50.636711027473211" lon="14.717646986246109">
        <ele>279.88</ele>
        <time>2013-09-06T07:07:04Z</time>
      </trkpt>
      <trkpt lat="50.635363971814513" lon="14.717801967635751">
        <ele>277.48000000000002</ele>
        <time>2013-09-06T07:07:14Z</time>
      </trkpt>
      <trkpt lat="50.634005013853312" lon="14.717315984889865">
        <ele>274.58999999999997</ele>
        <time>2013-09-06T07:07:24Z</time>
      </trkpt>
      <trkpt lat="50.632635997608304" lon="14.716046964749694">
        <ele>273.14999999999998</ele>
        <time>2013-09-06T07:07:35Z</time>
      </trkpt>
      <trkpt lat="50.631066989153624" lon="14.714573007076979">
        <ele>275.56</ele>
        <time>2013-09-06T07:07:46Z</time>
      </trkpt>
      <trkpt lat="50.629721023142338" lon="14.713626019656658">
        <ele>277</ele>
        <time>2013-09-06T07:07:56Z</time>
      </trkpt>
      <trkpt lat="50.628448985517025" lon="14.713043980300426">
        <ele>278.92000000000002</ele>
        <time>2013-09-06T07:08:04Z</time>
      </trkpt>
      <trkpt lat="50.625736014917493" lon="14.712117025628686">
        <ele>283.25</ele>
        <time>2013-09-06T07:08:18Z</time>
      </trkpt>
      <trkpt lat="50.622398005798459" lon="14.711084039881825">
        <ele>277</ele>
        <time>2013-09-06T07:08:35Z</time>
      </trkpt>
      <trkpt lat="50.621093027293682" lon="14.710552040487528">
        <ele>273.14999999999998</ele>
        <time>2013-09-06T07:08:42Z</time>
      </trkpt>
      <trkpt lat="50.620041014626622" lon="14.709727009758353">
        <ele>272.67000000000002</ele>
        <time>2013-09-06T07:08:50Z</time>
      </trkpt>
      <trkpt lat="50.619240961968899" lon="14.709089985117316">
        <ele>271.23000000000002</ele>
        <time>2013-09-06T07:08:57Z</time>
      </trkpt>
      <trkpt lat="50.619145995005965" lon="14.708954030647874">
        <ele>271.23000000000002</ele>
        <time>2013-09-06T07:08:58Z</time>
      </trkpt>
      <trkpt lat="50.619078017771244" lon="14.708785973489285">
        <ele>271.70999999999998</ele>
        <time>2013-09-06T07:08:59Z</time>
      </trkpt>
      <trkpt lat="50.619030995294452" lon="14.708601990714669">
        <ele>272.19</ele>
        <time>2013-09-06T07:09:00Z</time>
      </trkpt>
      <trkpt lat="50.618982966989279" lon="14.708418007940054">
        <ele>271.70999999999998</ele>
        <time>2013-09-06T07:09:01Z</time>
      </trkpt>
      <trkpt lat="50.618868973106146" lon="14.708074014633894">
        <ele>271.70999999999998</ele>
        <time>2013-09-06T07:09:03Z</time>
      </trkpt>
      <trkpt lat="50.618794960901141" lon="14.707912998273969">
        <ele>271.23000000000002</ele>
        <time>2013-09-06T07:09:04Z</time>
      </trkpt>
      <trkpt lat="50.618717009201646" lon="14.707760028541088">
        <ele>271.23000000000002</ele>
        <time>2013-09-06T07:09:05Z</time>
      </trkpt>
      <trkpt lat="50.618119966238737" lon="14.706773981451988">
        <ele>272.67000000000002</ele>
        <time>2013-09-06T07:09:12Z</time>
      </trkpt>
      <trkpt lat="50.61801603063941" lon="14.706674991175532">
        <ele>273.14999999999998</ele>
        <time>2013-09-06T07:09:13Z</time>
      </trkpt>
      <trkpt lat="50.617900025099516" lon="14.706611037254333">
        <ele>273.14999999999998</ele>
        <time>2013-09-06T07:09:14Z</time>
      </trkpt>
      <trkpt lat="50.61778100207448" lon="14.706578012555838">
        <ele>274.11000000000001</ele>
        <time>2013-09-06T07:09:15Z</time>
      </trkpt>
      <trkpt lat="50.617657033726573" lon="14.706568960100412">
        <ele>274.11000000000001</ele>
        <time>2013-09-06T07:09:16Z</time>
      </trkpt>
      <trkpt lat="50.617527030408382" lon="14.706583963707089">
        <ele>274.58999999999997</ele>
        <time>2013-09-06T07:09:17Z</time>
      </trkpt>
      <trkpt lat="50.617403984069824" lon="14.706621011719108">
        <ele>275.06999999999999</ele>
        <time>2013-09-06T07:09:18Z</time>
      </trkpt>
      <trkpt lat="50.61728697270155" lon="14.706689994782209">
        <ele>274.11000000000001</ele>
        <time>2013-09-06T07:09:19Z</time>
      </trkpt>
      <trkpt lat="50.617168033495545" lon="14.706760989502072">
        <ele>274.11000000000001</ele>
        <time>2013-09-06T07:09:20Z</time>
      </trkpt>
      <trkpt lat="50.617043981328607" lon="14.706817986443639">
        <ele>274.11000000000001</ele>
        <time>2013-09-06T07:09:21Z</time>
      </trkpt>
      <trkpt lat="50.6169200129807" lon="14.706855034455657">
        <ele>273.14999999999998</ele>
        <time>2013-09-06T07:09:22Z</time>
      </trkpt>
      <trkpt lat="50.616783974692225" lon="14.706867020577192">
        <ele>272.67000000000002</ele>
        <time>2013-09-06T07:09:23Z</time>
      </trkpt>
      <trkpt lat="50.616368986666203" lon="14.706971039995551">
        <ele>272.19</ele>
        <time>2013-09-06T07:09:26Z</time>
      </trkpt>
      <trkpt lat="50.615265006199479" lon="14.707686016336083">
        <ele>275.56</ele>
        <time>2013-09-06T07:09:34Z</time>
      </trkpt>
      <trkpt lat="50.613852990791202" lon="14.708584975451231">
        <ele>277.95999999999998</ele>
        <time>2013-09-06T07:09:42Z</time>
      </trkpt>
      <trkpt lat="50.612092958763242" lon="14.709403971210122">
        <ele>285.17000000000002</ele>
        <time>2013-09-06T07:09:51Z</time>
      </trkpt>
      <trkpt lat="50.610311971977353" lon="14.710215004161">
        <ele>289.00999999999999</ele>
        <time>2013-09-06T07:10:00Z</time>
      </trkpt>
      <trkpt lat="50.610155984759331" lon="14.710377026349306">
        <ele>289.49000000000001</ele>
        <time>2013-09-06T07:10:01Z</time>
      </trkpt>
      <trkpt lat="50.608665011823177" lon="14.712067991495132">
        <ele>285.17000000000002</ele>
        <time>2013-09-06T07:10:10Z</time>
      </trkpt>
      <trkpt lat="50.605592038482428" lon="14.71526300534606">
        <ele>278.92000000000002</ele>
        <time>2013-09-06T07:10:28Z</time>
      </trkpt>
      <trkpt lat="50.603244015946984" lon="14.717597030103207">
        <ele>277.95999999999998</ele>
        <time>2013-09-06T07:10:42Z</time>
      </trkpt>
      <trkpt lat="50.601304024457932" lon="14.719054978340864">
        <ele>279.88</ele>
        <time>2013-09-06T07:10:53Z</time>
      </trkpt>
      <trkpt lat="50.599468974396586" lon="14.720505969598889">
        <ele>283.73000000000002</ele>
        <time>2013-09-06T07:11:03Z</time>
      </trkpt>
      <trkpt lat="50.597918992862105" lon="14.721927037462592">
        <ele>288.05000000000001</ele>
        <time>2013-09-06T07:11:12Z</time>
      </trkpt>
      <trkpt lat="50.596481999382377" lon="14.723221035674214">
        <ele>290.45999999999998</ele>
        <time>2013-09-06T07:11:21Z</time>
      </trkpt>
      <trkpt lat="50.595450019463897" lon="14.723891001194715">
        <ele>292.86000000000001</ele>
        <time>2013-09-06T07:11:28Z</time>
      </trkpt>
      <trkpt lat="50.594342015683651" lon="14.72398404031992">
        <ele>291.42000000000002</ele>
        <time>2013-09-06T07:11:34Z</time>
      </trkpt>
      <trkpt lat="50.592951960861683" lon="14.723915979266167">
        <ele>287.08999999999997</ele>
        <time>2013-09-06T07:11:40Z</time>
      </trkpt>
      <trkpt lat="50.591058991849422" lon="14.724363991990685">
        <ele>282.27999999999997</ele>
        <time>2013-09-06T07:11:49Z</time>
      </trkpt>
      <trkpt lat="50.589551003649831" lon="14.725425979122519">
        <ele>282.76999999999998</ele>
        <time>2013-09-06T07:11:57Z</time>
      </trkpt>
      <trkpt lat="50.588084002956748" lon="14.727060031145811">
        <ele>283.25</ele>
        <time>2013-09-06T07:12:06Z</time>
      </trkpt>
      <trkpt lat="50.58761696331203" lon="14.72744601778686">
        <ele>282.27999999999997</ele>
        <time>2013-09-06T07:12:09Z</time>
      </trkpt>
      <trkpt lat="50.587452007457614" lon="14.727491028606892">
        <ele>282.27999999999997</ele>
        <time>2013-09-06T07:12:10Z</time>
      </trkpt>
      <trkpt lat="50.587284034118056" lon="14.727503014728427">
        <ele>282.76999999999998</ele>
        <time>2013-09-06T07:12:11Z</time>
      </trkpt>
      <trkpt lat="50.58709803968668" lon="14.727483987808228">
        <ele>282.76999999999998</ele>
        <time>2013-09-06T07:12:12Z</time>
      </trkpt>
      <trkpt lat="50.586925037205219" lon="14.727453980594873">
        <ele>282.76999999999998</ele>
        <time>2013-09-06T07:12:13Z</time>
      </trkpt>
      <trkpt lat="50.586738036945462" lon="14.727401006966829">
        <ele>282.76999999999998</ele>
        <time>2013-09-06T07:12:14Z</time>
      </trkpt>
      <trkpt lat="50.586564028635621" lon="14.727323977276683">
        <ele>282.76999999999998</ele>
        <time>2013-09-06T07:12:15Z</time>
      </trkpt>
      <trkpt lat="50.586407035589218" lon="14.727208977565169">
        <ele>282.27999999999997</ele>
        <time>2013-09-06T07:12:16Z</time>
      </trkpt>
      <trkpt lat="50.586255993694067" lon="14.727060031145811">
        <ele>281.80000000000001</ele>
        <time>2013-09-06T07:12:17Z</time>
      </trkpt>
      <trkpt lat="50.586131019517779" lon="14.726889040321112">
        <ele>281.80000000000001</ele>
        <time>2013-09-06T07:12:18Z</time>
      </trkpt>
      <trkpt lat="50.586028005927801" lon="14.726676978170872">
        <ele>280.83999999999997</ele>
        <time>2013-09-06T07:12:19Z</time>
      </trkpt>
      <trkpt lat="50.585951982066035" lon="14.726443039253354">
        <ele>280.36000000000001</ele>
        <time>2013-09-06T07:12:20Z</time>
      </trkpt>
      <trkpt lat="50.58591702952981" lon="14.726125029847026">
        <ele>277.48000000000002</ele>
        <time>2013-09-06T07:12:21Z</time>
      </trkpt>
      <trkpt lat="50.585887022316456" lon="14.725835015997291">
        <ele>276.04000000000002</ele>
        <time>2013-09-06T07:12:22Z</time>
      </trkpt>
      <trkpt lat="50.585862966254354" lon="14.725558999925852">
        <ele>275.56</ele>
        <time>2013-09-06T07:12:23Z</time>
      </trkpt>
      <trkpt lat="50.585852991789579" lon="14.725263034924865">
        <ele>276.04000000000002</ele>
        <time>2013-09-06T07:12:24Z</time>
      </trkpt>
      <trkpt lat="50.585952987894416" lon="14.722742009907961">
        <ele>271.23000000000002</ele>
        <time>2013-09-06T07:12:32Z</time>
      </trkpt>
      <trkpt lat="50.586329000070691" lon="14.720593979582191">
        <ele>271.70999999999998</ele>
        <time>2013-09-06T07:12:39Z</time>
      </trkpt>
      <trkpt lat="50.586416004225612" lon="14.720306983217597">
        <ele>270.75</ele>
        <time>2013-09-06T07:12:40Z</time>
      </trkpt>
      <trkpt lat="50.587169034406543" lon="14.718054011464119">
        <ele>273.63</ele>
        <time>2013-09-06T07:12:48Z</time>
      </trkpt>
      <trkpt lat="50.587563989683986" lon="14.716942990198731">
        <ele>277</ele>
        <time>2013-09-06T07:12:52Z</time>
      </trkpt>
      <trkpt lat="50.58761696331203" lon="14.716649036854506">
        <ele>277.48000000000002</ele>
        <time>2013-09-06T07:12:53Z</time>
      </trkpt>
      <trkpt lat="50.587648982182145" lon="14.716347036883235">
        <ele>277.95999999999998</ele>
        <time>2013-09-06T07:12:54Z</time>
      </trkpt>
      <trkpt lat="50.587663985788822" lon="14.716030033305287">
        <ele>278.92000000000002</ele>
        <time>2013-09-06T07:12:55Z</time>
      </trkpt>
      <trkpt lat="50.5876599624753" lon="14.715717975050211">
        <ele>279.39999999999998</ele>
        <time>2013-09-06T07:12:56Z</time>
      </trkpt>
      <trkpt lat="50.587643031030893" lon="14.71539200283587">
        <ele>279.39999999999998</ele>
        <time>2013-09-06T07:12:57Z</time>
      </trkpt>
      <trkpt lat="50.587564995512366" lon="14.711775965988636">
        <ele>279.88</ele>
        <time>2013-09-06T07:13:08Z</time>
      </trkpt>
      <trkpt lat="50.587731041014194" lon="14.708452960476279">
        <ele>279.39999999999998</ele>
        <time>2013-09-06T07:13:18Z</time>
      </trkpt>
      <trkpt lat="50.587835982441902" lon="14.705498004332185">
        <ele>273.14999999999998</ele>
        <time>2013-09-06T07:13:27Z</time>
      </trkpt>
      <trkpt lat="50.587716037407517" lon="14.70447801053524">
        <ele>273.14999999999998</ele>
        <time>2013-09-06T07:13:30Z</time>
      </trkpt>
      <trkpt lat="50.586891006678343" lon="14.701224993914366">
        <ele>277.48000000000002</ele>
        <time>2013-09-06T07:13:40Z</time>
      </trkpt>
      <trkpt lat="50.586009984835982" lon="14.698491990566254">
        <ele>284.69</ele>
        <time>2013-09-06T07:13:49Z</time>
      </trkpt>
      <trkpt lat="50.584963001310825" lon="14.695835011079907">
        <ele>298.63</ele>
        <time>2013-09-06T07:13:58Z</time>
      </trkpt>
      <trkpt lat="50.584608027711511" lon="14.695005035027862">
        <ele>297.67000000000002</ele>
        <time>2013-09-06T07:14:01Z</time>
      </trkpt>
      <trkpt lat="50.584472995251417" lon="14.69476799480617">
        <ele>297.67000000000002</ele>
        <time>2013-09-06T07:14:02Z</time>
      </trkpt>
      <trkpt lat="50.584314996376634" lon="14.694547969847918">
        <ele>295.74000000000001</ele>
        <time>2013-09-06T07:14:03Z</time>
      </trkpt>
      <trkpt lat="50.583575963973999" lon="14.693845985457301">
        <ele>293.33999999999997</ele>
        <time>2013-09-06T07:14:07Z</time>
      </trkpt>
      <trkpt lat="50.583357028663158" lon="14.693738026544452">
        <ele>292.86000000000001</ele>
        <time>2013-09-06T07:14:08Z</time>
      </trkpt>
      <trkpt lat="50.583159970119596" lon="14.693624032661319">
        <ele>293.81999999999999</ele>
        <time>2013-09-06T07:14:09Z</time>
      </trkpt>
      <trkpt lat="50.582947991788387" lon="14.693543985486031">
        <ele>293.33999999999997</ele>
        <time>2013-09-06T07:14:10Z</time>
      </trkpt>
      <trkpt lat="50.582729978486896" lon="14.693492017686367">
        <ele>292.86000000000001</ele>
        <time>2013-09-06T07:14:11Z</time>
      </trkpt>
      <trkpt lat="50.582509031519294" lon="14.693467961624265">
        <ele>292.86000000000001</ele>
        <time>2013-09-06T07:14:12Z</time>
      </trkpt>
      <trkpt lat="50.582289006561041" lon="14.693463016301394">
        <ele>292.86000000000001</ele>
        <time>2013-09-06T07:14:13Z</time>
      </trkpt>
      <trkpt lat="50.582079039886594" lon="14.693481959402561">
        <ele>293.33999999999997</ele>
        <time>2013-09-06T07:14:14Z</time>
      </trkpt>
      <trkpt lat="50.581875024363399" lon="14.693527976050973">
        <ele>294.30000000000001</ele>
        <time>2013-09-06T07:14:15Z</time>
      </trkpt>
      <trkpt lat="50.581675032153726" lon="14.69358597882092">
        <ele>295.25999999999999</ele>
        <time>2013-09-06T07:14:16Z</time>
      </trkpt>
      <trkpt lat="50.580166038125753" lon="14.694012030959129">
        <ele>289.97000000000003</ele>
        <time>2013-09-06T07:14:23Z</time>
      </trkpt>
      <trkpt lat="50.57992497459054" lon="14.693984035402536">
        <ele>288.52999999999997</ele>
        <time>2013-09-06T07:14:24Z</time>
      </trkpt>
      <trkpt lat="50.579708972945809" lon="14.693913962692022">
        <ele>288.05000000000001</ele>
        <time>2013-09-06T07:14:25Z</time>
      </trkpt>
      <trkpt lat="50.578858964145184" lon="14.693698966875672">
        <ele>284.69</ele>
        <time>2013-09-06T07:14:29Z</time>
      </trkpt>
      <trkpt lat="50.578656960278749" lon="14.693723022937775">
        <ele>284.20999999999998</ele>
        <time>2013-09-06T07:14:30Z</time>
      </trkpt>
      <trkpt lat="50.578455040231347" lon="14.693779014050961">
        <ele>284.20999999999998</ele>
        <time>2013-09-06T07:14:31Z</time>
      </trkpt>
      <trkpt lat="50.578260999172926" lon="14.693860989063978">
        <ele>284.20999999999998</ele>
        <time>2013-09-06T07:14:32Z</time>
      </trkpt>
      <trkpt lat="50.578077016398311" lon="14.693942964076996">
        <ele>283.25</ele>
        <time>2013-09-06T07:14:33Z</time>
      </trkpt>
      <trkpt lat="50.577698992565274" lon="14.694052012637258">
        <ele>281.31999999999999</ele>
        <time>2013-09-06T07:14:35Z</time>
      </trkpt>
      <trkpt lat="50.577509980648756" lon="14.69405704177916">
        <ele>280.36000000000001</ele>
        <time>2013-09-06T07:14:36Z</time>
      </trkpt>
      <trkpt lat="50.57730495929718" lon="14.694027034565806">
        <ele>278.92000000000002</ele>
        <time>2013-09-06T07:14:37Z</time>
      </trkpt>
      <trkpt lat="50.577114019542933" lon="14.693971965461969">
        <ele>278.92000000000002</ele>
        <time>2013-09-06T07:14:38Z</time>
      </trkpt>
      <trkpt lat="50.576930036768317" lon="14.693868029862642">
        <ele>278.44</ele>
        <time>2013-09-06T07:14:39Z</time>
      </trkpt>
      <trkpt lat="50.576757034286857" lon="14.693745989352465">
        <ele>277.48000000000002</ele>
        <time>2013-09-06T07:14:40Z</time>
      </trkpt>
      <trkpt lat="50.576588977128267" lon="14.693601988255978">
        <ele>277.48000000000002</ele>
        <time>2013-09-06T07:14:41Z</time>
      </trkpt>
      <trkpt lat="50.575364967808127" lon="14.692268008366227">
        <ele>277.95999999999998</ele>
        <time>2013-09-06T07:14:49Z</time>
      </trkpt>
      <trkpt lat="50.573627986013889" lon="14.690438993275166">
        <ele>279.88</ele>
        <time>2013-09-06T07:15:00Z</time>
      </trkpt>
      <trkpt lat="50.572518976405263" lon="14.688699999824166">
        <ele>275.06999999999999</ele>
        <time>2013-09-06T07:15:08Z</time>
      </trkpt>
      <trkpt lat="50.571979014202952" lon="14.686681972816586">
        <ele>273.63</ele>
        <time>2013-09-06T07:15:15Z</time>
      </trkpt>
      <trkpt lat="50.571880023926497" lon="14.684493960812688">
        <ele>273.63</ele>
        <time>2013-09-06T07:15:22Z</time>
      </trkpt>
      <trkpt lat="50.571655975654721" lon="14.681770009920001">
        <ele>274.11000000000001</ele>
        <time>2013-09-06T07:15:31Z</time>
      </trkpt>
      <trkpt lat="50.571131017059088" lon="14.679295001551509">
        <ele>275.56</ele>
        <time>2013-09-06T07:15:40Z</time>
      </trkpt>
      <trkpt lat="50.570996990427375" lon="14.679070031270385">
        <ele>275.56</ele>
        <time>2013-09-06T07:15:41Z</time>
      </trkpt>
      <trkpt lat="50.57085600681603" lon="14.678874984383583">
        <ele>276.04000000000002</ele>
        <time>2013-09-06T07:15:42Z</time>
      </trkpt>
      <trkpt lat="50.569555973634124" lon="14.677508985623717">
        <ele>278.92000000000002</ele>
        <time>2013-09-06T07:15:50Z</time>
      </trkpt>
      <trkpt lat="50.569426976144314" lon="14.677317962050438">
        <ele>279.39999999999998</ele>
        <time>2013-09-06T07:15:51Z</time>
      </trkpt>
      <trkpt lat="50.569314993917942" lon="14.677114030346274">
        <ele>278.92000000000002</ele>
        <time>2013-09-06T07:15:52Z</time>
      </trkpt>
      <trkpt lat="50.569211980327964" lon="14.676885958760977">
        <ele>279.39999999999998</ele>
        <time>2013-09-06T07:15:53Z</time>
      </trkpt>
      <trkpt lat="50.569121036678553" lon="14.676637016236782">
        <ele>278.92000000000002</ele>
        <time>2013-09-06T07:15:54Z</time>
      </trkpt>
      <trkpt lat="50.569032020866871" lon="14.676382038742304">
        <ele>278.44</ele>
        <time>2013-09-06T07:15:55Z</time>
      </trkpt>
      <trkpt lat="50.568069024011493" lon="14.673565970733762">
        <ele>276.04000000000002</ele>
        <time>2013-09-06T07:16:05Z</time>
      </trkpt>
      <trkpt lat="50.567019023001194" lon="14.670860040932894">
        <ele>281.80000000000001</ele>
        <time>2013-09-06T07:16:15Z</time>
      </trkpt>
      <trkpt lat="50.566342016682029" lon="14.669422963634133">
        <ele>281.80000000000001</ele>
        <time>2013-09-06T07:16:23Z</time>
      </trkpt>
      <trkpt lat="50.565725024789572" lon="14.668122008442879">
        <ele>284.20999999999998</ele>
        <time>2013-09-06T07:16:33Z</time>
      </trkpt>
      <trkpt lat="50.565489996224642" lon="14.66741600073874">
        <ele>285.64999999999998</ele>
        <time>2013-09-06T07:16:37Z</time>
      </trkpt>
      <trkpt lat="50.565450014546514" lon="14.667230006307364">
        <ele>285.17000000000002</ele>
        <time>2013-09-06T07:16:38Z</time>
      </trkpt>
      <trkpt lat="50.565436016768217" lon="14.66702900826931">
        <ele>284.20999999999998</ele>
        <time>2013-09-06T07:16:39Z</time>
      </trkpt>
      <trkpt lat="50.565442973747849" lon="14.666837984696031">
        <ele>284.20999999999998</ele>
        <time>2013-09-06T07:16:40Z</time>
      </trkpt>
      <trkpt lat="50.565460994839668" lon="14.66664201579988">
        <ele>283.25</ele>
        <time>2013-09-06T07:16:41Z</time>
      </trkpt>
      <trkpt lat="50.565492007881403" lon="14.666458033025265">
        <ele>282.27999999999997</ele>
        <time>2013-09-06T07:16:42Z</time>
      </trkpt>
      <trkpt lat="50.565903978422284" lon="14.664272032678127">
        <ele>277</ele>
        <time>2013-09-06T07:16:53Z</time>
      </trkpt>
      <trkpt lat="50.566286025568843" lon="14.662633035331964">
        <ele>273.14999999999998</ele>
        <time>2013-09-06T07:17:01Z</time>
      </trkpt>
      <trkpt lat="50.56707601994276" lon="14.661115994676948">
        <ele>267.86000000000001</ele>
        <time>2013-09-06T07:17:10Z</time>
      </trkpt>
      <trkpt lat="50.567372990772128" lon="14.660515012219548">
        <ele>267.38</ele>
        <time>2013-09-06T07:17:14Z</time>
      </trkpt>
      <trkpt lat="50.56744297966361" lon="14.660359025001526">
        <ele>267.86000000000001</ele>
        <time>2013-09-06T07:17:15Z</time>
      </trkpt>
      <trkpt lat="50.567466029897332" lon="14.660157021135092">
        <ele>267.86000000000001</ele>
        <time>2013-09-06T07:17:16Z</time>
      </trkpt>
      <trkpt lat="50.567482961341739" lon="14.659962980076671">
        <ele>267.38</ele>
        <time>2013-09-06T07:17:17Z</time>
      </trkpt>
      <trkpt lat="50.567594021558762" lon="14.658097000792623">
        <ele>269.31</ele>
        <time>2013-09-06T07:17:27Z</time>
      </trkpt>
      <trkpt lat="50.567741962149739" lon="14.655066020786762">
        <ele>269.79000000000002</ele>
        <time>2013-09-06T07:17:47Z</time>
      </trkpt>
      <trkpt lat="50.567747997120023" lon="14.654939034953713">
        <ele>269.31</ele>
        <time>2013-09-06T07:17:48Z</time>
      </trkpt>
      <trkpt lat="50.567739028483629" lon="14.654810959473252">
        <ele>269.31</ele>
        <time>2013-09-06T07:17:49Z</time>
      </trkpt>
      <trkpt lat="50.567725030705333" lon="14.654690008610487">
        <ele>269.79000000000002</ele>
        <time>2013-09-06T07:17:50Z</time>
      </trkpt>
      <trkpt lat="50.567691000178456" lon="14.654569979757071">
        <ele>270.75</ele>
        <time>2013-09-06T07:17:51Z</time>
      </trkpt>
      <trkpt lat="50.567627968266606" lon="14.654475012794137">
        <ele>269.79000000000002</ele>
        <time>2013-09-06T07:17:52Z</time>
      </trkpt>
      <trkpt lat="50.567564014345407" lon="14.654423967003822">
        <ele>269.31</ele>
        <time>2013-09-06T07:17:53Z</time>
      </trkpt>
      <trkpt lat="50.567500982433558" lon="14.654397983103991">
        <ele>268.82999999999998</ele>
        <time>2013-09-06T07:17:54Z</time>
      </trkpt>
      <trkpt lat="50.567427976056933" lon="14.654394965618849">
        <ele>269.79000000000002</ele>
        <time>2013-09-06T07:17:55Z</time>
      </trkpt>
      <trkpt lat="50.567348012700677" lon="14.654406029731035">
        <ele>269.79000000000002</ele>
        <time>2013-09-06T07:17:56Z</time>
      </trkpt>
      <trkpt lat="50.566930007189512" lon="14.654461015015841">
        <ele>270.75</ele>
        <time>2013-09-06T07:18:01Z</time>
      </trkpt>
      <trkpt lat="50.566260041669011" lon="14.654449028894305">
        <ele>272.19</ele>
        <time>2013-09-06T07:18:08Z</time>
      </trkpt>
      <trkpt lat="50.566169014200568" lon="14.654410975053906">
        <ele>272.19</ele>
        <time>2013-09-06T07:18:09Z</time>
      </trkpt>
      <trkpt lat="50.566087961196899" lon="14.654363030567765">
        <ele>272.19</ele>
        <time>2013-09-06T07:18:10Z</time>
      </trkpt>
      <trkpt lat="50.565672973170877" lon="14.654051978141069">
        <ele>274.11000000000001</ele>
        <time>2013-09-06T07:18:15Z</time>
      </trkpt>
      <trkpt lat="50.565387988463044" lon="14.653797000646591">
        <ele>273.14999999999998</ele>
        <time>2013-09-06T07:18:18Z</time>
      </trkpt>
      <trkpt lat="50.565286986529827" lon="14.653746038675308">
        <ele>273.14999999999998</ele>
        <time>2013-09-06T07:18:19Z</time>
      </trkpt>
      <trkpt lat="50.565182967111468" lon="14.653716031461954">
        <ele>273.14999999999998</ele>
        <time>2013-09-06T07:18:20Z</time>
      </trkpt>
      <trkpt lat="50.565084982663393" lon="14.653704967349768">
        <ele>273.63</ele>
        <time>2013-09-06T07:18:21Z</time>
      </trkpt>
      <trkpt lat="50.564989009872079" lon="14.653719970956445">
        <ele>273.63</ele>
        <time>2013-09-06T07:18:22Z</time>
      </trkpt>
      <trkpt lat="50.564893959090114" lon="14.653790965676308">
        <ele>275.56</ele>
        <time>2013-09-06T07:18:23Z</time>
      </trkpt>
      <trkpt lat="50.564809972420335" lon="14.653859026730061">
        <ele>276.04000000000002</ele>
        <time>2013-09-06T07:18:24Z</time>
      </trkpt>
      <trkpt lat="50.56473302654922" lon="14.653947036713362">
        <ele>277.95999999999998</ele>
        <time>2013-09-06T07:18:25Z</time>
      </trkpt>
      <trkpt lat="50.564653985202312" lon="14.653999004513025">
        <ele>278.44</ele>
        <time>2013-09-06T07:18:26Z</time>
      </trkpt>
      <trkpt lat="50.564549965783954" lon="14.654011996462941">
        <ele>278.92000000000002</ele>
        <time>2013-09-06T07:18:27Z</time>
      </trkpt>
      <trkpt lat="50.564445024356246" lon="14.654018031433225">
        <ele>278.44</ele>
        <time>2013-09-06T07:18:28Z</time>
      </trkpt>
      <trkpt lat="50.564331030473113" lon="14.653993975371122">
        <ele>278.92000000000002</ele>
        <time>2013-09-06T07:18:29Z</time>
      </trkpt>
      <trkpt lat="50.564226005226374" lon="14.653937984257936">
        <ele>279.39999999999998</ele>
        <time>2013-09-06T07:18:30Z</time>
      </trkpt>
      <trkpt lat="50.564114023000002" lon="14.653875958174467">
        <ele>280.36000000000001</ele>
        <time>2013-09-06T07:18:31Z</time>
      </trkpt>
      <trkpt lat="50.564013021066785" lon="14.653786020353436">
        <ele>281.80000000000001</ele>
        <time>2013-09-06T07:18:32Z</time>
      </trkpt>
      <trkpt lat="50.563933979719877" lon="14.653666997328401">
        <ele>281.80000000000001</ele>
        <time>2013-09-06T07:18:33Z</time>
      </trkpt>
      <trkpt lat="50.563858039677143" lon="14.653539005666971">
        <ele>281.80000000000001</ele>
        <time>2013-09-06T07:18:34Z</time>
      </trkpt>
      <trkpt lat="50.563785033300519" lon="14.653392992913723">
        <ele>282.27999999999997</ele>
        <time>2013-09-06T07:18:35Z</time>
      </trkpt>
      <trkpt lat="50.56372300721705" lon="14.653254020959139">
        <ele>283.25</ele>
        <time>2013-09-06T07:18:36Z</time>
      </trkpt>
      <trkpt lat="50.563675984740257" lon="14.65308696962893">
        <ele>283.25</ele>
        <time>2013-09-06T07:18:37Z</time>
      </trkpt>
      <trkpt lat="50.56363700889051" lon="14.65291396714747">
        <ele>282.76999999999998</ele>
        <time>2013-09-06T07:18:38Z</time>
      </trkpt>
      <trkpt lat="50.563607001677155" lon="14.652736019343138">
        <ele>282.27999999999997</ele>
        <time>2013-09-06T07:18:39Z</time>
      </trkpt>
      <trkpt lat="50.563288992270827" lon="14.651043964549899">
        <ele>284.20999999999998</ele>
        <time>2013-09-06T07:18:49Z</time>
      </trkpt>
      <trkpt lat="50.563040971755981" lon="14.650439964607358">
        <ele>284.69</ele>
        <time>2013-09-06T07:18:56Z</time>
      </trkpt>
      <trkpt lat="50.562981963157654" lon="14.650423033162951">
        <ele>284.69</ele>
        <time>2013-09-06T07:18:57Z</time>
      </trkpt>
      <trkpt lat="50.5629070289433" lon="14.650430995970964">
        <ele>284.69</ele>
        <time>2013-09-06T07:18:58Z</time>
      </trkpt>
      <trkpt lat="50.562766967341304" lon="14.650413980707526">
        <ele>284.69</ele>
        <time>2013-09-06T07:19:00Z</time>
      </trkpt>
      <trkpt lat="50.562711982056499" lon="14.650349020957947">
        <ele>284.69</ele>
        <time>2013-09-06T07:19:01Z</time>
      </trkpt>
      <trkpt lat="50.562000023201108" lon="14.649510998278856">
        <ele>286.61000000000001</ele>
        <time>2013-09-06T07:19:11Z</time>
      </trkpt>
      <trkpt lat="50.561385964974761" lon="14.648454962298274">
        <ele>289.00999999999999</ele>
        <time>2013-09-06T07:19:18Z</time>
      </trkpt>
      <trkpt lat="50.560302017256618" lon="14.645656999200583">
        <ele>296.22000000000003</ele>
        <time>2013-09-06T07:19:31Z</time>
      </trkpt>
      <trkpt lat="50.559315970167518" lon="14.642946040257812">
        <ele>298.63</ele>
        <time>2013-09-06T07:19:42Z</time>
      </trkpt>
      <trkpt lat="50.558428997173905" lon="14.638922978192568">
        <ele>299.58999999999997</ele>
        <time>2013-09-06T07:19:56Z</time>
      </trkpt>
      <trkpt lat="50.558275021612644" lon="14.635440967977047">
        <ele>299.58999999999997</ele>
        <time>2013-09-06T07:20:07Z</time>
      </trkpt>
      <trkpt lat="50.558215007185936" lon="14.635137962177396">
        <ele>299.58999999999997</ele>
        <time>2013-09-06T07:20:08Z</time>
      </trkpt>
      <trkpt lat="50.557280005887151" lon="14.631541036069393">
        <ele>302.94999999999999</ele>
        <time>2013-09-06T07:20:20Z</time>
      </trkpt>
      <trkpt lat="50.5568060092628" lon="14.628450041636825">
        <ele>299.58999999999997</ele>
        <time>2013-09-06T07:20:30Z</time>
      </trkpt>
      <trkpt lat="50.55631298571825" lon="14.626340987160802">
        <ele>294.30000000000001</ele>
        <time>2013-09-06T07:20:37Z</time>
      </trkpt>
      <trkpt lat="50.556292030960321" lon="14.626024989411235">
        <ele>294.30000000000001</ele>
        <time>2013-09-06T07:20:38Z</time>
      </trkpt>
      <trkpt lat="50.556152975186706" lon="14.62281203828752">
        <ele>291.42000000000002</ele>
        <time>2013-09-06T07:20:48Z</time>
      </trkpt>
      <trkpt lat="50.555942002683878" lon="14.620215995237231">
        <ele>291.42000000000002</ele>
        <time>2013-09-06T07:20:57Z</time>
      </trkpt>
      <trkpt lat="50.555671015754342" lon="14.618402989581227">
        <ele>292.86000000000001</ele>
        <time>2013-09-06T07:21:06Z</time>
      </trkpt>
      <trkpt lat="50.555600021034479" lon="14.617821034044027">
        <ele>292.86000000000001</ele>
        <time>2013-09-06T07:21:09Z</time>
      </trkpt>
      <trkpt lat="50.555597003549337" lon="14.61763302795589">
        <ele>292.86000000000001</ele>
        <time>2013-09-06T07:21:10Z</time>
      </trkpt>
      <trkpt lat="50.555617036297917" lon="14.617450973019004">
        <ele>293.33999999999997</ele>
        <time>2013-09-06T07:21:11Z</time>
      </trkpt>
      <trkpt lat="50.555663974955678" lon="14.617285011336207">
        <ele>293.81999999999999</ele>
        <time>2013-09-06T07:21:12Z</time>
      </trkpt>
      <trkpt lat="50.555723989382386" lon="14.61711997166276">
        <ele>294.30000000000001</ele>
        <time>2013-09-06T07:21:13Z</time>
      </trkpt>
      <trkpt lat="50.556194968521595" lon="14.615489020943642">
        <ele>294.77999999999997</ele>
        <time>2013-09-06T07:21:21Z</time>
      </trkpt>
      <trkpt lat="50.556339975446463" lon="14.614715036004782">
        <ele>294.30000000000001</ele>
        <time>2013-09-06T07:21:24Z</time>
      </trkpt>
      <trkpt lat="50.556346010416746" lon="14.614415969699621">
        <ele>293.81999999999999</ele>
        <time>2013-09-06T07:21:25Z</time>
      </trkpt>
      <trkpt lat="50.556336035951972" lon="14.614116987213492">
        <ele>293.81999999999999</ele>
        <time>2013-09-06T07:21:26Z</time>
      </trkpt>
      <trkpt lat="50.556019032374024" lon="14.610580997541547">
        <ele>296.69999999999999</ele>
        <time>2013-09-06T07:21:37Z</time>
      </trkpt>
      <trkpt lat="50.554890995845199" lon="14.605933986604214">
        <ele>300.55000000000001</ele>
        <time>2013-09-06T07:21:51Z</time>
      </trkpt>
      <trkpt lat="50.553953982889652" lon="14.602005975320935">
        <ele>308.72000000000003</ele>
        <time>2013-09-06T07:22:03Z</time>
      </trkpt>
      <trkpt lat="50.553934033960104" lon="14.601664999499917">
        <ele>309.19999999999999</ele>
        <time>2013-09-06T07:22:04Z</time>
      </trkpt>
      <trkpt lat="50.553940990939736" lon="14.601322012022138">
        <ele>309.68000000000001</ele>
        <time>2013-09-06T07:22:05Z</time>
      </trkpt>
      <trkpt lat="50.553965969011188" lon="14.600977012887597">
        <ele>310.16000000000003</ele>
        <time>2013-09-06T07:22:06Z</time>
      </trkpt>
      <trkpt lat="50.554002011194825" lon="14.600633019581437">
        <ele>311.12</ele>
        <time>2013-09-06T07:22:07Z</time>
      </trkpt>
      <trkpt lat="50.554199991747737" lon="14.599328963086009">
        <ele>313.52999999999997</ele>
        <time>2013-09-06T07:22:11Z</time>
      </trkpt>
      <trkpt lat="50.554299987852573" lon="14.599044984206557">
        <ele>314.97000000000003</ele>
        <time>2013-09-06T07:22:12Z</time>
      </trkpt>
      <trkpt lat="50.554412975907326" lon="14.598780032247305">
        <ele>316.41000000000003</ele>
        <time>2013-09-06T07:22:13Z</time>
      </trkpt>
      <trkpt lat="50.555086964741349" lon="14.596831994131207">
        <ele>323.13999999999999</ele>
        <time>2013-09-06T07:22:20Z</time>
      </trkpt>
      <trkpt lat="50.555104985833168" lon="14.59653502330184">
        <ele>324.10000000000002</ele>
        <time>2013-09-06T07:22:21Z</time>
      </trkpt>
      <trkpt lat="50.555095011368394" lon="14.59623796865344">
        <ele>325.06</ele>
        <time>2013-09-06T07:22:22Z</time>
      </trkpt>
      <trkpt lat="50.555058969184756" lon="14.595940997824073">
        <ele>326.01999999999998</ele>
        <time>2013-09-06T07:22:23Z</time>
      </trkpt>
      <trkpt lat="50.554996021091938" lon="14.595645032823086">
        <ele>326.5</ele>
        <time>2013-09-06T07:22:24Z</time>
      </trkpt>
      <trkpt lat="50.554923014715314" lon="14.59535401314497">
        <ele>326.99000000000001</ele>
        <time>2013-09-06T07:22:25Z</time>
      </trkpt>
      <trkpt lat="50.554822012782097" lon="14.595056036487222">
        <ele>326.99000000000001</ele>
        <time>2013-09-06T07:22:26Z</time>
      </trkpt>
      <trkpt lat="50.554664013907313" lon="14.59445396438241">
        <ele>327.47000000000003</ele>
        <time>2013-09-06T07:22:28Z</time>
      </trkpt>
      <trkpt lat="50.554620008915663" lon="14.594154981896281">
        <ele>328.43000000000001</ele>
        <time>2013-09-06T07:22:29Z</time>
      </trkpt>
      <trkpt lat="50.554597964510322" lon="14.593857005238533">
        <ele>328.91000000000003</ele>
        <time>2013-09-06T07:22:30Z</time>
      </trkpt>
      <trkpt lat="50.554609028622508" lon="14.593564979732037">
        <ele>328.91000000000003</ele>
        <time>2013-09-06T07:22:31Z</time>
      </trkpt>
      <trkpt lat="50.554630989208817" lon="14.593254011124372">
        <ele>328.91000000000003</ele>
        <time>2013-09-06T07:22:32Z</time>
      </trkpt>
      <trkpt lat="50.554666025564075" lon="14.592942036688328">
        <ele>329.87</ele>
        <time>2013-09-06T07:22:33Z</time>
      </trkpt>
      <trkpt lat="50.554692009463906" lon="14.592634001746774">
        <ele>330.82999999999998</ele>
        <time>2013-09-06T07:22:34Z</time>
      </trkpt>
      <trkpt lat="50.554685974493623" lon="14.592293025925756">
        <ele>331.79000000000002</ele>
        <time>2013-09-06T07:22:35Z</time>
      </trkpt>
      <trkpt lat="50.554712964221835" lon="14.589368999004364">
        <ele>342.85000000000002</ele>
        <time>2013-09-06T07:22:44Z</time>
      </trkpt>
      <trkpt lat="50.554759986698627" lon="14.589076973497868">
        <ele>343.81</ele>
        <time>2013-09-06T07:22:45Z</time>
      </trkpt>
      <trkpt lat="50.554826036095619" lon="14.588798023760319">
        <ele>344.76999999999998</ele>
        <time>2013-09-06T07:22:46Z</time>
      </trkpt>
      <trkpt lat="50.555085958912969" lon="14.587735030800104">
        <ele>343.81</ele>
        <time>2013-09-06T07:22:50Z</time>
      </trkpt>
      <trkpt lat="50.555113032460213" lon="14.587190039455891">
        <ele>343.32999999999998</ele>
        <time>2013-09-06T07:22:52Z</time>
      </trkpt>
      <trkpt lat="50.555057963356376" lon="14.586069965735078">
        <ele>337.56</ele>
        <time>2013-09-06T07:22:56Z</time>
      </trkpt>
      <trkpt lat="50.555003983899951" lon="14.585799984633923">
        <ele>338.04000000000002</ele>
        <time>2013-09-06T07:22:57Z</time>
      </trkpt>
      <trkpt lat="50.554912034422159" lon="14.585551964119077">
        <ele>337.56</ele>
        <time>2013-09-06T07:22:58Z</time>
      </trkpt>
      <trkpt lat="50.554781025275588" lon="14.585327999666333">
        <ele>337.56</ele>
        <time>2013-09-06T07:22:59Z</time>
      </trkpt>
      <trkpt lat="50.554616991430521" lon="14.585116021335125">
        <ele>339.48000000000002</ele>
        <time>2013-09-06T07:23:00Z</time>
      </trkpt>
      <trkpt lat="50.55446301586926" lon="14.584943018853664">
        <ele>340.92000000000002</ele>
        <time>2013-09-06T07:23:01Z</time>
      </trkpt>
      <trkpt lat="50.554179036989808" lon="14.584600031375885">
        <ele>343.81</ele>
        <time>2013-09-06T07:23:03Z</time>
      </trkpt>
      <trkpt lat="50.554064037278295" lon="14.584411019459367">
        <ele>345.73000000000002</ele>
        <time>2013-09-06T07:23:04Z</time>
      </trkpt>
      <trkpt lat="50.553959012031555" lon="14.584183031693101">
        <ele>346.69</ele>
        <time>2013-09-06T07:23:05Z</time>
      </trkpt>
      <trkpt lat="50.55386203341186" lon="14.583939034491777">
        <ele>346.69</ele>
        <time>2013-09-06T07:23:06Z</time>
      </trkpt>
      <trkpt lat="50.553785003721714" lon="14.583676010370255">
        <ele>346.69</ele>
        <time>2013-09-06T07:23:07Z</time>
      </trkpt>
      <trkpt lat="50.553728006780148" lon="14.583396976813674">
        <ele>347.17000000000002</ele>
        <time>2013-09-06T07:23:08Z</time>
      </trkpt>
      <trkpt lat="50.553685007616878" lon="14.583110986277461">
        <ele>348.13</ele>
        <time>2013-09-06T07:23:09Z</time>
      </trkpt>
      <trkpt lat="50.55364603176713" lon="14.582806974649429">
        <ele>348.13</ele>
        <time>2013-09-06T07:23:10Z</time>
      </trkpt>
      <trkpt lat="50.553548969328403" lon="14.58194799721241">
        <ele>345.73000000000002</ele>
        <time>2013-09-06T07:23:13Z</time>
      </trkpt>
      <trkpt lat="50.55347403511405" lon="14.581686984747648">
        <ele>343.32999999999998</ele>
        <time>2013-09-06T07:23:14Z</time>
      </trkpt>
      <trkpt lat="50.553384013473988" lon="14.581467965617776">
        <ele>341.88999999999999</ele>
        <time>2013-09-06T07:23:15Z</time>
      </trkpt>
      <trkpt lat="50.553260967135429" lon="14.581267973408103">
        <ele>340.92000000000002</ele>
        <time>2013-09-06T07:23:16Z</time>
      </trkpt>
      <trkpt lat="50.553112020716071" lon="14.581089019775391">
        <ele>339.48000000000002</ele>
        <time>2013-09-06T07:23:17Z</time>
      </trkpt>
      <trkpt lat="50.552969025447965" lon="14.580918028950691">
        <ele>337.56</ele>
        <time>2013-09-06T07:23:18Z</time>
      </trkpt>
      <trkpt lat="50.552844973281026" lon="14.58072398789227">
        <ele>337.56</ele>
        <time>2013-09-06T07:23:19Z</time>
      </trkpt>
      <trkpt lat="50.552746988832951" lon="14.580496000126004">
        <ele>337.07999999999998</ele>
        <time>2013-09-06T07:23:20Z</time>
      </trkpt>
      <trkpt lat="50.552655039355159" lon="14.580252002924681">
        <ele>337.56</ele>
        <time>2013-09-06T07:23:21Z</time>
      </trkpt>
      <trkpt lat="50.552596030756831" lon="14.579968024045229">
        <ele>337.07999999999998</ele>
        <time>2013-09-06T07:23:22Z</time>
      </trkpt>
      <trkpt lat="50.552560994401574" lon="14.579672981053591">
        <ele>335.63999999999999</ele>
        <time>2013-09-06T07:23:23Z</time>
      </trkpt>
      <trkpt lat="50.552542973309755" lon="14.579358994960785">
        <ele>335.16000000000003</ele>
        <time>2013-09-06T07:23:24Z</time>
      </trkpt>
      <trkpt lat="50.552545990794897" lon="14.579039979726076">
        <ele>333.70999999999998</ele>
        <time>2013-09-06T07:23:25Z</time>
      </trkpt>
      <trkpt lat="50.5525510199368" lon="14.578718030825257">
        <ele>332.26999999999998</ele>
        <time>2013-09-06T07:23:26Z</time>
      </trkpt>
      <trkpt lat="50.552531993016601" lon="14.578092992305756">
        <ele>330.82999999999998</ele>
        <time>2013-09-06T07:23:28Z</time>
      </trkpt>
      <trkpt lat="50.552447000518441" lon="14.576961016282439">
        <ele>328.43000000000001</ele>
        <time>2013-09-06T07:23:32Z</time>
      </trkpt>
      <trkpt lat="50.552460998296738" lon="14.576698997989297">
        <ele>328.91000000000003</ele>
        <time>2013-09-06T07:23:33Z</time>
      </trkpt>
      <trkpt lat="50.552893001586199" lon="14.574972996488214">
        <ele>329.87</ele>
        <time>2013-09-06T07:23:40Z</time>
      </trkpt>
      <trkpt lat="50.552992997691035" lon="14.574791025370359">
        <ele>329.87</ele>
        <time>2013-09-06T07:23:41Z</time>
      </trkpt>
      <trkpt lat="50.55332500487566" lon="14.57436497323215">
        <ele>331.31</ele>
        <time>2013-09-06T07:23:44Z</time>
      </trkpt>
      <trkpt lat="50.553437992930412" lon="14.574269000440836">
        <ele>331.79000000000002</ele>
        <time>2013-09-06T07:23:45Z</time>
      </trkpt>
      <trkpt lat="50.553555004298687" lon="14.574185013771057">
        <ele>331.79000000000002</ele>
        <time>2013-09-06T07:23:46Z</time>
      </trkpt>
      <trkpt lat="50.553994970396161" lon="14.573888964951038">
        <ele>332.75</ele>
        <time>2013-09-06T07:23:50Z</time>
      </trkpt>
      <trkpt lat="50.554074011743069" lon="14.57378301769495">
        <ele>333.70999999999998</ele>
        <time>2013-09-06T07:23:51Z</time>
      </trkpt>
      <trkpt lat="50.554116005077958" lon="14.573641028255224">
        <ele>332.26999999999998</ele>
        <time>2013-09-06T07:23:52Z</time>
      </trkpt>
      <trkpt lat="50.554125979542732" lon="14.573501972481608">
        <ele>332.26999999999998</ele>
        <time>2013-09-06T07:23:53Z</time>
      </trkpt>
      <trkpt lat="50.554108964279294" lon="14.573370041325688">
        <ele>331.79000000000002</ele>
        <time>2013-09-06T07:23:54Z</time>
      </trkpt>
      <trkpt lat="50.554063031449914" lon="14.573227968066931">
        <ele>331.79000000000002</ele>
        <time>2013-09-06T07:23:55Z</time>
      </trkpt>
      <trkpt lat="50.554010979831219" lon="14.573083966970444">
        <ele>330.82999999999998</ele>
        <time>2013-09-06T07:23:56Z</time>
      </trkpt>
      <trkpt lat="50.553791038691998" lon="14.572381982579827">
        <ele>328.91000000000003</ele>
        <time>2013-09-06T07:24:00Z</time>
      </trkpt>
      <trkpt lat="50.553719038143754" lon="14.57221501506865">
        <ele>327.94999999999999</ele>
        <time>2013-09-06T07:24:01Z</time>
      </trkpt>
      <trkpt lat="50.553636979311705" lon="14.572069002315402">
        <ele>327.47000000000003</ele>
        <time>2013-09-06T07:24:02Z</time>
      </trkpt>
      <trkpt lat="50.552796022966504" lon="14.570613987743855">
        <ele>323.62</ele>
        <time>2013-09-06T07:24:12Z</time>
      </trkpt>
      <trkpt lat="50.552697032690048" lon="14.570511979982257">
        <ele>323.13999999999999</ele>
        <time>2013-09-06T07:24:13Z</time>
      </trkpt>
      <trkpt lat="50.552588989958167" lon="14.570427993312478">
        <ele>322.66000000000003</ele>
        <time>2013-09-06T07:24:14Z</time>
      </trkpt>
      <trkpt lat="50.552476001903415" lon="14.570376025512815">
        <ele>323.13999999999999</ele>
        <time>2013-09-06T07:24:15Z</time>
      </trkpt>
      <trkpt lat="50.552348010241985" lon="14.570356998592615">
        <ele>323.13999999999999</ele>
        <time>2013-09-06T07:24:16Z</time>
      </trkpt>
      <trkpt lat="50.552217001095414" lon="14.570356998592615">
        <ele>323.62</ele>
        <time>2013-09-06T07:24:17Z</time>
      </trkpt>
      <trkpt lat="50.552088003605604" lon="14.570378037169576">
        <ele>323.13999999999999</ele>
        <time>2013-09-06T07:24:18Z</time>
      </trkpt>
      <trkpt lat="50.55195095948875" lon="14.570408966392279">
        <ele>323.13999999999999</ele>
        <time>2013-09-06T07:24:19Z</time>
      </trkpt>
      <trkpt lat="50.55139197036624" lon="14.570516003295779">
        <ele>319.77999999999997</ele>
        <time>2013-09-06T07:24:23Z</time>
      </trkpt>
      <trkpt lat="50.550197968259454" lon="14.570234036073089">
        <ele>313.05000000000001</ele>
        <time>2013-09-06T07:24:30Z</time>
      </trkpt>
      <trkpt lat="50.54990803822875" lon="14.570065978914499">
        <ele>311.12</ele>
        <time>2013-09-06T07:24:32Z</time>
      </trkpt>
      <trkpt lat="50.549789015203714" lon="14.569934969767928">
        <ele>310.16000000000003</ele>
        <time>2013-09-06T07:24:33Z</time>
      </trkpt>
      <trkpt lat="50.54969597607851" lon="14.569764984771609">
        <ele>309.19999999999999</ele>
        <time>2013-09-06T07:24:34Z</time>
      </trkpt>
      <trkpt lat="50.549632022157311" lon="14.569548983126879">
        <ele>307.75999999999999</ele>
        <time>2013-09-06T07:24:35Z</time>
      </trkpt>
      <trkpt lat="50.549568990245461" lon="14.569301968440413">
        <ele>307.27999999999997</ele>
        <time>2013-09-06T07:24:36Z</time>
      </trkpt>
      <trkpt lat="50.549504030495882" lon="14.569007009267807">
        <ele>306.31999999999999</ele>
        <time>2013-09-06T07:24:37Z</time>
      </trkpt>
      <trkpt lat="50.549433035776019" lon="14.568649018183351">
        <ele>305.83999999999997</ele>
        <time>2013-09-06T07:24:38Z</time>
      </trkpt>
      <trkpt lat="50.54909398779273" lon="14.566491013392806">
        <ele>300.55000000000001</ele>
        <time>2013-09-06T07:24:45Z</time>
      </trkpt>
      <trkpt lat="50.549074960872531" lon="14.56622002646327">
        <ele>300.06999999999999</ele>
        <time>2013-09-06T07:24:46Z</time>
      </trkpt>
      <trkpt lat="50.549074038863182" lon="14.565949039533734">
        <ele>299.58999999999997</ele>
        <time>2013-09-06T07:24:47Z</time>
      </trkpt>
      <trkpt lat="50.549105973914266" lon="14.565686015412211">
        <ele>299.11000000000001</ele>
        <time>2013-09-06T07:24:48Z</time>
      </trkpt>
      <trkpt lat="50.549169005826116" lon="14.565431037917733">
        <ele>298.63</ele>
        <time>2013-09-06T07:24:49Z</time>
      </trkpt>
      <trkpt lat="50.549269001930952" lon="14.565198021009564">
        <ele>297.67000000000002</ele>
        <time>2013-09-06T07:24:50Z</time>
      </trkpt>
      <trkpt lat="50.549403028562665" lon="14.56495201215148">
        <ele>295.74000000000001</ele>
        <time>2013-09-06T07:24:51Z</time>
      </trkpt>
      <trkpt lat="50.549487015232444" lon="14.564678007736802">
        <ele>295.74000000000001</ele>
        <time>2013-09-06T07:24:52Z</time>
      </trkpt>
      <trkpt lat="50.549557004123926" lon="14.564398974180222">
        <ele>295.25999999999999</ele>
        <time>2013-09-06T07:24:53Z</time>
      </trkpt>
      <trkpt lat="50.5495860055089" lon="14.56409596838057">
        <ele>294.30000000000001</ele>
        <time>2013-09-06T07:24:54Z</time>
      </trkpt>
      <trkpt lat="50.54956597276032" lon="14.563804026693106">
        <ele>292.86000000000001</ele>
        <time>2013-09-06T07:24:55Z</time>
      </trkpt>
      <trkpt lat="50.549524985253811" lon="14.563530022278428">
        <ele>291.89999999999998</ele>
        <time>2013-09-06T07:24:56Z</time>
      </trkpt>
      <trkpt lat="50.549435969442129" lon="14.563236990943551">
        <ele>291.42000000000002</ele>
        <time>2013-09-06T07:24:57Z</time>
      </trkpt>
      <trkpt lat="50.549341002479196" lon="14.562964998185635">
        <ele>290.94</ele>
        <time>2013-09-06T07:24:58Z</time>
      </trkpt>
      <trkpt lat="50.549232037737966" lon="14.562699962407351">
        <ele>289.97000000000003</ele>
        <time>2013-09-06T07:24:59Z</time>
      </trkpt>
      <trkpt lat="50.548422010615468" lon="14.560993993654847">
        <ele>289.97000000000003</ele>
        <time>2013-09-06T07:25:06Z</time>
      </trkpt>
      <trkpt lat="50.548325031995773" lon="14.560682019218802">
        <ele>289.49000000000001</ele>
        <time>2013-09-06T07:25:07Z</time>
      </trkpt>
      <trkpt lat="50.548241967335343" lon="14.560372978448868">
        <ele>289.00999999999999</ele>
        <time>2013-09-06T07:25:08Z</time>
      </trkpt>
      <trkpt lat="50.548048010095954" lon="14.559271009638906">
        <ele>288.52999999999997</ele>
        <time>2013-09-06T07:25:12Z</time>
      </trkpt>
      <trkpt lat="50.548039963468909" lon="14.558998011052608">
        <ele>288.05000000000001</ele>
        <time>2013-09-06T07:25:13Z</time>
      </trkpt>
      <trkpt lat="50.548079023137689" lon="14.55872199498117">
        <ele>288.05000000000001</ele>
        <time>2013-09-06T07:25:14Z</time>
      </trkpt>
      <trkpt lat="50.548473978415132" lon="14.556298032402992">
        <ele>286.13</ele>
        <time>2013-09-06T07:25:22Z</time>
      </trkpt>
      <trkpt lat="50.549120977520943" lon="14.552935967221856">
        <ele>280.83999999999997</ele>
        <time>2013-09-06T07:25:33Z</time>
      </trkpt>
      <trkpt lat="50.549336979165673" lon="14.552088975906372">
        <ele>279.88</ele>
        <time>2013-09-06T07:25:36Z</time>
      </trkpt>
      <trkpt lat="50.549345025792718" lon="14.551751017570496">
        <ele>279.39999999999998</ele>
        <time>2013-09-06T07:25:37Z</time>
      </trkpt>
      <trkpt lat="50.549387019127607" lon="14.551438959315419">
        <ele>278.44</ele>
        <time>2013-09-06T07:25:38Z</time>
      </trkpt>
      <trkpt lat="50.54939397610724" lon="14.549487987533212">
        <ele>275.06999999999999</ele>
        <time>2013-09-06T07:25:45Z</time>
      </trkpt>
      <trkpt lat="50.549451978877187" lon="14.549283972010016">
        <ele>274.58999999999997</ele>
        <time>2013-09-06T07:25:46Z</time>
      </trkpt>
      <trkpt lat="50.54954300634563" lon="14.549084985628724">
        <ele>275.56</ele>
        <time>2013-09-06T07:25:47Z</time>
      </trkpt>
      <trkpt lat="50.550517989322543" lon="14.547405000776052">
        <ele>286.13</ele>
        <time>2013-09-06T07:25:56Z</time>
      </trkpt>
      <trkpt lat="50.550651010125875" lon="14.547244990244508">
        <ele>287.56999999999999</ele>
        <time>2013-09-06T07:25:57Z</time>
      </trkpt>
      <trkpt lat="50.550797022879124" lon="14.547112975269556">
        <ele>289.00999999999999</ele>
        <time>2013-09-06T07:25:58Z</time>
      </trkpt>
      <trkpt lat="50.551377972587943" lon="14.546666974201798">
        <ele>292.38</ele>
        <time>2013-09-06T07:26:02Z</time>
      </trkpt>
      <trkpt lat="50.551489032804966" lon="14.546525990590453">
        <ele>293.33999999999997</ele>
        <time>2013-09-06T07:26:03Z</time>
      </trkpt>
      <trkpt lat="50.55156396701932" lon="14.546341001987457">
        <ele>293.33999999999997</ele>
        <time>2013-09-06T07:26:04Z</time>
      </trkpt>
      <trkpt lat="50.55169296450913" lon="14.545965995639563">
        <ele>295.25999999999999</ele>
        <time>2013-09-06T07:26:06Z</time>
      </trkpt>
      <trkpt lat="50.551718026399612" lon="14.545775977894664">
        <ele>295.74000000000001</ele>
        <time>2013-09-06T07:26:07Z</time>
      </trkpt>
      <trkpt lat="50.551707968115807" lon="14.545587971806526">
        <ele>296.69999999999999</ele>
        <time>2013-09-06T07:26:08Z</time>
      </trkpt>
      <trkpt lat="50.551658011972904" lon="14.545416980981827">
        <ele>297.18000000000001</ele>
        <time>2013-09-06T07:26:09Z</time>
      </trkpt>
      <trkpt lat="50.551567990332842" lon="14.545269040390849">
        <ele>298.14999999999998</ele>
        <time>2013-09-06T07:26:10Z</time>
      </trkpt>
      <trkpt lat="50.551479980349541" lon="14.545160997658968">
        <ele>299.58999999999997</ele>
        <time>2013-09-06T07:26:11Z</time>
      </trkpt>
      <trkpt lat="50.551372021436691" lon="14.545069970190525">
        <ele>300.06999999999999</ele>
        <time>2013-09-06T07:26:12Z</time>
      </trkpt>
      <trkpt lat="50.551287028938532" lon="14.544977014884353">
        <ele>301.02999999999997</ele>
        <time>2013-09-06T07:26:13Z</time>
      </trkpt>
      <trkpt lat="50.551232965663075" lon="14.544854974374175">
        <ele>301.50999999999999</ele>
        <time>2013-09-06T07:26:14Z</time>
      </trkpt>
      <trkpt lat="50.551191978156567" lon="14.544704016298056">
        <ele>301.50999999999999</ele>
        <time>2013-09-06T07:26:15Z</time>
      </trkpt>
      <trkpt lat="50.551159959286451" lon="14.544524978846312">
        <ele>301.02999999999997</ele>
        <time>2013-09-06T07:26:16Z</time>
      </trkpt>
      <trkpt lat="50.551149984821677" lon="14.544348958879709">
        <ele>301.02999999999997</ele>
        <time>2013-09-06T07:26:17Z</time>
      </trkpt>
      <trkpt lat="50.551087036728859" lon="14.543519988656044">
        <ele>302.47000000000003</ele>
        <time>2013-09-06T07:26:24Z</time>
      </trkpt>
      <trkpt lat="50.551079995930195" lon="14.543484030291438">
        <ele>301.99000000000001</ele>
        <time>2013-09-06T07:26:25Z</time>
      </trkpt>
      <trkpt lat="50.551045965403318" lon="14.543444970622659">
        <ele>301.99000000000001</ele>
        <time>2013-09-06T07:26:26Z</time>
      </trkpt>
      <trkpt lat="50.550986034795642" lon="14.54342401586473">
        <ele>301.50999999999999</ele>
        <time>2013-09-06T07:26:27Z</time>
      </trkpt>
      <trkpt lat="50.550910010933876" lon="14.543422004207969">
        <ele>301.02999999999997</ele>
        <time>2013-09-06T07:26:28Z</time>
      </trkpt>
      <trkpt lat="50.550818983465433" lon="14.543439019471407">
        <ele>301.02999999999997</ele>
        <time>2013-09-06T07:26:29Z</time>
      </trkpt>
      <trkpt lat="50.550712030380964" lon="14.543472966179252">
        <ele>300.55000000000001</ele>
        <time>2013-09-06T07:26:30Z</time>
      </trkpt>
      <trkpt lat="50.549525991082191" lon="14.543771026656032">
        <ele>299.58999999999997</ele>
        <time>2013-09-06T07:26:38Z</time>
      </trkpt>
      <trkpt lat="50.549357011914253" lon="14.543778989464045">
        <ele>299.11000000000001</ele>
        <time>2013-09-06T07:26:39Z</time>
      </trkpt>
      <trkpt lat="50.549190966412425" lon="14.543739007785916">
        <ele>299.11000000000001</ele>
        <time>2013-09-06T07:26:40Z</time>
      </trkpt>
      <trkpt lat="50.549019975587726" lon="14.543650997802615">
        <ele>298.63</ele>
        <time>2013-09-06T07:26:41Z</time>
      </trkpt>
      <trkpt lat="50.547840977087617" lon="14.542863015085459">
        <ele>298.63</ele>
        <time>2013-09-06T07:26:48Z</time>
      </trkpt>
      <trkpt lat="50.547679960727692" lon="14.542806018143892">
        <ele>299.58999999999997</ele>
        <time>2013-09-06T07:26:49Z</time>
      </trkpt>
      <trkpt lat="50.547511987388134" lon="14.542805012315512">
        <ele>300.06999999999999</ele>
        <time>2013-09-06T07:26:50Z</time>
      </trkpt>
      <trkpt lat="50.547339990735054" lon="14.542854968458414">
        <ele>301.02999999999997</ele>
        <time>2013-09-06T07:26:51Z</time>
      </trkpt>
      <trkpt lat="50.547161959111691" lon="14.542937027290463">
        <ele>301.02999999999997</ele>
        <time>2013-09-06T07:26:52Z</time>
      </trkpt>
      <trkpt lat="50.546989040449262" lon="14.543029982596636">
        <ele>301.50999999999999</ele>
        <time>2013-09-06T07:26:53Z</time>
      </trkpt>
      <trkpt lat="50.545051982626319" lon="14.544055005535483">
        <ele>300.55000000000001</ele>
        <time>2013-09-06T07:27:04Z</time>
      </trkpt>
      <trkpt lat="50.544888032600284" lon="14.544066991657019">
        <ele>298.63</ele>
        <time>2013-09-06T07:27:05Z</time>
      </trkpt>
      <trkpt lat="50.544723998755217" lon="14.544024998322129">
        <ele>298.14999999999998</ele>
        <time>2013-09-06T07:27:06Z</time>
      </trkpt>
      <trkpt lat="50.543709034100175" lon="14.543648986145854">
        <ele>293.81999999999999</ele>
        <time>2013-09-06T07:27:13Z</time>
      </trkpt>
      <trkpt lat="50.543577019125223" lon="14.543663989752531">
        <ele>292.86000000000001</ele>
        <time>2013-09-06T07:27:14Z</time>
      </trkpt>
      <trkpt lat="50.543446009978652" lon="14.543727021664381">
        <ele>291.42000000000002</ele>
        <time>2013-09-06T07:27:15Z</time>
      </trkpt>
      <trkpt lat="50.543319024145603" lon="14.543826011940837">
        <ele>290.94</ele>
        <time>2013-09-06T07:27:16Z</time>
      </trkpt>
      <trkpt lat="50.543194971978664" lon="14.543931037187576">
        <ele>289.49000000000001</ele>
        <time>2013-09-06T07:27:17Z</time>
      </trkpt>
      <trkpt lat="50.543068991973996" lon="14.54400597140193">
        <ele>288.05000000000001</ele>
        <time>2013-09-06T07:27:18Z</time>
      </trkpt>
      <trkpt lat="50.542938988655806" lon="14.544023992493749">
        <ele>287.08999999999997</ele>
        <time>2013-09-06T07:27:19Z</time>
      </trkpt>
      <trkpt lat="50.542808985337615" lon="14.543981999158859">
        <ele>285.17000000000002</ele>
        <time>2013-09-06T07:27:20Z</time>
      </trkpt>
      <trkpt lat="50.542685016989708" lon="14.543906981125474">
        <ele>284.20999999999998</ele>
        <time>2013-09-06T07:27:21Z</time>
      </trkpt>
      <trkpt lat="50.54256197065115" lon="14.543827017769217">
        <ele>282.76999999999998</ele>
        <time>2013-09-06T07:27:22Z</time>
      </trkpt>
      <trkpt lat="50.540996985509992" lon="14.54286796040833">
        <ele>267.38</ele>
        <time>2013-09-06T07:27:35Z</time>
      </trkpt>
      <trkpt lat="50.540900006890297" lon="14.542767964303493">
        <ele>266.42000000000002</ele>
        <time>2013-09-06T07:27:36Z</time>
      </trkpt>
      <trkpt lat="50.540819959715009" lon="14.542637960985303">
        <ele>266.89999999999998</ele>
        <time>2013-09-06T07:27:37Z</time>
      </trkpt>
      <trkpt lat="50.540761034935713" lon="14.542484991252422">
        <ele>266.42000000000002</ele>
        <time>2013-09-06T07:27:38Z</time>
      </trkpt>
      <trkpt lat="50.540710994973779" lon="14.542305031791329">
        <ele>266.42000000000002</ele>
        <time>2013-09-06T07:27:39Z</time>
      </trkpt>
      <trkpt lat="50.540666989982128" lon="14.542117025703192">
        <ele>266.89999999999998</ele>
        <time>2013-09-06T07:27:40Z</time>
      </trkpt>
      <trkpt lat="50.540652992203832" lon="14.541932037100196">
        <ele>267.38</ele>
        <time>2013-09-06T07:27:41Z</time>
      </trkpt>
      <trkpt lat="50.540658021345735" lon="14.541747970506549">
        <ele>267.86000000000001</ele>
        <time>2013-09-06T07:27:42Z</time>
      </trkpt>
      <trkpt lat="50.540666989982128" lon="14.54155501909554">
        <ele>267.86000000000001</ele>
        <time>2013-09-06T07:27:43Z</time>
      </trkpt>
      <trkpt lat="50.540699008852243" lon="14.54063200391829">
        <ele>269.31</ele>
        <time>2013-09-06T07:27:48Z</time>
      </trkpt>
      <trkpt lat="50.540673024952412" lon="14.54045900143683">
        <ele>269.79000000000002</ele>
        <time>2013-09-06T07:27:49Z</time>
      </trkpt>
      <trkpt lat="50.540621979162097" lon="14.540293039754033">
        <ele>270.26999999999998</ele>
        <time>2013-09-06T07:27:50Z</time>
      </trkpt>
      <trkpt lat="50.540559031069279" lon="14.540132023394108">
        <ele>270.75</ele>
        <time>2013-09-06T07:27:51Z</time>
      </trkpt>
      <trkpt lat="50.540483007207513" lon="14.539983998984098">
        <ele>271.23000000000002</ele>
        <time>2013-09-06T07:27:52Z</time>
      </trkpt>
      <trkpt lat="50.540415029972792" lon="14.539831029251218">
        <ele>271.23000000000002</ele>
        <time>2013-09-06T07:27:53Z</time>
      </trkpt>
      <trkpt lat="50.540347974747419" lon="14.539674036204815">
        <ele>270.75</ele>
        <time>2013-09-06T07:27:54Z</time>
      </trkpt>
      <trkpt lat="50.540155023336411" lon="14.539174977689981">
        <ele>270.26999999999998</ele>
        <time>2013-09-06T07:27:57Z</time>
      </trkpt>
      <trkpt lat="50.540110012516379" lon="14.538984959945083">
        <ele>269.79000000000002</ele>
        <time>2013-09-06T07:27:58Z</time>
      </trkpt>
      <trkpt lat="50.540071958675981" lon="14.538787985220551">
        <ele>269.79000000000002</ele>
        <time>2013-09-06T07:27:59Z</time>
      </trkpt>
      <trkpt lat="50.540036000311375" lon="14.538586987182498">
        <ele>269.79000000000002</ele>
        <time>2013-09-06T07:28:00Z</time>
      </trkpt>
      <trkpt lat="50.540015967562795" lon="14.538391018286347">
        <ele>269.79000000000002</ele>
        <time>2013-09-06T07:28:01Z</time>
      </trkpt>
      <trkpt lat="50.539999036118388" lon="14.538193037733436">
        <ele>270.26999999999998</ele>
        <time>2013-09-06T07:28:02Z</time>
      </trkpt>
      <trkpt lat="50.539977997541428" lon="14.536818992346525">
        <ele>272.19</ele>
        <time>2013-09-06T07:28:09Z</time>
      </trkpt>
      <trkpt lat="50.540492981672287" lon="14.534753020852804">
        <ele>272.67000000000002</ele>
        <time>2013-09-06T07:28:19Z</time>
      </trkpt>
      <trkpt lat="50.540589038282633" lon="14.534554034471512">
        <ele>273.14999999999998</ele>
        <time>2013-09-06T07:28:20Z</time>
      </trkpt>
      <trkpt lat="50.540695991367102" lon="14.534367034211755">
        <ele>273.14999999999998</ele>
        <time>2013-09-06T07:28:21Z</time>
      </trkpt>
      <trkpt lat="50.541168982163072" lon="14.533653985708952">
        <ele>277.48000000000002</ele>
        <time>2013-09-06T07:28:25Z</time>
      </trkpt>
      <trkpt lat="50.541257997974753" lon="14.533449970185757">
        <ele>278.44</ele>
        <time>2013-09-06T07:28:26Z</time>
      </trkpt>
      <trkpt lat="50.541320024058223" lon="14.533216031268239">
        <ele>279.88</ele>
        <time>2013-09-06T07:28:27Z</time>
      </trkpt>
      <trkpt lat="50.541354976594448" lon="14.532967004925013">
        <ele>281.31999999999999</ele>
        <time>2013-09-06T07:28:28Z</time>
      </trkpt>
      <trkpt lat="50.541390012949705" lon="14.532710015773773">
        <ele>282.27999999999997</ele>
        <time>2013-09-06T07:28:29Z</time>
      </trkpt>
      <trkpt lat="50.541931986808777" lon="14.529021978378296">
        <ele>293.81999999999999</ele>
        <time>2013-09-06T07:28:42Z</time>
      </trkpt>
      <trkpt lat="50.542477983981371" lon="14.524534977972507">
        <ele>296.69999999999999</ele>
        <time>2013-09-06T07:28:56Z</time>
      </trkpt>
      <trkpt lat="50.542718963697553" lon="14.522303966805339">
        <ele>301.50999999999999</ele>
        <time>2013-09-06T07:29:03Z</time>
      </trkpt>
      <trkpt lat="50.542801022529602" lon="14.522017976269126">
        <ele>302.47000000000003</ele>
        <time>2013-09-06T07:29:04Z</time>
      </trkpt>
      <trkpt lat="50.542902024462819" lon="14.521731985732913">
        <ele>303.43000000000001</ele>
        <time>2013-09-06T07:29:05Z</time>
      </trkpt>
      <trkpt lat="50.543009983375669" lon="14.521453035995364">
        <ele>303.91000000000003</ele>
        <time>2013-09-06T07:29:06Z</time>
      </trkpt>
      <trkpt lat="50.543135041370988" lon="14.521179031580687">
        <ele>304.88</ele>
        <time>2013-09-06T07:29:07Z</time>
      </trkpt>
      <trkpt lat="50.544803040102124" lon="14.517627032473683">
        <ele>306.80000000000001</ele>
        <time>2013-09-06T07:29:20Z</time>
      </trkpt>
      <trkpt lat="50.546575980260968" lon="14.514706023037434">
        <ele>300.06999999999999</ele>
        <time>2013-09-06T07:29:32Z</time>
      </trkpt>
      <trkpt lat="50.547538977116346" lon="14.512831997126341">
        <ele>295.74000000000001</ele>
        <time>2013-09-06T07:29:40Z</time>
      </trkpt>
      <trkpt lat="50.547623969614506" lon="14.512590011581779">
        <ele>295.25999999999999</ele>
        <time>2013-09-06T07:29:41Z</time>
      </trkpt>
      <trkpt lat="50.547666968777776" lon="14.512344002723694">
        <ele>294.30000000000001</ele>
        <time>2013-09-06T07:29:42Z</time>
      </trkpt>
      <trkpt lat="50.54767400957644" lon="14.512088019400835">
        <ele>292.38</ele>
        <time>2013-09-06T07:29:43Z</time>
      </trkpt>
      <trkpt lat="50.547636961564422" lon="14.511822983622551">
        <ele>291.42000000000002</ele>
        <time>2013-09-06T07:29:44Z</time>
      </trkpt>
      <trkpt lat="50.547578036785126" lon="14.511567000299692">
        <ele>290.45999999999998</ele>
        <time>2013-09-06T07:29:45Z</time>
      </trkpt>
      <trkpt lat="50.547506036236882" lon="14.511310011148453">
        <ele>289.49000000000001</ele>
        <time>2013-09-06T07:29:46Z</time>
      </trkpt>
      <trkpt lat="50.547430012375116" lon="14.511053021997213">
        <ele>289.00999999999999</ele>
        <time>2013-09-06T07:29:47Z</time>
      </trkpt>
      <trkpt lat="50.546629037708044" lon="14.508941033855081">
        <ele>285.17000000000002</ele>
        <time>2013-09-06T07:29:56Z</time>
      </trkpt>
      <trkpt lat="50.546473972499371" lon="14.508545994758606">
        <ele>284.20999999999998</ele>
        <time>2013-09-06T07:29:58Z</time>
      </trkpt>
      <trkpt lat="50.546431979164481" lon="14.508352959528565">
        <ele>284.20999999999998</ele>
        <time>2013-09-06T07:29:59Z</time>
      </trkpt>
      <trkpt lat="50.546446982771158" lon="14.508161013945937">
        <ele>284.20999999999998</ele>
        <time>2013-09-06T07:30:00Z</time>
      </trkpt>
      <trkpt lat="50.546526024118066" lon="14.508027993142605">
        <ele>284.69</ele>
        <time>2013-09-06T07:30:01Z</time>
      </trkpt>
      <trkpt lat="50.546592995524406" lon="14.50788801535964">
        <ele>285.64999999999998</ele>
        <time>2013-09-06T07:30:02Z</time>
      </trkpt>
      <trkpt lat="50.546677988022566" lon="14.507725993171334">
        <ele>285.64999999999998</ele>
        <time>2013-09-06T07:30:03Z</time>
      </trkpt>
      <trkpt lat="50.546871023252606" lon="14.50737101957202">
        <ele>286.61000000000001</ele>
        <time>2013-09-06T07:30:05Z</time>
      </trkpt>
      <trkpt lat="50.546942017972469" lon="14.50715602375567">
        <ele>287.08999999999997</ele>
        <time>2013-09-06T07:30:06Z</time>
      </trkpt>
      <trkpt lat="50.547002032399178" lon="14.506923006847501">
        <ele>288.05000000000001</ele>
        <time>2013-09-06T07:30:07Z</time>
      </trkpt>
      <trkpt lat="50.547031033784151" lon="14.506674986332655">
        <ele>288.52999999999997</ele>
        <time>2013-09-06T07:30:08Z</time>
      </trkpt>
      <trkpt lat="50.547061040997505" lon="14.506409028545022">
        <ele>290.45999999999998</ele>
        <time>2013-09-06T07:30:09Z</time>
      </trkpt>
      <trkpt lat="50.547063974663615" lon="14.506151033565402">
        <ele>292.38</ele>
        <time>2013-09-06T07:30:10Z</time>
      </trkpt>
      <trkpt lat="50.54705198854208" lon="14.505906030535698">
        <ele>293.33999999999997</ele>
        <time>2013-09-06T07:30:11Z</time>
      </trkpt>
      <trkpt lat="50.54702902212739" lon="14.505650969222188">
        <ele>294.30000000000001</ele>
        <time>2013-09-06T07:30:12Z</time>
      </trkpt>
      <trkpt lat="50.546858031302691" lon="14.503770992159843">
        <ele>295.74000000000001</ele>
        <time>2013-09-06T07:30:19Z</time>
      </trkpt>
      <trkpt lat="50.54681402631104" lon="14.501404026523232">
        <ele>291.89999999999998</ele>
        <time>2013-09-06T07:30:28Z</time>
      </trkpt>
      <trkpt lat="50.546718975529075" lon="14.500950984656811">
        <ele>289.49000000000001</ele>
        <time>2013-09-06T07:30:30Z</time>
      </trkpt>
      <trkpt lat="50.5466019641608" lon="14.500512024387717">
        <ele>287.56999999999999</ele>
        <time>2013-09-06T07:30:32Z</time>
      </trkpt>
      <trkpt lat="50.546562988311052" lon="14.500264003872871">
        <ele>286.61000000000001</ele>
        <time>2013-09-06T07:30:33Z</time>
      </trkpt>
      <trkpt lat="50.546544967219234" lon="14.500015983358026">
        <ele>285.17000000000002</ele>
        <time>2013-09-06T07:30:34Z</time>
      </trkpt>
      <trkpt lat="50.546547984704375" lon="14.499762011691928">
        <ele>283.73000000000002</ele>
        <time>2013-09-06T07:30:35Z</time>
      </trkpt>
      <trkpt lat="50.546572040766478" lon="14.499498987570405">
        <ele>282.27999999999997</ele>
        <time>2013-09-06T07:30:36Z</time>
      </trkpt>
      <trkpt lat="50.546650998294353" lon="14.499239986762404">
        <ele>279.88</ele>
        <time>2013-09-06T07:30:37Z</time>
      </trkpt>
      <trkpt lat="50.546768009662628" lon="14.499004036188126">
        <ele>277.95999999999998</ele>
        <time>2013-09-06T07:30:38Z</time>
      </trkpt>
      <trkpt lat="50.546875968575478" lon="14.498766995966434">
        <ele>277.48000000000002</ele>
        <time>2013-09-06T07:30:39Z</time>
      </trkpt>
      <trkpt lat="50.54696599021554" lon="14.498518975451589">
        <ele>276.51999999999998</ele>
        <time>2013-09-06T07:30:40Z</time>
      </trkpt>
      <trkpt lat="50.547392964363098" lon="14.496349990367889">
        <ele>271.70999999999998</ele>
        <time>2013-09-06T07:30:48Z</time>
      </trkpt>
      <trkpt lat="50.547397993505001" lon="14.496061988174915">
        <ele>270.75</ele>
        <time>2013-09-06T07:30:49Z</time>
      </trkpt>
      <trkpt lat="50.547366980463266" lon="14.495782032608986">
        <ele>270.75</ele>
        <time>2013-09-06T07:30:50Z</time>
      </trkpt>
      <trkpt lat="50.547301014885306" lon="14.495518002659082">
        <ele>270.75</ele>
        <time>2013-09-06T07:30:51Z</time>
      </trkpt>
      <trkpt lat="50.547217028215528" lon="14.495285991579294">
        <ele>270.26999999999998</ele>
        <time>2013-09-06T07:30:52Z</time>
      </trkpt>
      <trkpt lat="50.547118037939072" lon="14.495090022683144">
        <ele>270.75</ele>
        <time>2013-09-06T07:30:53Z</time>
      </trkpt>
      <trkpt lat="50.547014018520713" lon="14.49491199105978">
        <ele>271.23000000000002</ele>
        <time>2013-09-06T07:30:54Z</time>
      </trkpt>
      <trkpt lat="50.546401971951127" lon="14.493934996426105">
        <ele>271.23000000000002</ele>
        <time>2013-09-06T07:31:00Z</time>
      </trkpt>
      <trkpt lat="50.546325026080012" lon="14.493743972852826">
        <ele>270.75</ele>
        <time>2013-09-06T07:31:01Z</time>
      </trkpt>
      <trkpt lat="50.546173984184861" lon="14.493344994261861">
        <ele>271.23000000000002</ele>
        <time>2013-09-06T07:31:03Z</time>
      </trkpt>
      <trkpt lat="50.546094020828605" lon="14.493174003437161">
        <ele>270.26999999999998</ele>
        <time>2013-09-06T07:31:04Z</time>
      </trkpt>
      <trkpt lat="50.545993018895388" lon="14.493014998733997">
        <ele>269.79000000000002</ele>
        <time>2013-09-06T07:31:05Z</time>
      </trkpt>
      <trkpt lat="50.545871984213591" lon="14.492880972102284">
        <ele>270.26999999999998</ele>
        <time>2013-09-06T07:31:06Z</time>
      </trkpt>
      <trkpt lat="50.545747010037303" lon="14.4927610270679">
        <ele>270.75</ele>
        <time>2013-09-06T07:31:07Z</time>
      </trkpt>
      <trkpt lat="50.545619018375874" lon="14.492660025134683">
        <ele>271.23000000000002</ele>
        <time>2013-09-06T07:31:08Z</time>
      </trkpt>
      <trkpt lat="50.544673036783934" lon="14.492196002975106">
        <ele>271.23000000000002</ele>
        <time>2013-09-06T07:31:15Z</time>
      </trkpt>
      <trkpt lat="50.544531969353557" lon="14.492198014631867">
        <ele>271.70999999999998</ele>
        <time>2013-09-06T07:31:16Z</time>
      </trkpt>
      <trkpt lat="50.544245978817344" lon="14.492178987711668">
        <ele>273.14999999999998</ele>
        <time>2013-09-06T07:31:18Z</time>
      </trkpt>
      <trkpt lat="50.544111030176282" lon="14.492124002426863">
        <ele>274.11000000000001</ele>
        <time>2013-09-06T07:31:19Z</time>
      </trkpt>
      <trkpt lat="50.54397800937295" lon="14.492044961079955">
        <ele>275.56</ele>
        <time>2013-09-06T07:31:20Z</time>
      </trkpt>
      <trkpt lat="50.543285999447107" lon="14.491545986384153">
        <ele>276.51999999999998</ele>
        <time>2013-09-06T07:31:26Z</time>
      </trkpt>
      <trkpt lat="50.543222967535257" lon="14.491400979459286">
        <ele>275.56</ele>
        <time>2013-09-06T07:31:27Z</time>
      </trkpt>
      <trkpt lat="50.543176028877497" lon="14.491227976977825">
        <ele>274.58999999999997</ele>
        <time>2013-09-06T07:31:28Z</time>
      </trkpt>
      <trkpt lat="50.543155996128917" lon="14.491048017516732">
        <ele>274.58999999999997</ele>
        <time>2013-09-06T07:31:29Z</time>
      </trkpt>
      <trkpt lat="50.54316102527082" lon="14.490846013650298">
        <ele>274.11000000000001</ele>
        <time>2013-09-06T07:31:30Z</time>
      </trkpt>
      <trkpt lat="50.54316395893693" lon="14.490629006177187">
        <ele>274.11000000000001</ele>
        <time>2013-09-06T07:31:31Z</time>
      </trkpt>
      <trkpt lat="50.543178962543607" lon="14.488367987796664">
        <ele>280.83999999999997</ele>
        <time>2013-09-06T07:31:40Z</time>
      </trkpt>
      <trkpt lat="50.54324802942574" lon="14.487867001444101">
        <ele>282.76999999999998</ele>
        <time>2013-09-06T07:31:42Z</time>
      </trkpt>
      <trkpt lat="50.543316006660461" lon="14.487615963444114">
        <ele>283.25</ele>
        <time>2013-09-06T07:31:43Z</time>
      </trkpt>
      <trkpt lat="50.54376401938498" lon="14.485641019418836">
        <ele>288.52999999999997</ele>
        <time>2013-09-06T07:31:51Z</time>
      </trkpt>
      <trkpt lat="50.543735018000007" lon="14.485377995297313">
        <ele>289.97000000000003</ele>
        <time>2013-09-06T07:31:52Z</time>
      </trkpt>
      <trkpt lat="50.543707022443414" lon="14.48511497117579">
        <ele>289.97000000000003</ele>
        <time>2013-09-06T07:31:53Z</time>
      </trkpt>
      <trkpt lat="50.543654970824718" lon="14.484847001731396">
        <ele>290.94</ele>
        <time>2013-09-06T07:31:54Z</time>
      </trkpt>
      <trkpt lat="50.543595040217042" lon="14.484572997316718">
        <ele>290.94</ele>
        <time>2013-09-06T07:31:55Z</time>
      </trkpt>
      <trkpt lat="50.542788030579686" lon="14.481063997372985">
        <ele>286.61000000000001</ele>
        <time>2013-09-06T07:32:07Z</time>
      </trkpt>
      <trkpt lat="50.541880019009113" lon="14.478932982310653">
        <ele>284.20999999999998</ele>
        <time>2013-09-06T07:32:15Z</time>
      </trkpt>
      <trkpt lat="50.541596040129662" lon="14.478049026802182">
        <ele>284.69</ele>
        <time>2013-09-06T07:32:18Z</time>
      </trkpt>
      <trkpt lat="50.541534014046192" lon="14.477739986032248">
        <ele>285.17000000000002</ele>
        <time>2013-09-06T07:32:19Z</time>
      </trkpt>
      <trkpt lat="50.541308959946036" lon="14.476567022502422">
        <ele>286.61000000000001</ele>
        <time>2013-09-06T07:32:23Z</time>
      </trkpt>
      <trkpt lat="50.541221033781767" lon="14.476308021694422">
        <ele>287.56999999999999</ele>
        <time>2013-09-06T07:32:24Z</time>
      </trkpt>
      <trkpt lat="50.541106034070253" lon="14.476083973422647">
        <ele>288.52999999999997</ele>
        <time>2013-09-06T07:32:25Z</time>
      </trkpt>
      <trkpt lat="50.540960021317005" lon="14.475892027840018">
        <ele>289.00999999999999</ele>
        <time>2013-09-06T07:32:26Z</time>
      </trkpt>
      <trkpt lat="50.540806967765093" lon="14.475720031186938">
        <ele>289.97000000000003</ele>
        <time>2013-09-06T07:32:27Z</time>
      </trkpt>
      <trkpt lat="50.540648968890309" lon="14.475568989291787">
        <ele>290.94</ele>
        <time>2013-09-06T07:32:28Z</time>
      </trkpt>
      <trkpt lat="50.540474960580468" lon="14.475440997630358">
        <ele>291.89999999999998</ele>
        <time>2013-09-06T07:32:29Z</time>
      </trkpt>
      <trkpt lat="50.540298018604517" lon="14.475331027060747">
        <ele>292.38</ele>
        <time>2013-09-06T07:32:30Z</time>
      </trkpt>
      <trkpt lat="50.538648040965199" lon="14.474524017423391">
        <ele>299.11000000000001</ele>
        <time>2013-09-06T07:32:39Z</time>
      </trkpt>
      <trkpt lat="50.538491969928145" lon="14.47443600744009">
        <ele>299.58999999999997</ele>
        <time>2013-09-06T07:32:40Z</time>
      </trkpt>
      <trkpt lat="50.53834998048842" lon="14.474314972758293">
        <ele>299.58999999999997</ele>
        <time>2013-09-06T07:32:41Z</time>
      </trkpt>
      <trkpt lat="50.538212014362216" lon="14.474168037995696">
        <ele>299.58999999999997</ele>
        <time>2013-09-06T07:32:42Z</time>
      </trkpt>
      <trkpt lat="50.537550011649728" lon="14.47327796369791">
        <ele>294.30000000000001</ele>
        <time>2013-09-06T07:32:47Z</time>
      </trkpt>
      <trkpt lat="50.537471976131201" lon="14.473076965659857">
        <ele>292.86000000000001</ele>
        <time>2013-09-06T07:32:48Z</time>
      </trkpt>
      <trkpt lat="50.53742696531117" lon="14.472869010642171">
        <ele>291.42000000000002</ele>
        <time>2013-09-06T07:32:49Z</time>
      </trkpt>
      <trkpt lat="50.537400981411338" lon="14.472644040361047">
        <ele>290.45999999999998</ele>
        <time>2013-09-06T07:32:50Z</time>
      </trkpt>
      <trkpt lat="50.537393018603325" lon="14.472404988482594">
        <ele>289.49000000000001</ele>
        <time>2013-09-06T07:32:51Z</time>
      </trkpt>
      <trkpt lat="50.537406010553241" lon="14.472144981846213">
        <ele>288.52999999999997</ele>
        <time>2013-09-06T07:32:52Z</time>
      </trkpt>
      <trkpt lat="50.53742403164506" lon="14.471882041543722">
        <ele>287.08999999999997</ele>
        <time>2013-09-06T07:32:53Z</time>
      </trkpt>
      <trkpt lat="50.537443980574608" lon="14.470865987241268">
        <ele>285.17000000000002</ele>
        <time>2013-09-06T07:32:57Z</time>
      </trkpt>
      <trkpt lat="50.537423025816679" lon="14.470621990039945">
        <ele>283.73000000000002</ele>
        <time>2013-09-06T07:32:58Z</time>
      </trkpt>
      <trkpt lat="50.537112979218364" lon="14.468264998868108">
        <ele>271.70999999999998</ele>
        <time>2013-09-06T07:33:09Z</time>
      </trkpt>
      <trkpt lat="50.537041984498501" lon="14.468094008043408">
        <ele>272.19</ele>
        <time>2013-09-06T07:33:10Z</time>
      </trkpt>
      <trkpt lat="50.536956992000341" lon="14.467921005561948">
        <ele>272.67000000000002</ele>
        <time>2013-09-06T07:33:11Z</time>
      </trkpt>
      <trkpt lat="50.53686898201704" lon="14.467783039435744">
        <ele>272.19</ele>
        <time>2013-09-06T07:33:12Z</time>
      </trkpt>
      <trkpt lat="50.536764962598681" lon="14.467649012804031">
        <ele>272.19</ele>
        <time>2013-09-06T07:33:13Z</time>
      </trkpt>
      <trkpt lat="50.536650968715549" lon="14.467521021142602">
        <ele>272.19</ele>
        <time>2013-09-06T07:33:14Z</time>
      </trkpt>
      <trkpt lat="50.535510024055839" lon="14.465795019641519">
        <ele>277.95999999999998</ele>
        <time>2013-09-06T07:33:25Z</time>
      </trkpt>
      <trkpt lat="50.534433033317327" lon="14.464125009253621">
        <ele>286.61000000000001</ele>
        <time>2013-09-06T07:33:35Z</time>
      </trkpt>
      <trkpt lat="50.533192008733749" lon="14.461874971166253">
        <ele>282.27999999999997</ele>
        <time>2013-09-06T07:33:46Z</time>
      </trkpt>
      <trkpt lat="50.531702963635325" lon="14.458680041134357">
        <ele>276.04000000000002</ele>
        <time>2013-09-06T07:33:58Z</time>
      </trkpt>
      <trkpt lat="50.53029203787446" lon="14.455548981204629">
        <ele>272.67000000000002</ele>
        <time>2013-09-06T07:34:10Z</time>
      </trkpt>
      <trkpt lat="50.53022800013423" lon="14.45527003146708">
        <ele>272.67000000000002</ele>
        <time>2013-09-06T07:34:11Z</time>
      </trkpt>
      <trkpt lat="50.529757020995021" lon="14.452634006738663">
        <ele>272.19</ele>
        <time>2013-09-06T07:34:20Z</time>
      </trkpt>
      <trkpt lat="50.529662976041436" lon="14.452381040900946">
        <ele>271.70999999999998</ele>
        <time>2013-09-06T07:34:21Z</time>
      </trkpt>
      <trkpt lat="50.529553005471826" lon="14.452141989022493">
        <ele>270.75</ele>
        <time>2013-09-06T07:34:22Z</time>
      </trkpt>
      <trkpt lat="50.529131982475519" lon="14.45129700936377">
        <ele>267.86000000000001</ele>
        <time>2013-09-06T07:34:26Z</time>
      </trkpt>
      <trkpt lat="50.529054030776024" lon="14.451085031032562">
        <ele>266.42000000000002</ele>
        <time>2013-09-06T07:34:27Z</time>
      </trkpt>
      <trkpt lat="50.528997033834457" lon="14.450862994417548">
        <ele>264.98000000000002</ele>
        <time>2013-09-06T07:34:28Z</time>
      </trkpt>
      <trkpt lat="50.528955040499568" lon="14.450626960024238">
        <ele>263.54000000000002</ele>
        <time>2013-09-06T07:34:29Z</time>
      </trkpt>
      <trkpt lat="50.528925033286214" lon="14.450379023328424">
        <ele>262.10000000000002</ele>
        <time>2013-09-06T07:34:30Z</time>
      </trkpt>
      <trkpt lat="50.528856972232461" lon="14.448291007429361">
        <ele>252.47999999999999</ele>
        <time>2013-09-06T07:34:38Z</time>
      </trkpt>
      <trkpt lat="50.529194008558989" lon="14.446130990982056">
        <ele>252</ele>
        <time>2013-09-06T07:34:46Z</time>
      </trkpt>
      <trkpt lat="50.529205994680524" lon="14.445868972688913">
        <ele>252</ele>
        <time>2013-09-06T07:34:47Z</time>
      </trkpt>
      <trkpt lat="50.529179004952312" lon="14.444880997762084">
        <ele>252.47999999999999</ele>
        <time>2013-09-06T07:34:51Z</time>
      </trkpt>
      <trkpt lat="50.529200965538621" lon="14.444661978632212">
        <ele>252.96000000000001</ele>
        <time>2013-09-06T07:34:52Z</time>
      </trkpt>
      <trkpt lat="50.529249999672174" lon="14.444437008351088">
        <ele>252.96000000000001</ele>
        <time>2013-09-06T07:34:53Z</time>
      </trkpt>
      <trkpt lat="50.529309008270502" lon="14.444215977564454">
        <ele>252.47999999999999</ele>
        <time>2013-09-06T07:34:54Z</time>
      </trkpt>
      <trkpt lat="50.529388971626759" lon="14.444006010890007">
        <ele>252.47999999999999</ele>
        <time>2013-09-06T07:34:55Z</time>
      </trkpt>
      <trkpt lat="50.529893981292844" lon="14.441781034693122">
        <ele>251.52000000000001</ele>
        <time>2013-09-06T07:35:04Z</time>
      </trkpt>
      <trkpt lat="50.529899010434747" lon="14.441535025835037">
        <ele>251.52000000000001</ele>
        <time>2013-09-06T07:35:05Z</time>
      </trkpt>
      <trkpt lat="50.530126998201013" lon="14.439684972167015">
        <ele>250.08000000000001</ele>
        <time>2013-09-06T07:35:13Z</time>
      </trkpt>
      <trkpt lat="50.530273010954261" lon="14.439095975831151">
        <ele>251.03999999999999</ele>
        <time>2013-09-06T07:35:16Z</time>
      </trkpt>
      <trkpt lat="50.530508039519191" lon="14.438111018389463">
        <ele>248.16</ele>
        <time>2013-09-06T07:35:21Z</time>
      </trkpt>
      <trkpt lat="50.530503010377288" lon="14.437898034229875">
        <ele>248.16</ele>
        <time>2013-09-06T07:35:22Z</time>
      </trkpt>
      <trkpt lat="50.530484989285469" lon="14.437680020928383">
        <ele>248.63999999999999</ele>
        <time>2013-09-06T07:35:23Z</time>
      </trkpt>
      <trkpt lat="50.530321961268783" lon="14.43500803783536">
        <ele>249.59999999999999</ele>
        <time>2013-09-06T07:35:36Z</time>
      </trkpt>
      <trkpt lat="50.530470991507173" lon="14.433425031602383">
        <ele>249.12</ele>
        <time>2013-09-06T07:35:44Z</time>
      </trkpt>
      <trkpt lat="50.530514996498823" lon="14.433236019685864">
        <ele>248.63999999999999</ele>
        <time>2013-09-06T07:35:45Z</time>
      </trkpt>
      <trkpt lat="50.530923027545214" lon="14.431815035641193">
        <ele>248.63999999999999</ele>
        <time>2013-09-06T07:35:53Z</time>
      </trkpt>
      <trkpt lat="50.530943982303143" lon="14.431624012067914">
        <ele>248.63999999999999</ele>
        <time>2013-09-06T07:35:54Z</time>
      </trkpt>
      <trkpt lat="50.53093995898962" lon="14.431437011808157">
        <ele>249.12</ele>
        <time>2013-09-06T07:35:55Z</time>
      </trkpt>
      <trkpt lat="50.530908023938537" lon="14.431256968528032">
        <ele>248.63999999999999</ele>
        <time>2013-09-06T07:35:56Z</time>
      </trkpt>
      <trkpt lat="50.530858989804983" lon="14.431097963824868">
        <ele>248.63999999999999</ele>
        <time>2013-09-06T07:35:57Z</time>
      </trkpt>
      <trkpt lat="50.530799981206656" lon="14.430945999920368">
        <ele>248.63999999999999</ele>
        <time>2013-09-06T07:35:58Z</time>
      </trkpt>
      <trkpt lat="50.530730998143554" lon="14.43079998716712">
        <ele>249.12</ele>
        <time>2013-09-06T07:35:59Z</time>
      </trkpt>
      <trkpt lat="50.530656985938549" lon="14.430655986070633">
        <ele>249.59999999999999</ele>
        <time>2013-09-06T07:36:00Z</time>
      </trkpt>
      <trkpt lat="50.530247027054429" lon="14.42970396950841">
        <ele>251.52000000000001</ele>
        <time>2013-09-06T07:36:06Z</time>
      </trkpt>
      <trkpt lat="50.53018500097096" lon="14.429523004218936">
        <ele>251.52000000000001</ele>
        <time>2013-09-06T07:36:07Z</time>
      </trkpt>
      <trkpt lat="50.530091039836407" lon="14.429132994264364">
        <ele>251.52000000000001</ele>
        <time>2013-09-06T07:36:09Z</time>
      </trkpt>
      <trkpt lat="50.530071007087827" lon="14.428921015933156">
        <ele>251.03999999999999</ele>
        <time>2013-09-06T07:36:10Z</time>
      </trkpt>
      <trkpt lat="50.530063966289163" lon="14.428695039823651">
        <ele>251.03999999999999</ele>
        <time>2013-09-06T07:36:11Z</time>
      </trkpt>
      <trkpt lat="50.53007997572422" lon="14.425734970718622">
        <ele>250.56</ele>
        <time>2013-09-06T07:36:23Z</time>
      </trkpt>
      <trkpt lat="50.530048962682486" lon="14.424734003841877">
        <ele>249.12</ele>
        <time>2013-09-06T07:36:27Z</time>
      </trkpt>
      <trkpt lat="50.530017027631402" lon="14.424494029954076">
        <ele>248.16</ele>
        <time>2013-09-06T07:36:28Z</time>
      </trkpt>
      <trkpt lat="50.52997101098299" lon="14.424266964197159">
        <ele>247.68000000000001</ele>
        <time>2013-09-06T07:36:29Z</time>
      </trkpt>
      <trkpt lat="50.529908984899521" lon="14.424046017229557">
        <ele>247.19999999999999</ele>
        <time>2013-09-06T07:36:30Z</time>
      </trkpt>
      <trkpt lat="50.52982097491622" lon="14.423832027241588">
        <ele>247.19999999999999</ele>
        <time>2013-09-06T07:36:31Z</time>
      </trkpt>
      <trkpt lat="50.529728019610047" lon="14.423638992011547">
        <ele>247.19999999999999</ele>
        <time>2013-09-06T07:36:32Z</time>
      </trkpt>
      <trkpt lat="50.529655013233423" lon="14.423459032550454">
        <ele>246.72</ele>
        <time>2013-09-06T07:36:33Z</time>
      </trkpt>
      <trkpt lat="50.529599022120237" lon="14.423276977613568">
        <ele>246.22999999999999</ele>
        <time>2013-09-06T07:36:34Z</time>
      </trkpt>
      <trkpt lat="50.529575971886516" lon="14.423084026202559">
        <ele>245.75</ele>
        <time>2013-09-06T07:36:35Z</time>
      </trkpt>
      <trkpt lat="50.529592987149954" lon="14.422690998762846">
        <ele>245.75</ele>
        <time>2013-09-06T07:36:37Z</time>
      </trkpt>
      <trkpt lat="50.529646966606379" lon="14.422511961311102">
        <ele>245.27000000000001</ele>
        <time>2013-09-06T07:36:38Z</time>
      </trkpt>
      <trkpt lat="50.529737994074821" lon="14.422343987971544">
        <ele>245.27000000000001</ele>
        <time>2013-09-06T07:36:39Z</time>
      </trkpt>
      <trkpt lat="50.530359009280801" lon="14.420995004475117">
        <ele>245.75</ele>
        <time>2013-09-06T07:36:46Z</time>
      </trkpt>
      <trkpt lat="50.530411982908845" lon="14.420754024758935">
        <ele>245.75</ele>
        <time>2013-09-06T07:36:47Z</time>
      </trkpt>
      <trkpt lat="50.530447019264102" lon="14.420521007850766">
        <ele>245.75</ele>
        <time>2013-09-06T07:36:48Z</time>
      </trkpt>
      <trkpt lat="50.53046403452754" lon="14.420280028134584">
        <ele>246.22999999999999</ele>
        <time>2013-09-06T07:36:49Z</time>
      </trkpt>
      <trkpt lat="50.530452970415354" lon="14.420049022883177">
        <ele>245.75</ele>
        <time>2013-09-06T07:36:50Z</time>
      </trkpt>
      <trkpt lat="50.53040100261569" lon="14.419810976833105">
        <ele>245.75</ele>
        <time>2013-09-06T07:36:51Z</time>
      </trkpt>
      <trkpt lat="50.530332019552588" lon="14.419571002945304">
        <ele>246.22999999999999</ele>
        <time>2013-09-06T07:36:52Z</time>
      </trkpt>
      <trkpt lat="50.530265970155597" lon="14.419347960501909">
        <ele>246.22999999999999</ele>
        <time>2013-09-06T07:36:53Z</time>
      </trkpt>
      <trkpt lat="50.530134961009026" lon="14.41889701411128">
        <ele>246.22999999999999</ele>
        <time>2013-09-06T07:36:55Z</time>
      </trkpt>
      <trkpt lat="50.530095985159278" lon="14.418667014688253">
        <ele>245.75</ele>
        <time>2013-09-06T07:36:56Z</time>
      </trkpt>
      <trkpt lat="50.53009900264442" lon="14.418454030528665">
        <ele>245.75</ele>
        <time>2013-09-06T07:36:57Z</time>
      </trkpt>
      <trkpt lat="50.53012196905911" lon="14.418228976428509">
        <ele>245.27000000000001</ele>
        <time>2013-09-06T07:36:58Z</time>
      </trkpt>
      <trkpt lat="50.53016304038465" lon="14.418030995875597">
        <ele>245.27000000000001</ele>
        <time>2013-09-06T07:36:59Z</time>
      </trkpt>
      <trkpt lat="50.53024803288281" lon="14.417861010879278">
        <ele>244.31</ele>
        <time>2013-09-06T07:37:00Z</time>
      </trkpt>
      <trkpt lat="50.530344005674124" lon="14.417693959549069">
        <ele>243.83000000000001</ele>
        <time>2013-09-06T07:37:01Z</time>
      </trkpt>
      <trkpt lat="50.530431009829044" lon="14.417521040886641">
        <ele>243.83000000000001</ele>
        <time>2013-09-06T07:37:02Z</time>
      </trkpt>
      <trkpt lat="50.530520025640726" lon="14.417322976514697">
        <ele>242.87</ele>
        <time>2013-09-06T07:37:03Z</time>
      </trkpt>
      <trkpt lat="50.530582973733544" lon="14.417116027325392">
        <ele>242.87</ele>
        <time>2013-09-06T07:37:04Z</time>
      </trkpt>
      <trkpt lat="50.530789000913501" lon="14.416218996047974">
        <ele>241.91</ele>
        <time>2013-09-06T07:37:08Z</time>
      </trkpt>
      <trkpt lat="50.530837029218674" lon="14.415959995239973">
        <ele>240.94999999999999</ele>
        <time>2013-09-06T07:37:09Z</time>
      </trkpt>
      <trkpt lat="50.53082998842001" lon="14.415709963068366">
        <ele>240.94999999999999</ele>
        <time>2013-09-06T07:37:10Z</time>
      </trkpt>
      <trkpt lat="50.530816996470094" lon="14.415465965867043">
        <ele>241.91</ele>
        <time>2013-09-06T07:37:11Z</time>
      </trkpt>
      <trkpt lat="50.53078698925674" lon="14.415204031392932">
        <ele>241.43000000000001</ele>
        <time>2013-09-06T07:37:12Z</time>
      </trkpt>
      <trkpt lat="50.530724041163921" lon="14.413154991343617">
        <ele>240.94999999999999</ele>
        <time>2013-09-06T07:37:19Z</time>
      </trkpt>
      <trkpt lat="50.530728986486793" lon="14.412534981966019">
        <ele>239.50999999999999</ele>
        <time>2013-09-06T07:37:21Z</time>
      </trkpt>
      <trkpt lat="50.530695961788297" lon="14.412240022793412">
        <ele>238.53999999999999</ele>
        <time>2013-09-06T07:37:22Z</time>
      </trkpt>
      <trkpt lat="50.530643993988633" lon="14.411970041692257">
        <ele>239.02000000000001</ele>
        <time>2013-09-06T07:37:23Z</time>
      </trkpt>
      <trkpt lat="50.530548021197319" lon="14.411724032834172">
        <ele>239.50999999999999</ele>
        <time>2013-09-06T07:37:24Z</time>
      </trkpt>
      <trkpt lat="50.530432015657425" lon="14.411498978734016">
        <ele>239.50999999999999</ele>
        <time>2013-09-06T07:37:25Z</time>
      </trkpt>
      <trkpt lat="50.530306035652757" lon="14.411299992352724">
        <ele>239.02000000000001</ele>
        <time>2013-09-06T07:37:26Z</time>
      </trkpt>
      <trkpt lat="50.530187012627721" lon="14.411103017628193">
        <ele>239.50999999999999</ele>
        <time>2013-09-06T07:37:27Z</time>
      </trkpt>
      <trkpt lat="50.530120963230729" lon="14.410910988226533">
        <ele>239.50999999999999</ele>
        <time>2013-09-06T07:37:28Z</time>
      </trkpt>
      <trkpt lat="50.530081987380981" lon="14.410734968259931">
        <ele>240.47</ele>
        <time>2013-09-06T07:37:29Z</time>
      </trkpt>
      <trkpt lat="50.5301000084728" lon="14.410580992698669">
        <ele>240.94999999999999</ele>
        <time>2013-09-06T07:37:30Z</time>
      </trkpt>
      <trkpt lat="50.530146025121212" lon="14.410394998267293">
        <ele>240.47</ele>
        <time>2013-09-06T07:37:31Z</time>
      </trkpt>
      <trkpt lat="50.530189024284482" lon="14.410191988572478">
        <ele>240.47</ele>
        <time>2013-09-06T07:37:32Z</time>
      </trkpt>
      <trkpt lat="50.530210984870791" lon="14.409972969442606">
        <ele>239.50999999999999</ele>
        <time>2013-09-06T07:37:33Z</time>
      </trkpt>
      <trkpt lat="50.530221965163946" lon="14.409734001383185">
        <ele>237.58000000000001</ele>
        <time>2013-09-06T07:37:34Z</time>
      </trkpt>
      <trkpt lat="50.530195981264114" lon="14.409482963383198">
        <ele>237.58000000000001</ele>
        <time>2013-09-06T07:37:35Z</time>
      </trkpt>
      <trkpt lat="50.530160022899508" lon="14.409220023080707">
        <ele>236.62</ele>
        <time>2013-09-06T07:37:36Z</time>
      </trkpt>
      <trkpt lat="50.530095985159278" lon="14.408964039757848">
        <ele>236.62</ele>
        <time>2013-09-06T07:37:37Z</time>
      </trkpt>
      <trkpt lat="50.529876966029406" lon="14.408210003748536">
        <ele>237.09999999999999</ele>
        <time>2013-09-06T07:37:40Z</time>
      </trkpt>
      <trkpt lat="50.529847964644432" lon="14.407943040132523">
        <ele>236.62</ele>
        <time>2013-09-06T07:37:41Z</time>
      </trkpt>
      <trkpt lat="50.529835978522897" lon="14.407672975212336">
        <ele>237.09999999999999</ele>
        <time>2013-09-06T07:37:42Z</time>
      </trkpt>
      <trkpt lat="50.529806977137923" lon="14.406784996390343">
        <ele>237.09999999999999</ele>
        <time>2013-09-06T07:37:45Z</time>
      </trkpt>
      <trkpt lat="50.529765989631414" lon="14.406492970883846">
        <ele>236.62</ele>
        <time>2013-09-06T07:37:46Z</time>
      </trkpt>
      <trkpt lat="50.52971301600337" lon="14.406206980347633">
        <ele>235.18000000000001</ele>
        <time>2013-09-06T07:37:47Z</time>
      </trkpt>
      <trkpt lat="50.529636992141604" lon="14.405939010903239">
        <ele>235.18000000000001</ele>
        <time>2013-09-06T07:37:48Z</time>
      </trkpt>
      <trkpt lat="50.529543031007051" lon="14.405679004266858">
        <ele>234.69999999999999</ele>
        <time>2013-09-06T07:37:49Z</time>
      </trkpt>
      <trkpt lat="50.52943498827517" lon="14.40542402677238">
        <ele>235.66</ele>
        <time>2013-09-06T07:37:50Z</time>
      </trkpt>
      <trkpt lat="50.529323006048799" lon="14.405181035399437">
        <ele>236.62</ele>
        <time>2013-09-06T07:37:51Z</time>
      </trkpt>
      <trkpt lat="50.528955962508917" lon="14.404534036293626">
        <ele>235.18000000000001</ele>
        <time>2013-09-06T07:37:54Z</time>
      </trkpt>
      <trkpt lat="50.528808021917939" lon="14.404370002448559">
        <ele>234.22</ele>
        <time>2013-09-06T07:37:55Z</time>
      </trkpt>
      <trkpt lat="50.52840300835669" lon="14.403993990272284">
        <ele>233.25999999999999</ele>
        <time>2013-09-06T07:37:58Z</time>
      </trkpt>
      <trkpt lat="50.528297983109951" lon="14.403855018317699">
        <ele>233.74000000000001</ele>
        <time>2013-09-06T07:37:59Z</time>
      </trkpt>
      <trkpt lat="50.528202010318637" lon="14.403703976422548">
        <ele>234.22</ele>
        <time>2013-09-06T07:38:00Z</time>
      </trkpt>
      <trkpt lat="50.52814400754869" lon="14.403513036668301">
        <ele>234.22</ele>
        <time>2013-09-06T07:38:01Z</time>
      </trkpt>
      <trkpt lat="50.528114000335336" lon="14.403315978124738">
        <ele>234.22</ele>
        <time>2013-09-06T07:38:02Z</time>
      </trkpt>
      <trkpt lat="50.528111988678575" lon="14.403113974258304">
        <ele>235.18000000000001</ele>
        <time>2013-09-06T07:38:03Z</time>
      </trkpt>
      <trkpt lat="50.528131015598774" lon="14.402907025068998">
        <ele>235.18000000000001</ele>
        <time>2013-09-06T07:38:04Z</time>
      </trkpt>
      <trkpt lat="50.528156999498606" lon="14.402702003717422">
        <ele>235.18000000000001</ele>
        <time>2013-09-06T07:38:05Z</time>
      </trkpt>
      <trkpt lat="50.528321033343673" lon="14.401654014363885">
        <ele>234.22</ele>
        <time>2013-09-06T07:38:10Z</time>
      </trkpt>
      <trkpt lat="50.528194969519973" lon="14.39999096095562">
        <ele>233.25999999999999</ele>
        <time>2013-09-06T07:38:18Z</time>
      </trkpt>
      <trkpt lat="50.5278430134058" lon="14.398637032136321">
        <ele>233.74000000000001</ele>
        <time>2013-09-06T07:38:25Z</time>
      </trkpt>
      <trkpt lat="50.52786698564887" lon="14.398446008563042">
        <ele>233.25999999999999</ele>
        <time>2013-09-06T07:38:26Z</time>
      </trkpt>
      <trkpt lat="50.527916019782424" lon="14.398267976939678">
        <ele>233.25999999999999</ele>
        <time>2013-09-06T07:38:27Z</time>
      </trkpt>
      <trkpt lat="50.527987014502287" lon="14.398091034963727">
        <ele>233.25999999999999</ele>
        <time>2013-09-06T07:38:28Z</time>
      </trkpt>
      <trkpt lat="50.528057003393769" lon="14.397909985855222">
        <ele>233.25999999999999</ele>
        <time>2013-09-06T07:38:29Z</time>
      </trkpt>
      <trkpt lat="50.528676006942987" lon="14.396197982132435">
        <ele>233.74000000000001</ele>
        <time>2013-09-06T07:38:38Z</time>
      </trkpt>
      <trkpt lat="50.529242036864161" lon="14.394378019496799">
        <ele>233.74000000000001</ele>
        <time>2013-09-06T07:38:47Z</time>
      </trkpt>
      <trkpt lat="50.529275983572006" lon="14.394153971225023">
        <ele>233.74000000000001</ele>
        <time>2013-09-06T07:38:48Z</time>
      </trkpt>
      <trkpt lat="50.529401041567326" lon="14.392701974138618">
        <ele>236.13999999999999</ele>
        <time>2013-09-06T07:38:54Z</time>
      </trkpt>
      <trkpt lat="50.529373968020082" lon="14.392459988594055">
        <ele>236.13999999999999</ele>
        <time>2013-09-06T07:38:55Z</time>
      </trkpt>
      <trkpt lat="50.529074985533953" lon="14.390457971021533">
        <ele>233.25999999999999</ele>
        <time>2013-09-06T07:39:03Z</time>
      </trkpt>
      <trkpt lat="50.528925033286214" lon="14.389966959133744">
        <ele>233.74000000000001</ele>
        <time>2013-09-06T07:39:05Z</time>
      </trkpt>
      <trkpt lat="50.528800981119275" lon="14.3895030207932">
        <ele>232.30000000000001</ele>
        <time>2013-09-06T07:39:07Z</time>
      </trkpt>
      <trkpt lat="50.528771979734302" lon="14.38926899805665">
        <ele>231.81</ele>
        <time>2013-09-06T07:39:08Z</time>
      </trkpt>
      <trkpt lat="50.528721017763019" lon="14.388254033401608">
        <ele>231.33000000000001</ele>
        <time>2013-09-06T07:39:12Z</time>
      </trkpt>
      <trkpt lat="50.528698973357677" lon="14.387780958786607">
        <ele>230.84999999999999</ele>
        <time>2013-09-06T07:39:14Z</time>
      </trkpt>
      <trkpt lat="50.528642982244492" lon="14.387581972405314">
        <ele>230.84999999999999</ele>
        <time>2013-09-06T07:39:15Z</time>
      </trkpt>
      <trkpt lat="50.528556983917952" lon="14.387432020157576">
        <ele>229.88999999999999</ele>
        <time>2013-09-06T07:39:16Z</time>
      </trkpt>
      <trkpt lat="50.52844500169158" lon="14.387331018224359">
        <ele>229.88999999999999</ele>
        <time>2013-09-06T07:39:17Z</time>
      </trkpt>
      <trkpt lat="50.528303012251854" lon="14.387259017676115">
        <ele>229.41</ele>
        <time>2013-09-06T07:39:18Z</time>
      </trkpt>
      <trkpt lat="50.528156999498606" lon="14.387189028784633">
        <ele>228.93000000000001</ele>
        <time>2013-09-06T07:39:19Z</time>
      </trkpt>
      <trkpt lat="50.528022972866893" lon="14.387101018801332">
        <ele>227.97</ele>
        <time>2013-09-06T07:39:20Z</time>
      </trkpt>
      <trkpt lat="50.527920965105295" lon="14.386979984119534">
        <ele>227.49000000000001</ele>
        <time>2013-09-06T07:39:21Z</time>
      </trkpt>
      <trkpt lat="50.527870003134012" lon="14.386817961931229">
        <ele>227.49000000000001</ele>
        <time>2013-09-06T07:39:22Z</time>
      </trkpt>
      <trkpt lat="50.527852987870574" lon="14.386641019955277">
        <ele>227.49000000000001</ele>
        <time>2013-09-06T07:39:23Z</time>
      </trkpt>
      <trkpt lat="50.527832033112645" lon="14.386456031352282">
        <ele>227.97</ele>
        <time>2013-09-06T07:39:24Z</time>
      </trkpt>
      <trkpt lat="50.527796996757388" lon="14.386044982820749">
        <ele>227.49000000000001</ele>
        <time>2013-09-06T07:39:26Z</time>
      </trkpt>
      <trkpt lat="50.527532966807485" lon="14.384341025725007">
        <ele>227.00999999999999</ele>
        <time>2013-09-06T07:39:34Z</time>
      </trkpt>
      <trkpt lat="50.527527015656233" lon="14.384130975231528">
        <ele>228.93000000000001</ele>
        <time>2013-09-06T07:39:35Z</time>
      </trkpt>
      <trkpt lat="50.527557022869587" lon="14.383931988850236">
        <ele>228.93000000000001</ele>
        <time>2013-09-06T07:39:36Z</time>
      </trkpt>
      <trkpt lat="50.527835972607136" lon="14.382363986223936">
        <ele>239.02000000000001</ele>
        <time>2013-09-06T07:39:43Z</time>
      </trkpt>
      <trkpt lat="50.528069995343685" lon="14.381183981895447">
        <ele>247.68000000000001</ele>
        <time>2013-09-06T07:39:48Z</time>
      </trkpt>
      <trkpt lat="50.528077958151698" lon="14.379908004775643">
        <ele>251.03999999999999</ele>
        <time>2013-09-06T07:39:53Z</time>
      </trkpt>
      <trkpt lat="50.528005035594106" lon="14.379674987867475">
        <ele>253.44</ele>
        <time>2013-09-06T07:39:54Z</time>
      </trkpt>
      <trkpt lat="50.527891963720322" lon="14.379228986799717">
        <ele>255.84999999999999</ele>
        <time>2013-09-06T07:39:56Z</time>
      </trkpt>
      <trkpt lat="50.527856005355716" lon="14.378985995426774">
        <ele>256.81</ele>
        <time>2013-09-06T07:39:57Z</time>
      </trkpt>
      <trkpt lat="50.527708986774087" lon="14.377181036397815">
        <ele>267.38</ele>
        <time>2013-09-06T07:40:04Z</time>
      </trkpt>
      <trkpt lat="50.527695994824171" lon="14.376938967034221">
        <ele>268.35000000000002</ele>
        <time>2013-09-06T07:40:05Z</time>
      </trkpt>
      <trkpt lat="50.527788028120995" lon="14.376434963196516">
        <ele>269.31</ele>
        <time>2013-09-06T07:40:07Z</time>
      </trkpt>
      <trkpt lat="50.528354980051517" lon="14.37392801977694">
        <ele>270.75</ele>
        <time>2013-09-06T07:40:18Z</time>
      </trkpt>
      <trkpt lat="50.52835900336504" lon="14.373717969283462">
        <ele>270.75</ele>
        <time>2013-09-06T07:40:19Z</time>
      </trkpt>
      <trkpt lat="50.528334025293589" lon="14.373510014265776">
        <ele>270.26999999999998</ele>
        <time>2013-09-06T07:40:20Z</time>
      </trkpt>
      <trkpt lat="50.528294965624809" lon="14.373322008177638">
        <ele>270.26999999999998</ele>
        <time>2013-09-06T07:40:21Z</time>
      </trkpt>
      <trkpt lat="50.528237968683243" lon="14.373127967119217">
        <ele>270.26999999999998</ele>
        <time>2013-09-06T07:40:22Z</time>
      </trkpt>
      <trkpt lat="50.528205027803779" lon="14.372945996001363">
        <ele>270.75</ele>
        <time>2013-09-06T07:40:23Z</time>
      </trkpt>
      <trkpt lat="50.52818801254034" lon="14.372773999348283">
        <ele>271.70999999999998</ele>
        <time>2013-09-06T07:40:24Z</time>
      </trkpt>
      <trkpt lat="50.528182983398437" lon="14.372590016573668">
        <ele>271.70999999999998</ele>
        <time>2013-09-06T07:40:25Z</time>
      </trkpt>
      <trkpt lat="50.528179965913296" lon="14.372396981343627">
        <ele>271.70999999999998</ele>
        <time>2013-09-06T07:40:26Z</time>
      </trkpt>
      <trkpt lat="50.528180971741676" lon="14.372193971648812">
        <ele>271.70999999999998</ele>
        <time>2013-09-06T07:40:27Z</time>
      </trkpt>
      <trkpt lat="50.528249032795429" lon="14.370414996519685">
        <ele>272.67000000000002</ele>
        <time>2013-09-06T07:40:36Z</time>
      </trkpt>
      <trkpt lat="50.528212990611792" lon="14.370280969887972">
        <ele>272.19</ele>
        <time>2013-09-06T07:40:37Z</time>
      </trkpt>
      <trkpt lat="50.528147025033832" lon="14.370193965733051">
        <ele>271.70999999999998</ele>
        <time>2013-09-06T07:40:38Z</time>
      </trkpt>
      <trkpt lat="50.528054991737008" lon="14.370143003761768">
        <ele>271.23000000000002</ele>
        <time>2013-09-06T07:40:39Z</time>
      </trkpt>
      <trkpt lat="50.527957007288933" lon="14.370093969628215">
        <ele>270.75</ele>
        <time>2013-09-06T07:40:40Z</time>
      </trkpt>
      <trkpt lat="50.527769001200795" lon="14.369916021823883">
        <ele>270.26999999999998</ele>
        <time>2013-09-06T07:40:42Z</time>
      </trkpt>
      <trkpt lat="50.527713010087609" lon="14.3697580229491">
        <ele>269.79000000000002</ele>
        <time>2013-09-06T07:40:43Z</time>
      </trkpt>
      <trkpt lat="50.527690965682268" lon="14.369563981890678">
        <ele>270.26999999999998</ele>
        <time>2013-09-06T07:40:44Z</time>
      </trkpt>
      <trkpt lat="50.527689959853888" lon="14.369358960539103">
        <ele>269.79000000000002</ele>
        <time>2013-09-06T07:40:45Z</time>
      </trkpt>
      <trkpt lat="50.527688032016158" lon="14.369148993864655">
        <ele>269.79000000000002</ele>
        <time>2013-09-06T07:40:46Z</time>
      </trkpt>
      <trkpt lat="50.527660958468914" lon="14.366683037951589">
        <ele>267.86000000000001</ele>
        <time>2013-09-06T07:40:56Z</time>
      </trkpt>
      <trkpt lat="50.527530033141375" lon="14.364419002085924">
        <ele>256.81</ele>
        <time>2013-09-06T07:41:05Z</time>
      </trkpt>
      <trkpt lat="50.527483010664582" lon="14.36342298053205">
        <ele>251.52000000000001</ele>
        <time>2013-09-06T07:41:09Z</time>
      </trkpt>
      <trkpt lat="50.527759026736021" lon="14.361257012933493">
        <ele>236.13999999999999</ele>
        <time>2013-09-06T07:41:19Z</time>
      </trkpt>
      <trkpt lat="50.527751985937357" lon="14.360647983849049">
        <ele>231.81</ele>
        <time>2013-09-06T07:41:23Z</time>
      </trkpt>
      <trkpt lat="50.527710998430848" lon="14.360516974702477">
        <ele>229.41</ele>
        <time>2013-09-06T07:41:24Z</time>
      </trkpt>
      <trkpt lat="50.527501031756401" lon="14.359890008345246">
        <ele>227.97</ele>
        <time>2013-09-06T07:41:29Z</time>
      </trkpt>
      <trkpt lat="50.527461972087622" lon="14.359806021675467">
        <ele>229.41</ele>
        <time>2013-09-06T07:41:30Z</time>
      </trkpt>
      <trkpt lat="50.527426013723016" lon="14.359685992822051">
        <ele>233.25999999999999</ele>
        <time>2013-09-06T07:41:36Z</time>
      </trkpt>
      <trkpt lat="50.527432970702648" lon="14.359656991437078">
        <ele>233.25999999999999</ele>
        <time>2013-09-06T07:42:08Z</time>
      </trkpt>
      <trkpt lat="50.527462977916002" lon="14.359594965353608">
        <ele>234.22</ele>
        <time>2013-09-06T07:42:50Z</time>
      </trkpt>
      <trkpt lat="50.52745702676475" lon="14.359556995332241">
        <ele>233.74000000000001</ele>
        <time>2013-09-06T07:43:18Z</time>
      </trkpt>
      <trkpt lat="50.527448980137706" lon="14.359564958140254">
        <ele>234.22</ele>
        <time>2013-09-06T07:44:03Z</time>
      </trkpt>
      <trkpt lat="50.527445962652564" lon="14.359563030302525">
        <ele>235.18000000000001</ele>
        <time>2013-09-06T07:45:33Z</time>
      </trkpt>
      <trkpt lat="50.527442023158073" lon="14.359556995332241">
        <ele>236.13999999999999</ele>
        <time>2013-09-06T07:46:57Z</time>
      </trkpt>
      <trkpt lat="50.527442023158073" lon="14.359559006989002">
        <ele>236.62</ele>
        <time>2013-09-06T07:48:40Z</time>
      </trkpt>
      <trkpt lat="50.527442023158073" lon="14.359561018645763">
        <ele>237.09999999999999</ele>
        <time>2013-09-06T07:50:33Z</time>
      </trkpt>
      <trkpt lat="50.527490973472595" lon="14.359506033360958">
        <ele>237.09999999999999</ele>
        <time>2013-09-06T07:50:58Z</time>
      </trkpt>
      <trkpt lat="50.527496002614498" lon="14.359475020319223">
        <ele>237.09999999999999</ele>
        <time>2013-09-06T07:50:59Z</time>
      </trkpt>
      <trkpt lat="50.527655007317662" lon="14.358720984309912">
        <ele>238.53999999999999</ele>
        <time>2013-09-06T07:51:06Z</time>
      </trkpt>
      <trkpt lat="50.527626005932689" lon="14.358591986820102">
        <ele>238.06</ele>
        <time>2013-09-06T07:51:07Z</time>
      </trkpt>
      <trkpt lat="50.527561968192458" lon="14.357765028253198">
        <ele>237.58000000000001</ele>
        <time>2013-09-06T07:51:12Z</time>
      </trkpt>
      <trkpt lat="50.527687026187778" lon="14.356601033359766">
        <ele>237.09999999999999</ele>
        <time>2013-09-06T07:51:17Z</time>
      </trkpt>
      <trkpt lat="50.527824992313981" lon="14.353970037773252">
        <ele>234.69999999999999</ele>
        <time>2013-09-06T07:51:26Z</time>
      </trkpt>
      <trkpt lat="50.527540007606149" lon="14.352023005485535">
        <ele>222.68000000000001</ele>
        <time>2013-09-06T07:51:34Z</time>
      </trkpt>
      <trkpt lat="50.527535984292626" lon="14.351628972217441">
        <ele>220.28</ele>
        <time>2013-09-06T07:51:36Z</time>
      </trkpt>
      <trkpt lat="50.527678979560733" lon="14.350361963734031">
        <ele>212.59</ele>
        <time>2013-09-06T07:51:43Z</time>
      </trkpt>
      <trkpt lat="50.527686020359397" lon="14.349975977092981">
        <ele>209.69999999999999</ele>
        <time>2013-09-06T07:51:45Z</time>
      </trkpt>
      <trkpt lat="50.527706975117326" lon="14.34866102412343">
        <ele>203.94</ele>
        <time>2013-09-06T07:51:52Z</time>
      </trkpt>
      <trkpt lat="50.527718039229512" lon="14.348131036385894">
        <ele>202.00999999999999</ele>
        <time>2013-09-06T07:51:55Z</time>
      </trkpt>
      <trkpt lat="50.527698006480932" lon="14.34795300476253">
        <ele>201.53</ele>
        <time>2013-09-06T07:51:56Z</time>
      </trkpt>
      <trkpt lat="50.527627011761069" lon="14.347786037251353">
        <ele>199.61000000000001</ele>
        <time>2013-09-06T07:51:57Z</time>
      </trkpt>
      <trkpt lat="50.527219986543059" lon="14.345918968319893">
        <ele>192.88</ele>
        <time>2013-09-06T07:52:07Z</time>
      </trkpt>
      <trkpt lat="50.52715502679348" lon="14.345386968925595">
        <ele>191.91999999999999</ele>
        <time>2013-09-06T07:52:10Z</time>
      </trkpt>
      <trkpt lat="50.527114039286971" lon="14.345225030556321">
        <ele>191.44</ele>
        <time>2013-09-06T07:52:11Z</time>
      </trkpt>
      <trkpt lat="50.527060981839895" lon="14.345077006146312">
        <ele>191.44</ele>
        <time>2013-09-06T07:52:12Z</time>
      </trkpt>
      <trkpt lat="50.526974983513355" lon="14.344929987564683">
        <ele>190</ele>
        <time>2013-09-06T07:52:13Z</time>
      </trkpt>
      <trkpt lat="50.526898959651589" lon="14.344781963154674">
        <ele>190</ele>
        <time>2013-09-06T07:52:14Z</time>
      </trkpt>
      <trkpt lat="50.526826037093997" lon="14.34462103061378">
        <ele>189.52000000000001</ele>
        <time>2013-09-06T07:52:15Z</time>
      </trkpt>
      <trkpt lat="50.526767028495669" lon="14.344454985111952">
        <ele>189.03999999999999</ele>
        <time>2013-09-06T07:52:16Z</time>
      </trkpt>
      <trkpt lat="50.526337958872318" lon="14.342670980840921">
        <ele>194.31999999999999</ele>
        <time>2013-09-06T07:52:26Z</time>
      </trkpt>
      <trkpt lat="50.525796990841627" lon="14.340921007096767">
        <ele>193.36000000000001</ele>
        <time>2013-09-06T07:52:35Z</time>
      </trkpt>
      <trkpt lat="50.525761032477021" lon="14.340694025158882">
        <ele>192.88</ele>
        <time>2013-09-06T07:52:36Z</time>
      </trkpt>
      <trkpt lat="50.525431958958507" lon="14.339243033900857">
        <ele>190.96000000000001</ele>
        <time>2013-09-06T07:52:42Z</time>
      </trkpt>
      <trkpt lat="50.525322994217277" lon="14.339011022821069">
        <ele>190</ele>
        <time>2013-09-06T07:52:43Z</time>
      </trkpt>
      <trkpt lat="50.525190979242325" lon="14.338797032833099">
        <ele>189.52000000000001</ele>
        <time>2013-09-06T07:52:44Z</time>
      </trkpt>
      <trkpt lat="50.52505100145936" lon="14.338597040623426">
        <ele>190</ele>
        <time>2013-09-06T07:52:45Z</time>
      </trkpt>
      <trkpt lat="50.524907000362873" lon="14.338412974029779">
        <ele>189.52000000000001</ele>
        <time>2013-09-06T07:52:46Z</time>
      </trkpt>
      <trkpt lat="50.524111976847053" lon="14.337495993822813">
        <ele>193.36000000000001</ele>
        <time>2013-09-06T07:52:52Z</time>
      </trkpt>
      <trkpt lat="50.524025978520513" lon="14.337323997169733">
        <ele>194.31999999999999</ele>
        <time>2013-09-06T07:52:53Z</time>
      </trkpt>
      <trkpt lat="50.523980967700481" lon="14.33714303188026">
        <ele>195.28</ele>
        <time>2013-09-06T07:52:54Z</time>
      </trkpt>
      <trkpt lat="50.523963030427694" lon="14.33693096973002">
        <ele>195.28</ele>
        <time>2013-09-06T07:52:55Z</time>
      </trkpt>
      <trkpt lat="50.52395598962903" lon="14.336710022762418">
        <ele>195.77000000000001</ele>
        <time>2013-09-06T07:52:56Z</time>
      </trkpt>
      <trkpt lat="50.523959007114172" lon="14.336480023339391">
        <ele>194.80000000000001</ele>
        <time>2013-09-06T07:52:57Z</time>
      </trkpt>
      <trkpt lat="50.523969987407327" lon="14.336254969239235">
        <ele>194.31999999999999</ele>
        <time>2013-09-06T07:52:58Z</time>
      </trkpt>
      <trkpt lat="50.524012986570597" lon="14.336025975644588">
        <ele>192.88</ele>
        <time>2013-09-06T07:52:59Z</time>
      </trkpt>
      <trkpt lat="50.524068977683783" lon="14.335817014798522">
        <ele>192.40000000000001</ele>
        <time>2013-09-06T07:53:00Z</time>
      </trkpt>
      <trkpt lat="50.524157993495464" lon="14.335632026195526">
        <ele>190.96000000000001</ele>
        <time>2013-09-06T07:53:01Z</time>
      </trkpt>
      <trkpt lat="50.524265030398965" lon="14.335443014279008">
        <ele>189.52000000000001</ele>
        <time>2013-09-06T07:53:02Z</time>
      </trkpt>
      <trkpt lat="50.524359997361898" lon="14.335247967392206">
        <ele>189.52000000000001</ele>
        <time>2013-09-06T07:53:03Z</time>
      </trkpt>
      <trkpt lat="50.52507396787405" lon="14.333799993619323">
        <ele>186.63</ele>
        <time>2013-09-06T07:53:10Z</time>
      </trkpt>
      <trkpt lat="50.525374040007591" lon="14.332840014249086">
        <ele>188.56</ele>
        <time>2013-09-06T07:53:14Z</time>
      </trkpt>
      <trkpt lat="50.525423996150494" lon="14.332586964592338">
        <ele>188.56</ele>
        <time>2013-09-06T07:53:15Z</time>
      </trkpt>
      <trkpt lat="50.52548099309206" lon="14.332329975441098">
        <ele>187.11000000000001</ele>
        <time>2013-09-06T07:53:16Z</time>
      </trkpt>
      <trkpt lat="50.525498008355498" lon="14.332057982683182">
        <ele>185.66999999999999</ele>
        <time>2013-09-06T07:53:17Z</time>
      </trkpt>
      <trkpt lat="50.525497002527118" lon="14.331775009632111">
        <ele>185.66999999999999</ele>
        <time>2013-09-06T07:53:18Z</time>
      </trkpt>
      <trkpt lat="50.525503037497401" lon="14.331492958590388">
        <ele>185.19</ele>
        <time>2013-09-06T07:53:19Z</time>
      </trkpt>
      <trkpt lat="50.525631029158831" lon="14.32795001193881">
        <ele>188.08000000000001</ele>
        <time>2013-09-06T07:53:31Z</time>
      </trkpt>
      <trkpt lat="50.525377979502082" lon="14.325976995751262">
        <ele>190</ele>
        <time>2013-09-06T07:53:38Z</time>
      </trkpt>
      <trkpt lat="50.525273960083723" lon="14.325126986950636">
        <ele>190</ele>
        <time>2013-09-06T07:53:41Z</time>
      </trkpt>
      <trkpt lat="50.525275971740484" lon="14.324857005849481">
        <ele>190.96000000000001</ele>
        <time>2013-09-06T07:53:42Z</time>
      </trkpt>
      <trkpt lat="50.525289969518781" lon="14.324593981727958">
        <ele>191.44</ele>
        <time>2013-09-06T07:53:43Z</time>
      </trkpt>
      <trkpt lat="50.525316959246993" lon="14.324355013668537">
        <ele>192.88</ele>
        <time>2013-09-06T07:53:44Z</time>
      </trkpt>
      <trkpt lat="50.525349983945489" lon="14.324137000367045">
        <ele>192.40000000000001</ele>
        <time>2013-09-06T07:53:45Z</time>
      </trkpt>
      <trkpt lat="50.525387031957507" lon="14.32393298484385">
        <ele>191.44</ele>
        <time>2013-09-06T07:53:46Z</time>
      </trkpt>
      <trkpt lat="50.525704035535455" lon="14.322695983573794">
        <ele>185.66999999999999</ele>
        <time>2013-09-06T07:53:54Z</time>
      </trkpt>
      <trkpt lat="50.525732031092048" lon="14.322531027719378">
        <ele>184.71000000000001</ele>
        <time>2013-09-06T07:53:55Z</time>
      </trkpt>
      <trkpt lat="50.525735970586538" lon="14.322352996096015">
        <ele>183.27000000000001</ele>
        <time>2013-09-06T07:53:56Z</time>
      </trkpt>
      <trkpt lat="50.525733958929777" lon="14.322176976129413">
        <ele>184.22999999999999</ele>
        <time>2013-09-06T07:53:57Z</time>
      </trkpt>
      <trkpt lat="50.525720966979861" lon="14.3219980224967">
        <ele>182.78999999999999</ele>
        <time>2013-09-06T07:53:58Z</time>
      </trkpt>
      <trkpt lat="50.525698000565171" lon="14.321813033893704">
        <ele>183.27000000000001</ele>
        <time>2013-09-06T07:53:59Z</time>
      </trkpt>
      <trkpt lat="50.525665981695056" lon="14.321644976735115">
        <ele>182.31</ele>
        <time>2013-09-06T07:54:00Z</time>
      </trkpt>
      <trkpt lat="50.525619965046644" lon="14.321485972031951">
        <ele>180.87</ele>
        <time>2013-09-06T07:54:01Z</time>
      </trkpt>
      <trkpt lat="50.525550981983542" lon="14.321343982592225">
        <ele>179.41999999999999</ele>
        <time>2013-09-06T07:54:02Z</time>
      </trkpt>
      <trkpt lat="50.525476969778538" lon="14.32122303172946">
        <ele>179.41999999999999</ele>
        <time>2013-09-06T07:54:03Z</time>
      </trkpt>
      <trkpt lat="50.525397006422281" lon="14.321107026189566">
        <ele>178.94</ele>
        <time>2013-09-06T07:54:04Z</time>
      </trkpt>
      <trkpt lat="50.52528603002429" lon="14.320847019553185">
        <ele>177.97999999999999</ele>
        <time>2013-09-06T07:54:06Z</time>
      </trkpt>
      <trkpt lat="50.525277983397245" lon="14.320706035941839">
        <ele>177.02000000000001</ele>
        <time>2013-09-06T07:54:07Z</time>
      </trkpt>
      <trkpt lat="50.52528502419591" lon="14.320547031238675">
        <ele>177.97999999999999</ele>
        <time>2013-09-06T07:54:08Z</time>
      </trkpt>
      <trkpt lat="50.525317965075374" lon="14.320423984900117">
        <ele>177.97999999999999</ele>
        <time>2013-09-06T07:54:09Z</time>
      </trkpt>
      <trkpt lat="50.52539398893714" lon="14.320355001837015">
        <ele>176.53999999999999</ele>
        <time>2013-09-06T07:54:10Z</time>
      </trkpt>
      <trkpt lat="50.525489039719105" lon="14.320314014330506">
        <ele>176.06</ele>
        <time>2013-09-06T07:54:11Z</time>
      </trkpt>
      <trkpt lat="50.525599010288715" lon="14.320271015167236">
        <ele>176.06</ele>
        <time>2013-09-06T07:54:12Z</time>
      </trkpt>
      <trkpt lat="50.525804031640291" lon="14.320154003798962">
        <ele>176.06</ele>
        <time>2013-09-06T07:54:14Z</time>
      </trkpt>
      <trkpt lat="50.525873014703393" lon="14.320032969117165">
        <ele>176.53999999999999</ele>
        <time>2013-09-06T07:54:15Z</time>
      </trkpt>
      <trkpt lat="50.525935040786862" lon="14.319907994940877">
        <ele>176.53999999999999</ele>
        <time>2013-09-06T07:54:16Z</time>
      </trkpt>
      <trkpt lat="50.525978039950132" lon="14.319767011329532">
        <ele>176.06</ele>
        <time>2013-09-06T07:54:17Z</time>
      </trkpt>
      <trkpt lat="50.526012992486358" lon="14.319614963606">
        <ele>176.06</ele>
        <time>2013-09-06T07:54:18Z</time>
      </trkpt>
      <trkpt lat="50.52603998221457" lon="14.319465011358261">
        <ele>176.53999999999999</ele>
        <time>2013-09-06T07:54:19Z</time>
      </trkpt>
      <trkpt lat="50.526058003306389" lon="14.31931396946311">
        <ele>176.06</ele>
        <time>2013-09-06T07:54:20Z</time>
      </trkpt>
      <trkpt lat="50.526053979992867" lon="14.319151025265455">
        <ele>176.06</ele>
        <time>2013-09-06T07:54:21Z</time>
      </trkpt>
      <trkpt lat="50.526031013578176" lon="14.318980034440756">
        <ele>175.58000000000001</ele>
        <time>2013-09-06T07:54:22Z</time>
      </trkpt>
      <trkpt lat="50.526002012193203" lon="14.318804014474154">
        <ele>176.06</ele>
        <time>2013-09-06T07:54:23Z</time>
      </trkpt>
      <trkpt lat="50.525805037468672" lon="14.318126002326608">
        <ele>178.46000000000001</ele>
        <time>2013-09-06T07:54:27Z</time>
      </trkpt>
      <trkpt lat="50.525733958929777" lon="14.31800396181643">
        <ele>178.94</ele>
        <time>2013-09-06T07:54:28Z</time>
      </trkpt>
      <trkpt lat="50.525629017502069" lon="14.317910000681877">
        <ele>179.41999999999999</ele>
        <time>2013-09-06T07:54:29Z</time>
      </trkpt>
      <trkpt lat="50.525517035275698" lon="14.317845962941647">
        <ele>179.90000000000001</ele>
        <time>2013-09-06T07:54:30Z</time>
      </trkpt>
      <trkpt lat="50.525398012250662" lon="14.317784020677209">
        <ele>179.41999999999999</ele>
        <time>2013-09-06T07:54:31Z</time>
      </trkpt>
      <trkpt lat="50.524746989831328" lon="14.317313963547349">
        <ele>181.34999999999999</ele>
        <time>2013-09-06T07:54:36Z</time>
      </trkpt>
      <trkpt lat="50.524632995948195" lon="14.317136015743017">
        <ele>180.87</ele>
        <time>2013-09-06T07:54:37Z</time>
      </trkpt>
      <trkpt lat="50.523946015164256" lon="14.315406996756792">
        <ele>180.38</ele>
        <time>2013-09-06T07:54:44Z</time>
      </trkpt>
      <trkpt lat="50.523801008239388" lon="14.314877009019256">
        <ele>181.34999999999999</ele>
        <time>2013-09-06T07:54:46Z</time>
      </trkpt>
      <trkpt lat="50.523491967469454" lon="14.313515033572912">
        <ele>182.31</ele>
        <time>2013-09-06T07:54:51Z</time>
      </trkpt>
      <trkpt lat="50.52337696775794" lon="14.313278999179602">
        <ele>181.83000000000001</ele>
        <time>2013-09-06T07:54:52Z</time>
      </trkpt>
      <trkpt lat="50.523239001631737" lon="14.313070038333535">
        <ele>181.34999999999999</ele>
        <time>2013-09-06T07:54:53Z</time>
      </trkpt>
      <trkpt lat="50.52307597361505" lon="14.312898041680455">
        <ele>180.87</ele>
        <time>2013-09-06T07:54:54Z</time>
      </trkpt>
      <trkpt lat="50.522906994447112" lon="14.312735013663769">
        <ele>180.38</ele>
        <time>2013-09-06T07:54:55Z</time>
      </trkpt>
      <trkpt lat="50.521517023444176" lon="14.310962995514274">
        <ele>175.09999999999999</ele>
        <time>2013-09-06T07:55:04Z</time>
      </trkpt>
      <trkpt lat="50.521105974912643" lon="14.31041800417006">
        <ele>174.62</ele>
        <time>2013-09-06T07:55:07Z</time>
      </trkpt>
      <trkpt lat="50.520954011008143" lon="14.310312978923321">
        <ele>174.62</ele>
        <time>2013-09-06T07:55:08Z</time>
      </trkpt>
      <trkpt lat="50.520792994648218" lon="14.310250030830503">
        <ele>175.09999999999999</ele>
        <time>2013-09-06T07:55:09Z</time>
      </trkpt>
      <trkpt lat="50.520622003823519" lon="14.310217006132007">
        <ele>175.58000000000001</ele>
        <time>2013-09-06T07:55:10Z</time>
      </trkpt>
      <trkpt lat="50.520441960543394" lon="14.310192028060555">
        <ele>176.06</ele>
        <time>2013-09-06T07:55:11Z</time>
      </trkpt>
      <trkpt lat="50.518528036773205" lon="14.309682995080948">
        <ele>171.72999999999999</ele>
        <time>2013-09-06T07:55:21Z</time>
      </trkpt>
      <trkpt lat="50.517585994675756" lon="14.309437992051244">
        <ele>169.81</ele>
        <time>2013-09-06T07:55:26Z</time>
      </trkpt>
      <trkpt lat="50.517386002466083" lon="14.309459030628204">
        <ele>169.81</ele>
        <time>2013-09-06T07:55:27Z</time>
      </trkpt>
      <trkpt lat="50.51718701608479" lon="14.309528013691306">
        <ele>168.84999999999999</ele>
        <time>2013-09-06T07:55:28Z</time>
      </trkpt>
      <trkpt lat="50.51699398085475" lon="14.309628009796143">
        <ele>168.37</ele>
        <time>2013-09-06T07:55:29Z</time>
      </trkpt>
      <trkpt lat="50.516809998080134" lon="14.30975197814405">
        <ele>168.37</ele>
        <time>2013-09-06T07:55:30Z</time>
      </trkpt>
      <trkpt lat="50.516060991212726" lon="14.310250030830503">
        <ele>167.41</ele>
        <time>2013-09-06T07:55:34Z</time>
      </trkpt>
      <trkpt lat="50.515862004831433" lon="14.310290012508631">
        <ele>167.88999999999999</ele>
        <time>2013-09-06T07:55:35Z</time>
      </trkpt>
      <trkpt lat="50.515660000964999" lon="14.310295041650534">
        <ele>168.37</ele>
        <time>2013-09-06T07:55:36Z</time>
      </trkpt>
      <trkpt lat="50.515057006850839" lon="14.310305016115308">
        <ele>169.81</ele>
        <time>2013-09-06T07:55:39Z</time>
      </trkpt>
      <trkpt lat="50.513868033885956" lon="14.31069502606988">
        <ele>169.81</ele>
        <time>2013-09-06T07:55:45Z</time>
      </trkpt>
      <trkpt lat="50.513694025576115" lon="14.310801979154348">
        <ele>169.81</ele>
        <time>2013-09-06T07:55:46Z</time>
      </trkpt>
      <trkpt lat="50.513508031144738" lon="14.310878003016114">
        <ele>169.81</ele>
        <time>2013-09-06T07:55:47Z</time>
      </trkpt>
      <trkpt lat="50.513323964551091" lon="14.310914967209101">
        <ele>170.28999999999999</ele>
        <time>2013-09-06T07:55:48Z</time>
      </trkpt>
      <trkpt lat="50.513142999261618" lon="14.310940029099584">
        <ele>170.28999999999999</ele>
        <time>2013-09-06T07:55:49Z</time>
      </trkpt>
      <trkpt lat="50.512959016487002" lon="14.310979004949331">
        <ele>170.28999999999999</ele>
        <time>2013-09-06T07:55:50Z</time>
      </trkpt>
      <trkpt lat="50.512779979035258" lon="14.311044970527291">
        <ele>169.81</ele>
        <time>2013-09-06T07:55:51Z</time>
      </trkpt>
      <trkpt lat="50.512603959068656" lon="14.311138009652495">
        <ele>169.33000000000001</ele>
        <time>2013-09-06T07:55:52Z</time>
      </trkpt>
      <trkpt lat="50.511028999462724" lon="14.312380040064454">
        <ele>173.66</ele>
        <time>2013-09-06T07:56:01Z</time>
      </trkpt>
      <trkpt lat="50.510857002809644" lon="14.312461009249091">
        <ele>171.72999999999999</ele>
        <time>2013-09-06T07:56:02Z</time>
      </trkpt>
      <trkpt lat="50.510323997586966" lon="14.312715986743569">
        <ele>171.72999999999999</ele>
        <time>2013-09-06T07:56:05Z</time>
      </trkpt>
      <trkpt lat="50.509631987661123" lon="14.313190989196301">
        <ele>170.77000000000001</ele>
        <time>2013-09-06T07:56:09Z</time>
      </trkpt>
      <trkpt lat="50.509462002664804" lon="14.313216973096132">
        <ele>170.28999999999999</ele>
        <time>2013-09-06T07:56:10Z</time>
      </trkpt>
      <trkpt lat="50.509289000183344" lon="14.313184032216668">
        <ele>170.28999999999999</ele>
        <time>2013-09-06T07:56:11Z</time>
      </trkpt>
      <trkpt lat="50.509121026843786" lon="14.313098033890128">
        <ele>169.33000000000001</ele>
        <time>2013-09-06T07:56:12Z</time>
      </trkpt>
      <trkpt lat="50.508956992998719" lon="14.312964007258415">
        <ele>169.81</ele>
        <time>2013-09-06T07:56:13Z</time>
      </trkpt>
      <trkpt lat="50.508791031315923" lon="14.312785975635052">
        <ele>170.77000000000001</ele>
        <time>2013-09-06T07:56:14Z</time>
      </trkpt>
      <trkpt lat="50.508629009127617" lon="14.312606016173959">
        <ele>169.33000000000001</ele>
        <time>2013-09-06T07:56:15Z</time>
      </trkpt>
      <trkpt lat="50.507098976522684" lon="14.310401994735003">
        <ele>170.77000000000001</ele>
        <time>2013-09-06T07:56:25Z</time>
      </trkpt>
      <trkpt lat="50.506802005693316" lon="14.309937972575426">
        <ele>170.28999999999999</ele>
        <time>2013-09-06T07:56:27Z</time>
      </trkpt>
      <trkpt lat="50.506643000990152" lon="14.309748038649559">
        <ele>169.81</ele>
        <time>2013-09-06T07:56:28Z</time>
      </trkpt>
      <trkpt lat="50.506469998508692" lon="14.309578975662589">
        <ele>168.84999999999999</ele>
        <time>2013-09-06T07:56:29Z</time>
      </trkpt>
      <trkpt lat="50.505784023553133" lon="14.308933988213539">
        <ele>168.84999999999999</ele>
        <time>2013-09-06T07:56:33Z</time>
      </trkpt>
      <trkpt lat="50.505644967779517" lon="14.308724021539092">
        <ele>168.84999999999999</ele>
        <time>2013-09-06T07:56:34Z</time>
      </trkpt>
      <trkpt lat="50.505527034401894" lon="14.30848304182291">
        <ele>169.33000000000001</ele>
        <time>2013-09-06T07:56:35Z</time>
      </trkpt>
      <trkpt lat="50.505413040518761" lon="14.308221023529768">
        <ele>169.33000000000001</ele>
        <time>2013-09-06T07:56:36Z</time>
      </trkpt>
      <trkpt lat="50.505310026928782" lon="14.30794601328671">
        <ele>169.81</ele>
        <time>2013-09-06T07:56:37Z</time>
      </trkpt>
      <trkpt lat="50.504944995045662" lon="14.306782018393278">
        <ele>168.37</ele>
        <time>2013-09-06T07:56:41Z</time>
      </trkpt>
      <trkpt lat="50.504885986447334" lon="14.306479012593627">
        <ele>167.88999999999999</ele>
        <time>2013-09-06T07:56:42Z</time>
      </trkpt>
      <trkpt lat="50.504856985062361" lon="14.306162009015679">
        <ele>167.88999999999999</ele>
        <time>2013-09-06T07:56:43Z</time>
      </trkpt>
      <trkpt lat="50.504852961748838" lon="14.305831007659435">
        <ele>167.41</ele>
        <time>2013-09-06T07:56:44Z</time>
      </trkpt>
      <trkpt lat="50.5048549734056" lon="14.305499000474811">
        <ele>167.41</ele>
        <time>2013-09-06T07:56:45Z</time>
      </trkpt>
      <trkpt lat="50.504840975627303" lon="14.304839009419084">
        <ele>167.88999999999999</ele>
        <time>2013-09-06T07:56:47Z</time>
      </trkpt>
      <trkpt lat="50.504804011434317" lon="14.304513959214091">
        <ele>167.41</ele>
        <time>2013-09-06T07:56:48Z</time>
      </trkpt>
      <trkpt lat="50.504748020321131" lon="14.304201984778047">
        <ele>166.93000000000001</ele>
        <time>2013-09-06T07:56:49Z</time>
      </trkpt>
      <trkpt lat="50.504665039479733" lon="14.303910965099931">
        <ele>166.44999999999999</ele>
        <time>2013-09-06T07:56:50Z</time>
      </trkpt>
      <trkpt lat="50.504555990919471" lon="14.303636038675904">
        <ele>166.44999999999999</ele>
        <time>2013-09-06T07:56:51Z</time>
      </trkpt>
      <trkpt lat="50.504434034228325" lon="14.30337100289762">
        <ele>166.44999999999999</ele>
        <time>2013-09-06T07:56:52Z</time>
      </trkpt>
      <trkpt lat="50.503299962729216" lon="14.301009988412261">
        <ele>169.33000000000001</ele>
        <time>2013-09-06T07:57:02Z</time>
      </trkpt>
      <trkpt lat="50.503237014636397" lon="14.300799015909433">
        <ele>168.84999999999999</ele>
        <time>2013-09-06T07:57:03Z</time>
      </trkpt>
      <trkpt lat="50.503196027129889" lon="14.300596006214619">
        <ele>168.37</ele>
        <time>2013-09-06T07:57:04Z</time>
      </trkpt>
      <trkpt lat="50.503171971067786" lon="14.300418980419636">
        <ele>167.41</ele>
        <time>2013-09-06T07:57:05Z</time>
      </trkpt>
      <trkpt lat="50.503124026581645" lon="14.300042968243361">
        <ele>168.37</ele>
        <time>2013-09-06T07:57:08Z</time>
      </trkpt>
      <trkpt lat="50.503095025196671" lon="14.299965016543865">
        <ele>168.84999999999999</ele>
        <time>2013-09-06T07:57:09Z</time>
      </trkpt>
      <trkpt lat="50.503048002719879" lon="14.299902990460396">
        <ele>167.88999999999999</ele>
        <time>2013-09-06T07:57:10Z</time>
      </trkpt>
      <trkpt lat="50.502980025485158" lon="14.299842976033688">
        <ele>167.41</ele>
        <time>2013-09-06T07:57:11Z</time>
      </trkpt>
      <trkpt lat="50.502919005230069" lon="14.299771981313825">
        <ele>167.41</ele>
        <time>2013-09-06T07:57:12Z</time>
      </trkpt>
      <trkpt lat="50.502882041037083" lon="14.299676008522511">
        <ele>167.41</ele>
        <time>2013-09-06T07:57:13Z</time>
      </trkpt>
      <trkpt lat="50.502855973318219" lon="14.299570983275771">
        <ele>166.44999999999999</ele>
        <time>2013-09-06T07:57:14Z</time>
      </trkpt>
      <trkpt lat="50.502812974154949" lon="14.298206996172667">
        <ele>167.88999999999999</ele>
        <time>2013-09-06T07:57:22Z</time>
      </trkpt>
      <trkpt lat="50.502694034948945" lon="14.296110011637211">
        <ele>163.08000000000001</ele>
        <time>2013-09-06T07:57:31Z</time>
      </trkpt>
      <trkpt lat="50.502561014145613" lon="14.29537802003324">
        <ele>164.03999999999999</ele>
        <time>2013-09-06T07:57:35Z</time>
      </trkpt>
      <trkpt lat="50.502514997497201" lon="14.295244999229908">
        <ele>165</ele>
        <time>2013-09-06T07:57:36Z</time>
      </trkpt>
      <trkpt lat="50.502378959208727" lon="14.294835962355137">
        <ele>164.52000000000001</ele>
        <time>2013-09-06T07:57:39Z</time>
      </trkpt>
      <trkpt lat="50.501919966191053" lon="14.293167041614652">
        <ele>166.93000000000001</ele>
        <time>2013-09-06T07:57:49Z</time>
      </trkpt>
      <trkpt lat="50.501860035583377" lon="14.292835034430027">
        <ele>168.84999999999999</ele>
        <time>2013-09-06T07:57:51Z</time>
      </trkpt>
      <trkpt lat="50.501844026148319" lon="14.292658008635044">
        <ele>168.37</ele>
        <time>2013-09-06T07:57:52Z</time>
      </trkpt>
      <trkpt lat="50.501836985349655" lon="14.2924789711833">
        <ele>168.84999999999999</ele>
        <time>2013-09-06T07:57:53Z</time>
      </trkpt>
      <trkpt lat="50.501951985061169" lon="14.290552977472544">
        <ele>167.88999999999999</ele>
        <time>2013-09-06T07:58:03Z</time>
      </trkpt>
      <trkpt lat="50.502301007509232" lon="14.288528999313712">
        <ele>165.47999999999999</ele>
        <time>2013-09-06T07:58:14Z</time>
      </trkpt>
      <trkpt lat="50.502397986128926" lon="14.287221003323793">
        <ele>162.59999999999999</ele>
        <time>2013-09-06T07:58:21Z</time>
      </trkpt>
      <trkpt lat="50.502436039969325" lon="14.287078008055687">
        <ele>162.59999999999999</ele>
        <time>2013-09-06T07:58:22Z</time>
      </trkpt>
      <trkpt lat="50.502497982233763" lon="14.286966025829315">
        <ele>163.08000000000001</ele>
        <time>2013-09-06T07:58:23Z</time>
      </trkpt>
      <trkpt lat="50.50259898416698" lon="14.286886984482408">
        <ele>162.59999999999999</ele>
        <time>2013-09-06T07:58:24Z</time>
      </trkpt>
      <trkpt lat="50.502696968615055" lon="14.286816995590925">
        <ele>163.08000000000001</ele>
        <time>2013-09-06T07:58:25Z</time>
      </trkpt>
      <trkpt lat="50.502897966653109" lon="14.286615997552872">
        <ele>163.56</ele>
        <time>2013-09-06T07:58:27Z</time>
      </trkpt>
      <trkpt lat="50.502998968586326" lon="14.286494040861726">
        <ele>161.63999999999999</ele>
        <time>2013-09-06T07:58:28Z</time>
      </trkpt>
      <trkpt lat="50.503096031025052" lon="14.28635498508811">
        <ele>161.16</ele>
        <time>2013-09-06T07:58:29Z</time>
      </trkpt>
      <trkpt lat="50.503171971067786" lon="14.286189023405313">
        <ele>160.68000000000001</ele>
        <time>2013-09-06T07:58:30Z</time>
      </trkpt>
      <trkpt lat="50.503245983272791" lon="14.286016020923853">
        <ele>160.68000000000001</ele>
        <time>2013-09-06T07:58:31Z</time>
      </trkpt>
      <trkpt lat="50.50401502288878" lon="14.284117016941309">
        <ele>160.68000000000001</ele>
        <time>2013-09-06T07:58:40Z</time>
      </trkpt>
      <trkpt lat="50.505330981686711" lon="14.280913034453988">
        <ele>160.19999999999999</ele>
        <time>2013-09-06T07:58:52Z</time>
      </trkpt>
      <trkpt lat="50.506956987082958" lon="14.277429012581706">
        <ele>160.68000000000001</ele>
        <time>2013-09-06T07:59:05Z</time>
      </trkpt>
      <trkpt lat="50.507928030565381" lon="14.275543000549078">
        <ele>161.16</ele>
        <time>2013-09-06T07:59:13Z</time>
      </trkpt>
      <trkpt lat="50.508389035239816" lon="14.273918000981212">
        <ele>162.59999999999999</ele>
        <time>2013-09-06T07:59:21Z</time>
      </trkpt>
      <trkpt lat="50.509005021303892" lon="14.271709034219384">
        <ele>163.56</ele>
        <time>2013-09-06T07:59:33Z</time>
      </trkpt>
      <trkpt lat="50.509614972397685" lon="14.269753033295274">
        <ele>162.59999999999999</ele>
        <time>2013-09-06T07:59:44Z</time>
      </trkpt>
      <trkpt lat="50.510389041155577" lon="14.268126022070646">
        <ele>163.08000000000001</ele>
        <time>2013-09-06T07:59:54Z</time>
      </trkpt>
      <trkpt lat="50.510734962299466" lon="14.267005026340485">
        <ele>163.56</ele>
        <time>2013-09-06T08:00:00Z</time>
      </trkpt>
      <trkpt lat="50.510816015303135" lon="14.26684501580894">
        <ele>164.03999999999999</ele>
        <time>2013-09-06T08:00:01Z</time>
      </trkpt>
      <trkpt lat="50.511093959212303" lon="14.266379987820983">
        <ele>163.08000000000001</ele>
        <time>2013-09-06T08:00:04Z</time>
      </trkpt>
      <trkpt lat="50.511178029701114" lon="14.266199022531509">
        <ele>163.08000000000001</ele>
        <time>2013-09-06T08:00:05Z</time>
      </trkpt>
      <trkpt lat="50.511243995279074" lon="14.266013028100133">
        <ele>163.56</ele>
        <time>2013-09-06T08:00:06Z</time>
      </trkpt>
      <trkpt lat="50.512219984084368" lon="14.26287199370563">
        <ele>162.59999999999999</ele>
        <time>2013-09-06T08:00:22Z</time>
      </trkpt>
      <trkpt lat="50.512677971273661" lon="14.261446986347437">
        <ele>159.72</ele>
        <time>2013-09-06T08:00:30Z</time>
      </trkpt>
      <trkpt lat="50.512733040377498" lon="14.261365011334419">
        <ele>159.24000000000001</ele>
        <time>2013-09-06T08:00:31Z</time>
      </trkpt>
      <trkpt lat="50.512800011783838" lon="14.261340033262968">
        <ele>159.24000000000001</ele>
        <time>2013-09-06T08:00:32Z</time>
      </trkpt>
      <trkpt lat="50.512875029817224" lon="14.261360988020897">
        <ele>159.24000000000001</ele>
        <time>2013-09-06T08:00:33Z</time>
      </trkpt>
      <trkpt lat="50.512950969859958" lon="14.261387977749109">
        <ele>158.75</ele>
        <time>2013-09-06T08:00:34Z</time>
      </trkpt>
      <trkpt lat="50.513207959011197" lon="14.261433994397521">
        <ele>159.72</ele>
        <time>2013-09-06T08:00:37Z</time>
      </trkpt>
      <trkpt lat="50.513297980651259" lon="14.261331986635923">
        <ele>160.68000000000001</ele>
        <time>2013-09-06T08:00:38Z</time>
      </trkpt>
      <trkpt lat="50.513369981199503" lon="14.261197037994862">
        <ele>161.63999999999999</ele>
        <time>2013-09-06T08:00:39Z</time>
      </trkpt>
      <trkpt lat="50.513987978920341" lon="14.260194981470704">
        <ele>162.59999999999999</ele>
        <time>2013-09-06T08:00:45Z</time>
      </trkpt>
      <trkpt lat="50.515123978257179" lon="14.258920010179281">
        <ele>159.72</ele>
        <time>2013-09-06T08:00:53Z</time>
      </trkpt>
      <trkpt lat="50.516254026442766" lon="14.256863007321954">
        <ele>161.16</ele>
        <time>2013-09-06T08:01:02Z</time>
      </trkpt>
      <trkpt lat="50.517105041071773" lon="14.254549015313387">
        <ele>160.68000000000001</ele>
        <time>2013-09-06T08:01:11Z</time>
      </trkpt>
      <trkpt lat="50.517219034954906" lon="14.254370983690023">
        <ele>161.16</ele>
        <time>2013-09-06T08:01:12Z</time>
      </trkpt>
      <trkpt lat="50.517352977767587" lon="14.254227988421917">
        <ele>161.16</ele>
        <time>2013-09-06T08:01:13Z</time>
      </trkpt>
      <trkpt lat="50.517493039369583" lon="14.254102008417249">
        <ele>161.63999999999999</ele>
        <time>2013-09-06T08:01:14Z</time>
      </trkpt>
      <trkpt lat="50.518986023962498" lon="14.253029963001609">
        <ele>165.96000000000001</ele>
        <time>2013-09-06T08:01:23Z</time>
      </trkpt>
      <trkpt lat="50.521063981577754" lon="14.252237034961581">
        <ele>170.28999999999999</ele>
        <time>2013-09-06T08:01:34Z</time>
      </trkpt>
      <trkpt lat="50.523658012971282" lon="14.251406975090504">
        <ele>178.94</ele>
        <time>2013-09-06T08:01:48Z</time>
      </trkpt>
      <trkpt lat="50.524166962131858" lon="14.251143028959632">
        <ele>182.78999999999999</ele>
        <time>2013-09-06T08:01:52Z</time>
      </trkpt>
      <trkpt lat="50.524247009307146" lon="14.251030962914228">
        <ele>183.27000000000001</ele>
        <time>2013-09-06T08:01:53Z</time>
      </trkpt>
      <trkpt lat="50.524287996813655" lon="14.25086198374629">
        <ele>184.22999999999999</ele>
        <time>2013-09-06T08:01:54Z</time>
      </trkpt>
      <trkpt lat="50.524297971278429" lon="14.250683030113578">
        <ele>185.19</ele>
        <time>2013-09-06T08:01:55Z</time>
      </trkpt>
      <trkpt lat="50.524289002642035" lon="14.250485971570015">
        <ele>186.63</ele>
        <time>2013-09-06T08:01:56Z</time>
      </trkpt>
      <trkpt lat="50.524254972115159" lon="14.25027902238071">
        <ele>187.59</ele>
        <time>2013-09-06T08:01:57Z</time>
      </trkpt>
      <trkpt lat="50.524069983512163" lon="14.247956983745098">
        <ele>190</ele>
        <time>2013-09-06T08:02:07Z</time>
      </trkpt>
      <trkpt lat="50.524012986570597" lon="14.246688969433308">
        <ele>188.56</ele>
        <time>2013-09-06T08:02:13Z</time>
      </trkpt>
      <trkpt lat="50.52404198795557" lon="14.246196029707789">
        <ele>187.59</ele>
        <time>2013-09-06T08:02:16Z</time>
      </trkpt>
      <trkpt lat="50.524125974625349" lon="14.245248958468437">
        <ele>186.15000000000001</ele>
        <time>2013-09-06T08:02:21Z</time>
      </trkpt>
      <trkpt lat="50.524124968796968" lon="14.245018037036061">
        <ele>185.19</ele>
        <time>2013-09-06T08:02:22Z</time>
      </trkpt>
      <trkpt lat="50.524094039574265" lon="14.244788037613034">
        <ele>184.71000000000001</ele>
        <time>2013-09-06T08:02:23Z</time>
      </trkpt>
      <trkpt lat="50.52404098212719" lon="14.244568012654781">
        <ele>183.75</ele>
        <time>2013-09-06T08:02:24Z</time>
      </trkpt>
      <trkpt lat="50.523958001285791" lon="14.244358967989683">
        <ele>183.27000000000001</ele>
        <time>2013-09-06T08:02:25Z</time>
      </trkpt>
      <trkpt lat="50.523854987695813" lon="14.244171967729926">
        <ele>182.78999999999999</ele>
        <time>2013-09-06T08:02:26Z</time>
      </trkpt>
      <trkpt lat="50.523743005469441" lon="14.243968036025763">
        <ele>182.78999999999999</ele>
        <time>2013-09-06T08:02:27Z</time>
      </trkpt>
      <trkpt lat="50.523386020213366" lon="14.243119033053517">
        <ele>181.83000000000001</ele>
        <time>2013-09-06T08:02:31Z</time>
      </trkpt>
      <trkpt lat="50.523097012192011" lon="14.241288006305695">
        <ele>174.62</ele>
        <time>2013-09-06T08:02:38Z</time>
      </trkpt>
      <trkpt lat="50.522829964756966" lon="14.238466992974281">
        <ele>164.03999999999999</ele>
        <time>2013-09-06T08:02:48Z</time>
      </trkpt>
      <trkpt lat="50.522656040266156" lon="14.237028993666172">
        <ele>156.83000000000001</ele>
        <time>2013-09-06T08:02:54Z</time>
      </trkpt>
      <trkpt lat="50.522673977538943" lon="14.236805029213428">
        <ele>155.87</ele>
        <time>2013-09-06T08:02:55Z</time>
      </trkpt>
      <trkpt lat="50.522712031379342" lon="14.23659598454833">
        <ele>156.34999999999999</ele>
        <time>2013-09-06T08:02:56Z</time>
      </trkpt>
      <trkpt lat="50.523154009133577" lon="14.235007027164102">
        <ele>152.03</ele>
        <time>2013-09-06T08:03:03Z</time>
      </trkpt>
      <trkpt lat="50.52339599467814" lon="14.233026970177889">
        <ele>148.66</ele>
        <time>2013-09-06T08:03:12Z</time>
      </trkpt>
      <trkpt lat="50.523398006334901" lon="14.232884980738163">
        <ele>150.09999999999999</ele>
        <time>2013-09-06T08:03:13Z</time>
      </trkpt>
      <trkpt lat="50.52339700050652" lon="14.232765035703778">
        <ele>150.09999999999999</ele>
        <time>2013-09-06T08:03:14Z</time>
      </trkpt>
      <trkpt lat="50.523399012163281" lon="14.232669984921813">
        <ele>150.09999999999999</ele>
        <time>2013-09-06T08:03:15Z</time>
      </trkpt>
      <trkpt lat="50.523369004949927" lon="14.232441997155547">
        <ele>148.66</ele>
        <time>2013-09-06T08:03:22Z</time>
      </trkpt>
      <trkpt lat="50.523299016058445" lon="14.231972023844719">
        <ele>150.09999999999999</ele>
        <time>2013-09-06T08:03:30Z</time>
      </trkpt>
      <trkpt lat="50.523321982473135" lon="14.231816036626697">
        <ele>150.09999999999999</ele>
        <time>2013-09-06T08:03:31Z</time>
      </trkpt>
      <trkpt lat="50.523358024656773" lon="14.231649991124868">
        <ele>150.09999999999999</ele>
        <time>2013-09-06T08:03:32Z</time>
      </trkpt>
      <trkpt lat="50.523409992456436" lon="14.231474976986647">
        <ele>149.62</ele>
        <time>2013-09-06T08:03:33Z</time>
      </trkpt>
      <trkpt lat="50.523835038766265" lon="14.229657026007771">
        <ele>151.53999999999999</ele>
        <time>2013-09-06T08:03:41Z</time>
      </trkpt>
      <trkpt lat="50.523909972980618" lon="14.229148998856544">
        <ele>151.06</ele>
        <time>2013-09-06T08:03:43Z</time>
      </trkpt>
      <trkpt lat="50.523901004344225" lon="14.228882035240531">
        <ele>151.53999999999999</ele>
        <time>2013-09-06T08:03:44Z</time>
      </trkpt>
      <trkpt lat="50.523877032101154" lon="14.228613981977105">
        <ele>151.53999999999999</ele>
        <time>2013-09-06T08:03:45Z</time>
      </trkpt>
      <trkpt lat="50.523633034899831" lon="14.225693978369236">
        <ele>151.06</ele>
        <time>2013-09-06T08:03:55Z</time>
      </trkpt>
      <trkpt lat="50.523687014356256" lon="14.223845014348626">
        <ele>148.18000000000001</ele>
        <time>2013-09-06T08:04:03Z</time>
      </trkpt>
      <trkpt lat="50.523894969373941" lon="14.220454031601548">
        <ele>145.78</ele>
        <time>2013-09-06T08:04:19Z</time>
      </trkpt>
      <trkpt lat="50.524167967960238" lon="14.217274021357298">
        <ele>146.25999999999999</ele>
        <time>2013-09-06T08:04:34Z</time>
      </trkpt>
      <trkpt lat="50.524078030139208" lon="14.215984968468547">
        <ele>146.74000000000001</ele>
        <time>2013-09-06T08:04:42Z</time>
      </trkpt>
      <trkpt lat="50.524027990177274" lon="14.215677017346025">
        <ele>146.25999999999999</ele>
        <time>2013-09-06T08:04:45Z</time>
      </trkpt>
      <trkpt lat="50.523993959650397" lon="14.215596970170736">
        <ele>145.30000000000001</ele>
        <time>2013-09-06T08:04:46Z</time>
      </trkpt>
      <trkpt lat="50.52393201738596" lon="14.215527987107635">
        <ele>144.81999999999999</ele>
        <time>2013-09-06T08:04:47Z</time>
      </trkpt>
      <trkpt lat="50.523854987695813" lon="14.215477025136352">
        <ele>144.81999999999999</ele>
        <time>2013-09-06T08:04:48Z</time>
      </trkpt>
      <trkpt lat="50.523764966055751" lon="14.215440982952714">
        <ele>144.81999999999999</ele>
        <time>2013-09-06T08:04:49Z</time>
      </trkpt>
      <trkpt lat="50.523668993264437" lon="14.215409969910979">
        <ele>144.81999999999999</ele>
        <time>2013-09-06T08:04:50Z</time>
      </trkpt>
      <trkpt lat="50.522679006680846" lon="14.215093972161412">
        <ele>142.41</ele>
        <time>2013-09-06T08:05:00Z</time>
      </trkpt>
      <trkpt lat="50.522571969777346" lon="14.215035969391465">
        <ele>143.84999999999999</ele>
        <time>2013-09-06T08:05:02Z</time>
      </trkpt>
      <trkpt lat="50.522532993927598" lon="14.214986013248563">
        <ele>143.84999999999999</ele>
        <time>2013-09-06T08:05:03Z</time>
      </trkpt>
      <trkpt lat="50.522526036947966" lon="14.214912001043558">
        <ele>146.25999999999999</ele>
        <time>2013-09-06T08:05:04Z</time>
      </trkpt>
      <trkpt lat="50.522535005584359" lon="14.214819967746735">
        <ele>147.69999999999999</ele>
        <time>2013-09-06T08:05:05Z</time>
      </trkpt>
      <trkpt lat="50.52255998365581" lon="14.214713014662266">
        <ele>147.22</ele>
        <time>2013-09-06T08:05:06Z</time>
      </trkpt>
      <trkpt lat="50.522610023617744" lon="14.214591979980469">
        <ele>146.74000000000001</ele>
        <time>2013-09-06T08:05:07Z</time>
      </trkpt>
      <trkpt lat="50.522647993639112" lon="14.214453008025885">
        <ele>146.25999999999999</ele>
        <time>2013-09-06T08:05:08Z</time>
      </trkpt>
      <trkpt lat="50.523036997765303" lon="14.212564984336495">
        <ele>151.06</ele>
        <time>2013-09-06T08:05:19Z</time>
      </trkpt>
      <trkpt lat="50.523660024628043" lon="14.209895012900233">
        <ele>150.58000000000001</ele>
        <time>2013-09-06T08:05:33Z</time>
      </trkpt>
      <trkpt lat="50.524397967383265" lon="14.206739980727434">
        <ele>149.62</ele>
        <time>2013-09-06T08:05:46Z</time>
      </trkpt>
      <trkpt lat="50.524795018136501" lon="14.204880958423018">
        <ele>152.50999999999999</ele>
        <time>2013-09-06T08:05:55Z</time>
      </trkpt>
      <trkpt lat="50.524822007864714" lon="14.204740980640054">
        <ele>152.50999999999999</ele>
        <time>2013-09-06T08:05:56Z</time>
      </trkpt>
      <trkpt lat="50.524875987321138" lon="14.204622963443398">
        <ele>152.99000000000001</ele>
        <time>2013-09-06T08:05:57Z</time>
      </trkpt>
      <trkpt lat="50.524946982041001" lon="14.204530008137226">
        <ele>153.47</ele>
        <time>2013-09-06T08:05:58Z</time>
      </trkpt>
      <trkpt lat="50.525107998400927" lon="14.204244017601013">
        <ele>153.94999999999999</ele>
        <time>2013-09-06T08:06:01Z</time>
      </trkpt>
      <trkpt lat="50.525130964815617" lon="14.204112002626061">
        <ele>153.94999999999999</ele>
        <time>2013-09-06T08:06:02Z</time>
      </trkpt>
      <trkpt lat="50.52520195953548" lon="14.203634988516569">
        <ele>153.47</ele>
        <time>2013-09-06T08:06:05Z</time>
      </trkpt>
      <trkpt lat="50.525246970355511" lon="14.203474977985024">
        <ele>152.99000000000001</ele>
        <time>2013-09-06T08:06:06Z</time>
      </trkpt>
      <trkpt lat="50.525304973125458" lon="14.203317984938622">
        <ele>153.47</ele>
        <time>2013-09-06T08:06:07Z</time>
      </trkpt>
      <trkpt lat="50.525858011096716" lon="14.201469020918012">
        <ele>150.09999999999999</ele>
        <time>2013-09-06T08:06:18Z</time>
      </trkpt>
      <trkpt lat="50.526206027716398" lon="14.199505979195237">
        <ele>156.34999999999999</ele>
        <time>2013-09-06T08:06:29Z</time>
      </trkpt>
      <trkpt lat="50.526251960545778" lon="14.199148993939161">
        <ele>158.27000000000001</ele>
        <time>2013-09-06T08:06:31Z</time>
      </trkpt>
      <trkpt lat="50.526558989658952" lon="14.196921000257134">
        <ele>163.56</ele>
        <time>2013-09-06T08:06:43Z</time>
      </trkpt>
      <trkpt lat="50.526774991303682" lon="14.194103004410863">
        <ele>159.72</ele>
        <time>2013-09-06T08:06:57Z</time>
      </trkpt>
      <trkpt lat="50.526798041537404" lon="14.193904018029571">
        <ele>160.19999999999999</ele>
        <time>2013-09-06T08:06:58Z</time>
      </trkpt>
      <trkpt lat="50.527142034843564" lon="14.191694967448711">
        <ele>159.24000000000001</ele>
        <time>2013-09-06T08:07:07Z</time>
      </trkpt>
      <trkpt lat="50.527544030919671" lon="14.18921903707087">
        <ele>159.24000000000001</ele>
        <time>2013-09-06T08:07:17Z</time>
      </trkpt>
      <trkpt lat="50.528289014473557" lon="14.186789961531758">
        <ele>157.78999999999999</ele>
        <time>2013-09-06T08:07:27Z</time>
      </trkpt>
      <trkpt lat="50.529114967212081" lon="14.183855960145593">
        <ele>160.68000000000001</ele>
        <time>2013-09-06T08:07:38Z</time>
      </trkpt>
      <trkpt lat="50.530068995431066" lon="14.179753018543124">
        <ele>159.72</ele>
        <time>2013-09-06T08:07:53Z</time>
      </trkpt>
      <trkpt lat="50.530215008184314" lon="14.179240968078375">
        <ele>159.24000000000001</ele>
        <time>2013-09-06T08:07:55Z</time>
      </trkpt>
      <trkpt lat="50.530307041481137" lon="14.178999988362193">
        <ele>159.24000000000001</ele>
        <time>2013-09-06T08:07:56Z</time>
      </trkpt>
      <trkpt lat="50.531408004462719" lon="14.176334962248802">
        <ele>155.38999999999999</ele>
        <time>2013-09-06T08:08:07Z</time>
      </trkpt>
      <trkpt lat="50.532621033489704" lon="14.173280009999871">
        <ele>157.31</ele>
        <time>2013-09-06T08:08:19Z</time>
      </trkpt>
      <trkpt lat="50.532920015975833" lon="14.17095503769815">
        <ele>156.34999999999999</ele>
        <time>2013-09-06T08:08:27Z</time>
      </trkpt>
      <trkpt lat="50.532739972695708" lon="14.168234020471573">
        <ele>155.38999999999999</ele>
        <time>2013-09-06T08:08:36Z</time>
      </trkpt>
      <trkpt lat="50.532636037096381" lon="14.166794009506702">
        <ele>155.38999999999999</ele>
        <time>2013-09-06T08:08:41Z</time>
      </trkpt>
      <trkpt lat="50.532045029103756" lon="14.164439029991627">
        <ele>152.99000000000001</ele>
        <time>2013-09-06T08:08:50Z</time>
      </trkpt>
      <trkpt lat="50.53164697252214" lon="14.162242971360683">
        <ele>147.69999999999999</ele>
        <time>2013-09-06T08:08:59Z</time>
      </trkpt>
      <trkpt lat="50.531643033027649" lon="14.162013977766037">
        <ele>148.66</ele>
        <time>2013-09-06T08:09:00Z</time>
      </trkpt>
      <trkpt lat="50.531909996643662" lon="14.159235963597894">
        <ele>152.99000000000001</ele>
        <time>2013-09-06T08:09:12Z</time>
      </trkpt>
      <trkpt lat="50.531959030777216" lon="14.15851503610611">
        <ele>155.87</ele>
        <time>2013-09-06T08:09:15Z</time>
      </trkpt>
      <trkpt lat="50.532336970791221" lon="14.15669297799468">
        <ele>156.83000000000001</ele>
        <time>2013-09-06T08:09:23Z</time>
      </trkpt>
      <trkpt lat="50.532747013494372" lon="14.154566992074251">
        <ele>154.43000000000001</ele>
        <time>2013-09-06T08:09:32Z</time>
      </trkpt>
      <trkpt lat="50.533321006223559" lon="14.151954017579556">
        <ele>154.91</ele>
        <time>2013-09-06T08:09:43Z</time>
      </trkpt>
      <trkpt lat="50.533585036173463" lon="14.149217996746302">
        <ele>151.53999999999999</ele>
        <time>2013-09-06T08:09:54Z</time>
      </trkpt>
      <trkpt lat="50.53385803475976" lon="14.147273981943727">
        <ele>151.53999999999999</ele>
        <time>2013-09-06T08:10:03Z</time>
      </trkpt>
      <trkpt lat="50.533991977572441" lon="14.146273015066981">
        <ele>152.99000000000001</ele>
        <time>2013-09-06T08:10:08Z</time>
      </trkpt>
      <trkpt lat="50.534085016697645" lon="14.144356995820999">
        <ele>163.56</ele>
        <time>2013-09-06T08:10:18Z</time>
      </trkpt>
      <trkpt lat="50.534133967012167" lon="14.142503002658486">
        <ele>163.56</ele>
        <time>2013-09-06T08:10:28Z</time>
      </trkpt>
      <trkpt lat="50.534162968397141" lon="14.142392026260495">
        <ele>163.56</ele>
        <time>2013-09-06T08:10:29Z</time>
      </trkpt>
      <trkpt lat="50.534191969782114" lon="14.142313990741968">
        <ele>163.08000000000001</ele>
        <time>2013-09-06T08:10:30Z</time>
      </trkpt>
      <trkpt lat="50.534217031672597" lon="14.142262022942305">
        <ele>163.08000000000001</ele>
        <time>2013-09-06T08:10:31Z</time>
      </trkpt>
      <trkpt lat="50.534233963117003" lon="14.142227992415428">
        <ele>163.08000000000001</ele>
        <time>2013-09-06T08:10:32Z</time>
      </trkpt>
      <trkpt lat="50.534247038885951" lon="14.142202008515596">
        <ele>163.56</ele>
        <time>2013-09-06T08:10:33Z</time>
      </trkpt>
      <trkpt lat="50.53426799364388" lon="14.142190022394061">
        <ele>162.12</ele>
        <time>2013-09-06T08:10:34Z</time>
      </trkpt>
      <trkpt lat="50.53431099280715" lon="14.142159009352326">
        <ele>162.12</ele>
        <time>2013-09-06T08:10:47Z</time>
      </trkpt>
      <trkpt lat="50.534444013610482" lon="14.142058007419109">
        <ele>162.59999999999999</ele>
        <time>2013-09-06T08:11:03Z</time>
      </trkpt>
      <trkpt lat="50.534463040530682" lon="14.142007967457175">
        <ele>162.59999999999999</ele>
        <time>2013-09-06T08:11:04Z</time>
      </trkpt>
      <trkpt lat="50.534448958933353" lon="14.141929009929299">
        <ele>162.12</ele>
        <time>2013-09-06T08:11:05Z</time>
      </trkpt>
      <trkpt lat="50.53443999029696" lon="14.141836976632476">
        <ele>162.12</ele>
        <time>2013-09-06T08:11:06Z</time>
      </trkpt>
      <trkpt lat="50.534422975033522" lon="14.141743015497923">
        <ele>161.63999999999999</ele>
        <time>2013-09-06T08:11:07Z</time>
      </trkpt>
      <trkpt lat="50.534407971426845" lon="14.141627009958029">
        <ele>161.16</ele>
        <time>2013-09-06T08:11:08Z</time>
      </trkpt>
      <trkpt lat="50.534385005012155" lon="14.141396004706621">
        <ele>160.68000000000001</ele>
        <time>2013-09-06T08:11:10Z</time>
      </trkpt>
      <trkpt lat="50.534285008907318" lon="14.139791959896684">
        <ele>157.78999999999999</ele>
        <time>2013-09-06T08:11:22Z</time>
      </trkpt>
      <trkpt lat="50.534142013639212" lon="14.138168971985579">
        <ele>153.94999999999999</ele>
        <time>2013-09-06T08:11:33Z</time>
      </trkpt>
      <trkpt lat="50.534092979505658" lon="14.13810602389276">
        <ele>153.94999999999999</ele>
        <time>2013-09-06T08:11:34Z</time>
      </trkpt>
      <trkpt lat="50.534043023362756" lon="14.138121027499437">
        <ele>152.99000000000001</ele>
        <time>2013-09-06T08:11:35Z</time>
      </trkpt>
      <trkpt lat="50.533993989229202" lon="14.138193028047681">
        <ele>152.03</ele>
        <time>2013-09-06T08:11:36Z</time>
      </trkpt>
      <trkpt lat="50.533940009772778" lon="14.138275003060699">
        <ele>151.06</ele>
        <time>2013-09-06T08:11:37Z</time>
      </trkpt>
      <trkpt lat="50.533769018948078" lon="14.138396037742496">
        <ele>150.09999999999999</ele>
        <time>2013-09-06T08:11:39Z</time>
      </trkpt>
      <trkpt lat="50.533663993701339" lon="14.138405006378889">
        <ele>149.13999999999999</ele>
        <time>2013-09-06T08:11:40Z</time>
      </trkpt>
      <trkpt lat="50.533556034788489" lon="14.138371981680393">
        <ele>149.13999999999999</ele>
        <time>2013-09-06T08:11:41Z</time>
      </trkpt>
      <trkpt lat="50.533435000106692" lon="14.138337029144168">
        <ele>149.13999999999999</ele>
        <time>2013-09-06T08:11:42Z</time>
      </trkpt>
      <trkpt lat="50.533323017880321" lon="14.138282965868711">
        <ele>148.66</ele>
        <time>2013-09-06T08:11:43Z</time>
      </trkpt>
      <trkpt lat="50.533214975148439" lon="14.138198979198933">
        <ele>148.18000000000001</ele>
        <time>2013-09-06T08:11:44Z</time>
      </trkpt>
      <trkpt lat="50.533099975436926" lon="14.1380849853158">
        <ele>148.18000000000001</ele>
        <time>2013-09-06T08:11:45Z</time>
      </trkpt>
      <trkpt lat="50.532995034009218" lon="14.137948025017977">
        <ele>147.69999999999999</ele>
        <time>2013-09-06T08:11:46Z</time>
      </trkpt>
      <trkpt lat="50.532896965742111" lon="14.137803018093109">
        <ele>147.69999999999999</ele>
        <time>2013-09-06T08:11:47Z</time>
      </trkpt>
      <trkpt lat="50.532804010435939" lon="14.137639990076423">
        <ele>149.13999999999999</ele>
        <time>2013-09-06T08:11:48Z</time>
      </trkpt>
      <trkpt lat="50.532726980745792" lon="14.137478973716497">
        <ele>148.66</ele>
        <time>2013-09-06T08:11:49Z</time>
      </trkpt>
      <trkpt lat="50.532256001606584" lon="14.136026976630092">
        <ele>154.91</ele>
        <time>2013-09-06T08:11:57Z</time>
      </trkpt>
      <trkpt lat="50.532218031585217" lon="14.135835031047463">
        <ele>154.91</ele>
        <time>2013-09-06T08:11:58Z</time>
      </trkpt>
      <trkpt lat="50.532195987179875" lon="14.135640989989042">
        <ele>155.38999999999999</ele>
        <time>2013-09-06T08:11:59Z</time>
      </trkpt>
      <trkpt lat="50.532178971916437" lon="14.135443009436131">
        <ele>156.34999999999999</ele>
        <time>2013-09-06T08:12:00Z</time>
      </trkpt>
      <trkpt lat="50.532180983573198" lon="14.135234970599413">
        <ele>155.87</ele>
        <time>2013-09-06T08:12:01Z</time>
      </trkpt>
      <trkpt lat="50.53216396830976" lon="14.134675981476903">
        <ele>158.27000000000001</ele>
        <time>2013-09-06T08:12:04Z</time>
      </trkpt>
      <trkpt lat="50.532138990238309" lon="14.134521000087261">
        <ele>158.75</ele>
        <time>2013-09-06T08:12:05Z</time>
      </trkpt>
      <trkpt lat="50.532082999125123" lon="14.134383033961058">
        <ele>159.24000000000001</ele>
        <time>2013-09-06T08:12:06Z</time>
      </trkpt>
      <trkpt lat="50.532008986920118" lon="14.13428102619946">
        <ele>159.72</ele>
        <time>2013-09-06T08:12:07Z</time>
      </trkpt>
      <trkpt lat="50.531927011907101" lon="14.134222017601132">
        <ele>160.19999999999999</ele>
        <time>2013-09-06T08:12:08Z</time>
      </trkpt>
      <trkpt lat="50.531830033287406" lon="14.134203996509314">
        <ele>160.19999999999999</ele>
        <time>2013-09-06T08:12:09Z</time>
      </trkpt>
      <trkpt lat="50.531714027747512" lon="14.134226040914655">
        <ele>160.19999999999999</ele>
        <time>2013-09-06T08:12:10Z</time>
      </trkpt>
      <trkpt lat="50.531590981408954" lon="14.134258981794119">
        <ele>161.16</ele>
        <time>2013-09-06T08:12:11Z</time>
      </trkpt>
      <trkpt lat="50.530077964067459" lon="14.134590988978744">
        <ele>161.63999999999999</ele>
        <time>2013-09-06T08:12:22Z</time>
      </trkpt>
      <trkpt lat="50.52812397480011" lon="14.13505501113832">
        <ele>154.43000000000001</ele>
        <time>2013-09-06T08:12:37Z</time>
      </trkpt>
      <trkpt lat="50.526559995487332" lon="14.135364973917603">
        <ele>148.18000000000001</ele>
        <time>2013-09-06T08:12:50Z</time>
      </trkpt>
      <trkpt lat="50.525403963401914" lon="14.135964028537273">
        <ele>147.69999999999999</ele>
        <time>2013-09-06T08:13:00Z</time>
      </trkpt>
      <trkpt lat="50.524460999295115" lon="14.136917972937226">
        <ele>146.25999999999999</ele>
        <time>2013-09-06T08:13:09Z</time>
      </trkpt>
      <trkpt lat="50.523500014096498" lon="14.137534964829683">
        <ele>144.34</ele>
        <time>2013-09-06T08:13:18Z</time>
      </trkpt>
      <trkpt lat="50.522109037265182" lon="14.137517027556896">
        <ele>147.22</ele>
        <time>2013-09-06T08:13:29Z</time>
      </trkpt>
      <trkpt lat="50.51985003054142" lon="14.137148978188634">
        <ele>146.25999999999999</ele>
        <time>2013-09-06T08:13:45Z</time>
      </trkpt>
      <trkpt lat="50.518240034580231" lon="14.136934988200665">
        <ele>149.13999999999999</ele>
        <time>2013-09-06T08:13:57Z</time>
      </trkpt>
      <trkpt lat="50.516754006966949" lon="14.137387024238706">
        <ele>147.22</ele>
        <time>2013-09-06T08:14:08Z</time>
      </trkpt>
      <trkpt lat="50.516351005062461" lon="14.137533036991954">
        <ele>148.18000000000001</ele>
        <time>2013-09-06T08:14:11Z</time>
      </trkpt>
      <trkpt lat="50.514851985499263" lon="14.138255976140499">
        <ele>146.74000000000001</ele>
        <time>2013-09-06T08:14:23Z</time>
      </trkpt>
      <trkpt lat="50.513860993087292" lon="14.138972964137793">
        <ele>145.30000000000001</ele>
        <time>2013-09-06T08:14:33Z</time>
      </trkpt>
      <trkpt lat="50.513613978400826" lon="14.139078995212913">
        <ele>146.25999999999999</ele>
        <time>2013-09-06T08:14:36Z</time>
      </trkpt>
      <trkpt lat="50.513536026701331" lon="14.139081006869674">
        <ele>145.30000000000001</ele>
        <time>2013-09-06T08:14:37Z</time>
      </trkpt>
      <trkpt lat="50.513471988961101" lon="14.139043036848307">
        <ele>144.81999999999999</ele>
        <time>2013-09-06T08:14:38Z</time>
      </trkpt>
      <trkpt lat="50.513415997847915" lon="14.138972964137793">
        <ele>145.78</ele>
        <time>2013-09-06T08:14:39Z</time>
      </trkpt>
      <trkpt lat="50.513375010341406" lon="14.138890989124775">
        <ele>145.30000000000001</ele>
        <time>2013-09-06T08:14:40Z</time>
      </trkpt>
      <trkpt lat="50.513338968157768" lon="14.138780012726784">
        <ele>144.34</ele>
        <time>2013-09-06T08:14:41Z</time>
      </trkpt>
      <trkpt lat="50.513309966772795" lon="14.138645986095071">
        <ele>144.34</ele>
        <time>2013-09-06T08:14:42Z</time>
      </trkpt>
      <trkpt lat="50.513282977044582" lon="14.138501984998584">
        <ele>144.34</ele>
        <time>2013-09-06T08:14:43Z</time>
      </trkpt>
      <trkpt lat="50.513077033683658" lon="14.136949991807342">
        <ele>146.25999999999999</ele>
        <time>2013-09-06T08:14:51Z</time>
      </trkpt>
      <trkpt lat="50.512736979871988" lon="14.134569028392434">
        <ele>147.69999999999999</ele>
        <time>2013-09-06T08:15:00Z</time>
      </trkpt>
      <trkpt lat="50.512139014899731" lon="14.130417974665761">
        <ele>148.18000000000001</ele>
        <time>2013-09-06T08:15:13Z</time>
      </trkpt>
      <trkpt lat="50.511291017755866" lon="14.124376969411969">
        <ele>146.74000000000001</ele>
        <time>2013-09-06T08:15:31Z</time>
      </trkpt>
      <trkpt lat="50.510456012561917" lon="14.118259018287063">
        <ele>146.74000000000001</ele>
        <time>2013-09-06T08:15:49Z</time>
      </trkpt>
      <trkpt lat="50.510335983708501" lon="14.113743016496301">
        <ele>145.78</ele>
        <time>2013-09-06T08:16:02Z</time>
      </trkpt>
      <trkpt lat="50.510184019804001" lon="14.10639401525259">
        <ele>146.74000000000001</ele>
        <time>2013-09-06T08:16:23Z</time>
      </trkpt>
      <trkpt lat="50.510071031749249" lon="14.100695997476578">
        <ele>145.78</ele>
        <time>2013-09-06T08:16:40Z</time>
      </trkpt>
      <trkpt lat="50.510025015100837" lon="14.098483007401228">
        <ele>147.22</ele>
        <time>2013-09-06T08:16:49Z</time>
      </trkpt>
      <trkpt lat="50.51003297790885" lon="14.098147982731462">
        <ele>147.69999999999999</ele>
        <time>2013-09-06T08:16:51Z</time>
      </trkpt>
      <trkpt lat="50.510069020092487" lon="14.098004987463355">
        <ele>148.66</ele>
        <time>2013-09-06T08:16:52Z</time>
      </trkpt>
      <trkpt lat="50.510114030912519" lon="14.09788797609508">
        <ele>148.66</ele>
        <time>2013-09-06T08:16:53Z</time>
      </trkpt>
      <trkpt lat="50.510181002318859" lon="14.097797032445669">
        <ele>149.13999999999999</ele>
        <time>2013-09-06T08:16:54Z</time>
      </trkpt>
      <trkpt lat="50.510250991210341" lon="14.097701981663704">
        <ele>148.66</ele>
        <time>2013-09-06T08:16:55Z</time>
      </trkpt>
      <trkpt lat="50.510360039770603" lon="14.097485980018973">
        <ele>148.66</ele>
        <time>2013-09-06T08:16:57Z</time>
      </trkpt>
      <trkpt lat="50.510389963164926" lon="14.097356982529163">
        <ele>148.18000000000001</ele>
        <time>2013-09-06T08:16:58Z</time>
      </trkpt>
      <trkpt lat="50.510402033105493" lon="14.097224967554212">
        <ele>148.18000000000001</ele>
        <time>2013-09-06T08:16:59Z</time>
      </trkpt>
      <trkpt lat="50.510399015620351" lon="14.097087001428008">
        <ele>147.22</ele>
        <time>2013-09-06T08:17:00Z</time>
      </trkpt>
      <trkpt lat="50.51037697121501" lon="14.096949035301805">
        <ele>147.69999999999999</ele>
        <time>2013-09-06T08:17:01Z</time>
      </trkpt>
      <trkpt lat="50.510341012850404" lon="14.096809979528189">
        <ele>147.22</ele>
        <time>2013-09-06T08:17:02Z</time>
      </trkpt>
      <trkpt lat="50.510294996201992" lon="14.096685005351901">
        <ele>146.74000000000001</ele>
        <time>2013-09-06T08:17:03Z</time>
      </trkpt>
      <trkpt lat="50.510232970118523" lon="14.096578974276781">
        <ele>146.25999999999999</ele>
        <time>2013-09-06T08:17:04Z</time>
      </trkpt>
      <trkpt lat="50.510159963741899" lon="14.096496999263763">
        <ele>146.25999999999999</ele>
        <time>2013-09-06T08:17:05Z</time>
      </trkpt>
      <trkpt lat="50.510084023699164" lon="14.096412006765604">
        <ele>146.25999999999999</ele>
        <time>2013-09-06T08:17:06Z</time>
      </trkpt>
      <trkpt lat="50.510039012879133" lon="14.096308993175626">
        <ele>145.78</ele>
        <time>2013-09-06T08:17:07Z</time>
      </trkpt>
      <trkpt lat="50.510014034807682" lon="14.096162980422378">
        <ele>144.81999999999999</ele>
        <time>2013-09-06T08:17:08Z</time>
      </trkpt>
      <trkpt lat="50.509952008724213" lon="14.094398003071547">
        <ele>142.88999999999999</ele>
        <time>2013-09-06T08:17:17Z</time>
      </trkpt>
      <trkpt lat="50.509889982640743" lon="14.091683020815253">
        <ele>142.88999999999999</ele>
        <time>2013-09-06T08:17:28Z</time>
      </trkpt>
      <trkpt lat="50.509823011234403" lon="14.088739966973662">
        <ele>142.41</ele>
        <time>2013-09-06T08:17:41Z</time>
      </trkpt>
      <trkpt lat="50.509780012071133" lon="14.086164962500334">
        <ele>143.37</ele>
        <time>2013-09-06T08:17:53Z</time>
      </trkpt>
      <trkpt lat="50.509780012071133" lon="14.086011992767453">
        <ele>143.84999999999999</ele>
        <time>2013-09-06T08:17:54Z</time>
      </trkpt>
      <trkpt lat="50.50979602150619" lon="14.085870003327727">
        <ele>143.84999999999999</ele>
        <time>2013-09-06T08:17:55Z</time>
      </trkpt>
      <trkpt lat="50.509829968214035" lon="14.085589963942766">
        <ele>143.37</ele>
        <time>2013-09-06T08:17:57Z</time>
      </trkpt>
      <trkpt lat="50.509813036769629" lon="14.085436994209886">
        <ele>142.88999999999999</ele>
        <time>2013-09-06T08:17:58Z</time>
      </trkpt>
      <trkpt lat="50.509784035384655" lon="14.085281006991863">
        <ele>142.88999999999999</ele>
        <time>2013-09-06T08:17:59Z</time>
      </trkpt>
      <trkpt lat="50.50975201651454" lon="14.084775997325778">
        <ele>143.37</ele>
        <time>2013-09-06T08:18:02Z</time>
      </trkpt>
      <trkpt lat="50.509712034836411" lon="14.082634001970291">
        <ele>142.88999999999999</ele>
        <time>2013-09-06T08:18:13Z</time>
      </trkpt>
      <trkpt lat="50.509655037894845" lon="14.079971993342042">
        <ele>143.84999999999999</ele>
        <time>2013-09-06T08:18:24Z</time>
      </trkpt>
      <trkpt lat="50.509575996547937" lon="14.07691502943635">
        <ele>144.81999999999999</ele>
        <time>2013-09-06T08:18:37Z</time>
      </trkpt>
      <trkpt lat="50.509549006819725" lon="14.074570024386048">
        <ele>146.25999999999999</ele>
        <time>2013-09-06T08:18:48Z</time>
      </trkpt>
      <trkpt lat="50.509477006271482" lon="14.071461008861661">
        <ele>146.25999999999999</ele>
        <time>2013-09-06T08:19:02Z</time>
      </trkpt>
      <trkpt lat="50.509465020149946" lon="14.068875024095178">
        <ele>142.88999999999999</ele>
        <time>2013-09-06T08:19:14Z</time>
      </trkpt>
      <trkpt lat="50.509493015706539" lon="14.068660028278828">
        <ele>143.37</ele>
        <time>2013-09-06T08:19:15Z</time>
      </trkpt>
      <trkpt lat="50.509528974071145" lon="14.068454001098871">
        <ele>144.34</ele>
        <time>2013-09-06T08:19:16Z</time>
      </trkpt>
      <trkpt lat="50.509579014033079" lon="14.068259038031101">
        <ele>144.34</ele>
        <time>2013-09-06T08:19:17Z</time>
      </trkpt>
      <trkpt lat="50.509994002059102" lon="14.066919023171067">
        <ele>144.81999999999999</ele>
        <time>2013-09-06T08:19:24Z</time>
      </trkpt>
      <trkpt lat="50.51001101732254" lon="14.066714001819491">
        <ele>145.30000000000001</ele>
        <time>2013-09-06T08:19:25Z</time>
      </trkpt>
      <trkpt lat="50.509991990402341" lon="14.066511997953057">
        <ele>145.30000000000001</ele>
        <time>2013-09-06T08:19:26Z</time>
      </trkpt>
      <trkpt lat="50.509926024824381" lon="14.066317034885287">
        <ele>146.25999999999999</ele>
        <time>2013-09-06T08:19:27Z</time>
      </trkpt>
      <trkpt lat="50.509841032326221" lon="14.06615199521184">
        <ele>147.69999999999999</ele>
        <time>2013-09-06T08:19:28Z</time>
      </trkpt>
      <trkpt lat="50.509740030393004" lon="14.066026015207171">
        <ele>148.66</ele>
        <time>2013-09-06T08:19:29Z</time>
      </trkpt>
      <trkpt lat="50.509626036509871" lon="14.065933981910348">
        <ele>150.09999999999999</ele>
        <time>2013-09-06T08:19:30Z</time>
      </trkpt>
      <trkpt lat="50.509506007656455" lon="14.065860975533724">
        <ele>151.06</ele>
        <time>2013-09-06T08:19:31Z</time>
      </trkpt>
      <trkpt lat="50.509395031258464" lon="14.065801966935396">
        <ele>152.03</ele>
        <time>2013-09-06T08:19:32Z</time>
      </trkpt>
      <trkpt lat="50.507867010310292" lon="14.064966961741447">
        <ele>158.27000000000001</ele>
        <time>2013-09-06T08:19:45Z</time>
      </trkpt>
      <trkpt lat="50.506178978830576" lon="14.063937999308109">
        <ele>153.94999999999999</ele>
        <time>2013-09-06T08:19:57Z</time>
      </trkpt>
      <trkpt lat="50.505763990804553" lon="14.06342301517725">
        <ele>151.53999999999999</ele>
        <time>2013-09-06T08:20:00Z</time>
      </trkpt>
      <trkpt lat="50.505651002749801" lon="14.063211958855391">
        <ele>151.53999999999999</ele>
        <time>2013-09-06T08:20:01Z</time>
      </trkpt>
      <trkpt lat="50.505555029958487" lon="14.062992017716169">
        <ele>150.09999999999999</ele>
        <time>2013-09-06T08:20:02Z</time>
      </trkpt>
      <trkpt lat="50.505470037460327" lon="14.062766963616014">
        <ele>149.62</ele>
        <time>2013-09-06T08:20:03Z</time>
      </trkpt>
      <trkpt lat="50.505398958921432" lon="14.062530007213354">
        <ele>149.62</ele>
        <time>2013-09-06T08:20:04Z</time>
      </trkpt>
      <trkpt lat="50.505342967808247" lon="14.062287015840411">
        <ele>150.09999999999999</ele>
        <time>2013-09-06T08:20:05Z</time>
      </trkpt>
      <trkpt lat="50.505301980301738" lon="14.062043018639088">
        <ele>150.58000000000001</ele>
        <time>2013-09-06T08:20:06Z</time>
      </trkpt>
      <trkpt lat="50.505267027765512" lon="14.061786029487848">
        <ele>150.09999999999999</ele>
        <time>2013-09-06T08:20:07Z</time>
      </trkpt>
      <trkpt lat="50.505251018330455" lon="14.061529962345958">
        <ele>148.66</ele>
        <time>2013-09-06T08:20:08Z</time>
      </trkpt>
      <trkpt lat="50.50524297170341" lon="14.061266016215086">
        <ele>148.66</ele>
        <time>2013-09-06T08:20:09Z</time>
      </trkpt>
      <trkpt lat="50.505254035815597" lon="14.060996035113931">
        <ele>148.66</ele>
        <time>2013-09-06T08:20:10Z</time>
      </trkpt>
      <trkpt lat="50.505451010540128" lon="14.056958975270391">
        <ele>152.50999999999999</ele>
        <time>2013-09-06T08:20:25Z</time>
      </trkpt>
      <trkpt lat="50.505581013858318" lon="14.05369003303349">
        <ele>155.38999999999999</ele>
        <time>2013-09-06T08:20:38Z</time>
      </trkpt>
      <trkpt lat="50.505675980821252" lon="14.052052041515708">
        <ele>153.47</ele>
        <time>2013-09-06T08:20:47Z</time>
      </trkpt>
      <trkpt lat="50.505760973319411" lon="14.050233000889421">
        <ele>154.91</ele>
        <time>2013-09-06T08:20:56Z</time>
      </trkpt>
      <trkpt lat="50.505949985235929" lon="14.047186011448503">
        <ele>160.68000000000001</ele>
        <time>2013-09-06T08:21:09Z</time>
      </trkpt>
      <trkpt lat="50.506413001567125" lon="14.043365959078074">
        <ele>162.59999999999999</ele>
        <time>2013-09-06T08:21:24Z</time>
      </trkpt>
      <trkpt lat="50.50719796679914" lon="14.040771005675197">
        <ele>158.27000000000001</ele>
        <time>2013-09-06T08:21:35Z</time>
      </trkpt>
      <trkpt lat="50.508298007771373" lon="14.038574025034904">
        <ele>156.34999999999999</ele>
        <time>2013-09-06T08:21:46Z</time>
      </trkpt>
      <trkpt lat="50.508599001914263" lon="14.038036996498704">
        <ele>155.87</ele>
        <time>2013-09-06T08:21:50Z</time>
      </trkpt>
      <trkpt lat="50.508685000240803" lon="14.037982011213899">
        <ele>155.87</ele>
        <time>2013-09-06T08:21:51Z</time>
      </trkpt>
      <trkpt lat="50.50876596942544" lon="14.037972958758473">
        <ele>154.91</ele>
        <time>2013-09-06T08:21:52Z</time>
      </trkpt>
      <trkpt lat="50.508860014379025" lon="14.038018975406885">
        <ele>153.94999999999999</ele>
        <time>2013-09-06T08:21:53Z</time>
      </trkpt>
      <trkpt lat="50.508954981341958" lon="14.038085024803877">
        <ele>153.94999999999999</ele>
        <time>2013-09-06T08:21:54Z</time>
      </trkpt>
      <trkpt lat="50.509059000760317" lon="14.038174040615559">
        <ele>153.94999999999999</ele>
        <time>2013-09-06T08:21:55Z</time>
      </trkpt>
      <trkpt lat="50.509164026007056" lon="14.038271019235253">
        <ele>153.47</ele>
        <time>2013-09-06T08:21:56Z</time>
      </trkpt>
      <trkpt lat="50.510178990662098" lon="14.03933996334672">
        <ele>152.99000000000001</ele>
        <time>2013-09-06T08:22:04Z</time>
      </trkpt>
      <trkpt lat="50.511061018332839" lon="14.040333973243833">
        <ele>154.91</ele>
        <time>2013-09-06T08:22:13Z</time>
      </trkpt>
      <trkpt lat="50.511135030537844" lon="14.040331961587071">
        <ele>154.43000000000001</ele>
        <time>2013-09-06T08:22:14Z</time>
      </trkpt>
      <trkpt lat="50.511199990287423" lon="14.040271025151014">
        <ele>153.94999999999999</ele>
        <time>2013-09-06T08:22:15Z</time>
      </trkpt>
      <trkpt lat="50.511255981400609" lon="14.040156025439501">
        <ele>154.43000000000001</ele>
        <time>2013-09-06T08:22:16Z</time>
      </trkpt>
      <trkpt lat="50.511310966685414" lon="14.040021998807788">
        <ele>154.91</ele>
        <time>2013-09-06T08:22:17Z</time>
      </trkpt>
      <trkpt lat="50.511909015476704" lon="14.038519039750099">
        <ele>157.78999999999999</ele>
        <time>2013-09-06T08:22:25Z</time>
      </trkpt>
      <trkpt lat="50.513079967349768" lon="14.036032967269421">
        <ele>163.56</ele>
        <time>2013-09-06T08:22:36Z</time>
      </trkpt>
      <trkpt lat="50.514519978314638" lon="14.034420037642121">
        <ele>165.96000000000001</ele>
        <time>2013-09-06T08:22:45Z</time>
      </trkpt>
      <trkpt lat="50.515293963253498" lon="14.033046998083591">
        <ele>167.41</ele>
        <time>2013-09-06T08:22:51Z</time>
      </trkpt>
      <trkpt lat="50.515506025403738" lon="14.03218399733305">
        <ele>168.37</ele>
        <time>2013-09-06T08:22:54Z</time>
      </trkpt>
      <trkpt lat="50.515805007889867" lon="14.029060984030366">
        <ele>179.90000000000001</ele>
        <time>2013-09-06T08:23:04Z</time>
      </trkpt>
      <trkpt lat="50.516103990375996" lon="14.024983020499349">
        <ele>191.91999999999999</ele>
        <time>2013-09-06T08:23:17Z</time>
      </trkpt>
      <trkpt lat="50.516488971188664" lon="14.019381981343031">
        <ele>208.74000000000001</ele>
        <time>2013-09-06T08:23:35Z</time>
      </trkpt>
      <trkpt lat="50.516452006995678" lon="14.01907998137176">
        <ele>208.74000000000001</ele>
        <time>2013-09-06T08:23:36Z</time>
      </trkpt>
      <trkpt lat="50.516388975083828" lon="14.018784016370773">
        <ele>209.22</ele>
        <time>2013-09-06T08:23:37Z</time>
      </trkpt>
      <trkpt lat="50.516058979555964" lon="14.017022978514433">
        <ele>210.66999999999999</ele>
        <time>2013-09-06T08:23:43Z</time>
      </trkpt>
      <trkpt lat="50.516082029789686" lon="14.016702035441995">
        <ele>211.15000000000001</ele>
        <time>2013-09-06T08:23:44Z</time>
      </trkpt>
      <trkpt lat="50.516123017296195" lon="14.016381008550525">
        <ele>211.63</ele>
        <time>2013-09-06T08:23:45Z</time>
      </trkpt>
      <trkpt lat="50.516194012016058" lon="14.016066016629338">
        <ele>212.59</ele>
        <time>2013-09-06T08:23:46Z</time>
      </trkpt>
      <trkpt lat="50.516285039484501" lon="14.015776002779603">
        <ele>213.06999999999999</ele>
        <time>2013-09-06T08:23:47Z</time>
      </trkpt>
      <trkpt lat="50.516395010054111" lon="14.015497975051403">
        <ele>214.03</ele>
        <time>2013-09-06T08:23:48Z</time>
      </trkpt>
      <trkpt lat="50.516526019200683" lon="14.015248026698828">
        <ele>215.94999999999999</ele>
        <time>2013-09-06T08:23:49Z</time>
      </trkpt>
      <trkpt lat="50.516664991155267" lon="14.01501702144742">
        <ele>217.40000000000001</ele>
        <time>2013-09-06T08:23:50Z</time>
      </trkpt>
      <trkpt lat="50.516817960888147" lon="14.014790039509535">
        <ele>217.88</ele>
        <time>2013-09-06T08:23:51Z</time>
      </trkpt>
      <trkpt lat="50.517218029126525" lon="14.014044972136617">
        <ele>219.80000000000001</ele>
        <time>2013-09-06T08:23:54Z</time>
      </trkpt>
      <trkpt lat="50.517320958897471" lon="14.013768034055829">
        <ele>220.28</ele>
        <time>2013-09-06T08:23:55Z</time>
      </trkpt>
      <trkpt lat="50.517400000244379" lon="14.013465028256178">
        <ele>220.75999999999999</ele>
        <time>2013-09-06T08:23:56Z</time>
      </trkpt>
      <trkpt lat="50.518006011843681" lon="14.011143995448947">
        <ele>226.53</ele>
        <time>2013-09-06T08:24:04Z</time>
      </trkpt>
      <trkpt lat="50.518502974882722" lon="14.009774979203939">
        <ele>231.81</ele>
        <time>2013-09-06T08:24:11Z</time>
      </trkpt>
      <trkpt lat="50.518554020673037" lon="14.009623015299439">
        <ele>232.78</ele>
        <time>2013-09-06T08:24:12Z</time>
      </trkpt>
      <trkpt lat="50.518576987087727" lon="14.009486977010965">
        <ele>232.30000000000001</ele>
        <time>2013-09-06T08:24:13Z</time>
      </trkpt>
      <trkpt lat="50.518572041764855" lon="14.009360997006297">
        <ele>231.81</ele>
        <time>2013-09-06T08:24:14Z</time>
      </trkpt>
      <trkpt lat="50.518526025116444" lon="14.009240968152881">
        <ele>230.37</ele>
        <time>2013-09-06T08:24:15Z</time>
      </trkpt>
      <trkpt lat="50.518441032618284" lon="14.00915103033185">
        <ele>228.93000000000001</ele>
        <time>2013-09-06T08:24:16Z</time>
      </trkpt>
      <trkpt lat="50.518340030685067" lon="14.009071988984942">
        <ele>228.44999999999999</ele>
        <time>2013-09-06T08:24:17Z</time>
      </trkpt>
      <trkpt lat="50.51821899600327" lon="14.009009040892124">
        <ele>227.97</ele>
        <time>2013-09-06T08:24:18Z</time>
      </trkpt>
      <trkpt lat="50.518096033483744" lon="14.008951960131526">
        <ele>227.00999999999999</ele>
        <time>2013-09-06T08:24:19Z</time>
      </trkpt>
      <trkpt lat="50.517973992973566" lon="14.008888006210327">
        <ele>226.05000000000001</ele>
        <time>2013-09-06T08:24:20Z</time>
      </trkpt>
      <trkpt lat="50.517864022403955" lon="14.008796978741884">
        <ele>225.56999999999999</ele>
        <time>2013-09-06T08:24:21Z</time>
      </trkpt>
      <trkpt lat="50.517779029905796" lon="14.008673010393977">
        <ele>225.09</ele>
        <time>2013-09-06T08:24:22Z</time>
      </trkpt>
      <trkpt lat="50.517731001600623" lon="14.008503025397658">
        <ele>225.09</ele>
        <time>2013-09-06T08:24:23Z</time>
      </trkpt>
      <trkpt lat="50.517719015479088" lon="14.008318958804011">
        <ele>225.09</ele>
        <time>2013-09-06T08:24:24Z</time>
      </trkpt>
      <trkpt lat="50.517737958580256" lon="14.00812198407948">
        <ele>225.09</ele>
        <time>2013-09-06T08:24:25Z</time>
      </trkpt>
      <trkpt lat="50.517781963571906" lon="14.007919980213046">
        <ele>224.61000000000001</ele>
        <time>2013-09-06T08:24:26Z</time>
      </trkpt>
      <trkpt lat="50.517837032675743" lon="14.007704984396696">
        <ele>225.09</ele>
        <time>2013-09-06T08:24:27Z</time>
      </trkpt>
      <trkpt lat="50.518394010141492" lon="14.004921019077301">
        <ele>232.78</ele>
        <time>2013-09-06T08:24:38Z</time>
      </trkpt>
      <trkpt lat="50.518989963456988" lon="14.00274901650846">
        <ele>236.62</ele>
        <time>2013-09-06T08:24:46Z</time>
      </trkpt>
      <trkpt lat="50.519324988126755" lon="14.001376982778311">
        <ele>243.34999999999999</ele>
        <time>2013-09-06T08:24:51Z</time>
      </trkpt>
      <trkpt lat="50.519349966198206" lon="14.001105995848775">
        <ele>244.78999999999999</ele>
        <time>2013-09-06T08:24:52Z</time>
      </trkpt>
      <trkpt lat="50.519344015046954" lon="14.000840038061142">
        <ele>247.19999999999999</ele>
        <time>2013-09-06T08:24:53Z</time>
      </trkpt>
      <trkpt lat="50.519316019490361" lon="14.000566033646464">
        <ele>248.63999999999999</ele>
        <time>2013-09-06T08:24:54Z</time>
      </trkpt>
      <trkpt lat="50.519279977306724" lon="14.000290017575026">
        <ele>250.56</ele>
        <time>2013-09-06T08:24:55Z</time>
      </trkpt>
      <trkpt lat="50.51922800950706" lon="14.000018024817109">
        <ele>252.96000000000001</ele>
        <time>2013-09-06T08:24:56Z</time>
      </trkpt>
      <trkpt lat="50.519150979816914" lon="13.999744020402431">
        <ele>254.41</ele>
        <time>2013-09-06T08:24:57Z</time>
      </trkpt>
      <trkpt lat="50.519064981490374" lon="13.999479990452528">
        <ele>256.32999999999998</ele>
        <time>2013-09-06T08:24:58Z</time>
      </trkpt>
      <trkpt lat="50.518256966024637" lon="13.997092992067337">
        <ele>267.86000000000001</ele>
        <time>2013-09-06T08:25:08Z</time>
      </trkpt>
      <trkpt lat="50.518236011266708" lon="13.996875984594226">
        <ele>268.82999999999998</ele>
        <time>2013-09-06T08:25:09Z</time>
      </trkpt>
      <trkpt lat="50.51823902875185" lon="13.996660988777876">
        <ele>269.31</ele>
        <time>2013-09-06T08:25:10Z</time>
      </trkpt>
      <trkpt lat="50.518290996551514" lon="13.994730971753597">
        <ele>280.36000000000001</ele>
        <time>2013-09-06T08:25:20Z</time>
      </trkpt>
      <trkpt lat="50.518321003764868" lon="13.994375998154283">
        <ele>282.27999999999997</ele>
        <time>2013-09-06T08:25:22Z</time>
      </trkpt>
      <trkpt lat="50.518340030685067" lon="13.994214981794357">
        <ele>282.76999999999998</ele>
        <time>2013-09-06T08:25:23Z</time>
      </trkpt>
      <trkpt lat="50.518375989049673" lon="13.99407098069787">
        <ele>282.76999999999998</ele>
        <time>2013-09-06T08:25:24Z</time>
      </trkpt>
      <trkpt lat="50.518456036224961" lon="13.993945000693202">
        <ele>283.25</ele>
        <time>2013-09-06T08:25:25Z</time>
      </trkpt>
      <trkpt lat="50.518531976267695" lon="13.993817009031773">
        <ele>283.25</ele>
        <time>2013-09-06T08:25:26Z</time>
      </trkpt>
      <trkpt lat="50.518600037321448" lon="13.993664961308241">
        <ele>283.73000000000002</ele>
        <time>2013-09-06T08:25:27Z</time>
      </trkpt>
      <trkpt lat="50.518662985414267" lon="13.993500005453825">
        <ele>283.73000000000002</ele>
        <time>2013-09-06T08:25:28Z</time>
      </trkpt>
      <trkpt lat="50.519033968448639" lon="13.991838963702321">
        <ele>286.13</ele>
        <time>2013-09-06T08:25:35Z</time>
      </trkpt>
      <trkpt lat="50.519073028117418" lon="13.990666000172496">
        <ele>289.49000000000001</ele>
        <time>2013-09-06T08:25:39Z</time>
      </trkpt>
      <trkpt lat="50.519048972055316" lon="13.990356037393212">
        <ele>290.94</ele>
        <time>2013-09-06T08:25:40Z</time>
      </trkpt>
      <trkpt lat="50.519009996205568" lon="13.990052025765181">
        <ele>291.89999999999998</ele>
        <time>2013-09-06T08:25:41Z</time>
      </trkpt>
      <trkpt lat="50.518898013979197" lon="13.989125993102789">
        <ele>294.30000000000001</ele>
        <time>2013-09-06T08:25:44Z</time>
      </trkpt>
      <trkpt lat="50.518890973180532" lon="13.988813012838364">
        <ele>294.77999999999997</ele>
        <time>2013-09-06T08:25:45Z</time>
      </trkpt>
      <trkpt lat="50.518904970958829" lon="13.988500032573938">
        <ele>295.74000000000001</ele>
        <time>2013-09-06T08:25:46Z</time>
      </trkpt>
      <trkpt lat="50.518926009535789" lon="13.987874994054437">
        <ele>296.69999999999999</ele>
        <time>2013-09-06T08:25:48Z</time>
      </trkpt>
      <trkpt lat="50.518915029242635" lon="13.987561007961631">
        <ele>298.14999999999998</ele>
        <time>2013-09-06T08:25:49Z</time>
      </trkpt>
      <trkpt lat="50.518879992887378" lon="13.987255990505219">
        <ele>299.11000000000001</ele>
        <time>2013-09-06T08:25:50Z</time>
      </trkpt>
      <trkpt lat="50.518830958753824" lon="13.986964970827103">
        <ele>301.02999999999997</ele>
        <time>2013-09-06T08:25:51Z</time>
      </trkpt>
      <trkpt lat="50.518760969862342" lon="13.986670011654496">
        <ele>302.47000000000003</ele>
        <time>2013-09-06T08:25:52Z</time>
      </trkpt>
      <trkpt lat="50.518682012334466" lon="13.986377986148">
        <ele>303.43000000000001</ele>
        <time>2013-09-06T08:25:53Z</time>
      </trkpt>
      <trkpt lat="50.51798296160996" lon="13.983749002218246">
        <ele>319.77999999999997</ele>
        <time>2013-09-06T08:26:02Z</time>
      </trkpt>
      <trkpt lat="50.517118033021688" lon="13.98154397495091">
        <ele>333.70999999999998</ele>
        <time>2013-09-06T08:26:10Z</time>
      </trkpt>
      <trkpt lat="50.516468016430736" lon="13.979211039841175">
        <ele>339.95999999999998</ele>
        <time>2013-09-06T08:26:18Z</time>
      </trkpt>
      <trkpt lat="50.515654971823096" lon="13.97548402659595">
        <ele>347.64999999999998</ele>
        <time>2013-09-06T08:26:30Z</time>
      </trkpt>
      <trkpt lat="50.515241995453835" lon="13.973606983199716">
        <ele>350.06</ele>
        <time>2013-09-06T08:26:38Z</time>
      </trkpt>
      <trkpt lat="50.515073016285896" lon="13.972216006368399">
        <ele>348.62</ele>
        <time>2013-09-06T08:26:46Z</time>
      </trkpt>
      <trkpt lat="50.515077039599419" lon="13.971808981150389">
        <ele>348.62</ele>
        <time>2013-09-06T08:26:49Z</time>
      </trkpt>
      <trkpt lat="50.515119032934308" lon="13.971718959510326">
        <ele>348.13</ele>
        <time>2013-09-06T08:26:50Z</time>
      </trkpt>
      <trkpt lat="50.515186004340649" lon="13.971673026680946">
        <ele>348.13</ele>
        <time>2013-09-06T08:26:51Z</time>
      </trkpt>
      <trkpt lat="50.515276025980711" lon="13.971646036952734">
        <ele>348.13</ele>
        <time>2013-09-06T08:26:52Z</time>
      </trkpt>
      <trkpt lat="50.515376022085547" lon="13.971628015860915">
        <ele>348.13</ele>
        <time>2013-09-06T08:26:53Z</time>
      </trkpt>
      <trkpt lat="50.515997959300876" lon="13.971427017822862">
        <ele>348.62</ele>
        <time>2013-09-06T08:26:58Z</time>
      </trkpt>
      <trkpt lat="50.516115976497531" lon="13.971331967040896">
        <ele>347.64999999999998</ele>
        <time>2013-09-06T08:26:59Z</time>
      </trkpt>
      <trkpt lat="50.516352010890841" lon="13.971116971224546">
        <ele>345.73000000000002</ele>
        <time>2013-09-06T08:27:01Z</time>
      </trkpt>
      <trkpt lat="50.516486037522554" lon="13.971049999818206">
        <ele>345.25</ele>
        <time>2013-09-06T08:27:02Z</time>
      </trkpt>
      <trkpt lat="50.516616040840745" lon="13.970999959856272">
        <ele>344.76999999999998</ele>
        <time>2013-09-06T08:27:03Z</time>
      </trkpt>
      <trkpt lat="50.517717003822327" lon="13.970771972090006">
        <ele>338.51999999999998</ele>
        <time>2013-09-06T08:27:13Z</time>
      </trkpt>
      <trkpt lat="50.517749022692442" lon="13.970747999846935">
        <ele>339</ele>
        <time>2013-09-06T08:27:14Z</time>
      </trkpt>
      <trkpt lat="50.517762014642358" lon="13.970712041482329">
        <ele>339</ele>
        <time>2013-09-06T08:27:15Z</time>
      </trkpt>
      <trkpt lat="50.517755979672074" lon="13.970662001520395">
        <ele>339</ele>
        <time>2013-09-06T08:27:16Z</time>
      </trkpt>
      <trkpt lat="50.517721027135849" lon="13.970591006800532">
        <ele>340.44</ele>
        <time>2013-09-06T08:27:17Z</time>
      </trkpt>
      <trkpt lat="50.517662018537521" lon="13.970507020130754">
        <ele>340.44</ele>
        <time>2013-09-06T08:27:18Z</time>
      </trkpt>
      <trkpt lat="50.517534026876092" lon="13.970253970474005">
        <ele>340.44</ele>
        <time>2013-09-06T08:27:20Z</time>
      </trkpt>
      <trkpt lat="50.517479041591287" lon="13.970071999356151">
        <ele>340.92000000000002</ele>
        <time>2013-09-06T08:27:21Z</time>
      </trkpt>
      <trkpt lat="50.517439981922507" lon="13.969877036288381">
        <ele>341.41000000000003</ele>
        <time>2013-09-06T08:27:22Z</time>
      </trkpt>
      <trkpt lat="50.517332023009658" lon="13.969247974455357">
        <ele>343.32999999999998</ele>
        <time>2013-09-06T08:27:25Z</time>
      </trkpt>
      <trkpt lat="50.517250970005989" lon="13.969047982245684">
        <ele>345.25</ele>
        <time>2013-09-06T08:27:26Z</time>
      </trkpt>
      <trkpt lat="50.517160026356578" lon="13.968873973935843">
        <ele>345.25</ele>
        <time>2013-09-06T08:27:27Z</time>
      </trkpt>
      <trkpt lat="50.517045026645064" lon="13.968730978667736">
        <ele>345.73000000000002</ele>
        <time>2013-09-06T08:27:28Z</time>
      </trkpt>
      <trkpt lat="50.51690898835659" lon="13.968612039461732">
        <ele>345.73000000000002</ele>
        <time>2013-09-06T08:27:29Z</time>
      </trkpt>
      <trkpt lat="50.516763981431723" lon="13.968511959537864">
        <ele>346.20999999999998</ele>
        <time>2013-09-06T08:27:30Z</time>
      </trkpt>
      <trkpt lat="50.516189988702536" lon="13.96800602786243">
        <ele>346.69</ele>
        <time>2013-09-06T08:27:34Z</time>
      </trkpt>
      <trkpt lat="50.516056967899203" lon="13.967822967097163">
        <ele>346.20999999999998</ele>
        <time>2013-09-06T08:27:35Z</time>
      </trkpt>
      <trkpt lat="50.514916023239493" lon="13.965693963691592">
        <ele>349.57999999999998</ele>
        <time>2013-09-06T08:27:45Z</time>
      </trkpt>
      <trkpt lat="50.51471795886755" lon="13.965375032275915">
        <ele>349.10000000000002</ele>
        <time>2013-09-06T08:27:47Z</time>
      </trkpt>
      <trkpt lat="50.514607988297939" lon="13.965271012857556">
        <ele>349.10000000000002</ele>
        <time>2013-09-06T08:27:48Z</time>
      </trkpt>
      <trkpt lat="50.514493994414806" lon="13.965188032016158">
        <ele>349.10000000000002</ele>
        <time>2013-09-06T08:27:49Z</time>
      </trkpt>
      <trkpt lat="50.514383018016815" lon="13.965125000104308">
        <ele>349.57999999999998</ele>
        <time>2013-09-06T08:27:50Z</time>
      </trkpt>
      <trkpt lat="50.514271035790443" lon="13.965072026476264">
        <ele>349.57999999999998</ele>
        <time>2013-09-06T08:27:51Z</time>
      </trkpt>
      <trkpt lat="50.51398403942585" lon="13.964902963489294">
        <ele>350.06</ele>
        <time>2013-09-06T08:27:54Z</time>
      </trkpt>
      <trkpt lat="50.513925030827522" lon="13.964816965162754">
        <ele>348.13</ele>
        <time>2013-09-06T08:27:55Z</time>
      </trkpt>
      <trkpt lat="50.513886976987123" lon="13.964689979329705">
        <ele>347.17000000000002</ele>
        <time>2013-09-06T08:27:56Z</time>
      </trkpt>
      <trkpt lat="50.513858981430531" lon="13.964544972404838">
        <ele>346.69</ele>
        <time>2013-09-06T08:27:57Z</time>
      </trkpt>
      <trkpt lat="50.513827968388796" lon="13.964373981580138">
        <ele>346.69</ele>
        <time>2013-09-06T08:27:58Z</time>
      </trkpt>
      <trkpt lat="50.513580031692982" lon="13.962805978953838">
        <ele>347.64999999999998</ele>
        <time>2013-09-06T08:28:05Z</time>
      </trkpt>
      <trkpt lat="50.512921968474984" lon="13.959953030571342">
        <ele>348.62</ele>
        <time>2013-09-06T08:28:15Z</time>
      </trkpt>
      <trkpt lat="50.512533970177174" lon="13.957369979470968">
        <ele>349.57999999999998</ele>
        <time>2013-09-06T08:28:24Z</time>
      </trkpt>
      <trkpt lat="50.512230964377522" lon="13.954048985615373">
        <ele>343.32999999999998</ele>
        <time>2013-09-06T08:28:35Z</time>
      </trkpt>
      <trkpt lat="50.512228030711412" lon="13.95374396815896">
        <ele>341.88999999999999</ele>
        <time>2013-09-06T08:28:36Z</time>
      </trkpt>
      <trkpt lat="50.512354010716081" lon="13.950443007051945">
        <ele>328.91000000000003</ele>
        <time>2013-09-06T08:28:46Z</time>
      </trkpt>
      <trkpt lat="50.512549979612231" lon="13.947261990979314">
        <ele>328.43000000000001</ele>
        <time>2013-09-06T08:28:56Z</time>
      </trkpt>
      <trkpt lat="50.512593984603882" lon="13.944183988496661">
        <ele>329.38999999999999</ele>
        <time>2013-09-06T08:29:07Z</time>
      </trkpt>
      <trkpt lat="50.512575041502714" lon="13.943750979378819">
        <ele>328.91000000000003</ele>
        <time>2013-09-06T08:29:09Z</time>
      </trkpt>
      <trkpt lat="50.512536987662315" lon="13.943529026582837">
        <ele>329.38999999999999</ele>
        <time>2013-09-06T08:29:10Z</time>
      </trkpt>
      <trkpt lat="50.512475967407227" lon="13.943311013281345">
        <ele>328.91000000000003</ele>
        <time>2013-09-06T08:29:11Z</time>
      </trkpt>
      <trkpt lat="50.511669041588902" lon="13.940661996603012">
        <ele>327.94999999999999</ele>
        <time>2013-09-06T08:29:22Z</time>
      </trkpt>
      <trkpt lat="50.510793970897794" lon="13.937615007162094">
        <ele>335.16000000000003</ele>
        <time>2013-09-06T08:29:34Z</time>
      </trkpt>
      <trkpt lat="50.510200029239058" lon="13.934897007420659">
        <ele>333.70999999999998</ele>
        <time>2013-09-06T08:29:44Z</time>
      </trkpt>
      <trkpt lat="50.509738018736243" lon="13.933018958196044">
        <ele>336.12</ele>
        <time>2013-09-06T08:29:51Z</time>
      </trkpt>
      <trkpt lat="50.509642967954278" lon="13.932777978479862">
        <ele>336.12</ele>
        <time>2013-09-06T08:29:52Z</time>
      </trkpt>
      <trkpt lat="50.509535009041429" lon="13.932553008198738">
        <ele>337.07999999999998</ele>
        <time>2013-09-06T08:29:53Z</time>
      </trkpt>
      <trkpt lat="50.50940802320838" lon="13.93234496936202">
        <ele>337.07999999999998</ele>
        <time>2013-09-06T08:29:54Z</time>
      </trkpt>
      <trkpt lat="50.509276008233428" lon="13.932144977152348">
        <ele>337.56</ele>
        <time>2013-09-06T08:29:55Z</time>
      </trkpt>
      <trkpt lat="50.508740991353989" lon="13.931298991665244">
        <ele>341.41000000000003</ele>
        <time>2013-09-06T08:29:59Z</time>
      </trkpt>
      <trkpt lat="50.508635966107249" lon="13.931048959493637">
        <ele>341.88999999999999</ele>
        <time>2013-09-06T08:30:00Z</time>
      </trkpt>
      <trkpt lat="50.50855197943747" lon="13.930778978392482">
        <ele>342.37</ele>
        <time>2013-09-06T08:30:01Z</time>
      </trkpt>
      <trkpt lat="50.50848500803113" lon="13.930502040311694">
        <ele>342.85000000000002</ele>
        <time>2013-09-06T08:30:02Z</time>
      </trkpt>
      <trkpt lat="50.508428011089563" lon="13.930233987048268">
        <ele>344.29000000000002</ele>
        <time>2013-09-06T08:30:03Z</time>
      </trkpt>
      <trkpt lat="50.508174039423466" lon="13.928934959694743">
        <ele>349.10000000000002</ele>
        <time>2013-09-06T08:30:09Z</time>
      </trkpt>
      <trkpt lat="50.508073959499598" lon="13.928004987537861">
        <ele>352.94</ele>
        <time>2013-09-06T08:30:16Z</time>
      </trkpt>
      <trkpt lat="50.508107990026474" lon="13.92744398675859">
        <ele>356.31</ele>
        <time>2013-09-06T08:30:23Z</time>
      </trkpt>
      <trkpt lat="50.508020985871553" lon="13.926109001040459">
        <ele>362.06999999999999</ele>
        <time>2013-09-06T08:30:31Z</time>
      </trkpt>
      <trkpt lat="50.507886037230492" lon="13.925258992239833">
        <ele>367.83999999999997</ele>
        <time>2013-09-06T08:30:36Z</time>
      </trkpt>
      <trkpt lat="50.507892994210124" lon="13.925128988921642">
        <ele>368.80000000000001</ele>
        <time>2013-09-06T08:30:37Z</time>
      </trkpt>
      <trkpt lat="50.50792601890862" lon="13.925021030008793">
        <ele>369.75999999999999</ele>
        <time>2013-09-06T08:30:38Z</time>
      </trkpt>
      <trkpt lat="50.50799198448658" lon="13.924959003925323">
        <ele>369.75999999999999</ele>
        <time>2013-09-06T08:30:39Z</time>
      </trkpt>
      <trkpt lat="50.508068008348346" lon="13.924905024468899">
        <ele>370.73000000000002</ele>
        <time>2013-09-06T08:30:40Z</time>
      </trkpt>
      <trkpt lat="50.508218966424465" lon="13.924789018929005">
        <ele>371.20999999999998</ele>
        <time>2013-09-06T08:30:42Z</time>
      </trkpt>
      <trkpt lat="50.508278980851173" lon="13.924715006724">
        <ele>370.73000000000002</ele>
        <time>2013-09-06T08:30:43Z</time>
      </trkpt>
      <trkpt lat="50.508312005549669" lon="13.924615010619164">
        <ele>371.69</ele>
        <time>2013-09-06T08:30:44Z</time>
      </trkpt>
      <trkpt lat="50.508319968357682" lon="13.924494981765747">
        <ele>372.17000000000002</ele>
        <time>2013-09-06T08:30:45Z</time>
      </trkpt>
      <trkpt lat="50.508308988064528" lon="13.924355003982782">
        <ele>372.64999999999998</ele>
        <time>2013-09-06T08:30:46Z</time>
      </trkpt>
      <trkpt lat="50.508280992507935" lon="13.924203040078282">
        <ele>373.61000000000001</ele>
        <time>2013-09-06T08:30:47Z</time>
      </trkpt>
      <trkpt lat="50.508231036365032" lon="13.924034982919693">
        <ele>375.05000000000001</ele>
        <time>2013-09-06T08:30:48Z</time>
      </trkpt>
      <trkpt lat="50.508180996403098" lon="13.923852005973458">
        <ele>376.00999999999999</ele>
        <time>2013-09-06T08:30:49Z</time>
      </trkpt>
      <trkpt lat="50.507726026698947" lon="13.922423981130123">
        <ele>384.18000000000001</ele>
        <time>2013-09-06T08:30:56Z</time>
      </trkpt>
      <trkpt lat="50.506848022341728" lon="13.920790012925863">
        <ele>393.31999999999999</ele>
        <time>2013-09-06T08:31:04Z</time>
      </trkpt>
      <trkpt lat="50.506350975483656" lon="13.918767962604761">
        <ele>404.85000000000002</ele>
        <time>2013-09-06T08:31:12Z</time>
      </trkpt>
      <trkpt lat="50.506178978830576" lon="13.917225021868944">
        <ele>409.18000000000001</ele>
        <time>2013-09-06T08:31:18Z</time>
      </trkpt>
      <trkpt lat="50.506179984658957" lon="13.916998961940408">
        <ele>409.18000000000001</ele>
        <time>2013-09-06T08:31:19Z</time>
      </trkpt>
      <trkpt lat="50.506206974387169" lon="13.916782960295677">
        <ele>409.66000000000003</ele>
        <time>2013-09-06T08:31:20Z</time>
      </trkpt>
      <trkpt lat="50.506539987400174" lon="13.915022006258368">
        <ele>411.10000000000002</ele>
        <time>2013-09-06T08:31:28Z</time>
      </trkpt>
      <trkpt lat="50.506633026525378" lon="13.914582962170243">
        <ele>411.10000000000002</ele>
        <time>2013-09-06T08:31:30Z</time>
      </trkpt>
      <trkpt lat="50.506654987111688" lon="13.914341982454062">
        <ele>411.10000000000002</ele>
        <time>2013-09-06T08:31:31Z</time>
      </trkpt>
      <trkpt lat="50.506653981283307" lon="13.914104020223022">
        <ele>412.06</ele>
        <time>2013-09-06T08:31:32Z</time>
      </trkpt>
      <trkpt lat="50.506536969915032" lon="13.912718994542956">
        <ele>413.01999999999998</ele>
        <time>2013-09-06T08:31:38Z</time>
      </trkpt>
      <trkpt lat="50.506503023207188" lon="13.912537023425102">
        <ele>413.5</ele>
        <time>2013-09-06T08:31:39Z</time>
      </trkpt>
      <trkpt lat="50.506430016830564" lon="13.912410037592053">
        <ele>414.94999999999999</ele>
        <time>2013-09-06T08:31:40Z</time>
      </trkpt>
      <trkpt lat="50.506331026554108" lon="13.912343988195062">
        <ele>415.91000000000003</ele>
        <time>2013-09-06T08:31:41Z</time>
      </trkpt>
      <trkpt lat="50.506204040721059" lon="13.912310041487217">
        <ele>418.79000000000002</ele>
        <time>2013-09-06T08:31:42Z</time>
      </trkpt>
      <trkpt lat="50.506077976897359" lon="13.91229503788054">
        <ele>419.75</ele>
        <time>2013-09-06T08:31:43Z</time>
      </trkpt>
      <trkpt lat="50.505958031862974" lon="13.91227601096034">
        <ele>420.23000000000002</ele>
        <time>2013-09-06T08:31:44Z</time>
      </trkpt>
      <trkpt lat="50.505852000787854" lon="13.912228988483548">
        <ele>420.23000000000002</ele>
        <time>2013-09-06T08:31:45Z</time>
      </trkpt>
      <trkpt lat="50.505771031603217" lon="13.912133015692234">
        <ele>421.19</ele>
        <time>2013-09-06T08:31:46Z</time>
      </trkpt>
      <trkpt lat="50.50573498941958" lon="13.911990020424128">
        <ele>421.19</ele>
        <time>2013-09-06T08:31:47Z</time>
      </trkpt>
      <trkpt lat="50.505732977762818" lon="13.911849036812782">
        <ele>422.16000000000003</ele>
        <time>2013-09-06T08:31:48Z</time>
      </trkpt>
      <trkpt lat="50.50575602799654" lon="13.911694977432489">
        <ele>423.12</ele>
        <time>2013-09-06T08:31:49Z</time>
      </trkpt>
      <trkpt lat="50.505800032988191" lon="13.911532033234835">
        <ele>425.04000000000002</ele>
        <time>2013-09-06T08:31:50Z</time>
      </trkpt>
      <trkpt lat="50.505844037979841" lon="13.911354001611471">
        <ele>426</ele>
        <time>2013-09-06T08:31:51Z</time>
      </trkpt>
      <trkpt lat="50.505884019657969" lon="13.911169013008475">
        <ele>428.88999999999999</ele>
        <time>2013-09-06T08:31:52Z</time>
      </trkpt>
      <trkpt lat="50.505883013829589" lon="13.910970026627183">
        <ele>429.85000000000002</ele>
        <time>2013-09-06T08:31:53Z</time>
      </trkpt>
      <trkpt lat="50.505870021879673" lon="13.910758970305324">
        <ele>431.76999999999998</ele>
        <time>2013-09-06T08:31:54Z</time>
      </trkpt>
      <trkpt lat="50.505831968039274" lon="13.910550009459257">
        <ele>433.20999999999998</ele>
        <time>2013-09-06T08:31:55Z</time>
      </trkpt>
      <trkpt lat="50.505787041038275" lon="13.910335013642907">
        <ele>435.13</ele>
        <time>2013-09-06T08:31:56Z</time>
      </trkpt>
      <trkpt lat="50.505528962239623" lon="13.909298004582524">
        <ele>441.86000000000001</ele>
        <time>2013-09-06T08:32:01Z</time>
      </trkpt>
      <trkpt lat="50.50549702718854" lon="13.909093989059329">
        <ele>443.31</ele>
        <time>2013-09-06T08:32:02Z</time>
      </trkpt>
      <trkpt lat="50.505469031631947" lon="13.908864995464683">
        <ele>444.26999999999998</ele>
        <time>2013-09-06T08:32:03Z</time>
      </trkpt>
      <trkpt lat="50.505464002490044" lon="13.908641031011939">
        <ele>444.75</ele>
        <time>2013-09-06T08:32:04Z</time>
      </trkpt>
      <trkpt lat="50.505473976954818" lon="13.908413965255022">
        <ele>445.23000000000002</ele>
        <time>2013-09-06T08:32:05Z</time>
      </trkpt>
      <trkpt lat="50.505504989996552" lon="13.90819301828742">
        <ele>447.14999999999998</ele>
        <time>2013-09-06T08:32:06Z</time>
      </trkpt>
      <trkpt lat="50.505532985553145" lon="13.907976010814309">
        <ele>448.58999999999997</ele>
        <time>2013-09-06T08:32:07Z</time>
      </trkpt>
      <trkpt lat="50.505619989708066" lon="13.907295987010002">
        <ele>452.92000000000002</ele>
        <time>2013-09-06T08:32:10Z</time>
      </trkpt>
      <trkpt lat="50.505614038556814" lon="13.907063975930214">
        <ele>454.36000000000001</ele>
        <time>2013-09-06T08:32:11Z</time>
      </trkpt>
      <trkpt lat="50.505580008029938" lon="13.905674004927278">
        <ele>457.72000000000003</ele>
        <time>2013-09-06T08:32:17Z</time>
      </trkpt>
      <trkpt lat="50.50560599192977" lon="13.905450962483883">
        <ele>458.69</ele>
        <time>2013-09-06T08:32:18Z</time>
      </trkpt>
      <trkpt lat="50.505847977474332" lon="13.904060991480947">
        <ele>463.00999999999999</ele>
        <time>2013-09-06T08:32:26Z</time>
      </trkpt>
      <trkpt lat="50.505903968587518" lon="13.903944985941052">
        <ele>463.97000000000003</ele>
        <time>2013-09-06T08:32:27Z</time>
      </trkpt>
      <trkpt lat="50.505960965529084" lon="13.903881032019854">
        <ele>464.44999999999999</ele>
        <time>2013-09-06T08:32:28Z</time>
      </trkpt>
      <trkpt lat="50.506031038239598" lon="13.903853036463261">
        <ele>464.44999999999999</ele>
        <time>2013-09-06T08:32:29Z</time>
      </trkpt>
      <trkpt lat="50.506106978282332" lon="13.903860999271274">
        <ele>464.93000000000001</ele>
        <time>2013-09-06T08:32:30Z</time>
      </trkpt>
      <trkpt lat="50.506193982437253" lon="13.903887988999486">
        <ele>465.42000000000002</ele>
        <time>2013-09-06T08:32:31Z</time>
      </trkpt>
      <trkpt lat="50.506286015734076" lon="13.903925959020853">
        <ele>466.38</ele>
        <time>2013-09-06T08:32:32Z</time>
      </trkpt>
      <trkpt lat="50.506474021822214" lon="13.903945991769433">
        <ele>467.33999999999997</ele>
        <time>2013-09-06T08:32:34Z</time>
      </trkpt>
      <trkpt lat="50.506574017927051" lon="13.90391799621284">
        <ele>468.30000000000001</ele>
        <time>2013-09-06T08:32:35Z</time>
      </trkpt>
      <trkpt lat="50.506898984313011" lon="13.90385203063488">
        <ele>471.18000000000001</ele>
        <time>2013-09-06T08:32:38Z</time>
      </trkpt>
      <trkpt lat="50.507332999259233" lon="13.90389796346426">
        <ele>475.50999999999999</ele>
        <time>2013-09-06T08:32:42Z</time>
      </trkpt>
      <trkpt lat="50.507414974272251" lon="13.903882959857583">
        <ele>476.47000000000003</ele>
        <time>2013-09-06T08:32:43Z</time>
      </trkpt>
      <trkpt lat="50.507484963163733" lon="13.903844989836216">
        <ele>476.47000000000003</ele>
        <time>2013-09-06T08:32:44Z</time>
      </trkpt>
      <trkpt lat="50.507551012560725" lon="13.903753962367773">
        <ele>476.47000000000003</ele>
        <time>2013-09-06T08:32:45Z</time>
      </trkpt>
      <trkpt lat="50.507594011723995" lon="13.903661007061601">
        <ele>476.94999999999999</ele>
        <time>2013-09-06T08:32:46Z</time>
      </trkpt>
      <trkpt lat="50.507599962875247" lon="13.903541984036565">
        <ele>478.87</ele>
        <time>2013-09-06T08:32:47Z</time>
      </trkpt>
      <trkpt lat="50.507599962875247" lon="13.903408963233232">
        <ele>479.35000000000002</ele>
        <time>2013-09-06T08:32:48Z</time>
      </trkpt>
      <trkpt lat="50.50758495926857" lon="13.903262028470635">
        <ele>480.80000000000001</ele>
        <time>2013-09-06T08:32:49Z</time>
      </trkpt>
      <trkpt lat="50.507664000615478" lon="13.902019998058677">
        <ele>487.05000000000001</ele>
        <time>2013-09-06T08:32:56Z</time>
      </trkpt>
      <trkpt lat="50.507506001740694" lon="13.900214033201337">
        <ele>487.05000000000001</ele>
        <time>2013-09-06T08:33:04Z</time>
      </trkpt>
      <trkpt lat="50.507423020899296" lon="13.899985961616039">
        <ele>491.85000000000002</ele>
        <time>2013-09-06T08:33:05Z</time>
      </trkpt>
      <trkpt lat="50.506947012618184" lon="13.897618995979428">
        <ele>490.88999999999999</ele>
        <time>2013-09-06T08:33:15Z</time>
      </trkpt>
      <trkpt lat="50.506769986823201" lon="13.896966967731714">
        <ele>490.88999999999999</ele>
        <time>2013-09-06T08:33:18Z</time>
      </trkpt>
      <trkpt lat="50.506678037345409" lon="13.896772004663944">
        <ele>490.41000000000003</ele>
        <time>2013-09-06T08:33:19Z</time>
      </trkpt>
      <trkpt lat="50.506572006270289" lon="13.896576035767794">
        <ele>490.41000000000003</ele>
        <time>2013-09-06T08:33:20Z</time>
      </trkpt>
      <trkpt lat="50.506114019080997" lon="13.895699959248304">
        <ele>490.41000000000003</ele>
        <time>2013-09-06T08:33:25Z</time>
      </trkpt>
      <trkpt lat="50.506042018532753" lon="13.895522011443973">
        <ele>489.44999999999999</ele>
        <time>2013-09-06T08:33:26Z</time>
      </trkpt>
      <trkpt lat="50.505994996055961" lon="13.895326964557171">
        <ele>488.97000000000003</ele>
        <time>2013-09-06T08:33:27Z</time>
      </trkpt>
      <trkpt lat="50.505697019398212" lon="13.893246995285153">
        <ele>494.74000000000001</ele>
        <time>2013-09-06T08:33:36Z</time>
      </trkpt>
      <trkpt lat="50.505710011348128" lon="13.893024958670139">
        <ele>494.25999999999999</ele>
        <time>2013-09-06T08:33:37Z</time>
      </trkpt>
      <trkpt lat="50.505729960277677" lon="13.89283200725913">
        <ele>495.22000000000003</ele>
        <time>2013-09-06T08:33:38Z</time>
      </trkpt>
      <trkpt lat="50.505783017724752" lon="13.892655987292528">
        <ele>496.66000000000003</ele>
        <time>2013-09-06T08:33:39Z</time>
      </trkpt>
      <trkpt lat="50.505848983302712" lon="13.892489019781351">
        <ele>496.66000000000003</ele>
        <time>2013-09-06T08:33:40Z</time>
      </trkpt>
      <trkpt lat="50.505916038528085" lon="13.892329009249806">
        <ele>498.10000000000002</ele>
        <time>2013-09-06T08:33:41Z</time>
      </trkpt>
      <trkpt lat="50.506534958258271" lon="13.891038028523326">
        <ele>506.26999999999998</ele>
        <time>2013-09-06T08:33:48Z</time>
      </trkpt>
      <trkpt lat="50.507622007280588" lon="13.889417974278331">
        <ele>513</ele>
        <time>2013-09-06T08:33:59Z</time>
      </trkpt>
      <trkpt lat="50.509152039885521" lon="13.888369984924793">
        <ele>524.53999999999996</ele>
        <time>2013-09-06T08:34:10Z</time>
      </trkpt>
      <trkpt lat="50.509294029325247" lon="13.888332014903426">
        <ele>525.98000000000002</ele>
        <time>2013-09-06T08:34:11Z</time>
      </trkpt>
      <trkpt lat="50.509429983794689" lon="13.888316005468369">
        <ele>527.41999999999996</ele>
        <time>2013-09-06T08:34:12Z</time>
      </trkpt>
      <trkpt lat="50.509566022083163" lon="13.88831902295351">
        <ele>528.86000000000001</ele>
        <time>2013-09-06T08:34:13Z</time>
      </trkpt>
      <trkpt lat="50.509705999866128" lon="13.888333020731807">
        <ele>530.29999999999995</ele>
        <time>2013-09-06T08:34:14Z</time>
      </trkpt>
      <trkpt lat="50.510383006185293" lon="13.888439973816276">
        <ele>537.02999999999997</ele>
        <time>2013-09-06T08:34:19Z</time>
      </trkpt>
      <trkpt lat="50.510510997846723" lon="13.888410972431302">
        <ele>537.99000000000001</ele>
        <time>2013-09-06T08:34:20Z</time>
      </trkpt>
      <trkpt lat="50.510646030306816" lon="13.888346012681723">
        <ele>538.48000000000002</ele>
        <time>2013-09-06T08:34:21Z</time>
      </trkpt>
      <trkpt lat="50.511669041588902" lon="13.88788903132081">
        <ele>537.50999999999999</ele>
        <time>2013-09-06T08:34:28Z</time>
      </trkpt>
      <trkpt lat="50.5118159763515" lon="13.887894982472062">
        <ele>537.50999999999999</ele>
        <time>2013-09-06T08:34:29Z</time>
      </trkpt>
      <trkpt lat="50.51196601241827" lon="13.887933036312461">
        <ele>537.02999999999997</ele>
        <time>2013-09-06T08:34:30Z</time>
      </trkpt>
      <trkpt lat="50.51211697049439" lon="13.887993972748518">
        <ele>537.02999999999997</ele>
        <time>2013-09-06T08:34:31Z</time>
      </trkpt>
      <trkpt lat="50.512275975197554" lon="13.888054993003607">
        <ele>537.02999999999997</ele>
        <time>2013-09-06T08:34:32Z</time>
      </trkpt>
      <trkpt lat="50.514193000271916" lon="13.888980019837618">
        <ele>528.86000000000001</ele>
        <time>2013-09-06T08:34:44Z</time>
      </trkpt>
      <trkpt lat="50.514639001339674" lon="13.889103988185525">
        <ele>524.05999999999995</ele>
        <time>2013-09-06T08:34:47Z</time>
      </trkpt>
      <trkpt lat="50.514791971072555" lon="13.889107005670667">
        <ele>522.13</ele>
        <time>2013-09-06T08:34:48Z</time>
      </trkpt>
      <trkpt lat="50.516339018940926" lon="13.888810034841299">
        <ele>515.88</ele>
        <time>2013-09-06T08:34:58Z</time>
      </trkpt>
      <trkpt lat="50.517582977190614" lon="13.888485990464687">
        <ele>513</ele>
        <time>2013-09-06T08:35:06Z</time>
      </trkpt>
      <trkpt lat="50.518727023154497" lon="13.888055998831987">
        <ele>505.31</ele>
        <time>2013-09-06T08:35:14Z</time>
      </trkpt>
      <trkpt lat="50.518859038129449" lon="13.887950973585248">
        <ele>503.87</ele>
        <time>2013-09-06T08:35:15Z</time>
      </trkpt>
      <trkpt lat="50.518934978172183" lon="13.887830022722483">
        <ele>502.91000000000003</ele>
        <time>2013-09-06T08:35:16Z</time>
      </trkpt>
      <trkpt lat="50.518994992598891" lon="13.88767596334219">
        <ele>501.45999999999998</ele>
        <time>2013-09-06T08:35:17Z</time>
      </trkpt>
      <trkpt lat="50.519033968448639" lon="13.887492986395955">
        <ele>500.98000000000002</ele>
        <time>2013-09-06T08:35:18Z</time>
      </trkpt>
      <trkpt lat="50.519077973440289" lon="13.887319983914495">
        <ele>499.54000000000002</ele>
        <time>2013-09-06T08:35:19Z</time>
      </trkpt>
      <trkpt lat="50.519396988674998" lon="13.88642999343574">
        <ele>495.69999999999999</ele>
        <time>2013-09-06T08:35:24Z</time>
      </trkpt>
      <trkpt lat="50.520299971103668" lon="13.885121997445822">
        <ele>487.05000000000001</ele>
        <time>2013-09-06T08:35:32Z</time>
      </trkpt>
      <trkpt lat="50.521371010690928" lon="13.88395800255239">
        <ele>477.91000000000003</ele>
        <time>2013-09-06T08:35:41Z</time>
      </trkpt>
      <trkpt lat="50.521482992917299" lon="13.883794974535704">
        <ele>475.99000000000001</ele>
        <time>2013-09-06T08:35:42Z</time>
      </trkpt>
      <trkpt lat="50.522339958697557" lon="13.882540035992861">
        <ele>464.93000000000001</ele>
        <time>2013-09-06T08:35:50Z</time>
      </trkpt>
      <trkpt lat="50.522693004459143" lon="13.882184978574514">
        <ele>462.52999999999997</ele>
        <time>2013-09-06T08:35:53Z</time>
      </trkpt>
      <trkpt lat="50.522786965593696" lon="13.882057992741466">
        <ele>462.05000000000001</ele>
        <time>2013-09-06T08:35:54Z</time>
      </trkpt>
      <trkpt lat="50.522873969748616" lon="13.881912985816598">
        <ele>461.56999999999999</ele>
        <time>2013-09-06T08:35:55Z</time>
      </trkpt>
      <trkpt lat="50.522958962246776" lon="13.881746018305421">
        <ele>461.08999999999997</ele>
        <time>2013-09-06T08:35:56Z</time>
      </trkpt>
      <trkpt lat="50.523055018857121" lon="13.881566980853677">
        <ele>459.17000000000002</ele>
        <time>2013-09-06T08:35:57Z</time>
      </trkpt>
      <trkpt lat="50.523815006017685" lon="13.880151025950909">
        <ele>450.51999999999998</ele>
        <time>2013-09-06T08:36:05Z</time>
      </trkpt>
      <trkpt lat="50.523921037092805" lon="13.88000400736928">
        <ele>449.55000000000001</ele>
        <time>2013-09-06T08:36:06Z</time>
      </trkpt>
      <trkpt lat="50.524035030975938" lon="13.879868974909186">
        <ele>448.58999999999997</ele>
        <time>2013-09-06T08:36:07Z</time>
      </trkpt>
      <trkpt lat="50.524760987609625" lon="13.879112005233765">
        <ele>443.79000000000002</ele>
        <time>2013-09-06T08:36:13Z</time>
      </trkpt>
      <trkpt lat="50.524942958727479" lon="13.878799024969339">
        <ele>442.33999999999997</ele>
        <time>2013-09-06T08:36:15Z</time>
      </trkpt>
      <trkpt lat="50.52517899312079" lon="13.878289991989732">
        <ele>441.86000000000001</ele>
        <time>2013-09-06T08:36:18Z</time>
      </trkpt>
      <trkpt lat="50.525235990062356" lon="13.878106009215117">
        <ele>439.94</ele>
        <time>2013-09-06T08:36:19Z</time>
      </trkpt>
      <trkpt lat="50.525269014760852" lon="13.877919008955359">
        <ele>438.5</ele>
        <time>2013-09-06T08:36:20Z</time>
      </trkpt>
      <trkpt lat="50.52528502419591" lon="13.87772798538208">
        <ele>437.06</ele>
        <time>2013-09-06T08:36:21Z</time>
      </trkpt>
      <trkpt lat="50.525310002267361" lon="13.877532016485929">
        <ele>436.57999999999998</ele>
        <time>2013-09-06T08:36:22Z</time>
      </trkpt>
      <trkpt lat="50.525515023618937" lon="13.87618001550436">
        <ele>429.37</ele>
        <time>2013-09-06T08:36:29Z</time>
      </trkpt>
      <trkpt lat="50.525590963661671" lon="13.876021010801196">
        <ele>428.39999999999998</ele>
        <time>2013-09-06T08:36:30Z</time>
      </trkpt>
      <trkpt lat="50.525689031928778" lon="13.875871980562806">
        <ele>426.95999999999998</ele>
        <time>2013-09-06T08:36:31Z</time>
      </trkpt>
      <trkpt lat="50.525800008326769" lon="13.875736026093364">
        <ele>426.48000000000002</ele>
        <time>2013-09-06T08:36:32Z</time>
      </trkpt>
      <trkpt lat="50.525911990553141" lon="13.875603005290031">
        <ele>426</ele>
        <time>2013-09-06T08:36:33Z</time>
      </trkpt>
      <trkpt lat="50.526715982705355" lon="13.874801024794579">
        <ele>422.63999999999999</ele>
        <time>2013-09-06T08:36:40Z</time>
      </trkpt>
      <trkpt lat="50.526853026822209" lon="13.874571025371552">
        <ele>423.12</ele>
        <time>2013-09-06T08:36:42Z</time>
      </trkpt>
      <trkpt lat="50.527023011818528" lon="13.87428998015821">
        <ele>424.07999999999998</ele>
        <time>2013-09-06T08:36:44Z</time>
      </trkpt>
      <trkpt lat="50.527106998488307" lon="13.874122006818652">
        <ele>426</ele>
        <time>2013-09-06T08:36:45Z</time>
      </trkpt>
      <trkpt lat="50.52820703946054" lon="13.872916018590331">
        <ele>427.92000000000002</ele>
        <time>2013-09-06T08:36:56Z</time>
      </trkpt>
      <trkpt lat="50.528409965336323" lon="13.872523996978998">
        <ele>428.39999999999998</ele>
        <time>2013-09-06T08:36:59Z</time>
      </trkpt>
      <trkpt lat="50.528452964499593" lon="13.872375972568989">
        <ele>428.88999999999999</ele>
        <time>2013-09-06T08:37:00Z</time>
      </trkpt>
      <trkpt lat="50.528547009453177" lon="13.871898036450148">
        <ele>427.44</ele>
        <time>2013-09-06T08:37:03Z</time>
      </trkpt>
      <trkpt lat="50.52855203859508" lon="13.871730985119939">
        <ele>427.92000000000002</ele>
        <time>2013-09-06T08:37:04Z</time>
      </trkpt>
      <trkpt lat="50.528540974482894" lon="13.871552031487226">
        <ele>427.44</ele>
        <time>2013-09-06T08:37:05Z</time>
      </trkpt>
      <trkpt lat="50.528471991419792" lon="13.870933027938008">
        <ele>426.48000000000002</ele>
        <time>2013-09-06T08:37:08Z</time>
      </trkpt>
      <trkpt lat="50.528474003076553" lon="13.870710991322994">
        <ele>425.51999999999998</ele>
        <time>2013-09-06T08:37:09Z</time>
      </trkpt>
      <trkpt lat="50.528483977541327" lon="13.870488032698631">
        <ele>425.04000000000002</ele>
        <time>2013-09-06T08:37:10Z</time>
      </trkpt>
      <trkpt lat="50.528517002239823" lon="13.870275970548391">
        <ele>424.07999999999998</ele>
        <time>2013-09-06T08:37:11Z</time>
      </trkpt>
      <trkpt lat="50.528556983917952" lon="13.870058041065931">
        <ele>422.63999999999999</ele>
        <time>2013-09-06T08:37:12Z</time>
      </trkpt>
      <trkpt lat="50.528610963374376" lon="13.869822006672621">
        <ele>420.70999999999998</ele>
        <time>2013-09-06T08:37:13Z</time>
      </trkpt>
      <trkpt lat="50.529208006337285" lon="13.867680011317134">
        <ele>410.62</ele>
        <time>2013-09-06T08:37:21Z</time>
      </trkpt>
      <trkpt lat="50.530354985967278" lon="13.864849023520947">
        <ele>391.87</ele>
        <time>2013-09-06T08:37:32Z</time>
      </trkpt>
      <trkpt lat="50.530475014820695" lon="13.864439986646175">
        <ele>388.50999999999999</ele>
        <time>2013-09-06T08:37:34Z</time>
      </trkpt>
      <trkpt lat="50.530504016205668" lon="13.864238988608122">
        <ele>388.50999999999999</ele>
        <time>2013-09-06T08:37:35Z</time>
      </trkpt>
      <trkpt lat="50.530502004548907" lon="13.86404100805521">
        <ele>387.06999999999999</ele>
        <time>2013-09-06T08:37:36Z</time>
      </trkpt>
      <trkpt lat="50.530471997335553" lon="13.863635994493961">
        <ele>385.14999999999998</ele>
        <time>2013-09-06T08:37:38Z</time>
      </trkpt>
      <trkpt lat="50.530469985678792" lon="13.863411024212837">
        <ele>384.66000000000003</ele>
        <time>2013-09-06T08:37:39Z</time>
      </trkpt>
      <trkpt lat="50.530489012598991" lon="13.863174989819527">
        <ele>384.18000000000001</ele>
        <time>2013-09-06T08:37:40Z</time>
      </trkpt>
      <trkpt lat="50.530525976791978" lon="13.86292302981019">
        <ele>383.69999999999999</ele>
        <time>2013-09-06T08:37:41Z</time>
      </trkpt>
      <trkpt lat="50.530584985390306" lon="13.862683977931738">
        <ele>382.74000000000001</ele>
        <time>2013-09-06T08:37:42Z</time>
      </trkpt>
      <trkpt lat="50.530660003423691" lon="13.862435035407543">
        <ele>382.25999999999999</ele>
        <time>2013-09-06T08:37:43Z</time>
      </trkpt>
      <trkpt lat="50.531531972810626" lon="13.860243000090122">
        <ele>377.44999999999999</ele>
        <time>2013-09-06T08:37:52Z</time>
      </trkpt>
      <trkpt lat="50.53158201277256" lon="13.860079972073436">
        <ele>378.42000000000002</ele>
        <time>2013-09-06T08:37:53Z</time>
      </trkpt>
      <trkpt lat="50.531606990844011" lon="13.859935970976949">
        <ele>378.42000000000002</ele>
        <time>2013-09-06T08:37:54Z</time>
      </trkpt>
      <trkpt lat="50.531591987237334" lon="13.859783001244068">
        <ele>378.42000000000002</ele>
        <time>2013-09-06T08:37:55Z</time>
      </trkpt>
      <trkpt lat="50.531564997509122" lon="13.859623996540904">
        <ele>379.38</ele>
        <time>2013-09-06T08:37:56Z</time>
      </trkpt>
      <trkpt lat="50.53151797503233" lon="13.859438002109528">
        <ele>379.86000000000001</ele>
        <time>2013-09-06T08:37:57Z</time>
      </trkpt>
      <trkpt lat="50.531449997797608" lon="13.859238009899855">
        <ele>380.33999999999997</ele>
        <time>2013-09-06T08:37:58Z</time>
      </trkpt>
      <trkpt lat="50.531376991420984" lon="13.859021002426744">
        <ele>380.33999999999997</ele>
        <time>2013-09-06T08:37:59Z</time>
      </trkpt>
      <trkpt lat="50.530656985938549" lon="13.856947990134358">
        <ele>382.25999999999999</ele>
        <time>2013-09-06T08:38:07Z</time>
      </trkpt>
      <trkpt lat="50.529405986890197" lon="13.853240003809333">
        <ele>385.14999999999998</ele>
        <time>2013-09-06T08:38:20Z</time>
      </trkpt>
      <trkpt lat="50.529116978868842" lon="13.852192014455795">
        <ele>385.14999999999998</ele>
        <time>2013-09-06T08:38:24Z</time>
      </trkpt>
      <trkpt lat="50.529075991362333" lon="13.851910969242454">
        <ele>384.66000000000003</ele>
        <time>2013-09-06T08:38:25Z</time>
      </trkpt>
      <trkpt lat="50.529037015512586" lon="13.85160100646317">
        <ele>383.69999999999999</ele>
        <time>2013-09-06T08:38:26Z</time>
      </trkpt>
      <trkpt lat="50.528759993612766" lon="13.849088028073311">
        <ele>386.58999999999997</ele>
        <time>2013-09-06T08:38:34Z</time>
      </trkpt>
      <trkpt lat="50.528366966173053" lon="13.846510006114841">
        <ele>392.36000000000001</ele>
        <time>2013-09-06T08:38:43Z</time>
      </trkpt>
      <trkpt lat="50.528009980916977" lon="13.844211017712951">
        <ele>393.80000000000001</ele>
        <time>2013-09-06T08:38:51Z</time>
      </trkpt>
      <trkpt lat="50.527741005644202" lon="13.842365993186831">
        <ele>390.91000000000003</ele>
        <time>2013-09-06T08:38:57Z</time>
      </trkpt>
      <trkpt lat="50.527657018974423" lon="13.842092994600534">
        <ele>390.91000000000003</ele>
        <time>2013-09-06T08:38:58Z</time>
      </trkpt>
      <trkpt lat="50.527292992919683" lon="13.841022038832307">
        <ele>389.47000000000003</ele>
        <time>2013-09-06T08:39:02Z</time>
      </trkpt>
      <trkpt lat="50.527176987379789" lon="13.840782986953855">
        <ele>389.47000000000003</ele>
        <time>2013-09-06T08:39:03Z</time>
      </trkpt>
      <trkpt lat="50.526368971914053" lon="13.839021027088165">
        <ele>390.43000000000001</ele>
        <time>2013-09-06T08:39:11Z</time>
      </trkpt>
      <trkpt lat="50.526337036862969" lon="13.838790021836758">
        <ele>389.94999999999999</ele>
        <time>2013-09-06T08:39:12Z</time>
      </trkpt>
      <trkpt lat="50.526274004951119" lon="13.837823001667857">
        <ele>386.58999999999997</ele>
        <time>2013-09-06T08:39:16Z</time>
      </trkpt>
      <trkpt lat="50.526310969144106" lon="13.837312962859869">
        <ele>384.18000000000001</ele>
        <time>2013-09-06T08:39:18Z</time>
      </trkpt>
      <trkpt lat="50.526305017992854" lon="13.837064020335674">
        <ele>383.69999999999999</ele>
        <time>2013-09-06T08:39:19Z</time>
      </trkpt>
      <trkpt lat="50.526308035477996" lon="13.836809964850545">
        <ele>384.18000000000001</ele>
        <time>2013-09-06T08:39:20Z</time>
      </trkpt>
      <trkpt lat="50.526320021599531" lon="13.836555993184447">
        <ele>384.66000000000003</ele>
        <time>2013-09-06T08:39:21Z</time>
      </trkpt>
      <trkpt lat="50.526360003277659" lon="13.836319036781788">
        <ele>385.14999999999998</ele>
        <time>2013-09-06T08:39:22Z</time>
      </trkpt>
      <trkpt lat="50.526430997997522" lon="13.836121978238225">
        <ele>386.58999999999997</ele>
        <time>2013-09-06T08:39:23Z</time>
      </trkpt>
      <trkpt lat="50.526540968567133" lon="13.835949981585145">
        <ele>388.99000000000001</ele>
        <time>2013-09-06T08:39:24Z</time>
      </trkpt>
      <trkpt lat="50.526622021570802" lon="13.835784019902349">
        <ele>392.36000000000001</ele>
        <time>2013-09-06T08:39:25Z</time>
      </trkpt>
      <trkpt lat="50.526668960228562" lon="13.835606994107366">
        <ele>395.24000000000001</ele>
        <time>2013-09-06T08:39:26Z</time>
      </trkpt>
      <trkpt lat="50.526692010462284" lon="13.835403984412551">
        <ele>395.24000000000001</ele>
        <time>2013-09-06T08:39:27Z</time>
      </trkpt>
      <trkpt lat="50.526697961613536" lon="13.835197035223246">
        <ele>395.72000000000003</ele>
        <time>2013-09-06T08:39:28Z</time>
      </trkpt>
      <trkpt lat="50.526692010462284" lon="13.834979021921754">
        <ele>398.12</ele>
        <time>2013-09-06T08:39:29Z</time>
      </trkpt>
      <trkpt lat="50.526672983542085" lon="13.834748016670346">
        <ele>399.56999999999999</ele>
        <time>2013-09-06T08:39:30Z</time>
      </trkpt>
      <trkpt lat="50.526644987985492" lon="13.834526985883713">
        <ele>401.97000000000003</ele>
        <time>2013-09-06T08:39:31Z</time>
      </trkpt>
      <trkpt lat="50.526605006307364" lon="13.834300003945827">
        <ele>403.41000000000003</ele>
        <time>2013-09-06T08:39:32Z</time>
      </trkpt>
      <trkpt lat="50.526308035477996" lon="13.831934966146946">
        <ele>402.44999999999999</ele>
        <time>2013-09-06T08:39:41Z</time>
      </trkpt>
      <trkpt lat="50.526155987754464" lon="13.829190982505679">
        <ele>393.80000000000001</ele>
        <time>2013-09-06T08:39:51Z</time>
      </trkpt>
      <trkpt lat="50.526138972491026" lon="13.828936005011201">
        <ele>392.83999999999997</ele>
        <time>2013-09-06T08:39:52Z</time>
      </trkpt>
      <trkpt lat="50.526147019118071" lon="13.828669963404536">
        <ele>392.36000000000001</ele>
        <time>2013-09-06T08:39:53Z</time>
      </trkpt>
      <trkpt lat="50.526182977482677" lon="13.828408028930426">
        <ele>391.87</ele>
        <time>2013-09-06T08:39:54Z</time>
      </trkpt>
      <trkpt lat="50.526236034929752" lon="13.827907964587212">
        <ele>388.99000000000001</ele>
        <time>2013-09-06T08:39:56Z</time>
      </trkpt>
      <trkpt lat="50.526237962767482" lon="13.827671008184552">
        <ele>387.55000000000001</ele>
        <time>2013-09-06T08:39:57Z</time>
      </trkpt>
      <trkpt lat="50.526239974424243" lon="13.827045969665051">
        <ele>385.14999999999998</ele>
        <time>2013-09-06T08:40:01Z</time>
      </trkpt>
      <trkpt lat="50.52623201161623" lon="13.82698000408709">
        <ele>386.11000000000001</ele>
        <time>2013-09-06T08:40:07Z</time>
      </trkpt>
      <trkpt lat="50.526222959160805" lon="13.826889982447028">
        <ele>385.63</ele>
        <time>2013-09-06T08:40:38Z</time>
      </trkpt>
      <trkpt lat="50.526218013837934" lon="13.826787974685431">
        <ele>385.63</ele>
        <time>2013-09-06T08:40:39Z</time>
      </trkpt>
      <trkpt lat="50.52616897970438" lon="13.826310038566589">
        <ele>383.69999999999999</ele>
        <time>2013-09-06T08:40:42Z</time>
      </trkpt>
      <trkpt lat="50.525828003883362" lon="13.824569033458829">
        <ele>374.08999999999997</ele>
        <time>2013-09-06T08:40:49Z</time>
      </trkpt>
      <trkpt lat="50.52489803172648" lon="13.821019968017936">
        <ele>359.67000000000002</ele>
        <time>2013-09-06T08:41:01Z</time>
      </trkpt>
      <trkpt lat="50.524206021800637" lon="13.817731998860836">
        <ele>355.33999999999997</ele>
        <time>2013-09-06T08:41:12Z</time>
      </trkpt>
      <trkpt lat="50.52384995855391" lon="13.815481960773468">
        <ele>349.57999999999998</ele>
        <time>2013-09-06T08:41:20Z</time>
      </trkpt>
      <trkpt lat="50.523765971884131" lon="13.81464603357017">
        <ele>346.20999999999998</ele>
        <time>2013-09-06T08:41:23Z</time>
      </trkpt>
      <trkpt lat="50.523705035448074" lon="13.814384015277028">
        <ele>344.29000000000002</ele>
        <time>2013-09-06T08:41:24Z</time>
      </trkpt>
      <trkpt lat="50.523144034668803" lon="13.812545025721192">
        <ele>334.68000000000001</ele>
        <time>2013-09-06T08:41:32Z</time>
      </trkpt>
      <trkpt lat="50.522574987262487" lon="13.810862023383379">
        <ele>329.38999999999999</ele>
        <time>2013-09-06T08:41:41Z</time>
      </trkpt>
      <trkpt lat="50.522228982299566" lon="13.810075968503952">
        <ele>323.62</ele>
        <time>2013-09-06T08:41:46Z</time>
      </trkpt>
      <trkpt lat="50.522200986742973" lon="13.809916041791439">
        <ele>323.13999999999999</ele>
        <time>2013-09-06T08:41:47Z</time>
      </trkpt>
      <trkpt lat="50.522205010056496" lon="13.809753013774753">
        <ele>322.66000000000003</ele>
        <time>2013-09-06T08:41:48Z</time>
      </trkpt>
      <trkpt lat="50.522219007834792" lon="13.809571964666247">
        <ele>323.13999999999999</ele>
        <time>2013-09-06T08:41:49Z</time>
      </trkpt>
      <trkpt lat="50.522261001169682" lon="13.809388987720013">
        <ele>321.69999999999999</ele>
        <time>2013-09-06T08:41:50Z</time>
      </trkpt>
      <trkpt lat="50.522308023646474" lon="13.809206010773778">
        <ele>322.18000000000001</ele>
        <time>2013-09-06T08:41:51Z</time>
      </trkpt>
      <trkpt lat="50.522366026416421" lon="13.80904097110033">
        <ele>321.69999999999999</ele>
        <time>2013-09-06T08:41:52Z</time>
      </trkpt>
      <trkpt lat="50.522437021136284" lon="13.808890013024211">
        <ele>322.66000000000003</ele>
        <time>2013-09-06T08:41:53Z</time>
      </trkpt>
      <trkpt lat="50.522499969229102" lon="13.80873897112906">
        <ele>323.62</ele>
        <time>2013-09-06T08:41:54Z</time>
      </trkpt>
      <trkpt lat="50.52257901057601" lon="13.808605028316379">
        <ele>324.10000000000002</ele>
        <time>2013-09-06T08:41:55Z</time>
      </trkpt>
      <trkpt lat="50.52266601473093" lon="13.808495979756117">
        <ele>324.57999999999998</ele>
        <time>2013-09-06T08:41:56Z</time>
      </trkpt>
      <trkpt lat="50.522766010835767" lon="13.808419033885002">
        <ele>325.54000000000002</ele>
        <time>2013-09-06T08:41:57Z</time>
      </trkpt>
      <trkpt lat="50.522872963920236" lon="13.808361031115055">
        <ele>326.01999999999998</ele>
        <time>2013-09-06T08:41:58Z</time>
      </trkpt>
      <trkpt lat="50.523870997130871" lon="13.80768796429038">
        <ele>326.5</ele>
        <time>2013-09-06T08:42:06Z</time>
      </trkpt>
      <trkpt lat="50.52442797459662" lon="13.807303989306092">
        <ele>323.62</ele>
        <time>2013-09-06T08:42:10Z</time>
      </trkpt>
      <trkpt lat="50.524540040642023" lon="13.807194018736482">
        <ele>323.13999999999999</ele>
        <time>2013-09-06T08:42:11Z</time>
      </trkpt>
      <trkpt lat="50.524732992053032" lon="13.806972987949848">
        <ele>321.22000000000003</ele>
        <time>2013-09-06T08:42:14Z</time>
      </trkpt>
      <trkpt lat="50.52475000731647" lon="13.806926971301436">
        <ele>320.25999999999999</ele>
        <time>2013-09-06T08:42:15Z</time>
      </trkpt>
      <trkpt lat="50.524744978174567" lon="13.806876009330153">
        <ele>318.81</ele>
        <time>2013-09-06T08:42:16Z</time>
      </trkpt>
      <trkpt lat="50.524721005931497" lon="13.806849019601941">
        <ele>319.77999999999997</ele>
        <time>2013-09-06T08:42:17Z</time>
      </trkpt>
      <trkpt lat="50.52468697540462" lon="13.80686704069376">
        <ele>319.30000000000001</ele>
        <time>2013-09-06T08:42:18Z</time>
      </trkpt>
      <trkpt lat="50.524656968191266" lon="13.806924037635326">
        <ele>319.77999999999997</ele>
        <time>2013-09-06T08:42:19Z</time>
      </trkpt>
      <trkpt lat="50.524625033140182" lon="13.807015987113118">
        <ele>320.74000000000001</ele>
        <time>2013-09-06T08:42:20Z</time>
      </trkpt>
      <trkpt lat="50.524586979299784" lon="13.807110032066703">
        <ele>320.74000000000001</ele>
        <time>2013-09-06T08:42:21Z</time>
      </trkpt>
      <trkpt lat="50.524519002065063" lon="13.807206004858017">
        <ele>321.22000000000003</ele>
        <time>2013-09-06T08:42:22Z</time>
      </trkpt>
      <trkpt lat="50.524441972374916" lon="13.807296026498079">
        <ele>320.74000000000001</ele>
        <time>2013-09-06T08:42:23Z</time>
      </trkpt>
      <trkpt lat="50.524350022897124" lon="13.807387975975871">
        <ele>321.22000000000003</ele>
        <time>2013-09-06T08:42:24Z</time>
      </trkpt>
      <trkpt lat="50.524246003478765" lon="13.807471040636301">
        <ele>321.22000000000003</ele>
        <time>2013-09-06T08:42:25Z</time>
      </trkpt>
      <trkpt lat="50.52412698045373" lon="13.80755502730608">
        <ele>324.10000000000002</ele>
        <time>2013-09-06T08:42:26Z</time>
      </trkpt>
      <trkpt lat="50.522935995832086" lon="13.808402018621564">
        <ele>324.10000000000002</ele>
        <time>2013-09-06T08:42:37Z</time>
      </trkpt>
      <trkpt lat="50.522835999727249" lon="13.80845800973475">
        <ele>323.13999999999999</ele>
        <time>2013-09-06T08:42:38Z</time>
      </trkpt>
      <trkpt lat="50.522554032504559" lon="13.808693960309029">
        <ele>321.69999999999999</ele>
        <time>2013-09-06T08:42:41Z</time>
      </trkpt>
      <trkpt lat="50.522488988935947" lon="13.808819018304348">
        <ele>321.22000000000003</ele>
        <time>2013-09-06T08:42:42Z</time>
      </trkpt>
      <trkpt lat="50.52242998033762" lon="13.808949021622539">
        <ele>321.22000000000003</ele>
        <time>2013-09-06T08:42:43Z</time>
      </trkpt>
      <trkpt lat="50.522248009219766" lon="13.809560984373093">
        <ele>321.69999999999999</ele>
        <time>2013-09-06T08:42:47Z</time>
      </trkpt>
      <trkpt lat="50.522226970642805" lon="13.809719989076257">
        <ele>321.69999999999999</ele>
        <time>2013-09-06T08:42:48Z</time>
      </trkpt>
      <trkpt lat="50.522221019491553" lon="13.809871030971408">
        <ele>321.69999999999999</ele>
        <time>2013-09-06T08:42:49Z</time>
      </trkpt>
      <trkpt lat="50.522200986742973" lon="13.81011301651597">
        <ele>322.18000000000001</ele>
        <time>2013-09-06T08:42:51Z</time>
      </trkpt>
      <trkpt lat="50.522155975922942" lon="13.810180993750691">
        <ele>322.18000000000001</ele>
        <time>2013-09-06T08:42:52Z</time>
      </trkpt>
      <trkpt lat="50.522105013951659" lon="13.810189040377736">
        <ele>323.62</ele>
        <time>2013-09-06T08:42:53Z</time>
      </trkpt>
      <trkpt lat="50.522046005353332" lon="13.810146041214466">
        <ele>323.62</ele>
        <time>2013-09-06T08:42:54Z</time>
      </trkpt>
      <trkpt lat="50.521998982876539" lon="13.81004897877574">
        <ele>323.13999999999999</ele>
        <time>2013-09-06T08:42:55Z</time>
      </trkpt>
      <trkpt lat="50.521963024511933" lon="13.809925010427833">
        <ele>322.66000000000003</ele>
        <time>2013-09-06T08:42:56Z</time>
      </trkpt>
      <trkpt lat="50.521933017298579" lon="13.8097919896245">
        <ele>322.66000000000003</ele>
        <time>2013-09-06T08:42:57Z</time>
      </trkpt>
      <trkpt lat="50.521905021741986" lon="13.809653017669916">
        <ele>322.66000000000003</ele>
        <time>2013-09-06T08:42:58Z</time>
      </trkpt>
      <trkpt lat="50.52178599871695" lon="13.80921296775341">
        <ele>323.13999999999999</ele>
        <time>2013-09-06T08:43:01Z</time>
      </trkpt>
      <trkpt lat="50.521580977365375" lon="13.808590024709702">
        <ele>320.74000000000001</ele>
        <time>2013-09-06T08:43:08Z</time>
      </trkpt>
      <trkpt lat="50.521443011239171" lon="13.808274026960135">
        <ele>321.22000000000003</ele>
        <time>2013-09-06T08:43:25Z</time>
      </trkpt>
      <trkpt lat="50.521376961842179" lon="13.808160033077002">
        <ele>320.74000000000001</ele>
        <time>2013-09-06T08:43:26Z</time>
      </trkpt>
      <trkpt lat="50.52129004150629" lon="13.808052996173501">
        <ele>320.74000000000001</ele>
        <time>2013-09-06T08:43:27Z</time>
      </trkpt>
      <trkpt lat="50.521185016259551" lon="13.807957023382187">
        <ele>320.74000000000001</ele>
        <time>2013-09-06T08:43:28Z</time>
      </trkpt>
      <trkpt lat="50.521074961870909" lon="13.807891979813576">
        <ele>320.74000000000001</ele>
        <time>2013-09-06T08:43:29Z</time>
      </trkpt>
      <trkpt lat="50.520955016836524" lon="13.807838000357151">
        <ele>320.74000000000001</ele>
        <time>2013-09-06T08:43:30Z</time>
      </trkpt>
      <trkpt lat="50.520744966343045" lon="13.807710008695722">
        <ele>320.74000000000001</ele>
        <time>2013-09-06T08:43:32Z</time>
      </trkpt>
      <trkpt lat="50.520652011036873" lon="13.807610012590885">
        <ele>319.77999999999997</ele>
        <time>2013-09-06T08:43:33Z</time>
      </trkpt>
      <trkpt lat="50.520582022145391" lon="13.80746902897954">
        <ele>318.32999999999998</ele>
        <time>2013-09-06T08:43:34Z</time>
      </trkpt>
      <trkpt lat="50.520550003275275" lon="13.80729803815484">
        <ele>317.37</ele>
        <time>2013-09-06T08:43:35Z</time>
      </trkpt>
      <trkpt lat="50.520553020760417" lon="13.807099973782897">
        <ele>315.93000000000001</ele>
        <time>2013-09-06T08:43:36Z</time>
      </trkpt>
      <trkpt lat="50.520569030195475" lon="13.806884977966547">
        <ele>315.44999999999999</ele>
        <time>2013-09-06T08:43:37Z</time>
      </trkpt>
      <trkpt lat="50.520798023790121" lon="13.804872985929251">
        <ele>305.83999999999997</ele>
        <time>2013-09-06T08:43:45Z</time>
      </trkpt>
      <trkpt lat="50.520829958841205" lon="13.804308967664838">
        <ele>303.91000000000003</ele>
        <time>2013-09-06T08:43:47Z</time>
      </trkpt>
      <trkpt lat="50.520773967728019" lon="13.800674993544817">
        <ele>292.38</ele>
        <time>2013-09-06T08:43:59Z</time>
      </trkpt>
      <trkpt lat="50.520598031580448" lon="13.797533959150314">
        <ele>284.20999999999998</ele>
        <time>2013-09-06T08:44:09Z</time>
      </trkpt>
      <trkpt lat="50.520293014124036" lon="13.794801961630583">
        <ele>277.48000000000002</ele>
        <time>2013-09-06T08:44:18Z</time>
      </trkpt>
      <trkpt lat="50.520214978605509" lon="13.794523011893034">
        <ele>277.95999999999998</ele>
        <time>2013-09-06T08:44:19Z</time>
      </trkpt>
      <trkpt lat="50.519545013085008" lon="13.792636999860406">
        <ele>274.58999999999997</ele>
        <time>2013-09-06T08:44:26Z</time>
      </trkpt>
      <trkpt lat="50.519489021971822" lon="13.792347991839051">
        <ele>274.11000000000001</ele>
        <time>2013-09-06T08:44:27Z</time>
      </trkpt>
      <trkpt lat="50.519351977854967" lon="13.791479961946607">
        <ele>273.63</ele>
        <time>2013-09-06T08:44:30Z</time>
      </trkpt>
      <trkpt lat="50.519276037812233" lon="13.791212998330593">
        <ele>274.11000000000001</ele>
        <time>2013-09-06T08:44:31Z</time>
      </trkpt>
      <trkpt lat="50.518875969573855" lon="13.789577018469572">
        <ele>275.56</ele>
        <time>2013-09-06T08:44:38Z</time>
      </trkpt>
      <trkpt lat="50.518659967929125" lon="13.788442024961114">
        <ele>278.44</ele>
        <time>2013-09-06T08:44:44Z</time>
      </trkpt>
      <trkpt lat="50.518594002351165" lon="13.788292994722724">
        <ele>279.39999999999998</ele>
        <time>2013-09-06T08:44:45Z</time>
      </trkpt>
      <trkpt lat="50.518505992367864" lon="13.78817799501121">
        <ele>280.36000000000001</ele>
        <time>2013-09-06T08:44:46Z</time>
      </trkpt>
      <trkpt lat="50.518401972949505" lon="13.788085039705038">
        <ele>280.83999999999997</ele>
        <time>2013-09-06T08:44:47Z</time>
      </trkpt>
      <trkpt lat="50.518287979066372" lon="13.788002980872989">
        <ele>280.83999999999997</ele>
        <time>2013-09-06T08:44:48Z</time>
      </trkpt>
      <trkpt lat="50.517511982470751" lon="13.787409039214253">
        <ele>283.73000000000002</ele>
        <time>2013-09-06T08:44:56Z</time>
      </trkpt>
      <trkpt lat="50.517481975257397" lon="13.787324968725443">
        <ele>283.73000000000002</ele>
        <time>2013-09-06T08:44:57Z</time>
      </trkpt>
      <trkpt lat="50.517479041591287" lon="13.787212986499071">
        <ele>284.20999999999998</ele>
        <time>2013-09-06T08:44:58Z</time>
      </trkpt>
      <trkpt lat="50.517485998570919" lon="13.787093041464686">
        <ele>284.69</ele>
        <time>2013-09-06T08:44:59Z</time>
      </trkpt>
      <trkpt lat="50.517492033541203" lon="13.786954991519451">
        <ele>284.69</ele>
        <time>2013-09-06T08:45:00Z</time>
      </trkpt>
      <trkpt lat="50.517534026876092" lon="13.786086961627007">
        <ele>287.08999999999997</ele>
        <time>2013-09-06T08:45:08Z</time>
      </trkpt>
      <trkpt lat="50.517547018826008" lon="13.785961987450719">
        <ele>286.13</ele>
        <time>2013-09-06T08:45:09Z</time>
      </trkpt>
      <trkpt lat="50.517564034089446" lon="13.785829972475767">
        <ele>285.64999999999998</ele>
        <time>2013-09-06T08:45:10Z</time>
      </trkpt>
      <trkpt lat="50.517602004110813" lon="13.785696029663086">
        <ele>285.64999999999998</ele>
        <time>2013-09-06T08:45:11Z</time>
      </trkpt>
      <trkpt lat="50.517651960253716" lon="13.785559991374612">
        <ele>286.61000000000001</ele>
        <time>2013-09-06T08:45:12Z</time>
      </trkpt>
      <trkpt lat="50.517708035185933" lon="13.785430993884802">
        <ele>287.08999999999997</ele>
        <time>2013-09-06T08:45:13Z</time>
      </trkpt>
      <trkpt lat="50.517775006592274" lon="13.78531901165843">
        <ele>289.00999999999999</ele>
        <time>2013-09-06T08:45:14Z</time>
      </trkpt>
      <trkpt lat="50.517839966341853" lon="13.785214992240071">
        <ele>289.97000000000003</ele>
        <time>2013-09-06T08:45:15Z</time>
      </trkpt>
      <trkpt lat="50.5180240329355" lon="13.784921038895845">
        <ele>289.00999999999999</ele>
        <time>2013-09-06T08:45:18Z</time>
      </trkpt>
      <trkpt lat="50.518079018220305" lon="13.784811990335584">
        <ele>289.49000000000001</ele>
        <time>2013-09-06T08:45:19Z</time>
      </trkpt>
      <trkpt lat="50.518122017383575" lon="13.78469699062407">
        <ele>289.97000000000003</ele>
        <time>2013-09-06T08:45:20Z</time>
      </trkpt>
      <trkpt lat="50.518399039283395" lon="13.78394496627152">
        <ele>291.42000000000002</ele>
        <time>2013-09-06T08:45:26Z</time>
      </trkpt>
      <trkpt lat="50.518420999869704" lon="13.783802976831794">
        <ele>291.42000000000002</ele>
        <time>2013-09-06T08:45:27Z</time>
      </trkpt>
      <trkpt lat="50.51843399181962" lon="13.7836869712919">
        <ele>291.89999999999998</ele>
        <time>2013-09-06T08:45:28Z</time>
      </trkpt>
      <trkpt lat="50.51843298599124" lon="13.783586975187063">
        <ele>291.89999999999998</ele>
        <time>2013-09-06T08:45:29Z</time>
      </trkpt>
      <trkpt lat="50.518427034839988" lon="13.783518997952342">
        <ele>293.33999999999997</ele>
        <time>2013-09-06T08:45:30Z</time>
      </trkpt>
      <trkpt lat="50.51841102540493" lon="13.78347197547555">
        <ele>293.81999999999999</ele>
        <time>2013-09-06T08:45:31Z</time>
      </trkpt>
      <trkpt lat="50.518396021798253" lon="13.783437022939324">
        <ele>293.81999999999999</ele>
        <time>2013-09-06T08:45:32Z</time>
      </trkpt>
      <trkpt lat="50.518354028463364" lon="13.783381031826138">
        <ele>292.38</ele>
        <time>2013-09-06T08:45:34Z</time>
      </trkpt>
      <trkpt lat="50.518310023471713" lon="13.783349012956023">
        <ele>293.33999999999997</ele>
        <time>2013-09-06T08:45:35Z</time>
      </trkpt>
      <trkpt lat="50.518251014873385" lon="13.783344989642501">
        <ele>294.30000000000001</ele>
        <time>2013-09-06T08:45:36Z</time>
      </trkpt>
      <trkpt lat="50.518170967698097" lon="13.783358987420797">
        <ele>294.30000000000001</ele>
        <time>2013-09-06T08:45:37Z</time>
      </trkpt>
      <trkpt lat="50.518096033483744" lon="13.783373991027474">
        <ele>294.77999999999997</ele>
        <time>2013-09-06T08:45:38Z</time>
      </trkpt>
      <trkpt lat="50.518019003793597" lon="13.783360999077559">
        <ele>292.86000000000001</ele>
        <time>2013-09-06T08:45:39Z</time>
      </trkpt>
      <trkpt lat="50.517953038215637" lon="13.78330098465085">
        <ele>293.33999999999997</ele>
        <time>2013-09-06T08:45:40Z</time>
      </trkpt>
      <trkpt lat="50.517904004082084" lon="13.783203000202775">
        <ele>293.81999999999999</ele>
        <time>2013-09-06T08:45:41Z</time>
      </trkpt>
      <trkpt lat="50.517867039889097" lon="13.783080037683249">
        <ele>294.30000000000001</ele>
        <time>2013-09-06T08:45:42Z</time>
      </trkpt>
      <trkpt lat="50.51783099770546" lon="13.782932013273239">
        <ele>294.77999999999997</ele>
        <time>2013-09-06T08:45:43Z</time>
      </trkpt>
      <trkpt lat="50.517395976930857" lon="13.781110960990191">
        <ele>305.36000000000001</ele>
        <time>2013-09-06T08:45:53Z</time>
      </trkpt>
      <trkpt lat="50.516833970323205" lon="13.778837034478784">
        <ele>312.08999999999997</ele>
        <time>2013-09-06T08:46:02Z</time>
      </trkpt>
      <trkpt lat="50.51620096899569" lon="13.776462022215128">
        <ele>311.60000000000002</ele>
        <time>2013-09-06T08:46:11Z</time>
      </trkpt>
      <trkpt lat="50.51551298238337" lon="13.775188978761435">
        <ele>309.68000000000001</ele>
        <time>2013-09-06T08:46:17Z</time>
      </trkpt>
      <trkpt lat="50.515369987115264" lon="13.775010025128722">
        <ele>308.72000000000003</ele>
        <time>2013-09-06T08:46:18Z</time>
      </trkpt>
      <trkpt lat="50.514708990231156" lon="13.774163033813238">
        <ele>303.91000000000003</ele>
        <time>2013-09-06T08:46:23Z</time>
      </trkpt>
      <trkpt lat="50.514606982469559" lon="13.773954994976521">
        <ele>303.43000000000001</ele>
        <time>2013-09-06T08:46:24Z</time>
      </trkpt>
      <trkpt lat="50.514334989711642" lon="13.773315036669374">
        <ele>301.50999999999999</ele>
        <time>2013-09-06T08:46:27Z</time>
      </trkpt>
      <trkpt lat="50.514228036627173" lon="13.773133987560868">
        <ele>301.50999999999999</ele>
        <time>2013-09-06T08:46:28Z</time>
      </trkpt>
      <trkpt lat="50.512866983190179" lon="13.771448973566294">
        <ele>289.97000000000003</ele>
        <time>2013-09-06T08:46:38Z</time>
      </trkpt>
      <trkpt lat="50.511654959991574" lon="13.770011980086565">
        <ele>278.44</ele>
        <time>2013-09-06T08:46:48Z</time>
      </trkpt>
      <trkpt lat="50.511482963338494" lon="13.769845012575388">
        <ele>277</ele>
        <time>2013-09-06T08:46:50Z</time>
      </trkpt>
      <trkpt lat="50.511410040780902" lon="13.76980796456337">
        <ele>277.95999999999998</ele>
        <time>2013-09-06T08:46:51Z</time>
      </trkpt>
      <trkpt lat="50.511327981948853" lon="13.769789021462202">
        <ele>277.48000000000002</ele>
        <time>2013-09-06T08:46:52Z</time>
      </trkpt>
      <trkpt lat="50.51123502664268" lon="13.769804025068879">
        <ele>277.48000000000002</ele>
        <time>2013-09-06T08:46:53Z</time>
      </trkpt>
      <trkpt lat="50.511156991124153" lon="13.769821040332317">
        <ele>277.95999999999998</ele>
        <time>2013-09-06T08:46:54Z</time>
      </trkpt>
      <trkpt lat="50.51076396368444" lon="13.769921036437154">
        <ele>275.56</ele>
        <time>2013-09-06T08:47:01Z</time>
      </trkpt>
      <trkpt lat="50.510642006993294" lon="13.769910978153348">
        <ele>276.04000000000002</ele>
        <time>2013-09-06T08:47:03Z</time>
      </trkpt>
      <trkpt lat="50.510553997009993" lon="13.769876025617123">
        <ele>277.95999999999998</ele>
        <time>2013-09-06T08:47:04Z</time>
      </trkpt>
      <trkpt lat="50.51011998206377" lon="13.7695939745754">
        <ele>274.58999999999997</ele>
        <time>2013-09-06T08:47:08Z</time>
      </trkpt>
      <trkpt lat="50.510014034807682" lon="13.769467994570732">
        <ele>273.63</ele>
        <time>2013-09-06T08:47:09Z</time>
      </trkpt>
      <trkpt lat="50.509926024824381" lon="13.76929298043251">
        <ele>272.67000000000002</ele>
        <time>2013-09-06T08:47:10Z</time>
      </trkpt>
      <trkpt lat="50.509851006790996" lon="13.769091982394457">
        <ele>272.67000000000002</ele>
        <time>2013-09-06T08:47:11Z</time>
      </trkpt>
      <trkpt lat="50.509783029556274" lon="13.768888972699642">
        <ele>272.67000000000002</ele>
        <time>2013-09-06T08:47:12Z</time>
      </trkpt>
      <trkpt lat="50.50962301902473" lon="13.768507009372115">
        <ele>275.06999999999999</ele>
        <time>2013-09-06T08:47:14Z</time>
      </trkpt>
      <trkpt lat="50.508753983303905" lon="13.767117960378528">
        <ele>274.58999999999997</ele>
        <time>2013-09-06T08:47:21Z</time>
      </trkpt>
      <trkpt lat="50.507012978196144" lon="13.763781962916255">
        <ele>293.81999999999999</ele>
        <time>2013-09-06T08:47:35Z</time>
      </trkpt>
      <trkpt lat="50.506333960220218" lon="13.762302976101637">
        <ele>298.63</ele>
        <time>2013-09-06T08:47:41Z</time>
      </trkpt>
      <trkpt lat="50.506189959123731" lon="13.762086974456906">
        <ele>299.58999999999997</ele>
        <time>2013-09-06T08:47:42Z</time>
      </trkpt>
      <trkpt lat="50.504345018416643" lon="13.759658988565207">
        <ele>306.80000000000001</ele>
        <time>2013-09-06T08:47:54Z</time>
      </trkpt>
      <trkpt lat="50.50266302190721" lon="13.757252041250467">
        <ele>309.68000000000001</ele>
        <time>2013-09-06T08:48:06Z</time>
      </trkpt>
      <trkpt lat="50.501736989244819" lon="13.756002970039845">
        <ele>309.68000000000001</ele>
        <time>2013-09-06T08:48:14Z</time>
      </trkpt>
      <trkpt lat="50.501616960391402" lon="13.755953013896942">
        <ele>308.72000000000003</ele>
        <time>2013-09-06T08:48:15Z</time>
      </trkpt>
      <trkpt lat="50.501500032842159" lon="13.755952008068562">
        <ele>308.72000000000003</ele>
        <time>2013-09-06T08:48:16Z</time>
      </trkpt>
      <trkpt lat="50.501385033130646" lon="13.755981009453535">
        <ele>309.68000000000001</ele>
        <time>2013-09-06T08:48:17Z</time>
      </trkpt>
      <trkpt lat="50.501257041469216" lon="13.756047980859876">
        <ele>308.72000000000003</ele>
        <time>2013-09-06T08:48:18Z</time>
      </trkpt>
      <trkpt lat="50.501118991523981" lon="13.756132973358035">
        <ele>307.27999999999997</ele>
        <time>2013-09-06T08:48:19Z</time>
      </trkpt>
      <trkpt lat="50.500005036592484" lon="13.756435979157686">
        <ele>292.86000000000001</ele>
        <time>2013-09-06T08:48:27Z</time>
      </trkpt>
      <trkpt lat="50.499713011085987" lon="13.756347969174385">
        <ele>288.05000000000001</ele>
        <time>2013-09-06T08:48:29Z</time>
      </trkpt>
      <trkpt lat="50.499565992504358" lon="13.75627102330327">
        <ele>286.61000000000001</ele>
        <time>2013-09-06T08:48:30Z</time>
      </trkpt>
      <trkpt lat="50.498248022049665" lon="13.755314983427525">
        <ele>276.04000000000002</ele>
        <time>2013-09-06T08:48:38Z</time>
      </trkpt>
      <trkpt lat="50.49628003500402" lon="13.754114024341106">
        <ele>260.17000000000002</ele>
        <time>2013-09-06T08:48:49Z</time>
      </trkpt>
      <trkpt lat="50.495276972651482" lon="13.753369962796569">
        <ele>256.32999999999998</ele>
        <time>2013-09-06T08:48:56Z</time>
      </trkpt>
      <trkpt lat="50.494207022711635" lon="13.752549961209297">
        <ele>249.12</ele>
        <time>2013-09-06T08:49:06Z</time>
      </trkpt>
      <trkpt lat="50.493573015555739" lon="13.752220971509814">
        <ele>244.31</ele>
        <time>2013-09-06T08:49:12Z</time>
      </trkpt>
      <trkpt lat="50.493475031107664" lon="13.752217032015324">
        <ele>243.83000000000001</ele>
        <time>2013-09-06T08:49:13Z</time>
      </trkpt>
      <trkpt lat="50.493387021124363" lon="13.75223002396524">
        <ele>243.34999999999999</ele>
        <time>2013-09-06T08:49:14Z</time>
      </trkpt>
      <trkpt lat="50.493310997262597" lon="13.752250978723168">
        <ele>243.83000000000001</ele>
        <time>2013-09-06T08:49:15Z</time>
      </trkpt>
      <trkpt lat="50.493236985057592" lon="13.752282997593284">
        <ele>242.38999999999999</ele>
        <time>2013-09-06T08:49:16Z</time>
      </trkpt>
      <trkpt lat="50.493174036964774" lon="13.752321973443031">
        <ele>242.87</ele>
        <time>2013-09-06T08:49:17Z</time>
      </trkpt>
      <trkpt lat="50.493116034194827" lon="13.752352986484766">
        <ele>241.91</ele>
        <time>2013-09-06T08:49:18Z</time>
      </trkpt>
      <trkpt lat="50.492703979834914" lon="13.752650963142514">
        <ele>239.02000000000001</ele>
        <time>2013-09-06T08:49:27Z</time>
      </trkpt>
      <trkpt lat="50.492676990106702" lon="13.752693040296435">
        <ele>238.06</ele>
        <time>2013-09-06T08:49:28Z</time>
      </trkpt>
      <trkpt lat="50.492653017863631" lon="13.752750959247351">
        <ele>239.50999999999999</ele>
        <time>2013-09-06T08:49:29Z</time>
      </trkpt>
      <trkpt lat="50.492620998993516" lon="13.752823965623975">
        <ele>239.02000000000001</ele>
        <time>2013-09-06T08:49:30Z</time>
      </trkpt>
      <trkpt lat="50.492252027615905" lon="13.753763996064663">
        <ele>239.02000000000001</ele>
        <time>2013-09-06T08:49:38Z</time>
      </trkpt>
      <trkpt lat="50.492191007360816" lon="13.753860974684358">
        <ele>239.02000000000001</ele>
        <time>2013-09-06T08:49:39Z</time>
      </trkpt>
      <trkpt lat="50.492125041782856" lon="13.753949990496039">
        <ele>239.02000000000001</ele>
        <time>2013-09-06T08:49:40Z</time>
      </trkpt>
      <trkpt lat="50.49204801209271" lon="13.75399399548769">
        <ele>239.02000000000001</ele>
        <time>2013-09-06T08:49:41Z</time>
      </trkpt>
      <trkpt lat="50.491964025422931" lon="13.753989972174168">
        <ele>239.02000000000001</ele>
        <time>2013-09-06T08:49:42Z</time>
      </trkpt>
      <trkpt lat="50.491882972419262" lon="13.753933981060982">
        <ele>238.06</ele>
        <time>2013-09-06T08:49:43Z</time>
      </trkpt>
      <trkpt lat="50.491782976314425" lon="13.753859968855977">
        <ele>239.50999999999999</ele>
        <time>2013-09-06T08:49:44Z</time>
      </trkpt>
      <trkpt lat="50.491702007129788" lon="13.753757961094379">
        <ele>237.09999999999999</ele>
        <time>2013-09-06T08:49:45Z</time>
      </trkpt>
      <trkpt lat="50.491632018238306" lon="13.753656959161162">
        <ele>237.58000000000001</ele>
        <time>2013-09-06T08:49:46Z</time>
      </trkpt>
      <trkpt lat="50.49157502129674" lon="13.753527039662004">
        <ele>235.66</ele>
        <time>2013-09-06T08:49:47Z</time>
      </trkpt>
      <trkpt lat="50.491520036011934" lon="13.753379015251994">
        <ele>235.18000000000001</ele>
        <time>2013-09-06T08:49:48Z</time>
      </trkpt>
      <trkpt lat="50.490750996395946" lon="13.751417985185981">
        <ele>230.37</ele>
        <time>2013-09-06T08:50:00Z</time>
      </trkpt>
      <trkpt lat="50.490474980324507" lon="13.749618977308273">
        <ele>227.00999999999999</ele>
        <time>2013-09-06T08:50:09Z</time>
      </trkpt>
      <trkpt lat="50.490380013361573" lon="13.748833006247878">
        <ele>227.00999999999999</ele>
        <time>2013-09-06T08:50:13Z</time>
      </trkpt>
      <trkpt lat="50.490326033905149" lon="13.748661009594798">
        <ele>228.44999999999999</ele>
        <time>2013-09-06T08:50:14Z</time>
      </trkpt>
      <trkpt lat="50.490274988114834" lon="13.74849203042686">
        <ele>228.44999999999999</ele>
        <time>2013-09-06T08:50:15Z</time>
      </trkpt>
      <trkpt lat="50.49024598672986" lon="13.74830100685358">
        <ele>228.44999999999999</ele>
        <time>2013-09-06T08:50:16Z</time>
      </trkpt>
      <trkpt lat="50.490218997001648" lon="13.748113000765443">
        <ele>228.93000000000001</ele>
        <time>2013-09-06T08:50:17Z</time>
      </trkpt>
      <trkpt lat="50.489783976227045" lon="13.746507028117776">
        <ele>228.44999999999999</ele>
        <time>2013-09-06T08:50:25Z</time>
      </trkpt>
      <trkpt lat="50.489294975996017" lon="13.74443200416863">
        <ele>224.12</ele>
        <time>2013-09-06T08:50:33Z</time>
      </trkpt>
      <trkpt lat="50.488937990739942" lon="13.741978034377098">
        <ele>219.80000000000001</ele>
        <time>2013-09-06T08:50:41Z</time>
      </trkpt>
      <trkpt lat="50.488942014053464" lon="13.741652984172106">
        <ele>219.80000000000001</ele>
        <time>2013-09-06T08:50:42Z</time>
      </trkpt>
      <trkpt lat="50.489004040136933" lon="13.737910967320204">
        <ele>223.16</ele>
        <time>2013-09-06T08:50:53Z</time>
      </trkpt>
      <trkpt lat="50.48910403624177" lon="13.734562983736396">
        <ele>223.16</ele>
        <time>2013-09-06T08:51:03Z</time>
      </trkpt>
      <trkpt lat="50.489209983497858" lon="13.730880981311202">
        <ele>219.31999999999999</ele>
        <time>2013-09-06T08:51:14Z</time>
      </trkpt>
      <trkpt lat="50.489161033183336" lon="13.730579987168312">
        <ele>219.80000000000001</ele>
        <time>2013-09-06T08:51:15Z</time>
      </trkpt>
      <trkpt lat="50.488757025450468" lon="13.727825023233891">
        <ele>217.88</ele>
        <time>2013-09-06T08:51:24Z</time>
      </trkpt>
      <trkpt lat="50.488756019622087" lon="13.725471971556544">
        <ele>218.36000000000001</ele>
        <time>2013-09-06T08:51:33Z</time>
      </trkpt>
      <trkpt lat="50.488613024353981" lon="13.7227320112288">
        <ele>214.50999999999999</ele>
        <time>2013-09-06T08:51:42Z</time>
      </trkpt>
      <trkpt lat="50.488437004387379" lon="13.721583019942045">
        <ele>212.59</ele>
        <time>2013-09-06T08:51:46Z</time>
      </trkpt>
      <trkpt lat="50.488345976918936" lon="13.721319995820522">
        <ele>212.11000000000001</ele>
        <time>2013-09-06T08:51:47Z</time>
      </trkpt>
      <trkpt lat="50.487306034192443" lon="13.719041040167212">
        <ele>209.69999999999999</ele>
        <time>2013-09-06T08:51:57Z</time>
      </trkpt>
      <trkpt lat="50.486461976543069" lon="13.71753104031086">
        <ele>206.34</ele>
        <time>2013-09-06T08:52:07Z</time>
      </trkpt>
      <trkpt lat="50.486399028450251" lon="13.717424003407359">
        <ele>206.34</ele>
        <time>2013-09-06T08:52:08Z</time>
      </trkpt>
      <trkpt lat="50.486358962953091" lon="13.71731897816062">
        <ele>205.86000000000001</ele>
        <time>2013-09-06T08:52:09Z</time>
      </trkpt>
      <trkpt lat="50.486352005973458" lon="13.717194003984332">
        <ele>206.34</ele>
        <time>2013-09-06T08:52:10Z</time>
      </trkpt>
      <trkpt lat="50.48639802262187" lon="13.717069029808044">
        <ele>207.30000000000001</ele>
        <time>2013-09-06T08:52:11Z</time>
      </trkpt>
      <trkpt lat="50.486468011513352" lon="13.71693299151957">
        <ele>207.30000000000001</ele>
        <time>2013-09-06T08:52:12Z</time>
      </trkpt>
      <trkpt lat="50.486558033153415" lon="13.716794019564986">
        <ele>206.81999999999999</ele>
        <time>2013-09-06T08:52:13Z</time>
      </trkpt>
      <trkpt lat="50.487250965088606" lon="13.715672018006444">
        <ele>209.22</ele>
        <time>2013-09-06T08:52:19Z</time>
      </trkpt>
      <trkpt lat="50.488425018265843" lon="13.713694978505373">
        <ele>214.99000000000001</ele>
        <time>2013-09-06T08:52:27Z</time>
      </trkpt>
      <trkpt lat="50.491026006639004" lon="13.709146035835147">
        <ele>227.49000000000001</ele>
        <time>2013-09-06T08:52:44Z</time>
      </trkpt>
      <trkpt lat="50.49207198433578" lon="13.706737998872995">
        <ele>233.74000000000001</ele>
        <time>2013-09-06T08:52:52Z</time>
      </trkpt>
      <trkpt lat="50.492398962378502" lon="13.704256033524871">
        <ele>239.02000000000001</ele>
        <time>2013-09-06T08:52:59Z</time>
      </trkpt>
      <trkpt lat="50.492441039532423" lon="13.700561039149761">
        <ele>254.88999999999999</ele>
        <time>2013-09-06T08:53:09Z</time>
      </trkpt>
      <trkpt lat="50.492568025365472" lon="13.699864000082016">
        <ele>258.73000000000002</ele>
        <time>2013-09-06T08:53:11Z</time>
      </trkpt>
      <trkpt lat="50.492657041177154" lon="13.699538027867675">
        <ele>260.64999999999998</ele>
        <time>2013-09-06T08:53:12Z</time>
      </trkpt>
      <trkpt lat="50.492763994261622" lon="13.699222030118108">
        <ele>263.06</ele>
        <time>2013-09-06T08:53:13Z</time>
      </trkpt>
      <trkpt lat="50.492882011458278" lon="13.698922041803598">
        <ele>265.45999999999998</ele>
        <time>2013-09-06T08:53:14Z</time>
      </trkpt>
      <trkpt lat="50.493010003119707" lon="13.698634039610624">
        <ele>267.38</ele>
        <time>2013-09-06T08:53:15Z</time>
      </trkpt>
      <trkpt lat="50.494147008284926" lon="13.696867972612381">
        <ele>277.48000000000002</ele>
        <time>2013-09-06T08:53:22Z</time>
      </trkpt>
      <trkpt lat="50.495704030618072" lon="13.694452978670597">
        <ele>287.56999999999999</ele>
        <time>2013-09-06T08:53:32Z</time>
      </trkpt>
      <trkpt lat="50.497402958571911" lon="13.69157999753952">
        <ele>287.08999999999997</ele>
        <time>2013-09-06T08:53:45Z</time>
      </trkpt>
      <trkpt lat="50.498103015124798" lon="13.689973019063473">
        <ele>284.69</ele>
        <time>2013-09-06T08:53:52Z</time>
      </trkpt>
      <trkpt lat="50.498438961803913" lon="13.687920039519668">
        <ele>279.39999999999998</ele>
        <time>2013-09-06T08:54:00Z</time>
      </trkpt>
      <trkpt lat="50.498597966507077" lon="13.686479022726417">
        <ele>271.70999999999998</ele>
        <time>2013-09-06T08:54:07Z</time>
      </trkpt>
      <trkpt lat="50.498651023954153" lon="13.68633602745831">
        <ele>270.75</ele>
        <time>2013-09-06T08:54:08Z</time>
      </trkpt>
      <trkpt lat="50.498726963996887" lon="13.686231002211571">
        <ele>269.31</ele>
        <time>2013-09-06T08:54:09Z</time>
      </trkpt>
      <trkpt lat="50.498822014778852" lon="13.686178028583527">
        <ele>268.35000000000002</ele>
        <time>2013-09-06T08:54:10Z</time>
      </trkpt>
      <trkpt lat="50.498921005055308" lon="13.686195965856314">
        <ele>266.42000000000002</ele>
        <time>2013-09-06T08:54:11Z</time>
      </trkpt>
      <trkpt lat="50.49900901503861" lon="13.686269978061318">
        <ele>264.98000000000002</ele>
        <time>2013-09-06T08:54:12Z</time>
      </trkpt>
      <trkpt lat="50.499089984223247" lon="13.686394030228257">
        <ele>264.5</ele>
        <time>2013-09-06T08:54:13Z</time>
      </trkpt>
      <trkpt lat="50.499149998649955" lon="13.686552029103041">
        <ele>264.01999999999998</ele>
        <time>2013-09-06T08:54:14Z</time>
      </trkpt>
      <trkpt lat="50.499177994206548" lon="13.686731988564134">
        <ele>263.54000000000002</ele>
        <time>2013-09-06T08:54:15Z</time>
      </trkpt>
      <trkpt lat="50.499184029176831" lon="13.686928963288665">
        <ele>263.06</ele>
        <time>2013-09-06T08:54:16Z</time>
      </trkpt>
      <trkpt lat="50.49916097894311" lon="13.68713297881186">
        <ele>263.06</ele>
        <time>2013-09-06T08:54:17Z</time>
      </trkpt>
      <trkpt lat="50.499115968123078" lon="13.687318973243237">
        <ele>263.06</ele>
        <time>2013-09-06T08:54:18Z</time>
      </trkpt>
      <trkpt lat="50.499038016423583" lon="13.6874970048666">
        <ele>264.01999999999998</ele>
        <time>2013-09-06T08:54:19Z</time>
      </trkpt>
      <trkpt lat="50.498940031975508" lon="13.687666989862919">
        <ele>264.01999999999998</ele>
        <time>2013-09-06T08:54:20Z</time>
      </trkpt>
      <trkpt lat="50.498828971758485" lon="13.687805961817503">
        <ele>264.5</ele>
        <time>2013-09-06T08:54:21Z</time>
      </trkpt>
      <trkpt lat="50.498707015067339" lon="13.687899000942707">
        <ele>265.94</ele>
        <time>2013-09-06T08:54:22Z</time>
      </trkpt>
      <trkpt lat="50.498572988435626" lon="13.687951974570751">
        <ele>266.89999999999998</ele>
        <time>2013-09-06T08:54:23Z</time>
      </trkpt>
      <trkpt lat="50.498437033966184" lon="13.687978964298964">
        <ele>267.38</ele>
        <time>2013-09-06T08:54:24Z</time>
      </trkpt>
      <trkpt lat="50.498305018991232" lon="13.687981981784105">
        <ele>267.86000000000001</ele>
        <time>2013-09-06T08:54:25Z</time>
      </trkpt>
      <trkpt lat="50.498154982924461" lon="13.687918027862906">
        <ele>267.86000000000001</ele>
        <time>2013-09-06T08:54:26Z</time>
      </trkpt>
      <trkpt lat="50.498016010969877" lon="13.687805961817503">
        <ele>268.35000000000002</ele>
        <time>2013-09-06T08:54:27Z</time>
      </trkpt>
      <trkpt lat="50.497890030965209" lon="13.687655003741384">
        <ele>268.82999999999998</ele>
        <time>2013-09-06T08:54:28Z</time>
      </trkpt>
      <trkpt lat="50.497771007940173" lon="13.68747403845191">
        <ele>269.31</ele>
        <time>2013-09-06T08:54:29Z</time>
      </trkpt>
      <trkpt lat="50.497665982693434" lon="13.687293995171785">
        <ele>269.79000000000002</ele>
        <time>2013-09-06T08:54:30Z</time>
      </trkpt>
      <trkpt lat="50.497573027387261" lon="13.687106994912028">
        <ele>270.26999999999998</ele>
        <time>2013-09-06T08:54:31Z</time>
      </trkpt>
      <trkpt lat="50.497490968555212" lon="13.686924017965794">
        <ele>270.26999999999998</ele>
        <time>2013-09-06T08:54:32Z</time>
      </trkpt>
      <trkpt lat="50.497423997148871" lon="13.686736011877656">
        <ele>271.23000000000002</ele>
        <time>2013-09-06T08:54:33Z</time>
      </trkpt>
      <trkpt lat="50.497349984943867" lon="13.686534008011222">
        <ele>271.70999999999998</ele>
        <time>2013-09-06T08:54:34Z</time>
      </trkpt>
      <trkpt lat="50.497289970517159" lon="13.686327980831265">
        <ele>271.23000000000002</ele>
        <time>2013-09-06T08:54:35Z</time>
      </trkpt>
      <trkpt lat="50.497233979403973" lon="13.68610099889338">
        <ele>272.19</ele>
        <time>2013-09-06T08:54:36Z</time>
      </trkpt>
      <trkpt lat="50.497111016884446" lon="13.685347968712449">
        <ele>273.14999999999998</ele>
        <time>2013-09-06T08:54:39Z</time>
      </trkpt>
      <trkpt lat="50.497100036591291" lon="13.6850690189749">
        <ele>274.11000000000001</ele>
        <time>2013-09-06T08:54:40Z</time>
      </trkpt>
      <trkpt lat="50.497113028541207" lon="13.684770036488771">
        <ele>275.06999999999999</ele>
        <time>2013-09-06T08:54:41Z</time>
      </trkpt>
      <trkpt lat="50.497048990800977" lon="13.682299973443151">
        <ele>281.31999999999999</ele>
        <time>2013-09-06T08:54:49Z</time>
      </trkpt>
      <trkpt lat="50.496984031051397" lon="13.68199503980577">
        <ele>282.76999999999998</ele>
        <time>2013-09-06T08:54:50Z</time>
      </trkpt>
      <trkpt lat="50.496902978047729" lon="13.68171701207757">
        <ele>283.73000000000002</ele>
        <time>2013-09-06T08:54:51Z</time>
      </trkpt>
      <trkpt lat="50.496800970286131" lon="13.681448036804795">
        <ele>285.17000000000002</ele>
        <time>2013-09-06T08:54:52Z</time>
      </trkpt>
      <trkpt lat="50.496688988059759" lon="13.681193981319666">
        <ele>286.13</ele>
        <time>2013-09-06T08:54:53Z</time>
      </trkpt>
      <trkpt lat="50.496553033590317" lon="13.680946966633201">
        <ele>286.61000000000001</ele>
        <time>2013-09-06T08:54:54Z</time>
      </trkpt>
      <trkpt lat="50.496414983645082" lon="13.680703975260258">
        <ele>288.05000000000001</ele>
        <time>2013-09-06T08:54:55Z</time>
      </trkpt>
      <trkpt lat="50.496264025568962" lon="13.68047196418047">
        <ele>289.00999999999999</ele>
        <time>2013-09-06T08:54:56Z</time>
      </trkpt>
      <trkpt lat="50.494487984105945" lon="13.67750502191484">
        <ele>297.67000000000002</ele>
        <time>2013-09-06T08:55:08Z</time>
      </trkpt>
      <trkpt lat="50.493648033589125" lon="13.675704002380371">
        <ele>297.18000000000001</ele>
        <time>2013-09-06T08:55:16Z</time>
      </trkpt>
      <trkpt lat="50.493109999224544" lon="13.674419978633523">
        <ele>294.30000000000001</ele>
        <time>2013-09-06T08:55:24Z</time>
      </trkpt>
      <trkpt lat="50.492950994521379" lon="13.673978000879288">
        <ele>293.33999999999997</ele>
        <time>2013-09-06T08:55:27Z</time>
      </trkpt>
      <trkpt lat="50.492919981479645" lon="13.673835005611181">
        <ele>292.86000000000001</ele>
        <time>2013-09-06T08:55:28Z</time>
      </trkpt>
      <trkpt lat="50.492834988981485" lon="13.673566030338407">
        <ele>292.86000000000001</ele>
        <time>2013-09-06T08:55:30Z</time>
      </trkpt>
      <trkpt lat="50.49275896511972" lon="13.673447007313371">
        <ele>292.38</ele>
        <time>2013-09-06T08:55:31Z</time>
      </trkpt>
      <trkpt lat="50.492480015382171" lon="13.673031013458967">
        <ele>291.42000000000002</ele>
        <time>2013-09-06T08:55:34Z</time>
      </trkpt>
      <trkpt lat="50.491627994924784" lon="13.671365026384592">
        <ele>287.08999999999997</ele>
        <time>2013-09-06T08:55:42Z</time>
      </trkpt>
      <trkpt lat="50.490623004734516" lon="13.669882016256452">
        <ele>293.33999999999997</ele>
        <time>2013-09-06T08:55:48Z</time>
      </trkpt>
      <trkpt lat="50.488788960501552" lon="13.667944958433509">
        <ele>307.75999999999999</ele>
        <time>2013-09-06T08:55:56Z</time>
      </trkpt>
      <trkpt lat="50.487158009782434" lon="13.666210994124413">
        <ele>309.19999999999999</ele>
        <time>2013-09-06T08:56:04Z</time>
      </trkpt>
      <trkpt lat="50.485894018784165" lon="13.664367981255054">
        <ele>296.69999999999999</ele>
        <time>2013-09-06T08:56:12Z</time>
      </trkpt>
      <trkpt lat="50.484995981678367" lon="13.66201501339674">
        <ele>289.97000000000003</ele>
        <time>2013-09-06T08:56:20Z</time>
      </trkpt>
      <trkpt lat="50.4845280200243" lon="13.659563977271318">
        <ele>288.52999999999997</ele>
        <time>2013-09-06T08:56:28Z</time>
      </trkpt>
      <trkpt lat="50.484470017254353" lon="13.656847989186645">
        <ele>285.64999999999998</ele>
        <time>2013-09-06T08:56:37Z</time>
      </trkpt>
      <trkpt lat="50.48482901416719" lon="13.6542599927634">
        <ele>283.73000000000002</ele>
        <time>2013-09-06T08:56:46Z</time>
      </trkpt>
      <trkpt lat="50.485295969992876" lon="13.652707999572158">
        <ele>285.17000000000002</ele>
        <time>2013-09-06T08:56:54Z</time>
      </trkpt>
      <trkpt lat="50.485399989411235" lon="13.65243399515748">
        <ele>285.64999999999998</ele>
        <time>2013-09-06T08:56:56Z</time>
      </trkpt>
      <trkpt lat="50.485460003837943" lon="13.65232503041625">
        <ele>285.64999999999998</ele>
        <time>2013-09-06T08:56:57Z</time>
      </trkpt>
      <trkpt lat="50.485544996336102" lon="13.652257975190878">
        <ele>286.13</ele>
        <time>2013-09-06T08:56:58Z</time>
      </trkpt>
      <trkpt lat="50.485634012147784" lon="13.65219796076417">
        <ele>286.13</ele>
        <time>2013-09-06T08:56:59Z</time>
      </trkpt>
      <trkpt lat="50.485700983554125" lon="13.652114979922771">
        <ele>286.61000000000001</ele>
        <time>2013-09-06T08:57:00Z</time>
      </trkpt>
      <trkpt lat="50.485740965232253" lon="13.652006015181541">
        <ele>285.64999999999998</ele>
        <time>2013-09-06T08:57:01Z</time>
      </trkpt>
      <trkpt lat="50.485751023516059" lon="13.651871988549829">
        <ele>285.17000000000002</ele>
        <time>2013-09-06T08:57:02Z</time>
      </trkpt>
      <trkpt lat="50.485728979110718" lon="13.651720024645329">
        <ele>284.69</ele>
        <time>2013-09-06T08:57:03Z</time>
      </trkpt>
      <trkpt lat="50.485715987160802" lon="13.651582980528474">
        <ele>284.20999999999998</ele>
        <time>2013-09-06T08:57:04Z</time>
      </trkpt>
      <trkpt lat="50.485728979110718" lon="13.651435961946845">
        <ele>284.69</ele>
        <time>2013-09-06T08:57:05Z</time>
      </trkpt>
      <trkpt lat="50.485765021294355" lon="13.651291960850358">
        <ele>284.69</ele>
        <time>2013-09-06T08:57:06Z</time>
      </trkpt>
      <trkpt lat="50.486363992094994" lon="13.649603007361293">
        <ele>286.13</ele>
        <time>2013-09-06T08:57:17Z</time>
      </trkpt>
      <trkpt lat="50.487146023660898" lon="13.647397980093956">
        <ele>281.31999999999999</ele>
        <time>2013-09-06T08:57:27Z</time>
      </trkpt>
      <trkpt lat="50.487812971696258" lon="13.644557017832994">
        <ele>269.79000000000002</ele>
        <time>2013-09-06T08:57:38Z</time>
      </trkpt>
      <trkpt lat="50.487877009436488" lon="13.642070023342967">
        <ele>257.29000000000002</ele>
        <time>2013-09-06T08:57:47Z</time>
      </trkpt>
      <trkpt lat="50.487479958683252" lon="13.638396989554167">
        <ele>250.56</ele>
        <time>2013-09-06T08:58:01Z</time>
      </trkpt>
      <trkpt lat="50.487324977293611" lon="13.636597981676459">
        <ele>248.16</ele>
        <time>2013-09-06T08:58:10Z</time>
      </trkpt>
      <trkpt lat="50.487317014485598" lon="13.636309979483485">
        <ele>247.19999999999999</ele>
        <time>2013-09-06T08:58:12Z</time>
      </trkpt>
      <trkpt lat="50.487330006435513" lon="13.636194979771972">
        <ele>247.19999999999999</ele>
        <time>2013-09-06T08:58:13Z</time>
      </trkpt>
      <trkpt lat="50.487363031134009" lon="13.636071011424065">
        <ele>247.68000000000001</ele>
        <time>2013-09-06T08:58:14Z</time>
      </trkpt>
      <trkpt lat="50.487418016418815" lon="13.635960035026073">
        <ele>247.68000000000001</ele>
        <time>2013-09-06T08:58:15Z</time>
      </trkpt>
      <trkpt lat="50.487478030845523" lon="13.635856015607715">
        <ele>248.16</ele>
        <time>2013-09-06T08:58:16Z</time>
      </trkpt>
      <trkpt lat="50.487503008916974" lon="13.635724000632763">
        <ele>248.16</ele>
        <time>2013-09-06T08:58:17Z</time>
      </trkpt>
      <trkpt lat="50.487494040280581" lon="13.635578993707895">
        <ele>247.19999999999999</ele>
        <time>2013-09-06T08:58:18Z</time>
      </trkpt>
      <trkpt lat="50.487460009753704" lon="13.635455025359988">
        <ele>245.75</ele>
        <time>2013-09-06T08:58:19Z</time>
      </trkpt>
      <trkpt lat="50.487395972013474" lon="13.635365003719926">
        <ele>244.31</ele>
        <time>2013-09-06T08:58:20Z</time>
      </trkpt>
      <trkpt lat="50.487308967858553" lon="13.635318987071514">
        <ele>243.34999999999999</ele>
        <time>2013-09-06T08:58:21Z</time>
      </trkpt>
      <trkpt lat="50.487211989238858" lon="13.635319992899895">
        <ele>243.34999999999999</ele>
        <time>2013-09-06T08:58:22Z</time>
      </trkpt>
      <trkpt lat="50.487111993134022" lon="13.635347988456488">
        <ele>243.34999999999999</ele>
        <time>2013-09-06T08:58:23Z</time>
      </trkpt>
      <trkpt lat="50.487018031999469" lon="13.635386964306235">
        <ele>243.83000000000001</ele>
        <time>2013-09-06T08:58:24Z</time>
      </trkpt>
      <trkpt lat="50.486917030066252" lon="13.635384030640125">
        <ele>244.31</ele>
        <time>2013-09-06T08:58:25Z</time>
      </trkpt>
      <trkpt lat="50.486822985112667" lon="13.635354023426771">
        <ele>244.31</ele>
        <time>2013-09-06T08:58:26Z</time>
      </trkpt>
      <trkpt lat="50.485739037394524" lon="13.634699983522296">
        <ele>242.38999999999999</ele>
        <time>2013-09-06T08:58:36Z</time>
      </trkpt>
      <trkpt lat="50.484781991690397" lon="13.633441021665931">
        <ele>244.78999999999999</ele>
        <time>2013-09-06T08:58:45Z</time>
      </trkpt>
      <trkpt lat="50.48452902585268" lon="13.632932994514704">
        <ele>244.78999999999999</ele>
        <time>2013-09-06T08:58:48Z</time>
      </trkpt>
      <trkpt lat="50.483871968463063" lon="13.630621014162898">
        <ele>242.38999999999999</ele>
        <time>2013-09-06T08:58:59Z</time>
      </trkpt>
      <trkpt lat="50.483315996825695" lon="13.627460030838847">
        <ele>237.58000000000001</ele>
        <time>2013-09-06T08:59:11Z</time>
      </trkpt>
      <trkpt lat="50.482706967741251" lon="13.624145993962884">
        <ele>234.22</ele>
        <time>2013-09-06T08:59:24Z</time>
      </trkpt>
      <trkpt lat="50.481905993074179" lon="13.621562020853162">
        <ele>233.25999999999999</ele>
        <time>2013-09-06T08:59:35Z</time>
      </trkpt>
      <trkpt lat="50.480974009260535" lon="13.619988989084959">
        <ele>231.33000000000001</ele>
        <time>2013-09-06T08:59:44Z</time>
      </trkpt>
      <trkpt lat="50.47991001047194" lon="13.618781995028257">
        <ele>230.84999999999999</ele>
        <time>2013-09-06T08:59:54Z</time>
      </trkpt>
      <trkpt lat="50.47844996675849" lon="13.617827966809273">
        <ele>230.84999999999999</ele>
        <time>2013-09-06T09:00:06Z</time>
      </trkpt>
      <trkpt lat="50.476722037419677" lon="13.61678802408278">
        <ele>231.81</ele>
        <time>2013-09-06T09:00:21Z</time>
      </trkpt>
      <trkpt lat="50.474928980693221" lon="13.615749003365636">
        <ele>232.78</ele>
        <time>2013-09-06T09:00:36Z</time>
      </trkpt>
      <trkpt lat="50.472940038889647" lon="13.614573022350669">
        <ele>230.84999999999999</ele>
        <time>2013-09-06T09:00:50Z</time>
      </trkpt>
      <trkpt lat="50.470489002764225" lon="13.613128988072276">
        <ele>227.00999999999999</ele>
        <time>2013-09-06T09:01:05Z</time>
      </trkpt>
      <trkpt lat="50.467120986431837" lon="13.611170975491405">
        <ele>226.53</ele>
        <time>2013-09-06T09:01:25Z</time>
      </trkpt>
      <trkpt lat="50.465377969667315" lon="13.610104965046048">
        <ele>223.16</ele>
        <time>2013-09-06T09:01:36Z</time>
      </trkpt>
      <trkpt lat="50.465160040184855" lon="13.609946966171265">
        <ele>224.12</ele>
        <time>2013-09-06T09:01:38Z</time>
      </trkpt>
      <trkpt lat="50.465086027979851" lon="13.609847975894809">
        <ele>224.61000000000001</ele>
        <time>2013-09-06T09:01:39Z</time>
      </trkpt>
      <trkpt lat="50.465056020766497" lon="13.60972099006176">
        <ele>224.61000000000001</ele>
        <time>2013-09-06T09:01:40Z</time>
      </trkpt>
      <trkpt lat="50.465073036029935" lon="13.609587969258428">
        <ele>224.12</ele>
        <time>2013-09-06T09:01:41Z</time>
      </trkpt>
      <trkpt lat="50.46510798856616" lon="13.609459977596998">
        <ele>224.12</ele>
        <time>2013-09-06T09:01:42Z</time>
      </trkpt>
      <trkpt lat="50.465174037963152" lon="13.609318993985653">
        <ele>224.12</ele>
        <time>2013-09-06T09:01:43Z</time>
      </trkpt>
      <trkpt lat="50.465247966349125" lon="13.609164012596011">
        <ele>224.61000000000001</ele>
        <time>2013-09-06T09:01:44Z</time>
      </trkpt>
      <trkpt lat="50.465866969898343" lon="13.607839001342654">
        <ele>224.12</ele>
        <time>2013-09-06T09:01:51Z</time>
      </trkpt>
      <trkpt lat="50.466766012832522" lon="13.605603966861963">
        <ele>225.09</ele>
        <time>2013-09-06T09:02:00Z</time>
      </trkpt>
      <trkpt lat="50.467402031645179" lon="13.60237299464643">
        <ele>227.00999999999999</ele>
        <time>2013-09-06T09:02:11Z</time>
      </trkpt>
      <trkpt lat="50.468176016584039" lon="13.598086992278695">
        <ele>227.00999999999999</ele>
        <time>2013-09-06T09:02:26Z</time>
      </trkpt>
      <trkpt lat="50.468233013525605" lon="13.597921030595899">
        <ele>227.00999999999999</ele>
        <time>2013-09-06T09:02:27Z</time>
      </trkpt>
      <trkpt lat="50.468309037387371" lon="13.597803013399243">
        <ele>227.00999999999999</ele>
        <time>2013-09-06T09:02:28Z</time>
      </trkpt>
      <trkpt lat="50.468398975208402" lon="13.597727995365858">
        <ele>227.97</ele>
        <time>2013-09-06T09:02:29Z</time>
      </trkpt>
      <trkpt lat="50.468494025990367" lon="13.597663035616279">
        <ele>229.41</ele>
        <time>2013-09-06T09:02:30Z</time>
      </trkpt>
      <trkpt lat="50.468579018488526" lon="13.597587011754513">
        <ele>230.84999999999999</ele>
        <time>2013-09-06T09:02:31Z</time>
      </trkpt>
      <trkpt lat="50.468640960752964" lon="13.597460025921464">
        <ele>230.84999999999999</ele>
        <time>2013-09-06T09:02:32Z</time>
      </trkpt>
      <trkpt lat="50.468686977401376" lon="13.597300015389919">
        <ele>230.37</ele>
        <time>2013-09-06T09:02:33Z</time>
      </trkpt>
      <trkpt lat="50.469013033434749" lon="13.595445016399026">
        <ele>228.93000000000001</ele>
        <time>2013-09-06T09:02:42Z</time>
      </trkpt>
      <trkpt lat="50.469503039494157" lon="13.591965017840266">
        <ele>228.93000000000001</ele>
        <time>2013-09-06T09:02:55Z</time>
      </trkpt>
      <trkpt lat="50.469796992838383" lon="13.589108968153596">
        <ele>230.84999999999999</ele>
        <time>2013-09-06T09:03:05Z</time>
      </trkpt>
      <trkpt lat="50.469780983403325" lon="13.58883798122406">
        <ele>231.81</ele>
        <time>2013-09-06T09:03:06Z</time>
      </trkpt>
      <trkpt lat="50.469734966754913" lon="13.588561965152621">
        <ele>231.81</ele>
        <time>2013-09-06T09:03:07Z</time>
      </trkpt>
      <trkpt lat="50.46966397203505" lon="13.588282009586692">
        <ele>231.33000000000001</ele>
        <time>2013-09-06T09:03:08Z</time>
      </trkpt>
      <trkpt lat="50.469593983143568" lon="13.588004987686872">
        <ele>231.81</ele>
        <time>2013-09-06T09:03:09Z</time>
      </trkpt>
      <trkpt lat="50.46871698461473" lon="13.58520501293242">
        <ele>235.18000000000001</ele>
        <time>2013-09-06T09:03:19Z</time>
      </trkpt>
      <trkpt lat="50.4679000005126" lon="13.582728998735547">
        <ele>245.75</ele>
        <time>2013-09-06T09:03:29Z</time>
      </trkpt>
      <trkpt lat="50.467162979766726" lon="13.581285970285535">
        <ele>248.16</ele>
        <time>2013-09-06T09:03:37Z</time>
      </trkpt>
      <trkpt lat="50.466382037848234" lon="13.579465001821518">
        <ele>244.31</ele>
        <time>2013-09-06T09:03:47Z</time>
      </trkpt>
      <trkpt lat="50.465826988220215" lon="13.578204028308392">
        <ele>238.53999999999999</ele>
        <time>2013-09-06T09:03:55Z</time>
      </trkpt>
      <trkpt lat="50.465762028470635" lon="13.578044017776847">
        <ele>238.53999999999999</ele>
        <time>2013-09-06T09:03:59Z</time>
      </trkpt>
      <trkpt lat="50.46575297601521" lon="13.578061033040285">
        <ele>239.02000000000001</ele>
        <time>2013-09-06T09:04:00Z</time>
      </trkpt>
      <trkpt lat="50.465750964358449" lon="13.578091962262988">
        <ele>239.99000000000001</ele>
        <time>2013-09-06T09:04:01Z</time>
      </trkpt>
      <trkpt lat="50.465766973793507" lon="13.57815801165998">
        <ele>240.47</ele>
        <time>2013-09-06T09:04:02Z</time>
      </trkpt>
      <trkpt lat="50.465804021805525" lon="13.578237975016236">
        <ele>241.43000000000001</ele>
        <time>2013-09-06T09:04:03Z</time>
      </trkpt>
      <trkpt lat="50.465847020968795" lon="13.578345011919737">
        <ele>242.87</ele>
        <time>2013-09-06T09:04:04Z</time>
      </trkpt>
      <trkpt lat="50.466357981786132" lon="13.579424014315009">
        <ele>248.16</ele>
        <time>2013-09-06T09:04:11Z</time>
      </trkpt>
      <trkpt lat="50.466851005330682" lon="13.580708038061857">
        <ele>250.08000000000001</ele>
        <time>2013-09-06T09:04:19Z</time>
      </trkpt>
      <trkpt lat="50.466889981180429" lon="13.580797975882888">
        <ele>249.59999999999999</ele>
        <time>2013-09-06T09:04:20Z</time>
      </trkpt>
      <trkpt lat="50.466941026970744" lon="13.580840975046158">
        <ele>250.08000000000001</ele>
        <time>2013-09-06T09:04:21Z</time>
      </trkpt>
      <trkpt lat="50.467001041397452" lon="13.580834018066525">
        <ele>251.03999999999999</ele>
        <time>2013-09-06T09:04:22Z</time>
      </trkpt>
      <trkpt lat="50.467056026682258" lon="13.580803005024791">
        <ele>251.03999999999999</ele>
        <time>2013-09-06T09:04:23Z</time>
      </trkpt>
      <trkpt lat="50.467113023623824" lon="13.580737039446831">
        <ele>250.56</ele>
        <time>2013-09-06T09:04:24Z</time>
      </trkpt>
      <trkpt lat="50.467181000858545" lon="13.580647017806768">
        <ele>250.08000000000001</ele>
        <time>2013-09-06T09:04:25Z</time>
      </trkpt>
      <trkpt lat="50.468001002445817" lon="13.579615037888288">
        <ele>248.16</ele>
        <time>2013-09-06T09:04:34Z</time>
      </trkpt>
      <trkpt lat="50.468708015978336" lon="13.57916995882988">
        <ele>245.27000000000001</ele>
        <time>2013-09-06T09:04:42Z</time>
      </trkpt>
      <trkpt lat="50.468908008188009" lon="13.579131988808513">
        <ele>244.31</ele>
        <time>2013-09-06T09:04:48Z</time>
      </trkpt>
      <trkpt lat="50.468858974054456" lon="13.579055964946747">
        <ele>243.83000000000001</ele>
        <time>2013-09-06T09:04:53Z</time>
      </trkpt>
      <trkpt lat="50.468715978786349" lon="13.579109022393823">
        <ele>245.75</ele>
        <time>2013-09-06T09:05:02Z</time>
      </trkpt>
      <trkpt lat="50.467358026653528" lon="13.580323979258537">
        <ele>251.03999999999999</ele>
        <time>2013-09-06T09:07:34Z</time>
      </trkpt>
      <trkpt lat="50.466969022527337" lon="13.580794036388397">
        <ele>252.96000000000001</ele>
        <time>2013-09-06T09:07:41Z</time>
      </trkpt>
      <trkpt lat="50.46695401892066" lon="13.580798981711268">
        <ele>252.96000000000001</ele>
        <time>2013-09-06T09:07:42Z</time>
      </trkpt>
      <trkpt lat="50.466924011707306" lon="13.580792024731636">
        <ele>252.96000000000001</ele>
        <time>2013-09-06T09:07:43Z</time>
      </trkpt>
      <trkpt lat="50.466886041685939" lon="13.580763023346663">
        <ele>252.96000000000001</ele>
        <time>2013-09-06T09:07:44Z</time>
      </trkpt>
      <trkpt lat="50.466841030865908" lon="13.58069596812129">
        <ele>252.96000000000001</ele>
        <time>2013-09-06T09:07:45Z</time>
      </trkpt>
      <trkpt lat="50.466791996732354" lon="13.580584991723299">
        <ele>253.44</ele>
        <time>2013-09-06T09:07:46Z</time>
      </trkpt>
      <trkpt lat="50.466744974255562" lon="13.580450965091586">
        <ele>252.47999999999999</ele>
        <time>2013-09-06T09:07:47Z</time>
      </trkpt>
      <trkpt lat="50.46622596681118" lon="13.579108016565442">
        <ele>247.68000000000001</ele>
        <time>2013-09-06T09:07:54Z</time>
      </trkpt>
      <trkpt lat="50.465744007378817" lon="13.577902028337121">
        <ele>243.83000000000001</ele>
        <time>2013-09-06T09:07:59Z</time>
      </trkpt>
      <trkpt lat="50.465199016034603" lon="13.575715022161603">
        <ele>243.34999999999999</ele>
        <time>2013-09-06T09:08:08Z</time>
      </trkpt>
      <trkpt lat="50.464838007465005" lon="13.574351035058498">
        <ele>245.27000000000001</ele>
        <time>2013-09-06T09:08:15Z</time>
      </trkpt>
      <trkpt lat="50.464747985824943" lon="13.574193958193064">
        <ele>244.78999999999999</ele>
        <time>2013-09-06T09:08:16Z</time>
      </trkpt>
      <trkpt lat="50.464658970013261" lon="13.574051968753338">
        <ele>245.75</ele>
        <time>2013-09-06T09:08:17Z</time>
      </trkpt>
      <trkpt lat="50.464572971686721" lon="13.57392699457705">
        <ele>246.22999999999999</ele>
        <time>2013-09-06T09:08:18Z</time>
      </trkpt>
      <trkpt lat="50.46448202803731" lon="13.573807971552014">
        <ele>246.22999999999999</ele>
        <time>2013-09-06T09:08:19Z</time>
      </trkpt>
      <trkpt lat="50.46377400867641" lon="13.573140017688274">
        <ele>252</ele>
        <time>2013-09-06T09:08:26Z</time>
      </trkpt>
      <trkpt lat="50.463679963722825" lon="13.573016971349716">
        <ele>252</ele>
        <time>2013-09-06T09:08:27Z</time>
      </trkpt>
      <trkpt lat="50.463604023680091" lon="13.572876993566751">
        <ele>252</ele>
        <time>2013-09-06T09:08:28Z</time>
      </trkpt>
      <trkpt lat="50.463563036173582" lon="13.572703991085291">
        <ele>252</ele>
        <time>2013-09-06T09:08:29Z</time>
      </trkpt>
      <trkpt lat="50.463547026738524" lon="13.572512967512012">
        <ele>252.47999999999999</ele>
        <time>2013-09-06T09:08:30Z</time>
      </trkpt>
      <trkpt lat="50.463534034788609" lon="13.572321021929383">
        <ele>252</ele>
        <time>2013-09-06T09:08:31Z</time>
      </trkpt>
      <trkpt lat="50.463400008156896" lon="13.570291008800268">
        <ele>247.19999999999999</ele>
        <time>2013-09-06T09:08:41Z</time>
      </trkpt>
      <trkpt lat="50.463288025930524" lon="13.567621959373355">
        <ele>241.43000000000001</ele>
        <time>2013-09-06T09:08:53Z</time>
      </trkpt>
      <trkpt lat="50.463314009830356" lon="13.567285006865859">
        <ele>240.94999999999999</ele>
        <time>2013-09-06T09:08:54Z</time>
      </trkpt>
      <trkpt lat="50.463477959856391" lon="13.565564034506679">
        <ele>243.34999999999999</ele>
        <time>2013-09-06T09:09:00Z</time>
      </trkpt>
      <trkpt lat="50.463762022554874" lon="13.564061997458339">
        <ele>242.38999999999999</ele>
        <time>2013-09-06T09:09:08Z</time>
      </trkpt>
      <trkpt lat="50.464007025584579" lon="13.561930982396007">
        <ele>239.99000000000001</ele>
        <time>2013-09-06T09:09:19Z</time>
      </trkpt>
      <trkpt lat="50.464079026132822" lon="13.561177030205727">
        <ele>236.62</ele>
        <time>2013-09-06T09:09:23Z</time>
      </trkpt>
      <trkpt lat="50.464078020304441" lon="13.56099002994597">
        <ele>236.13999999999999</ele>
        <time>2013-09-06T09:09:24Z</time>
      </trkpt>
      <trkpt lat="50.46405497007072" lon="13.560806969180703">
        <ele>234.69999999999999</ele>
        <time>2013-09-06T09:09:25Z</time>
      </trkpt>
      <trkpt lat="50.464020017534494" lon="13.560634972527623">
        <ele>234.69999999999999</ele>
        <time>2013-09-06T09:09:26Z</time>
      </trkpt>
      <trkpt lat="50.463972995057702" lon="13.560469010844827">
        <ele>233.74000000000001</ele>
        <time>2013-09-06T09:09:27Z</time>
      </trkpt>
      <trkpt lat="50.463905017822981" lon="13.560301959514618">
        <ele>234.22</ele>
        <time>2013-09-06T09:09:28Z</time>
      </trkpt>
      <trkpt lat="50.463842991739511" lon="13.560140021145344">
        <ele>233.74000000000001</ele>
        <time>2013-09-06T09:09:29Z</time>
      </trkpt>
      <trkpt lat="50.463385004550219" lon="13.559066969901323">
        <ele>236.13999999999999</ele>
        <time>2013-09-06T09:09:36Z</time>
      </trkpt>
      <trkpt lat="50.463300012052059" lon="13.558943001553416">
        <ele>236.13999999999999</ele>
        <time>2013-09-06T09:09:37Z</time>
      </trkpt>
      <trkpt lat="50.463208984583616" lon="13.558830013498664">
        <ele>236.62</ele>
        <time>2013-09-06T09:09:38Z</time>
      </trkpt>
      <trkpt lat="50.463103037327528" lon="13.558731023222208">
        <ele>237.09999999999999</ele>
        <time>2013-09-06T09:09:39Z</time>
      </trkpt>
      <trkpt lat="50.462989965453744" lon="13.558659022673965">
        <ele>238.06</ele>
        <time>2013-09-06T09:09:40Z</time>
      </trkpt>
      <trkpt lat="50.462873037904501" lon="13.558595990762115">
        <ele>239.02000000000001</ele>
        <time>2013-09-06T09:09:41Z</time>
      </trkpt>
      <trkpt lat="50.462753009051085" lon="13.558546034619212">
        <ele>239.50999999999999</ele>
        <time>2013-09-06T09:09:42Z</time>
      </trkpt>
      <trkpt lat="50.460683014243841" lon="13.557804990559816">
        <ele>248.16</ele>
        <time>2013-09-06T09:09:58Z</time>
      </trkpt>
      <trkpt lat="50.458727013319731" lon="13.557086996734142">
        <ele>250.08000000000001</ele>
        <time>2013-09-06T09:10:12Z</time>
      </trkpt>
      <trkpt lat="50.458008013665676" lon="13.556622974574566">
        <ele>253.44</ele>
        <time>2013-09-06T09:10:17Z</time>
      </trkpt>
      <trkpt lat="50.457884967327118" lon="13.556479979306459">
        <ele>253.93000000000001</ele>
        <time>2013-09-06T09:10:18Z</time>
      </trkpt>
      <trkpt lat="50.457770973443985" lon="13.556334972381592">
        <ele>255.37</ele>
        <time>2013-09-06T09:10:19Z</time>
      </trkpt>
      <trkpt lat="50.457665026187897" lon="13.556168004870415">
        <ele>254.41</ele>
        <time>2013-09-06T09:10:20Z</time>
      </trkpt>
      <trkpt lat="50.457568969577551" lon="13.555997014045715">
        <ele>255.84999999999999</ele>
        <time>2013-09-06T09:10:21Z</time>
      </trkpt>
      <trkpt lat="50.457488000392914" lon="13.555806996300817">
        <ele>255.37</ele>
        <time>2013-09-06T09:10:22Z</time>
      </trkpt>
      <trkpt lat="50.457411976531148" lon="13.555612033233047">
        <ele>255.84999999999999</ele>
        <time>2013-09-06T09:10:23Z</time>
      </trkpt>
      <trkpt lat="50.45735296793282" lon="13.555408017709851">
        <ele>256.81</ele>
        <time>2013-09-06T09:10:24Z</time>
      </trkpt>
      <trkpt lat="50.457303011789918" lon="13.555196961387992">
        <ele>256.81</ele>
        <time>2013-09-06T09:10:25Z</time>
      </trkpt>
      <trkpt lat="50.45726303011179" lon="13.554964028298855">
        <ele>256.81</ele>
        <time>2013-09-06T09:10:26Z</time>
      </trkpt>
      <trkpt lat="50.457236962392926" lon="13.554721036925912">
        <ele>256.81</ele>
        <time>2013-09-06T09:10:27Z</time>
      </trkpt>
      <trkpt lat="50.457226987928152" lon="13.554458012804389">
        <ele>256.32999999999998</ele>
        <time>2013-09-06T09:10:28Z</time>
      </trkpt>
      <trkpt lat="50.457219025120139" lon="13.554187025874853">
        <ele>256.32999999999998</ele>
        <time>2013-09-06T09:10:29Z</time>
      </trkpt>
      <trkpt lat="50.457225982099771" lon="13.553905980661511">
        <ele>255.84999999999999</ele>
        <time>2013-09-06T09:10:30Z</time>
      </trkpt>
      <trkpt lat="50.457323966547847" lon="13.551418986171484">
        <ele>254.41</ele>
        <time>2013-09-06T09:10:38Z</time>
      </trkpt>
      <trkpt lat="50.456997994333506" lon="13.549257963895798">
        <ele>254.88999999999999</ele>
        <time>2013-09-06T09:10:45Z</time>
      </trkpt>
      <trkpt lat="50.455879010260105" lon="13.544598966836929">
        <ele>259.20999999999998</ele>
        <time>2013-09-06T09:11:00Z</time>
      </trkpt>
      <trkpt lat="50.455730985850096" lon="13.543658014386892">
        <ele>261.13999999999999</ele>
        <time>2013-09-06T09:11:03Z</time>
      </trkpt>
      <trkpt lat="50.455734003335238" lon="13.543343022465706">
        <ele>261.62</ele>
        <time>2013-09-06T09:11:04Z</time>
      </trkpt>
      <trkpt lat="50.455756969749928" lon="13.543042028322816">
        <ele>262.10000000000002</ele>
        <time>2013-09-06T09:11:05Z</time>
      </trkpt>
      <trkpt lat="50.455844979733229" lon="13.541644010692835">
        <ele>263.06</ele>
        <time>2013-09-06T09:11:11Z</time>
      </trkpt>
      <trkpt lat="50.455836011096835" lon="13.54135500267148">
        <ele>264.01999999999998</ele>
        <time>2013-09-06T09:11:13Z</time>
      </trkpt>
      <trkpt lat="50.455850008875132" lon="13.541229022666812">
        <ele>264.5</ele>
        <time>2013-09-06T09:11:14Z</time>
      </trkpt>
      <trkpt lat="50.45589099638164" lon="13.541123997420073">
        <ele>265.45999999999998</ele>
        <time>2013-09-06T09:11:15Z</time>
      </trkpt>
      <trkpt lat="50.455958973616362" lon="13.541036993265152">
        <ele>265.45999999999998</ele>
        <time>2013-09-06T09:11:16Z</time>
      </trkpt>
      <trkpt lat="50.456048995256424" lon="13.540942026302218">
        <ele>265.94</ele>
        <time>2013-09-06T09:11:17Z</time>
      </trkpt>
      <trkpt lat="50.456247981637716" lon="13.540708003565669">
        <ele>264.5</ele>
        <time>2013-09-06T09:11:19Z</time>
      </trkpt>
      <trkpt lat="50.456333979964256" lon="13.54055997915566">
        <ele>264.5</ele>
        <time>2013-09-06T09:11:20Z</time>
      </trkpt>
      <trkpt lat="50.456420984119177" lon="13.540397034958005">
        <ele>264.98000000000002</ele>
        <time>2013-09-06T09:11:21Z</time>
      </trkpt>
      <trkpt lat="50.456765983253717" lon="13.539305040612817">
        <ele>262.57999999999998</ele>
        <time>2013-09-06T09:11:27Z</time>
      </trkpt>
      <trkpt lat="50.456786016002297" lon="13.539103958755732">
        <ele>262.10000000000002</ele>
        <time>2013-09-06T09:11:28Z</time>
      </trkpt>
      <trkpt lat="50.456790961325169" lon="13.538897009566426">
        <ele>261.62</ele>
        <time>2013-09-06T09:11:29Z</time>
      </trkpt>
      <trkpt lat="50.45679003931582" lon="13.538683019578457">
        <ele>261.62</ele>
        <time>2013-09-06T09:11:30Z</time>
      </trkpt>
      <trkpt lat="50.456776963546872" lon="13.538466012105346">
        <ele>261.62</ele>
        <time>2013-09-06T09:11:31Z</time>
      </trkpt>
      <trkpt lat="50.456755002960563" lon="13.538247998803854">
        <ele>261.62</ele>
        <time>2013-09-06T09:11:32Z</time>
      </trkpt>
      <trkpt lat="50.456720972433686" lon="13.538029985502362">
        <ele>261.62</ele>
        <time>2013-09-06T09:11:33Z</time>
      </trkpt>
      <trkpt lat="50.456629022955894" lon="13.537383992224932">
        <ele>261.62</ele>
        <time>2013-09-06T09:11:36Z</time>
      </trkpt>
      <trkpt lat="50.456616031005979" lon="13.537158016115427">
        <ele>263.06</ele>
        <time>2013-09-06T09:11:37Z</time>
      </trkpt>
      <trkpt lat="50.456619970500469" lon="13.5369280166924">
        <ele>263.06</ele>
        <time>2013-09-06T09:11:38Z</time>
      </trkpt>
      <trkpt lat="50.456646038219333" lon="13.536687958985567">
        <ele>263.06</ele>
        <time>2013-09-06T09:11:39Z</time>
      </trkpt>
      <trkpt lat="50.456681996583939" lon="13.536433987319469">
        <ele>263.54000000000002</ele>
        <time>2013-09-06T09:11:40Z</time>
      </trkpt>
      <trkpt lat="50.457101007923484" lon="13.534139022231102">
        <ele>265.94</ele>
        <time>2013-09-06T09:11:48Z</time>
      </trkpt>
      <trkpt lat="50.457886978983879" lon="13.530646031722426">
        <ele>268.82999999999998</ele>
        <time>2013-09-06T09:12:00Z</time>
      </trkpt>
      <trkpt lat="50.457954034209251" lon="13.528360035270452">
        <ele>270.26999999999998</ele>
        <time>2013-09-06T09:12:07Z</time>
      </trkpt>
      <trkpt lat="50.458049001172185" lon="13.525053961202502">
        <ele>276.51999999999998</ele>
        <time>2013-09-06T09:12:17Z</time>
      </trkpt>
      <trkpt lat="50.457937018945813" lon="13.522410979494452">
        <ele>280.83999999999997</ele>
        <time>2013-09-06T09:12:26Z</time>
      </trkpt>
      <trkpt lat="50.45771598815918" lon="13.519430039450526">
        <ele>285.64999999999998</ele>
        <time>2013-09-06T09:12:38Z</time>
      </trkpt>
      <trkpt lat="50.457709031179547" lon="13.516227984800935">
        <ele>290.94</ele>
        <time>2013-09-06T09:12:51Z</time>
      </trkpt>
      <trkpt lat="50.458129970356822" lon="13.513304041698575">
        <ele>298.14999999999998</ele>
        <time>2013-09-06T09:13:01Z</time>
      </trkpt>
      <trkpt lat="50.45887696556747" lon="13.508265009149909">
        <ele>312.08999999999997</ele>
        <time>2013-09-06T09:13:17Z</time>
      </trkpt>
      <trkpt lat="50.459121968597174" lon="13.504847036674619">
        <ele>317.85000000000002</ele>
        <time>2013-09-06T09:13:28Z</time>
      </trkpt>
      <trkpt lat="50.459610968828201" lon="13.501352034509182">
        <ele>321.69999999999999</ele>
        <time>2013-09-06T09:13:39Z</time>
      </trkpt>
      <trkpt lat="50.46098199672997" lon="13.497531982138753">
        <ele>321.69999999999999</ele>
        <time>2013-09-06T09:13:52Z</time>
      </trkpt>
      <trkpt lat="50.461677024140954" lon="13.49584897980094">
        <ele>322.18000000000001</ele>
        <time>2013-09-06T09:13:58Z</time>
      </trkpt>
      <trkpt lat="50.461751036345959" lon="13.495545974001288">
        <ele>322.18000000000001</ele>
        <time>2013-09-06T09:13:59Z</time>
      </trkpt>
      <trkpt lat="50.461809039115906" lon="13.495230982080102">
        <ele>322.18000000000001</ele>
        <time>2013-09-06T09:14:00Z</time>
      </trkpt>
      <trkpt lat="50.461854971945286" lon="13.494908027350903">
        <ele>322.18000000000001</ele>
        <time>2013-09-06T09:14:01Z</time>
      </trkpt>
      <trkpt lat="50.461894031614065" lon="13.49458197131753">
        <ele>323.13999999999999</ele>
        <time>2013-09-06T09:14:02Z</time>
      </trkpt>
      <trkpt lat="50.462300973013043" lon="13.490607021376491">
        <ele>325.54000000000002</ele>
        <time>2013-09-06T09:14:14Z</time>
      </trkpt>
      <trkpt lat="50.462582018226385" lon="13.488739030435681">
        <ele>325.06</ele>
        <time>2013-09-06T09:14:22Z</time>
      </trkpt>
      <trkpt lat="50.462867002934217" lon="13.486355971544981">
        <ele>327.94999999999999</ele>
        <time>2013-09-06T09:14:34Z</time>
      </trkpt>
      <trkpt lat="50.463329013437033" lon="13.483915999531746">
        <ele>329.87</ele>
        <time>2013-09-06T09:14:46Z</time>
      </trkpt>
      <trkpt lat="50.463747018948197" lon="13.481357004493475">
        <ele>332.26999999999998</ele>
        <time>2013-09-06T09:14:59Z</time>
      </trkpt>
      <trkpt lat="50.464051030576229" lon="13.479051981121302">
        <ele>337.56</ele>
        <time>2013-09-06T09:15:10Z</time>
      </trkpt>
      <trkpt lat="50.464258985593915" lon="13.476036004722118">
        <ele>339.48000000000002</ele>
        <time>2013-09-06T09:15:24Z</time>
      </trkpt>
      <trkpt lat="50.464240964502096" lon="13.475799970328808">
        <ele>339.95999999999998</ele>
        <time>2013-09-06T09:15:25Z</time>
      </trkpt>
      <trkpt lat="50.464200982823968" lon="13.475552033632994">
        <ele>340.44</ele>
        <time>2013-09-06T09:15:26Z</time>
      </trkpt>
      <trkpt lat="50.464091012254357" lon="13.475078037008643">
        <ele>339.95999999999998</ele>
        <time>2013-09-06T09:15:28Z</time>
      </trkpt>
      <trkpt lat="50.464009959250689" lon="13.474821969866753">
        <ele>339.95999999999998</ele>
        <time>2013-09-06T09:15:29Z</time>
      </trkpt>
      <trkpt lat="50.462977979332209" lon="13.471925016492605">
        <ele>340.44</ele>
        <time>2013-09-06T09:15:40Z</time>
      </trkpt>
      <trkpt lat="50.46270003542304" lon="13.470229022204876">
        <ele>344.29000000000002</ele>
        <time>2013-09-06T09:15:47Z</time>
      </trkpt>
      <trkpt lat="50.462736999616027" lon="13.468915997073054">
        <ele>351.01999999999998</ele>
        <time>2013-09-06T09:15:53Z</time>
      </trkpt>
      <trkpt lat="50.462771030142903" lon="13.468744000419974">
        <ele>351.01999999999998</ele>
        <time>2013-09-06T09:15:54Z</time>
      </trkpt>
      <trkpt lat="50.46287395991385" lon="13.46824100241065">
        <ele>352.45999999999998</ele>
        <time>2013-09-06T09:15:58Z</time>
      </trkpt>
      <trkpt lat="50.462844958528876" lon="13.468148969113827">
        <ele>352.94</ele>
        <time>2013-09-06T09:15:59Z</time>
      </trkpt>
      <trkpt lat="50.462792990729213" lon="13.468075962737203">
        <ele>353.42000000000002</ele>
        <time>2013-09-06T09:16:00Z</time>
      </trkpt>
      <trkpt lat="50.462696012109518" lon="13.468020977452397">
        <ele>352.45999999999998</ele>
        <time>2013-09-06T09:16:01Z</time>
      </trkpt>
      <trkpt lat="50.462587969377637" lon="13.46795903518796">
        <ele>352.94</ele>
        <time>2013-09-06T09:16:02Z</time>
      </trkpt>
      <trkpt lat="50.462221009656787" lon="13.467801036313176">
        <ele>351.98000000000002</ele>
        <time>2013-09-06T09:16:05Z</time>
      </trkpt>
      <trkpt lat="50.462072985246778" lon="13.467778991907835">
        <ele>351.98000000000002</ele>
        <time>2013-09-06T09:16:06Z</time>
      </trkpt>
      <trkpt lat="50.460601961240172" lon="13.467616969719529">
        <ele>344.76999999999998</ele>
        <time>2013-09-06T09:16:14Z</time>
      </trkpt>
      <trkpt lat="50.457638958469033" lon="13.467358974739909">
        <ele>343.81</ele>
        <time>2013-09-06T09:16:28Z</time>
      </trkpt>
      <trkpt lat="50.456017982214689" lon="13.467934979125857">
        <ele>334.19999999999999</ele>
        <time>2013-09-06T09:16:36Z</time>
      </trkpt>
      <trkpt lat="50.454615019261837" lon="13.468404030427337">
        <ele>325.54000000000002</ele>
        <time>2013-09-06T09:16:43Z</time>
      </trkpt>
      <trkpt lat="50.45442801900208" lon="13.468380980193615">
        <ele>325.06</ele>
        <time>2013-09-06T09:16:44Z</time>
      </trkpt>
      <trkpt lat="50.454243030399084" lon="13.468324989080429">
        <ele>325.06</ele>
        <time>2013-09-06T09:16:45Z</time>
      </trkpt>
      <trkpt lat="50.454053012654185" lon="13.468238990753889">
        <ele>324.57999999999998</ele>
        <time>2013-09-06T09:16:46Z</time>
      </trkpt>
      <trkpt lat="50.453865006566048" lon="13.468119967728853">
        <ele>323.62</ele>
        <time>2013-09-06T09:16:47Z</time>
      </trkpt>
      <trkpt lat="50.453682029619813" lon="13.46796297468245">
        <ele>322.66000000000003</ele>
        <time>2013-09-06T09:16:48Z</time>
      </trkpt>
      <trkpt lat="50.453500980511308" lon="13.46779097802937">
        <ele>320.74000000000001</ele>
        <time>2013-09-06T09:16:49Z</time>
      </trkpt>
      <trkpt lat="50.450820028781891" lon="13.465400040149689">
        <ele>320.74000000000001</ele>
        <time>2013-09-06T09:17:03Z</time>
      </trkpt>
      <trkpt lat="50.447849985212088" lon="13.462842972949147">
        <ele>304.88</ele>
        <time>2013-09-06T09:17:19Z</time>
      </trkpt>
      <trkpt lat="50.445000976324081" lon="13.460373999550939">
        <ele>295.25999999999999</ele>
        <time>2013-09-06T09:17:35Z</time>
      </trkpt>
      <trkpt lat="50.443918034434319" lon="13.459471017122269">
        <ele>294.77999999999997</ele>
        <time>2013-09-06T09:17:43Z</time>
      </trkpt>
      <trkpt lat="50.442319018766284" lon="13.458259999752045">
        <ele>292.38</ele>
        <time>2013-09-06T09:17:57Z</time>
      </trkpt>
      <trkpt lat="50.441790958866477" lon="13.457995969802141">
        <ele>289.49000000000001</ele>
        <time>2013-09-06T09:18:03Z</time>
      </trkpt>
      <trkpt lat="50.441560037434101" lon="13.457846017554402">
        <ele>287.08999999999997</ele>
        <time>2013-09-06T09:18:10Z</time>
      </trkpt>
      <trkpt lat="50.441298019140959" lon="13.457703022286296">
        <ele>287.08999999999997</ele>
        <time>2013-09-06T09:18:15Z</time>
      </trkpt>
      <trkpt lat="50.440524034202099" lon="13.457269007340074">
        <ele>284.20999999999998</ele>
        <time>2013-09-06T09:18:23Z</time>
      </trkpt>
      <trkpt lat="50.440123965963721" lon="13.457006989046931">
        <ele>284.69</ele>
        <time>2013-09-06T09:18:27Z</time>
      </trkpt>
      <trkpt lat="50.440034028142691" lon="13.456911016255617">
        <ele>285.17000000000002</ele>
        <time>2013-09-06T09:18:28Z</time>
      </trkpt>
      <trkpt lat="50.439949035644531" lon="13.456799034029245">
        <ele>286.13</ele>
        <time>2013-09-06T09:18:29Z</time>
      </trkpt>
      <trkpt lat="50.438995007425547" lon="13.455765964463353">
        <ele>288.05000000000001</ele>
        <time>2013-09-06T09:18:39Z</time>
      </trkpt>
      <trkpt lat="50.437574023380876" lon="13.454643962904811">
        <ele>287.56999999999999</ele>
        <time>2013-09-06T09:18:52Z</time>
      </trkpt>
      <trkpt lat="50.436223028227687" lon="13.454121015965939">
        <ele>289.49000000000001</ele>
        <time>2013-09-06T09:19:04Z</time>
      </trkpt>
      <trkpt lat="50.435615004971623" lon="13.453896967694163">
        <ele>289.49000000000001</ele>
        <time>2013-09-06T09:19:12Z</time>
      </trkpt>
      <trkpt lat="50.435262965038419" lon="13.453711979091167">
        <ele>287.08999999999997</ele>
        <time>2013-09-06T09:19:17Z</time>
      </trkpt>
      <trkpt lat="50.434358976781368" lon="13.4526879619807">
        <ele>290.94</ele>
        <time>2013-09-06T09:19:26Z</time>
      </trkpt>
      <trkpt lat="50.432740012183785" lon="13.450813014060259">
        <ele>290.45999999999998</ele>
        <time>2013-09-06T09:19:41Z</time>
      </trkpt>
      <trkpt lat="50.431401003152132" lon="13.449262026697397">
        <ele>292.86000000000001</ele>
        <time>2013-09-06T09:19:52Z</time>
      </trkpt>
      <trkpt lat="50.43090496212244" lon="13.448673030361533">
        <ele>294.30000000000001</ele>
        <time>2013-09-06T09:19:59Z</time>
      </trkpt>
      <trkpt lat="50.430887024849653" lon="13.448599018156528">
        <ele>293.81999999999999</ele>
        <time>2013-09-06T09:20:00Z</time>
      </trkpt>
      <trkpt lat="50.430888030678034" lon="13.448482006788254">
        <ele>294.30000000000001</ele>
        <time>2013-09-06T09:20:01Z</time>
      </trkpt>
      <trkpt lat="50.430929018184543" lon="13.44834697432816">
        <ele>294.30000000000001</ele>
        <time>2013-09-06T09:20:02Z</time>
      </trkpt>
      <trkpt lat="50.430981991812587" lon="13.448186963796616">
        <ele>294.30000000000001</ele>
        <time>2013-09-06T09:20:03Z</time>
      </trkpt>
      <trkpt lat="50.431508040055633" lon="13.446696996688843">
        <ele>289.49000000000001</ele>
        <time>2013-09-06T09:20:11Z</time>
      </trkpt>
      <trkpt lat="50.432027969509363" lon="13.445160007104278">
        <ele>287.56999999999999</ele>
        <time>2013-09-06T09:20:21Z</time>
      </trkpt>
      <trkpt lat="50.432110028341413" lon="13.444944005459547">
        <ele>289.00999999999999</ele>
        <time>2013-09-06T09:20:27Z</time>
      </trkpt>
      <trkpt lat="50.432142969220877" lon="13.444907963275909">
        <ele>292.38</ele>
        <time>2013-09-06T09:20:42Z</time>
      </trkpt>
      <trkpt lat="50.432154033333063" lon="13.444891031831503">
        <ele>292.38</ele>
        <time>2013-09-06T09:20:54Z</time>
      </trkpt>
      <trkpt lat="50.432197032496333" lon="13.444761028513312">
        <ele>293.33999999999997</ele>
        <time>2013-09-06T09:20:57Z</time>
      </trkpt>
      <trkpt lat="50.432376991957426" lon="13.444106988608837">
        <ele>293.81999999999999</ele>
        <time>2013-09-06T09:21:04Z</time>
      </trkpt>
      <trkpt lat="50.432419991120696" lon="13.44400598667562">
        <ele>294.30000000000001</ele>
        <time>2013-09-06T09:21:05Z</time>
      </trkpt>
      <trkpt lat="50.433027008548379" lon="13.442732021212578">
        <ele>296.69999999999999</ele>
        <time>2013-09-06T09:21:15Z</time>
      </trkpt>
      <trkpt lat="50.433190958574414" lon="13.442304041236639">
        <ele>296.69999999999999</ele>
        <time>2013-09-06T09:21:18Z</time>
      </trkpt>
      <trkpt lat="50.43322398327291" lon="13.442149981856346">
        <ele>297.18000000000001</ele>
        <time>2013-09-06T09:21:19Z</time>
      </trkpt>
      <trkpt lat="50.433247033506632" lon="13.44198795966804">
        <ele>297.18000000000001</ele>
        <time>2013-09-06T09:21:20Z</time>
      </trkpt>
      <trkpt lat="50.433256002143025" lon="13.441821997985244">
        <ele>297.67000000000002</ele>
        <time>2013-09-06T09:21:21Z</time>
      </trkpt>
      <trkpt lat="50.433251978829503" lon="13.441669028252363">
        <ele>297.67000000000002</ele>
        <time>2013-09-06T09:21:22Z</time>
      </trkpt>
      <trkpt lat="50.433232029899955" lon="13.44153399579227">
        <ele>297.67000000000002</ele>
        <time>2013-09-06T09:21:23Z</time>
      </trkpt>
      <trkpt lat="50.433208979666233" lon="13.441423019394279">
        <ele>298.14999999999998</ele>
        <time>2013-09-06T09:21:24Z</time>
      </trkpt>
      <trkpt lat="50.433188024908304" lon="13.441112972795963">
        <ele>300.55000000000001</ele>
        <time>2013-09-06T09:21:31Z</time>
      </trkpt>
      <trkpt lat="50.433205962181091" lon="13.44099503941834">
        <ele>300.06999999999999</ele>
        <time>2013-09-06T09:21:34Z</time>
      </trkpt>
      <trkpt lat="50.433235969394445" lon="13.440939970314503">
        <ele>300.06999999999999</ele>
        <time>2013-09-06T09:21:35Z</time>
      </trkpt>
      <trkpt lat="50.433290032669902" lon="13.440872998908162">
        <ele>300.55000000000001</ele>
        <time>2013-09-06T09:21:36Z</time>
      </trkpt>
      <trkpt lat="50.433363961055875" lon="13.440813990309834">
        <ele>301.02999999999997</ele>
        <time>2013-09-06T09:21:37Z</time>
      </trkpt>
      <trkpt lat="50.433449959382415" lon="13.440746013075113">
        <ele>301.02999999999997</ele>
        <time>2013-09-06T09:21:38Z</time>
      </trkpt>
      <trkpt lat="50.434330981224775" lon="13.440047968178988">
        <ele>299.58999999999997</ele>
        <time>2013-09-06T09:21:45Z</time>
      </trkpt>
      <trkpt lat="50.436073997989297" lon="13.43869898468256">
        <ele>298.63</ele>
        <time>2013-09-06T09:21:56Z</time>
      </trkpt>
      <trkpt lat="50.437825983390212" lon="13.437365004792809">
        <ele>300.55000000000001</ele>
        <time>2013-09-06T09:22:08Z</time>
      </trkpt>
      <trkpt lat="50.440099993720651" lon="13.43558200635016">
        <ele>297.67000000000002</ele>
        <time>2013-09-06T09:22:23Z</time>
      </trkpt>
      <trkpt lat="50.443440014496446" lon="13.432967020198703">
        <ele>297.18000000000001</ele>
        <time>2013-09-06T09:22:45Z</time>
      </trkpt>
      <trkpt lat="50.445398027077317" lon="13.431464983150363">
        <ele>299.11000000000001</ele>
        <time>2013-09-06T09:22:59Z</time>
      </trkpt>
      <trkpt lat="50.447263000532985" lon="13.430009968578815">
        <ele>305.36000000000001</ele>
        <time>2013-09-06T09:23:13Z</time>
      </trkpt>
      <trkpt lat="50.448303027078509" lon="13.429190972819924">
        <ele>310.63999999999999</ele>
        <time>2013-09-06T09:23:23Z</time>
      </trkpt>
      <trkpt lat="50.449223024770617" lon="13.42847197316587">
        <ele>308.72000000000003</ele>
        <time>2013-09-06T09:23:33Z</time>
      </trkpt>
      <trkpt lat="50.449304999783635" lon="13.428443977609277">
        <ele>308.72000000000003</ele>
        <time>2013-09-06T09:23:34Z</time>
      </trkpt>
      <trkpt lat="50.44940197840333" lon="13.428452024236321">
        <ele>310.16000000000003</ele>
        <time>2013-09-06T09:23:35Z</time>
      </trkpt>
      <trkpt lat="50.449497029185295" lon="13.428495023399591">
        <ele>311.60000000000002</ele>
        <time>2013-09-06T09:23:36Z</time>
      </trkpt>
      <trkpt lat="50.449580010026693" lon="13.428549002856016">
        <ele>311.12</ele>
        <time>2013-09-06T09:23:37Z</time>
      </trkpt>
      <trkpt lat="50.449753012508154" lon="13.428580015897751">
        <ele>311.60000000000002</ele>
        <time>2013-09-06T09:23:39Z</time>
      </trkpt>
      <trkpt lat="50.449833981692791" lon="13.428526036441326">
        <ele>312.08999999999997</ele>
        <time>2013-09-06T09:23:40Z</time>
      </trkpt>
      <trkpt lat="50.449897013604641" lon="13.428436014801264">
        <ele>311.60000000000002</ele>
        <time>2013-09-06T09:23:41Z</time>
      </trkpt>
      <trkpt lat="50.449934983626008" lon="13.428322020918131">
        <ele>312.56999999999999</ele>
        <time>2013-09-06T09:23:42Z</time>
      </trkpt>
      <trkpt lat="50.449941018596292" lon="13.428185982629657">
        <ele>313.05000000000001</ele>
        <time>2013-09-06T09:23:43Z</time>
      </trkpt>
      <trkpt lat="50.44991604052484" lon="13.428050028160214">
        <ele>312.08999999999997</ele>
        <time>2013-09-06T09:23:44Z</time>
      </trkpt>
      <trkpt lat="50.449859965592623" lon="13.42793402262032">
        <ele>312.56999999999999</ele>
        <time>2013-09-06T09:23:45Z</time>
      </trkpt>
      <trkpt lat="50.449778996407986" lon="13.427838971838355">
        <ele>311.60000000000002</ele>
        <time>2013-09-06T09:23:46Z</time>
      </trkpt>
      <trkpt lat="50.449677994474769" lon="13.427750039845705">
        <ele>311.60000000000002</ele>
        <time>2013-09-06T09:23:47Z</time>
      </trkpt>
      <trkpt lat="50.44957397505641" lon="13.427659012377262">
        <ele>312.08999999999997</ele>
        <time>2013-09-06T09:23:48Z</time>
      </trkpt>
      <trkpt lat="50.448535038158298" lon="13.426690986379981">
        <ele>311.60000000000002</ele>
        <time>2013-09-06T09:23:56Z</time>
      </trkpt>
      <trkpt lat="50.447241961956024" lon="13.425006978213787">
        <ele>313.05000000000001</ele>
        <time>2013-09-06T09:24:05Z</time>
      </trkpt>
      <trkpt lat="50.446310983970761" lon="13.422912005335093">
        <ele>314.00999999999999</ele>
        <time>2013-09-06T09:24:13Z</time>
      </trkpt>
      <trkpt lat="50.444028005003929" lon="13.416745020076632">
        <ele>321.69999999999999</ele>
        <time>2013-09-06T09:24:35Z</time>
      </trkpt>
      <trkpt lat="50.442702993750572" lon="13.412052998319268">
        <ele>322.66000000000003</ele>
        <time>2013-09-06T09:24:51Z</time>
      </trkpt>
      <trkpt lat="50.441713007166982" lon="13.407015977427363">
        <ele>324.57999999999998</ele>
        <time>2013-09-06T09:25:07Z</time>
      </trkpt>
      <trkpt lat="50.441176984459162" lon="13.402683958411217">
        <ele>326.99000000000001</ele>
        <time>2013-09-06T09:25:21Z</time>
      </trkpt>
      <trkpt lat="50.441149994730949" lon="13.400109959766269">
        <ele>326.5</ele>
        <time>2013-09-06T09:25:31Z</time>
      </trkpt>
      <trkpt lat="50.44143196195364" lon="13.397664036601782">
        <ele>329.87</ele>
        <time>2013-09-06T09:25:42Z</time>
      </trkpt>
      <trkpt lat="50.441734967753291" lon="13.39645997621119">
        <ele>329.87</ele>
        <time>2013-09-06T09:25:49Z</time>
      </trkpt>
      <trkpt lat="50.441801017150283" lon="13.396357968449593">
        <ele>330.35000000000002</ele>
        <time>2013-09-06T09:25:50Z</time>
      </trkpt>
      <trkpt lat="50.441953986883163" lon="13.396038031205535">
        <ele>331.31</ele>
        <time>2013-09-06T09:25:53Z</time>
      </trkpt>
      <trkpt lat="50.441957004368305" lon="13.395919008180499">
        <ele>331.31</ele>
        <time>2013-09-06T09:25:54Z</time>
      </trkpt>
      <trkpt lat="50.441937977448106" lon="13.395803002640605">
        <ele>330.82999999999998</ele>
        <time>2013-09-06T09:25:55Z</time>
      </trkpt>
      <trkpt lat="50.441930014640093" lon="13.395664030686021">
        <ele>331.31</ele>
        <time>2013-09-06T09:25:56Z</time>
      </trkpt>
      <trkpt lat="50.441948035731912" lon="13.395509971305728">
        <ele>331.79000000000002</ele>
        <time>2013-09-06T09:25:57Z</time>
      </trkpt>
      <trkpt lat="50.441982988268137" lon="13.395339986309409">
        <ele>332.26999999999998</ele>
        <time>2013-09-06T09:25:58Z</time>
      </trkpt>
      <trkpt lat="50.442030010744929" lon="13.395165977999568">
        <ele>331.31</ele>
        <time>2013-09-06T09:25:59Z</time>
      </trkpt>
      <trkpt lat="50.442090025171638" lon="13.394979983568192">
        <ele>330.82999999999998</ele>
        <time>2013-09-06T09:26:00Z</time>
      </trkpt>
      <trkpt lat="50.442860992625356" lon="13.392985006794333">
        <ele>335.16000000000003</ele>
        <time>2013-09-06T09:26:10Z</time>
      </trkpt>
      <trkpt lat="50.444217016920447" lon="13.390624998137355">
        <ele>338.04000000000002</ele>
        <time>2013-09-06T09:26:22Z</time>
      </trkpt>
      <trkpt lat="50.44611300341785" lon="13.388647036626935">
        <ele>337.56</ele>
        <time>2013-09-06T09:26:35Z</time>
      </trkpt>
      <trkpt lat="50.448040002956986" lon="13.387310961261392">
        <ele>335.16000000000003</ele>
        <time>2013-09-06T09:26:46Z</time>
      </trkpt>
      <trkpt lat="50.449967002496123" lon="13.385558975860476">
        <ele>337.07999999999998</ele>
        <time>2013-09-06T09:26:57Z</time>
      </trkpt>
      <trkpt lat="50.451526958495378" lon="13.383150016888976">
        <ele>340.44</ele>
        <time>2013-09-06T09:27:08Z</time>
      </trkpt>
      <trkpt lat="50.4528590105474" lon="13.380467975512147">
        <ele>350.54000000000002</ele>
        <time>2013-09-06T09:27:20Z</time>
      </trkpt>
      <trkpt lat="50.453639030456543" lon="13.379022013396025">
        <ele>359.19</ele>
        <time>2013-09-06T09:27:28Z</time>
      </trkpt>
      <trkpt lat="50.454509994015098" lon="13.37765702046454">
        <ele>369.27999999999997</ele>
        <time>2013-09-06T09:27:37Z</time>
      </trkpt>
      <trkpt lat="50.454736975952983" lon="13.377152010798454">
        <ele>369.27999999999997</ele>
        <time>2013-09-06T09:27:40Z</time>
      </trkpt>
      <trkpt lat="50.45485801063478" lon="13.376783039420843">
        <ele>371.20999999999998</ele>
        <time>2013-09-06T09:27:42Z</time>
      </trkpt>
      <trkpt lat="50.454930011183023" lon="13.376610036939383">
        <ele>371.69</ele>
        <time>2013-09-06T09:27:43Z</time>
      </trkpt>
      <trkpt lat="50.455946987494826" lon="13.375047985464334">
        <ele>380.33999999999997</ele>
        <time>2013-09-06T09:27:53Z</time>
      </trkpt>
      <trkpt lat="50.457417005673051" lon="13.373653991147876">
        <ele>384.18000000000001</ele>
        <time>2013-09-06T09:28:03Z</time>
      </trkpt>
      <trkpt lat="50.459235962480307" lon="13.372719995677471">
        <ele>390.43000000000001</ele>
        <time>2013-09-06T09:28:13Z</time>
      </trkpt>
      <trkpt lat="50.461865030229092" lon="13.37222202681005">
        <ele>399.07999999999998</ele>
        <time>2013-09-06T09:28:26Z</time>
      </trkpt>
      <trkpt lat="50.463789012283087" lon="13.372449008747935">
        <ele>405.81</ele>
        <time>2013-09-06T09:28:35Z</time>
      </trkpt>
      <trkpt lat="50.466820998117328" lon="13.374017011374235">
        <ele>422.63999999999999</ele>
        <time>2013-09-06T09:28:50Z</time>
      </trkpt>
      <trkpt lat="50.468295961618423" lon="13.374315993860364">
        <ele>432.73000000000002</ele>
        <time>2013-09-06T09:28:57Z</time>
      </trkpt>
      <trkpt lat="50.469545032829046" lon="13.373734038323164">
        <ele>440.89999999999998</ele>
        <time>2013-09-06T09:29:03Z</time>
      </trkpt>
      <trkpt lat="50.470578018575907" lon="13.372471975162625">
        <ele>449.06999999999999</ele>
        <time>2013-09-06T09:29:09Z</time>
      </trkpt>
      <trkpt lat="50.471258964389563" lon="13.370638014748693">
        <ele>456.27999999999997</ele>
        <time>2013-09-06T09:29:15Z</time>
      </trkpt>
      <trkpt lat="50.47142299823463" lon="13.368516974151134">
        <ele>462.52999999999997</ele>
        <time>2013-09-06T09:29:21Z</time>
      </trkpt>
      <trkpt lat="50.471105994656682" lon="13.366460977122188">
        <ele>469.25999999999999</ele>
        <time>2013-09-06T09:29:27Z</time>
      </trkpt>
      <trkpt lat="50.470552034676075" lon="13.363052979111671">
        <ele>481.27999999999997</ele>
        <time>2013-09-06T09:29:37Z</time>
      </trkpt>
      <trkpt lat="50.470795026049018" lon="13.36059900932014">
        <ele>490.88999999999999</ele>
        <time>2013-09-06T09:29:44Z</time>
      </trkpt>
      <trkpt lat="50.471578985452652" lon="13.358342014253139">
        <ele>505.79000000000002</ele>
        <time>2013-09-06T09:29:51Z</time>
      </trkpt>
      <trkpt lat="50.47267097979784" lon="13.356949025765061">
        <ele>516.37</ele>
        <time>2013-09-06T09:29:57Z</time>
      </trkpt>
      <trkpt lat="50.474643995985389" lon="13.354976009577513">
        <ele>530.29999999999995</ele>
        <time>2013-09-06T09:30:07Z</time>
      </trkpt>
      <trkpt lat="50.475657032802701" lon="13.353039035573602">
        <ele>540.88</ele>
        <time>2013-09-06T09:30:14Z</time>
      </trkpt>
      <trkpt lat="50.476342001929879" lon="13.35035196505487">
        <ele>555.77999999999997</ele>
        <time>2013-09-06T09:30:22Z</time>
      </trkpt>
      <trkpt lat="50.477207014337182" lon="13.344970028847456">
        <ele>578.37</ele>
        <time>2013-09-06T09:30:37Z</time>
      </trkpt>
      <trkpt lat="50.477486969903111" lon="13.340939003974199">
        <ele>594.71000000000004</ele>
        <time>2013-09-06T09:30:48Z</time>
      </trkpt>
      <trkpt lat="50.477329976856709" lon="13.337247027084231">
        <ele>609.13</ele>
        <time>2013-09-06T09:30:58Z</time>
      </trkpt>
      <trkpt lat="50.476732011884451" lon="13.333409959450364">
        <ele>626.44000000000005</ele>
        <time>2013-09-06T09:31:09Z</time>
      </trkpt>
      <trkpt lat="50.476118959486485" lon="13.32955302670598">
        <ele>643.74000000000001</ele>
        <time>2013-09-06T09:31:20Z</time>
      </trkpt>
      <trkpt lat="50.476392041891813" lon="13.327011968940496">
        <ele>656.72000000000003</ele>
        <time>2013-09-06T09:31:27Z</time>
      </trkpt>
      <trkpt lat="50.477239033207297" lon="13.324754973873496">
        <ele>670.17999999999995</ele>
        <time>2013-09-06T09:31:34Z</time>
      </trkpt>
      <trkpt lat="50.478346031159163" lon="13.323358967900276">
        <ele>676.41999999999996</ele>
        <time>2013-09-06T09:31:40Z</time>
      </trkpt>
      <trkpt lat="50.47855700366199" lon="13.323186971247196">
        <ele>676.90999999999997</ele>
        <time>2013-09-06T09:31:41Z</time>
      </trkpt>
      <trkpt lat="50.478777028620243" lon="13.323040036484599">
        <ele>677.38999999999999</ele>
        <time>2013-09-06T09:31:42Z</time>
      </trkpt>
      <trkpt lat="50.480959005653858" lon="13.321780990809202">
        <ele>686.03999999999996</ele>
        <time>2013-09-06T09:31:52Z</time>
      </trkpt>
      <trkpt lat="50.482216039672494" lon="13.320159008726478">
        <ele>694.69000000000005</ele>
        <time>2013-09-06T09:31:59Z</time>
      </trkpt>
      <trkpt lat="50.483044004067779" lon="13.31799203529954">
        <ele>701.89999999999998</ele>
        <time>2013-09-06T09:32:06Z</time>
      </trkpt>
      <trkpt lat="50.48354297876358" lon="13.315215026959777">
        <ele>711.50999999999999</ele>
        <time>2013-09-06T09:32:14Z</time>
      </trkpt>
      <trkpt lat="50.483525041490793" lon="13.311925968155265">
        <ele>720.15999999999997</ele>
        <time>2013-09-06T09:32:23Z</time>
      </trkpt>
      <trkpt lat="50.483055990189314" lon="13.30765999853611">
        <ele>724.97000000000003</ele>
        <time>2013-09-06T09:32:35Z</time>
      </trkpt>
      <trkpt lat="50.482541006058455" lon="13.302681986242533">
        <ele>731.70000000000005</ele>
        <time>2013-09-06T09:32:49Z</time>
      </trkpt>
      <trkpt lat="50.482590962201357" lon="13.301958041265607">
        <ele>732.65999999999997</ele>
        <time>2013-09-06T09:32:51Z</time>
      </trkpt>
      <trkpt lat="50.483099995180964" lon="13.299941020086408">
        <ele>733.13999999999999</ele>
        <time>2013-09-06T09:32:57Z</time>
      </trkpt>
      <trkpt lat="50.484661040827632" lon="13.295941008254886">
        <ele>733.13999999999999</ele>
        <time>2013-09-06T09:33:10Z</time>
      </trkpt>
      <trkpt lat="50.486458959057927" lon="13.291238006204367">
        <ele>735.07000000000005</ele>
        <time>2013-09-06T09:33:25Z</time>
      </trkpt>
      <trkpt lat="50.486906971782446" lon="13.28877498395741">
        <ele>734.10000000000002</ele>
        <time>2013-09-06T09:33:32Z</time>
      </trkpt>
      <trkpt lat="50.486775962635875" lon="13.286211965605617">
        <ele>736.50999999999999</ele>
        <time>2013-09-06T09:33:39Z</time>
      </trkpt>
      <trkpt lat="50.486345971003175" lon="13.2832339592278">
        <ele>738.42999999999995</ele>
        <time>2013-09-06T09:33:48Z</time>
      </trkpt>
      <trkpt lat="50.486458959057927" lon="13.281546011567116">
        <ele>737.95000000000005</ele>
        <time>2013-09-06T09:33:55Z</time>
      </trkpt>
      <trkpt lat="50.486643025651574" lon="13.280735984444618">
        <ele>736.50999999999999</ele>
        <time>2013-09-06T09:34:00Z</time>
      </trkpt>
      <trkpt lat="50.486647970974445" lon="13.280598018318415">
        <ele>736.02999999999997</ele>
        <time>2013-09-06T09:34:01Z</time>
      </trkpt>
      <trkpt lat="50.486622992902994" lon="13.280491987243295">
        <ele>736.02999999999997</ele>
        <time>2013-09-06T09:34:02Z</time>
      </trkpt>
      <trkpt lat="50.486559038981795" lon="13.280429039150476">
        <ele>734.10000000000002</ele>
        <time>2013-09-06T09:34:03Z</time>
      </trkpt>
      <trkpt lat="50.486491983756423" lon="13.280398026108742">
        <ele>734.10000000000002</ele>
        <time>2013-09-06T09:34:04Z</time>
      </trkpt>
      <trkpt lat="50.486427024006844" lon="13.280371958389878">
        <ele>734.58000000000004</ele>
        <time>2013-09-06T09:34:05Z</time>
      </trkpt>
      <trkpt lat="50.486259972676635" lon="13.280298030003905">
        <ele>736.50999999999999</ele>
        <time>2013-09-06T09:34:11Z</time>
      </trkpt>
      <trkpt lat="50.486220996826887" lon="13.280375981703401">
        <ele>742.75999999999999</ele>
        <time>2013-09-06T09:36:11Z</time>
      </trkpt>
      <trkpt lat="50.486252009868622" lon="13.280353015288711">
        <ele>740.83000000000004</ele>
        <time>2013-09-06T09:37:33Z</time>
      </trkpt>
      <trkpt lat="50.486176991835237" lon="13.280351003631949">
        <ele>740.83000000000004</ele>
        <time>2013-09-06T09:37:36Z</time>
      </trkpt>
      <trkpt lat="50.486114965751767" lon="13.280333988368511">
        <ele>740.83000000000004</ele>
        <time>2013-09-06T09:37:37Z</time>
      </trkpt>
      <trkpt lat="50.486035002395511" lon="13.280322002246976">
        <ele>740.83000000000004</ele>
        <time>2013-09-06T09:37:38Z</time>
      </trkpt>
      <trkpt lat="50.485743982717395" lon="13.280236003920436">
        <ele>740.35000000000002</ele>
        <time>2013-09-06T09:37:41Z</time>
      </trkpt>
      <trkpt lat="50.485635017976165" lon="13.280172972008586">
        <ele>740.35000000000002</ele>
        <time>2013-09-06T09:37:42Z</time>
      </trkpt>
      <trkpt lat="50.485520018264651" lon="13.280080016702414">
        <ele>740.35000000000002</ele>
        <time>2013-09-06T09:37:43Z</time>
      </trkpt>
      <trkpt lat="50.485406024381518" lon="13.279957976192236">
        <ele>740.83000000000004</ele>
        <time>2013-09-06T09:37:44Z</time>
      </trkpt>
      <trkpt lat="50.485297981649637" lon="13.279802994802594">
        <ele>740.83000000000004</ele>
        <time>2013-09-06T09:37:45Z</time>
      </trkpt>
      <trkpt lat="50.485192034393549" lon="13.279625969007611">
        <ele>741.30999999999995</ele>
        <time>2013-09-06T09:37:46Z</time>
      </trkpt>
      <trkpt lat="50.483910022303462" lon="13.277434017509222">
        <ele>740.83000000000004</ele>
        <time>2013-09-06T09:37:57Z</time>
      </trkpt>
      <trkpt lat="50.483812037855387" lon="13.277225978672504">
        <ele>740.83000000000004</ele>
        <time>2013-09-06T09:37:58Z</time>
      </trkpt>
      <trkpt lat="50.482923975214362" lon="13.27528397552669">
        <ele>741.30999999999995</ele>
        <time>2013-09-06T09:38:07Z</time>
      </trkpt>
      <trkpt lat="50.482040019705892" lon="13.273580018430948">
        <ele>736.99000000000001</ele>
        <time>2013-09-06T09:38:17Z</time>
      </trkpt>
      <trkpt lat="50.481986040249467" lon="13.273411961272359">
        <ele>736.02999999999997</ele>
        <time>2013-09-06T09:38:18Z</time>
      </trkpt>
      <trkpt lat="50.48195200972259" lon="13.273234013468027">
        <ele>735.54999999999995</ele>
        <time>2013-09-06T09:38:19Z</time>
      </trkpt>
      <trkpt lat="50.481682028621435" lon="13.271987037733197">
        <ele>731.22000000000003</ele>
        <time>2013-09-06T09:38:25Z</time>
      </trkpt>
      <trkpt lat="50.481585972011089" lon="13.271784028038383">
        <ele>730.74000000000001</ele>
        <time>2013-09-06T09:38:26Z</time>
      </trkpt>
      <trkpt lat="50.481468960642815" lon="13.271599961444736">
        <ele>729.77999999999997</ele>
        <time>2013-09-06T09:38:27Z</time>
      </trkpt>
      <trkpt lat="50.481337029486895" lon="13.271441040560603">
        <ele>729.29999999999995</ele>
        <time>2013-09-06T09:38:28Z</time>
      </trkpt>
      <trkpt lat="50.481194034218788" lon="13.2713289745152">
        <ele>728.34000000000003</ele>
        <time>2013-09-06T09:38:29Z</time>
      </trkpt>
      <trkpt lat="50.481045003980398" lon="13.271256973966956">
        <ele>727.37</ele>
        <time>2013-09-06T09:38:30Z</time>
      </trkpt>
      <trkpt lat="50.480873007327318" lon="13.271246999502182">
        <ele>726.88999999999999</ele>
        <time>2013-09-06T09:38:31Z</time>
      </trkpt>
      <trkpt lat="50.480708973482251" lon="13.271314976736903">
        <ele>726.40999999999997</ele>
        <time>2013-09-06T09:38:32Z</time>
      </trkpt>
      <trkpt lat="50.480539994314313" lon="13.271394018083811">
        <ele>727.37</ele>
        <time>2013-09-06T09:38:33Z</time>
      </trkpt>
      <trkpt lat="50.480388030409813" lon="13.271474987268448">
        <ele>727.86000000000001</ele>
        <time>2013-09-06T09:38:34Z</time>
      </trkpt>
      <trkpt lat="50.4802540037781" lon="13.271562997251749">
        <ele>727.86000000000001</ele>
        <time>2013-09-06T09:38:35Z</time>
      </trkpt>
      <trkpt lat="50.479944963008165" lon="13.271817974746227">
        <ele>729.29999999999995</ele>
        <time>2013-09-06T09:38:38Z</time>
      </trkpt>
      <trkpt lat="50.479811020195484" lon="13.271777993068099">
        <ele>729.29999999999995</ele>
        <time>2013-09-06T09:38:41Z</time>
      </trkpt>
      <trkpt lat="50.479809008538723" lon="13.271681014448404">
        <ele>729.77999999999997</ele>
        <time>2013-09-06T09:38:42Z</time>
      </trkpt>
      <trkpt lat="50.479812026023865" lon="13.271583030000329">
        <ele>729.77999999999997</ele>
        <time>2013-09-06T09:38:43Z</time>
      </trkpt>
      <trkpt lat="50.479847984388471" lon="13.271468030288815">
        <ele>729.77999999999997</ele>
        <time>2013-09-06T09:38:44Z</time>
      </trkpt>
      <trkpt lat="50.479943035170436" lon="13.271344983950257">
        <ele>729.77999999999997</ele>
        <time>2013-09-06T09:38:45Z</time>
      </trkpt>
      <trkpt lat="50.480100028216839" lon="13.271194025874138">
        <ele>729.77999999999997</ele>
        <time>2013-09-06T09:38:46Z</time>
      </trkpt>
      <trkpt lat="50.480226008221507" lon="13.271035021170974">
        <ele>729.29999999999995</ele>
        <time>2013-09-06T09:38:47Z</time>
      </trkpt>
      <trkpt lat="50.480695981532335" lon="13.270451975986362">
        <ele>728.34000000000003</ele>
        <time>2013-09-06T09:38:51Z</time>
      </trkpt>
      <trkpt lat="50.480805030092597" lon="13.270305963233113">
        <ele>727.86000000000001</ele>
        <time>2013-09-06T09:38:52Z</time>
      </trkpt>
      <trkpt lat="50.480897985398769" lon="13.270118040964007">
        <ele>727.37</ele>
        <time>2013-09-06T09:38:53Z</time>
      </trkpt>
      <trkpt lat="50.480966968461871" lon="13.269912013784051">
        <ele>726.88999999999999</ele>
        <time>2013-09-06T09:38:54Z</time>
      </trkpt>
      <trkpt lat="50.481025977060199" lon="13.269716966897249">
        <ele>726.40999999999997</ele>
        <time>2013-09-06T09:38:55Z</time>
      </trkpt>
      <trkpt lat="50.481103006750345" lon="13.269528960809112">
        <ele>726.40999999999997</ele>
        <time>2013-09-06T09:38:56Z</time>
      </trkpt>
      <trkpt lat="50.481232004240155" lon="13.269378002732992">
        <ele>725.92999999999995</ele>
        <time>2013-09-06T09:38:57Z</time>
      </trkpt>
      <trkpt lat="50.481751011684537" lon="13.268504021689296">
        <ele>721.61000000000001</ele>
        <time>2013-09-06T09:39:02Z</time>
      </trkpt>
      <trkpt lat="50.481768026947975" lon="13.268291959539056">
        <ele>719.20000000000005</ele>
        <time>2013-09-06T09:39:03Z</time>
      </trkpt>
      <trkpt lat="50.481768026947975" lon="13.268123986199498">
        <ele>717.27999999999997</ele>
        <time>2013-09-06T09:39:04Z</time>
      </trkpt>
      <trkpt lat="50.48171304166317" lon="13.268035976216197">
        <ele>715.84000000000003</ele>
        <time>2013-09-06T09:39:05Z</time>
      </trkpt>
      <trkpt lat="50.481594018638134" lon="13.267976967617869">
        <ele>714.88</ele>
        <time>2013-09-06T09:39:06Z</time>
      </trkpt>
      <trkpt lat="50.481467032805085" lon="13.267962969839573">
        <ele>714.39999999999998</ele>
        <time>2013-09-06T09:39:07Z</time>
      </trkpt>
      <trkpt lat="50.481337029486895" lon="13.268013009801507">
        <ele>713.91999999999996</ele>
        <time>2013-09-06T09:39:08Z</time>
      </trkpt>
      <trkpt lat="50.481209037825465" lon="13.268112000077963">
        <ele>714.88</ele>
        <time>2013-09-06T09:39:09Z</time>
      </trkpt>
      <trkpt lat="50.481093032285571" lon="13.268246026709676">
        <ele>715.84000000000003</ele>
        <time>2013-09-06T09:39:10Z</time>
      </trkpt>
      <trkpt lat="50.480992030352354" lon="13.268383992835879">
        <ele>716.79999999999995</ele>
        <time>2013-09-06T09:39:11Z</time>
      </trkpt>
      <trkpt lat="50.480879964306951" lon="13.268511984497309">
        <ele>717.75999999999999</ele>
        <time>2013-09-06T09:39:12Z</time>
      </trkpt>
      <trkpt lat="50.480737974867225" lon="13.268614998087287">
        <ele>719.20000000000005</ele>
        <time>2013-09-06T09:39:13Z</time>
      </trkpt>
      <trkpt lat="50.480610989034176" lon="13.268661014735699">
        <ele>720.64999999999998</ele>
        <time>2013-09-06T09:39:14Z</time>
      </trkpt>
      <trkpt lat="50.480453995987773" lon="13.268657997250557">
        <ele>722.09000000000003</ele>
        <time>2013-09-06T09:39:15Z</time>
      </trkpt>
      <trkpt lat="50.480312006548047" lon="13.268604017794132">
        <ele>723.52999999999997</ele>
        <time>2013-09-06T09:39:16Z</time>
      </trkpt>
      <trkpt lat="50.480159958824515" lon="13.268532017245889">
        <ele>724.49000000000001</ele>
        <time>2013-09-06T09:39:17Z</time>
      </trkpt>
      <trkpt lat="50.479849996045232" lon="13.268352979794145">
        <ele>726.40999999999997</ele>
        <time>2013-09-06T09:39:19Z</time>
      </trkpt>
      <trkpt lat="50.479698032140732" lon="13.268217025324702">
        <ele>725.92999999999995</ele>
        <time>2013-09-06T09:39:20Z</time>
      </trkpt>
      <trkpt lat="50.479319002479315" lon="13.267644038423896">
        <ele>725.92999999999995</ele>
        <time>2013-09-06T09:39:23Z</time>
      </trkpt>
      <trkpt lat="50.479227975010872" lon="13.267425019294024">
        <ele>727.37</ele>
        <time>2013-09-06T09:39:24Z</time>
      </trkpt>
      <trkpt lat="50.479139965027571" lon="13.267155038192868">
        <ele>726.88999999999999</ele>
        <time>2013-09-06T09:39:25Z</time>
      </trkpt>
      <trkpt lat="50.479044998064637" lon="13.266901988536119">
        <ele>728.34000000000003</ele>
        <time>2013-09-06T09:39:26Z</time>
      </trkpt>
      <trkpt lat="50.478925975039601" lon="13.266682969406247">
        <ele>730.25999999999999</ele>
        <time>2013-09-06T09:39:27Z</time>
      </trkpt>
      <trkpt lat="50.478790020570159" lon="13.266478031873703">
        <ele>731.70000000000005</ele>
        <time>2013-09-06T09:39:28Z</time>
      </trkpt>
      <trkpt lat="50.478636967018247" lon="13.266298994421959">
        <ele>732.65999999999997</ele>
        <time>2013-09-06T09:39:29Z</time>
      </trkpt>
      <trkpt lat="50.478468993678689" lon="13.266123980283737">
        <ele>733.62</ele>
        <time>2013-09-06T09:39:30Z</time>
      </trkpt>
      <trkpt lat="50.478289034217596" lon="13.265963969752192">
        <ele>735.07000000000005</ele>
        <time>2013-09-06T09:39:31Z</time>
      </trkpt>
      <trkpt lat="50.477953003719449" lon="13.265628023073077">
        <ele>739.38999999999999</ele>
        <time>2013-09-06T09:39:33Z</time>
      </trkpt>
      <trkpt lat="50.477809002622962" lon="13.265411015599966">
        <ele>741.78999999999996</ele>
        <time>2013-09-06T09:39:34Z</time>
      </trkpt>
      <trkpt lat="50.477681010961533" lon="13.265170035883784">
        <ele>744.67999999999995</ele>
        <time>2013-09-06T09:39:35Z</time>
      </trkpt>
      <trkpt lat="50.476309983059764" lon="13.262710031121969">
        <ele>752.85000000000002</ele>
        <time>2013-09-06T09:39:45Z</time>
      </trkpt>
      <trkpt lat="50.474842982366681" lon="13.260646993294358">
        <ele>745.15999999999997</ele>
        <time>2013-09-06T09:39:54Z</time>
      </trkpt>
      <trkpt lat="50.473895994946361" lon="13.258699038997293">
        <ele>738.90999999999997</ele>
        <time>2013-09-06T09:40:01Z</time>
      </trkpt>
      <trkpt lat="50.472919000312686" lon="13.255991013720632">
        <ele>732.17999999999995</ele>
        <time>2013-09-06T09:40:10Z</time>
      </trkpt>
      <trkpt lat="50.472450032830238" lon="13.253715997561812">
        <ele>734.10000000000002</ele>
        <time>2013-09-06T09:40:17Z</time>
      </trkpt>
      <trkpt lat="50.471662972122431" lon="13.251607026904821">
        <ele>739.87</ele>
        <time>2013-09-06T09:40:24Z</time>
      </trkpt>
      <trkpt lat="50.470340978354216" lon="13.248757012188435">
        <ele>745.63999999999999</ele>
        <time>2013-09-06T09:40:34Z</time>
      </trkpt>
      <trkpt lat="50.468905996531248" lon="13.2449010014534">
        <ele>752.85000000000002</ele>
        <time>2013-09-06T09:40:47Z</time>
      </trkpt>
      <trkpt lat="50.46764200553298" lon="13.241231990978122">
        <ele>748.03999999999996</ele>
        <time>2013-09-06T09:41:00Z</time>
      </trkpt>
      <trkpt lat="50.467069018632174" lon="13.239648984745145">
        <ele>749.97000000000003</ele>
        <time>2013-09-06T09:41:08Z</time>
      </trkpt>
      <trkpt lat="50.466314982622862" lon="13.237989032641053">
        <ele>751.88999999999999</ele>
        <time>2013-09-06T09:41:18Z</time>
      </trkpt>
      <trkpt lat="50.466259997338057" lon="13.23779096826911">
        <ele>752.37</ele>
        <time>2013-09-06T09:41:19Z</time>
      </trkpt>
      <trkpt lat="50.466219009831548" lon="13.237590976059437">
        <ele>752.85000000000002</ele>
        <time>2013-09-06T09:41:20Z</time>
      </trkpt>
      <trkpt lat="50.46618296764791" lon="13.237387966364622">
        <ele>753.33000000000004</ele>
        <time>2013-09-06T09:41:21Z</time>
      </trkpt>
      <trkpt lat="50.466152960434556" lon="13.237186968326569">
        <ele>753.80999999999995</ele>
        <time>2013-09-06T09:41:22Z</time>
      </trkpt>
      <trkpt lat="50.466104010120034" lon="13.236990999430418">
        <ele>753.80999999999995</ele>
        <time>2013-09-06T09:41:23Z</time>
      </trkpt>
      <trkpt lat="50.46598800458014" lon="13.236615993082523">
        <ele>752.37</ele>
        <time>2013-09-06T09:41:25Z</time>
      </trkpt>
      <trkpt lat="50.465914998203516" lon="13.23643603362143">
        <ele>750.92999999999995</ele>
        <time>2013-09-06T09:41:26Z</time>
      </trkpt>
      <trkpt lat="50.46583796851337" lon="13.236260013654828">
        <ele>749.97000000000003</ele>
        <time>2013-09-06T09:41:27Z</time>
      </trkpt>
      <trkpt lat="50.464833984151483" lon="13.234227988868952">
        <ele>739.87</ele>
        <time>2013-09-06T09:41:37Z</time>
      </trkpt>
      <trkpt lat="50.463558007031679" lon="13.23132399469614">
        <ele>743.72000000000003</ele>
        <time>2013-09-06T09:41:48Z</time>
      </trkpt>
      <trkpt lat="50.462434999644756" lon="13.227733019739389">
        <ele>763.89999999999998</ele>
        <time>2013-09-06T09:42:00Z</time>
      </trkpt>
      <trkpt lat="50.460706986486912" lon="13.222439009696245">
        <ele>796.11000000000001</ele>
        <time>2013-09-06T09:42:18Z</time>
      </trkpt>
      <trkpt lat="50.460299961268902" lon="13.220247980207205">
        <ele>801.39999999999998</ele>
        <time>2013-09-06T09:42:25Z</time>
      </trkpt>
      <trkpt lat="50.460425019264221" lon="13.2174869813025">
        <ele>798.02999999999997</ele>
        <time>2013-09-06T09:42:33Z</time>
      </trkpt>
      <trkpt lat="50.460417978465557" lon="13.214187026023865">
        <ele>791.77999999999997</ele>
        <time>2013-09-06T09:42:43Z</time>
      </trkpt>
      <trkpt lat="50.459997961297631" lon="13.210140997543931">
        <ele>795.14999999999998</ele>
        <time>2013-09-06T09:42:55Z</time>
      </trkpt>
      <trkpt lat="50.459470991045237" lon="13.2058219704777">
        <ele>799.95000000000005</ele>
        <time>2013-09-06T09:43:08Z</time>
      </trkpt>
      <trkpt lat="50.45870304107666" lon="13.201939975842834">
        <ele>812.45000000000005</ele>
        <time>2013-09-06T09:43:20Z</time>
      </trkpt>
      <trkpt lat="50.457781031727791" lon="13.197536962106824">
        <ele>844.65999999999997</ele>
        <time>2013-09-06T09:43:34Z</time>
      </trkpt>
      <trkpt lat="50.457400996237993" lon="13.196279006078839">
        <ele>850.41999999999996</ele>
        <time>2013-09-06T09:43:40Z</time>
      </trkpt>
      <trkpt lat="50.456767994910479" lon="13.194399029016495">
        <ele>858.11000000000001</ele>
        <time>2013-09-06T09:43:47Z</time>
      </trkpt>
      <trkpt lat="50.455493023619056" lon="13.190589034929872">
        <ele>873.00999999999999</ele>
        <time>2013-09-06T09:44:01Z</time>
      </trkpt>
      <trkpt lat="50.454931017011404" lon="13.188915001228452">
        <ele>873.5</ele>
        <time>2013-09-06T09:44:08Z</time>
      </trkpt>
      <trkpt lat="50.454044966027141" lon="13.186048977077007">
        <ele>865.79999999999995</ele>
        <time>2013-09-06T09:44:17Z</time>
      </trkpt>
      <trkpt lat="50.452192984521389" lon="13.180138980969787">
        <ele>853.78999999999996</ele>
        <time>2013-09-06T09:44:35Z</time>
      </trkpt>
      <trkpt lat="50.451771039515734" lon="13.17745903506875">
        <ele>847.53999999999996</ele>
        <time>2013-09-06T09:44:43Z</time>
      </trkpt>
      <trkpt lat="50.451555959880352" lon="13.175921961665154">
        <ele>840.80999999999995</ele>
        <time>2013-09-06T09:44:48Z</time>
      </trkpt>
      <trkpt lat="50.451473984867334" lon="13.175643011927605">
        <ele>838.88999999999999</ele>
        <time>2013-09-06T09:44:49Z</time>
      </trkpt>
      <trkpt lat="50.451380023732781" lon="13.175386022776365">
        <ele>837.92999999999995</ele>
        <time>2013-09-06T09:44:50Z</time>
      </trkpt>
      <trkpt lat="50.45127097517252" lon="13.175149988383055">
        <ele>836.48000000000002</ele>
        <time>2013-09-06T09:44:51Z</time>
      </trkpt>
      <trkpt lat="50.451148012652993" lon="13.174929041415453">
        <ele>835.03999999999996</ele>
        <time>2013-09-06T09:44:52Z</time>
      </trkpt>
      <trkpt lat="50.451020020991564" lon="13.174730977043509">
        <ele>833.60000000000002</ele>
        <time>2013-09-06T09:44:53Z</time>
      </trkpt>
      <trkpt lat="50.450605032965541" lon="13.173901000991464">
        <ele>830.24000000000001</ele>
        <time>2013-09-06T09:44:57Z</time>
      </trkpt>
      <trkpt lat="50.450586006045341" lon="13.173663960769773">
        <ele>828.30999999999995</ele>
        <time>2013-09-06T09:44:58Z</time>
      </trkpt>
      <trkpt lat="50.450614001601934" lon="13.173432033509016">
        <ele>826.87</ele>
        <time>2013-09-06T09:44:59Z</time>
      </trkpt>
      <trkpt lat="50.450692037120461" lon="13.173212008550763">
        <ele>825.90999999999997</ele>
        <time>2013-09-06T09:45:00Z</time>
      </trkpt>
      <trkpt lat="50.450807036831975" lon="13.173036994412541">
        <ele>825.42999999999995</ele>
        <time>2013-09-06T09:45:01Z</time>
      </trkpt>
      <trkpt lat="50.450961012393236" lon="13.172918977215886">
        <ele>824.47000000000003</ele>
        <time>2013-09-06T09:45:02Z</time>
      </trkpt>
      <trkpt lat="50.451126974076033" lon="13.172853011637926">
        <ele>823.50999999999999</ele>
        <time>2013-09-06T09:45:03Z</time>
      </trkpt>
      <trkpt lat="50.451294025406241" lon="13.172790985554457">
        <ele>823.02999999999997</ele>
        <time>2013-09-06T09:45:04Z</time>
      </trkpt>
      <trkpt lat="50.45146401040256" lon="13.172717979177833">
        <ele>822.05999999999995</ele>
        <time>2013-09-06T09:45:05Z</time>
      </trkpt>
      <trkpt lat="50.451613962650299" lon="13.172615971416235">
        <ele>821.10000000000002</ele>
        <time>2013-09-06T09:45:06Z</time>
      </trkpt>
      <trkpt lat="50.45174203813076" lon="13.172465013340116">
        <ele>819.65999999999997</ele>
        <time>2013-09-06T09:45:07Z</time>
      </trkpt>
      <trkpt lat="50.451856032013893" lon="13.172274995595217">
        <ele>818.22000000000003</ele>
        <time>2013-09-06T09:45:08Z</time>
      </trkpt>
      <trkpt lat="50.451963990926743" lon="13.172035021707416">
        <ele>817.25999999999999</ele>
        <time>2013-09-06T09:45:09Z</time>
      </trkpt>
      <trkpt lat="50.452050995081663" lon="13.171779960393906">
        <ele>815.82000000000005</ele>
        <time>2013-09-06T09:45:10Z</time>
      </trkpt>
      <trkpt lat="50.452125007286668" lon="13.171500004827976">
        <ele>814.37</ele>
        <time>2013-09-06T09:45:11Z</time>
      </trkpt>
      <trkpt lat="50.452189967036247" lon="13.171199010685086">
        <ele>813.88999999999999</ele>
        <time>2013-09-06T09:45:12Z</time>
      </trkpt>
      <trkpt lat="50.452761026099324" lon="13.167896037921309">
        <ele>792.25999999999999</ele>
        <time>2013-09-06T09:45:22Z</time>
      </trkpt>
      <trkpt lat="50.45305397361517" lon="13.164562974125147">
        <ele>780.73000000000002</ele>
        <time>2013-09-06T09:45:32Z</time>
      </trkpt>
      <trkpt lat="50.453483965247869" lon="13.162444029003382">
        <ele>773.51999999999998</ele>
        <time>2013-09-06T09:45:39Z</time>
      </trkpt>
      <trkpt lat="50.453674988821149" lon="13.161884034052491">
        <ele>772.55999999999995</ele>
        <time>2013-09-06T09:45:41Z</time>
      </trkpt>
      <trkpt lat="50.453753024339676" lon="13.161588991060853">
        <ele>772.55999999999995</ele>
        <time>2013-09-06T09:45:42Z</time>
      </trkpt>
      <trkpt lat="50.453811027109623" lon="13.161278022453189">
        <ele>771.60000000000002</ele>
        <time>2013-09-06T09:45:43Z</time>
      </trkpt>
      <trkpt lat="50.453856959939003" lon="13.160963030532002">
        <ele>771.11000000000001</ele>
        <time>2013-09-06T09:45:44Z</time>
      </trkpt>
      <trkpt lat="50.453889984637499" lon="13.160640997812152">
        <ele>770.14999999999998</ele>
        <time>2013-09-06T09:45:45Z</time>
      </trkpt>
      <trkpt lat="50.45391496270895" lon="13.158012013882399">
        <ele>762.46000000000004</ele>
        <time>2013-09-06T09:45:53Z</time>
      </trkpt>
      <trkpt lat="50.453985035419464" lon="13.156170006841421">
        <ele>758.62</ele>
        <time>2013-09-06T09:45:59Z</time>
      </trkpt>
      <trkpt lat="50.454046977683902" lon="13.155876975506544">
        <ele>757.65999999999997</ele>
        <time>2013-09-06T09:46:00Z</time>
      </trkpt>
      <trkpt lat="50.454489039257169" lon="13.154485998675227">
        <ele>753.80999999999995</ele>
        <time>2013-09-06T09:46:05Z</time>
      </trkpt>
      <trkpt lat="50.455722017213702" lon="13.152390019968152">
        <ele>747.08000000000004</ele>
        <time>2013-09-06T09:46:14Z</time>
      </trkpt>
      <trkpt lat="50.456542018800974" lon="13.150944979861379">
        <ele>746.60000000000002</ele>
        <time>2013-09-06T09:46:20Z</time>
      </trkpt>
      <trkpt lat="50.456638997420669" lon="13.15066603012383">
        <ele>747.55999999999995</ele>
        <time>2013-09-06T09:46:21Z</time>
      </trkpt>
      <trkpt lat="50.456718038767576" lon="13.150375010445714">
        <ele>748.03999999999996</ele>
        <time>2013-09-06T09:46:22Z</time>
      </trkpt>
      <trkpt lat="50.456776963546872" lon="13.150065969675779">
        <ele>749</ele>
        <time>2013-09-06T09:46:23Z</time>
      </trkpt>
      <trkpt lat="50.456820968538523" lon="13.149748966097832">
        <ele>749.97000000000003</ele>
        <time>2013-09-06T09:46:24Z</time>
      </trkpt>
      <trkpt lat="50.456846030429006" lon="13.149425005540252">
        <ele>751.40999999999997</ele>
        <time>2013-09-06T09:46:25Z</time>
      </trkpt>
      <trkpt lat="50.456852987408638" lon="13.149097021669149">
        <ele>751.88999999999999</ele>
        <time>2013-09-06T09:46:26Z</time>
      </trkpt>
      <trkpt lat="50.45685600489378" lon="13.148772977292538">
        <ele>752.85000000000002</ele>
        <time>2013-09-06T09:46:27Z</time>
      </trkpt>
      <trkpt lat="50.456645032390952" lon="13.143376959487796">
        <ele>750.92999999999995</ele>
        <time>2013-09-06T09:46:43Z</time>
      </trkpt>
      <trkpt lat="50.45649197883904" lon="13.139392035081983">
        <ele>746.60000000000002</ele>
        <time>2013-09-06T09:46:56Z</time>
      </trkpt>
      <trkpt lat="50.456554004922509" lon="13.136458033695817">
        <ele>736.99000000000001</ele>
        <time>2013-09-06T09:47:07Z</time>
      </trkpt>
      <trkpt lat="50.456923982128501" lon="13.135306024923921">
        <ele>740.35000000000002</ele>
        <time>2013-09-06T09:47:13Z</time>
      </trkpt>
      <trkpt lat="50.456980979070067" lon="13.135185996070504">
        <ele>740.83000000000004</ele>
        <time>2013-09-06T09:47:14Z</time>
      </trkpt>
      <trkpt lat="50.457006962969899" lon="13.135062027722597">
        <ele>741.30999999999995</ele>
        <time>2013-09-06T09:47:15Z</time>
      </trkpt>
      <trkpt lat="50.457002017647028" lon="13.134937975555658">
        <ele>742.27999999999997</ele>
        <time>2013-09-06T09:47:16Z</time>
      </trkpt>
      <trkpt lat="50.456963963806629" lon="13.134830016642809">
        <ele>743.24000000000001</ele>
        <time>2013-09-06T09:47:17Z</time>
      </trkpt>
      <trkpt lat="50.456887017935514" lon="13.134729014709592">
        <ele>743.72000000000003</ele>
        <time>2013-09-06T09:47:18Z</time>
      </trkpt>
      <trkpt lat="50.456785010173917" lon="13.134631030261517">
        <ele>743.72000000000003</ele>
        <time>2013-09-06T09:47:19Z</time>
      </trkpt>
      <trkpt lat="50.456666992977262" lon="13.13453103415668">
        <ele>742.75999999999999</ele>
        <time>2013-09-06T09:47:20Z</time>
      </trkpt>
      <trkpt lat="50.455596959218383" lon="13.133616987615824">
        <ele>740.35000000000002</ele>
        <time>2013-09-06T09:47:27Z</time>
      </trkpt>
      <trkpt lat="50.455035036429763" lon="13.133254973217845">
        <ele>738.90999999999997</ele>
        <time>2013-09-06T09:47:30Z</time>
      </trkpt>
      <trkpt lat="50.454836972057819" lon="13.13317702151835">
        <ele>738.42999999999995</ele>
        <time>2013-09-06T09:47:31Z</time>
      </trkpt>
      <trkpt lat="50.453256983309984" lon="13.132308991625905">
        <ele>736.99000000000001</ele>
        <time>2013-09-06T09:47:39Z</time>
      </trkpt>
      <trkpt lat="50.453049028292298" lon="13.13223103992641">
        <ele>737.47000000000003</ele>
        <time>2013-09-06T09:47:40Z</time>
      </trkpt>
      <trkpt lat="50.452827997505665" lon="13.132201032713056">
        <ele>736.50999999999999</ele>
        <time>2013-09-06T09:47:41Z</time>
      </trkpt>
      <trkpt lat="50.452610990032554" lon="13.132193991914392">
        <ele>736.50999999999999</ele>
        <time>2013-09-06T09:47:42Z</time>
      </trkpt>
      <trkpt lat="50.452397000044584" lon="13.132220981642604">
        <ele>736.50999999999999</ele>
        <time>2013-09-06T09:47:43Z</time>
      </trkpt>
      <trkpt lat="50.452188039198518" lon="13.132265992462635">
        <ele>737.47000000000003</ele>
        <time>2013-09-06T09:47:44Z</time>
      </trkpt>
      <trkpt lat="50.450481986626983" lon="13.132907040417194">
        <ele>745.63999999999999</ele>
        <time>2013-09-06T09:47:53Z</time>
      </trkpt>
      <trkpt lat="50.450002960860729" lon="13.133077025413513">
        <ele>747.08000000000004</ele>
        <time>2013-09-06T09:47:56Z</time>
      </trkpt>
      <trkpt lat="50.44982903636992" lon="13.133068978786469">
        <ele>747.08000000000004</ele>
        <time>2013-09-06T09:47:57Z</time>
      </trkpt>
      <trkpt lat="50.449647987261415" lon="13.13302799127996">
        <ele>747.08000000000004</ele>
        <time>2013-09-06T09:47:58Z</time>
      </trkpt>
      <trkpt lat="50.447990968823433" lon="13.132752981036901">
        <ele>748.03999999999996</ele>
        <time>2013-09-06T09:48:06Z</time>
      </trkpt>
      <trkpt lat="50.445346981287003" lon="13.132457016035914">
        <ele>750.92999999999995</ele>
        <time>2013-09-06T09:48:18Z</time>
      </trkpt>
      <trkpt lat="50.443305987864733" lon="13.132486017420888">
        <ele>754.28999999999996</ele>
        <time>2013-09-06T09:48:27Z</time>
      </trkpt>
      <trkpt lat="50.442239977419376" lon="13.132603028789163">
        <ele>757.65999999999997</ele>
        <time>2013-09-06T09:48:32Z</time>
      </trkpt>
      <trkpt lat="50.442057000473142" lon="13.132686009630561">
        <ele>757.65999999999997</ele>
        <time>2013-09-06T09:48:33Z</time>
      </trkpt>
      <trkpt lat="50.441871006041765" lon="13.132822969928384">
        <ele>758.62</ele>
        <time>2013-09-06T09:48:34Z</time>
      </trkpt>
      <trkpt lat="50.440360000357032" lon="13.133686976507306">
        <ele>767.75</ele>
        <time>2013-09-06T09:48:42Z</time>
      </trkpt>
      <trkpt lat="50.440185992047191" lon="13.133729975670576">
        <ele>769.66999999999996</ele>
        <time>2013-09-06T09:48:43Z</time>
      </trkpt>
      <trkpt lat="50.440006032586098" lon="13.133745985105634">
        <ele>770.63</ele>
        <time>2013-09-06T09:48:44Z</time>
      </trkpt>
      <trkpt lat="50.439819032326341" lon="13.133722012862563">
        <ele>771.60000000000002</ele>
        <time>2013-09-06T09:48:45Z</time>
      </trkpt>
      <trkpt lat="50.439634965732694" lon="13.13367297872901">
        <ele>772.08000000000004</ele>
        <time>2013-09-06T09:48:46Z</time>
      </trkpt>
      <trkpt lat="50.439449977129698" lon="13.133620005100965">
        <ele>772.55999999999995</ele>
        <time>2013-09-06T09:48:47Z</time>
      </trkpt>
      <trkpt lat="50.436744969338179" lon="13.132801009342074">
        <ele>787.46000000000004</ele>
        <time>2013-09-06T09:49:01Z</time>
      </trkpt>
      <trkpt lat="50.436006020754576" lon="13.132601017132401">
        <ele>794.19000000000005</ele>
        <time>2013-09-06T09:49:05Z</time>
      </trkpt>
      <trkpt lat="50.435810973867774" lon="13.132616020739079">
        <ele>795.14999999999998</ele>
        <time>2013-09-06T09:49:06Z</time>
      </trkpt>
      <trkpt lat="50.434392001479864" lon="13.132939981296659">
        <ele>797.07000000000005</ele>
        <time>2013-09-06T09:49:13Z</time>
      </trkpt>
      <trkpt lat="50.43204297311604" lon="13.133314987644553">
        <ele>810.04999999999995</ele>
        <time>2013-09-06T09:49:25Z</time>
      </trkpt>
      <trkpt lat="50.430936980992556" lon="13.133094040676951">
        <ele>817.25999999999999</ele>
        <time>2013-09-06T09:49:31Z</time>
      </trkpt>
      <trkpt lat="50.430789040401578" lon="13.132995972409844">
        <ele>819.17999999999995</ele>
        <time>2013-09-06T09:49:32Z</time>
      </trkpt>
      <trkpt lat="50.430648978799582" lon="13.132860017940402">
        <ele>820.62</ele>
        <time>2013-09-06T09:49:33Z</time>
      </trkpt>
      <trkpt lat="50.430531967431307" lon="13.132691960781813">
        <ele>822.54999999999995</ele>
        <time>2013-09-06T09:49:34Z</time>
      </trkpt>
      <trkpt lat="50.430418979376554" lon="13.132508983835578">
        <ele>823.50999999999999</ele>
        <time>2013-09-06T09:49:35Z</time>
      </trkpt>
      <trkpt lat="50.430310014635324" lon="13.13232097774744">
        <ele>823.99000000000001</ele>
        <time>2013-09-06T09:49:36Z</time>
      </trkpt>
      <trkpt lat="50.430117985233665" lon="13.132021995261312">
        <ele>824.95000000000005</ele>
        <time>2013-09-06T09:49:38Z</time>
      </trkpt>
      <trkpt lat="50.430029975250363" lon="13.131918981671333">
        <ele>825.42999999999995</ele>
        <time>2013-09-06T09:49:39Z</time>
      </trkpt>
      <trkpt lat="50.429926039651036" lon="13.131870031356812">
        <ele>824.95000000000005</ele>
        <time>2013-09-06T09:49:40Z</time>
      </trkpt>
      <trkpt lat="50.429822020232677" lon="13.131875982508063">
        <ele>824.47000000000003</ele>
        <time>2013-09-06T09:49:41Z</time>
      </trkpt>
      <trkpt lat="50.429724035784602" lon="13.131901966407895">
        <ele>823.99000000000001</ele>
        <time>2013-09-06T09:49:42Z</time>
      </trkpt>
      <trkpt lat="50.429618004709482" lon="13.131928034126759">
        <ele>823.99000000000001</ele>
        <time>2013-09-06T09:49:43Z</time>
      </trkpt>
      <trkpt lat="50.429504010826349" lon="13.131899032741785">
        <ele>823.50999999999999</ele>
        <time>2013-09-06T09:49:44Z</time>
      </trkpt>
      <trkpt lat="50.42939898557961" lon="13.131799036636949">
        <ele>823.02999999999997</ele>
        <time>2013-09-06T09:49:45Z</time>
      </trkpt>
      <trkpt lat="50.42931399308145" lon="13.131645983085036">
        <ele>823.02999999999997</ele>
        <time>2013-09-06T09:49:46Z</time>
      </trkpt>
      <trkpt lat="50.42864796705544" lon="13.130638981238008">
        <ele>824.47000000000003</ele>
        <time>2013-09-06T09:49:53Z</time>
      </trkpt>
      <trkpt lat="50.428530033677816" lon="13.130548959597945">
        <ele>824.47000000000003</ele>
        <time>2013-09-06T09:49:54Z</time>
      </trkpt>
      <trkpt lat="50.428392989560962" lon="13.13049104064703">
        <ele>823.99000000000001</ele>
        <time>2013-09-06T09:49:55Z</time>
      </trkpt>
      <trkpt lat="50.426954990252852" lon="13.129984019324183">
        <ele>825.42999999999995</ele>
        <time>2013-09-06T09:50:04Z</time>
      </trkpt>
      <trkpt lat="50.425248015671968" lon="13.12922403216362">
        <ele>827.83000000000004</ele>
        <time>2013-09-06T09:50:13Z</time>
      </trkpt>
      <trkpt lat="50.425060009583831" lon="13.129081036895514">
        <ele>828.30999999999995</ele>
        <time>2013-09-06T09:50:14Z</time>
      </trkpt>
      <trkpt lat="50.424695983529091" lon="13.128809966146946">
        <ele>830.24000000000001</ele>
        <time>2013-09-06T09:50:16Z</time>
      </trkpt>
      <trkpt lat="50.424509989097714" lon="13.128728996962309">
        <ele>831.67999999999995</ele>
        <time>2013-09-06T09:50:17Z</time>
      </trkpt>
      <trkpt lat="50.424326006323099" lon="13.128707036375999">
        <ele>833.12</ele>
        <time>2013-09-06T09:50:18Z</time>
      </trkpt>
      <trkpt lat="50.424151998013258" lon="13.128696978092194">
        <ele>834.55999999999995</ele>
        <time>2013-09-06T09:50:19Z</time>
      </trkpt>
      <trkpt lat="50.42398695833981" lon="13.128644004464149">
        <ele>835.51999999999998</ele>
        <time>2013-09-06T09:50:20Z</time>
      </trkpt>
      <trkpt lat="50.423831976950169" lon="13.128520958125591">
        <ele>836.48000000000002</ele>
        <time>2013-09-06T09:50:21Z</time>
      </trkpt>
      <trkpt lat="50.423697028309107" lon="13.128345021978021">
        <ele>837.45000000000005</ele>
        <time>2013-09-06T09:50:22Z</time>
      </trkpt>
      <trkpt lat="50.423590997233987" lon="13.128115022554994">
        <ele>838.40999999999997</ele>
        <time>2013-09-06T09:50:23Z</time>
      </trkpt>
      <trkpt lat="50.423497958108783" lon="13.127859039232135">
        <ele>839.37</ele>
        <time>2013-09-06T09:50:24Z</time>
      </trkpt>
      <trkpt lat="50.42340500280261" lon="13.127585034817457">
        <ele>840.33000000000004</ele>
        <time>2013-09-06T09:50:25Z</time>
      </trkpt>
      <trkpt lat="50.422654990106821" lon="13.125142967328429">
        <ele>849.94000000000005</ele>
        <time>2013-09-06T09:50:34Z</time>
      </trkpt>
      <trkpt lat="50.422628000378609" lon="13.124840967357159">
        <ele>849.94000000000005</ele>
        <time>2013-09-06T09:50:35Z</time>
      </trkpt>
      <trkpt lat="50.422520963475108" lon="13.121237000450492">
        <ele>844.17999999999995</ele>
        <time>2013-09-06T09:50:47Z</time>
      </trkpt>
      <trkpt lat="50.4225679859519" lon="13.118854025378823">
        <ele>839.85000000000002</ele>
        <time>2013-09-06T09:50:56Z</time>
      </trkpt>
      <trkpt lat="50.422692038118839" lon="13.11807400546968">
        <ele>838.88999999999999</ele>
        <time>2013-09-06T09:51:00Z</time>
      </trkpt>
      <trkpt lat="50.422748029232025" lon="13.117920029908419">
        <ele>838.40999999999997</ele>
        <time>2013-09-06T09:51:01Z</time>
      </trkpt>
      <trkpt lat="50.422808965668082" lon="13.117779968306422">
        <ele>838.40999999999997</ele>
        <time>2013-09-06T09:51:02Z</time>
      </trkpt>
      <trkpt lat="50.422927988693118" lon="13.117314018309116">
        <ele>838.88999999999999</ele>
        <time>2013-09-06T09:51:05Z</time>
      </trkpt>
      <trkpt lat="50.42291197925806" lon="13.117133975028992">
        <ele>838.88999999999999</ele>
        <time>2013-09-06T09:51:06Z</time>
      </trkpt>
      <trkpt lat="50.422876020893455" lon="13.116955021396279">
        <ele>838.88999999999999</ele>
        <time>2013-09-06T09:51:07Z</time>
      </trkpt>
      <trkpt lat="50.422084014862776" lon="13.114022025838494">
        <ele>842.73000000000002</ele>
        <time>2013-09-06T09:51:23Z</time>
      </trkpt>
      <trkpt lat="50.421373983845115" lon="13.11182496137917">
        <ele>841.76999999999998</ele>
        <time>2013-09-06T09:51:35Z</time>
      </trkpt>
      <trkpt lat="50.421326039358974" lon="13.111624969169497">
        <ele>841.28999999999996</ele>
        <time>2013-09-06T09:51:36Z</time>
      </trkpt>
      <trkpt lat="50.421287985518575" lon="13.111402010545135">
        <ele>841.28999999999996</ele>
        <time>2013-09-06T09:51:37Z</time>
      </trkpt>
      <trkpt lat="50.421038037165999" lon="13.109133029356599">
        <ele>844.65999999999997</ele>
        <time>2013-09-06T09:51:45Z</time>
      </trkpt>
      <trkpt lat="50.420969976112247" lon="13.105982020497322">
        <ele>853.78999999999996</ele>
        <time>2013-09-06T09:51:55Z</time>
      </trkpt>
      <trkpt lat="50.420755986124277" lon="13.10378503985703">
        <ele>858.11000000000001</ele>
        <time>2013-09-06T09:52:02Z</time>
      </trkpt>
      <trkpt lat="50.419816039502621" lon="13.099745968356729">
        <ele>865.79999999999995</ele>
        <time>2013-09-06T09:52:15Z</time>
      </trkpt>
      <trkpt lat="50.419405996799469" lon="13.096812972798944">
        <ele>867.73000000000002</ele>
        <time>2013-09-06T09:52:24Z</time>
      </trkpt>
      <trkpt lat="50.418943986296654" lon="13.094791006296873">
        <ele>864.36000000000001</ele>
        <time>2013-09-06T09:52:31Z</time>
      </trkpt>
      <trkpt lat="50.418379968032241" lon="13.092962997034192">
        <ele>863.39999999999998</ele>
        <time>2013-09-06T09:52:40Z</time>
      </trkpt>
      <trkpt lat="50.418113004416227" lon="13.091339003294706">
        <ele>863.39999999999998</ele>
        <time>2013-09-06T09:52:48Z</time>
      </trkpt>
      <trkpt lat="50.41786196641624" lon="13.089207988232374">
        <ele>862.44000000000005</ele>
        <time>2013-09-06T09:52:58Z</time>
      </trkpt>
      <trkpt lat="50.417960034683347" lon="13.087933016940951">
        <ele>860.03999999999996</ele>
        <time>2013-09-06T09:53:04Z</time>
      </trkpt>
      <trkpt lat="50.41807402856648" lon="13.087304038926959">
        <ele>859.08000000000004</ele>
        <time>2013-09-06T09:53:07Z</time>
      </trkpt>
      <trkpt lat="50.418090038001537" lon="13.0870929826051">
        <ele>859.08000000000004</ele>
        <time>2013-09-06T09:53:08Z</time>
      </trkpt>
      <trkpt lat="50.418085008859634" lon="13.086873963475227">
        <ele>860.51999999999998</ele>
        <time>2013-09-06T09:53:09Z</time>
      </trkpt>
      <trkpt lat="50.418061958625913" lon="13.086657961830497">
        <ele>861</ele>
        <time>2013-09-06T09:53:10Z</time>
      </trkpt>
      <trkpt lat="50.418018959462643" lon="13.086458975449204">
        <ele>861.48000000000002</ele>
        <time>2013-09-06T09:53:11Z</time>
      </trkpt>
      <trkpt lat="50.417961962521076" lon="13.086282033473253">
        <ele>860.51999999999998</ele>
        <time>2013-09-06T09:53:12Z</time>
      </trkpt>
      <trkpt lat="50.417875964194536" lon="13.086122022941709">
        <ele>860.51999999999998</ele>
        <time>2013-09-06T09:53:13Z</time>
      </trkpt>
      <trkpt lat="50.41777697391808" lon="13.085970981046557">
        <ele>861</ele>
        <time>2013-09-06T09:53:14Z</time>
      </trkpt>
      <trkpt lat="50.417670020833611" lon="13.08582597412169">
        <ele>861.48000000000002</ele>
        <time>2013-09-06T09:53:15Z</time>
      </trkpt>
      <trkpt lat="50.416596969589591" lon="13.084413958713412">
        <ele>873.98000000000002</ele>
        <time>2013-09-06T09:53:25Z</time>
      </trkpt>
      <trkpt lat="50.41646403260529" lon="13.08432200923562">
        <ele>875.41999999999996</ele>
        <time>2013-09-06T09:53:26Z</time>
      </trkpt>
      <trkpt lat="50.416097994893789" lon="13.084035012871027">
        <ele>877.82000000000005</ele>
        <time>2013-09-06T09:53:29Z</time>
      </trkpt>
      <trkpt lat="50.415996992960572" lon="13.083894029259682">
        <ele>878.29999999999995</ele>
        <time>2013-09-06T09:53:30Z</time>
      </trkpt>
      <trkpt lat="50.415892973542213" lon="13.083744999021292">
        <ele>879.74000000000001</ele>
        <time>2013-09-06T09:53:31Z</time>
      </trkpt>
      <trkpt lat="50.415216973051429" lon="13.082340024411678">
        <ele>883.59000000000003</ele>
        <time>2013-09-06T09:53:39Z</time>
      </trkpt>
      <trkpt lat="50.415072971954942" lon="13.081733006983995">
        <ele>886.95000000000005</ele>
        <time>2013-09-06T09:53:42Z</time>
      </trkpt>
      <trkpt lat="50.415041036903858" lon="13.08152798563242">
        <ele>888.39999999999998</ele>
        <time>2013-09-06T09:53:43Z</time>
      </trkpt>
      <trkpt lat="50.415026033297181" lon="13.081315001472831">
        <ele>888.88</ele>
        <time>2013-09-06T09:53:44Z</time>
      </trkpt>
      <trkpt lat="50.415030978620052" lon="13.081094976514578">
        <ele>890.32000000000005</ele>
        <time>2013-09-06T09:53:45Z</time>
      </trkpt>
      <trkpt lat="50.415036007761955" lon="13.080876963213086">
        <ele>890.32000000000005</ele>
        <time>2013-09-06T09:53:46Z</time>
      </trkpt>
      <trkpt lat="50.415097028017044" lon="13.078491976484656">
        <ele>891.27999999999997</ele>
        <time>2013-09-06T09:53:56Z</time>
      </trkpt>
      <trkpt lat="50.414998037740588" lon="13.076413013041019">
        <ele>885.02999999999997</ele>
        <time>2013-09-06T09:54:05Z</time>
      </trkpt>
      <trkpt lat="50.414805002510548" lon="13.074617022648454">
        <ele>880.22000000000003</ele>
        <time>2013-09-06T09:54:11Z</time>
      </trkpt>
      <trkpt lat="50.414376016706228" lon="13.071496021002531">
        <ele>885.99000000000001</ele>
        <time>2013-09-06T09:54:21Z</time>
      </trkpt>
      <trkpt lat="50.413806969299912" lon="13.067816030234098">
        <ele>891.75999999999999</ele>
        <time>2013-09-06T09:54:33Z</time>
      </trkpt>
      <trkpt lat="50.413713008165359" lon="13.067533979192376">
        <ele>892.72000000000003</ele>
        <time>2013-09-06T09:54:34Z</time>
      </trkpt>
      <trkpt lat="50.413605971261859" lon="13.06726299226284">
        <ele>893.67999999999995</ele>
        <time>2013-09-06T09:54:35Z</time>
      </trkpt>
      <trkpt lat="50.411743009462953" lon="13.062808010727167">
        <ele>913.38999999999999</ele>
        <time>2013-09-06T09:54:52Z</time>
      </trkpt>
      <trkpt lat="50.411327015608549" lon="13.061701012775302">
        <ele>919.15999999999997</ele>
        <time>2013-09-06T09:54:57Z</time>
      </trkpt>
      <trkpt lat="50.41128602810204" lon="13.061475958675146">
        <ele>920.12</ele>
        <time>2013-09-06T09:54:58Z</time>
      </trkpt>
      <trkpt lat="50.41126498952508" lon="13.061239002272487">
        <ele>921.08000000000004</ele>
        <time>2013-09-06T09:54:59Z</time>
      </trkpt>
      <trkpt lat="50.41117999702692" lon="13.058838006108999">
        <ele>924.45000000000005</ele>
        <time>2013-09-06T09:55:07Z</time>
      </trkpt>
      <trkpt lat="50.411054017022252" lon="13.055205037817359">
        <ele>929.25</ele>
        <time>2013-09-06T09:55:18Z</time>
      </trkpt>
      <trkpt lat="50.410866010934114" lon="13.050885004922748">
        <ele>937.41999999999996</ele>
        <time>2013-09-06T09:55:31Z</time>
      </trkpt>
      <trkpt lat="50.41068403981626" lon="13.045934988185763">
        <ele>956.64999999999998</ele>
        <time>2013-09-06T09:55:46Z</time>
      </trkpt>
      <trkpt lat="50.41051497682929" lon="13.042013011872768">
        <ele>968.66999999999996</ele>
        <time>2013-09-06T09:55:58Z</time>
      </trkpt>
      <trkpt lat="50.41047097183764" lon="13.039785018190742">
        <ele>969.63</ele>
        <time>2013-09-06T09:56:05Z</time>
      </trkpt>
      <trkpt lat="50.411012023687363" lon="13.035677969455719">
        <ele>972.50999999999999</ele>
        <time>2013-09-06T09:56:18Z</time>
      </trkpt>
      <trkpt lat="50.410973969846964" lon="13.034716984257102">
        <ele>969.14999999999998</ele>
        <time>2013-09-06T09:56:21Z</time>
      </trkpt>
      <trkpt lat="50.410928037017584" lon="13.034424036741257">
        <ele>969.14999999999998</ele>
        <time>2013-09-06T09:56:22Z</time>
      </trkpt>
      <trkpt lat="50.410856958478689" lon="13.034142991527915">
        <ele>968.66999999999996</ele>
        <time>2013-09-06T09:56:23Z</time>
      </trkpt>
      <trkpt lat="50.410767020657659" lon="13.033887008205056">
        <ele>969.14999999999998</ele>
        <time>2013-09-06T09:56:24Z</time>
      </trkpt>
      <trkpt lat="50.410655960440636" lon="13.033636976033449">
        <ele>969.14999999999998</ele>
        <time>2013-09-06T09:56:25Z</time>
      </trkpt>
      <trkpt lat="50.41053500957787" lon="13.033394990488887">
        <ele>968.17999999999995</ele>
        <time>2013-09-06T09:56:26Z</time>
      </trkpt>
      <trkpt lat="50.409301025792956" lon="13.031086027622223">
        <ele>963.38</ele>
        <time>2013-09-06T09:56:36Z</time>
      </trkpt>
      <trkpt lat="50.40898896753788" lon="13.030790984630585">
        <ele>960.98000000000002</ele>
        <time>2013-09-06T09:56:38Z</time>
      </trkpt>
      <trkpt lat="50.407812986522913" lon="13.029773002490401">
        <ele>951.84000000000003</ele>
        <time>2013-09-06T09:56:46Z</time>
      </trkpt>
      <trkpt lat="50.407692035660148" lon="13.029572004452348">
        <ele>950.88</ele>
        <time>2013-09-06T09:56:47Z</time>
      </trkpt>
      <trkpt lat="50.407577035948634" lon="13.029333958402276">
        <ele>948.48000000000002</ele>
        <time>2013-09-06T09:56:48Z</time>
      </trkpt>
      <trkpt lat="50.407506041228771" lon="13.029046040028334">
        <ele>948</ele>
        <time>2013-09-06T09:56:49Z</time>
      </trkpt>
      <trkpt lat="50.407452983781695" lon="13.028742028400302">
        <ele>947.51999999999998</ele>
        <time>2013-09-06T09:56:50Z</time>
      </trkpt>
      <trkpt lat="50.407417025417089" lon="13.028431981801987">
        <ele>946.07000000000005</ele>
        <time>2013-09-06T09:56:51Z</time>
      </trkpt>
      <trkpt lat="50.407409984618425" lon="13.028112966567278">
        <ele>946.07000000000005</ele>
        <time>2013-09-06T09:56:52Z</time>
      </trkpt>
      <trkpt lat="50.407431023195386" lon="13.027800992131233">
        <ele>946.07000000000005</ele>
        <time>2013-09-06T09:56:53Z</time>
      </trkpt>
      <trkpt lat="50.407474022358656" lon="13.02749396301806">
        <ele>946.07000000000005</ele>
        <time>2013-09-06T09:56:54Z</time>
      </trkpt>
      <trkpt lat="50.4075269959867" lon="13.027194980531931">
        <ele>945.59000000000003</ele>
        <time>2013-09-06T09:56:55Z</time>
      </trkpt>
      <trkpt lat="50.407597990706563" lon="13.026898009702563">
        <ele>946.07000000000005</ele>
        <time>2013-09-06T09:56:56Z</time>
      </trkpt>
      <trkpt lat="50.408590994775295" lon="13.02285198122263">
        <ele>947.03999999999996</ele>
        <time>2013-09-06T09:57:09Z</time>
      </trkpt>
      <trkpt lat="50.409488026052713" lon="13.01926301792264">
        <ele>958.09000000000003</ele>
        <time>2013-09-06T09:57:21Z</time>
      </trkpt>
      <trkpt lat="50.409561032429338" lon="13.018775023519993">
        <ele>959.04999999999995</ele>
        <time>2013-09-06T09:57:23Z</time>
      </trkpt>
      <trkpt lat="50.409553991630673" lon="13.018537983298302">
        <ele>959.04999999999995</ele>
        <time>2013-09-06T09:57:24Z</time>
      </trkpt>
      <trkpt lat="50.409523984417319" lon="13.018305972218513">
        <ele>960.00999999999999</ele>
        <time>2013-09-06T09:57:25Z</time>
      </trkpt>
      <trkpt lat="50.409450978040695" lon="13.018088964745402">
        <ele>960.49000000000001</ele>
        <time>2013-09-06T09:57:26Z</time>
      </trkpt>
      <trkpt lat="50.409361040219665" lon="13.017884027212858">
        <ele>961.46000000000004</ele>
        <time>2013-09-06T09:57:27Z</time>
      </trkpt>
      <trkpt lat="50.409260038286448" lon="13.017699960619211">
        <ele>961.94000000000005</ele>
        <time>2013-09-06T09:57:28Z</time>
      </trkpt>
      <trkpt lat="50.409148978069425" lon="13.017515977844596">
        <ele>963.38</ele>
        <time>2013-09-06T09:57:29Z</time>
      </trkpt>
      <trkpt lat="50.407845005393028" lon="13.015802968293428">
        <ele>972.50999999999999</ele>
        <time>2013-09-06T09:57:38Z</time>
      </trkpt>
      <trkpt lat="50.407380983233452" lon="13.015238028019667">
        <ele>974.90999999999997</ele>
        <time>2013-09-06T09:57:41Z</time>
      </trkpt>
      <trkpt lat="50.406244983896613" lon="13.014122983440757">
        <ele>974.42999999999995</ele>
        <time>2013-09-06T09:57:48Z</time>
      </trkpt>
      <trkpt lat="50.40606795810163" lon="13.014029022306204">
        <ele>974.42999999999995</ele>
        <time>2013-09-06T09:57:49Z</time>
      </trkpt>
      <trkpt lat="50.405884981155396" lon="13.013959033414721">
        <ele>973.47000000000003</ele>
        <time>2013-09-06T09:57:50Z</time>
      </trkpt>
      <trkpt lat="50.403871983289719" lon="13.013301976025105">
        <ele>974.90999999999997</ele>
        <time>2013-09-06T09:58:01Z</time>
      </trkpt>
      <trkpt lat="50.403711972758174" lon="13.01318496465683">
        <ele>975.38999999999999</ele>
        <time>2013-09-06T09:58:02Z</time>
      </trkpt>
      <trkpt lat="50.403560008853674" lon="13.013025037944317">
        <ele>976.36000000000001</ele>
        <time>2013-09-06T09:58:03Z</time>
      </trkpt>
      <trkpt lat="50.403416007757187" lon="13.012844994664192">
        <ele>975.88</ele>
        <time>2013-09-06T09:58:04Z</time>
      </trkpt>
      <trkpt lat="50.40327301248908" lon="13.012651037424803">
        <ele>975.88</ele>
        <time>2013-09-06T09:58:05Z</time>
      </trkpt>
      <trkpt lat="50.402415040880442" lon="13.011608999222517">
        <ele>977.32000000000005</ele>
        <time>2013-09-06T09:58:11Z</time>
      </trkpt>
      <trkpt lat="50.402260981500149" lon="13.011531969532371">
        <ele>977.32000000000005</ele>
        <time>2013-09-06T09:58:12Z</time>
      </trkpt>
      <trkpt lat="50.402103988453746" lon="13.011520989239216">
        <ele>976.84000000000003</ele>
        <time>2013-09-06T09:58:13Z</time>
      </trkpt>
      <trkpt lat="50.401940960437059" lon="13.011576980352402">
        <ele>976.84000000000003</ele>
        <time>2013-09-06T09:58:14Z</time>
      </trkpt>
      <trkpt lat="50.401784973219037" lon="13.011660967022181">
        <ele>977.32000000000005</ele>
        <time>2013-09-06T09:58:15Z</time>
      </trkpt>
      <trkpt lat="50.401630997657776" lon="13.011763980612159">
        <ele>978.27999999999997</ele>
        <time>2013-09-06T09:58:16Z</time>
      </trkpt>
      <trkpt lat="50.400230968371034" lon="13.013024032115936">
        <ele>984.04999999999995</ele>
        <time>2013-09-06T09:58:25Z</time>
      </trkpt>
      <trkpt lat="50.399982025846839" lon="13.01324900239706">
        <ele>984.04999999999995</ele>
        <time>2013-09-06T09:58:27Z</time>
      </trkpt>
      <trkpt lat="50.39985403418541" lon="13.01329200156033">
        <ele>984.04999999999995</ele>
        <time>2013-09-06T09:58:28Z</time>
      </trkpt>
      <trkpt lat="50.399726964533329" lon="13.013298036530614">
        <ele>984.52999999999997</ele>
        <time>2013-09-06T09:58:29Z</time>
      </trkpt>
      <trkpt lat="50.399571983143687" lon="13.013251014053822">
        <ele>984.52999999999997</ele>
        <time>2013-09-06T09:58:30Z</time>
      </trkpt>
      <trkpt lat="50.399420019239187" lon="13.013173984363675">
        <ele>985.00999999999999</ele>
        <time>2013-09-06T09:58:31Z</time>
      </trkpt>
      <trkpt lat="50.398471020162106" lon="13.012599991634488">
        <ele>989.80999999999995</ele>
        <time>2013-09-06T09:58:37Z</time>
      </trkpt>
      <trkpt lat="50.398339005187154" lon="13.012459008023143">
        <ele>991.25999999999999</ele>
        <time>2013-09-06T09:58:38Z</time>
      </trkpt>
      <trkpt lat="50.397569965571165" lon="13.011519983410835">
        <ele>999.90999999999997</ele>
        <time>2013-09-06T09:58:44Z</time>
      </trkpt>
      <trkpt lat="50.397495031356812" lon="13.011290989816189">
        <ele>1000.39</ele>
        <time>2013-09-06T09:58:45Z</time>
      </trkpt>
      <trkpt lat="50.396562963724136" lon="13.008797960355878">
        <ele>1005.2</ele>
        <time>2013-09-06T09:58:55Z</time>
      </trkpt>
      <trkpt lat="50.395711027085781" lon="13.005915004760027">
        <ele>1016.25</ele>
        <time>2013-09-06T09:59:05Z</time>
      </trkpt>
      <trkpt lat="50.395471975207329" lon="13.005000036209822">
        <ele>1019.62</ele>
        <time>2013-09-06T09:59:09Z</time>
      </trkpt>
      <trkpt lat="50.395454037934542" lon="13.004805995151401">
        <ele>1020.1</ele>
        <time>2013-09-06T09:59:10Z</time>
      </trkpt>
      <trkpt lat="50.395468035712838" lon="13.004621006548405">
        <ele>1021.0599999999999</ele>
        <time>2013-09-06T09:59:11Z</time>
      </trkpt>
      <trkpt lat="50.395504999905825" lon="13.004445992410183">
        <ele>1021.54</ele>
        <time>2013-09-06T09:59:12Z</time>
      </trkpt>
      <trkpt lat="50.395561996847391" lon="13.004270978271961">
        <ele>1022.02</ele>
        <time>2013-09-06T09:59:13Z</time>
      </trkpt>
      <trkpt lat="50.395655035972595" lon="13.004103004932404">
        <ele>1022.5</ele>
        <time>2013-09-06T09:59:14Z</time>
      </trkpt>
      <trkpt lat="50.395762994885445" lon="13.003939976915717">
        <ele>1022.98</ele>
        <time>2013-09-06T09:59:15Z</time>
      </trkpt>
      <trkpt lat="50.395886041224003" lon="13.003787007182837">
        <ele>1023.46</ele>
        <time>2013-09-06T09:59:16Z</time>
      </trkpt>
      <trkpt lat="50.396025013178587" lon="13.003674019128084">
        <ele>1023.46</ele>
        <time>2013-09-06T09:59:17Z</time>
      </trkpt>
      <trkpt lat="50.396192986518145" lon="13.003594977781177">
        <ele>1023.46</ele>
        <time>2013-09-06T09:59:18Z</time>
      </trkpt>
      <trkpt lat="50.39635500870645" lon="13.003520965576172">
        <ele>1022.98</ele>
        <time>2013-09-06T09:59:19Z</time>
      </trkpt>
      <trkpt lat="50.397911025211215" lon="13.002878995612264">
        <ele>1024.4200000000001</ele>
        <time>2013-09-06T09:59:27Z</time>
      </trkpt>
      <trkpt lat="50.399111984297633" lon="13.002340039238334">
        <ele>1024.4200000000001</ele>
        <time>2013-09-06T09:59:33Z</time>
      </trkpt>
      <trkpt lat="50.399288004264235" lon="13.002193020656705">
        <ele>1024.4200000000001</ele>
        <time>2013-09-06T09:59:34Z</time>
      </trkpt>
      <trkpt lat="50.399941960349679" lon="13.001506961882114">
        <ele>1027.3099999999999</ele>
        <time>2013-09-06T09:59:38Z</time>
      </trkpt>
      <trkpt lat="50.400085039436817" lon="13.001284003257751">
        <ele>1026.8299999999999</ele>
        <time>2013-09-06T09:59:39Z</time>
      </trkpt>
      <trkpt lat="50.400209007784724" lon="13.001056015491486">
        <ele>1026.8299999999999</ele>
        <time>2013-09-06T09:59:40Z</time>
      </trkpt>
      <trkpt lat="50.401438968256116" lon="12.998452009633183">
        <ele>1022.5</ele>
        <time>2013-09-06T09:59:50Z</time>
      </trkpt>
      <trkpt lat="50.401737028732896" lon="12.998025035485625">
        <ele>1023.9400000000001</ele>
        <time>2013-09-06T09:59:52Z</time>
      </trkpt>
      <trkpt lat="50.401912964880466" lon="12.997858989983797">
        <ele>1023.9400000000001</ele>
        <time>2013-09-06T09:59:53Z</time>
      </trkpt>
      <trkpt lat="50.402098037302494" lon="12.997721023857594">
        <ele>1023.46</ele>
        <time>2013-09-06T09:59:54Z</time>
      </trkpt>
      <trkpt lat="50.40391799993813" lon="12.996481005102396">
        <ele>1025.3800000000001</ele>
        <time>2013-09-06T10:00:04Z</time>
      </trkpt>
      <trkpt lat="50.40406996384263" lon="12.99629501067102">
        <ele>1024.9000000000001</ele>
        <time>2013-09-06T10:00:05Z</time>
      </trkpt>
      <trkpt lat="50.40419602766633" lon="12.99608001485467">
        <ele>1023.9400000000001</ele>
        <time>2013-09-06T10:00:06Z</time>
      </trkpt>
      <trkpt lat="50.404290994629264" lon="12.995840040966868">
        <ele>1023.46</ele>
        <time>2013-09-06T10:00:07Z</time>
      </trkpt>
      <trkpt lat="50.404340028762817" lon="12.995577016845345">
        <ele>1022.98</ele>
        <time>2013-09-06T10:00:08Z</time>
      </trkpt>
      <trkpt lat="50.404369030147791" lon="12.995311981067061">
        <ele>1023.46</ele>
        <time>2013-09-06T10:00:09Z</time>
      </trkpt>
      <trkpt lat="50.40434698574245" lon="12.995036970824003">
        <ele>1022.5</ele>
        <time>2013-09-06T10:00:10Z</time>
      </trkpt>
      <trkpt lat="50.404336005449295" lon="12.994761960580945">
        <ele>1022.5</ele>
        <time>2013-09-06T10:00:11Z</time>
      </trkpt>
      <trkpt lat="50.404118997976184" lon="12.992316037416458">
        <ele>1012.89</ele>
        <time>2013-09-06T10:00:20Z</time>
      </trkpt>
      <trkpt lat="50.403848011046648" lon="12.9903659876436">
        <ele>1004.23</ele>
        <time>2013-09-06T10:00:27Z</time>
      </trkpt>
      <trkpt lat="50.403773998841643" lon="12.990116039291024">
        <ele>1002.79</ele>
        <time>2013-09-06T10:00:28Z</time>
      </trkpt>
      <trkpt lat="50.403680959716439" lon="12.98987296409905">
        <ele>1002.3099999999999</ele>
        <time>2013-09-06T10:00:29Z</time>
      </trkpt>
      <trkpt lat="50.402945028617978" lon="12.988054007291794">
        <ele>995.58000000000004</ele>
        <time>2013-09-06T10:00:37Z</time>
      </trkpt>
      <trkpt lat="50.402924995869398" lon="12.987801041454077">
        <ele>994.62</ele>
        <time>2013-09-06T10:00:38Z</time>
      </trkpt>
      <trkpt lat="50.402897000312805" lon="12.987307012081146">
        <ele>993.17999999999995</ele>
        <time>2013-09-06T10:00:40Z</time>
      </trkpt>
      <trkpt lat="50.402915021404624" lon="12.987059997394681">
        <ele>992.70000000000005</ele>
        <time>2013-09-06T10:00:41Z</time>
      </trkpt>
      <trkpt lat="50.402949973940849" lon="12.986817006021738">
        <ele>991.74000000000001</ele>
        <time>2013-09-06T10:00:42Z</time>
      </trkpt>
      <trkpt lat="50.402995990589261" lon="12.98656596802175">
        <ele>990.29999999999995</ele>
        <time>2013-09-06T10:00:43Z</time>
      </trkpt>
      <trkpt lat="50.403030021116138" lon="12.986324988305569">
        <ele>991.25999999999999</ele>
        <time>2013-09-06T10:00:44Z</time>
      </trkpt>
      <trkpt lat="50.403076959773898" lon="12.986080991104245">
        <ele>991.74000000000001</ele>
        <time>2013-09-06T10:00:45Z</time>
      </trkpt>
      <trkpt lat="50.40314300917089" lon="12.985848980024457">
        <ele>990.29999999999995</ele>
        <time>2013-09-06T10:00:46Z</time>
      </trkpt>
      <trkpt lat="50.403699986636639" lon="12.984339985996485">
        <ele>990.29999999999995</ele>
        <time>2013-09-06T10:00:54Z</time>
      </trkpt>
      <trkpt lat="50.403843987733126" lon="12.9838349763304">
        <ele>990.77999999999997</ele>
        <time>2013-09-06T10:00:58Z</time>
      </trkpt>
      <trkpt lat="50.403857985511422" lon="12.98372601158917">
        <ele>993.17999999999995</ele>
        <time>2013-09-06T10:00:59Z</time>
      </trkpt>
      <trkpt lat="50.403863014653325" lon="12.983601037412882">
        <ele>993.17999999999995</ele>
        <time>2013-09-06T10:01:00Z</time>
      </trkpt>
      <trkpt lat="50.403858991339803" lon="12.983461981639266">
        <ele>993.65999999999997</ele>
        <time>2013-09-06T10:01:01Z</time>
      </trkpt>
      <trkpt lat="50.40385102853179" lon="12.983302976936102">
        <ele>994.13999999999999</ele>
        <time>2013-09-06T10:01:02Z</time>
      </trkpt>
      <trkpt lat="50.403839964419603" lon="12.983132991939783">
        <ele>994.62</ele>
        <time>2013-09-06T10:01:03Z</time>
      </trkpt>
      <trkpt lat="50.403799982741475" lon="12.981672026216984">
        <ele>999.90999999999997</ele>
        <time>2013-09-06T10:01:10Z</time>
      </trkpt>
      <trkpt lat="50.403741979971528" lon="12.981217978522182">
        <ele>1000.39</ele>
        <time>2013-09-06T10:01:12Z</time>
      </trkpt>
      <trkpt lat="50.4036829713732" lon="12.980994014069438">
        <ele>1001.35</ele>
        <time>2013-09-06T10:01:13Z</time>
      </trkpt>
      <trkpt lat="50.403591021895409" lon="12.980764014646411">
        <ele>1002.3099999999999</ele>
        <time>2013-09-06T10:01:14Z</time>
      </trkpt>
      <trkpt lat="50.402878979220986" lon="12.979027032852173">
        <ele>1010.48</ele>
        <time>2013-09-06T10:01:21Z</time>
      </trkpt>
      <trkpt lat="50.402002986520529" lon="12.976811025291681">
        <ele>1021.0599999999999</ele>
        <time>2013-09-06T10:01:31Z</time>
      </trkpt>
      <trkpt lat="50.401805005967617" lon="12.976168971508741">
        <ele>1024.9000000000001</ele>
        <time>2013-09-06T10:01:34Z</time>
      </trkpt>
      <trkpt lat="50.401777010411024" lon="12.975934026762843">
        <ele>1025.8599999999999</ele>
        <time>2013-09-06T10:01:35Z</time>
      </trkpt>
      <trkpt lat="50.401781033724546" lon="12.9756910353899">
        <ele>1026.3399999999999</ele>
        <time>2013-09-06T10:01:36Z</time>
      </trkpt>
      <trkpt lat="50.402022013440728" lon="12.973783984780312">
        <ele>1032.5899999999999</ele>
        <time>2013-09-06T10:01:44Z</time>
      </trkpt>
      <trkpt lat="50.402815025299788" lon="12.971371002495289">
        <ele>1041.25</ele>
        <time>2013-09-06T10:01:55Z</time>
      </trkpt>
      <trkpt lat="50.402933964505792" lon="12.971188025549054">
        <ele>1042.21</ele>
        <time>2013-09-06T10:01:56Z</time>
      </trkpt>
      <trkpt lat="50.403699986636639" lon="12.970161996781826">
        <ele>1047.97</ele>
        <time>2013-09-06T10:02:02Z</time>
      </trkpt>
      <trkpt lat="50.404779994860291" lon="12.968330970034003">
        <ele>1059.51</ele>
        <time>2013-09-06T10:02:10Z</time>
      </trkpt>
      <trkpt lat="50.40542003698647" lon="12.96720796264708">
        <ele>1064.3199999999999</ele>
        <time>2013-09-06T10:02:15Z</time>
      </trkpt>
      <trkpt lat="50.405511986464262" lon="12.966953990980983">
        <ele>1063.8399999999999</ele>
        <time>2013-09-06T10:02:16Z</time>
      </trkpt>
      <trkpt lat="50.405597984790802" lon="12.966685015708208">
        <ele>1066.24</ele>
        <time>2013-09-06T10:02:17Z</time>
      </trkpt>
      <trkpt lat="50.405982965603471" lon="12.964777965098619">
        <ele>1077.78</ele>
        <time>2013-09-06T10:02:24Z</time>
      </trkpt>
      <trkpt lat="50.405986988916993" lon="12.964502032846212">
        <ele>1077.78</ele>
        <time>2013-09-06T10:02:25Z</time>
      </trkpt>
      <trkpt lat="50.405970979481936" lon="12.964244037866592">
        <ele>1078.74</ele>
        <time>2013-09-06T10:02:26Z</time>
      </trkpt>
      <trkpt lat="50.40593502111733" lon="12.963992999866605">
        <ele>1079.7</ele>
        <time>2013-09-06T10:02:27Z</time>
      </trkpt>
      <trkpt lat="50.405857991427183" lon="12.963761994615197">
        <ele>1079.7</ele>
        <time>2013-09-06T10:02:28Z</time>
      </trkpt>
      <trkpt lat="50.405750032514334" lon="12.963560996577144">
        <ele>1081.1400000000001</ele>
        <time>2013-09-06T10:02:29Z</time>
      </trkpt>
      <trkpt lat="50.40563402697444" lon="12.963367961347103">
        <ele>1082.0999999999999</ele>
        <time>2013-09-06T10:02:30Z</time>
      </trkpt>
      <trkpt lat="50.405507041141391" lon="12.963182972744107">
        <ele>1083.0599999999999</ele>
        <time>2013-09-06T10:02:31Z</time>
      </trkpt>
      <trkpt lat="50.40537896566093" lon="12.963007036596537">
        <ele>1085.47</ele>
        <time>2013-09-06T10:02:32Z</time>
      </trkpt>
      <trkpt lat="50.404427032917738" lon="12.961836000904441">
        <ele>1096.52</ele>
        <time>2013-09-06T10:02:38Z</time>
      </trkpt>
      <trkpt lat="50.403330009430647" lon="12.960164984688163">
        <ele>1110.46</ele>
        <time>2013-09-06T10:02:45Z</time>
      </trkpt>
      <trkpt lat="50.403219033032656" lon="12.959871031343937">
        <ele>1111.9000000000001</ele>
        <time>2013-09-06T10:02:46Z</time>
      </trkpt>
      <trkpt lat="50.403128005564213" lon="12.959568025544286">
        <ele>1112.8599999999999</ele>
        <time>2013-09-06T10:02:47Z</time>
      </trkpt>
      <trkpt lat="50.40305801667273" lon="12.959254961460829">
        <ele>1114.3099999999999</ele>
        <time>2013-09-06T10:02:48Z</time>
      </trkpt>
      <trkpt lat="50.40301401168108" lon="12.958919014781713">
        <ele>1115.27</ele>
        <time>2013-09-06T10:02:49Z</time>
      </trkpt>
      <trkpt lat="50.402978975325823" lon="12.958572003990412">
        <ele>1116.23</ele>
        <time>2013-09-06T10:02:50Z</time>
      </trkpt>
      <trkpt lat="50.402961960062385" lon="12.958212001249194">
        <ele>1117.6700000000001</ele>
        <time>2013-09-06T10:02:51Z</time>
      </trkpt>
      <trkpt lat="50.402965983375907" lon="12.957851998507977">
        <ele>1119.1099999999999</ele>
        <time>2013-09-06T10:02:52Z</time>
      </trkpt>
      <trkpt lat="50.403255997225642" lon="12.95581896789372">
        <ele>1133.05</ele>
        <time>2013-09-06T10:02:58Z</time>
      </trkpt>
      <trkpt lat="50.403490019962192" lon="12.953596003353596">
        <ele>1145.55</ele>
        <time>2013-09-06T10:03:05Z</time>
      </trkpt>
      <trkpt lat="50.403352975845337" lon="12.951712002977729">
        <ele>1155.6400000000001</ele>
        <time>2013-09-06T10:03:11Z</time>
      </trkpt>
      <trkpt lat="50.403300002217293" lon="12.951458031311631">
        <ele>1156.5999999999999</ele>
        <time>2013-09-06T10:03:12Z</time>
      </trkpt>
      <trkpt lat="50.403261026367545" lon="12.951234988868237">
        <ele>1157.0799999999999</ele>
        <time>2013-09-06T10:03:13Z</time>
      </trkpt>
      <trkpt lat="50.403176033869386" lon="12.951056035235524">
        <ele>1158.05</ele>
        <time>2013-09-06T10:03:14Z</time>
      </trkpt>
      <trkpt lat="50.403064973652363" lon="12.950933994725347">
        <ele>1158.53</ele>
        <time>2013-09-06T10:03:15Z</time>
      </trkpt>
      <trkpt lat="50.402941005304456" lon="12.950871968641877">
        <ele>1159.01</ele>
        <time>2013-09-06T10:03:16Z</time>
      </trkpt>
      <trkpt lat="50.402805972844362" lon="12.950868029147387">
        <ele>1159.49</ele>
        <time>2013-09-06T10:03:17Z</time>
      </trkpt>
      <trkpt lat="50.402669012546539" lon="12.95089895837009">
        <ele>1159.97</ele>
        <time>2013-09-06T10:03:18Z</time>
      </trkpt>
      <trkpt lat="50.402544038370252" lon="12.950938018038869">
        <ele>1160.9300000000001</ele>
        <time>2013-09-06T10:03:19Z</time>
      </trkpt>
      <trkpt lat="50.402188980951905" lon="12.95104899443686">
        <ele>1163.3299999999999</ele>
        <time>2013-09-06T10:03:22Z</time>
      </trkpt>
      <trkpt lat="50.402075992897153" lon="12.951037008315325">
        <ele>1163.8099999999999</ele>
        <time>2013-09-06T10:03:23Z</time>
      </trkpt>
      <trkpt lat="50.401959987357259" lon="12.950975988060236">
        <ele>1164.29</ele>
        <time>2013-09-06T10:03:24Z</time>
      </trkpt>
      <trkpt lat="50.401857979595661" lon="12.950864005833864">
        <ele>1164.29</ele>
        <time>2013-09-06T10:03:25Z</time>
      </trkpt>
      <trkpt lat="50.401778016239405" lon="12.950697960332036">
        <ele>1163.3299999999999</ele>
        <time>2013-09-06T10:03:26Z</time>
      </trkpt>
      <trkpt lat="50.401729987934232" lon="12.950481958687305">
        <ele>1162.3699999999999</ele>
        <time>2013-09-06T10:03:27Z</time>
      </trkpt>
      <trkpt lat="50.401700986549258" lon="12.950246008113027">
        <ele>1161.8900000000001</ele>
        <time>2013-09-06T10:03:28Z</time>
      </trkpt>
      <trkpt lat="50.401679025962949" lon="12.950006034225225">
        <ele>1161.4100000000001</ele>
        <time>2013-09-06T10:03:29Z</time>
      </trkpt>
      <trkpt lat="50.401665028184652" lon="12.949742004275322">
        <ele>1160.45</ele>
        <time>2013-09-06T10:03:30Z</time>
      </trkpt>
      <trkpt lat="50.401694029569626" lon="12.948597958311439">
        <ele>1156.5999999999999</ele>
        <time>2013-09-06T10:03:34Z</time>
      </trkpt>
      <trkpt lat="50.402041040360928" lon="12.946454035118222">
        <ele>1147.95</ele>
        <time>2013-09-06T10:03:41Z</time>
      </trkpt>
      <trkpt lat="50.402127038687468" lon="12.946164021268487">
        <ele>1147.47</ele>
        <time>2013-09-06T10:03:42Z</time>
      </trkpt>
      <trkpt lat="50.403111996129155" lon="12.944018002599478">
        <ele>1138.3399999999999</ele>
        <time>2013-09-06T10:03:50Z</time>
      </trkpt>
      <trkpt lat="50.40512097068131" lon="12.939809029921889">
        <ele>1115.75</ele>
        <time>2013-09-06T10:04:05Z</time>
      </trkpt>
      <trkpt lat="50.4063889849931" lon="12.936831023544073">
        <ele>1099.8900000000001</ele>
        <time>2013-09-06T10:04:16Z</time>
      </trkpt>
      <trkpt lat="50.407197000458837" lon="12.93461300432682">
        <ele>1088.3499999999999</ele>
        <time>2013-09-06T10:04:24Z</time>
      </trkpt>
      <trkpt lat="50.407317029312253" lon="12.934394991025329">
        <ele>1086.4300000000001</ele>
        <time>2013-09-06T10:04:25Z</time>
      </trkpt>
      <trkpt lat="50.407454995438457" lon="12.934211008250713">
        <ele>1086.4300000000001</ele>
        <time>2013-09-06T10:04:26Z</time>
      </trkpt>
      <trkpt lat="50.407617017626762" lon="12.93407597579062">
        <ele>1084.5</ele>
        <time>2013-09-06T10:04:27Z</time>
      </trkpt>
      <trkpt lat="50.407774010673165" lon="12.934030964970589">
        <ele>1083.0599999999999</ele>
        <time>2013-09-06T10:04:28Z</time>
      </trkpt>
      <trkpt lat="50.407941984012723" lon="12.93401001021266">
        <ele>1081.1400000000001</ele>
        <time>2013-09-06T10:04:29Z</time>
      </trkpt>
      <trkpt lat="50.408105012029409" lon="12.934002969413996">
        <ele>1080.6600000000001</ele>
        <time>2013-09-06T10:04:30Z</time>
      </trkpt>
      <trkpt lat="50.408555036410689" lon="12.933972040191293">
        <ele>1076.8099999999999</ele>
        <time>2013-09-06T10:04:33Z</time>
      </trkpt>
      <trkpt lat="50.408689985051751" lon="12.933906996622682">
        <ele>1075.8499999999999</ele>
        <time>2013-09-06T10:04:34Z</time>
      </trkpt>
      <trkpt lat="50.40881403721869" lon="12.933814963325858">
        <ele>1074.8900000000001</ele>
        <time>2013-09-06T10:04:35Z</time>
      </trkpt>
      <trkpt lat="50.409042024984956" lon="12.933635003864765">
        <ele>1072.01</ele>
        <time>2013-09-06T10:04:37Z</time>
      </trkpt>
      <trkpt lat="50.40915803052485" lon="12.933618994429708">
        <ele>1071.05</ele>
        <time>2013-09-06T10:04:38Z</time>
      </trkpt>
      <trkpt lat="50.40924503467977" lon="12.933687977492809">
        <ele>1070.5699999999999</ele>
        <time>2013-09-06T10:04:39Z</time>
      </trkpt>
      <trkpt lat="50.409326003864408" lon="12.933807000517845">
        <ele>1071.05</ele>
        <time>2013-09-06T10:04:40Z</time>
      </trkpt>
      <trkpt lat="50.409406973049045" lon="12.933948989957571">
        <ele>1071.05</ele>
        <time>2013-09-06T10:04:41Z</time>
      </trkpt>
      <trkpt lat="50.409485008567572" lon="12.934109000489116">
        <ele>1072.01</ele>
        <time>2013-09-06T10:04:42Z</time>
      </trkpt>
      <trkpt lat="50.4103849735111" lon="12.935841958969831">
        <ele>1077.29</ele>
        <time>2013-09-06T10:04:52Z</time>
      </trkpt>
      <trkpt lat="50.411283010616899" lon="12.936915010213852">
        <ele>1080.1800000000001</ele>
        <time>2013-09-06T10:05:00Z</time>
      </trkpt>
      <trkpt lat="50.412021959200501" lon="12.937521021813154">
        <ele>1080.1800000000001</ele>
        <time>2013-09-06T10:05:06Z</time>
      </trkpt>
      <trkpt lat="50.41212203912437" lon="12.937652030959725">
        <ele>1079.7</ele>
        <time>2013-09-06T10:05:07Z</time>
      </trkpt>
      <trkpt lat="50.41277096606791" lon="12.938683005049825">
        <ele>1079.22</ele>
        <time>2013-09-06T10:05:15Z</time>
      </trkpt>
      <trkpt lat="50.41283399797976" lon="12.938736984506249">
        <ele>1079.7</ele>
        <time>2013-09-06T10:05:16Z</time>
      </trkpt>
      <trkpt lat="50.412892000749707" lon="12.938759028911591">
        <ele>1079.7</ele>
        <time>2013-09-06T10:05:17Z</time>
      </trkpt>
      <trkpt lat="50.412941034883261" lon="12.938751988112926">
        <ele>1080.1800000000001</ele>
        <time>2013-09-06T10:05:18Z</time>
      </trkpt>
      <trkpt lat="50.412972969934344" lon="12.938729021698236">
        <ele>1079.7</ele>
        <time>2013-09-06T10:05:19Z</time>
      </trkpt>
      <trkpt lat="50.412997025996447" lon="12.938707983121276">
        <ele>1080.6600000000001</ele>
        <time>2013-09-06T10:05:20Z</time>
      </trkpt>
      <trkpt lat="50.413007000461221" lon="12.938687028363347">
        <ele>1080.6600000000001</ele>
        <time>2013-09-06T10:05:21Z</time>
      </trkpt>
      <trkpt lat="50.41302602738142" lon="12.938644029200077">
        <ele>1079.7</ele>
        <time>2013-09-06T10:05:27Z</time>
      </trkpt>
      <trkpt lat="50.413016974925995" lon="12.938551995903254">
        <ele>1079.7</ele>
        <time>2013-09-06T10:05:28Z</time>
      </trkpt>
      <trkpt lat="50.412980010733008" lon="12.938444036990404">
        <ele>1079.22</ele>
        <time>2013-09-06T10:05:29Z</time>
      </trkpt>
      <trkpt lat="50.412923013791442" lon="12.93833096511662">
        <ele>1079.22</ele>
        <time>2013-09-06T10:05:30Z</time>
      </trkpt>
      <trkpt lat="50.412845984101295" lon="12.938204985111952">
        <ele>1078.74</ele>
        <time>2013-09-06T10:05:31Z</time>
      </trkpt>
      <trkpt lat="50.412761997431517" lon="12.938082022592425">
        <ele>1078.26</ele>
        <time>2013-09-06T10:05:32Z</time>
      </trkpt>
      <trkpt lat="50.412281965836883" lon="12.937321029603481">
        <ele>1078.74</ele>
        <time>2013-09-06T10:05:37Z</time>
      </trkpt>
      <trkpt lat="50.412218011915684" lon="12.937124976888299">
        <ele>1079.22</ele>
        <time>2013-09-06T10:05:38Z</time>
      </trkpt>
      <trkpt lat="50.412194961681962" lon="12.936921967193484">
        <ele>1079.22</ele>
        <time>2013-09-06T10:05:39Z</time>
      </trkpt>
      <trkpt lat="50.41221097111702" lon="12.936736978590488">
        <ele>1080.1800000000001</ele>
        <time>2013-09-06T10:05:40Z</time>
      </trkpt>
      <trkpt lat="50.412256987765431" lon="12.936569005250931">
        <ele>1081.1400000000001</ele>
        <time>2013-09-06T10:05:41Z</time>
      </trkpt>
      <trkpt lat="50.412320019677281" lon="12.936414023861289">
        <ele>1082.0999999999999</ele>
        <time>2013-09-06T10:05:42Z</time>
      </trkpt>
      <trkpt lat="50.412387996912003" lon="12.93626700527966">
        <ele>1082.5799999999999</ele>
        <time>2013-09-06T10:05:43Z</time>
      </trkpt>
      <trkpt lat="50.412652026861906" lon="12.935798959806561">
        <ele>1084.5</ele>
        <time>2013-09-06T10:05:47Z</time>
      </trkpt>
      <trkpt lat="50.41272503323853" lon="12.935718996450305">
        <ele>1084.99</ele>
        <time>2013-09-06T10:05:48Z</time>
      </trkpt>
      <trkpt lat="50.412815976887941" lon="12.93564397841692">
        <ele>1085.47</ele>
        <time>2013-09-06T10:05:49Z</time>
      </trkpt>
      <trkpt lat="50.412910021841526" lon="12.935589998960495">
        <ele>1086.4300000000001</ele>
        <time>2013-09-06T10:05:50Z</time>
      </trkpt>
      <trkpt lat="50.41300599463284" lon="12.935550017282367">
        <ele>1087.3900000000001</ele>
        <time>2013-09-06T10:05:51Z</time>
      </trkpt>
      <trkpt lat="50.413105990737677" lon="12.935528978705406">
        <ele>1088.8299999999999</ele>
        <time>2013-09-06T10:05:52Z</time>
      </trkpt>
      <trkpt lat="50.413213027641177" lon="12.935520010069013">
        <ele>1089.3099999999999</ele>
        <time>2013-09-06T10:05:53Z</time>
      </trkpt>
      <trkpt lat="50.413341019302607" lon="12.935519004240632">
        <ele>1091.23</ele>
        <time>2013-09-06T10:05:54Z</time>
      </trkpt>
      <trkpt lat="50.41347898542881" lon="12.935544988140464">
        <ele>1092.2</ele>
        <time>2013-09-06T10:05:55Z</time>
      </trkpt>
      <trkpt lat="50.413632038980722" lon="12.935594022274017">
        <ele>1093.6400000000001</ele>
        <time>2013-09-06T10:05:56Z</time>
      </trkpt>
      <trkpt lat="50.413802023977041" lon="12.935666022822261">
        <ele>1095.0799999999999</ele>
        <time>2013-09-06T10:05:57Z</time>
      </trkpt>
      <trkpt lat="50.41551997885108" lon="12.936407988891006">
        <ele>1102.77</ele>
        <time>2013-09-06T10:06:06Z</time>
      </trkpt>
      <trkpt lat="50.416869968175888" lon="12.936749970540404">
        <ele>1113.3399999999999</ele>
        <time>2013-09-06T10:06:14Z</time>
      </trkpt>
      <trkpt lat="50.418078973889351" lon="12.937109973281622">
        <ele>1113.3399999999999</ele>
        <time>2013-09-06T10:06:23Z</time>
      </trkpt>
      <trkpt lat="50.41820403188467" lon="12.937205024063587">
        <ele>1113.3399999999999</ele>
        <time>2013-09-06T10:06:24Z</time>
      </trkpt>
      <trkpt lat="50.418300004675984" lon="12.937358999624848">
        <ele>1113.3399999999999</ele>
        <time>2013-09-06T10:06:25Z</time>
      </trkpt>
      <trkpt lat="50.418380973860621" lon="12.937547005712986">
        <ele>1114.3099999999999</ele>
        <time>2013-09-06T10:06:26Z</time>
      </trkpt>
      <trkpt lat="50.418454986065626" lon="12.93777197599411">
        <ele>1114.79</ele>
        <time>2013-09-06T10:06:27Z</time>
      </trkpt>
      <trkpt lat="50.418541990220547" lon="12.938024019822478">
        <ele>1115.27</ele>
        <time>2013-09-06T10:06:28Z</time>
      </trkpt>
      <trkpt lat="50.419186977669597" lon="12.940228041261435">
        <ele>1127.28</ele>
        <time>2013-09-06T10:06:35Z</time>
      </trkpt>
      <trkpt lat="50.420679040253162" lon="12.943831002339721">
        <ele>1152.28</ele>
        <time>2013-09-06T10:06:47Z</time>
      </trkpt>
      <trkpt lat="50.421990975737572" lon="12.946282038465142">
        <ele>1163.8099999999999</ele>
        <time>2013-09-06T10:06:56Z</time>
      </trkpt>
      <trkpt lat="50.423960974439979" lon="12.949340008199215">
        <ele>1184.96</ele>
        <time>2013-09-06T10:07:08Z</time>
      </trkpt>
      <trkpt lat="50.42475700378418" lon="12.951250998303294">
        <ele>1184.48</ele>
        <time>2013-09-06T10:07:15Z</time>
      </trkpt>
      <trkpt lat="50.424905028194189" lon="12.951439004391432">
        <ele>1184.96</ele>
        <time>2013-09-06T10:07:16Z</time>
      </trkpt>
      <trkpt lat="50.425064032897353" lon="12.951589040458202">
        <ele>1184.48</ele>
        <time>2013-09-06T10:07:17Z</time>
      </trkpt>
      <trkpt lat="50.425244998186827" lon="12.951719965785742">
        <ele>1184.48</ele>
        <time>2013-09-06T10:07:18Z</time>
      </trkpt>
      <trkpt lat="50.425429986789823" lon="12.951851980760694">
        <ele>1184.48</ele>
        <time>2013-09-06T10:07:19Z</time>
      </trkpt>
      <trkpt lat="50.427293032407761" lon="12.953233988955617">
        <ele>1199.3800000000001</ele>
        <time>2013-09-06T10:07:29Z</time>
      </trkpt>
      <trkpt lat="50.428039021790028" lon="12.953810999169946">
        <ele>1209.96</ele>
        <time>2013-09-06T10:07:35Z</time>
      </trkpt>
      <trkpt lat="50.428461972624063" lon="12.954083997756243">
        <ele>1213.8</ele>
        <time>2013-09-06T10:07:40Z</time>
      </trkpt>
      <trkpt lat="50.428543025627732" lon="12.954061031341553">
        <ele>1214.28</ele>
        <time>2013-09-06T10:07:41Z</time>
      </trkpt>
      <trkpt lat="50.42860496789217" lon="12.954027000814676">
        <ele>1214.28</ele>
        <time>2013-09-06T10:07:42Z</time>
      </trkpt>
      <trkpt lat="50.428652996197343" lon="12.953982995823026">
        <ele>1213.3199999999999</ele>
        <time>2013-09-06T10:07:43Z</time>
      </trkpt>
      <trkpt lat="50.428700018674135" lon="12.953936979174614">
        <ele>1213.3199999999999</ele>
        <time>2013-09-06T10:07:44Z</time>
      </trkpt>
      <trkpt lat="50.428750980645418" lon="12.953881993889809">
        <ele>1212.8399999999999</ele>
        <time>2013-09-06T10:07:45Z</time>
      </trkpt>
      <trkpt lat="50.428804960101843" lon="12.953832037746906">
        <ele>1212.8399999999999</ele>
        <time>2013-09-06T10:07:46Z</time>
      </trkpt>
      <trkpt lat="50.428902022540569" lon="12.953746961429715">
        <ele>1213.3199999999999</ele>
        <time>2013-09-06T10:07:48Z</time>
      </trkpt>
      <trkpt lat="50.428953990340233" lon="12.953701028600335">
        <ele>1212.8399999999999</ele>
        <time>2013-09-06T10:07:49Z</time>
      </trkpt>
      <trkpt lat="50.429015010595322" lon="12.953683007508516">
        <ele>1211.4000000000001</ele>
        <time>2013-09-06T10:07:50Z</time>
      </trkpt>
      <trkpt lat="50.429080976173282" lon="12.953686024993658">
        <ele>1210.4400000000001</ele>
        <time>2013-09-06T10:07:51Z</time>
      </trkpt>
      <trkpt lat="50.429146019741893" lon="12.953707985579967">
        <ele>1210.4400000000001</ele>
        <time>2013-09-06T10:07:52Z</time>
      </trkpt>
      <trkpt lat="50.429208967834711" lon="12.95373598113656">
        <ele>1209.96</ele>
        <time>2013-09-06T10:07:53Z</time>
      </trkpt>
      <trkpt lat="50.429568970575929" lon="12.953995987772942">
        <ele>1208.03</ele>
        <time>2013-09-06T10:08:03Z</time>
      </trkpt>
      <trkpt lat="50.429562013596296" lon="12.953990958631039">
        <ele>1207.0699999999999</ele>
        <time>2013-09-06T10:09:42Z</time>
      </trkpt>
      <trkpt lat="50.429557990282774" lon="12.953996993601322">
        <ele>1207.0699999999999</ele>
        <time>2013-09-06T10:10:24Z</time>
      </trkpt>
      <trkpt lat="50.429361015558243" lon="12.95377797447145">
        <ele>1206.5899999999999</ele>
        <time>2013-09-06T10:10:29Z</time>
      </trkpt>
      <trkpt lat="50.429281974211335" lon="12.953727012500167">
        <ele>1207.0699999999999</ele>
        <time>2013-09-06T10:10:30Z</time>
      </trkpt>
      <trkpt lat="50.429195975884795" lon="12.953684013336897">
        <ele>1207.55</ele>
        <time>2013-09-06T10:10:31Z</time>
      </trkpt>
      <trkpt lat="50.429036971181631" lon="12.953622993081808">
        <ele>1208.51</ele>
        <time>2013-09-06T10:10:33Z</time>
      </trkpt>
      <trkpt lat="50.428963964805007" lon="12.953619975596666">
        <ele>1209</ele>
        <time>2013-09-06T10:10:34Z</time>
      </trkpt>
      <trkpt lat="50.428895987570286" lon="12.953647971153259">
        <ele>1209</ele>
        <time>2013-09-06T10:10:35Z</time>
      </trkpt>
      <trkpt lat="50.428824992850423" lon="12.953700022771955">
        <ele>1209.48</ele>
        <time>2013-09-06T10:10:36Z</time>
      </trkpt>
      <trkpt lat="50.428756009787321" lon="12.953763976693153">
        <ele>1210.4400000000001</ele>
        <time>2013-09-06T10:10:37Z</time>
      </trkpt>
      <trkpt lat="50.428543025627732" lon="12.953922981396317">
        <ele>1211.8800000000001</ele>
        <time>2013-09-06T10:10:40Z</time>
      </trkpt>
      <trkpt lat="50.428422996774316" lon="12.954011997207999">
        <ele>1212.8399999999999</ele>
        <time>2013-09-06T10:10:42Z</time>
      </trkpt>
      <trkpt lat="50.428411010652781" lon="12.954137977212667">
        <ele>1211.8800000000001</ele>
        <time>2013-09-06T10:10:44Z</time>
      </trkpt>
      <trkpt lat="50.428499020636082" lon="12.954275021329522">
        <ele>1211.4000000000001</ele>
        <time>2013-09-06T10:10:46Z</time>
      </trkpt>
      <trkpt lat="50.428553000092506" lon="12.954327994957566">
        <ele>1211.4000000000001</ele>
        <time>2013-09-06T10:10:47Z</time>
      </trkpt>
      <trkpt lat="50.428606979548931" lon="12.954379040747881">
        <ele>1210.9200000000001</ele>
        <time>2013-09-06T10:10:48Z</time>
      </trkpt>
      <trkpt lat="50.428666993975639" lon="12.954414999112487">
        <ele>1210.9200000000001</ele>
        <time>2013-09-06T10:10:49Z</time>
      </trkpt>
      <trkpt lat="50.428712004795671" lon="12.954436037689447">
        <ele>1211.4000000000001</ele>
        <time>2013-09-06T10:10:50Z</time>
      </trkpt>
      <trkpt lat="50.428747963160276" lon="12.954440983012319">
        <ele>1211.8800000000001</ele>
        <time>2013-09-06T10:10:51Z</time>
      </trkpt>
      <trkpt lat="50.42877696454525" lon="12.954431008547544">
        <ele>1211.8800000000001</ele>
        <time>2013-09-06T10:10:52Z</time>
      </trkpt>
      <trkpt lat="50.428798003122211" lon="12.954419022426009">
        <ele>1211.8800000000001</ele>
        <time>2013-09-06T10:10:53Z</time>
      </trkpt>
      <trkpt lat="50.428042039275169" lon="12.95373204164207">
        <ele>1213.3199999999999</ele>
        <time>2013-09-06T10:32:23Z</time>
      </trkpt>
      <trkpt lat="50.427124975249171" lon="12.953073978424072">
        <ele>1205.1500000000001</ele>
        <time>2013-09-06T10:32:30Z</time>
      </trkpt>
      <trkpt lat="50.425269976258278" lon="12.951642014086246">
        <ele>1188.3299999999999</ele>
        <time>2013-09-06T10:32:42Z</time>
      </trkpt>
      <trkpt lat="50.424840990453959" lon="12.951281005516648">
        <ele>1187.8499999999999</ele>
        <time>2013-09-06T10:32:45Z</time>
      </trkpt>
      <trkpt lat="50.424719033762813" lon="12.951138010248542">
        <ele>1187.3699999999999</ele>
        <time>2013-09-06T10:32:46Z</time>
      </trkpt>
      <trkpt lat="50.424614008516073" lon="12.950955033302307">
        <ele>1187.8499999999999</ele>
        <time>2013-09-06T10:32:47Z</time>
      </trkpt>
      <trkpt lat="50.424523986876011" lon="12.950740959495306">
        <ele>1187.8499999999999</ele>
        <time>2013-09-06T10:32:48Z</time>
      </trkpt>
      <trkpt lat="50.424441006034613" lon="12.950515989214182">
        <ele>1188.3299999999999</ele>
        <time>2013-09-06T10:32:49Z</time>
      </trkpt>
      <trkpt lat="50.423439033329487" lon="12.948291013017297">
        <ele>1185.9200000000001</ele>
        <time>2013-09-06T10:32:59Z</time>
      </trkpt>
      <trkpt lat="50.422162972390652" lon="12.946385974064469">
        <ele>1171.98</ele>
        <time>2013-09-06T10:33:08Z</time>
      </trkpt>
      <trkpt lat="50.421198969706893" lon="12.944874968379736">
        <ele>1161.8900000000001</ele>
        <time>2013-09-06T10:33:15Z</time>
      </trkpt>
      <trkpt lat="50.420026006177068" lon="12.942216983065009">
        <ele>1146.03</ele>
        <time>2013-09-06T10:33:26Z</time>
      </trkpt>
      <trkpt lat="50.419037025421858" lon="12.939756978303194">
        <ele>1127.76</ele>
        <time>2013-09-06T10:33:37Z</time>
      </trkpt>
      <trkpt lat="50.418339986354113" lon="12.937336033210158">
        <ele>1114.3099999999999</ele>
        <time>2013-09-06T10:33:49Z</time>
      </trkpt>
      <trkpt lat="50.418271003291011" lon="12.937176022678614">
        <ele>1113.8199999999999</ele>
        <time>2013-09-06T10:33:50Z</time>
      </trkpt>
      <trkpt lat="50.418189028277993" lon="12.937046019360423">
        <ele>1113.3399999999999</ele>
        <time>2013-09-06T10:33:51Z</time>
      </trkpt>
      <trkpt lat="50.41807402856648" lon="12.936965972185135">
        <ele>1113.8199999999999</ele>
        <time>2013-09-06T10:33:52Z</time>
      </trkpt>
      <trkpt lat="50.417952993884683" lon="12.936916016042233">
        <ele>1114.79</ele>
        <time>2013-09-06T10:33:53Z</time>
      </trkpt>
      <trkpt lat="50.41783900000155" lon="12.936883997172117">
        <ele>1115.27</ele>
        <time>2013-09-06T10:33:54Z</time>
      </trkpt>
      <trkpt lat="50.417719976976514" lon="12.936856001615524">
        <ele>1115.75</ele>
        <time>2013-09-06T10:33:55Z</time>
      </trkpt>
      <trkpt lat="50.416230009868741" lon="12.936541009694338">
        <ele>1116.71</ele>
        <time>2013-09-06T10:34:05Z</time>
      </trkpt>
      <trkpt lat="50.415022009983659" lon="12.936155023053288">
        <ele>1107.0999999999999</ele>
        <time>2013-09-06T10:34:11Z</time>
      </trkpt>
      <trkpt lat="50.413569007068872" lon="12.935506012290716">
        <ele>1097.48</ele>
        <time>2013-09-06T10:34:20Z</time>
      </trkpt>
      <trkpt lat="50.413361974060535" lon="12.935367962345481">
        <ele>1095.5599999999999</ele>
        <time>2013-09-06T10:34:22Z</time>
      </trkpt>
      <trkpt lat="50.413289973512292" lon="12.935272995382547">
        <ele>1094.5999999999999</ele>
        <time>2013-09-06T10:34:23Z</time>
      </trkpt>
      <trkpt lat="50.413232976570725" lon="12.93517098762095">
        <ele>1094.5999999999999</ele>
        <time>2013-09-06T10:34:24Z</time>
      </trkpt>
      <trkpt lat="50.413130968809128" lon="12.934884997084737">
        <ele>1092.2</ele>
        <time>2013-09-06T10:34:30Z</time>
      </trkpt>
      <trkpt lat="50.413086041808128" lon="12.934884997084737">
        <ele>1091.23</ele>
        <time>2013-09-06T10:34:31Z</time>
      </trkpt>
      <trkpt lat="50.413043964654207" lon="12.934925984591246">
        <ele>1091.23</ele>
        <time>2013-09-06T10:34:32Z</time>
      </trkpt>
      <trkpt lat="50.412981016561389" lon="12.935008965432644">
        <ele>1090.75</ele>
        <time>2013-09-06T10:34:33Z</time>
      </trkpt>
      <trkpt lat="50.412496039643884" lon="12.935982020571828">
        <ele>1084.02</ele>
        <time>2013-09-06T10:34:39Z</time>
      </trkpt>
      <trkpt lat="50.412204014137387" lon="12.936737984418869">
        <ele>1079.22</ele>
        <time>2013-09-06T10:34:43Z</time>
      </trkpt>
      <trkpt lat="50.412186998873949" lon="12.936920961365104">
        <ele>1077.78</ele>
        <time>2013-09-06T10:34:44Z</time>
      </trkpt>
      <trkpt lat="50.412209965288639" lon="12.937111984938383">
        <ele>1077.29</ele>
        <time>2013-09-06T10:34:45Z</time>
      </trkpt>
      <trkpt lat="50.412257993593812" lon="12.937288004904985">
        <ele>1076.3299999999999</ele>
        <time>2013-09-06T10:34:46Z</time>
      </trkpt>
      <trkpt lat="50.412324965000153" lon="12.937451032921672">
        <ele>1075.8499999999999</ele>
        <time>2013-09-06T10:34:47Z</time>
      </trkpt>
      <trkpt lat="50.41240300051868" lon="12.937595034018159">
        <ele>1075.8499999999999</ele>
        <time>2013-09-06T10:34:48Z</time>
      </trkpt>
      <trkpt lat="50.41248899884522" lon="12.937729982659221">
        <ele>1075.8499999999999</ele>
        <time>2013-09-06T10:34:49Z</time>
      </trkpt>
      <trkpt lat="50.412567034363747" lon="12.937843976542354">
        <ele>1075.8499999999999</ele>
        <time>2013-09-06T10:34:50Z</time>
      </trkpt>
      <trkpt lat="50.412686979398131" lon="12.938047992065549">
        <ele>1077.29</ele>
        <time>2013-09-06T10:34:52Z</time>
      </trkpt>
      <trkpt lat="50.412715980783105" lon="12.938127033412457">
        <ele>1076.3299999999999</ele>
        <time>2013-09-06T10:34:53Z</time>
      </trkpt>
      <trkpt lat="50.412702988833189" lon="12.938197022303939">
        <ele>1075.3699999999999</ele>
        <time>2013-09-06T10:34:54Z</time>
      </trkpt>
      <trkpt lat="50.412655966356397" lon="12.938224012032151">
        <ele>1076.8099999999999</ele>
        <time>2013-09-06T10:34:55Z</time>
      </trkpt>
      <trkpt lat="50.412600981071591" lon="12.938185036182404">
        <ele>1076.3299999999999</ele>
        <time>2013-09-06T10:34:56Z</time>
      </trkpt>
      <trkpt lat="50.412544989958405" lon="12.938097026199102">
        <ele>1076.3299999999999</ele>
        <time>2013-09-06T10:34:57Z</time>
      </trkpt>
      <trkpt lat="50.412478018552065" lon="12.937993006780744">
        <ele>1076.3299999999999</ele>
        <time>2013-09-06T10:34:58Z</time>
      </trkpt>
      <trkpt lat="50.412035034969449" lon="12.937348019331694">
        <ele>1076.8099999999999</ele>
        <time>2013-09-06T10:35:03Z</time>
      </trkpt>
      <trkpt lat="50.410948991775513" lon="12.936299024149776">
        <ele>1077.78</ele>
        <time>2013-09-06T10:35:12Z</time>
      </trkpt>
      <trkpt lat="50.409936960786581" lon="12.934517031535506">
        <ele>1074.4100000000001</ele>
        <time>2013-09-06T10:35:22Z</time>
      </trkpt>
      <trkpt lat="50.4093730263412" lon="12.933462001383305">
        <ele>1066.72</ele>
        <time>2013-09-06T10:35:29Z</time>
      </trkpt>
      <trkpt lat="50.409349976107478" lon="12.933327974751592">
        <ele>1065.28</ele>
        <time>2013-09-06T10:35:30Z</time>
      </trkpt>
      <trkpt lat="50.409353999421" lon="12.933204006403685">
        <ele>1064.8</ele>
        <time>2013-09-06T10:35:31Z</time>
      </trkpt>
      <trkpt lat="50.409398004412651" lon="12.933069979771972">
        <ele>1064.3199999999999</ele>
        <time>2013-09-06T10:35:32Z</time>
      </trkpt>
      <trkpt lat="50.409473022446036" lon="12.932924972847104">
        <ele>1063.8399999999999</ele>
        <time>2013-09-06T10:35:33Z</time>
      </trkpt>
      <trkpt lat="50.409552985802293" lon="12.93276303447783">
        <ele>1062.8699999999999</ele>
        <time>2013-09-06T10:35:34Z</time>
      </trkpt>
      <trkpt lat="50.409624986350536" lon="12.932576034218073">
        <ele>1061.4300000000001</ele>
        <time>2013-09-06T10:35:35Z</time>
      </trkpt>
      <trkpt lat="50.409676032140851" lon="12.932363972067833">
        <ele>1060.47</ele>
        <time>2013-09-06T10:35:36Z</time>
      </trkpt>
      <trkpt lat="50.409709978848696" lon="12.932127015665174">
        <ele>1058.55</ele>
        <time>2013-09-06T10:35:37Z</time>
      </trkpt>
      <trkpt lat="50.40972095914185" lon="12.93188301846385">
        <ele>1056.6300000000001</ele>
        <time>2013-09-06T10:35:38Z</time>
      </trkpt>
      <trkpt lat="50.409711990505457" lon="12.931633992120624">
        <ele>1055.6700000000001</ele>
        <time>2013-09-06T10:35:39Z</time>
      </trkpt>
      <trkpt lat="50.40969799272716" lon="12.931392006576061">
        <ele>1053.74</ele>
        <time>2013-09-06T10:35:40Z</time>
      </trkpt>
      <trkpt lat="50.409447960555553" lon="12.928673001006246">
        <ele>1041.25</ele>
        <time>2013-09-06T10:35:52Z</time>
      </trkpt>
      <trkpt lat="50.409199018031359" lon="12.926029013469815">
        <ele>1028.27</ele>
        <time>2013-09-06T10:36:05Z</time>
      </trkpt>
      <trkpt lat="50.409041019156575" lon="12.924002017825842">
        <ele>1021.0599999999999</ele>
        <time>2013-09-06T10:36:15Z</time>
      </trkpt>
      <trkpt lat="50.409001959487796" lon="12.923273965716362">
        <ele>1018.65</ele>
        <time>2013-09-06T10:36:19Z</time>
      </trkpt>
      <trkpt lat="50.408972958102822" lon="12.923110015690327">
        <ele>1019.13</ele>
        <time>2013-09-06T10:36:20Z</time>
      </trkpt>
      <trkpt lat="50.408939011394978" lon="12.922942964360118">
        <ele>1019.13</ele>
        <time>2013-09-06T10:36:21Z</time>
      </trkpt>
      <trkpt lat="50.408877991139889" lon="12.922784965485334">
        <ele>1018.17</ele>
        <time>2013-09-06T10:36:22Z</time>
      </trkpt>
      <trkpt lat="50.408815965056419" lon="12.922631995752454">
        <ele>1018.65</ele>
        <time>2013-09-06T10:36:23Z</time>
      </trkpt>
      <trkpt lat="50.408746981993318" lon="12.922502998262644">
        <ele>1019.13</ele>
        <time>2013-09-06T10:36:24Z</time>
      </trkpt>
      <trkpt lat="50.408689985051751" lon="12.922381963580847">
        <ele>1019.13</ele>
        <time>2013-09-06T10:36:25Z</time>
      </trkpt>
      <trkpt lat="50.408658972010016" lon="12.922254977747798">
        <ele>1019.13</ele>
        <time>2013-09-06T10:36:26Z</time>
      </trkpt>
      <trkpt lat="50.408662995323539" lon="12.922116005793214">
        <ele>1019.13</ele>
        <time>2013-09-06T10:36:27Z</time>
      </trkpt>
      <trkpt lat="50.408696020022035" lon="12.92195700109005">
        <ele>1018.65</ele>
        <time>2013-09-06T10:36:28Z</time>
      </trkpt>
      <trkpt lat="50.408972036093473" lon="12.9206039942801">
        <ele>1010.48</ele>
        <time>2013-09-06T10:36:34Z</time>
      </trkpt>
      <trkpt lat="50.409293984994292" lon="12.918565012514591">
        <ele>999.42999999999995</ele>
        <time>2013-09-06T10:36:41Z</time>
      </trkpt>
      <trkpt lat="50.409307982772589" lon="12.918253038078547">
        <ele>998.95000000000005</ele>
        <time>2013-09-06T10:36:42Z</time>
      </trkpt>
      <trkpt lat="50.409297002479434" lon="12.917945003136992">
        <ele>997.99000000000001</ele>
        <time>2013-09-06T10:36:43Z</time>
      </trkpt>
      <trkpt lat="50.409175967797637" lon="12.915407968685031">
        <ele>993.17999999999995</ele>
        <time>2013-09-06T10:36:51Z</time>
      </trkpt>
      <trkpt lat="50.409298008307815" lon="12.912903036922216">
        <ele>989.80999999999995</ele>
        <time>2013-09-06T10:36:59Z</time>
      </trkpt>
      <trkpt lat="50.409359028562903" lon="12.912595001980662">
        <ele>989.33000000000004</ele>
        <time>2013-09-06T10:37:00Z</time>
      </trkpt>
      <trkpt lat="50.410479018464684" lon="12.908402038738132">
        <ele>982.60000000000002</ele>
        <time>2013-09-06T10:37:14Z</time>
      </trkpt>
      <trkpt lat="50.411494988948107" lon="12.904591960832477">
        <ele>979.72000000000003</ele>
        <time>2013-09-06T10:37:27Z</time>
      </trkpt>
      <trkpt lat="50.41210301220417" lon="12.902875011786819">
        <ele>979.24000000000001</ele>
        <time>2013-09-06T10:37:34Z</time>
      </trkpt>
      <trkpt lat="50.412477012723684" lon="12.902093986049294">
        <ele>976.84000000000003</ele>
        <time>2013-09-06T10:37:38Z</time>
      </trkpt>
      <trkpt lat="50.412614978849888" lon="12.901926012709737">
        <ele>976.84000000000003</ele>
        <time>2013-09-06T10:37:39Z</time>
      </trkpt>
      <trkpt lat="50.413966979831457" lon="12.900235969573259">
        <ele>976.36000000000001</ele>
        <time>2013-09-06T10:37:49Z</time>
      </trkpt>
      <trkpt lat="50.414054989814758" lon="12.900029020383954">
        <ele>975.88</ele>
        <time>2013-09-06T10:37:50Z</time>
      </trkpt>
      <trkpt lat="50.414131013676524" lon="12.899807989597321">
        <ele>976.36000000000001</ele>
        <time>2013-09-06T10:37:51Z</time>
      </trkpt>
      <trkpt lat="50.414189016446471" lon="12.899562986567616">
        <ele>975.38999999999999</ele>
        <time>2013-09-06T10:37:52Z</time>
      </trkpt>
      <trkpt lat="50.414241990074515" lon="12.89931396022439">
        <ele>974.42999999999995</ele>
        <time>2013-09-06T10:37:53Z</time>
      </trkpt>
      <trkpt lat="50.414739958941936" lon="12.897443035617471">
        <ele>972.99000000000001</ele>
        <time>2013-09-06T10:38:01Z</time>
      </trkpt>
      <trkpt lat="50.415150001645088" lon="12.896259007975459">
        <ele>969.14999999999998</ele>
        <time>2013-09-06T10:38:06Z</time>
      </trkpt>
      <trkpt lat="50.415594996884465" lon="12.8937460295856">
        <ele>967.22000000000003</ele>
        <time>2013-09-06T10:38:15Z</time>
      </trkpt>
      <trkpt lat="50.415641013532877" lon="12.892037965357304">
        <ele>961.46000000000004</ele>
        <time>2013-09-06T10:38:21Z</time>
      </trkpt>
      <trkpt lat="50.415611006319523" lon="12.891789022833109">
        <ele>960.49000000000001</ele>
        <time>2013-09-06T10:38:22Z</time>
      </trkpt>
      <trkpt lat="50.415588961914182" lon="12.89155600592494">
        <ele>960.00999999999999</ele>
        <time>2013-09-06T10:38:23Z</time>
      </trkpt>
      <trkpt lat="50.415326021611691" lon="12.889351984485984">
        <ele>955.69000000000005</ele>
        <time>2013-09-06T10:38:32Z</time>
      </trkpt>
      <trkpt lat="50.415237005800009" lon="12.88880699314177">
        <ele>954.73000000000002</ele>
        <time>2013-09-06T10:38:34Z</time>
      </trkpt>
      <trkpt lat="50.414563016965985" lon="12.886567013338208">
        <ele>962.89999999999998</ele>
        <time>2013-09-06T10:38:42Z</time>
      </trkpt>
      <trkpt lat="50.414523035287857" lon="12.886272976174951">
        <ele>962.89999999999998</ele>
        <time>2013-09-06T10:38:43Z</time>
      </trkpt>
      <trkpt lat="50.4144879989326" lon="12.88343402557075">
        <ele>963.38</ele>
        <time>2013-09-06T10:38:52Z</time>
      </trkpt>
      <trkpt lat="50.414466960355639" lon="12.881227992475033">
        <ele>963.38</ele>
        <time>2013-09-06T10:39:00Z</time>
      </trkpt>
      <trkpt lat="50.414420021697879" lon="12.881020037457347">
        <ele>962.41999999999996</ele>
        <time>2013-09-06T10:39:01Z</time>
      </trkpt>
      <trkpt lat="50.414354978129268" lon="12.880822978913784">
        <ele>962.41999999999996</ele>
        <time>2013-09-06T10:39:02Z</time>
      </trkpt>
      <trkpt lat="50.414267973974347" lon="12.880624998360872">
        <ele>961.94000000000005</ele>
        <time>2013-09-06T10:39:03Z</time>
      </trkpt>
      <trkpt lat="50.41416403837502" lon="12.880421988666058">
        <ele>960.98000000000002</ele>
        <time>2013-09-06T10:39:04Z</time>
      </trkpt>
      <trkpt lat="50.413667997345328" lon="12.879246007651091">
        <ele>958.57000000000005</ele>
        <time>2013-09-06T10:39:09Z</time>
      </trkpt>
      <trkpt lat="50.41360798291862" lon="12.878973009064794">
        <ele>958.09000000000003</ele>
        <time>2013-09-06T10:39:10Z</time>
      </trkpt>
      <trkpt lat="50.413560960441828" lon="12.878685006871819">
        <ele>957.61000000000001</ele>
        <time>2013-09-06T10:39:11Z</time>
      </trkpt>
      <trkpt lat="50.413468005135655" lon="12.876231959089637">
        <ele>956.64999999999998</ele>
        <time>2013-09-06T10:39:19Z</time>
      </trkpt>
      <trkpt lat="50.413512010127306" lon="12.875934988260269">
        <ele>957.13</ele>
        <time>2013-09-06T10:39:20Z</time>
      </trkpt>
      <trkpt lat="50.413801018148661" lon="12.874825978651643">
        <ele>962.89999999999998</ele>
        <time>2013-09-06T10:39:24Z</time>
      </trkpt>
      <trkpt lat="50.413902020081878" lon="12.874575024470687">
        <ele>963.86000000000001</ele>
        <time>2013-09-06T10:39:25Z</time>
      </trkpt>
      <trkpt lat="50.414104023948312" lon="12.874100022017956">
        <ele>966.74000000000001</ele>
        <time>2013-09-06T10:39:27Z</time>
      </trkpt>
      <trkpt lat="50.414180969819427" lon="12.873841021209955">
        <ele>967.22000000000003</ele>
        <time>2013-09-06T10:39:28Z</time>
      </trkpt>
      <trkpt lat="50.414572991430759" lon="12.872229013592005">
        <ele>965.29999999999995</ele>
        <time>2013-09-06T10:39:35Z</time>
      </trkpt>
      <trkpt lat="50.414899969473481" lon="12.870892016217113">
        <ele>960.49000000000001</ele>
        <time>2013-09-06T10:39:44Z</time>
      </trkpt>
      <trkpt lat="50.414947997778654" lon="12.87073602899909">
        <ele>960.49000000000001</ele>
        <time>2013-09-06T10:39:45Z</time>
      </trkpt>
      <trkpt lat="50.415047993883491" lon="12.870444003492594">
        <ele>960.98000000000002</ele>
        <time>2013-09-06T10:39:47Z</time>
      </trkpt>
      <trkpt lat="50.415073977783322" lon="12.870302014052868">
        <ele>960.49000000000001</ele>
        <time>2013-09-06T10:39:48Z</time>
      </trkpt>
      <trkpt lat="50.415079006925225" lon="12.870148038491607">
        <ele>960.00999999999999</ele>
        <time>2013-09-06T10:39:49Z</time>
      </trkpt>
      <trkpt lat="50.415066014975309" lon="12.869994984939694">
        <ele>959.04999999999995</ele>
        <time>2013-09-06T10:39:50Z</time>
      </trkpt>
      <trkpt lat="50.415033996105194" lon="12.869826005771756">
        <ele>958.57000000000005</ele>
        <time>2013-09-06T10:39:51Z</time>
      </trkpt>
      <trkpt lat="50.414994014427066" lon="12.869634982198477">
        <ele>957.13</ele>
        <time>2013-09-06T10:39:52Z</time>
      </trkpt>
      <trkpt lat="50.414490010589361" lon="12.867670012637973">
        <ele>952.32000000000005</ele>
        <time>2013-09-06T10:40:01Z</time>
      </trkpt>
      <trkpt lat="50.41392900981009" lon="12.865209002047777">
        <ele>956.16999999999996</ele>
        <time>2013-09-06T10:40:10Z</time>
      </trkpt>
      <trkpt lat="50.413095010444522" lon="12.861968977376819">
        <ele>958.57000000000005</ele>
        <time>2013-09-06T10:40:21Z</time>
      </trkpt>
      <trkpt lat="50.411884998902678" lon="12.857099007815123">
        <ele>960.00999999999999</ele>
        <time>2013-09-06T10:40:37Z</time>
      </trkpt>
      <trkpt lat="50.411186031997204" lon="12.854198031127453">
        <ele>962.41999999999996</ele>
        <time>2013-09-06T10:40:47Z</time>
      </trkpt>
      <trkpt lat="50.410541966557503" lon="12.851638030260801">
        <ele>960.98000000000002</ele>
        <time>2013-09-06T10:40:56Z</time>
      </trkpt>
      <trkpt lat="50.409862026572227" lon="12.848797990009189">
        <ele>960.49000000000001</ele>
        <time>2013-09-06T10:41:06Z</time>
      </trkpt>
      <trkpt lat="50.409504035487771" lon="12.847580015659332">
        <ele>962.89999999999998</ele>
        <time>2013-09-06T10:41:11Z</time>
      </trkpt>
      <trkpt lat="50.409322986379266" lon="12.8471689671278">
        <ele>964.34000000000003</ele>
        <time>2013-09-06T10:41:13Z</time>
      </trkpt>
      <trkpt lat="50.409108996391296" lon="12.846440998837352">
        <ele>963.38</ele>
        <time>2013-09-06T10:41:16Z</time>
      </trkpt>
      <trkpt lat="50.409061973914504" lon="12.846191972494125">
        <ele>963.38</ele>
        <time>2013-09-06T10:41:17Z</time>
      </trkpt>
      <trkpt lat="50.409019980579615" lon="12.845945041626692">
        <ele>962.89999999999998</ele>
        <time>2013-09-06T10:41:18Z</time>
      </trkpt>
      <trkpt lat="50.408990979194641" lon="12.845690986141562">
        <ele>962.41999999999996</ele>
        <time>2013-09-06T10:41:19Z</time>
      </trkpt>
      <trkpt lat="50.408972036093473" lon="12.84542603418231">
        <ele>961.94000000000005</ele>
        <time>2013-09-06T10:41:20Z</time>
      </trkpt>
      <trkpt lat="50.408610021695495" lon="12.842524973675609">
        <ele>962.41999999999996</ele>
        <time>2013-09-06T10:41:30Z</time>
      </trkpt>
      <trkpt lat="50.408095959573984" lon="12.84065798856318">
        <ele>966.25999999999999</ele>
        <time>2013-09-06T10:41:37Z</time>
      </trkpt>
      <trkpt lat="50.40692400187254" lon="12.838221034035087">
        <ele>964.34000000000003</ele>
        <time>2013-09-06T10:41:48Z</time>
      </trkpt>
      <trkpt lat="50.406511025503278" lon="12.837509997189045">
        <ele>965.77999999999997</ele>
        <time>2013-09-06T10:41:52Z</time>
      </trkpt>
      <trkpt lat="50.406441036611795" lon="12.837321991100907">
        <ele>965.29999999999995</ele>
        <time>2013-09-06T10:41:53Z</time>
      </trkpt>
      <trkpt lat="50.405642995610833" lon="12.835876028984785">
        <ele>965.77999999999997</ele>
        <time>2013-09-06T10:42:01Z</time>
      </trkpt>
      <trkpt lat="50.405415007844567" lon="12.835484007373452">
        <ele>965.29999999999995</ele>
        <time>2013-09-06T10:42:03Z</time>
      </trkpt>
      <trkpt lat="50.404581008478999" lon="12.833340000361204">
        <ele>965.77999999999997</ele>
        <time>2013-09-06T10:42:12Z</time>
      </trkpt>
      <trkpt lat="50.404492998495698" lon="12.833084017038345">
        <ele>965.29999999999995</ele>
        <time>2013-09-06T10:42:13Z</time>
      </trkpt>
      <trkpt lat="50.404424015432596" lon="12.832817975431681">
        <ele>966.25999999999999</ele>
        <time>2013-09-06T10:42:14Z</time>
      </trkpt>
      <trkpt lat="50.404126038774848" lon="12.831704020500183">
        <ele>965.29999999999995</ele>
        <time>2013-09-06T10:42:18Z</time>
      </trkpt>
      <trkpt lat="50.404074992984533" lon="12.831399003043771">
        <ele>965.77999999999997</ele>
        <time>2013-09-06T10:42:19Z</time>
      </trkpt>
      <trkpt lat="50.403829989954829" lon="12.828138023614883">
        <ele>966.25999999999999</ele>
        <time>2013-09-06T10:42:29Z</time>
      </trkpt>
      <trkpt lat="50.403824960812926" lon="12.82275902107358">
        <ele>985.00999999999999</ele>
        <time>2013-09-06T10:42:45Z</time>
      </trkpt>
      <trkpt lat="50.4036829713732" lon="12.817548997700214">
        <ele>997.01999999999998</ele>
        <time>2013-09-06T10:43:01Z</time>
      </trkpt>
      <trkpt lat="50.403605019673705" lon="12.814664030447602">
        <ele>1005.2</ele>
        <time>2013-09-06T10:43:11Z</time>
      </trkpt>
      <trkpt lat="50.403362028300762" lon="12.811613017693162">
        <ele>1006.16</ele>
        <time>2013-09-06T10:43:22Z</time>
      </trkpt>
      <trkpt lat="50.403267983347178" lon="12.811391986906528">
        <ele>1006.64</ele>
        <time>2013-09-06T10:43:23Z</time>
      </trkpt>
      <trkpt lat="50.403101015836" lon="12.811208004131913">
        <ele>1007.6</ele>
        <time>2013-09-06T10:43:24Z</time>
      </trkpt>
      <trkpt lat="50.40295198559761" lon="12.811028966680169">
        <ele>1008.08</ele>
        <time>2013-09-06T10:43:25Z</time>
      </trkpt>
      <trkpt lat="50.402792980894446" lon="12.810908015817404">
        <ele>1009.04</ele>
        <time>2013-09-06T10:43:26Z</time>
      </trkpt>
      <trkpt lat="50.402630036696792" lon="12.810769965872169">
        <ele>1009.52</ele>
        <time>2013-09-06T10:43:27Z</time>
      </trkpt>
      <trkpt lat="50.401293961331248" lon="12.810039985924959">
        <ele>1006.64</ele>
        <time>2013-09-06T10:43:34Z</time>
      </trkpt>
      <trkpt lat="50.401153983548284" lon="12.809907970950007">
        <ele>1005.6799999999999</ele>
        <time>2013-09-06T10:43:35Z</time>
      </trkpt>
      <trkpt lat="50.401046024635434" lon="12.80971703119576">
        <ele>1004.72</ele>
        <time>2013-09-06T10:43:36Z</time>
      </trkpt>
      <trkpt lat="50.400965977460146" lon="12.80948300845921">
        <ele>1004.72</ele>
        <time>2013-09-06T10:43:37Z</time>
      </trkpt>
      <trkpt lat="50.400910992175341" lon="12.809229958802462">
        <ele>1004.23</ele>
        <time>2013-09-06T10:43:38Z</time>
      </trkpt>
      <trkpt lat="50.400875033810735" lon="12.80896701849997">
        <ele>1004.23</ele>
        <time>2013-09-06T10:43:39Z</time>
      </trkpt>
      <trkpt lat="50.400418974459171" lon="12.80585297383368">
        <ele>998.47000000000003</ele>
        <time>2013-09-06T10:43:51Z</time>
      </trkpt>
      <trkpt lat="50.400329036638141" lon="12.805649964138865">
        <ele>997.99000000000001</ele>
        <time>2013-09-06T10:43:52Z</time>
      </trkpt>
      <trkpt lat="50.400215964764357" lon="12.805457012727857">
        <ele>997.01999999999998</ele>
        <time>2013-09-06T10:43:53Z</time>
      </trkpt>
      <trkpt lat="50.398939987644553" lon="12.803589021787047">
        <ele>987.88999999999999</ele>
        <time>2013-09-06T10:44:03Z</time>
      </trkpt>
      <trkpt lat="50.398744018748403" lon="12.803149977698922">
        <ele>987.88999999999999</ele>
        <time>2013-09-06T10:44:05Z</time>
      </trkpt>
      <trkpt lat="50.39802803657949" lon="12.800949979573488">
        <ele>983.57000000000005</ele>
        <time>2013-09-06T10:44:14Z</time>
      </trkpt>
      <trkpt lat="50.397486984729767" lon="12.799046030268073">
        <ele>978.75999999999999</ele>
        <time>2013-09-06T10:44:22Z</time>
      </trkpt>
      <trkpt lat="50.396962026134133" lon="12.796972012147307">
        <ele>975.88</ele>
        <time>2013-09-06T10:44:30Z</time>
      </trkpt>
      <trkpt lat="50.396362971514463" lon="12.794087966904044">
        <ele>974.42999999999995</ele>
        <time>2013-09-06T10:44:40Z</time>
      </trkpt>
      <trkpt lat="50.396014032885432" lon="12.791439034044743">
        <ele>979.24000000000001</ele>
        <time>2013-09-06T10:44:49Z</time>
      </trkpt>
      <trkpt lat="50.395718989893794" lon="12.789112972095609">
        <ele>994.13999999999999</ele>
        <time>2013-09-06T10:44:58Z</time>
      </trkpt>
      <trkpt lat="50.395669033750892" lon="12.788932006806135">
        <ele>994.13999999999999</ele>
        <time>2013-09-06T10:44:59Z</time>
      </trkpt>
      <trkpt lat="50.395608013495803" lon="12.788755986839533">
        <ele>994.62</ele>
        <time>2013-09-06T10:45:00Z</time>
      </trkpt>
      <trkpt lat="50.395027985796332" lon="12.787379007786512">
        <ele>992.22000000000003</ele>
        <time>2013-09-06T10:45:07Z</time>
      </trkpt>
      <trkpt lat="50.394320972263813" lon="12.785886023193598">
        <ele>990.77999999999997</ele>
        <time>2013-09-06T10:45:14Z</time>
      </trkpt>
      <trkpt lat="50.394174037501216" lon="12.78572098352015">
        <ele>990.77999999999997</ele>
        <time>2013-09-06T10:45:15Z</time>
      </trkpt>
      <trkpt lat="50.39401201531291" lon="12.785571031272411">
        <ele>990.29999999999995</ele>
        <time>2013-09-06T10:45:16Z</time>
      </trkpt>
      <trkpt lat="50.393601972609758" lon="12.785084964707494">
        <ele>990.29999999999995</ele>
        <time>2013-09-06T10:45:19Z</time>
      </trkpt>
      <trkpt lat="50.393485967069864" lon="12.784892013296485">
        <ele>989.33000000000004</ele>
        <time>2013-09-06T10:45:20Z</time>
      </trkpt>
      <trkpt lat="50.393397035077214" lon="12.784670982509851">
        <ele>988.37</ele>
        <time>2013-09-06T10:45:21Z</time>
      </trkpt>
      <trkpt lat="50.393312964588404" lon="12.784438971430063">
        <ele>986.92999999999995</ele>
        <time>2013-09-06T10:45:22Z</time>
      </trkpt>
      <trkpt lat="50.393234007060528" lon="12.784197991713881">
        <ele>986.45000000000005</ele>
        <time>2013-09-06T10:45:23Z</time>
      </trkpt>
      <trkpt lat="50.392692033201456" lon="12.782789999619126">
        <ele>976.84000000000003</ele>
        <time>2013-09-06T10:45:29Z</time>
      </trkpt>
      <trkpt lat="50.392631012946367" lon="12.78251901268959">
        <ele>973.95000000000005</ele>
        <time>2013-09-06T10:45:30Z</time>
      </trkpt>
      <trkpt lat="50.391989964991808" lon="12.779697999358177">
        <ele>944.14999999999998</ele>
        <time>2013-09-06T10:45:40Z</time>
      </trkpt>
      <trkpt lat="50.391189996153116" lon="12.77611599303782">
        <ele>919.15999999999997</ele>
        <time>2013-09-06T10:45:53Z</time>
      </trkpt>
      <trkpt lat="50.390873998403549" lon="12.774629965424538">
        <ele>909.05999999999995</ele>
        <time>2013-09-06T10:46:00Z</time>
      </trkpt>
      <trkpt lat="50.390423974022269" lon="12.772451005876064">
        <ele>893.67999999999995</ele>
        <time>2013-09-06T10:46:12Z</time>
      </trkpt>
      <trkpt lat="50.390201015397906" lon="12.771358005702496">
        <ele>887.42999999999995</ele>
        <time>2013-09-06T10:46:21Z</time>
      </trkpt>
      <trkpt lat="50.390106970444322" lon="12.770917033776641">
        <ele>885.02999999999997</ele>
        <time>2013-09-06T10:46:28Z</time>
      </trkpt>
      <trkpt lat="50.390041004866362" lon="12.77061503380537">
        <ele>882.63</ele>
        <time>2013-09-06T10:46:31Z</time>
      </trkpt>
      <trkpt lat="50.389718972146511" lon="12.769239982590079">
        <ele>880.22000000000003</ele>
        <time>2013-09-06T10:46:41Z</time>
      </trkpt>
      <trkpt lat="50.389216979965568" lon="12.767243999987841">
        <ele>875.89999999999998</ele>
        <time>2013-09-06T10:46:53Z</time>
      </trkpt>
      <trkpt lat="50.389067027717829" lon="12.766752988100052">
        <ele>876.38</ele>
        <time>2013-09-06T10:46:56Z</time>
      </trkpt>
      <trkpt lat="50.388794029131532" lon="12.765455972403288">
        <ele>869.64999999999998</ele>
        <time>2013-09-06T10:47:04Z</time>
      </trkpt>
      <trkpt lat="50.388563023880124" lon="12.764953980222344">
        <ele>864.84000000000003</ele>
        <time>2013-09-06T10:47:08Z</time>
      </trkpt>
      <trkpt lat="50.388053990900517" lon="12.763972040265799">
        <ele>854.26999999999998</ele>
        <time>2013-09-06T10:47:15Z</time>
      </trkpt>
      <trkpt lat="50.388000011444092" lon="12.763780010864139">
        <ele>853.30999999999995</ele>
        <time>2013-09-06T10:47:16Z</time>
      </trkpt>
      <trkpt lat="50.387957012280822" lon="12.76356702670455">
        <ele>851.87</ele>
        <time>2013-09-06T10:47:17Z</time>
      </trkpt>
      <trkpt lat="50.387784009799361" lon="12.762865964323282">
        <ele>847.53999999999996</ele>
        <time>2013-09-06T10:47:20Z</time>
      </trkpt>
      <trkpt lat="50.387461977079511" lon="12.761981002986431">
        <ele>847.05999999999995</ele>
        <time>2013-09-06T10:47:24Z</time>
      </trkpt>
      <trkpt lat="50.387401962652802" lon="12.761739017441869">
        <ele>847.53999999999996</ele>
        <time>2013-09-06T10:47:25Z</time>
      </trkpt>
      <trkpt lat="50.387360975146294" lon="12.761470964178443">
        <ele>848.01999999999998</ele>
        <time>2013-09-06T10:47:26Z</time>
      </trkpt>
      <trkpt lat="50.387090994045138" lon="12.758758999407291">
        <ele>860.51999999999998</ele>
        <time>2013-09-06T10:47:36Z</time>
      </trkpt>
      <trkpt lat="50.387040032073855" lon="12.758496981114149">
        <ele>861.48000000000002</ele>
        <time>2013-09-06T10:47:37Z</time>
      </trkpt>
      <trkpt lat="50.386972976848483" lon="12.758237980306149">
        <ele>861.96000000000004</ele>
        <time>2013-09-06T10:47:38Z</time>
      </trkpt>
      <trkpt lat="50.386894019320607" lon="12.757984008640051">
        <ele>862.91999999999996</ele>
        <time>2013-09-06T10:47:39Z</time>
      </trkpt>
      <trkpt lat="50.386003023013473" lon="12.756208973005414">
        <ele>873.00999999999999</ele>
        <time>2013-09-06T10:47:47Z</time>
      </trkpt>
      <trkpt lat="50.385865978896618" lon="12.756101014092565">
        <ele>875.89999999999998</ele>
        <time>2013-09-06T10:47:48Z</time>
      </trkpt>
      <trkpt lat="50.385709991678596" lon="12.756017027422786">
        <ele>877.34000000000003</ele>
        <time>2013-09-06T10:47:49Z</time>
      </trkpt>
      <trkpt lat="50.38554796949029" lon="12.75596497580409">
        <ele>878.29999999999995</ele>
        <time>2013-09-06T10:47:50Z</time>
      </trkpt>
      <trkpt lat="50.385387036949396" lon="12.755914013832808">
        <ele>879.74000000000001</ele>
        <time>2013-09-06T10:47:51Z</time>
      </trkpt>
      <trkpt lat="50.383589034900069" lon="12.754938025027514">
        <ele>890.79999999999995</ele>
        <time>2013-09-06T10:48:02Z</time>
      </trkpt>
      <trkpt lat="50.38296801969409" lon="12.754592020064592">
        <ele>894.63999999999999</ele>
        <time>2013-09-06T10:48:06Z</time>
      </trkpt>
      <trkpt lat="50.382850002497435" lon="12.754482971504331">
        <ele>895.61000000000001</ele>
        <time>2013-09-06T10:48:07Z</time>
      </trkpt>
      <trkpt lat="50.382756041362882" lon="12.754327990114689">
        <ele>896.57000000000005</ele>
        <time>2013-09-06T10:48:08Z</time>
      </trkpt>
      <trkpt lat="50.382686974480748" lon="12.754148030653596">
        <ele>897.52999999999997</ele>
        <time>2013-09-06T10:48:09Z</time>
      </trkpt>
      <trkpt lat="50.382638024166226" lon="12.75396496988833">
        <ele>898.97000000000003</ele>
        <time>2013-09-06T10:48:10Z</time>
      </trkpt>
      <trkpt lat="50.382614973932505" lon="12.753756009042263">
        <ele>899.92999999999995</ele>
        <time>2013-09-06T10:48:11Z</time>
      </trkpt>
      <trkpt lat="50.382618997246027" lon="12.75353497825563">
        <ele>900.88999999999999</ele>
        <time>2013-09-06T10:48:12Z</time>
      </trkpt>
      <trkpt lat="50.382635006681085" lon="12.753291986882687">
        <ele>902.33000000000004</ele>
        <time>2013-09-06T10:48:13Z</time>
      </trkpt>
      <trkpt lat="50.382654033601284" lon="12.753043966367841">
        <ele>905.22000000000003</ele>
        <time>2013-09-06T10:48:14Z</time>
      </trkpt>
      <trkpt lat="50.382793005555868" lon="12.750986963510513">
        <ele>911.47000000000003</ele>
        <time>2013-09-06T10:48:22Z</time>
      </trkpt>
      <trkpt lat="50.382770961150527" lon="12.75076299905777">
        <ele>910.99000000000001</ele>
        <time>2013-09-06T10:48:23Z</time>
      </trkpt>
      <trkpt lat="50.382736008614302" lon="12.750545991584659">
        <ele>911.47000000000003</ele>
        <time>2013-09-06T10:48:24Z</time>
      </trkpt>
      <trkpt lat="50.382371982559562" lon="12.748600970953703">
        <ele>917.24000000000001</ele>
        <time>2013-09-06T10:48:33Z</time>
      </trkpt>
      <trkpt lat="50.382136031985283" lon="12.746584033593535">
        <ele>923</ele>
        <time>2013-09-06T10:48:42Z</time>
      </trkpt>
      <trkpt lat="50.382091021165252" lon="12.746140966191888">
        <ele>923.96000000000004</ele>
        <time>2013-09-06T10:48:44Z</time>
      </trkpt>
      <trkpt lat="50.382070988416672" lon="12.745948014780879">
        <ele>925.40999999999997</ele>
        <time>2013-09-06T10:48:45Z</time>
      </trkpt>
      <trkpt lat="50.382106024771929" lon="12.745769983157516">
        <ele>926.85000000000002</ele>
        <time>2013-09-06T10:48:46Z</time>
      </trkpt>
      <trkpt lat="50.382175007835031" lon="12.745588012039661">
        <ele>926.85000000000002</ele>
        <time>2013-09-06T10:48:47Z</time>
      </trkpt>
      <trkpt lat="50.382253965362906" lon="12.745416015386581">
        <ele>925.88999999999999</ele>
        <time>2013-09-06T10:48:48Z</time>
      </trkpt>
      <trkpt lat="50.382344992831349" lon="12.745243012905121">
        <ele>926.37</ele>
        <time>2013-09-06T10:48:49Z</time>
      </trkpt>
      <trkpt lat="50.382428979501128" lon="12.745089959353209">
        <ele>926.37</ele>
        <time>2013-09-06T10:48:50Z</time>
      </trkpt>
      <trkpt lat="50.382525958120823" lon="12.744972025975585">
        <ele>926.37</ele>
        <time>2013-09-06T10:48:51Z</time>
      </trkpt>
      <trkpt lat="50.382638024166226" lon="12.744903964921832">
        <ele>925.88999999999999</ele>
        <time>2013-09-06T10:48:52Z</time>
      </trkpt>
      <trkpt lat="50.382771966978908" lon="12.744863983243704">
        <ele>925.88999999999999</ele>
        <time>2013-09-06T10:48:53Z</time>
      </trkpt>
      <trkpt lat="50.382899036630988" lon="12.744822995737195">
        <ele>924.45000000000005</ele>
        <time>2013-09-06T10:48:54Z</time>
      </trkpt>
      <trkpt lat="50.383029961958528" lon="12.744758035987616">
        <ele>923.48000000000002</ele>
        <time>2013-09-06T10:48:55Z</time>
      </trkpt>
      <trkpt lat="50.383156025782228" lon="12.744672037661076">
        <ele>922.51999999999998</ele>
        <time>2013-09-06T10:48:56Z</time>
      </trkpt>
      <trkpt lat="50.383255016058683" lon="12.744556032121181">
        <ele>921.55999999999995</ele>
        <time>2013-09-06T10:48:57Z</time>
      </trkpt>
      <trkpt lat="50.38333497941494" lon="12.74442502297461">
        <ele>921.55999999999995</ele>
        <time>2013-09-06T10:48:58Z</time>
      </trkpt>
      <trkpt lat="50.383374961093068" lon="12.74425595998764">
        <ele>919.63999999999999</ele>
        <time>2013-09-06T10:48:59Z</time>
      </trkpt>
      <trkpt lat="50.383395999670029" lon="12.744089998304844">
        <ele>918.20000000000005</ele>
        <time>2013-09-06T10:49:00Z</time>
      </trkpt>
      <trkpt lat="50.383406979963183" lon="12.743913978338242">
        <ele>917.72000000000003</ele>
        <time>2013-09-06T10:49:01Z</time>
      </trkpt>
      <trkpt lat="50.383406979963183" lon="12.743713986128569">
        <ele>915.78999999999996</ele>
        <time>2013-09-06T10:49:02Z</time>
      </trkpt>
      <trkpt lat="50.383395999670029" lon="12.743503013625741">
        <ele>915.78999999999996</ele>
        <time>2013-09-06T10:49:03Z</time>
      </trkpt>
      <trkpt lat="50.383358029648662" lon="12.743298998102546">
        <ele>916.26999999999998</ele>
        <time>2013-09-06T10:49:04Z</time>
      </trkpt>
      <trkpt lat="50.383277982473373" lon="12.743106968700886">
        <ele>916.26999999999998</ele>
        <time>2013-09-06T10:49:05Z</time>
      </trkpt>
      <trkpt lat="50.383207993581891" lon="12.742914017289877">
        <ele>915.78999999999996</ele>
        <time>2013-09-06T10:49:06Z</time>
      </trkpt>
      <trkpt lat="50.383128030225635" lon="12.742711007595062">
        <ele>914.35000000000002</ele>
        <time>2013-09-06T10:49:07Z</time>
      </trkpt>
      <trkpt lat="50.382324038073421" lon="12.740898001939058">
        <ele>909.53999999999996</ele>
        <time>2013-09-06T10:49:16Z</time>
      </trkpt>
      <trkpt lat="50.381245035678148" lon="12.739022970199585">
        <ele>901.37</ele>
        <time>2013-09-06T10:49:26Z</time>
      </trkpt>
      <trkpt lat="50.38071102462709" lon="12.738030971959233">
        <ele>897.04999999999995</ele>
        <time>2013-09-06T10:49:32Z</time>
      </trkpt>
      <trkpt lat="50.380613962188363" lon="12.737896023318172">
        <ele>896.57000000000005</ele>
        <time>2013-09-06T10:49:33Z</time>
      </trkpt>
      <trkpt lat="50.380492005497217" lon="12.737785968929529">
        <ele>895.61000000000001</ele>
        <time>2013-09-06T10:49:34Z</time>
      </trkpt>
      <trkpt lat="50.380358984693885" lon="12.737692007794976">
        <ele>894.63999999999999</ele>
        <time>2013-09-06T10:49:35Z</time>
      </trkpt>
      <trkpt lat="50.3802390396595" lon="12.737659988924861">
        <ele>894.15999999999997</ele>
        <time>2013-09-06T10:49:36Z</time>
      </trkpt>
      <trkpt lat="50.380116999149323" lon="12.737663006410003">
        <ele>893.20000000000005</ele>
        <time>2013-09-06T10:49:37Z</time>
      </trkpt>
      <trkpt lat="50.379539988934994" lon="12.737712962552905">
        <ele>889.36000000000001</ele>
        <time>2013-09-06T10:49:42Z</time>
      </trkpt>
      <trkpt lat="50.379437981173396" lon="12.737774988636374">
        <ele>888.88</ele>
        <time>2013-09-06T10:49:43Z</time>
      </trkpt>
      <trkpt lat="50.379339996725321" lon="12.737871967256069">
        <ele>888.39999999999998</ele>
        <time>2013-09-06T10:49:44Z</time>
      </trkpt>
      <trkpt lat="50.37922902032733" lon="12.738006999716163">
        <ele>888.39999999999998</ele>
        <time>2013-09-06T10:49:45Z</time>
      </trkpt>
      <trkpt lat="50.379114020615816" lon="12.738156029954553">
        <ele>888.39999999999998</ele>
        <time>2013-09-06T10:49:46Z</time>
      </trkpt>
      <trkpt lat="50.377925969660282" lon="12.739744987338781">
        <ele>882.14999999999998</ele>
        <time>2013-09-06T10:49:56Z</time>
      </trkpt>
      <trkpt lat="50.377203030511737" lon="12.74047396145761">
        <ele>879.25999999999999</ele>
        <time>2013-09-06T10:50:02Z</time>
      </trkpt>
      <trkpt lat="50.37710496224463" lon="12.740588961169124">
        <ele>878.77999999999997</ele>
        <time>2013-09-06T10:50:03Z</time>
      </trkpt>
      <trkpt lat="50.376257970929146" lon="12.741799978539348">
        <ele>874.46000000000004</ele>
        <time>2013-09-06T10:50:12Z</time>
      </trkpt>
      <trkpt lat="50.376135008409619" lon="12.741876002401114">
        <ele>874.46000000000004</ele>
        <time>2013-09-06T10:50:13Z</time>
      </trkpt>
      <trkpt lat="50.376012967899442" lon="12.741931993514299">
        <ele>874.46000000000004</ele>
        <time>2013-09-06T10:50:14Z</time>
      </trkpt>
      <trkpt lat="50.375740975141525" lon="12.742024026811123">
        <ele>873.98000000000002</ele>
        <time>2013-09-06T10:50:16Z</time>
      </trkpt>
      <trkpt lat="50.375479040667415" lon="12.742083035409451">
        <ele>874.46000000000004</ele>
        <time>2013-09-06T10:50:18Z</time>
      </trkpt>
      <trkpt lat="50.37506103515625" lon="12.742037018761039">
        <ele>874.94000000000005</ele>
        <time>2013-09-06T10:50:21Z</time>
      </trkpt>
      <trkpt lat="50.374924996867776" lon="12.741980021819472">
        <ele>874.94000000000005</ele>
        <time>2013-09-06T10:50:22Z</time>
      </trkpt>
      <trkpt lat="50.373801989480853" lon="12.741687996312976">
        <ele>874.94000000000005</ele>
        <time>2013-09-06T10:50:30Z</time>
      </trkpt>
      <trkpt lat="50.373094975948334" lon="12.74169797077775">
        <ele>873.5</ele>
        <time>2013-09-06T10:50:35Z</time>
      </trkpt>
      <trkpt lat="50.37282801233232" lon="12.741732001304626">
        <ele>873.5</ele>
        <time>2013-09-06T10:50:37Z</time>
      </trkpt>
      <trkpt lat="50.372713012620807" lon="12.741695959120989">
        <ele>873.5</ele>
        <time>2013-09-06T10:50:38Z</time>
      </trkpt>
      <trkpt lat="50.372598012909293" lon="12.741641979664564">
        <ele>873.5</ele>
        <time>2013-09-06T10:50:39Z</time>
      </trkpt>
      <trkpt lat="50.372474966570735" lon="12.741541983559728">
        <ele>873.5</ele>
        <time>2013-09-06T10:50:40Z</time>
      </trkpt>
      <trkpt lat="50.372350998222828" lon="12.74141700938344">
        <ele>873.00999999999999</ele>
        <time>2013-09-06T10:50:41Z</time>
      </trkpt>
      <trkpt lat="50.372239015996456" lon="12.741270996630192">
        <ele>872.52999999999997</ele>
        <time>2013-09-06T10:50:42Z</time>
      </trkpt>
      <trkpt lat="50.372141031548381" lon="12.741119032725692">
        <ele>872.04999999999995</ele>
        <time>2013-09-06T10:50:43Z</time>
      </trkpt>
      <trkpt lat="50.372046986594796" lon="12.740946030244231">
        <ele>871.57000000000005</ele>
        <time>2013-09-06T10:50:44Z</time>
      </trkpt>
      <trkpt lat="50.371966017410159" lon="12.740786019712687">
        <ele>871.09000000000003</ele>
        <time>2013-09-06T10:50:45Z</time>
      </trkpt>
      <trkpt lat="50.371237965300679" lon="12.739173006266356">
        <ele>867.25</ele>
        <time>2013-09-06T10:50:54Z</time>
      </trkpt>
      <trkpt lat="50.370823983103037" lon="12.738014962524176">
        <ele>863.39999999999998</ele>
        <time>2013-09-06T10:51:01Z</time>
      </trkpt>
      <trkpt lat="50.370776038616896" lon="12.737725032493472">
        <ele>862.91999999999996</ele>
        <time>2013-09-06T10:51:03Z</time>
      </trkpt>
      <trkpt lat="50.370768997818232" lon="12.737573990598321">
        <ele>862.44000000000005</ele>
        <time>2013-09-06T10:51:04Z</time>
      </trkpt>
      <trkpt lat="50.370775032788515" lon="12.737412974238396">
        <ele>861.96000000000004</ele>
        <time>2013-09-06T10:51:05Z</time>
      </trkpt>
      <trkpt lat="50.370801016688347" lon="12.737255981191993">
        <ele>861.96000000000004</ele>
        <time>2013-09-06T10:51:06Z</time>
      </trkpt>
      <trkpt lat="50.370824988931417" lon="12.737085996195674">
        <ele>861.48000000000002</ele>
        <time>2013-09-06T10:51:07Z</time>
      </trkpt>
      <trkpt lat="50.370949041098356" lon="12.736337995156646">
        <ele>859.55999999999995</ele>
        <time>2013-09-06T10:51:11Z</time>
      </trkpt>
      <trkpt lat="50.371069991961122" lon="12.735629975795746">
        <ele>857.14999999999998</ele>
        <time>2013-09-06T10:51:15Z</time>
      </trkpt>
      <trkpt lat="50.371091030538082" lon="12.735494021326303">
        <ele>856.66999999999996</ele>
        <time>2013-09-06T10:51:16Z</time>
      </trkpt>
      <trkpt lat="50.371556980535388" lon="12.733923001214862">
        <ele>851.87</ele>
        <time>2013-09-06T10:51:24Z</time>
      </trkpt>
      <trkpt lat="50.371627975255251" lon="12.733733989298344">
        <ele>851.87</ele>
        <time>2013-09-06T10:51:25Z</time>
      </trkpt>
      <trkpt lat="50.37168899551034" lon="12.733526034280658">
        <ele>852.35000000000002</ele>
        <time>2013-09-06T10:51:26Z</time>
      </trkpt>
      <trkpt lat="50.37179896607995" lon="12.732895966619253">
        <ele>852.83000000000004</ele>
        <time>2013-09-06T10:51:29Z</time>
      </trkpt>
      <trkpt lat="50.371797038242221" lon="12.73269597440958">
        <ele>852.83000000000004</ele>
        <time>2013-09-06T10:51:30Z</time>
      </trkpt>
      <trkpt lat="50.371769964694977" lon="12.732491036877036">
        <ele>852.35000000000002</ele>
        <time>2013-09-06T10:51:31Z</time>
      </trkpt>
      <trkpt lat="50.371762001886964" lon="12.730145025998354">
        <ele>849.46000000000004</ele>
        <time>2013-09-06T10:51:43Z</time>
      </trkpt>
      <trkpt lat="50.371708022430539" lon="12.72934103384614">
        <ele>848.98000000000002</ele>
        <time>2013-09-06T10:51:48Z</time>
      </trkpt>
      <trkpt lat="50.371681032702327" lon="12.72919200360775">
        <ele>848.98000000000002</ele>
        <time>2013-09-06T10:51:49Z</time>
      </trkpt>
      <trkpt lat="50.371572989970446" lon="12.728919005021453">
        <ele>848.98000000000002</ele>
        <time>2013-09-06T10:51:51Z</time>
      </trkpt>
      <trkpt lat="50.371198989450932" lon="12.727572033181787">
        <ele>846.10000000000002</ele>
        <time>2013-09-06T10:51:59Z</time>
      </trkpt>
      <trkpt lat="50.370961027219892" lon="12.726997034624219">
        <ele>844.17999999999995</ele>
        <time>2013-09-06T10:52:03Z</time>
      </trkpt>
      <trkpt lat="50.370868993923068" lon="12.726865019649267">
        <ele>843.69000000000005</ele>
        <time>2013-09-06T10:52:04Z</time>
      </trkpt>
      <trkpt lat="50.370777966454625" lon="12.726735016331077">
        <ele>842.25</ele>
        <time>2013-09-06T10:52:05Z</time>
      </trkpt>
      <trkpt lat="50.37068098783493" lon="12.726572994142771">
        <ele>841.76999999999998</ele>
        <time>2013-09-06T10:52:06Z</time>
      </trkpt>
      <trkpt lat="50.370598006993532" lon="12.7264419849962">
        <ele>841.76999999999998</ele>
        <time>2013-09-06T10:52:07Z</time>
      </trkpt>
      <trkpt lat="50.36994899623096" lon="12.725632963702083">
        <ele>837.45000000000005</ele>
        <time>2013-09-06T10:52:14Z</time>
      </trkpt>
      <trkpt lat="50.369520010426641" lon="12.725185034796596">
        <ele>834.08000000000004</ele>
        <time>2013-09-06T10:52:18Z</time>
      </trkpt>
      <trkpt lat="50.369425965473056" lon="12.725034998729825">
        <ele>833.60000000000002</ele>
        <time>2013-09-06T10:52:19Z</time>
      </trkpt>
      <trkpt lat="50.369337033480406" lon="12.724864007905126">
        <ele>833.12</ele>
        <time>2013-09-06T10:52:20Z</time>
      </trkpt>
      <trkpt lat="50.368748037144542" lon="12.723645027726889">
        <ele>828.30999999999995</ele>
        <time>2013-09-06T10:52:28Z</time>
      </trkpt>
      <trkpt lat="50.36769300699234" lon="12.722305012866855">
        <ele>815.82000000000005</ele>
        <time>2013-09-06T10:52:39Z</time>
      </trkpt>
      <trkpt lat="50.367696024477482" lon="12.722235023975372">
        <ele>798.99000000000001</ele>
        <time>2013-09-06T10:52:40Z</time>
      </trkpt>
      <trkpt lat="50.367579013109207" lon="12.722131004557014">
        <ele>798.02999999999997</ele>
        <time>2013-09-06T10:52:41Z</time>
      </trkpt>
      <trkpt lat="50.367443980649114" lon="12.722061015665531">
        <ele>797.54999999999995</ele>
        <time>2013-09-06T10:52:42Z</time>
      </trkpt>
      <trkpt lat="50.367416990920901" lon="12.722094962373376">
        <ele>783.13</ele>
        <time>2013-09-06T10:52:43Z</time>
      </trkpt>
      <trkpt lat="50.367259997874498" lon="12.722041988745332">
        <ele>782.16999999999996</ele>
        <time>2013-09-06T10:52:44Z</time>
      </trkpt>
      <trkpt lat="50.367127982899547" lon="12.722046012058854">
        <ele>780.73000000000002</ele>
        <time>2013-09-06T10:52:45Z</time>
      </trkpt>
      <trkpt lat="50.367013989016414" lon="12.722068978473544">
        <ele>780.25</ele>
        <time>2013-09-06T10:52:46Z</time>
      </trkpt>
      <trkpt lat="50.366905024275184" lon="12.722062021493912">
        <ele>779.76999999999998</ele>
        <time>2013-09-06T10:52:47Z</time>
      </trkpt>
      <trkpt lat="50.366792036220431" lon="12.722131004557014">
        <ele>779.28999999999996</ele>
        <time>2013-09-06T10:52:48Z</time>
      </trkpt>
      <trkpt lat="50.366679970175028" lon="12.722195964306593">
        <ele>778.80999999999995</ele>
        <time>2013-09-06T10:52:49Z</time>
      </trkpt>
      <trkpt lat="50.366565976291895" lon="12.722266959026456">
        <ele>777.84000000000003</ele>
        <time>2013-09-06T10:52:50Z</time>
      </trkpt>
      <trkpt lat="50.3663619607687" lon="12.722442978993058">
        <ele>775.91999999999996</ele>
        <time>2013-09-06T10:52:52Z</time>
      </trkpt>
      <trkpt lat="50.36627596244216" lon="12.72255202755332">
        <ele>774.48000000000002</ele>
        <time>2013-09-06T10:52:53Z</time>
      </trkpt>
      <trkpt lat="50.36618803627789" lon="12.722690999507904">
        <ele>773.03999999999996</ele>
        <time>2013-09-06T10:52:54Z</time>
      </trkpt>
      <trkpt lat="50.365924006327987" lon="12.723062988370657">
        <ele>766.78999999999996</ele>
        <time>2013-09-06T10:52:57Z</time>
      </trkpt>
      <trkpt lat="50.365826021879911" lon="12.723146975040436">
        <ele>765.83000000000004</ele>
        <time>2013-09-06T10:52:58Z</time>
      </trkpt>
      <trkpt lat="50.364880040287971" lon="12.723853988572955">
        <ele>750.45000000000005</ele>
        <time>2013-09-06T10:53:06Z</time>
      </trkpt>
      <trkpt lat="50.364351980388165" lon="12.7242920268327">
        <ele>740.83000000000004</ele>
        <time>2013-09-06T10:53:11Z</time>
      </trkpt>
      <trkpt lat="50.364288026466966" lon="12.724409038200974">
        <ele>736.99000000000001</ele>
        <time>2013-09-06T10:53:12Z</time>
      </trkpt>
      <trkpt lat="50.364222982898355" lon="12.7245510276407">
        <ele>734.58000000000004</ele>
        <time>2013-09-06T10:53:13Z</time>
      </trkpt>
      <trkpt lat="50.363882007077336" lon="12.725247982889414">
        <ele>725.45000000000005</ele>
        <time>2013-09-06T10:53:18Z</time>
      </trkpt>
      <trkpt lat="50.363602973520756" lon="12.725560963153839">
        <ele>722.57000000000005</ele>
        <time>2013-09-06T10:53:21Z</time>
      </trkpt>
      <trkpt lat="50.3635039832443" lon="12.725632041692734">
        <ele>722.57000000000005</ele>
        <time>2013-09-06T10:53:22Z</time>
      </trkpt>
      <trkpt lat="50.36330902017653" lon="12.72571200504899">
        <ele>719.20000000000005</ele>
        <time>2013-09-06T10:53:24Z</time>
      </trkpt>
      <trkpt lat="50.363201983273029" lon="12.725730026140809">
        <ele>718.24000000000001</ele>
        <time>2013-09-06T10:53:25Z</time>
      </trkpt>
      <trkpt lat="50.363106010481715" lon="12.725680992007256">
        <ele>717.27999999999997</ele>
        <time>2013-09-06T10:53:26Z</time>
      </trkpt>
      <trkpt lat="50.363029986619949" lon="12.725591976195574">
        <ele>716.32000000000005</ele>
        <time>2013-09-06T10:53:27Z</time>
      </trkpt>
      <trkpt lat="50.362990004941821" lon="12.725450992584229">
        <ele>714.39999999999998</ele>
        <time>2013-09-06T10:53:28Z</time>
      </trkpt>
      <trkpt lat="50.362953040748835" lon="12.725290982052684">
        <ele>712.95000000000005</ele>
        <time>2013-09-06T10:53:29Z</time>
      </trkpt>
      <trkpt lat="50.362846003845334" lon="12.72420703433454">
        <ele>710.54999999999995</ele>
        <time>2013-09-06T10:53:35Z</time>
      </trkpt>
      <trkpt lat="50.362809039652348" lon="12.723461966961622">
        <ele>707.66999999999996</ele>
        <time>2013-09-06T10:53:39Z</time>
      </trkpt>
      <trkpt lat="50.362646011635661" lon="12.722613969817758">
        <ele>705.75</ele>
        <time>2013-09-06T10:53:44Z</time>
      </trkpt>
      <trkpt lat="50.362564958631992" lon="12.722452031448483">
        <ele>705.25999999999999</ele>
        <time>2013-09-06T10:53:45Z</time>
      </trkpt>
      <trkpt lat="50.362474014982581" lon="12.722312975674868">
        <ele>704.29999999999995</ele>
        <time>2013-09-06T10:53:46Z</time>
      </trkpt>
      <trkpt lat="50.362318027764559" lon="12.722005024552345">
        <ele>703.34000000000003</ele>
        <time>2013-09-06T10:53:48Z</time>
      </trkpt>
      <trkpt lat="50.361692989245057" lon="12.721068011596799">
        <ele>699.01999999999998</ele>
        <time>2013-09-06T10:53:55Z</time>
      </trkpt>
      <trkpt lat="50.36124799400568" lon="12.71995103918016">
        <ele>695.16999999999996</ele>
        <time>2013-09-06T10:54:02Z</time>
      </trkpt>
      <trkpt lat="50.361164007335901" lon="12.719844002276659">
        <ele>695.16999999999996</ele>
        <time>2013-09-06T10:54:03Z</time>
      </trkpt>
      <trkpt lat="50.361083960160613" lon="12.719749035313725">
        <ele>695.16999999999996</ele>
        <time>2013-09-06T10:54:04Z</time>
      </trkpt>
      <trkpt lat="50.361015982925892" lon="12.719669993966818">
        <ele>693.73000000000002</ele>
        <time>2013-09-06T10:54:05Z</time>
      </trkpt>
      <trkpt lat="50.360934007912874" lon="12.719604028388858">
        <ele>694.21000000000004</ele>
        <time>2013-09-06T10:54:06Z</time>
      </trkpt>
      <trkpt lat="50.360854966565967" lon="12.719546025618911">
        <ele>693.25</ele>
        <time>2013-09-06T10:54:07Z</time>
      </trkpt>
      <trkpt lat="50.360770979896188" lon="12.71952498704195">
        <ele>692.76999999999998</ele>
        <time>2013-09-06T10:54:08Z</time>
      </trkpt>
      <trkpt lat="50.360506027936935" lon="12.71948198787868">
        <ele>690.84000000000003</ele>
        <time>2013-09-06T10:54:11Z</time>
      </trkpt>
      <trkpt lat="50.360432015731931" lon="12.719443012028933">
        <ele>689.88</ele>
        <time>2013-09-06T10:54:12Z</time>
      </trkpt>
      <trkpt lat="50.360121969133615" lon="12.719296999275684">
        <ele>687.48000000000002</ele>
        <time>2013-09-06T10:54:19Z</time>
      </trkpt>
      <trkpt lat="50.360071007162333" lon="12.719304962083697">
        <ele>687</ele>
        <time>2013-09-06T10:54:20Z</time>
      </trkpt>
      <trkpt lat="50.360010992735624" lon="12.719337986782193">
        <ele>687.48000000000002</ele>
        <time>2013-09-06T10:54:21Z</time>
      </trkpt>
      <trkpt lat="50.359543031081557" lon="12.719464972615242">
        <ele>687</ele>
        <time>2013-09-06T10:54:26Z</time>
      </trkpt>
      <trkpt lat="50.359432976692915" lon="12.719419039785862">
        <ele>686.51999999999998</ele>
        <time>2013-09-06T10:54:27Z</time>
      </trkpt>
      <trkpt lat="50.359320994466543" lon="12.719356007874012">
        <ele>686.51999999999998</ele>
        <time>2013-09-06T10:54:28Z</time>
      </trkpt>
      <trkpt lat="50.359210018068552" lon="12.719263974577188">
        <ele>685.55999999999995</ele>
        <time>2013-09-06T10:54:29Z</time>
      </trkpt>
      <trkpt lat="50.359109016135335" lon="12.719149980694056">
        <ele>685.55999999999995</ele>
        <time>2013-09-06T10:54:30Z</time>
      </trkpt>
      <trkpt lat="50.359008014202118" lon="12.719032969325781">
        <ele>685.55999999999995</ele>
        <time>2013-09-06T10:54:31Z</time>
      </trkpt>
      <trkpt lat="50.358535023406148" lon="12.71842603571713">
        <ele>684.12</ele>
        <time>2013-09-06T10:54:36Z</time>
      </trkpt>
      <trkpt lat="50.357412016019225" lon="12.717521041631699">
        <ele>681.71000000000004</ele>
        <time>2013-09-06T10:54:45Z</time>
      </trkpt>
      <trkpt lat="50.357124013826251" lon="12.717399001121521">
        <ele>682.19000000000005</ele>
        <time>2013-09-06T10:54:47Z</time>
      </trkpt>
      <trkpt lat="50.356959979981184" lon="12.717386009171605">
        <ele>681.23000000000002</ele>
        <time>2013-09-06T10:54:48Z</time>
      </trkpt>
      <trkpt lat="50.356832994148135" lon="12.717369999736547">
        <ele>681.23000000000002</ele>
        <time>2013-09-06T10:54:49Z</time>
      </trkpt>
      <trkpt lat="50.356541974470019" lon="12.717391960322857">
        <ele>680.75</ele>
        <time>2013-09-06T10:54:51Z</time>
      </trkpt>
      <trkpt lat="50.355504965409636" lon="12.717898981645703">
        <ele>681.71000000000004</ele>
        <time>2013-09-06T10:54:58Z</time>
      </trkpt>
      <trkpt lat="50.355353001505136" lon="12.717963019385934">
        <ele>681.71000000000004</ele>
        <time>2013-09-06T10:54:59Z</time>
      </trkpt>
      <trkpt lat="50.35463098436594" lon="12.718009036034346">
        <ele>683.14999999999998</ele>
        <time>2013-09-06T10:55:04Z</time>
      </trkpt>
      <trkpt lat="50.354198981076479" lon="12.717799991369247">
        <ele>683.14999999999998</ele>
        <time>2013-09-06T10:55:07Z</time>
      </trkpt>
      <trkpt lat="50.354073001071811" lon="12.717688009142876">
        <ele>683.63</ele>
        <time>2013-09-06T10:55:08Z</time>
      </trkpt>
      <trkpt lat="50.353958001360297" lon="12.71756898611784">
        <ele>684.12</ele>
        <time>2013-09-06T10:55:09Z</time>
      </trkpt>
      <trkpt lat="50.353264985606074" lon="12.716798018664122">
        <ele>683.63</ele>
        <time>2013-09-06T10:55:15Z</time>
      </trkpt>
      <trkpt lat="50.353131964802742" lon="12.716675978153944">
        <ele>683.14999999999998</ele>
        <time>2013-09-06T10:55:16Z</time>
      </trkpt>
      <trkpt lat="50.351962018758059" lon="12.715723961591721">
        <ele>676.90999999999997</ele>
        <time>2013-09-06T10:55:26Z</time>
      </trkpt>
      <trkpt lat="50.351866967976093" lon="12.715582977980375">
        <ele>676.41999999999996</ele>
        <time>2013-09-06T10:55:27Z</time>
      </trkpt>
      <trkpt lat="50.35179303959012" lon="12.715435037389398">
        <ele>675.94000000000005</ele>
        <time>2013-09-06T10:55:28Z</time>
      </trkpt>
      <trkpt lat="50.351448962464929" lon="12.7140879817307">
        <ele>674.01999999999998</ele>
        <time>2013-09-06T10:55:35Z</time>
      </trkpt>
      <trkpt lat="50.351189039647579" lon="12.712805969640613">
        <ele>671.62</ele>
        <time>2013-09-06T10:55:42Z</time>
      </trkpt>
      <trkpt lat="50.351131958886981" lon="12.712668003514409">
        <ele>671.13999999999999</ele>
        <time>2013-09-06T10:55:43Z</time>
      </trkpt>
      <trkpt lat="50.351043026894331" lon="12.712580999359488">
        <ele>670.17999999999995</ele>
        <time>2013-09-06T10:55:44Z</time>
      </trkpt>
      <trkpt lat="50.35095501691103" lon="12.712493995204568">
        <ele>668.73000000000002</ele>
        <time>2013-09-06T10:55:45Z</time>
      </trkpt>
      <trkpt lat="50.350838005542755" lon="12.712441021576524">
        <ele>666.33000000000004</ele>
        <time>2013-09-06T10:55:46Z</time>
      </trkpt>
      <trkpt lat="50.350729962810874" lon="12.712385030463338">
        <ele>664.88999999999999</ele>
        <time>2013-09-06T10:55:47Z</time>
      </trkpt>
      <trkpt lat="50.350600965321064" lon="12.712342031300068">
        <ele>662.97000000000003</ele>
        <time>2013-09-06T10:55:48Z</time>
      </trkpt>
      <trkpt lat="50.349590023979545" lon="12.711958978325129">
        <ele>658.63999999999999</ele>
        <time>2013-09-06T10:55:56Z</time>
      </trkpt>
      <trkpt lat="50.349373016506433" lon="12.71176896058023">
        <ele>657.67999999999995</ele>
        <time>2013-09-06T10:55:58Z</time>
      </trkpt>
      <trkpt lat="50.349285006523132" lon="12.711614985018969">
        <ele>656.24000000000001</ele>
        <time>2013-09-06T10:55:59Z</time>
      </trkpt>
      <trkpt lat="50.349204959347844" lon="12.711438965052366">
        <ele>654.79999999999995</ele>
        <time>2013-09-06T10:56:00Z</time>
      </trkpt>
      <trkpt lat="50.349124995991588" lon="12.711270991712809">
        <ele>653.83000000000004</ele>
        <time>2013-09-06T10:56:01Z</time>
      </trkpt>
      <trkpt lat="50.349054001271725" lon="12.711087008938193">
        <ele>652.87</ele>
        <time>2013-09-06T10:56:02Z</time>
      </trkpt>
      <trkpt lat="50.348992981016636" lon="12.710896991193295">
        <ele>652.38999999999999</ele>
        <time>2013-09-06T10:56:03Z</time>
      </trkpt>
      <trkpt lat="50.34893698990345" lon="12.710704961791635">
        <ele>652.38999999999999</ele>
        <time>2013-09-06T10:56:04Z</time>
      </trkpt>
      <trkpt lat="50.348733980208635" lon="12.710145972669125">
        <ele>650.47000000000003</ele>
        <time>2013-09-06T10:56:07Z</time>
      </trkpt>
      <trkpt lat="50.348616968840361" lon="12.709997026249766">
        <ele>649.02999999999997</ele>
        <time>2013-09-06T10:56:08Z</time>
      </trkpt>
      <trkpt lat="50.348475985229015" lon="12.709886971861124">
        <ele>648.07000000000005</ele>
        <time>2013-09-06T10:56:09Z</time>
      </trkpt>
      <trkpt lat="50.348330978304148" lon="12.709797034040093">
        <ele>648.07000000000005</ele>
        <time>2013-09-06T10:56:10Z</time>
      </trkpt>
      <trkpt lat="50.348180020228028" lon="12.709726961329579">
        <ele>648.54999999999995</ele>
        <time>2013-09-06T10:56:11Z</time>
      </trkpt>
      <trkpt lat="50.348024033010006" lon="12.709742970764637">
        <ele>649.02999999999997</ele>
        <time>2013-09-06T10:56:12Z</time>
      </trkpt>
      <trkpt lat="50.347863016650081" lon="12.709737019613385">
        <ele>649.02999999999997</ele>
        <time>2013-09-06T10:56:13Z</time>
      </trkpt>
      <trkpt lat="50.347708035260439" lon="12.709738025441766">
        <ele>648.54999999999995</ele>
        <time>2013-09-06T10:56:14Z</time>
      </trkpt>
      <trkpt lat="50.347555987536907" lon="12.709737019613385">
        <ele>647.59000000000003</ele>
        <time>2013-09-06T10:56:15Z</time>
      </trkpt>
      <trkpt lat="50.347417015582323" lon="12.709717992693186">
        <ele>646.62</ele>
        <time>2013-09-06T10:56:16Z</time>
      </trkpt>
      <trkpt lat="50.347265973687172" lon="12.709646997973323">
        <ele>645.65999999999997</ele>
        <time>2013-09-06T10:56:17Z</time>
      </trkpt>
      <trkpt lat="50.347108980640769" lon="12.709588995203376">
        <ele>646.13999999999999</ele>
        <time>2013-09-06T10:56:18Z</time>
      </trkpt>
      <trkpt lat="50.346953999251127" lon="12.709524035453796">
        <ele>646.13999999999999</ele>
        <time>2013-09-06T10:56:19Z</time>
      </trkpt>
      <trkpt lat="50.34678703173995" lon="12.709448011592031">
        <ele>645.17999999999995</ele>
        <time>2013-09-06T10:56:20Z</time>
      </trkpt>
      <trkpt lat="50.34661796875298" lon="12.709358995780349">
        <ele>646.13999999999999</ele>
        <time>2013-09-06T10:56:21Z</time>
      </trkpt>
      <trkpt lat="50.345844989642501" lon="12.708771005272865">
        <ele>642.77999999999997</ele>
        <time>2013-09-06T10:56:26Z</time>
      </trkpt>
      <trkpt lat="50.345681039616466" lon="12.708690958097577">
        <ele>642.77999999999997</ele>
        <time>2013-09-06T10:56:27Z</time>
      </trkpt>
      <trkpt lat="50.344951981678605" lon="12.708473028615117">
        <ele>640.86000000000001</ele>
        <time>2013-09-06T10:56:32Z</time>
      </trkpt>
      <trkpt lat="50.344820972532034" lon="12.708478979766369">
        <ele>641.34000000000003</ele>
        <time>2013-09-06T10:56:33Z</time>
      </trkpt>
      <trkpt lat="50.344691975042224" lon="12.708519967272878">
        <ele>640.86000000000001</ele>
        <time>2013-09-06T10:56:34Z</time>
      </trkpt>
      <trkpt lat="50.344064002856612" lon="12.708762036636472">
        <ele>641.82000000000005</ele>
        <time>2013-09-06T10:56:41Z</time>
      </trkpt>
      <trkpt lat="50.344040030613542" lon="12.708732029423118">
        <ele>641.34000000000003</ele>
        <time>2013-09-06T10:56:42Z</time>
      </trkpt>
      <trkpt lat="50.344027038663626" lon="12.708686012774706">
        <ele>641.82000000000005</ele>
        <time>2013-09-06T10:56:43Z</time>
      </trkpt>
      <trkpt lat="50.344027960672975" lon="12.708615018054843">
        <ele>641.82000000000005</ele>
        <time>2013-09-06T10:56:44Z</time>
      </trkpt>
      <trkpt lat="50.34406098537147" lon="12.708530025556684">
        <ele>642.77999999999997</ele>
        <time>2013-09-06T10:56:45Z</time>
      </trkpt>
      <trkpt lat="50.344110019505024" lon="12.708430029451847">
        <ele>644.22000000000003</ele>
        <time>2013-09-06T10:56:46Z</time>
      </trkpt>
      <trkpt lat="50.344161987304688" lon="12.70833196118474">
        <ele>644.22000000000003</ele>
        <time>2013-09-06T10:56:47Z</time>
      </trkpt>
      <trkpt lat="50.344226025044918" lon="12.708129035308957">
        <ele>644.70000000000005</ele>
        <time>2013-09-06T10:56:49Z</time>
      </trkpt>
      <trkpt lat="50.344237005338073" lon="12.708011018112302">
        <ele>645.17999999999995</ele>
        <time>2013-09-06T10:56:50Z</time>
      </trkpt>
      <trkpt lat="50.344228036701679" lon="12.707885038107634">
        <ele>646.13999999999999</ele>
        <time>2013-09-06T10:56:51Z</time>
      </trkpt>
      <trkpt lat="50.344196017831564" lon="12.70774899981916">
        <ele>647.59000000000003</ele>
        <time>2013-09-06T10:56:52Z</time>
      </trkpt>
      <trkpt lat="50.344156958162785" lon="12.707614973187447">
        <ele>648.54999999999995</ele>
        <time>2013-09-06T10:56:53Z</time>
      </trkpt>
      <trkpt lat="50.34408101812005" lon="12.707324959337711">
        <ele>650.95000000000005</ele>
        <time>2013-09-06T10:56:55Z</time>
      </trkpt>
      <trkpt lat="50.344075988978148" lon="12.70716997794807">
        <ele>652.38999999999999</ele>
        <time>2013-09-06T10:56:56Z</time>
      </trkpt>
      <trkpt lat="50.344095015898347" lon="12.707009967416525">
        <ele>654.30999999999995</ele>
        <time>2013-09-06T10:56:57Z</time>
      </trkpt>
      <trkpt lat="50.344139020889997" lon="12.706874012947083">
        <ele>655.27999999999997</ele>
        <time>2013-09-06T10:56:58Z</time>
      </trkpt>
      <trkpt lat="50.344203980639577" lon="12.706737974658608">
        <ele>656.24000000000001</ele>
        <time>2013-09-06T10:56:59Z</time>
      </trkpt>
      <trkpt lat="50.344278998672962" lon="12.706613000482321">
        <ele>658.15999999999997</ele>
        <time>2013-09-06T10:57:00Z</time>
      </trkpt>
      <trkpt lat="50.34513596445322" lon="12.705098977312446">
        <ele>675.46000000000004</ele>
        <time>2013-09-06T10:57:11Z</time>
      </trkpt>
      <trkpt lat="50.345189021900296" lon="12.704920023679733">
        <ele>676.90999999999997</ele>
        <time>2013-09-06T10:57:12Z</time>
      </trkpt>
      <trkpt lat="50.345308966934681" lon="12.704579969868064">
        <ele>678.83000000000004</ele>
        <time>2013-09-06T10:57:14Z</time>
      </trkpt>
      <trkpt lat="50.345381973311305" lon="12.704422976821661">
        <ele>679.30999999999995</ele>
        <time>2013-09-06T10:57:15Z</time>
      </trkpt>
      <trkpt lat="50.346193006262183" lon="12.702559009194374">
        <ele>690.84000000000003</ele>
        <time>2013-09-06T10:57:26Z</time>
      </trkpt>
      <trkpt lat="50.346800023689866" lon="12.701194016262889">
        <ele>699.5</ele>
        <time>2013-09-06T10:57:34Z</time>
      </trkpt>
      <trkpt lat="50.34683003090322" lon="12.701054960489273">
        <ele>699.5</ele>
        <time>2013-09-06T10:57:35Z</time>
      </trkpt>
      <trkpt lat="50.346847968176007" lon="12.700909031555057">
        <ele>699.98000000000002</ele>
        <time>2013-09-06T10:57:36Z</time>
      </trkpt>
      <trkpt lat="50.346842017024755" lon="12.700752960518003">
        <ele>699.98000000000002</ele>
        <time>2013-09-06T10:57:37Z</time>
      </trkpt>
      <trkpt lat="50.346838999539614" lon="12.700581969693303">
        <ele>699.98000000000002</ele>
        <time>2013-09-06T10:57:38Z</time>
      </trkpt>
      <trkpt lat="50.346794994547963" lon="12.699782000854611">
        <ele>695.16999999999996</ele>
        <time>2013-09-06T10:57:42Z</time>
      </trkpt>
      <trkpt lat="50.34678996540606" lon="12.699404982849956">
        <ele>694.69000000000005</ele>
        <time>2013-09-06T10:57:44Z</time>
      </trkpt>
      <trkpt lat="50.346848974004388" lon="12.699038023129106">
        <ele>694.21000000000004</ele>
        <time>2013-09-06T10:57:46Z</time>
      </trkpt>
      <trkpt lat="50.346893984824419" lon="12.698865020647645">
        <ele>694.69000000000005</ele>
        <time>2013-09-06T10:57:47Z</time>
      </trkpt>
      <trkpt lat="50.347082996740937" lon="12.698316005989909">
        <ele>697.57000000000005</ele>
        <time>2013-09-06T10:57:50Z</time>
      </trkpt>
      <trkpt lat="50.347173018381" lon="12.698154989629984">
        <ele>699.01999999999998</ele>
        <time>2013-09-06T10:57:51Z</time>
      </trkpt>
      <trkpt lat="50.347925964742899" lon="12.696890998631716">
        <ele>707.19000000000005</ele>
        <time>2013-09-06T10:57:59Z</time>
      </trkpt>
      <trkpt lat="50.348268030211329" lon="12.696271995082498">
        <ele>710.07000000000005</ele>
        <time>2013-09-06T10:58:03Z</time>
      </trkpt>
      <trkpt lat="50.349106974899769" lon="12.694960981607437">
        <ele>716.79999999999995</ele>
        <time>2013-09-06T10:58:12Z</time>
      </trkpt>
      <trkpt lat="50.349608967080712" lon="12.693218970671296">
        <ele>719.20000000000005</ele>
        <time>2013-09-06T10:58:21Z</time>
      </trkpt>
      <trkpt lat="50.349631011486053" lon="12.693007998168468">
        <ele>720.15999999999997</ele>
        <time>2013-09-06T10:58:22Z</time>
      </trkpt>
      <trkpt lat="50.349717009812593" lon="12.692397963255644">
        <ele>723.52999999999997</ele>
        <time>2013-09-06T10:58:25Z</time>
      </trkpt>
      <trkpt lat="50.349909961223602" lon="12.691616015508771">
        <ele>725.92999999999995</ele>
        <time>2013-09-06T10:58:29Z</time>
      </trkpt>
      <trkpt lat="50.349981961771846" lon="12.691241009160876">
        <ele>727.37</ele>
        <time>2013-09-06T10:58:31Z</time>
      </trkpt>
      <trkpt lat="50.350043987855315" lon="12.691058032214642">
        <ele>727.86000000000001</ele>
        <time>2013-09-06T10:58:32Z</time>
      </trkpt>
      <trkpt lat="50.350620998069644" lon="12.689329013228416">
        <ele>730.74000000000001</ele>
        <time>2013-09-06T10:58:41Z</time>
      </trkpt>
      <trkpt lat="50.350695010274649" lon="12.688954006880522">
        <ele>732.17999999999995</ele>
        <time>2013-09-06T10:58:43Z</time>
      </trkpt>
      <trkpt lat="50.350743038579822" lon="12.688775975257158">
        <ele>732.65999999999997</ele>
        <time>2013-09-06T10:58:44Z</time>
      </trkpt>
      <trkpt lat="50.351027017459273" lon="12.687795963138342">
        <ele>733.62</ele>
        <time>2013-09-06T10:58:52Z</time>
      </trkpt>
      <trkpt lat="50.351183004677296" lon="12.687200009822845">
        <ele>732.65999999999997</ele>
        <time>2013-09-06T10:59:01Z</time>
      </trkpt>
      <trkpt lat="50.351222986355424" lon="12.68710101954639">
        <ele>733.62</ele>
        <time>2013-09-06T10:59:02Z</time>
      </trkpt>
      <trkpt lat="50.351271014660597" lon="12.687017032876611">
        <ele>733.62</ele>
        <time>2013-09-06T10:59:03Z</time>
      </trkpt>
      <trkpt lat="50.351318959146738" lon="12.686936985701323">
        <ele>733.62</ele>
        <time>2013-09-06T10:59:04Z</time>
      </trkpt>
      <trkpt lat="50.35142901353538" lon="12.686733976006508">
        <ele>734.10000000000002</ele>
        <time>2013-09-06T10:59:07Z</time>
      </trkpt>
      <trkpt lat="50.351446028798819" lon="12.686677984893322">
        <ele>734.58000000000004</ele>
        <time>2013-09-06T10:59:08Z</time>
      </trkpt>
      <trkpt lat="50.35157703794539" lon="12.686212034896016">
        <ele>736.02999999999997</ele>
        <time>2013-09-06T10:59:14Z</time>
      </trkpt>
      <trkpt lat="50.351810976862907" lon="12.68568498082459">
        <ele>734.58000000000004</ele>
        <time>2013-09-06T10:59:18Z</time>
      </trkpt>
      <trkpt lat="50.351868979632854" lon="12.685561012476683">
        <ele>735.07000000000005</ele>
        <time>2013-09-06T10:59:19Z</time>
      </trkpt>
      <trkpt lat="50.351929999887943" lon="12.685438971966505">
        <ele>736.50999999999999</ele>
        <time>2013-09-06T10:59:20Z</time>
      </trkpt>
      <trkpt lat="50.351999988779426" lon="12.685355991125107">
        <ele>737.47000000000003</ele>
        <time>2013-09-06T10:59:21Z</time>
      </trkpt>
      <trkpt lat="50.352054974064231" lon="12.685291031375527">
        <ele>738.42999999999995</ele>
        <time>2013-09-06T10:59:22Z</time>
      </trkpt>
      <trkpt lat="50.35209696739912" lon="12.685202015563846">
        <ele>738.90999999999997</ele>
        <time>2013-09-06T10:59:23Z</time>
      </trkpt>
      <trkpt lat="50.352140972390771" lon="12.685085004195571">
        <ele>739.38999999999999</ele>
        <time>2013-09-06T10:59:24Z</time>
      </trkpt>
      <trkpt lat="50.3522689640522" lon="12.68422300927341">
        <ele>744.20000000000005</ele>
        <time>2013-09-06T10:59:29Z</time>
      </trkpt>
      <trkpt lat="50.352357979863882" lon="12.683713976293802">
        <ele>748.03999999999996</ele>
        <time>2013-09-06T10:59:32Z</time>
      </trkpt>
      <trkpt lat="50.352407013997436" lon="12.683551032096148">
        <ele>748.51999999999998</ele>
        <time>2013-09-06T10:59:33Z</time>
      </trkpt>
      <trkpt lat="50.352464010939002" lon="12.683384986594319">
        <ele>749</ele>
        <time>2013-09-06T10:59:34Z</time>
      </trkpt>
      <trkpt lat="50.353173958137631" lon="12.682131975889206">
        <ele>751.88999999999999</ele>
        <time>2013-09-06T10:59:43Z</time>
      </trkpt>
      <trkpt lat="50.353478975594044" lon="12.681824024766684">
        <ele>756.69000000000005</ele>
        <time>2013-09-06T10:59:46Z</time>
      </trkpt>
      <trkpt lat="50.353602021932602" lon="12.681791000068188">
        <ele>758.62</ele>
        <time>2013-09-06T10:59:47Z</time>
      </trkpt>
      <trkpt lat="50.353749040514231" lon="12.681769039481878">
        <ele>760.53999999999996</ele>
        <time>2013-09-06T10:59:48Z</time>
      </trkpt>
      <trkpt lat="50.35447801463306" lon="12.68175202421844">
        <ele>765.35000000000002</ele>
        <time>2013-09-06T10:59:53Z</time>
      </trkpt>
      <trkpt lat="50.354600977152586" lon="12.681721011176705">
        <ele>766.78999999999996</ele>
        <time>2013-09-06T10:59:54Z</time>
      </trkpt>
      <trkpt lat="50.35471698269248" lon="12.681658985093236">
        <ele>767.75</ele>
        <time>2013-09-06T10:59:55Z</time>
      </trkpt>
      <trkpt lat="50.354816978797317" lon="12.681553959846497">
        <ele>770.14999999999998</ele>
        <time>2013-09-06T10:59:56Z</time>
      </trkpt>
      <trkpt lat="50.354901971295476" lon="12.681403001770377">
        <ele>771.11000000000001</ele>
        <time>2013-09-06T10:59:57Z</time>
      </trkpt>
      <trkpt lat="50.354981012642384" lon="12.681218013167381">
        <ele>772.55999999999995</ele>
        <time>2013-09-06T10:59:58Z</time>
      </trkpt>
      <trkpt lat="50.355047984048724" lon="12.68102397210896">
        <ele>773.51999999999998</ele>
        <time>2013-09-06T10:59:59Z</time>
      </trkpt>
      <trkpt lat="50.355094000697136" lon="12.680831020697951">
        <ele>774.96000000000004</ele>
        <time>2013-09-06T11:00:00Z</time>
      </trkpt>
      <trkpt lat="50.355113027617335" lon="12.680604960769415">
        <ele>775.91999999999996</ele>
        <time>2013-09-06T11:00:01Z</time>
      </trkpt>
      <trkpt lat="50.355101963505149" lon="12.680364986881614">
        <ele>775.91999999999996</ele>
        <time>2013-09-06T11:00:02Z</time>
      </trkpt>
      <trkpt lat="50.355069022625685" lon="12.680129958316684">
        <ele>777.36000000000001</ele>
        <time>2013-09-06T11:00:03Z</time>
      </trkpt>
      <trkpt lat="50.355035997927189" lon="12.679900964722037">
        <ele>778.80999999999995</ele>
        <time>2013-09-06T11:00:04Z</time>
      </trkpt>
      <trkpt lat="50.354957962408662" lon="12.679164027795196">
        <ele>783.13</ele>
        <time>2013-09-06T11:00:07Z</time>
      </trkpt>
      <trkpt lat="50.354980006814003" lon="12.678924975916743">
        <ele>784.09000000000003</ele>
        <time>2013-09-06T11:00:08Z</time>
      </trkpt>
      <trkpt lat="50.355011019855738" lon="12.6786819845438">
        <ele>784.57000000000005</ele>
        <time>2013-09-06T11:00:09Z</time>
      </trkpt>
      <trkpt lat="50.355048989877105" lon="12.678446033969522">
        <ele>785.04999999999995</ele>
        <time>2013-09-06T11:00:10Z</time>
      </trkpt>
      <trkpt lat="50.355117972940207" lon="12.678216034546494">
        <ele>785.52999999999997</ele>
        <time>2013-09-06T11:00:11Z</time>
      </trkpt>
      <trkpt lat="50.355202965438366" lon="12.678004978224635">
        <ele>786.01999999999998</ele>
        <time>2013-09-06T11:00:12Z</time>
      </trkpt>
      <trkpt lat="50.355290975421667" lon="12.677802974358201">
        <ele>786.5</ele>
        <time>2013-09-06T11:00:13Z</time>
      </trkpt>
      <trkpt lat="50.355587024241686" lon="12.677282961085439">
        <ele>786.5</ele>
        <time>2013-09-06T11:00:16Z</time>
      </trkpt>
      <trkpt lat="50.355708980932832" lon="12.677148012444377">
        <ele>787.46000000000004</ele>
        <time>2013-09-06T11:00:17Z</time>
      </trkpt>
      <trkpt lat="50.355842001736164" lon="12.677046004682779">
        <ele>788.41999999999996</ele>
        <time>2013-09-06T11:00:18Z</time>
      </trkpt>
      <trkpt lat="50.356249026954174" lon="12.676707962527871">
        <ele>791.77999999999997</ele>
        <time>2013-09-06T11:00:21Z</time>
      </trkpt>
      <trkpt lat="50.356368971988559" lon="12.676560021936893">
        <ele>794.19000000000005</ele>
        <time>2013-09-06T11:00:22Z</time>
      </trkpt>
      <trkpt lat="50.35647701472044" lon="12.676382996141911">
        <ele>796.11000000000001</ele>
        <time>2013-09-06T11:00:23Z</time>
      </trkpt>
      <trkpt lat="50.357416961342096" lon="12.674718014895916">
        <ele>797.54999999999995</ele>
        <time>2013-09-06T11:00:32Z</time>
      </trkpt>
      <trkpt lat="50.358098996803164" lon="12.673412030562758">
        <ele>801.88</ele>
        <time>2013-09-06T11:00:39Z</time>
      </trkpt>
      <trkpt lat="50.358149036765099" lon="12.673247996717691">
        <ele>802.36000000000001</ele>
        <time>2013-09-06T11:00:40Z</time>
      </trkpt>
      <trkpt lat="50.358169991523027" lon="12.673074994236231">
        <ele>803.79999999999995</ele>
        <time>2013-09-06T11:00:41Z</time>
      </trkpt>
      <trkpt lat="50.358166974037886" lon="12.672885982319713">
        <ele>804.27999999999997</ele>
        <time>2013-09-06T11:00:42Z</time>
      </trkpt>
      <trkpt lat="50.358159011229873" lon="12.672694958746433">
        <ele>805.72000000000003</ele>
        <time>2013-09-06T11:00:43Z</time>
      </trkpt>
      <trkpt lat="50.358136966824532" lon="12.672496978193521">
        <ele>805.72000000000003</ele>
        <time>2013-09-06T11:00:44Z</time>
      </trkpt>
      <trkpt lat="50.358135038986802" lon="12.671682005748153">
        <ele>810.04999999999995</ele>
        <time>2013-09-06T11:00:48Z</time>
      </trkpt>
      <trkpt lat="50.358172003179789" lon="12.671501962468028">
        <ele>811.00999999999999</ele>
        <time>2013-09-06T11:00:49Z</time>
      </trkpt>
      <trkpt lat="50.358230005949736" lon="12.671362990513444">
        <ele>812.45000000000005</ele>
        <time>2013-09-06T11:00:50Z</time>
      </trkpt>
      <trkpt lat="50.358307035639882" lon="12.671286966651678">
        <ele>813.40999999999997</ele>
        <time>2013-09-06T11:00:51Z</time>
      </trkpt>
      <trkpt lat="50.358404014259577" lon="12.671240027993917">
        <ele>814.37</ele>
        <time>2013-09-06T11:00:52Z</time>
      </trkpt>
      <trkpt lat="50.358512979000807" lon="12.671201974153519">
        <ele>816.29999999999995</ele>
        <time>2013-09-06T11:00:53Z</time>
      </trkpt>
      <trkpt lat="50.358721017837524" lon="12.67107599414885">
        <ele>817.25999999999999</ele>
        <time>2013-09-06T11:00:55Z</time>
      </trkpt>
      <trkpt lat="50.358802992850542" lon="12.670971974730492">
        <ele>817.74000000000001</ele>
        <time>2013-09-06T11:00:56Z</time>
      </trkpt>
      <trkpt lat="50.358874993398786" lon="12.670793021097779">
        <ele>817.74000000000001</ele>
        <time>2013-09-06T11:00:57Z</time>
      </trkpt>
      <trkpt lat="50.358917992562056" lon="12.670599985867739">
        <ele>817.74000000000001</ele>
        <time>2013-09-06T11:00:58Z</time>
      </trkpt>
      <trkpt lat="50.358940036967397" lon="12.670394964516163">
        <ele>817.74000000000001</ele>
        <time>2013-09-06T11:00:59Z</time>
      </trkpt>
      <trkpt lat="50.358934001997113" lon="12.670202013105154">
        <ele>817.74000000000001</ele>
        <time>2013-09-06T11:01:00Z</time>
      </trkpt>
      <trkpt lat="50.35890600644052" lon="12.670002020895481">
        <ele>816.77999999999997</ele>
        <time>2013-09-06T11:01:01Z</time>
      </trkpt>
      <trkpt lat="50.358891002833843" lon="12.669812003150582">
        <ele>816.77999999999997</ele>
        <time>2013-09-06T11:01:02Z</time>
      </trkpt>
      <trkpt lat="50.358888991177082" lon="12.669630032032728">
        <ele>817.74000000000001</ele>
        <time>2013-09-06T11:01:03Z</time>
      </trkpt>
      <trkpt lat="50.358892008662224" lon="12.669449988752604">
        <ele>816.77999999999997</ele>
        <time>2013-09-06T11:01:04Z</time>
      </trkpt>
      <trkpt lat="50.358903994783759" lon="12.669268017634749">
        <ele>817.74000000000001</ele>
        <time>2013-09-06T11:01:05Z</time>
      </trkpt>
      <trkpt lat="50.358943976461887" lon="12.669088980183005">
        <ele>818.22000000000003</ele>
        <time>2013-09-06T11:01:06Z</time>
      </trkpt>
      <trkpt lat="50.35899099893868" lon="12.668888987973332">
        <ele>819.17999999999995</ele>
        <time>2013-09-06T11:01:07Z</time>
      </trkpt>
      <trkpt lat="50.35914296284318" lon="12.668232014402747">
        <ele>820.62</ele>
        <time>2013-09-06T11:01:10Z</time>
      </trkpt>
      <trkpt lat="50.359173975884914" lon="12.66800100915134">
        <ele>821.58000000000004</ele>
        <time>2013-09-06T11:01:11Z</time>
      </trkpt>
      <trkpt lat="50.359189985319972" lon="12.667771009728312">
        <ele>823.02999999999997</ele>
        <time>2013-09-06T11:01:12Z</time>
      </trkpt>
      <trkpt lat="50.35920700058341" lon="12.667545033618808">
        <ele>825.42999999999995</ele>
        <time>2013-09-06T11:01:13Z</time>
      </trkpt>
      <trkpt lat="50.359231978654861" lon="12.667330037802458">
        <ele>826.87</ele>
        <time>2013-09-06T11:01:14Z</time>
      </trkpt>
      <trkpt lat="50.359275983646512" lon="12.66712099313736">
        <ele>827.83000000000004</ele>
        <time>2013-09-06T11:01:15Z</time>
      </trkpt>
      <trkpt lat="50.359346978366375" lon="12.666901974007487">
        <ele>828.78999999999996</ele>
        <time>2013-09-06T11:01:16Z</time>
      </trkpt>
      <trkpt lat="50.359631041064858" lon="12.666073003783822">
        <ele>833.12</ele>
        <time>2013-09-06T11:01:20Z</time>
      </trkpt>
      <trkpt lat="50.359673034399748" lon="12.665863037109375">
        <ele>834.08000000000004</ele>
        <time>2013-09-06T11:01:21Z</time>
      </trkpt>
      <trkpt lat="50.359706981107593" lon="12.665646029636264">
        <ele>835.51999999999998</ele>
        <time>2013-09-06T11:01:22Z</time>
      </trkpt>
      <trkpt lat="50.359760960564017" lon="12.665415024384856">
        <ele>836.48000000000002</ele>
        <time>2013-09-06T11:01:23Z</time>
      </trkpt>
      <trkpt lat="50.359802031889558" lon="12.665236992761493">
        <ele>837.92999999999995</ele>
        <time>2013-09-06T11:01:24Z</time>
      </trkpt>
      <trkpt lat="50.359831033274531" lon="12.66505996696651">
        <ele>839.37</ele>
        <time>2013-09-06T11:01:25Z</time>
      </trkpt>
      <trkpt lat="50.359824998304248" lon="12.664892999455333">
        <ele>841.76999999999998</ele>
        <time>2013-09-06T11:01:26Z</time>
      </trkpt>
      <trkpt lat="50.359805971384048" lon="12.664698036387563">
        <ele>843.21000000000004</ele>
        <time>2013-09-06T11:01:27Z</time>
      </trkpt>
      <trkpt lat="50.359761966392398" lon="12.664483962580562">
        <ele>845.62</ele>
        <time>2013-09-06T11:01:28Z</time>
      </trkpt>
      <trkpt lat="50.359709998592734" lon="12.664277013391256">
        <ele>848.5</ele>
        <time>2013-09-06T11:01:29Z</time>
      </trkpt>
      <trkpt lat="50.35948502831161" lon="12.662616977468133">
        <ele>862.44000000000005</ele>
        <time>2013-09-06T11:01:37Z</time>
      </trkpt>
      <trkpt lat="50.359493996948004" lon="12.662409022450447">
        <ele>863.88</ele>
        <time>2013-09-06T11:01:38Z</time>
      </trkpt>
      <trkpt lat="50.359488967806101" lon="12.662209030240774">
        <ele>864.84000000000003</ele>
        <time>2013-09-06T11:01:39Z</time>
      </trkpt>
      <trkpt lat="50.359473964199424" lon="12.662012977525592">
        <ele>864.36000000000001</ele>
        <time>2013-09-06T11:01:40Z</time>
      </trkpt>
      <trkpt lat="50.35944496281445" lon="12.661823965609074">
        <ele>865.32000000000005</ele>
        <time>2013-09-06T11:01:41Z</time>
      </trkpt>
      <trkpt lat="50.359404981136322" lon="12.661617016419768">
        <ele>865.79999999999995</ele>
        <time>2013-09-06T11:01:42Z</time>
      </trkpt>
      <trkpt lat="50.359344966709614" lon="12.661424987018108">
        <ele>866.28999999999996</ele>
        <time>2013-09-06T11:01:43Z</time>
      </trkpt>
      <trkpt lat="50.359285958111286" lon="12.661261036992073">
        <ele>867.73000000000002</ele>
        <time>2013-09-06T11:01:44Z</time>
      </trkpt>
      <trkpt lat="50.359182022511959" lon="12.66086901538074">
        <ele>868.21000000000004</ele>
        <time>2013-09-06T11:01:46Z</time>
      </trkpt>
      <trkpt lat="50.359124019742012" lon="12.660664999857545">
        <ele>867.73000000000002</ele>
        <time>2013-09-06T11:01:47Z</time>
      </trkpt>
      <trkpt lat="50.35905696451664" lon="12.660473976284266">
        <ele>866.76999999999998</ele>
        <time>2013-09-06T11:01:48Z</time>
      </trkpt>
      <trkpt lat="50.358977001160383" lon="12.660300973802805">
        <ele>867.25</ele>
        <time>2013-09-06T11:01:49Z</time>
      </trkpt>
      <trkpt lat="50.358892008662224" lon="12.660124031826854">
        <ele>867.25</ele>
        <time>2013-09-06T11:01:50Z</time>
      </trkpt>
      <trkpt lat="50.358236040920019" lon="12.658649990335107">
        <ele>868.69000000000005</ele>
        <time>2013-09-06T11:01:58Z</time>
      </trkpt>
      <trkpt lat="50.357934040948749" lon="12.657914981245995">
        <ele>869.64999999999998</ele>
        <time>2013-09-06T11:02:02Z</time>
      </trkpt>
      <trkpt lat="50.357858017086983" lon="12.657736027613282">
        <ele>870.13</ele>
        <time>2013-09-06T11:02:03Z</time>
      </trkpt>
      <trkpt lat="50.357822980731726" lon="12.657530000433326">
        <ele>870.61000000000001</ele>
        <time>2013-09-06T11:02:04Z</time>
      </trkpt>
      <trkpt lat="50.357790039852262" lon="12.656715027987957">
        <ele>873.98000000000002</ele>
        <time>2013-09-06T11:02:08Z</time>
      </trkpt>
      <trkpt lat="50.357816023752093" lon="12.656526016071439">
        <ele>874.46000000000004</ele>
        <time>2013-09-06T11:02:09Z</time>
      </trkpt>
      <trkpt lat="50.357864974066615" lon="12.656353013589978">
        <ele>875.41999999999996</ele>
        <time>2013-09-06T11:02:10Z</time>
      </trkpt>
      <trkpt lat="50.3579590190202" lon="12.655990999191999">
        <ele>878.77999999999997</ele>
        <time>2013-09-06T11:02:12Z</time>
      </trkpt>
      <trkpt lat="50.357990032061934" lon="12.655809028074145">
        <ele>880.22000000000003</ele>
        <time>2013-09-06T11:02:13Z</time>
      </trkpt>
      <trkpt lat="50.357999000698328" lon="12.655618004500866">
        <ele>881.66999999999996</ele>
        <time>2013-09-06T11:02:14Z</time>
      </trkpt>
      <trkpt lat="50.357990032061934" lon="12.65541197732091">
        <ele>883.11000000000001</ele>
        <time>2013-09-06T11:02:15Z</time>
      </trkpt>
      <trkpt lat="50.357961030676961" lon="12.65519798733294">
        <ele>885.02999999999997</ele>
        <time>2013-09-06T11:02:16Z</time>
      </trkpt>
      <trkpt lat="50.357935968786478" lon="12.654983997344971">
        <ele>887.90999999999997</ele>
        <time>2013-09-06T11:02:17Z</time>
      </trkpt>
      <trkpt lat="50.357822980731726" lon="12.653948999941349">
        <ele>897.52999999999997</ele>
        <time>2013-09-06T11:02:22Z</time>
      </trkpt>
      <trkpt lat="50.357828009873629" lon="12.653752025216818">
        <ele>898.97000000000003</ele>
        <time>2013-09-06T11:02:23Z</time>
      </trkpt>
      <trkpt lat="50.357858017086983" lon="12.653558989986777">
        <ele>900.40999999999997</ele>
        <time>2013-09-06T11:02:24Z</time>
      </trkpt>
      <trkpt lat="50.35796002484858" lon="12.652107998728752">
        <ele>909.53999999999996</ele>
        <time>2013-09-06T11:02:31Z</time>
      </trkpt>
      <trkpt lat="50.357968993484974" lon="12.651911024004221">
        <ele>910.50999999999999</ele>
        <time>2013-09-06T11:02:32Z</time>
      </trkpt>
      <trkpt lat="50.357968993484974" lon="12.651700973510742">
        <ele>911.47000000000003</ele>
        <time>2013-09-06T11:02:33Z</time>
      </trkpt>
      <trkpt lat="50.357956001535058" lon="12.651488995179534">
        <ele>911.95000000000005</ele>
        <time>2013-09-06T11:02:34Z</time>
      </trkpt>
      <trkpt lat="50.357925994321704" lon="12.651252960786223">
        <ele>913.38999999999999</ele>
        <time>2013-09-06T11:02:35Z</time>
      </trkpt>
      <trkpt lat="50.357890035957098" lon="12.651016004383564">
        <ele>913.38999999999999</ele>
        <time>2013-09-06T11:02:36Z</time>
      </trkpt>
      <trkpt lat="50.357844019308686" lon="12.650796985253692">
        <ele>915.30999999999995</ele>
        <time>2013-09-06T11:02:37Z</time>
      </trkpt>
      <trkpt lat="50.357587030157447" lon="12.649741033092141">
        <ele>918.67999999999995</ele>
        <time>2013-09-06T11:02:42Z</time>
      </trkpt>
      <trkpt lat="50.35740103572607" lon="12.648388026282191">
        <ele>916.75</ele>
        <time>2013-09-06T11:02:48Z</time>
      </trkpt>
      <trkpt lat="50.357398018240929" lon="12.648178981617093">
        <ele>916.75</ele>
        <time>2013-09-06T11:02:49Z</time>
      </trkpt>
      <trkpt lat="50.357412016019225" lon="12.647979995235801">
        <ele>917.72000000000003</ele>
        <time>2013-09-06T11:02:50Z</time>
      </trkpt>
      <trkpt lat="50.357432970777154" lon="12.64778696000576">
        <ele>918.20000000000005</ele>
        <time>2013-09-06T11:02:51Z</time>
      </trkpt>
      <trkpt lat="50.357469012960792" lon="12.647600965574384">
        <ele>918.20000000000005</ele>
        <time>2013-09-06T11:02:52Z</time>
      </trkpt>
      <trkpt lat="50.357779981568456" lon="12.645956017076969">
        <ele>920.12</ele>
        <time>2013-09-06T11:03:00Z</time>
      </trkpt>
      <trkpt lat="50.357977962121367" lon="12.644926970824599">
        <ele>922.51999999999998</ele>
        <time>2013-09-06T11:03:05Z</time>
      </trkpt>
      <trkpt lat="50.35804501734674" lon="12.644752040505409">
        <ele>923</ele>
        <time>2013-09-06T11:03:06Z</time>
      </trkpt>
      <trkpt lat="50.35892897285521" lon="12.642924031242728">
        <ele>926.37</ele>
        <time>2013-09-06T11:03:17Z</time>
      </trkpt>
      <trkpt lat="50.359215969219804" lon="12.642164966091514">
        <ele>927.80999999999995</ele>
        <time>2013-09-06T11:03:21Z</time>
      </trkpt>
      <trkpt lat="50.35927296616137" lon="12.641970003023744">
        <ele>927.80999999999995</ele>
        <time>2013-09-06T11:03:22Z</time>
      </trkpt>
      <trkpt lat="50.359582006931305" lon="12.640311978757381">
        <ele>927.80999999999995</ele>
        <time>2013-09-06T11:03:30Z</time>
      </trkpt>
      <trkpt lat="50.359889036044478" lon="12.638832991942763">
        <ele>927.33000000000004</ele>
        <time>2013-09-06T11:03:37Z</time>
      </trkpt>
      <trkpt lat="50.359919965267181" lon="12.63863299973309">
        <ele>927.33000000000004</ele>
        <time>2013-09-06T11:03:38Z</time>
      </trkpt>
      <trkpt lat="50.360107971355319" lon="12.636818988248706">
        <ele>920.12</ele>
        <time>2013-09-06T11:03:46Z</time>
      </trkpt>
      <trkpt lat="50.360408965498209" lon="12.634925013408065">
        <ele>898.97000000000003</ele>
        <time>2013-09-06T11:03:55Z</time>
      </trkpt>
      <trkpt lat="50.360532011836767" lon="12.633703015744686">
        <ele>890.32000000000005</ele>
        <time>2013-09-06T11:04:01Z</time>
      </trkpt>
      <trkpt lat="50.360509967431426" lon="12.63351802714169">
        <ele>888.88</ele>
        <time>2013-09-06T11:04:02Z</time>
      </trkpt>
      <trkpt lat="50.360480966046453" lon="12.633341001346707">
        <ele>887.90999999999997</ele>
        <time>2013-09-06T11:04:03Z</time>
      </trkpt>
      <trkpt lat="50.360498987138271" lon="12.632841020822525">
        <ele>885.02999999999997</ele>
        <time>2013-09-06T11:04:06Z</time>
      </trkpt>
      <trkpt lat="50.360510973259807" lon="12.632737001404166">
        <ele>885.50999999999999</ele>
        <time>2013-09-06T11:04:07Z</time>
      </trkpt>
      <trkpt lat="50.360556989908218" lon="12.63257103972137">
        <ele>882.63</ele>
        <time>2013-09-06T11:04:08Z</time>
      </trkpt>
      <trkpt lat="50.360623961314559" lon="12.632403988391161">
        <ele>881.66999999999996</ele>
        <time>2013-09-06T11:04:09Z</time>
      </trkpt>
      <trkpt lat="50.360695961862803" lon="12.632239032536745">
        <ele>881.66999999999996</ele>
        <time>2013-09-06T11:04:10Z</time>
      </trkpt>
      <trkpt lat="50.361400963738561" lon="12.630653008818626">
        <ele>875.89999999999998</ele>
        <time>2013-09-06T11:04:19Z</time>
      </trkpt>
      <trkpt lat="50.361502971500158" lon="12.630469026044011">
        <ele>876.38</ele>
        <time>2013-09-06T11:04:20Z</time>
      </trkpt>
      <trkpt lat="50.361586958169937" lon="12.630294011905789">
        <ele>875.89999999999998</ele>
        <time>2013-09-06T11:04:21Z</time>
      </trkpt>
      <trkpt lat="50.361667005345225" lon="12.630129978060722">
        <ele>874.46000000000004</ele>
        <time>2013-09-06T11:04:22Z</time>
      </trkpt>
      <trkpt lat="50.361754009500146" lon="12.629977008327842">
        <ele>874.46000000000004</ele>
        <time>2013-09-06T11:04:23Z</time>
      </trkpt>
      <trkpt lat="50.361835984513164" lon="12.629825966432691">
        <ele>873.5</ele>
        <time>2013-09-06T11:04:24Z</time>
      </trkpt>
      <trkpt lat="50.362134966999292" lon="12.629456995055079">
        <ele>871.09000000000003</ele>
        <time>2013-09-06T11:04:27Z</time>
      </trkpt>
      <trkpt lat="50.362387010827661" lon="12.62917896732688">
        <ele>870.61000000000001</ele>
        <time>2013-09-06T11:04:30Z</time>
      </trkpt>
      <trkpt lat="50.362436966970563" lon="12.629058016464114">
        <ele>870.61000000000001</ele>
        <time>2013-09-06T11:04:31Z</time>
      </trkpt>
      <trkpt lat="50.362466974183917" lon="12.628930024802685">
        <ele>870.61000000000001</ele>
        <time>2013-09-06T11:04:32Z</time>
      </trkpt>
      <trkpt lat="50.362476026639342" lon="12.628778982907534">
        <ele>871.57000000000005</ele>
        <time>2013-09-06T11:04:33Z</time>
      </trkpt>
      <trkpt lat="50.362475020810962" lon="12.628607992082834">
        <ele>873.00999999999999</ele>
        <time>2013-09-06T11:04:34Z</time>
      </trkpt>
      <trkpt lat="50.362463034689426" lon="12.628440018743277">
        <ele>873.5</ele>
        <time>2013-09-06T11:04:35Z</time>
      </trkpt>
      <trkpt lat="50.362452976405621" lon="12.628080016002059">
        <ele>874.46000000000004</ele>
        <time>2013-09-06T11:04:37Z</time>
      </trkpt>
      <trkpt lat="50.362475020810962" lon="12.627913970500231">
        <ele>873.5</ele>
        <time>2013-09-06T11:04:38Z</time>
      </trkpt>
      <trkpt lat="50.362516008317471" lon="12.627755971625447">
        <ele>873.5</ele>
        <time>2013-09-06T11:04:39Z</time>
      </trkpt>
      <trkpt lat="50.362996961921453" lon="12.626431966200471">
        <ele>873.00999999999999</ele>
        <time>2013-09-06T11:04:48Z</time>
      </trkpt>
      <trkpt lat="50.363027974963188" lon="12.626288970932364">
        <ele>872.04999999999995</ele>
        <time>2013-09-06T11:04:49Z</time>
      </trkpt>
      <trkpt lat="50.363164013251662" lon="12.625389005988836">
        <ele>868.69000000000005</ele>
        <time>2013-09-06T11:04:55Z</time>
      </trkpt>
      <trkpt lat="50.363197959959507" lon="12.625253973528743">
        <ele>868.21000000000004</ele>
        <time>2013-09-06T11:04:56Z</time>
      </trkpt>
      <trkpt lat="50.363244982436299" lon="12.625130005180836">
        <ele>868.21000000000004</ele>
        <time>2013-09-06T11:04:57Z</time>
      </trkpt>
      <trkpt lat="50.363965993747115" lon="12.623798036947846">
        <ele>867.25</ele>
        <time>2013-09-06T11:05:07Z</time>
      </trkpt>
      <trkpt lat="50.364200016483665" lon="12.623239969834685">
        <ele>868.69000000000005</ele>
        <time>2013-09-06T11:05:11Z</time>
      </trkpt>
      <trkpt lat="50.364319961518049" lon="12.622837973758578">
        <ele>868.69000000000005</ele>
        <time>2013-09-06T11:05:14Z</time>
      </trkpt>
      <trkpt lat="50.36436203867197" lon="12.622716017067432">
        <ele>868.69000000000005</ele>
        <time>2013-09-06T11:05:15Z</time>
      </trkpt>
      <trkpt lat="50.364409983158112" lon="12.622613003477454">
        <ele>869.64999999999998</ele>
        <time>2013-09-06T11:05:16Z</time>
      </trkpt>
      <trkpt lat="50.364472009241581" lon="12.622516024857759">
        <ele>870.13</ele>
        <time>2013-09-06T11:05:17Z</time>
      </trkpt>
      <trkpt lat="50.364543003961444" lon="12.622420974075794">
        <ele>870.61000000000001</ele>
        <time>2013-09-06T11:05:18Z</time>
      </trkpt>
      <trkpt lat="50.364615004509687" lon="12.622331958264112">
        <ele>871.09000000000003</ele>
        <time>2013-09-06T11:05:19Z</time>
      </trkpt>
      <trkpt lat="50.365159995853901" lon="12.62157398276031">
        <ele>872.52999999999997</ele>
        <time>2013-09-06T11:05:26Z</time>
      </trkpt>
      <trkpt lat="50.365241970866919" lon="12.621483961120248">
        <ele>873.00999999999999</ele>
        <time>2013-09-06T11:05:27Z</time>
      </trkpt>
      <trkpt lat="50.365589987486601" lon="12.621043995022774">
        <ele>873.5</ele>
        <time>2013-09-06T11:05:32Z</time>
      </trkpt>
      <trkpt lat="50.365619994699955" lon="12.620961014181376">
        <ele>873.98000000000002</ele>
        <time>2013-09-06T11:05:33Z</time>
      </trkpt>
      <trkpt lat="50.365640027448535" lon="12.620875015854836">
        <ele>873.98000000000002</ele>
        <time>2013-09-06T11:05:34Z</time>
      </trkpt>
      <trkpt lat="50.365656958892941" lon="12.620787005871534">
        <ele>873.5</ele>
        <time>2013-09-06T11:05:35Z</time>
      </trkpt>
      <trkpt lat="50.365681014955044" lon="12.62069396674633">
        <ele>873.98000000000002</ele>
        <time>2013-09-06T11:05:36Z</time>
      </trkpt>
      <trkpt lat="50.365724014118314" lon="12.620596988126636">
        <ele>874.94000000000005</ele>
        <time>2013-09-06T11:05:37Z</time>
      </trkpt>
      <trkpt lat="50.365782016888261" lon="12.620493974536657">
        <ele>876.86000000000001</ele>
        <time>2013-09-06T11:05:38Z</time>
      </trkpt>
      <trkpt lat="50.365856029093266" lon="12.62032700702548">
        <ele>877.82000000000005</ele>
        <time>2013-09-06T11:05:40Z</time>
      </trkpt>
      <trkpt lat="50.365861980244517" lon="12.620252994820476">
        <ele>877.34000000000003</ele>
        <time>2013-09-06T11:05:41Z</time>
      </trkpt>
      <trkpt lat="50.365831973031163" lon="12.620203038677573">
        <ele>875.89999999999998</ele>
        <time>2013-09-06T11:05:42Z</time>
      </trkpt>
      <trkpt lat="50.365808000788093" lon="12.620150987058878">
        <ele>876.38</ele>
        <time>2013-09-06T11:05:43Z</time>
      </trkpt>
      <trkpt lat="50.365761984139681" lon="12.620105976238847">
        <ele>877.34000000000003</ele>
        <time>2013-09-06T11:05:44Z</time>
      </trkpt>
      <trkpt lat="50.365710016340017" lon="12.620072029531002">
        <ele>877.34000000000003</ele>
        <time>2013-09-06T11:05:45Z</time>
      </trkpt>
      <trkpt lat="50.365540031343699" lon="12.619901038706303">
        <ele>879.74000000000001</ele>
        <time>2013-09-06T11:05:48Z</time>
      </trkpt>
      <trkpt lat="50.365482028573751" lon="12.619809005409479">
        <ele>880.71000000000004</ele>
        <time>2013-09-06T11:05:49Z</time>
      </trkpt>
      <trkpt lat="50.365270972251892" lon="12.619390999898314">
        <ele>882.63</ele>
        <time>2013-09-06T11:05:53Z</time>
      </trkpt>
      <trkpt lat="50.365207018330693" lon="12.619296032935381">
        <ele>882.63</ele>
        <time>2013-09-06T11:05:54Z</time>
      </trkpt>
      <trkpt lat="50.365124037489295" lon="12.619240041822195">
        <ele>883.59000000000003</ele>
        <time>2013-09-06T11:05:55Z</time>
      </trkpt>
      <trkpt lat="50.364962015300989" lon="12.619180027395487">
        <ele>883.11000000000001</ele>
        <time>2013-09-06T11:05:57Z</time>
      </trkpt>
      <trkpt lat="50.364800998941064" lon="12.61916602961719">
        <ele>883.11000000000001</ele>
        <time>2013-09-06T11:05:59Z</time>
      </trkpt>
      <trkpt lat="50.364709971472621" lon="12.619176004081964">
        <ele>881.66999999999996</ele>
        <time>2013-09-06T11:06:00Z</time>
      </trkpt>
      <trkpt lat="50.364639982581139" lon="12.619203999638557">
        <ele>881.66999999999996</ele>
        <time>2013-09-06T11:06:01Z</time>
      </trkpt>
      <trkpt lat="50.364574017003179" lon="12.619258984923363">
        <ele>881.19000000000005</ele>
        <time>2013-09-06T11:06:02Z</time>
      </trkpt>
      <trkpt lat="50.36451400257647" lon="12.619339032098651">
        <ele>881.66999999999996</ele>
        <time>2013-09-06T11:06:03Z</time>
      </trkpt>
      <trkpt lat="50.364453988149762" lon="12.619439028203487">
        <ele>881.19000000000005</ele>
        <time>2013-09-06T11:06:04Z</time>
      </trkpt>
      <trkpt lat="50.364390034228563" lon="12.619559979066253">
        <ele>881.19000000000005</ele>
        <time>2013-09-06T11:06:05Z</time>
      </trkpt>
      <trkpt lat="50.364146959036589" lon="12.619901960715652">
        <ele>880.71000000000004</ele>
        <time>2013-09-06T11:06:08Z</time>
      </trkpt>
      <trkpt lat="50.36404000595212" lon="12.619987037032843">
        <ele>880.22000000000003</ele>
        <time>2013-09-06T11:06:09Z</time>
      </trkpt>
      <trkpt lat="50.362824965268373" lon="12.620758004486561">
        <ele>873.98000000000002</ele>
        <time>2013-09-06T11:06:18Z</time>
      </trkpt>
      <trkpt lat="50.361621994525194" lon="12.621343983337283">
        <ele>870.13</ele>
        <time>2013-09-06T11:06:26Z</time>
      </trkpt>
      <trkpt lat="50.361476987600327" lon="12.621382959187031">
        <ele>868.69000000000005</ele>
        <time>2013-09-06T11:06:27Z</time>
      </trkpt>
      <trkpt lat="50.361328041180968" lon="12.621399974450469">
        <ele>868.21000000000004</ele>
        <time>2013-09-06T11:06:28Z</time>
      </trkpt>
      <trkpt lat="50.361179010942578" lon="12.621391005814075">
        <ele>867.73000000000002</ele>
        <time>2013-09-06T11:06:29Z</time>
      </trkpt>
      <trkpt lat="50.36103199236095" lon="12.621352029964328">
        <ele>866.28999999999996</ele>
        <time>2013-09-06T11:06:30Z</time>
      </trkpt>
      <trkpt lat="50.360888997092843" lon="12.621297966688871">
        <ele>864.84000000000003</ele>
        <time>2013-09-06T11:06:31Z</time>
      </trkpt>
      <trkpt lat="50.359606985002756" lon="12.620989009737968">
        <ele>854.26999999999998</ele>
        <time>2013-09-06T11:06:40Z</time>
      </trkpt>
      <trkpt lat="50.359359970316291" lon="12.620882978662848">
        <ele>852.35000000000002</ele>
        <time>2013-09-06T11:06:42Z</time>
      </trkpt>
      <trkpt lat="50.359258968383074" lon="12.620766973122954">
        <ele>851.87</ele>
        <time>2013-09-06T11:06:43Z</time>
      </trkpt>
      <trkpt lat="50.358790000900626" lon="12.620011009275913">
        <ele>851.87</ele>
        <time>2013-09-06T11:06:48Z</time>
      </trkpt>
      <trkpt lat="50.358620015904307" lon="12.619689982384443">
        <ele>850.41999999999996</ele>
        <time>2013-09-06T11:06:50Z</time>
      </trkpt>
      <trkpt lat="50.358438966795802" lon="12.619493007659912">
        <ele>850.89999999999998</ele>
        <time>2013-09-06T11:06:52Z</time>
      </trkpt>
      <trkpt lat="50.357525004073977" lon="12.618765039369464">
        <ele>846.58000000000004</ele>
        <time>2013-09-06T11:07:00Z</time>
      </trkpt>
      <trkpt lat="50.357382008805871" lon="12.618682980537415">
        <ele>845.62</ele>
        <time>2013-09-06T11:07:01Z</time>
      </trkpt>
      <trkpt lat="50.357238007709384" lon="12.618619026616216">
        <ele>844.65999999999997</ele>
        <time>2013-09-06T11:07:02Z</time>
      </trkpt>
      <trkpt lat="50.357095012441278" lon="12.618559012189507">
        <ele>844.17999999999995</ele>
        <time>2013-09-06T11:07:03Z</time>
      </trkpt>
      <trkpt lat="50.356941036880016" lon="12.618535039946437">
        <ele>842.73000000000002</ele>
        <time>2013-09-06T11:07:04Z</time>
      </trkpt>
      <trkpt lat="50.356798963621259" lon="12.618535961955786">
        <ele>841.28999999999996</ele>
        <time>2013-09-06T11:07:05Z</time>
      </trkpt>
      <trkpt lat="50.356660997495055" lon="12.618568986654282">
        <ele>840.80999999999995</ele>
        <time>2013-09-06T11:07:06Z</time>
      </trkpt>
      <trkpt lat="50.356524037197232" lon="12.61860704049468">
        <ele>840.33000000000004</ele>
        <time>2013-09-06T11:07:07Z</time>
      </trkpt>
      <trkpt lat="50.355803025886416" lon="12.618762021884322">
        <ele>837.92999999999995</ele>
        <time>2013-09-06T11:07:12Z</time>
      </trkpt>
      <trkpt lat="50.355661958456039" lon="12.618825975805521">
        <ele>837.92999999999995</ele>
        <time>2013-09-06T11:07:13Z</time>
      </trkpt>
      <trkpt lat="50.354992998763919" lon="12.619096962735057">
        <ele>835.51999999999998</ele>
        <time>2013-09-06T11:07:18Z</time>
      </trkpt>
      <trkpt lat="50.35458697937429" lon="12.619097968563437">
        <ele>833.12</ele>
        <time>2013-09-06T11:07:21Z</time>
      </trkpt>
      <trkpt lat="50.354477008804679" lon="12.619064021855593">
        <ele>832.63999999999999</ele>
        <time>2013-09-06T11:07:22Z</time>
      </trkpt>
      <trkpt lat="50.354378018528223" lon="12.619009036570787">
        <ele>832.15999999999997</ele>
        <time>2013-09-06T11:07:23Z</time>
      </trkpt>
      <trkpt lat="50.354282967746258" lon="12.618927983567119">
        <ele>831.67999999999995</ele>
        <time>2013-09-06T11:07:24Z</time>
      </trkpt>
      <trkpt lat="50.354175008833408" lon="12.618878027424216">
        <ele>831.20000000000005</ele>
        <time>2013-09-06T11:07:25Z</time>
      </trkpt>
      <trkpt lat="50.353870997205377" lon="12.618742994964123">
        <ele>828.78999999999996</ele>
        <time>2013-09-06T11:07:28Z</time>
      </trkpt>
      <trkpt lat="50.353107992559671" lon="12.618696978315711">
        <ele>823.50999999999999</ele>
        <time>2013-09-06T11:07:34Z</time>
      </trkpt>
      <trkpt lat="50.352986035868526" lon="12.618633024394512">
        <ele>822.54999999999995</ele>
        <time>2013-09-06T11:07:35Z</time>
      </trkpt>
      <trkpt lat="50.352189000695944" lon="12.61824301443994">
        <ele>819.65999999999997</ele>
        <time>2013-09-06T11:07:41Z</time>
      </trkpt>
      <trkpt lat="50.352037958800793" lon="12.618225999176502">
        <ele>819.17999999999995</ele>
        <time>2013-09-06T11:07:42Z</time>
      </trkpt>
      <trkpt lat="50.351914996281266" lon="12.618204960599542">
        <ele>818.70000000000005</ele>
        <time>2013-09-06T11:07:43Z</time>
      </trkpt>
      <trkpt lat="50.351803014054894" lon="12.618175959214568">
        <ele>817.74000000000001</ele>
        <time>2013-09-06T11:07:44Z</time>
      </trkpt>
      <trkpt lat="50.35166596993804" lon="12.618171013891697">
        <ele>817.25999999999999</ele>
        <time>2013-09-06T11:07:45Z</time>
      </trkpt>
      <trkpt lat="50.351398000493646" lon="12.618151986971498">
        <ele>816.29999999999995</ele>
        <time>2013-09-06T11:07:47Z</time>
      </trkpt>
      <trkpt lat="50.351261962205172" lon="12.618112005293369">
        <ele>815.82000000000005</ele>
        <time>2013-09-06T11:07:48Z</time>
      </trkpt>
      <trkpt lat="50.351121984422207" lon="12.618032963946462">
        <ele>814.85000000000002</ele>
        <time>2013-09-06T11:07:49Z</time>
      </trkpt>
      <trkpt lat="50.351011008024216" lon="12.617931962013245">
        <ele>814.85000000000002</ele>
        <time>2013-09-06T11:07:50Z</time>
      </trkpt>
      <trkpt lat="50.350906988605857" lon="12.617859039455652">
        <ele>814.37</ele>
        <time>2013-09-06T11:07:51Z</time>
      </trkpt>
      <trkpt lat="50.35080699250102" lon="12.617801036685705">
        <ele>813.88999999999999</ele>
        <time>2013-09-06T11:07:52Z</time>
      </trkpt>
      <trkpt lat="50.350714037194848" lon="12.617774968966842">
        <ele>813.40999999999997</ele>
        <time>2013-09-06T11:07:53Z</time>
      </trkpt>
      <trkpt lat="50.350589985027909" lon="12.617774968966842">
        <ele>813.40999999999997</ele>
        <time>2013-09-06T11:07:54Z</time>
      </trkpt>
      <trkpt lat="50.350490994751453" lon="12.617789972573519">
        <ele>812.92999999999995</ele>
        <time>2013-09-06T11:07:55Z</time>
      </trkpt>
      <trkpt lat="50.350384963676333" lon="12.617824003100395">
        <ele>812.45000000000005</ele>
        <time>2013-09-06T11:07:56Z</time>
      </trkpt>
      <trkpt lat="50.35029100254178" lon="12.617854010313749">
        <ele>811.97000000000003</ele>
        <time>2013-09-06T11:07:57Z</time>
      </trkpt>
      <trkpt lat="50.349991014227271" lon="12.617980996146798">
        <ele>810.52999999999997</ele>
        <time>2013-09-06T11:08:03Z</time>
      </trkpt>
      <trkpt lat="50.34994600340724" lon="12.617983007803559">
        <ele>809.09000000000003</ele>
        <time>2013-09-06T11:08:13Z</time>
      </trkpt>
      <trkpt lat="50.349961007013917" lon="12.61796498671174">
        <ele>809.09000000000003</ele>
        <time>2013-09-06T11:08:34Z</time>
      </trkpt>
      <trkpt lat="50.349977016448975" lon="12.617939002811909">
        <ele>809.09000000000003</ele>
        <time>2013-09-06T11:09:15Z</time>
      </trkpt>
      <trkpt lat="50.349948015064001" lon="12.617977978661656">
        <ele>809.57000000000005</ele>
        <time>2013-09-06T11:09:50Z</time>
      </trkpt>
      <trkpt lat="50.349961007013917" lon="12.617957023903728">
        <ele>809.57000000000005</ele>
        <time>2013-09-06T11:10:29Z</time>
      </trkpt>
      <trkpt lat="50.349987996742129" lon="12.617923999205232">
        <ele>809.57000000000005</ele>
        <time>2013-09-06T11:11:10Z</time>
      </trkpt>
      <trkpt lat="50.349997971206903" lon="12.617847975343466">
        <ele>810.04999999999995</ele>
        <time>2013-09-06T11:11:40Z</time>
      </trkpt>
      <trkpt lat="50.350003000348806" lon="12.617776980623603">
        <ele>810.04999999999995</ele>
        <time>2013-09-06T11:12:10Z</time>
      </trkpt>
      <trkpt lat="50.350020015612245" lon="12.617767006158829">
        <ele>810.04999999999995</ele>
        <time>2013-09-06T11:12:41Z</time>
      </trkpt>
      <trkpt lat="50.349967963993549" lon="12.617711015045643">
        <ele>813.40999999999997</ele>
        <time>2013-09-06T11:13:03Z</time>
      </trkpt>
      <trkpt lat="50.349943991750479" lon="12.617678996175528">
        <ele>813.40999999999997</ele>
        <time>2013-09-06T11:13:04Z</time>
      </trkpt>
      <trkpt lat="50.349431019276381" lon="12.617213968187571">
        <ele>814.85000000000002</ele>
        <time>2013-09-06T11:13:11Z</time>
      </trkpt>
      <trkpt lat="50.348904971033335" lon="12.616779031231999">
        <ele>815.34000000000003</ele>
        <time>2013-09-06T11:13:16Z</time>
      </trkpt>
      <trkpt lat="50.348813021555543" lon="12.616668976843357">
        <ele>815.34000000000003</ele>
        <time>2013-09-06T11:13:17Z</time>
      </trkpt>
      <trkpt lat="50.348566006869078" lon="12.616431014612317">
        <ele>814.85000000000002</ele>
        <time>2013-09-06T11:13:20Z</time>
      </trkpt>
      <trkpt lat="50.348474979400635" lon="12.616377035155892">
        <ele>814.37</ele>
        <time>2013-09-06T11:13:21Z</time>
      </trkpt>
      <trkpt lat="50.348270963877439" lon="12.616339987143874">
        <ele>813.88999999999999</ele>
        <time>2013-09-06T11:13:23Z</time>
      </trkpt>
      <trkpt lat="50.348156969994307" lon="12.616335041821003">
        <ele>813.40999999999997</ele>
        <time>2013-09-06T11:13:24Z</time>
      </trkpt>
      <trkpt lat="50.347804008051753" lon="12.616256000474095">
        <ele>811.97000000000003</ele>
        <time>2013-09-06T11:13:27Z</time>
      </trkpt>
      <trkpt lat="50.3475839830935" lon="12.616160027682781">
        <ele>811.49000000000001</ele>
        <time>2013-09-06T11:13:29Z</time>
      </trkpt>
      <trkpt lat="50.347473006695509" lon="12.61609498411417">
        <ele>811.00999999999999</ele>
        <time>2013-09-06T11:13:30Z</time>
      </trkpt>
      <trkpt lat="50.347377033904195" lon="12.615980990231037">
        <ele>811.00999999999999</ele>
        <time>2013-09-06T11:13:31Z</time>
      </trkpt>
      <trkpt lat="50.347274020314217" lon="12.615848975256085">
        <ele>810.52999999999997</ele>
        <time>2013-09-06T11:13:32Z</time>
      </trkpt>
      <trkpt lat="50.34717402420938" lon="12.615713020786643">
        <ele>810.52999999999997</ele>
        <time>2013-09-06T11:13:33Z</time>
      </trkpt>
      <trkpt lat="50.346475979313254" lon="12.614588001742959">
        <ele>808.61000000000001</ele>
        <time>2013-09-06T11:13:41Z</time>
      </trkpt>
      <trkpt lat="50.346304988488555" lon="12.614411981776357">
        <ele>808.61000000000001</ele>
        <time>2013-09-06T11:13:43Z</time>
      </trkpt>
      <trkpt lat="50.34622997045517" lon="12.614364959299564">
        <ele>808.13</ele>
        <time>2013-09-06T11:13:44Z</time>
      </trkpt>
      <trkpt lat="50.346155036240816" lon="12.614341992884874">
        <ele>808.13</ele>
        <time>2013-09-06T11:13:45Z</time>
      </trkpt>
      <trkpt lat="50.346071971580386" lon="12.614345010370016">
        <ele>808.13</ele>
        <time>2013-09-06T11:13:46Z</time>
      </trkpt>
      <trkpt lat="50.345997959375381" lon="12.614362025633454">
        <ele>807.63999999999999</ele>
        <time>2013-09-06T11:13:47Z</time>
      </trkpt>
      <trkpt lat="50.345911961048841" lon="12.614381974563003">
        <ele>807.63999999999999</ele>
        <time>2013-09-06T11:13:48Z</time>
      </trkpt>
      <trkpt lat="50.345419021323323" lon="12.614394966512918">
        <ele>807.15999999999997</ele>
        <time>2013-09-06T11:13:52Z</time>
      </trkpt>
      <trkpt lat="50.345308966934681" lon="12.614341992884874">
        <ele>807.15999999999997</ele>
        <time>2013-09-06T11:13:53Z</time>
      </trkpt>
      <trkpt lat="50.345007972791791" lon="12.614338975399733">
        <ele>807.15999999999997</ele>
        <time>2013-09-06T11:13:56Z</time>
      </trkpt>
      <trkpt lat="50.344902025535703" lon="12.614419022575021">
        <ele>807.15999999999997</ele>
        <time>2013-09-06T11:13:57Z</time>
      </trkpt>
      <trkpt lat="50.344805968925357" lon="12.614486999809742">
        <ele>807.15999999999997</ele>
        <time>2013-09-06T11:13:58Z</time>
      </trkpt>
      <trkpt lat="50.344170033931732" lon="12.614945992827415">
        <ele>808.13</ele>
        <time>2013-09-06T11:14:04Z</time>
      </trkpt>
      <trkpt lat="50.344061991199851" lon="12.614972982555628">
        <ele>808.13</ele>
        <time>2013-09-06T11:14:05Z</time>
      </trkpt>
      <trkpt lat="50.343955038115382" lon="12.614940963685513">
        <ele>808.13</ele>
        <time>2013-09-06T11:14:06Z</time>
      </trkpt>
      <trkpt lat="50.343842972069979" lon="12.614881033077836">
        <ele>808.13</ele>
        <time>2013-09-06T11:14:07Z</time>
      </trkpt>
      <trkpt lat="50.343739036470652" lon="12.614800985902548">
        <ele>808.61000000000001</ele>
        <time>2013-09-06T11:14:08Z</time>
      </trkpt>
      <trkpt lat="50.343101006001234" lon="12.614464033395052">
        <ele>810.04999999999995</ele>
        <time>2013-09-06T11:14:14Z</time>
      </trkpt>
      <trkpt lat="50.342873018234968" lon="12.614435032010078">
        <ele>809.57000000000005</ele>
        <time>2013-09-06T11:14:16Z</time>
      </trkpt>
      <trkpt lat="50.342762041836977" lon="12.614433020353317">
        <ele>810.04999999999995</ele>
        <time>2013-09-06T11:14:17Z</time>
      </trkpt>
      <trkpt lat="50.342648969963193" lon="12.61446001008153">
        <ele>809.57000000000005</ele>
        <time>2013-09-06T11:14:18Z</time>
      </trkpt>
      <trkpt lat="50.342538999393582" lon="12.614500997588038">
        <ele>809.57000000000005</ele>
        <time>2013-09-06T11:14:19Z</time>
      </trkpt>
      <trkpt lat="50.342429028823972" lon="12.614586995914578">
        <ele>809.57000000000005</ele>
        <time>2013-09-06T11:14:20Z</time>
      </trkpt>
      <trkpt lat="50.342321991920471" lon="12.614695960655808">
        <ele>809.09000000000003</ele>
        <time>2013-09-06T11:14:21Z</time>
      </trkpt>
      <trkpt lat="50.342220989987254" lon="12.614825963973999">
        <ele>809.09000000000003</ele>
        <time>2013-09-06T11:14:22Z</time>
      </trkpt>
      <trkpt lat="50.341732995584607" lon="12.615351006388664">
        <ele>809.09000000000003</ele>
        <time>2013-09-06T11:14:27Z</time>
      </trkpt>
      <trkpt lat="50.341625036671758" lon="12.615418983623385">
        <ele>809.09000000000003</ele>
        <time>2013-09-06T11:14:28Z</time>
      </trkpt>
      <trkpt lat="50.3415019903332" lon="12.615468017756939">
        <ele>809.09000000000003</ele>
        <time>2013-09-06T11:14:29Z</time>
      </trkpt>
      <trkpt lat="50.340588027611375" lon="12.615789966657758">
        <ele>807.15999999999997</ele>
        <time>2013-09-06T11:14:36Z</time>
      </trkpt>
      <trkpt lat="50.340422987937927" lon="12.615802958607674">
        <ele>809.09000000000003</ele>
        <time>2013-09-06T11:14:37Z</time>
      </trkpt>
      <trkpt lat="50.339293023571372" lon="12.615635991096497">
        <ele>807.15999999999997</ele>
        <time>2013-09-06T11:14:44Z</time>
      </trkpt>
      <trkpt lat="50.337727032601833" lon="12.615404985845089">
        <ele>807.15999999999997</ele>
        <time>2013-09-06T11:14:54Z</time>
      </trkpt>
      <trkpt lat="50.33759300597012" lon="12.615334996953607">
        <ele>807.63999999999999</ele>
        <time>2013-09-06T11:14:55Z</time>
      </trkpt>
      <trkpt lat="50.337456967681646" lon="12.615252016112208">
        <ele>807.63999999999999</ele>
        <time>2013-09-06T11:14:56Z</time>
      </trkpt>
      <trkpt lat="50.337180029600859" lon="12.615010030567646">
        <ele>807.63999999999999</ele>
        <time>2013-09-06T11:14:58Z</time>
      </trkpt>
      <trkpt lat="50.336697986349463" lon="12.614553971216083">
        <ele>805.72000000000003</ele>
        <time>2013-09-06T11:15:02Z</time>
      </trkpt>
      <trkpt lat="50.336566977202892" lon="12.614494962617755">
        <ele>804.75999999999999</ele>
        <time>2013-09-06T11:15:03Z</time>
      </trkpt>
      <trkpt lat="50.336438985541463" lon="12.614463027566671">
        <ele>803.79999999999995</ele>
        <time>2013-09-06T11:15:04Z</time>
      </trkpt>
      <trkpt lat="50.336295990273356" lon="12.614453975111246">
        <ele>802.84000000000003</ele>
        <time>2013-09-06T11:15:05Z</time>
      </trkpt>
      <trkpt lat="50.336151989176869" lon="12.614441988989711">
        <ele>801.88</ele>
        <time>2013-09-06T11:15:06Z</time>
      </trkpt>
      <trkpt lat="50.335582019761205" lon="12.614394966512918">
        <ele>798.99000000000001</ele>
        <time>2013-09-06T11:15:10Z</time>
      </trkpt>
      <trkpt lat="50.335440030321479" lon="12.614258006215096">
        <ele>799.95000000000005</ele>
        <time>2013-09-06T11:15:11Z</time>
      </trkpt>
      <trkpt lat="50.335341962054372" lon="12.614149041473866">
        <ele>798.50999999999999</ele>
        <time>2013-09-06T11:15:12Z</time>
      </trkpt>
      <trkpt lat="50.335243977606297" lon="12.614005040377378">
        <ele>798.50999999999999</ele>
        <time>2013-09-06T11:15:13Z</time>
      </trkpt>
      <trkpt lat="50.33514398150146" lon="12.613850980997086">
        <ele>798.02999999999997</ele>
        <time>2013-09-06T11:15:14Z</time>
      </trkpt>
      <trkpt lat="50.334684988483787" lon="12.613033996894956">
        <ele>797.07000000000005</ele>
        <time>2013-09-06T11:15:19Z</time>
      </trkpt>
      <trkpt lat="50.333716040477157" lon="12.611609995365143">
        <ele>797.54999999999995</ele>
        <time>2013-09-06T11:15:28Z</time>
      </trkpt>
      <trkpt lat="50.333593999966979" lon="12.611479992046952">
        <ele>796.59000000000003</ele>
        <time>2013-09-06T11:15:29Z</time>
      </trkpt>
      <trkpt lat="50.332808028906584" lon="12.610867023468018">
        <ele>792.74000000000001</ele>
        <time>2013-09-06T11:15:35Z</time>
      </trkpt>
      <trkpt lat="50.332694035023451" lon="12.610732996836305">
        <ele>793.22000000000003</ele>
        <time>2013-09-06T11:15:36Z</time>
      </trkpt>
      <trkpt lat="50.331573961302638" lon="12.609058041125536">
        <ele>780.73000000000002</ele>
        <time>2013-09-06T11:15:47Z</time>
      </trkpt>
      <trkpt lat="50.331462984904647" lon="12.608909010887146">
        <ele>779.76999999999998</ele>
        <time>2013-09-06T11:15:48Z</time>
      </trkpt>
      <trkpt lat="50.33131998963654" lon="12.608812032267451">
        <ele>776.88</ele>
        <time>2013-09-06T11:15:49Z</time>
      </trkpt>
      <trkpt lat="50.331169031560421" lon="12.608752017840743">
        <ele>774</ele>
        <time>2013-09-06T11:15:50Z</time>
      </trkpt>
      <trkpt lat="50.331027964130044" lon="12.608721004799008">
        <ele>773.03999999999996</ele>
        <time>2013-09-06T11:15:51Z</time>
      </trkpt>
      <trkpt lat="50.330878011882305" lon="12.608737014234066">
        <ele>771.60000000000002</ele>
        <time>2013-09-06T11:15:52Z</time>
      </trkpt>
      <trkpt lat="50.330714983865619" lon="12.608799040317535">
        <ele>768.71000000000004</ele>
        <time>2013-09-06T11:15:53Z</time>
      </trkpt>
      <trkpt lat="50.33056603744626" lon="12.608884032815695">
        <ele>767.75</ele>
        <time>2013-09-06T11:15:54Z</time>
      </trkpt>
      <trkpt lat="50.330424970015883" lon="12.608972964808345">
        <ele>765.83000000000004</ele>
        <time>2013-09-06T11:15:55Z</time>
      </trkpt>
      <trkpt lat="50.330160018056631" lon="12.609179997816682">
        <ele>762.46000000000004</ele>
        <time>2013-09-06T11:15:57Z</time>
      </trkpt>
      <trkpt lat="50.329794986173511" lon="12.609528014436364">
        <ele>758.62</ele>
        <time>2013-09-06T11:16:00Z</time>
      </trkpt>
      <trkpt lat="50.329673029482365" lon="12.609608983621001">
        <ele>757.65999999999997</ele>
        <time>2013-09-06T11:16:01Z</time>
      </trkpt>
      <trkpt lat="50.329544031992555" lon="12.609664974734187">
        <ele>756.69000000000005</ele>
        <time>2013-09-06T11:16:02Z</time>
      </trkpt>
      <trkpt lat="50.329417968168855" lon="12.609702022746205">
        <ele>755.25</ele>
        <time>2013-09-06T11:16:03Z</time>
      </trkpt>
      <trkpt lat="50.329290982335806" lon="12.609695987775922">
        <ele>754.76999999999998</ele>
        <time>2013-09-06T11:16:04Z</time>
      </trkpt>
      <trkpt lat="50.329173970967531" lon="12.609662963077426">
        <ele>753.80999999999995</ele>
        <time>2013-09-06T11:16:05Z</time>
      </trkpt>
      <trkpt lat="50.329047990962863" lon="12.609609989449382">
        <ele>752.37</ele>
        <time>2013-09-06T11:16:06Z</time>
      </trkpt>
      <trkpt lat="50.328033026307821" lon="12.608869029209018">
        <ele>738.90999999999997</ele>
        <time>2013-09-06T11:16:14Z</time>
      </trkpt>
      <trkpt lat="50.327906040474772" lon="12.608823012560606">
        <ele>736.99000000000001</ele>
        <time>2013-09-06T11:16:15Z</time>
      </trkpt>
      <trkpt lat="50.327783999964595" lon="12.608830975368619">
        <ele>735.54999999999995</ele>
        <time>2013-09-06T11:16:16Z</time>
      </trkpt>
      <trkpt lat="50.327669000253081" lon="12.608883026987314">
        <ele>733.62</ele>
        <time>2013-09-06T11:16:17Z</time>
      </trkpt>
      <trkpt lat="50.327561963349581" lon="12.608966007828712">
        <ele>732.65999999999997</ele>
        <time>2013-09-06T11:16:18Z</time>
      </trkpt>
      <trkpt lat="50.327460961416364" lon="12.609043959528208">
        <ele>731.22000000000003</ele>
        <time>2013-09-06T11:16:19Z</time>
      </trkpt>
      <trkpt lat="50.326687982305884" lon="12.609758013859391">
        <ele>723.52999999999997</ele>
        <time>2013-09-06T11:16:27Z</time>
      </trkpt>
      <trkpt lat="50.326585974544287" lon="12.609807970002294">
        <ele>722.57000000000005</ele>
        <time>2013-09-06T11:16:28Z</time>
      </trkpt>
      <trkpt lat="50.326474998146296" lon="12.609807970002294">
        <ele>722.09000000000003</ele>
        <time>2013-09-06T11:16:29Z</time>
      </trkpt>
      <trkpt lat="50.326358992606401" lon="12.609810987487435">
        <ele>721.13</ele>
        <time>2013-09-06T11:16:30Z</time>
      </trkpt>
      <trkpt lat="50.326238963752985" lon="12.609782991930842">
        <ele>720.15999999999997</ele>
        <time>2013-09-06T11:16:31Z</time>
      </trkpt>
      <trkpt lat="50.326121030375361" lon="12.609759019687772">
        <ele>718.72000000000003</ele>
        <time>2013-09-06T11:16:32Z</time>
      </trkpt>
      <trkpt lat="50.325446035712957" lon="12.609402034431696">
        <ele>713.44000000000005</ele>
        <time>2013-09-06T11:16:38Z</time>
      </trkpt>
      <trkpt lat="50.32534503377974" lon="12.609313018620014">
        <ele>712.95000000000005</ele>
        <time>2013-09-06T11:16:39Z</time>
      </trkpt>
      <trkpt lat="50.324843041598797" lon="12.608815971761942">
        <ele>709.59000000000003</ele>
        <time>2013-09-06T11:16:44Z</time>
      </trkpt>
      <trkpt lat="50.324760982766747" lon="12.608700972050428">
        <ele>709.11000000000001</ele>
        <time>2013-09-06T11:16:45Z</time>
      </trkpt>
      <trkpt lat="50.324493013322353" lon="12.608440965414047">
        <ele>706.71000000000004</ele>
        <time>2013-09-06T11:16:48Z</time>
      </trkpt>
      <trkpt lat="50.324382958933711" lon="12.608362007886171">
        <ele>706.23000000000002</ele>
        <time>2013-09-06T11:16:49Z</time>
      </trkpt>
      <trkpt lat="50.323644010350108" lon="12.607923969626427">
        <ele>700.46000000000004</ele>
        <time>2013-09-06T11:16:55Z</time>
      </trkpt>
      <trkpt lat="50.323531022295356" lon="12.607901003211737">
        <ele>699.5</ele>
        <time>2013-09-06T11:16:56Z</time>
      </trkpt>
      <trkpt lat="50.323420967906713" lon="12.607905026525259">
        <ele>698.04999999999995</ele>
        <time>2013-09-06T11:16:57Z</time>
      </trkpt>
      <trkpt lat="50.323323989287019" lon="12.607945008203387">
        <ele>695.64999999999998</ele>
        <time>2013-09-06T11:16:58Z</time>
      </trkpt>
      <trkpt lat="50.323216030374169" lon="12.608028994873166">
        <ele>694.69000000000005</ele>
        <time>2013-09-06T11:16:59Z</time>
      </trkpt>
      <trkpt lat="50.323117040097713" lon="12.608127985149622">
        <ele>693.25</ele>
        <time>2013-09-06T11:17:00Z</time>
      </trkpt>
      <trkpt lat="50.323000028729439" lon="12.6082500256598">
        <ele>692.28999999999996</ele>
        <time>2013-09-06T11:17:01Z</time>
      </trkpt>
      <trkpt lat="50.321691026911139" lon="12.609388958662748">
        <ele>679.78999999999996</ele>
        <time>2013-09-06T11:17:11Z</time>
      </trkpt>
      <trkpt lat="50.321536967530847" lon="12.609462970867753">
        <ele>679.30999999999995</ele>
        <time>2013-09-06T11:17:12Z</time>
      </trkpt>
      <trkpt lat="50.321382991969585" lon="12.609516028314829">
        <ele>678.35000000000002</ele>
        <time>2013-09-06T11:17:13Z</time>
      </trkpt>
      <trkpt lat="50.32012403011322" lon="12.609832026064396">
        <ele>667.76999999999998</ele>
        <time>2013-09-06T11:17:21Z</time>
      </trkpt>
      <trkpt lat="50.319986985996366" lon="12.609918024390936">
        <ele>667.28999999999996</ele>
        <time>2013-09-06T11:17:22Z</time>
      </trkpt>
      <trkpt lat="50.319560011848807" lon="12.610140983015299">
        <ele>663.45000000000005</ele>
        <time>2013-09-06T11:17:25Z</time>
      </trkpt>
      <trkpt lat="50.319401007145643" lon="12.610174007713795">
        <ele>662.00999999999999</ele>
        <time>2013-09-06T11:17:26Z</time>
      </trkpt>
      <trkpt lat="50.318073984235525" lon="12.610496040433645">
        <ele>652.87</ele>
        <time>2013-09-06T11:17:35Z</time>
      </trkpt>
      <trkpt lat="50.317950015887618" lon="12.610496962442994">
        <ele>651.90999999999997</ele>
        <time>2013-09-06T11:17:36Z</time>
      </trkpt>
      <trkpt lat="50.317840967327356" lon="12.610473996028304">
        <ele>650.47000000000003</ele>
        <time>2013-09-06T11:17:37Z</time>
      </trkpt>
      <trkpt lat="50.317564029246569" lon="12.610390009358525">
        <ele>645.17999999999995</ele>
        <time>2013-09-06T11:17:40Z</time>
      </trkpt>
      <trkpt lat="50.317420028150082" lon="12.610257994383574">
        <ele>638.45000000000005</ele>
        <time>2013-09-06T11:17:44Z</time>
      </trkpt>
      <trkpt lat="50.317409969866276" lon="12.610174007713795">
        <ele>636.52999999999997</ele>
        <time>2013-09-06T11:17:45Z</time>
      </trkpt>
      <trkpt lat="50.317419022321701" lon="12.610071999952197">
        <ele>634.61000000000001</ele>
        <time>2013-09-06T11:17:46Z</time>
      </trkpt>
      <trkpt lat="50.31756604090333" lon="12.608839021995664">
        <ele>628.36000000000001</ele>
        <time>2013-09-06T11:17:53Z</time>
      </trkpt>
      <trkpt lat="50.317911962047219" lon="12.606939012184739">
        <ele>621.63</ele>
        <time>2013-09-06T11:18:02Z</time>
      </trkpt>
      <trkpt lat="50.317985974252224" lon="12.606757041066885">
        <ele>621.63</ele>
        <time>2013-09-06T11:18:03Z</time>
      </trkpt>
      <trkpt lat="50.31834002584219" lon="12.605834025889635">
        <ele>618.25999999999999</ele>
        <time>2013-09-06T11:18:08Z</time>
      </trkpt>
      <trkpt lat="50.318390987813473" lon="12.60563101619482">
        <ele>617.77999999999997</ele>
        <time>2013-09-06T11:18:09Z</time>
      </trkpt>
      <trkpt lat="50.318615036085248" lon="12.603952037170529">
        <ele>613.46000000000004</ele>
        <time>2013-09-06T11:18:17Z</time>
      </trkpt>
      <trkpt lat="50.318617969751358" lon="12.603719020262361">
        <ele>610.09000000000003</ele>
        <time>2013-09-06T11:18:18Z</time>
      </trkpt>
      <trkpt lat="50.318582011386752" lon="12.602876974269748">
        <ele>607.21000000000004</ele>
        <time>2013-09-06T11:18:22Z</time>
      </trkpt>
      <trkpt lat="50.318272970616817" lon="12.601631004363298">
        <ele>603.36000000000001</ele>
        <time>2013-09-06T11:18:28Z</time>
      </trkpt>
      <trkpt lat="50.318196024745703" lon="12.601451966911554">
        <ele>601.91999999999996</ele>
        <time>2013-09-06T11:18:29Z</time>
      </trkpt>
      <trkpt lat="50.317857982590795" lon="12.600722992792726">
        <ele>598.08000000000004</ele>
        <time>2013-09-06T11:18:33Z</time>
      </trkpt>
      <trkpt lat="50.317792017012835" lon="12.600523000583053">
        <ele>597.12</ele>
        <time>2013-09-06T11:18:34Z</time>
      </trkpt>
      <trkpt lat="50.317184999585152" lon="12.598942006006837">
        <ele>589.42999999999995</ele>
        <time>2013-09-06T11:18:43Z</time>
      </trkpt>
      <trkpt lat="50.317078968510032" lon="12.59866900742054">
        <ele>587.01999999999998</ele>
        <time>2013-09-06T11:18:46Z</time>
      </trkpt>
      <trkpt lat="50.317086009308696" lon="12.598566999658942">
        <ele>585.58000000000004</ele>
        <time>2013-09-06T11:18:47Z</time>
      </trkpt>
      <trkpt lat="50.317121967673302" lon="12.598471026867628">
        <ele>586.05999999999995</ele>
        <time>2013-09-06T11:18:48Z</time>
      </trkpt>
      <trkpt lat="50.317177958786488" lon="12.59836801327765">
        <ele>584.13999999999999</ele>
        <time>2013-09-06T11:18:49Z</time>
      </trkpt>
      <trkpt lat="50.317240990698338" lon="12.598235998302698">
        <ele>584.13999999999999</ele>
        <time>2013-09-06T11:18:50Z</time>
      </trkpt>
      <trkpt lat="50.317591018974781" lon="12.597458995878696">
        <ele>585.10000000000002</ele>
        <time>2013-09-06T11:18:55Z</time>
      </trkpt>
      <trkpt lat="50.317694032564759" lon="12.597313988953829">
        <ele>587.5</ele>
        <time>2013-09-06T11:18:56Z</time>
      </trkpt>
      <trkpt lat="50.31780500896275" lon="12.597190020605922">
        <ele>587.98000000000002</ele>
        <time>2013-09-06T11:18:57Z</time>
      </trkpt>
      <trkpt lat="50.318583017215133" lon="12.5963069871068">
        <ele>591.83000000000004</ele>
        <time>2013-09-06T11:19:04Z</time>
      </trkpt>
      <trkpt lat="50.318649988621473" lon="12.596168015152216">
        <ele>592.30999999999995</ele>
        <time>2013-09-06T11:19:05Z</time>
      </trkpt>
      <trkpt lat="50.318800024688244" lon="12.595667028799653">
        <ele>594.71000000000004</ele>
        <time>2013-09-06T11:19:09Z</time>
      </trkpt>
      <trkpt lat="50.31877102330327" lon="12.595558986067772">
        <ele>595.66999999999996</ele>
        <time>2013-09-06T11:19:10Z</time>
      </trkpt>
      <trkpt lat="50.318720983341336" lon="12.595448009669781">
        <ele>596.63999999999999</ele>
        <time>2013-09-06T11:19:11Z</time>
      </trkpt>
      <trkpt lat="50.318658035248518" lon="12.595335021615028">
        <ele>597.12</ele>
        <time>2013-09-06T11:19:12Z</time>
      </trkpt>
      <trkpt lat="50.318585028871894" lon="12.595199989154935">
        <ele>598.08000000000004</ele>
        <time>2013-09-06T11:19:13Z</time>
      </trkpt>
      <trkpt lat="50.318258972838521" lon="12.594431033357978">
        <ele>601.44000000000005</ele>
        <time>2013-09-06T11:19:18Z</time>
      </trkpt>
      <trkpt lat="50.31823399476707" lon="12.594277979806066">
        <ele>601.91999999999996</ele>
        <time>2013-09-06T11:19:19Z</time>
      </trkpt>
      <trkpt lat="50.318225026130676" lon="12.594138002023101">
        <ele>601.91999999999996</ele>
        <time>2013-09-06T11:19:20Z</time>
      </trkpt>
      <trkpt lat="50.318241035565734" lon="12.594003975391388">
        <ele>601.44000000000005</ele>
        <time>2013-09-06T11:19:21Z</time>
      </trkpt>
      <trkpt lat="50.318264001980424" lon="12.59387799538672">
        <ele>601.91999999999996</ele>
        <time>2013-09-06T11:19:22Z</time>
      </trkpt>
      <trkpt lat="50.3182980325073" lon="12.593738017603755">
        <ele>601.91999999999996</ele>
        <time>2013-09-06T11:19:23Z</time>
      </trkpt>
      <trkpt lat="50.318350000306964" lon="12.593585969880223">
        <ele>602.39999999999998</ele>
        <time>2013-09-06T11:19:24Z</time>
      </trkpt>
      <trkpt lat="50.318400962278247" lon="12.593435011804104">
        <ele>603.36000000000001</ele>
        <time>2013-09-06T11:19:25Z</time>
      </trkpt>
      <trkpt lat="50.318531971424818" lon="12.593099987134337">
        <ele>604.33000000000004</ele>
        <time>2013-09-06T11:19:27Z</time>
      </trkpt>
      <trkpt lat="50.318626016378403" lon="12.592965038493276">
        <ele>604.80999999999995</ele>
        <time>2013-09-06T11:19:28Z</time>
      </trkpt>
      <trkpt lat="50.318718971684575" lon="12.592848027125001">
        <ele>605.28999999999996</ele>
        <time>2013-09-06T11:19:29Z</time>
      </trkpt>
      <trkpt lat="50.318819973617792" lon="12.592705031856894">
        <ele>605.28999999999996</ele>
        <time>2013-09-06T11:19:30Z</time>
      </trkpt>
      <trkpt lat="50.318911001086235" lon="12.592556001618505">
        <ele>605.76999999999998</ele>
        <time>2013-09-06T11:19:31Z</time>
      </trkpt>
      <trkpt lat="50.318989958614111" lon="12.592389034107327">
        <ele>605.76999999999998</ele>
        <time>2013-09-06T11:19:32Z</time>
      </trkpt>
      <trkpt lat="50.319045027717948" lon="12.592188036069274">
        <ele>605.76999999999998</ele>
        <time>2013-09-06T11:19:33Z</time>
      </trkpt>
      <trkpt lat="50.319085009396076" lon="12.591990977525711">
        <ele>605.28999999999996</ele>
        <time>2013-09-06T11:19:34Z</time>
      </trkpt>
      <trkpt lat="50.319104958325624" lon="12.59177497588098">
        <ele>605.28999999999996</ele>
        <time>2013-09-06T11:19:35Z</time>
      </trkpt>
      <trkpt lat="50.319125996902585" lon="12.591551011428237">
        <ele>605.28999999999996</ele>
        <time>2013-09-06T11:19:36Z</time>
      </trkpt>
      <trkpt lat="50.319274021312594" lon="12.590438984334469">
        <ele>606.25</ele>
        <time>2013-09-06T11:19:41Z</time>
      </trkpt>
      <trkpt lat="50.319295981898904" lon="12.590213008224964">
        <ele>607.21000000000004</ele>
        <time>2013-09-06T11:19:42Z</time>
      </trkpt>
      <trkpt lat="50.31965103931725" lon="12.588229011744261">
        <ele>615.38</ele>
        <time>2013-09-06T11:19:51Z</time>
      </trkpt>
      <trkpt lat="50.319698983803391" lon="12.587843025103211">
        <ele>618.25999999999999</ele>
        <time>2013-09-06T11:19:53Z</time>
      </trkpt>
      <trkpt lat="50.319680040702224" lon="12.587713021785021">
        <ele>617.29999999999995</ele>
        <time>2013-09-06T11:19:54Z</time>
      </trkpt>
      <trkpt lat="50.319637041538954" lon="12.587611014023423">
        <ele>616.34000000000003</ele>
        <time>2013-09-06T11:19:55Z</time>
      </trkpt>
      <trkpt lat="50.319591024890542" lon="12.587521998211741">
        <ele>615.86000000000001</ele>
        <time>2013-09-06T11:19:56Z</time>
      </trkpt>
      <trkpt lat="50.319526987150311" lon="12.587465001270175">
        <ele>615.38</ele>
        <time>2013-09-06T11:19:57Z</time>
      </trkpt>
      <trkpt lat="50.319447023794055" lon="12.587429964914918">
        <ele>614.41999999999996</ele>
        <time>2013-09-06T11:19:58Z</time>
      </trkpt>
      <trkpt lat="50.319366976618767" lon="12.587382020428777">
        <ele>613.94000000000005</ele>
        <time>2013-09-06T11:19:59Z</time>
      </trkpt>
      <trkpt lat="50.31853599473834" lon="12.5868109613657">
        <ele>607.69000000000005</ele>
        <time>2013-09-06T11:20:08Z</time>
      </trkpt>
      <trkpt lat="50.318456031382084" lon="12.586689004674554">
        <ele>607.21000000000004</ele>
        <time>2013-09-06T11:20:09Z</time>
      </trkpt>
      <trkpt lat="50.318374978378415" lon="12.586565036326647">
        <ele>606.73000000000002</ele>
        <time>2013-09-06T11:20:10Z</time>
      </trkpt>
      <trkpt lat="50.318294009193778" lon="12.58642103523016">
        <ele>605.76999999999998</ele>
        <time>2013-09-06T11:20:11Z</time>
      </trkpt>
      <trkpt lat="50.318209016695619" lon="12.586274016648531">
        <ele>605.28999999999996</ele>
        <time>2013-09-06T11:20:12Z</time>
      </trkpt>
      <trkpt lat="50.31812503002584" lon="12.58610101416707">
        <ele>605.28999999999996</ele>
        <time>2013-09-06T11:20:13Z</time>
      </trkpt>
      <trkpt lat="50.318027967587113" lon="12.585899010300636">
        <ele>606.25</ele>
        <time>2013-09-06T11:20:14Z</time>
      </trkpt>
      <trkpt lat="50.31795596703887" lon="12.585690971463919">
        <ele>605.28999999999996</ele>
        <time>2013-09-06T11:20:15Z</time>
      </trkpt>
      <trkpt lat="50.317541984841228" lon="12.584176026284695">
        <ele>601.91999999999996</ele>
        <time>2013-09-06T11:20:22Z</time>
      </trkpt>
      <trkpt lat="50.317533016204834" lon="12.583933034911752">
        <ele>601.44000000000005</ele>
        <time>2013-09-06T11:20:23Z</time>
      </trkpt>
      <trkpt lat="50.317531004548073" lon="12.583453003317118">
        <ele>600</ele>
        <time>2013-09-06T11:20:25Z</time>
      </trkpt>
      <trkpt lat="50.317364037036896" lon="12.580980006605387">
        <ele>589.90999999999997</ele>
        <time>2013-09-06T11:20:35Z</time>
      </trkpt>
      <trkpt lat="50.317105036228895" lon="12.5788380112499">
        <ele>579.33000000000004</ele>
        <time>2013-09-06T11:20:44Z</time>
      </trkpt>
      <trkpt lat="50.317061031237245" lon="12.577170012518764">
        <ele>569.72000000000003</ele>
        <time>2013-09-06T11:20:52Z</time>
      </trkpt>
      <trkpt lat="50.317032029852271" lon="12.577041015028954">
        <ele>568.27999999999997</ele>
        <time>2013-09-06T11:20:53Z</time>
      </trkpt>
      <trkpt lat="50.31698802486062" lon="12.57690598256886">
        <ele>567.32000000000005</ele>
        <time>2013-09-06T11:20:54Z</time>
      </trkpt>
      <trkpt lat="50.316928010433912" lon="12.57677698507905">
        <ele>566.35000000000002</ele>
        <time>2013-09-06T11:20:55Z</time>
      </trkpt>
      <trkpt lat="50.316841006278992" lon="12.576673971489072">
        <ele>565.38999999999999</ele>
        <time>2013-09-06T11:20:56Z</time>
      </trkpt>
      <trkpt lat="50.316784009337425" lon="12.576534999534488">
        <ele>562.99000000000001</ele>
        <time>2013-09-06T11:20:57Z</time>
      </trkpt>
      <trkpt lat="50.316719971597195" lon="12.576370965689421">
        <ele>562.02999999999997</ele>
        <time>2013-09-06T11:20:58Z</time>
      </trkpt>
      <trkpt lat="50.316078001633286" lon="12.574672037735581">
        <ele>562.02999999999997</ele>
        <time>2013-09-06T11:21:06Z</time>
      </trkpt>
      <trkpt lat="50.315750017762184" lon="12.574017997831106">
        <ele>568.27999999999997</ele>
        <time>2013-09-06T11:21:09Z</time>
      </trkpt>
      <trkpt lat="50.315645998343825" lon="12.573793027549982">
        <ele>572.60000000000002</ele>
        <time>2013-09-06T11:21:10Z</time>
      </trkpt>
      <trkpt lat="50.315365958958864" lon="12.573091965168715">
        <ele>580.28999999999996</ele>
        <time>2013-09-06T11:21:14Z</time>
      </trkpt>
      <trkpt lat="50.315348021686077" lon="12.572933966293931">
        <ele>581.25</ele>
        <time>2013-09-06T11:21:15Z</time>
      </trkpt>
      <trkpt lat="50.315337041392922" lon="12.572592990472913">
        <ele>583.65999999999997</ele>
        <time>2013-09-06T11:21:17Z</time>
      </trkpt>
      <trkpt lat="50.315316002815962" lon="12.572455024346709">
        <ele>586.53999999999996</ele>
        <time>2013-09-06T11:21:18Z</time>
      </trkpt>
      <trkpt lat="50.315150963142514" lon="12.572273975238204">
        <ele>588.95000000000005</ele>
        <time>2013-09-06T11:21:20Z</time>
      </trkpt>
      <trkpt lat="50.315050967037678" lon="12.572199963033199">
        <ele>589.42999999999995</ele>
        <time>2013-09-06T11:21:21Z</time>
      </trkpt>
      <trkpt lat="50.314934961497784" lon="12.572159981355071">
        <ele>589.90999999999997</ele>
        <time>2013-09-06T11:21:22Z</time>
      </trkpt>
      <trkpt lat="50.314800012856722" lon="12.572116982191801">
        <ele>591.35000000000002</ele>
        <time>2013-09-06T11:21:23Z</time>
      </trkpt>
      <trkpt lat="50.314655005931854" lon="12.572034001350403">
        <ele>592.30999999999995</ele>
        <time>2013-09-06T11:21:24Z</time>
      </trkpt>
      <trkpt lat="50.314501030370593" lon="12.571881031617522">
        <ele>595.66999999999996</ele>
        <time>2013-09-06T11:21:25Z</time>
      </trkpt>
      <trkpt lat="50.314376978203654" lon="12.571739964187145">
        <ele>596.63999999999999</ele>
        <time>2013-09-06T11:21:26Z</time>
      </trkpt>
      <trkpt lat="50.314270025119185" lon="12.571592023596168">
        <ele>597.12</ele>
        <time>2013-09-06T11:21:27Z</time>
      </trkpt>
      <trkpt lat="50.31417396850884" lon="12.571436958387494">
        <ele>597.60000000000002</ele>
        <time>2013-09-06T11:21:28Z</time>
      </trkpt>
      <trkpt lat="50.314105991274118" lon="12.571249958127737">
        <ele>598.55999999999995</ele>
        <time>2013-09-06T11:21:29Z</time>
      </trkpt>
      <trkpt lat="50.314057962968946" lon="12.571040997281671">
        <ele>600</ele>
        <time>2013-09-06T11:21:30Z</time>
      </trkpt>
      <trkpt lat="50.313993003219366" lon="12.570844022557139">
        <ele>601.44000000000005</ele>
        <time>2013-09-06T11:21:31Z</time>
      </trkpt>
      <trkpt lat="50.313942963257432" lon="12.570649981498718">
        <ele>602.39999999999998</ele>
        <time>2013-09-06T11:21:32Z</time>
      </trkpt>
      <trkpt lat="50.313902981579304" lon="12.570444038137794">
        <ele>602.88</ele>
        <time>2013-09-06T11:21:33Z</time>
      </trkpt>
      <trkpt lat="50.313865011557937" lon="12.570213032886386">
        <ele>603.85000000000002</ele>
        <time>2013-09-06T11:21:34Z</time>
      </trkpt>
      <trkpt lat="50.313685974106193" lon="12.568705966696143">
        <ele>603.85000000000002</ele>
        <time>2013-09-06T11:21:41Z</time>
      </trkpt>
      <trkpt lat="50.313642974942923" lon="12.568562971428037">
        <ele>604.33000000000004</ele>
        <time>2013-09-06T11:21:42Z</time>
      </trkpt>
      <trkpt lat="50.313510037958622" lon="12.568474039435387">
        <ele>602.88</ele>
        <time>2013-09-06T11:21:43Z</time>
      </trkpt>
      <trkpt lat="50.313406018540263" lon="12.568431962281466">
        <ele>602.88</ele>
        <time>2013-09-06T11:21:44Z</time>
      </trkpt>
      <trkpt lat="50.313300993293524" lon="12.568426011130214">
        <ele>603.36000000000001</ele>
        <time>2013-09-06T11:21:45Z</time>
      </trkpt>
      <trkpt lat="50.313203008845448" lon="12.56841897033155">
        <ele>603.36000000000001</ele>
        <time>2013-09-06T11:21:46Z</time>
      </trkpt>
      <trkpt lat="50.312878964468837" lon="12.568266000598669">
        <ele>604.80999999999995</ele>
        <time>2013-09-06T11:21:49Z</time>
      </trkpt>
      <trkpt lat="50.312578976154327" lon="12.567959977313876">
        <ele>605.76999999999998</ele>
        <time>2013-09-06T11:21:52Z</time>
      </trkpt>
      <trkpt lat="50.312510998919606" lon="12.567770965397358">
        <ele>605.28999999999996</ele>
        <time>2013-09-06T11:21:53Z</time>
      </trkpt>
      <trkpt lat="50.311585972085595" lon="12.566302958875895">
        <ele>604.80999999999995</ele>
        <time>2013-09-06T11:22:04Z</time>
      </trkpt>
      <trkpt lat="50.310798995196819" lon="12.564989011734724">
        <ele>603.36000000000001</ele>
        <time>2013-09-06T11:22:14Z</time>
      </trkpt>
      <trkpt lat="50.310761025175452" lon="12.564826989546418">
        <ele>602.88</ele>
        <time>2013-09-06T11:22:15Z</time>
      </trkpt>
      <trkpt lat="50.310539994388819" lon="12.564158029854298">
        <ele>600.48000000000002</ele>
        <time>2013-09-06T11:22:19Z</time>
      </trkpt>
      <trkpt lat="50.309955021366477" lon="12.562384000048041">
        <ele>597.12</ele>
        <time>2013-09-06T11:22:29Z</time>
      </trkpt>
      <trkpt lat="50.309867011383176" lon="12.562238993123174">
        <ele>597.60000000000002</ele>
        <time>2013-09-06T11:22:30Z</time>
      </trkpt>
      <trkpt lat="50.309771960601211" lon="12.562102032825351">
        <ele>598.55999999999995</ele>
        <time>2013-09-06T11:22:31Z</time>
      </trkpt>
      <trkpt lat="50.309656960889697" lon="12.561991978436708">
        <ele>597.60000000000002</ele>
        <time>2013-09-06T11:22:32Z</time>
      </trkpt>
      <trkpt lat="50.309550007805228" lon="12.561893993988633">
        <ele>597.12</ele>
        <time>2013-09-06T11:22:33Z</time>
      </trkpt>
      <trkpt lat="50.308924969285727" lon="12.561400970444083">
        <ele>597.12</ele>
        <time>2013-09-06T11:22:39Z</time>
      </trkpt>
      <trkpt lat="50.308691030368209" lon="12.561281025409698">
        <ele>598.08000000000004</ele>
        <time>2013-09-06T11:22:41Z</time>
      </trkpt>
      <trkpt lat="50.30858701094985" lon="12.561192009598017">
        <ele>598.08000000000004</ele>
        <time>2013-09-06T11:22:42Z</time>
      </trkpt>
      <trkpt lat="50.308490032330155" lon="12.561082039028406">
        <ele>598.08000000000004</ele>
        <time>2013-09-06T11:22:43Z</time>
      </trkpt>
      <trkpt lat="50.308404034003615" lon="12.560964021831751">
        <ele>598.08000000000004</ele>
        <time>2013-09-06T11:22:44Z</time>
      </trkpt>
      <trkpt lat="50.308318035677075" lon="12.560832006856799">
        <ele>598.55999999999995</ele>
        <time>2013-09-06T11:22:45Z</time>
      </trkpt>
      <trkpt lat="50.307545978575945" lon="12.55946097895503">
        <ele>598.08000000000004</ele>
        <time>2013-09-06T11:22:55Z</time>
      </trkpt>
      <trkpt lat="50.307387979701161" lon="12.559126038104296">
        <ele>599.03999999999996</ele>
        <time>2013-09-06T11:23:00Z</time>
      </trkpt>
      <trkpt lat="50.307413963600993" lon="12.559057977050543">
        <ele>600.48000000000002</ele>
        <time>2013-09-06T11:23:01Z</time>
      </trkpt>
      <trkpt lat="50.307451011613011" lon="12.559000980108976">
        <ele>600</ele>
        <time>2013-09-06T11:23:02Z</time>
      </trkpt>
      <trkpt lat="50.307892989367247" lon="12.55823596380651">
        <ele>600</ele>
        <time>2013-09-06T11:23:09Z</time>
      </trkpt>
      <trkpt lat="50.307945962995291" lon="12.558076037093997">
        <ele>599.51999999999998</ele>
        <time>2013-09-06T11:23:10Z</time>
      </trkpt>
      <trkpt lat="50.307979993522167" lon="12.557896999642253">
        <ele>600.96000000000004</ele>
        <time>2013-09-06T11:23:11Z</time>
      </trkpt>
      <trkpt lat="50.307978987693787" lon="12.557711005210876">
        <ele>601.44000000000005</ele>
        <time>2013-09-06T11:23:12Z</time>
      </trkpt>
      <trkpt lat="50.307959038764238" lon="12.557509001344442">
        <ele>602.88</ele>
        <time>2013-09-06T11:23:13Z</time>
      </trkpt>
      <trkpt lat="50.307933976873755" lon="12.557300962507725">
        <ele>602.88</ele>
        <time>2013-09-06T11:23:14Z</time>
      </trkpt>
      <trkpt lat="50.307896006852388" lon="12.557084960862994">
        <ele>603.36000000000001</ele>
        <time>2013-09-06T11:23:15Z</time>
      </trkpt>
      <trkpt lat="50.307859964668751" lon="12.556863008067012">
        <ele>603.36000000000001</ele>
        <time>2013-09-06T11:23:16Z</time>
      </trkpt>
      <trkpt lat="50.307744964957237" lon="12.554855961352587">
        <ele>607.69000000000005</ele>
        <time>2013-09-06T11:23:25Z</time>
      </trkpt>
      <trkpt lat="50.30789902433753" lon="12.552629979327321">
        <ele>615.38</ele>
        <time>2013-09-06T11:23:35Z</time>
      </trkpt>
      <trkpt lat="50.3079420235008" lon="12.552397968247533">
        <ele>617.29999999999995</ele>
        <time>2013-09-06T11:23:36Z</time>
      </trkpt>
      <trkpt lat="50.308404034003615" lon="12.550176009535789">
        <ele>628.36000000000001</ele>
        <time>2013-09-06T11:23:47Z</time>
      </trkpt>
      <trkpt lat="50.308509981259704" lon="12.549907034263015">
        <ele>628.84000000000003</ele>
        <time>2013-09-06T11:23:49Z</time>
      </trkpt>
      <trkpt lat="50.308548035100102" lon="12.549785999581218">
        <ele>629.32000000000005</ele>
        <time>2013-09-06T11:23:50Z</time>
      </trkpt>
      <trkpt lat="50.308577958494425" lon="12.549676029011607">
        <ele>629.32000000000005</ele>
        <time>2013-09-06T11:23:51Z</time>
      </trkpt>
      <trkpt lat="50.308724977076054" lon="12.548326039686799">
        <ele>632.20000000000005</ele>
        <time>2013-09-06T11:23:59Z</time>
      </trkpt>
      <trkpt lat="50.30891097150743" lon="12.546401973813772">
        <ele>633.64999999999998</ele>
        <time>2013-09-06T11:24:07Z</time>
      </trkpt>
      <trkpt lat="50.308968974277377" lon="12.546214973554015">
        <ele>634.61000000000001</ele>
        <time>2013-09-06T11:24:08Z</time>
      </trkpt>
      <trkpt lat="50.30903703533113" lon="12.546066027134657">
        <ele>635.09000000000003</ele>
        <time>2013-09-06T11:24:09Z</time>
      </trkpt>
      <trkpt lat="50.309128984808922" lon="12.54596795886755">
        <ele>635.57000000000005</ele>
        <time>2013-09-06T11:24:10Z</time>
      </trkpt>
      <trkpt lat="50.3092319983989" lon="12.545939963310957">
        <ele>636.04999999999995</ele>
        <time>2013-09-06T11:24:11Z</time>
      </trkpt>
      <trkpt lat="50.309325959533453" lon="12.545949015766382">
        <ele>636.04999999999995</ele>
        <time>2013-09-06T11:24:12Z</time>
      </trkpt>
      <trkpt lat="50.309412963688374" lon="12.545996960252523">
        <ele>637.00999999999999</ele>
        <time>2013-09-06T11:24:13Z</time>
      </trkpt>
      <trkpt lat="50.309498040005565" lon="12.546085976064205">
        <ele>637.49000000000001</ele>
        <time>2013-09-06T11:24:14Z</time>
      </trkpt>
      <trkpt lat="50.309589989483356" lon="12.546206004917622">
        <ele>637.97000000000003</ele>
        <time>2013-09-06T11:24:15Z</time>
      </trkpt>
      <trkpt lat="50.309683028608561" lon="12.546304995194077">
        <ele>637.97000000000003</ele>
        <time>2013-09-06T11:24:16Z</time>
      </trkpt>
      <trkpt lat="50.309771960601211" lon="12.546380013227463">
        <ele>638.45000000000005</ele>
        <time>2013-09-06T11:24:17Z</time>
      </trkpt>
      <trkpt lat="50.309856031090021" lon="12.546408008784056">
        <ele>638.92999999999995</ele>
        <time>2013-09-06T11:24:18Z</time>
      </trkpt>
      <trkpt lat="50.309907998889685" lon="12.546378001570702">
        <ele>639.40999999999997</ele>
        <time>2013-09-06T11:24:19Z</time>
      </trkpt>
      <trkpt lat="50.309939011931419" lon="12.5462899915874">
        <ele>639.40999999999997</ele>
        <time>2013-09-06T11:24:20Z</time>
      </trkpt>
      <trkpt lat="50.309972036629915" lon="12.546188989654183">
        <ele>639.88999999999999</ele>
        <time>2013-09-06T11:24:21Z</time>
      </trkpt>
      <trkpt lat="50.310035990551114" lon="12.545943986624479">
        <ele>640.38</ele>
        <time>2013-09-06T11:24:23Z</time>
      </trkpt>
      <trkpt lat="50.310232965275645" lon="12.545308973640203">
        <ele>641.82000000000005</ele>
        <time>2013-09-06T11:24:27Z</time>
      </trkpt>
      <trkpt lat="50.310293985530734" lon="12.545192968100309">
        <ele>642.29999999999995</ele>
        <time>2013-09-06T11:24:28Z</time>
      </trkpt>
      <trkpt lat="50.310362968593836" lon="12.545100012794137">
        <ele>642.77999999999997</ele>
        <time>2013-09-06T11:24:29Z</time>
      </trkpt>
      <trkpt lat="50.310488026589155" lon="12.544950982555747">
        <ele>643.74000000000001</ele>
        <time>2013-09-06T11:24:31Z</time>
      </trkpt>
      <trkpt lat="50.310788014903665" lon="12.544461982324719">
        <ele>644.70000000000005</ele>
        <time>2013-09-06T11:24:35Z</time>
      </trkpt>
      <trkpt lat="50.311009967699647" lon="12.544089993461967">
        <ele>645.65999999999997</ele>
        <time>2013-09-06T11:24:38Z</time>
      </trkpt>
      <trkpt lat="50.311093032360077" lon="12.544042970985174">
        <ele>646.13999999999999</ele>
        <time>2013-09-06T11:24:39Z</time>
      </trkpt>
      <trkpt lat="50.311252037063241" lon="12.544068032875657">
        <ele>646.62</ele>
        <time>2013-09-06T11:24:40Z</time>
      </trkpt>
      <trkpt lat="50.311626959592104" lon="12.54409896209836">
        <ele>648.54999999999995</ele>
        <time>2013-09-06T11:24:43Z</time>
      </trkpt>
      <trkpt lat="50.311966007575393" lon="12.544141039252281">
        <ele>652.38999999999999</ele>
        <time>2013-09-06T11:24:46Z</time>
      </trkpt>
      <trkpt lat="50.31206801533699" lon="12.544102985411882">
        <ele>653.35000000000002</ele>
        <time>2013-09-06T11:24:47Z</time>
      </trkpt>
      <trkpt lat="50.31217597424984" lon="12.54405302926898">
        <ele>651.42999999999995</ele>
        <time>2013-09-06T11:24:48Z</time>
      </trkpt>
      <trkpt lat="50.312210004776716" lon="12.543919002637267">
        <ele>650.95000000000005</ele>
        <time>2013-09-06T11:24:49Z</time>
      </trkpt>
      <trkpt lat="50.312230959534645" lon="12.543753040954471">
        <ele>650.47000000000003</ele>
        <time>2013-09-06T11:24:50Z</time>
      </trkpt>
      <trkpt lat="50.312204975634813" lon="12.543618008494377">
        <ele>648.54999999999995</ele>
        <time>2013-09-06T11:24:51Z</time>
      </trkpt>
      <trkpt lat="50.312163988128304" lon="12.543469984084368">
        <ele>648.07000000000005</ele>
        <time>2013-09-06T11:24:52Z</time>
      </trkpt>
      <trkpt lat="50.312109002843499" lon="12.543298993259668">
        <ele>648.54999999999995</ele>
        <time>2013-09-06T11:24:53Z</time>
      </trkpt>
      <trkpt lat="50.31196097843349" lon="12.542727012187243">
        <ele>649.02999999999997</ele>
        <time>2013-09-06T11:24:56Z</time>
      </trkpt>
      <trkpt lat="50.311937006190419" lon="12.542533976957202">
        <ele>649.50999999999999</ele>
        <time>2013-09-06T11:24:57Z</time>
      </trkpt>
      <trkpt lat="50.311893001198769" lon="12.542145978659391">
        <ele>649.02999999999997</ele>
        <time>2013-09-06T11:24:59Z</time>
      </trkpt>
      <trkpt lat="50.311848996207118" lon="12.54040396772325">
        <ele>642.77999999999997</ele>
        <time>2013-09-06T11:25:08Z</time>
      </trkpt>
      <trkpt lat="50.311775989830494" lon="12.540254015475512">
        <ele>642.77999999999997</ele>
        <time>2013-09-06T11:25:09Z</time>
      </trkpt>
      <trkpt lat="50.311706000939012" lon="12.540174974128604">
        <ele>639.88999999999999</ele>
        <time>2013-09-06T11:25:10Z</time>
      </trkpt>
      <trkpt lat="50.311596030369401" lon="12.540092999115586">
        <ele>639.40999999999997</ele>
        <time>2013-09-06T11:25:11Z</time>
      </trkpt>
      <trkpt lat="50.311486981809139" lon="12.54005704075098">
        <ele>638.92999999999995</ele>
        <time>2013-09-06T11:25:12Z</time>
      </trkpt>
      <trkpt lat="50.311373993754387" lon="12.54005704075098">
        <ele>638.92999999999995</ele>
        <time>2013-09-06T11:25:13Z</time>
      </trkpt>
      <trkpt lat="50.311259999871254" lon="12.540074978023767">
        <ele>638.45000000000005</ele>
        <time>2013-09-06T11:25:14Z</time>
      </trkpt>
      <trkpt lat="50.311047015711665" lon="12.540005994960666">
        <ele>637.49000000000001</ele>
        <time>2013-09-06T11:25:16Z</time>
      </trkpt>
      <trkpt lat="50.310966968536377" lon="12.53990801051259">
        <ele>637.00999999999999</ele>
        <time>2013-09-06T11:25:17Z</time>
      </trkpt>
      <trkpt lat="50.310915000736713" lon="12.53975797444582">
        <ele>636.04999999999995</ele>
        <time>2013-09-06T11:25:18Z</time>
      </trkpt>
      <trkpt lat="50.310878036543727" lon="12.539582038298249">
        <ele>635.57000000000005</ele>
        <time>2013-09-06T11:25:19Z</time>
      </trkpt>
      <trkpt lat="50.310850040987134" lon="12.539385985583067">
        <ele>634.13</ele>
        <time>2013-09-06T11:25:20Z</time>
      </trkpt>
      <trkpt lat="50.310817016288638" lon="12.539178030565381">
        <ele>633.64999999999998</ele>
        <time>2013-09-06T11:25:21Z</time>
      </trkpt>
      <trkpt lat="50.310419965535402" lon="12.537496034055948">
        <ele>629.79999999999995</ele>
        <time>2013-09-06T11:25:29Z</time>
      </trkpt>
      <trkpt lat="50.310336984694004" lon="12.537332000210881">
        <ele>628.84000000000003</ele>
        <time>2013-09-06T11:25:30Z</time>
      </trkpt>
      <trkpt lat="50.310235982760787" lon="12.537208031862974">
        <ele>628.36000000000001</ele>
        <time>2013-09-06T11:25:31Z</time>
      </trkpt>
      <trkpt lat="50.309915961697698" lon="12.536863032728434">
        <ele>626.44000000000005</ele>
        <time>2013-09-06T11:25:34Z</time>
      </trkpt>
      <trkpt lat="50.309656960889697" lon="12.536482997238636">
        <ele>623.07000000000005</ele>
        <time>2013-09-06T11:25:37Z</time>
      </trkpt>
      <trkpt lat="50.308970985934138" lon="12.534993030130863">
        <ele>621.14999999999998</ele>
        <time>2013-09-06T11:25:45Z</time>
      </trkpt>
      <trkpt lat="50.308089964091778" lon="12.532621035352349">
        <ele>615.86000000000001</ele>
        <time>2013-09-06T11:25:55Z</time>
      </trkpt>
      <trkpt lat="50.307366019114852" lon="12.530372003093362">
        <ele>609.13</ele>
        <time>2013-09-06T11:26:05Z</time>
      </trkpt>
      <trkpt lat="50.30721296556294" lon="12.529689967632294">
        <ele>606.25</ele>
        <time>2013-09-06T11:26:09Z</time>
      </trkpt>
      <trkpt lat="50.307274991646409" lon="12.529569016769528">
        <ele>606.25</ele>
        <time>2013-09-06T11:26:10Z</time>
      </trkpt>
      <trkpt lat="50.307343974709511" lon="12.529480000957847">
        <ele>604.80999999999995</ele>
        <time>2013-09-06T11:26:11Z</time>
      </trkpt>
      <trkpt lat="50.307439025491476" lon="12.529427027329803">
        <ele>603.36000000000001</ele>
        <time>2013-09-06T11:26:12Z</time>
      </trkpt>
      <trkpt lat="50.307558970525861" lon="12.5294219981879">
        <ele>602.39999999999998</ele>
        <time>2013-09-06T11:26:13Z</time>
      </trkpt>
      <trkpt lat="50.30768696218729" lon="12.529432978481054">
        <ele>601.44000000000005</ele>
        <time>2013-09-06T11:26:14Z</time>
      </trkpt>
      <trkpt lat="50.307805985212326" lon="12.529473965987563">
        <ele>599.51999999999998</ele>
        <time>2013-09-06T11:26:15Z</time>
      </trkpt>
      <trkpt lat="50.307933976873755" lon="12.529541021212935">
        <ele>598.55999999999995</ele>
        <time>2013-09-06T11:26:16Z</time>
      </trkpt>
      <trkpt lat="50.308060040697455" lon="12.529611010104418">
        <ele>598.08000000000004</ele>
        <time>2013-09-06T11:26:17Z</time>
      </trkpt>
      <trkpt lat="50.308197000995278" lon="12.529674964025617">
        <ele>597.12</ele>
        <time>2013-09-06T11:26:18Z</time>
      </trkpt>
      <trkpt lat="50.308342007920146" lon="12.529715029522777">
        <ele>596.14999999999998</ele>
        <time>2013-09-06T11:26:19Z</time>
      </trkpt>
      <trkpt lat="50.308482991531491" lon="12.52972399815917">
        <ele>595.19000000000005</ele>
        <time>2013-09-06T11:26:20Z</time>
      </trkpt>
      <trkpt lat="50.308619029819965" lon="12.529712012037635">
        <ele>594.71000000000004</ele>
        <time>2013-09-06T11:26:21Z</time>
      </trkpt>
      <trkpt lat="50.30875900760293" lon="12.529697008430958">
        <ele>593.75</ele>
        <time>2013-09-06T11:26:22Z</time>
      </trkpt>
      <trkpt lat="50.309263011440635" lon="12.52965996041894">
        <ele>587.98000000000002</ele>
        <time>2013-09-06T11:26:26Z</time>
      </trkpt>
      <trkpt lat="50.30938102863729" lon="12.529713017866015">
        <ele>586.53999999999996</ele>
        <time>2013-09-06T11:26:27Z</time>
      </trkpt>
      <trkpt lat="50.310462964698672" lon="12.530402010306716">
        <ele>582.22000000000003</ele>
        <time>2013-09-06T11:26:36Z</time>
      </trkpt>
      <trkpt lat="50.311228986829519" lon="12.531298035755754">
        <ele>582.22000000000003</ele>
        <time>2013-09-06T11:26:43Z</time>
      </trkpt>
      <trkpt lat="50.311311967670918" lon="12.531456034630537">
        <ele>582.70000000000005</ele>
        <time>2013-09-06T11:26:44Z</time>
      </trkpt>
      <trkpt lat="50.311536015942693" lon="12.531906981021166">
        <ele>584.13999999999999</ele>
        <time>2013-09-06T11:26:48Z</time>
      </trkpt>
      <trkpt lat="50.311581026762724" lon="12.531894994899631">
        <ele>586.05999999999995</ele>
        <time>2013-09-06T11:26:50Z</time>
      </trkpt>
      <trkpt lat="50.311205014586449" lon="12.531214971095324">
        <ele>588.46000000000004</ele>
        <time>2013-09-06T11:26:55Z</time>
      </trkpt>
      <trkpt lat="50.311112981289625" lon="12.53096804022789">
        <ele>588.46000000000004</ele>
        <time>2013-09-06T11:26:56Z</time>
      </trkpt>
      <trkpt lat="50.310573019087315" lon="12.529102982953191">
        <ele>587.5</ele>
        <time>2013-09-06T11:27:05Z</time>
      </trkpt>
      <trkpt lat="50.310589028522372" lon="12.528839958831668">
        <ele>587.01999999999998</ele>
        <time>2013-09-06T11:27:06Z</time>
      </trkpt>
      <trkpt lat="50.310614006593823" lon="12.528560003265738">
        <ele>586.05999999999995</ele>
        <time>2013-09-06T11:27:07Z</time>
      </trkpt>
      <trkpt lat="50.310462964698672" lon="12.526505012065172">
        <ele>580.76999999999998</ele>
        <time>2013-09-06T11:27:15Z</time>
      </trkpt>
      <trkpt lat="50.310385012999177" lon="12.52630895934999">
        <ele>579.80999999999995</ele>
        <time>2013-09-06T11:27:16Z</time>
      </trkpt>
      <trkpt lat="50.310301026329398" lon="12.526146015152335">
        <ele>578.85000000000002</ele>
        <time>2013-09-06T11:27:17Z</time>
      </trkpt>
      <trkpt lat="50.310194995254278" lon="12.525993967428803">
        <ele>577.40999999999997</ele>
        <time>2013-09-06T11:27:18Z</time>
      </trkpt>
      <trkpt lat="50.310085024684668" lon="12.525877961888909">
        <ele>575.97000000000003</ele>
        <time>2013-09-06T11:27:19Z</time>
      </trkpt>
      <trkpt lat="50.309961978346109" lon="12.525774026289582">
        <ele>575.49000000000001</ele>
        <time>2013-09-06T11:27:20Z</time>
      </trkpt>
      <trkpt lat="50.309819988906384" lon="12.525699008256197">
        <ele>574.52999999999997</ele>
        <time>2013-09-06T11:27:21Z</time>
      </trkpt>
      <trkpt lat="50.309685040265322" lon="12.525648968294263">
        <ele>574.03999999999996</ele>
        <time>2013-09-06T11:27:22Z</time>
      </trkpt>
      <trkpt lat="50.309551013633609" lon="12.52559800632298">
        <ele>573.55999999999995</ele>
        <time>2013-09-06T11:27:23Z</time>
      </trkpt>
      <trkpt lat="50.309429978951812" lon="12.525548972189426">
        <ele>572.60000000000002</ele>
        <time>2013-09-06T11:27:24Z</time>
      </trkpt>
      <trkpt lat="50.309329982846975" lon="12.525472026318312">
        <ele>572.12</ele>
        <time>2013-09-06T11:27:25Z</time>
      </trkpt>
      <trkpt lat="50.309250019490719" lon="12.525349985808134">
        <ele>571.15999999999997</ele>
        <time>2013-09-06T11:27:26Z</time>
      </trkpt>
      <trkpt lat="50.309196040034294" lon="12.525181006640196">
        <ele>570.20000000000005</ele>
        <time>2013-09-06T11:27:27Z</time>
      </trkpt>
      <trkpt lat="50.309139965102077" lon="12.525000041350722">
        <ele>569.24000000000001</ele>
        <time>2013-09-06T11:27:28Z</time>
      </trkpt>
      <trkpt lat="50.309084979817271" lon="12.52480398863554">
        <ele>567.79999999999995</ele>
        <time>2013-09-06T11:27:29Z</time>
      </trkpt>
      <trkpt lat="50.308495983481407" lon="12.522992994636297">
        <ele>555.77999999999997</ele>
        <time>2013-09-06T11:27:38Z</time>
      </trkpt>
      <trkpt lat="50.308377966284752" lon="12.522454038262367">
        <ele>553.38</ele>
        <time>2013-09-06T11:27:41Z</time>
      </trkpt>
      <trkpt lat="50.308407973498106" lon="12.522296039387584">
        <ele>551.92999999999995</ele>
        <time>2013-09-06T11:27:42Z</time>
      </trkpt>
      <trkpt lat="50.308438986539841" lon="12.522152960300446">
        <ele>543.27999999999997</ele>
        <time>2013-09-06T11:27:43Z</time>
      </trkpt>
      <trkpt lat="50.308524984866381" lon="12.522043995559216">
        <ele>541.36000000000001</ele>
        <time>2013-09-06T11:27:44Z</time>
      </trkpt>
      <trkpt lat="50.308624980971217" lon="12.52194500528276">
        <ele>539.44000000000005</ele>
        <time>2013-09-06T11:27:45Z</time>
      </trkpt>
      <trkpt lat="50.308735035359859" lon="12.521842997521162">
        <ele>538.48000000000002</ele>
        <time>2013-09-06T11:27:46Z</time>
      </trkpt>
      <trkpt lat="50.308969980105758" lon="12.521648034453392">
        <ele>532.71000000000004</ele>
        <time>2013-09-06T11:27:48Z</time>
      </trkpt>
      <trkpt lat="50.309108030050993" lon="12.521588020026684">
        <ele>531.26999999999998</ele>
        <time>2013-09-06T11:27:49Z</time>
      </trkpt>
      <trkpt lat="50.309233004227281" lon="12.521542003378272">
        <ele>528.38</ele>
        <time>2013-09-06T11:27:50Z</time>
      </trkpt>
      <trkpt lat="50.309685962274671" lon="12.521445024758577">
        <ele>525.01999999999998</ele>
        <time>2013-09-06T11:27:54Z</time>
      </trkpt>
      <trkpt lat="50.309890983626246" lon="12.521442007273436">
        <ele>521.64999999999998</ele>
        <time>2013-09-06T11:27:57Z</time>
      </trkpt>
      <trkpt lat="50.309934988617897" lon="12.521416023373604">
        <ele>520.69000000000005</ele>
        <time>2013-09-06T11:27:58Z</time>
      </trkpt>
      <trkpt lat="50.309966001659632" lon="12.52138601616025">
        <ele>519.25</ele>
        <time>2013-09-06T11:27:59Z</time>
      </trkpt>
      <trkpt lat="50.310087036341429" lon="12.521315021440387">
        <ele>513.96000000000004</ele>
        <time>2013-09-06T11:28:04Z</time>
      </trkpt>
      <trkpt lat="50.310148978605866" lon="12.521315021440387">
        <ele>513.48000000000002</ele>
        <time>2013-09-06T11:28:05Z</time>
      </trkpt>
      <trkpt lat="50.310881976038218" lon="12.521520964801311">
        <ele>509.16000000000003</ele>
        <time>2013-09-06T11:28:12Z</time>
      </trkpt>
      <trkpt lat="50.311741037294269" lon="12.521762028336525">
        <ele>512.51999999999998</ele>
        <time>2013-09-06T11:28:18Z</time>
      </trkpt>
      <trkpt lat="50.311855031177402" lon="12.521750964224339">
        <ele>512.51999999999998</ele>
        <time>2013-09-06T11:28:19Z</time>
      </trkpt>
      <trkpt lat="50.311959972605109" lon="12.521735038608313">
        <ele>513.48000000000002</ele>
        <time>2013-09-06T11:28:20Z</time>
      </trkpt>
      <trkpt lat="50.312054017558694" lon="12.521695978939533">
        <ele>514.44000000000005</ele>
        <time>2013-09-06T11:28:21Z</time>
      </trkpt>
      <trkpt lat="50.312147978693247" lon="12.521671000868082">
        <ele>514.44000000000005</ele>
        <time>2013-09-06T11:28:22Z</time>
      </trkpt>
      <trkpt lat="50.312373032793403" lon="12.521585002541542">
        <ele>513.48000000000002</ele>
        <time>2013-09-06T11:28:25Z</time>
      </trkpt>
      <trkpt lat="50.312419971451163" lon="12.521509984508157">
        <ele>513.96000000000004</ele>
        <time>2013-09-06T11:28:26Z</time>
      </trkpt>
      <trkpt lat="50.312442015856504" lon="12.521419962868094">
        <ele>514.91999999999996</ele>
        <time>2013-09-06T11:28:27Z</time>
      </trkpt>
      <trkpt lat="50.312442015856504" lon="12.521318960934877">
        <ele>515.39999999999998</ele>
        <time>2013-09-06T11:28:28Z</time>
      </trkpt>
      <trkpt lat="50.312422988936305" lon="12.521246960386634">
        <ele>515.88</ele>
        <time>2013-09-06T11:28:29Z</time>
      </trkpt>
      <trkpt lat="50.312389964237809" lon="12.521189041435719">
        <ele>516.37</ele>
        <time>2013-09-06T11:28:30Z</time>
      </trkpt>
      <trkpt lat="50.3123489767313" lon="12.521165991201997">
        <ele>515.39999999999998</ele>
        <time>2013-09-06T11:28:31Z</time>
      </trkpt>
      <trkpt lat="50.312312012538314" lon="12.521165991201997">
        <ele>515.88</ele>
        <time>2013-09-06T11:28:32Z</time>
      </trkpt>
      <trkpt lat="50.312285022810102" lon="12.521173032000661">
        <ele>516.37</ele>
        <time>2013-09-06T11:28:33Z</time>
      </trkpt>
      <trkpt lat="50.312272030860186" lon="12.521177977323532">
        <ele>517.33000000000004</ele>
        <time>2013-09-06T11:28:34Z</time>
      </trkpt>
      <trkpt lat="50.312286028638482" lon="12.521195998415351">
        <ele>521.64999999999998</ele>
        <time>2013-09-06T11:28:53Z</time>
      </trkpt>
      <trkpt lat="50.312255015596747" lon="12.521112011745572">
        <ele>522.13</ele>
        <time>2013-09-06T11:29:18Z</time>
      </trkpt>
      <trkpt lat="50.31221997924149" lon="12.520998017862439">
        <ele>521.64999999999998</ele>
        <time>2013-09-06T11:29:44Z</time>
      </trkpt>
      <trkpt lat="50.312221990898252" lon="12.521039005368948">
        <ele>521.64999999999998</ele>
        <time>2013-09-06T11:30:13Z</time>
      </trkpt>
      <trkpt lat="50.312215033918619" lon="12.521047974005342">
        <ele>521.64999999999998</ele>
        <time>2013-09-06T11:30:42Z</time>
      </trkpt>
      <trkpt lat="50.312210004776716" lon="12.521076975390315">
        <ele>521.16999999999996</ele>
        <time>2013-09-06T11:31:14Z</time>
      </trkpt>
      <trkpt lat="50.312264990061522" lon="12.521113017573953">
        <ele>521.16999999999996</ele>
        <time>2013-09-06T11:31:41Z</time>
      </trkpt>
      <trkpt lat="50.312260966747999" lon="12.521094996482134">
        <ele>521.16999999999996</ele>
        <time>2013-09-06T11:32:03Z</time>
      </trkpt>
      <trkpt lat="50.312272030860186" lon="12.521100025624037">
        <ele>520.69000000000005</ele>
        <time>2013-09-06T11:32:28Z</time>
      </trkpt>
      <trkpt lat="50.31226297840476" lon="12.52117202617228">
        <ele>519.73000000000002</ele>
        <time>2013-09-06T11:32:56Z</time>
      </trkpt>
      <trkpt lat="50.312270019203424" lon="12.521189041435719">
        <ele>519.25</ele>
        <time>2013-09-06T11:33:28Z</time>
      </trkpt>
      <trkpt lat="50.31226297840476" lon="12.52117202617228">
        <ele>517.80999999999995</ele>
        <time>2013-09-06T11:33:55Z</time>
      </trkpt>
      <trkpt lat="50.31225903891027" lon="12.521224999800324">
        <ele>516.37</ele>
        <time>2013-09-06T11:34:18Z</time>
      </trkpt>
      <trkpt lat="50.312107997015119" lon="12.521241009235382">
        <ele>514.91999999999996</ele>
        <time>2013-09-06T11:34:37Z</time>
      </trkpt>
      <trkpt lat="50.312105985358357" lon="12.521238997578621">
        <ele>513.96000000000004</ele>
        <time>2013-09-06T11:35:22Z</time>
      </trkpt>
      <trkpt lat="50.312104979529977" lon="12.521235980093479">
        <ele>513</ele>
        <time>2013-09-06T11:36:06Z</time>
      </trkpt>
      <trkpt lat="50.312091987580061" lon="12.521232040598989">
        <ele>512.51999999999998</ele>
        <time>2013-09-06T11:36:42Z</time>
      </trkpt>
      <trkpt lat="50.312099028378725" lon="12.521231034770608">
        <ele>512.03999999999996</ele>
        <time>2013-09-06T11:37:19Z</time>
      </trkpt>
      <trkpt lat="50.312095005065203" lon="12.521229023113847">
        <ele>511.56</ele>
        <time>2013-09-06T11:38:01Z</time>
      </trkpt>
      <trkpt lat="50.312092993408442" lon="12.521233968436718">
        <ele>510.12</ele>
        <time>2013-09-06T11:39:19Z</time>
      </trkpt>
      <trkpt lat="50.312075978145003" lon="12.52123698592186">
        <ele>510.12</ele>
        <time>2013-09-06T11:39:50Z</time>
      </trkpt>
      <trkpt lat="50.312076983973384" lon="12.521246960386634">
        <ele>510.12</ele>
        <time>2013-09-06T11:40:18Z</time>
      </trkpt>
      <trkpt lat="50.311978999525309" lon="12.521245032548904">
        <ele>510.12</ele>
        <time>2013-09-06T11:40:32Z</time>
      </trkpt>
      <trkpt lat="50.311931977048516" lon="12.52128099091351">
        <ele>510.12</ele>
        <time>2013-09-06T11:40:33Z</time>
      </trkpt>
      <trkpt lat="50.311888977885246" lon="12.521329019218683">
        <ele>510.12</ele>
        <time>2013-09-06T11:40:34Z</time>
      </trkpt>
      <trkpt lat="50.311854025349021" lon="12.521394984796643">
        <ele>510.12</ele>
        <time>2013-09-06T11:40:35Z</time>
      </trkpt>
      <trkpt lat="50.311828041449189" lon="12.521470002830029">
        <ele>510.12</ele>
        <time>2013-09-06T11:40:36Z</time>
      </trkpt>
      <trkpt lat="50.311811026185751" lon="12.521544015035033">
        <ele>509.63999999999999</ele>
        <time>2013-09-06T11:40:37Z</time>
      </trkpt>
      <trkpt lat="50.311808008700609" lon="12.521609980612993">
        <ele>509.63999999999999</ele>
        <time>2013-09-06T11:40:38Z</time>
      </trkpt>
      <trkpt lat="50.311801973730326" lon="12.521653985604644">
        <ele>509.63999999999999</ele>
        <time>2013-09-06T11:40:39Z</time>
      </trkpt>
      <trkpt lat="50.311813037842512" lon="12.521698996424675">
        <ele>510.12</ele>
        <time>2013-09-06T11:40:40Z</time>
      </trkpt>
      <trkpt lat="50.311837010085583" lon="12.521744007244706">
        <ele>511.07999999999998</ele>
        <time>2013-09-06T11:40:41Z</time>
      </trkpt>
      <trkpt lat="50.311879003420472" lon="12.521775020286441">
        <ele>511.56</ele>
        <time>2013-09-06T11:40:42Z</time>
      </trkpt>
      <trkpt lat="50.311946980655193" lon="12.521766973659396">
        <ele>512.03999999999996</ele>
        <time>2013-09-06T11:40:43Z</time>
      </trkpt>
      <trkpt lat="50.312021998688579" lon="12.521748030558228">
        <ele>512.03999999999996</ele>
        <time>2013-09-06T11:40:44Z</time>
      </trkpt>
      <trkpt lat="50.312104979529977" lon="12.52173000946641">
        <ele>512.03999999999996</ele>
        <time>2013-09-06T11:40:45Z</time>
      </trkpt>
      <trkpt lat="50.313064036890864" lon="12.521398002281785">
        <ele>510.60000000000002</ele>
        <time>2013-09-06T11:40:54Z</time>
      </trkpt>
      <trkpt lat="50.314329033717513" lon="12.52082996070385">
        <ele>506.75</ele>
        <time>2013-09-06T11:41:05Z</time>
      </trkpt>
      <trkpt lat="50.315492022782564" lon="12.520408015698195">
        <ele>506.75</ele>
        <time>2013-09-06T11:41:15Z</time>
      </trkpt>
      <trkpt lat="50.316953994333744" lon="12.519966959953308">
        <ele>506.75</ele>
        <time>2013-09-06T11:41:27Z</time>
      </trkpt>
      <trkpt lat="50.318361986428499" lon="12.519442001357675">
        <ele>512.51999999999998</ele>
        <time>2013-09-06T11:41:38Z</time>
      </trkpt>
      <trkpt lat="50.319949015974998" lon="12.518758038058877">
        <ele>518.28999999999996</ele>
        <time>2013-09-06T11:41:51Z</time>
      </trkpt>
      <trkpt lat="50.321544008329511" lon="12.518155965954065">
        <ele>522.61000000000001</ele>
        <time>2013-09-06T11:42:04Z</time>
      </trkpt>
      <trkpt lat="50.323152998462319" lon="12.517526987940073">
        <ele>524.05999999999995</ele>
        <time>2013-09-06T11:42:17Z</time>
      </trkpt>
      <trkpt lat="50.32375599257648" lon="12.517209984362125">
        <ele>523.58000000000004</ele>
        <time>2013-09-06T11:42:22Z</time>
      </trkpt>
      <trkpt lat="50.324007030576468" lon="12.516974033787847">
        <ele>522.61000000000001</ele>
        <time>2013-09-06T11:42:24Z</time>
      </trkpt>
      <trkpt lat="50.324955023825169" lon="12.515660002827644">
        <ele>517.33000000000004</ele>
        <time>2013-09-06T11:42:34Z</time>
      </trkpt>
      <trkpt lat="50.325765972957015" lon="12.514500031247735">
        <ele>514.91999999999996</ele>
        <time>2013-09-06T11:42:45Z</time>
      </trkpt>
      <trkpt lat="50.326845981180668" lon="12.512994976714253">
        <ele>514.91999999999996</ele>
        <time>2013-09-06T11:43:00Z</time>
      </trkpt>
      <trkpt lat="50.327519970014691" lon="12.512198025360703">
        <ele>515.88</ele>
        <time>2013-09-06T11:43:09Z</time>
      </trkpt>
      <trkpt lat="50.327758016064763" lon="12.511982023715973">
        <ele>516.37</ele>
        <time>2013-09-06T11:43:16Z</time>
      </trkpt>
      <trkpt lat="50.327872009947896" lon="12.511935001239181">
        <ele>517.80999999999995</ele>
        <time>2013-09-06T11:43:18Z</time>
      </trkpt>
      <trkpt lat="50.327919032424688" lon="12.511925026774406">
        <ele>517.80999999999995</ele>
        <time>2013-09-06T11:43:19Z</time>
      </trkpt>
      <trkpt lat="50.327965971082449" lon="12.511943969875574">
        <ele>517.80999999999995</ele>
        <time>2013-09-06T11:43:20Z</time>
      </trkpt>
      <trkpt lat="50.328142996877432" lon="12.51199702732265">
        <ele>519.25</ele>
        <time>2013-09-06T11:43:23Z</time>
      </trkpt>
      <trkpt lat="50.32820301130414" lon="12.51195696182549">
        <ele>518.76999999999998</ele>
        <time>2013-09-06T11:43:24Z</time>
      </trkpt>
      <trkpt lat="50.328280040994287" lon="12.511914968490601">
        <ele>519.73000000000002</ele>
        <time>2013-09-06T11:43:25Z</time>
      </trkpt>
      <trkpt lat="50.328327985480428" lon="12.511845985427499">
        <ele>519.73000000000002</ele>
        <time>2013-09-06T11:43:26Z</time>
      </trkpt>
      <trkpt lat="50.328380037099123" lon="12.511777002364397">
        <ele>519.25</ele>
        <time>2013-09-06T11:43:27Z</time>
      </trkpt>
      <trkpt lat="50.328424964100122" lon="12.51169603317976">
        <ele>518.76999999999998</ele>
        <time>2013-09-06T11:43:28Z</time>
      </trkpt>
      <trkpt lat="50.328453965485096" lon="12.511636018753052">
        <ele>518.76999999999998</ele>
        <time>2013-09-06T11:43:29Z</time>
      </trkpt>
      <trkpt lat="50.328476009890437" lon="12.511571981012821">
        <ele>518.28999999999996</ele>
        <time>2013-09-06T11:43:30Z</time>
      </trkpt>
      <trkpt lat="50.328495958819985" lon="12.511412976309657">
        <ele>518.28999999999996</ele>
        <time>2013-09-06T11:43:38Z</time>
      </trkpt>
      <trkpt lat="50.328549016267061" lon="12.511050961911678">
        <ele>518.76999999999998</ele>
        <time>2013-09-06T11:43:56Z</time>
      </trkpt>
      <trkpt lat="50.328872976824641" lon="12.510220985859632">
        <ele>519.25</ele>
        <time>2013-09-06T11:44:02Z</time>
      </trkpt>
      <trkpt lat="50.328938020393252" lon="12.510092994198203">
        <ele>518.76999999999998</ele>
        <time>2013-09-06T11:44:03Z</time>
      </trkpt>
      <trkpt lat="50.329066012054682" lon="12.509898031130433">
        <ele>519.25</ele>
        <time>2013-09-06T11:44:05Z</time>
      </trkpt>
      <trkpt lat="50.329128038138151" lon="12.509825024753809">
        <ele>518.76999999999998</ele>
        <time>2013-09-06T11:44:06Z</time>
      </trkpt>
      <trkpt lat="50.329299028962851" lon="12.509538028389215">
        <ele>520.21000000000004</ele>
        <time>2013-09-06T11:44:09Z</time>
      </trkpt>
      <trkpt lat="50.329440012574196" lon="12.509338958188891">
        <ele>521.16999999999996</ele>
        <time>2013-09-06T11:44:11Z</time>
      </trkpt>
      <trkpt lat="50.330527983605862" lon="12.507842034101486">
        <ele>523.09000000000003</ele>
        <time>2013-09-06T11:44:24Z</time>
      </trkpt>
      <trkpt lat="50.33078396692872" lon="12.507445989176631">
        <ele>524.53999999999996</ele>
        <time>2013-09-06T11:44:27Z</time>
      </trkpt>
      <trkpt lat="50.331515036523342" lon="12.50639196485281">
        <ele>525.5</ele>
        <time>2013-09-06T11:44:36Z</time>
      </trkpt>
      <trkpt lat="50.331701030954719" lon="12.506060041487217">
        <ele>523.09000000000003</ele>
        <time>2013-09-06T11:44:42Z</time>
      </trkpt>
      <trkpt lat="50.332100009545684" lon="12.505327966064215">
        <ele>521.16999999999996</ele>
        <time>2013-09-06T11:44:50Z</time>
      </trkpt>
      <trkpt lat="50.332718007266521" lon="12.504211999475956">
        <ele>520.21000000000004</ele>
        <time>2013-09-06T11:44:58Z</time>
      </trkpt>
      <trkpt lat="50.333115980029106" lon="12.503913016989827">
        <ele>521.64999999999998</ele>
        <time>2013-09-06T11:45:02Z</time>
      </trkpt>
      <trkpt lat="50.334301013499498" lon="12.503558965399861">
        <ele>528.38</ele>
        <time>2013-09-06T11:45:12Z</time>
      </trkpt>
      <trkpt lat="50.335415974259377" lon="12.50329895876348">
        <ele>533.66999999999996</ele>
        <time>2013-09-06T11:45:21Z</time>
      </trkpt>
      <trkpt lat="50.335658965632319" lon="12.503215977922082">
        <ele>535.11000000000001</ele>
        <time>2013-09-06T11:45:23Z</time>
      </trkpt>
      <trkpt lat="50.335907991975546" lon="12.503068959340453">
        <ele>535.59000000000003</ele>
        <time>2013-09-06T11:45:25Z</time>
      </trkpt>
      <trkpt lat="50.336028020828962" lon="12.502977009862661">
        <ele>535.59000000000003</ele>
        <time>2013-09-06T11:45:26Z</time>
      </trkpt>
      <trkpt lat="50.337309027090669" lon="12.501979982480407">
        <ele>534.14999999999998</ele>
        <time>2013-09-06T11:45:37Z</time>
      </trkpt>
      <trkpt lat="50.338673014193773" lon="12.500983960926533">
        <ele>532.71000000000004</ele>
        <time>2013-09-06T11:45:49Z</time>
      </trkpt>
      <trkpt lat="50.339941028505564" lon="12.499997997656465">
        <ele>536.07000000000005</ele>
        <time>2013-09-06T11:46:00Z</time>
      </trkpt>
      <trkpt lat="50.340892961248755" lon="12.499263994395733">
        <ele>535.11000000000001</ele>
        <time>2013-09-06T11:46:08Z</time>
      </trkpt>
      <trkpt lat="50.341678010299802" lon="12.498467965051532">
        <ele>532.71000000000004</ele>
        <time>2013-09-06T11:46:15Z</time>
      </trkpt>
      <trkpt lat="50.342786014080048" lon="12.496656971052289">
        <ele>527.41999999999996</ele>
        <time>2013-09-06T11:46:27Z</time>
      </trkpt>
      <trkpt lat="50.34395101480186" lon="12.494840025901794">
        <ele>523.09000000000003</ele>
        <time>2013-09-06T11:46:39Z</time>
      </trkpt>
      <trkpt lat="50.345247024670243" lon="12.49285401776433">
        <ele>527.41999999999996</ele>
        <time>2013-09-06T11:46:52Z</time>
      </trkpt>
      <trkpt lat="50.345325982198119" lon="12.492701970040798">
        <ele>527.41999999999996</ele>
        <time>2013-09-06T11:46:53Z</time>
      </trkpt>
      <trkpt lat="50.345741976052523" lon="12.491569994017482">
        <ele>527.89999999999998</ele>
        <time>2013-09-06T11:46:59Z</time>
      </trkpt>
      <trkpt lat="50.345792016014457" lon="12.491293977946043">
        <ele>527.89999999999998</ele>
        <time>2013-09-06T11:47:00Z</time>
      </trkpt>
      <trkpt lat="50.346266012638807" lon="12.488515041768551">
        <ele>528.38</ele>
        <time>2013-09-06T11:47:09Z</time>
      </trkpt>
      <trkpt lat="50.346281016245484" lon="12.488201977685094">
        <ele>527.41999999999996</ele>
        <time>2013-09-06T11:47:10Z</time>
      </trkpt>
      <trkpt lat="50.346256960183382" lon="12.487886985763907">
        <ele>528.38</ele>
        <time>2013-09-06T11:47:11Z</time>
      </trkpt>
      <trkpt lat="50.346216978505254" lon="12.487578028813004">
        <ele>528.38</ele>
        <time>2013-09-06T11:47:12Z</time>
      </trkpt>
      <trkpt lat="50.346172973513603" lon="12.48726999387145">
        <ele>528.86000000000001</ele>
        <time>2013-09-06T11:47:13Z</time>
      </trkpt>
      <trkpt lat="50.345888994634151" lon="12.485188012942672">
        <ele>532.23000000000002</ele>
        <time>2013-09-06T11:47:20Z</time>
      </trkpt>
      <trkpt lat="50.345916990190744" lon="12.484877966344357">
        <ele>533.19000000000005</ele>
        <time>2013-09-06T11:47:21Z</time>
      </trkpt>
      <trkpt lat="50.34596904180944" lon="12.484575966373086">
        <ele>534.14999999999998</ele>
        <time>2013-09-06T11:47:22Z</time>
      </trkpt>
      <trkpt lat="50.346041964367032" lon="12.484274972230196">
        <ele>535.59000000000003</ele>
        <time>2013-09-06T11:47:23Z</time>
      </trkpt>
      <trkpt lat="50.346125029027462" lon="12.483993005007505">
        <ele>536.54999999999995</ele>
        <time>2013-09-06T11:47:24Z</time>
      </trkpt>
      <trkpt lat="50.346947964280844" lon="12.481448007747531">
        <ele>541.36000000000001</ele>
        <time>2013-09-06T11:47:33Z</time>
      </trkpt>
      <trkpt lat="50.347293969243765" lon="12.479804987087846">
        <ele>544.72000000000003</ele>
        <time>2013-09-06T11:47:39Z</time>
      </trkpt>
      <trkpt lat="50.347811970859766" lon="12.478607967495918">
        <ele>548.09000000000003</ele>
        <time>2013-09-06T11:47:46Z</time>
      </trkpt>
      <trkpt lat="50.348808998242021" lon="12.476895963773131">
        <ele>548.09000000000003</ele>
        <time>2013-09-06T11:47:59Z</time>
      </trkpt>
      <trkpt lat="50.350034013390541" lon="12.474907021969557">
        <ele>549.52999999999997</ele>
        <time>2013-09-06T11:48:13Z</time>
      </trkpt>
      <trkpt lat="50.351217035204172" lon="12.473144978284836">
        <ele>548.09000000000003</ele>
        <time>2013-09-06T11:48:27Z</time>
      </trkpt>
      <trkpt lat="50.352064026519656" lon="12.472020965069532">
        <ele>545.69000000000005</ele>
        <time>2013-09-06T11:48:38Z</time>
      </trkpt>
      <trkpt lat="50.352134015411139" lon="12.471995986998081">
        <ele>546.16999999999996</ele>
        <time>2013-09-06T11:48:39Z</time>
      </trkpt>
      <trkpt lat="50.352250020951033" lon="12.471984000876546">
        <ele>545.69000000000005</ele>
        <time>2013-09-06T11:48:41Z</time>
      </trkpt>
      <trkpt lat="50.352291008457541" lon="12.471953993663192">
        <ele>545.20000000000005</ele>
        <time>2013-09-06T11:48:42Z</time>
      </trkpt>
      <trkpt lat="50.352302994579077" lon="12.471895990893245">
        <ele>544.24000000000001</ele>
        <time>2013-09-06T11:48:43Z</time>
      </trkpt>
      <trkpt lat="50.352312969043851" lon="12.471812004223466">
        <ele>543.75999999999999</ele>
        <time>2013-09-06T11:48:44Z</time>
      </trkpt>
      <trkpt lat="50.352326966822147" lon="12.471700021997094">
        <ele>544.24000000000001</ele>
        <time>2013-09-06T11:48:45Z</time>
      </trkpt>
      <trkpt lat="50.352368960157037" lon="12.471587033942342">
        <ele>544.72000000000003</ele>
        <time>2013-09-06T11:48:46Z</time>
      </trkpt>
      <trkpt lat="50.35243702121079" lon="12.471487959846854">
        <ele>545.20000000000005</ele>
        <time>2013-09-06T11:48:47Z</time>
      </trkpt>
      <trkpt lat="50.352515978738666" lon="12.471405984833837">
        <ele>545.20000000000005</ele>
        <time>2013-09-06T11:48:48Z</time>
      </trkpt>
      <trkpt lat="50.35291001200676" lon="12.471036007627845">
        <ele>546.64999999999998</ele>
        <time>2013-09-06T11:48:52Z</time>
      </trkpt>
      <trkpt lat="50.354096973314881" lon="12.469254015013576">
        <ele>547.61000000000001</ele>
        <time>2013-09-06T11:49:05Z</time>
      </trkpt>
      <trkpt lat="50.354853020980954" lon="12.468312978744507">
        <ele>549.52999999999997</ele>
        <time>2013-09-06T11:49:14Z</time>
      </trkpt>
      <trkpt lat="50.355070028454065" lon="12.468184987083077">
        <ele>549.04999999999995</ele>
        <time>2013-09-06T11:49:20Z</time>
      </trkpt>
      <trkpt lat="50.355113027617335" lon="12.468194039538503">
        <ele>549.52999999999997</ele>
        <time>2013-09-06T11:49:21Z</time>
      </trkpt>
      <trkpt lat="50.355139011517167" lon="12.468208037316799">
        <ele>549.52999999999997</ele>
        <time>2013-09-06T11:49:22Z</time>
      </trkpt>
      <trkpt lat="50.355188967660069" lon="12.468249024823308">
        <ele>549.04999999999995</ele>
        <time>2013-09-06T11:49:23Z</time>
      </trkpt>
      <trkpt lat="50.355243030935526" lon="12.468264028429985">
        <ele>548.57000000000005</ele>
        <time>2013-09-06T11:49:24Z</time>
      </trkpt>
      <trkpt lat="50.355287035927176" lon="12.468266040086746">
        <ele>548.57000000000005</ele>
        <time>2013-09-06T11:49:25Z</time>
      </trkpt>
      <trkpt lat="50.355329029262066" lon="12.468251958489418">
        <ele>548.09000000000003</ele>
        <time>2013-09-06T11:49:26Z</time>
      </trkpt>
      <trkpt lat="50.355368005111814" lon="12.468235027045012">
        <ele>548.09000000000003</ele>
        <time>2013-09-06T11:49:27Z</time>
      </trkpt>
      <trkpt lat="50.355444028973579" lon="12.46823301538825">
        <ele>548.57000000000005</ele>
        <time>2013-09-06T11:49:29Z</time>
      </trkpt>
      <trkpt lat="50.355487028136849" lon="12.468249024823308">
        <ele>548.57000000000005</ele>
        <time>2013-09-06T11:49:30Z</time>
      </trkpt>
      <trkpt lat="50.355541007593274" lon="12.46827601455152">
        <ele>549.04999999999995</ele>
        <time>2013-09-06T11:49:31Z</time>
      </trkpt>
      <trkpt lat="50.355608984827995" lon="12.468317002058029">
        <ele>549.52999999999997</ele>
        <time>2013-09-06T11:49:32Z</time>
      </trkpt>
      <trkpt lat="50.355661036446691" lon="12.468357989564538">
        <ele>550.00999999999999</ele>
        <time>2013-09-06T11:49:33Z</time>
      </trkpt>
      <trkpt lat="50.356312980875373" lon="12.468853024765849">
        <ele>553.38</ele>
        <time>2013-09-06T11:49:42Z</time>
      </trkpt>
      <trkpt lat="50.357321994379163" lon="12.469664979726076">
        <ele>550.49000000000001</ele>
        <time>2013-09-06T11:49:53Z</time>
      </trkpt>
      <trkpt lat="50.357641009613872" lon="12.469818033277988">
        <ele>549.52999999999997</ele>
        <time>2013-09-06T11:49:57Z</time>
      </trkpt>
      <trkpt lat="50.357734970748425" lon="12.469817027449608">
        <ele>549.52999999999997</ele>
        <time>2013-09-06T11:49:58Z</time>
      </trkpt>
      <trkpt lat="50.358011992648244" lon="12.469814009964466">
        <ele>550.00999999999999</ele>
        <time>2013-09-06T11:50:01Z</time>
      </trkpt>
      <trkpt lat="50.359147991985083" lon="12.469850974157453">
        <ele>555.29999999999995</ele>
        <time>2013-09-06T11:50:12Z</time>
      </trkpt>
      <trkpt lat="50.360389016568661" lon="12.470092959702015">
        <ele>566.83000000000004</ele>
        <time>2013-09-06T11:50:23Z</time>
      </trkpt>
      <trkpt lat="50.360972983762622" lon="12.470184992998838">
        <ele>570.67999999999995</ele>
        <time>2013-09-06T11:50:28Z</time>
      </trkpt>
      <trkpt lat="50.361942015588284" lon="12.469883998855948">
        <ele>556.25999999999999</ele>
        <time>2013-09-06T11:50:36Z</time>
      </trkpt>
      <trkpt lat="50.36294499412179" lon="12.469170028343797">
        <ele>562.02999999999997</ele>
        <time>2013-09-06T11:50:45Z</time>
      </trkpt>
      <trkpt lat="50.363064017146826" lon="12.469131974503398">
        <ele>563.47000000000003</ele>
        <time>2013-09-06T11:50:46Z</time>
      </trkpt>
      <trkpt lat="50.36427796818316" lon="12.468904992565513">
        <ele>566.35000000000002</ele>
        <time>2013-09-06T11:50:56Z</time>
      </trkpt>
      <trkpt lat="50.365444980561733" lon="12.468677004799247">
        <ele>570.67999999999995</ele>
        <time>2013-09-06T11:51:06Z</time>
      </trkpt>
      <trkpt lat="50.366873005405068" lon="12.468570973724127">
        <ele>575.00999999999999</ele>
        <time>2013-09-06T11:51:19Z</time>
      </trkpt>
      <trkpt lat="50.366979958489537" lon="12.468588994815946">
        <ele>575.97000000000003</ele>
        <time>2013-09-06T11:51:20Z</time>
      </trkpt>
      <trkpt lat="50.367078026756644" lon="12.468622019514441">
        <ele>576.45000000000005</ele>
        <time>2013-09-06T11:51:21Z</time>
      </trkpt>
      <trkpt lat="50.367570966482162" lon="12.468767026439309">
        <ele>579.33000000000004</ele>
        <time>2013-09-06T11:51:26Z</time>
      </trkpt>
      <trkpt lat="50.367667023092508" lon="12.468817988410592">
        <ele>578.37</ele>
        <time>2013-09-06T11:51:27Z</time>
      </trkpt>
      <trkpt lat="50.368818026036024" lon="12.469532964751124">
        <ele>573.08000000000004</ele>
        <time>2013-09-06T11:51:38Z</time>
      </trkpt>
      <trkpt lat="50.369984032586217" lon="12.470135958865285">
        <ele>576.45000000000005</ele>
        <time>2013-09-06T11:51:48Z</time>
      </trkpt>
      <trkpt lat="50.371035961434245" lon="12.4701679777354">
        <ele>578.37</ele>
        <time>2013-09-06T11:51:58Z</time>
      </trkpt>
      <trkpt lat="50.37115297280252" lon="12.470105029642582">
        <ele>578.37</ele>
        <time>2013-09-06T11:52:00Z</time>
      </trkpt>
      <trkpt lat="50.371222039684653" lon="12.470027999952435">
        <ele>577.88999999999999</ele>
        <time>2013-09-06T11:52:01Z</time>
      </trkpt>
      <trkpt lat="50.371267972514033" lon="12.469948036596179">
        <ele>576.45000000000005</ele>
        <time>2013-09-06T11:52:02Z</time>
      </trkpt>
      <trkpt lat="50.371505012735724" lon="12.4697379861027">
        <ele>578.85000000000002</ele>
        <time>2013-09-06T11:52:05Z</time>
      </trkpt>
      <trkpt lat="50.371610037982464" lon="12.469703033566475">
        <ele>580.28999999999996</ele>
        <time>2013-09-06T11:52:06Z</time>
      </trkpt>
      <trkpt lat="50.372676970437169" lon="12.469445038586855">
        <ele>577.40999999999997</ele>
        <time>2013-09-06T11:52:15Z</time>
      </trkpt>
      <trkpt lat="50.373797966167331" lon="12.469023009762168">
        <ele>578.37</ele>
        <time>2013-09-06T11:52:24Z</time>
      </trkpt>
      <trkpt lat="50.374843021854758" lon="12.468166965991259">
        <ele>577.88999999999999</ele>
        <time>2013-09-06T11:52:33Z</time>
      </trkpt>
      <trkpt lat="50.376138025894761" lon="12.466353960335255">
        <ele>577.88999999999999</ele>
        <time>2013-09-06T11:52:46Z</time>
      </trkpt>
      <trkpt lat="50.377251980826259" lon="12.465230030938983">
        <ele>580.28999999999996</ele>
        <time>2013-09-06T11:52:56Z</time>
      </trkpt>
      <trkpt lat="50.378279015421867" lon="12.463886998593807">
        <ele>584.13999999999999</ele>
        <time>2013-09-06T11:53:06Z</time>
      </trkpt>
      <trkpt lat="50.379173029214144" lon="12.462522005662322">
        <ele>584.62</ele>
        <time>2013-09-06T11:53:16Z</time>
      </trkpt>
      <trkpt lat="50.379377966746688" lon="12.46225998736918">
        <ele>584.62</ele>
        <time>2013-09-06T11:53:18Z</time>
      </trkpt>
      <trkpt lat="50.379483997821808" lon="12.462149010971189">
        <ele>585.10000000000002</ele>
        <time>2013-09-06T11:53:19Z</time>
      </trkpt>
      <trkpt lat="50.379580976441503" lon="12.462037028744817">
        <ele>585.58000000000004</ele>
        <time>2013-09-06T11:53:20Z</time>
      </trkpt>
      <trkpt lat="50.37976898252964" lon="12.461849022656679">
        <ele>586.05999999999995</ele>
        <time>2013-09-06T11:53:22Z</time>
      </trkpt>
      <trkpt lat="50.379876019433141" lon="12.46178800240159">
        <ele>586.53999999999996</ele>
        <time>2013-09-06T11:53:23Z</time>
      </trkpt>
      <trkpt lat="50.380014991387725" lon="12.461762018501759">
        <ele>586.05999999999995</ele>
        <time>2013-09-06T11:53:24Z</time>
      </trkpt>
      <trkpt lat="50.380207020789385" lon="12.461813986301422">
        <ele>587.01999999999998</ele>
        <time>2013-09-06T11:53:25Z</time>
      </trkpt>
      <trkpt lat="50.380354039371014" lon="12.461833013221622">
        <ele>587.5</ele>
        <time>2013-09-06T11:53:26Z</time>
      </trkpt>
      <trkpt lat="50.380990980193019" lon="12.461751960217953">
        <ele>587.01999999999998</ele>
        <time>2013-09-06T11:53:31Z</time>
      </trkpt>
      <trkpt lat="50.381088964641094" lon="12.461688006296754">
        <ele>587.01999999999998</ele>
        <time>2013-09-06T11:53:32Z</time>
      </trkpt>
      <trkpt lat="50.381893962621689" lon="12.461006976664066">
        <ele>586.05999999999995</ele>
        <time>2013-09-06T11:53:39Z</time>
      </trkpt>
      <trkpt lat="50.381999993696809" lon="12.460876973345876">
        <ele>586.53999999999996</ele>
        <time>2013-09-06T11:53:40Z</time>
      </trkpt>
      <trkpt lat="50.382096972316504" lon="12.460730960592628">
        <ele>586.53999999999996</ele>
        <time>2013-09-06T11:53:41Z</time>
      </trkpt>
      <trkpt lat="50.382175007835031" lon="12.460570028051734">
        <ele>586.53999999999996</ele>
        <time>2013-09-06T11:53:42Z</time>
      </trkpt>
      <trkpt lat="50.382252959534526" lon="12.460402976721525">
        <ele>586.05999999999995</ele>
        <time>2013-09-06T11:53:43Z</time>
      </trkpt>
      <trkpt lat="50.383019987493753" lon="12.458864981308579">
        <ele>585.58000000000004</ele>
        <time>2013-09-06T11:53:52Z</time>
      </trkpt>
      <trkpt lat="50.383109003305435" lon="12.458707988262177">
        <ele>585.58000000000004</ele>
        <time>2013-09-06T11:53:53Z</time>
      </trkpt>
      <trkpt lat="50.384461004287004" lon="12.45673899538815">
        <ele>589.42999999999995</ele>
        <time>2013-09-06T11:54:06Z</time>
      </trkpt>
      <trkpt lat="50.38524404168129" lon="12.454990027472377">
        <ele>590.38999999999999</ele>
        <time>2013-09-06T11:54:14Z</time>
      </trkpt>
      <trkpt lat="50.385974021628499" lon="12.452545026317239">
        <ele>597.12</ele>
        <time>2013-09-06T11:54:23Z</time>
      </trkpt>
      <trkpt lat="50.386059014126658" lon="12.452052002772689">
        <ele>599.03999999999996</ele>
        <time>2013-09-06T11:54:25Z</time>
      </trkpt>
      <trkpt lat="50.386162027716637" lon="12.450776025652885">
        <ele>603.36000000000001</ele>
        <time>2013-09-06T11:54:31Z</time>
      </trkpt>
      <trkpt lat="50.386697966605425" lon="12.448175959289074">
        <ele>611.05999999999995</ele>
        <time>2013-09-06T11:54:41Z</time>
      </trkpt>
      <trkpt lat="50.387483015656471" lon="12.445125030353665">
        <ele>619.71000000000004</ele>
        <time>2013-09-06T11:54:53Z</time>
      </trkpt>
      <trkpt lat="50.388359008356929" lon="12.443455019965768">
        <ele>625.47000000000003</ele>
        <time>2013-09-06T11:55:01Z</time>
      </trkpt>
      <trkpt lat="50.388448024168611" lon="12.443217979744077">
        <ele>625.96000000000004</ele>
        <time>2013-09-06T11:55:02Z</time>
      </trkpt>
      <trkpt lat="50.388517007231712" lon="12.442961996421218">
        <ele>625.96000000000004</ele>
        <time>2013-09-06T11:55:03Z</time>
      </trkpt>
      <trkpt lat="50.388563023880124" lon="12.442685980349779">
        <ele>627.39999999999998</ele>
        <time>2013-09-06T11:55:04Z</time>
      </trkpt>
      <trkpt lat="50.388590013608336" lon="12.44240703061223">
        <ele>628.36000000000001</ele>
        <time>2013-09-06T11:55:05Z</time>
      </trkpt>
      <trkpt lat="50.388609040528536" lon="12.442118022590876">
        <ele>628.36000000000001</ele>
        <time>2013-09-06T11:55:06Z</time>
      </trkpt>
      <trkpt lat="50.388970971107483" lon="12.439460959285498">
        <ele>632.20000000000005</ele>
        <time>2013-09-06T11:55:15Z</time>
      </trkpt>
      <trkpt lat="50.38947899825871" lon="12.43643500842154">
        <ele>636.52999999999997</ele>
        <time>2013-09-06T11:55:25Z</time>
      </trkpt>
      <trkpt lat="50.389785021543503" lon="12.434897013008595">
        <ele>639.40999999999997</ele>
        <time>2013-09-06T11:55:30Z</time>
      </trkpt>
      <trkpt lat="50.389876971021295" lon="12.434623008593917">
        <ele>640.38</ele>
        <time>2013-09-06T11:55:31Z</time>
      </trkpt>
      <trkpt lat="50.389984007924795" lon="12.434361996129155">
        <ele>640.38</ele>
        <time>2013-09-06T11:55:32Z</time>
      </trkpt>
      <trkpt lat="50.390782970935106" lon="12.431919006630778">
        <ele>648.07000000000005</ele>
        <time>2013-09-06T11:55:41Z</time>
      </trkpt>
      <trkpt lat="50.390869975090027" lon="12.430659038946033">
        <ele>650.47000000000003</ele>
        <time>2013-09-06T11:55:45Z</time>
      </trkpt>
      <trkpt lat="50.390826975926757" lon="12.430343963205814">
        <ele>651.90999999999997</ele>
        <time>2013-09-06T11:55:46Z</time>
      </trkpt>
      <trkpt lat="50.390780959278345" lon="12.43005202151835">
        <ele>652.38999999999999</ele>
        <time>2013-09-06T11:55:47Z</time>
      </trkpt>
      <trkpt lat="50.390722034499049" lon="12.429770976305008">
        <ele>652.87</ele>
        <time>2013-09-06T11:55:48Z</time>
      </trkpt>
      <trkpt lat="50.390668977051973" lon="12.429512981325388">
        <ele>653.35000000000002</ele>
        <time>2013-09-06T11:55:49Z</time>
      </trkpt>
      <trkpt lat="50.390556994825602" lon="12.428215965628624">
        <ele>654.30999999999995</ele>
        <time>2013-09-06T11:55:54Z</time>
      </trkpt>
      <trkpt lat="50.390595970675349" lon="12.426008004695177">
        <ele>657.67999999999995</ele>
        <time>2013-09-06T11:56:00Z</time>
      </trkpt>
      <trkpt lat="50.390589013695717" lon="12.423068974167109">
        <ele>667.28999999999996</ele>
        <time>2013-09-06T11:56:09Z</time>
      </trkpt>
      <trkpt lat="50.390676017850637" lon="12.422850960865617">
        <ele>669.22000000000003</ele>
        <time>2013-09-06T11:56:10Z</time>
      </trkpt>
      <trkpt lat="50.390801997855306" lon="12.42268399335444">
        <ele>669.70000000000005</ele>
        <time>2013-09-06T11:56:11Z</time>
      </trkpt>
      <trkpt lat="50.390969971194863" lon="12.42257796227932">
        <ele>669.70000000000005</ele>
        <time>2013-09-06T11:56:12Z</time>
      </trkpt>
      <trkpt lat="50.391152026131749" lon="12.422518031671643">
        <ele>670.65999999999997</ele>
        <time>2013-09-06T11:56:13Z</time>
      </trkpt>
      <trkpt lat="50.391360986977816" lon="12.422537980601192">
        <ele>671.62</ele>
        <time>2013-09-06T11:56:14Z</time>
      </trkpt>
      <trkpt lat="50.391528960317373" lon="12.422686005011201">
        <ele>672.58000000000004</ele>
        <time>2013-09-06T11:56:15Z</time>
      </trkpt>
      <trkpt lat="50.391697017475963" lon="12.42287996225059">
        <ele>674.01999999999998</ele>
        <time>2013-09-06T11:56:16Z</time>
      </trkpt>
      <trkpt lat="50.391804976388812" lon="12.423115996643901">
        <ele>676.90999999999997</ele>
        <time>2013-09-06T11:56:17Z</time>
      </trkpt>
      <trkpt lat="50.391878988593817" lon="12.423410033807158">
        <ele>677.38999999999999</ele>
        <time>2013-09-06T11:56:18Z</time>
      </trkpt>
      <trkpt lat="50.391962975263596" lon="12.423699041828513">
        <ele>677.87</ele>
        <time>2013-09-06T11:56:19Z</time>
      </trkpt>
      <trkpt lat="50.392792029306293" lon="12.426754999905825">
        <ele>691.33000000000004</ele>
        <time>2013-09-06T11:56:29Z</time>
      </trkpt>
      <trkpt lat="50.393527960404754" lon="12.430338012054563">
        <ele>708.14999999999998</ele>
        <time>2013-09-06T11:56:40Z</time>
      </trkpt>
      <trkpt lat="50.39433597587049" lon="12.432869011536241">
        <ele>724.97000000000003</ele>
        <time>2013-09-06T11:56:48Z</time>
      </trkpt>
      <trkpt lat="50.394974006339908" lon="12.435319041833282">
        <ele>738.42999999999995</ele>
        <time>2013-09-06T11:56:56Z</time>
      </trkpt>
      <trkpt lat="50.395097974687815" lon="12.435549963265657">
        <ele>737.95000000000005</ele>
        <time>2013-09-06T11:56:57Z</time>
      </trkpt>
      <trkpt lat="50.395232001319528" lon="12.435755990445614">
        <ele>737.47000000000003</ele>
        <time>2013-09-06T11:56:58Z</time>
      </trkpt>
      <trkpt lat="50.395372984930873" lon="12.435909966006875">
        <ele>738.42999999999995</ele>
        <time>2013-09-06T11:56:59Z</time>
      </trkpt>
      <trkpt lat="50.395536012947559" lon="12.435968974605203">
        <ele>738.90999999999997</ele>
        <time>2013-09-06T11:57:00Z</time>
      </trkpt>
      <trkpt lat="50.395812029018998" lon="12.435767976567149">
        <ele>740.35000000000002</ele>
        <time>2013-09-06T11:57:01Z</time>
      </trkpt>
      <trkpt lat="50.395999029278755" lon="12.435635039582849">
        <ele>741.30999999999995</ele>
        <time>2013-09-06T11:57:02Z</time>
      </trkpt>
      <trkpt lat="50.396184017881751" lon="12.435419959947467">
        <ele>742.27999999999997</ele>
        <time>2013-09-06T11:57:03Z</time>
      </trkpt>
      <trkpt lat="50.39633497595787" lon="12.435173029080033">
        <ele>744.20000000000005</ele>
        <time>2013-09-06T11:57:04Z</time>
      </trkpt>
      <trkpt lat="50.396442012861371" lon="12.434842027723789">
        <ele>742.75999999999999</ele>
        <time>2013-09-06T11:57:05Z</time>
      </trkpt>
      <trkpt lat="50.396541003137827" lon="12.434509014710784">
        <ele>745.15999999999997</ele>
        <time>2013-09-06T11:57:06Z</time>
      </trkpt>
      <trkpt lat="50.396607974544168" lon="12.434177007526159">
        <ele>747.08000000000004</ele>
        <time>2013-09-06T11:57:07Z</time>
      </trkpt>
      <trkpt lat="50.396662037819624" lon="12.433849023655057">
        <ele>748.03999999999996</ele>
        <time>2013-09-06T11:57:08Z</time>
      </trkpt>
      <trkpt lat="50.396879967302084" lon="12.432850990444422">
        <ele>751.88999999999999</ele>
        <time>2013-09-06T11:57:11Z</time>
      </trkpt>
      <trkpt lat="50.397240975871682" lon="12.432001987472177">
        <ele>756.21000000000004</ele>
        <time>2013-09-06T11:57:14Z</time>
      </trkpt>
      <trkpt lat="50.397418001666665" lon="12.431823033839464">
        <ele>759.58000000000004</ele>
        <time>2013-09-06T11:57:15Z</time>
      </trkpt>
      <trkpt lat="50.397609025239944" lon="12.431682972237468">
        <ele>760.53999999999996</ele>
        <time>2013-09-06T11:57:16Z</time>
      </trkpt>
      <trkpt lat="50.397813962772489" lon="12.43157702498138">
        <ele>762.46000000000004</ele>
        <time>2013-09-06T11:57:17Z</time>
      </trkpt>
      <trkpt lat="50.398017978295684" lon="12.431469988077879">
        <ele>764.38999999999999</ele>
        <time>2013-09-06T11:57:18Z</time>
      </trkpt>
      <trkpt lat="50.398199027404189" lon="12.43132003583014">
        <ele>766.30999999999995</ele>
        <time>2013-09-06T11:57:19Z</time>
      </trkpt>
      <trkpt lat="50.398362977430224" lon="12.431111996993423">
        <ele>766.30999999999995</ele>
        <time>2013-09-06T11:57:20Z</time>
      </trkpt>
      <trkpt lat="50.398517036810517" lon="12.430883003398776">
        <ele>767.75</ele>
        <time>2013-09-06T11:57:21Z</time>
      </trkpt>
      <trkpt lat="50.398665983229876" lon="12.430644035339355">
        <ele>768.23000000000002</ele>
        <time>2013-09-06T11:57:22Z</time>
      </trkpt>
      <trkpt lat="50.399314993992448" lon="12.429720014333725">
        <ele>774.48000000000002</ele>
        <time>2013-09-06T11:57:26Z</time>
      </trkpt>
      <trkpt lat="50.39951398037374" lon="12.429586993530393">
        <ele>776.39999999999998</ele>
        <time>2013-09-06T11:57:27Z</time>
      </trkpt>
      <trkpt lat="50.399726964533329" lon="12.429506024345756">
        <ele>776.88</ele>
        <time>2013-09-06T11:57:28Z</time>
      </trkpt>
      <trkpt lat="50.399928968399763" lon="12.429470987990499">
        <ele>777.84000000000003</ele>
        <time>2013-09-06T11:57:29Z</time>
      </trkpt>
      <trkpt lat="50.400128960609436" lon="12.429470987990499">
        <ele>778.32000000000005</ele>
        <time>2013-09-06T11:57:30Z</time>
      </trkpt>
      <trkpt lat="50.400325013324618" lon="12.429505018517375">
        <ele>779.28999999999996</ele>
        <time>2013-09-06T11:57:31Z</time>
      </trkpt>
      <trkpt lat="50.400518970564008" lon="12.4295589979738">
        <ele>780.25</ele>
        <time>2013-09-06T11:57:32Z</time>
      </trkpt>
      <trkpt lat="50.400698008015752" lon="12.429618006572127">
        <ele>780.25</ele>
        <time>2013-09-06T11:57:33Z</time>
      </trkpt>
      <trkpt lat="50.401255991309881" lon="12.42970802821219">
        <ele>780.73000000000002</ele>
        <time>2013-09-06T11:57:36Z</time>
      </trkpt>
      <trkpt lat="50.401438968256116" lon="12.429652959108353">
        <ele>781.21000000000004</ele>
        <time>2013-09-06T11:57:37Z</time>
      </trkpt>
      <trkpt lat="50.401600990444422" lon="12.429552040994167">
        <ele>780.25</ele>
        <time>2013-09-06T11:57:38Z</time>
      </trkpt>
      <trkpt lat="50.401753038167953" lon="12.42940803989768">
        <ele>780.25</ele>
        <time>2013-09-06T11:57:39Z</time>
      </trkpt>
      <trkpt lat="50.401880024001002" lon="12.429225984960794">
        <ele>780.73000000000002</ele>
        <time>2013-09-06T11:57:40Z</time>
      </trkpt>
      <trkpt lat="50.40198496542871" lon="12.429006965830922">
        <ele>781.21000000000004</ele>
        <time>2013-09-06T11:57:41Z</time>
      </trkpt>
      <trkpt lat="50.402074987068772" lon="12.428760034963489">
        <ele>781.69000000000005</ele>
        <time>2013-09-06T11:57:42Z</time>
      </trkpt>
      <trkpt lat="50.402137013152242" lon="12.428491981700063">
        <ele>780.73000000000002</ele>
        <time>2013-09-06T11:57:43Z</time>
      </trkpt>
      <trkpt lat="50.402183029800653" lon="12.428231975063682">
        <ele>780.25</ele>
        <time>2013-09-06T11:57:44Z</time>
      </trkpt>
      <trkpt lat="50.402647973969579" lon="12.425607014447451">
        <ele>775.44000000000005</ele>
        <time>2013-09-06T11:57:54Z</time>
      </trkpt>
      <trkpt lat="50.402937987819314" lon="12.424216959625483">
        <ele>774</ele>
        <time>2013-09-06T11:57:59Z</time>
      </trkpt>
      <trkpt lat="50.40303798392415" lon="12.423938009887934">
        <ele>771.60000000000002</ele>
        <time>2013-09-06T11:58:00Z</time>
      </trkpt>
      <trkpt lat="50.403167987242341" lon="12.423699963837862">
        <ele>771.11000000000001</ele>
        <time>2013-09-06T11:58:01Z</time>
      </trkpt>
      <trkpt lat="50.404760967940092" lon="12.421356970444322">
        <ele>764.38999999999999</ele>
        <time>2013-09-06T11:58:12Z</time>
      </trkpt>
      <trkpt lat="50.4059780202806" lon="12.419610014185309">
        <ele>760.53999999999996</ele>
        <time>2013-09-06T11:58:20Z</time>
      </trkpt>
      <trkpt lat="50.406874967738986" lon="12.418032959103584">
        <ele>755.25</ele>
        <time>2013-09-06T11:58:27Z</time>
      </trkpt>
      <trkpt lat="50.407637972384691" lon="12.415951984003186">
        <ele>750.92999999999995</ele>
        <time>2013-09-06T11:58:36Z</time>
      </trkpt>
      <trkpt lat="50.407983977347612" lon="12.415124019607902">
        <ele>749.97000000000003</ele>
        <time>2013-09-06T11:58:40Z</time>
      </trkpt>
      <trkpt lat="50.408095959573984" lon="12.414956968277693">
        <ele>749.97000000000003</ele>
        <time>2013-09-06T11:58:41Z</time>
      </trkpt>
      <trkpt lat="50.408223029226065" lon="12.414815984666348">
        <ele>749.49000000000001</ele>
        <time>2013-09-06T11:58:42Z</time>
      </trkpt>
      <trkpt lat="50.408374993130565" lon="12.414708025753498">
        <ele>749</ele>
        <time>2013-09-06T11:58:43Z</time>
      </trkpt>
      <trkpt lat="50.408533997833729" lon="12.414630996063352">
        <ele>748.51999999999998</ele>
        <time>2013-09-06T11:58:44Z</time>
      </trkpt>
      <trkpt lat="50.408688979223371" lon="12.414593026041985">
        <ele>748.51999999999998</ele>
        <time>2013-09-06T11:58:45Z</time>
      </trkpt>
      <trkpt lat="50.408840021118522" lon="12.414590008556843">
        <ele>748.03999999999996</ele>
        <time>2013-09-06T11:58:46Z</time>
      </trkpt>
      <trkpt lat="50.408976981416345" lon="12.414599983021617">
        <ele>748.03999999999996</ele>
        <time>2013-09-06T11:58:47Z</time>
      </trkpt>
      <trkpt lat="50.409493977203965" lon="12.41458598524332">
        <ele>747.08000000000004</ele>
        <time>2013-09-06T11:58:51Z</time>
      </trkpt>
      <trkpt lat="50.409897984936833" lon="12.414355985820293">
        <ele>747.55999999999995</ele>
        <time>2013-09-06T11:58:54Z</time>
      </trkpt>
      <trkpt lat="50.410047015175223" lon="12.414180971682072">
        <ele>747.08000000000004</ele>
        <time>2013-09-06T11:58:55Z</time>
      </trkpt>
      <trkpt lat="50.410164026543498" lon="12.414023978635669">
        <ele>747.08000000000004</ele>
        <time>2013-09-06T11:58:56Z</time>
      </trkpt>
      <trkpt lat="50.410220017656684" lon="12.413827003911138">
        <ele>745.63999999999999</ele>
        <time>2013-09-06T11:58:57Z</time>
      </trkpt>
      <trkpt lat="50.410285983234644" lon="12.413592981174588">
        <ele>744.67999999999995</ele>
        <time>2013-09-06T11:58:58Z</time>
      </trkpt>
      <trkpt lat="50.410335017368197" lon="12.413348983973265">
        <ele>744.20000000000005</ele>
        <time>2013-09-06T11:58:59Z</time>
      </trkpt>
      <trkpt lat="50.410370975732803" lon="12.413114039227366">
        <ele>743.72000000000003</ele>
        <time>2013-09-06T11:59:00Z</time>
      </trkpt>
      <trkpt lat="50.41040601208806" lon="12.412873981520534">
        <ele>743.72000000000003</ele>
        <time>2013-09-06T11:59:01Z</time>
      </trkpt>
      <trkpt lat="50.410716980695724" lon="12.410471979528666">
        <ele>737.47000000000003</ele>
        <time>2013-09-06T11:59:11Z</time>
      </trkpt>
      <trkpt lat="50.410983022302389" lon="12.408341970294714">
        <ele>733.62</ele>
        <time>2013-09-06T11:59:20Z</time>
      </trkpt>
      <trkpt lat="50.411048987880349" lon="12.408126974478364">
        <ele>733.62</ele>
        <time>2013-09-06T11:59:21Z</time>
      </trkpt>
      <trkpt lat="50.411124005913734" lon="12.407942991703749">
        <ele>733.62</ele>
        <time>2013-09-06T11:59:22Z</time>
      </trkpt>
      <trkpt lat="50.411230036988854" lon="12.407797984778881">
        <ele>732.65999999999997</ele>
        <time>2013-09-06T11:59:23Z</time>
      </trkpt>
      <trkpt lat="50.411361968144774" lon="12.407673010602593">
        <ele>731.70000000000005</ele>
        <time>2013-09-06T11:59:24Z</time>
      </trkpt>
      <trkpt lat="50.411505969241261" lon="12.407563962042332">
        <ele>731.22000000000003</ele>
        <time>2013-09-06T11:59:25Z</time>
      </trkpt>
      <trkpt lat="50.411645025014877" lon="12.407478969544172">
        <ele>730.25999999999999</ele>
        <time>2013-09-06T11:59:26Z</time>
      </trkpt>
      <trkpt lat="50.412061018869281" lon="12.407229021191597">
        <ele>725.92999999999995</ele>
        <time>2013-09-06T11:59:29Z</time>
      </trkpt>
      <trkpt lat="50.412159003317356" lon="12.407091977074742">
        <ele>723.52999999999997</ele>
        <time>2013-09-06T11:59:30Z</time>
      </trkpt>
      <trkpt lat="50.412251958623528" lon="12.406929032877088">
        <ele>721.13</ele>
        <time>2013-09-06T11:59:31Z</time>
      </trkpt>
      <trkpt lat="50.412967018783092" lon="12.40540998056531">
        <ele>712.95000000000005</ele>
        <time>2013-09-06T11:59:40Z</time>
      </trkpt>
      <trkpt lat="50.412999037653208" lon="12.405219962820411">
        <ele>711.99000000000001</ele>
        <time>2013-09-06T11:59:41Z</time>
      </trkpt>
      <trkpt lat="50.412996020168066" lon="12.405028017237782">
        <ele>711.50999999999999</ele>
        <time>2013-09-06T11:59:42Z</time>
      </trkpt>
      <trkpt lat="50.412944974377751" lon="12.404837999492884">
        <ele>711.02999999999997</ele>
        <time>2013-09-06T11:59:43Z</time>
      </trkpt>
      <trkpt lat="50.412878002971411" lon="12.404671031981707">
        <ele>710.54999999999995</ele>
        <time>2013-09-06T11:59:44Z</time>
      </trkpt>
      <trkpt lat="50.412798039615154" lon="12.404532982036471">
        <ele>709.59000000000003</ele>
        <time>2013-09-06T11:59:45Z</time>
      </trkpt>
      <trkpt lat="50.41270399466157" lon="12.404405996203423">
        <ele>710.07000000000005</ele>
        <time>2013-09-06T11:59:46Z</time>
      </trkpt>
      <trkpt lat="50.412516994401813" lon="12.404167028144002">
        <ele>709.11000000000001</ele>
        <time>2013-09-06T11:59:48Z</time>
      </trkpt>
      <trkpt lat="50.412449017167091" lon="12.404038030654192">
        <ele>706.23000000000002</ele>
        <time>2013-09-06T11:59:49Z</time>
      </trkpt>
      <trkpt lat="50.412389002740383" lon="12.403890006244183">
        <ele>705.25999999999999</ele>
        <time>2013-09-06T11:59:50Z</time>
      </trkpt>
      <trkpt lat="50.4123380407691" lon="12.403723960742354">
        <ele>704.77999999999997</ele>
        <time>2013-09-06T11:59:51Z</time>
      </trkpt>
      <trkpt lat="50.412309961393476" lon="12.40354098379612">
        <ele>703.82000000000005</ele>
        <time>2013-09-06T11:59:52Z</time>
      </trkpt>
      <trkpt lat="50.412307027727365" lon="12.403323976323009">
        <ele>704.77999999999997</ele>
        <time>2013-09-06T11:59:53Z</time>
      </trkpt>
      <trkpt lat="50.412311973050237" lon="12.403123984113336">
        <ele>703.82000000000005</ele>
        <time>2013-09-06T11:59:54Z</time>
      </trkpt>
      <trkpt lat="50.412352960556746" lon="12.402927009388804">
        <ele>703.34000000000003</ele>
        <time>2013-09-06T11:59:55Z</time>
      </trkpt>
      <trkpt lat="50.412410963326693" lon="12.40274696610868">
        <ele>702.38</ele>
        <time>2013-09-06T11:59:56Z</time>
      </trkpt>
      <trkpt lat="50.412493022158742" lon="12.402585027739406">
        <ele>701.89999999999998</ele>
        <time>2013-09-06T11:59:57Z</time>
      </trkpt>
      <trkpt lat="50.412593018263578" lon="12.402453012764454">
        <ele>701.41999999999996</ele>
        <time>2013-09-06T11:59:58Z</time>
      </trkpt>
      <trkpt lat="50.412711035460234" lon="12.402353016659617">
        <ele>701.41999999999996</ele>
        <time>2013-09-06T11:59:59Z</time>
      </trkpt>
      <trkpt lat="50.412827041000128" lon="12.402268024161458">
        <ele>700.94000000000005</ele>
        <time>2013-09-06T12:00:00Z</time>
      </trkpt>
      <trkpt lat="50.412950003519654" lon="12.402197029441595">
        <ele>700.46000000000004</ele>
        <time>2013-09-06T12:00:01Z</time>
      </trkpt>
      <trkpt lat="50.413077995181084" lon="12.402149001136422">
        <ele>699.98000000000002</ele>
        <time>2013-09-06T12:00:02Z</time>
      </trkpt>
      <trkpt lat="50.413202969357371" lon="12.402112958952785">
        <ele>699.98000000000002</ele>
        <time>2013-09-06T12:00:03Z</time>
      </trkpt>
      <trkpt lat="50.414490010589361" lon="12.402007011696696">
        <ele>699.98000000000002</ele>
        <time>2013-09-06T12:00:12Z</time>
      </trkpt>
      <trkpt lat="50.415360974147916" lon="12.402008017525077">
        <ele>699.5</ele>
        <time>2013-09-06T12:00:18Z</time>
      </trkpt>
      <trkpt lat="50.416135964915156" lon="12.401694031432271">
        <ele>696.13</ele>
        <time>2013-09-06T12:00:25Z</time>
      </trkpt>
      <trkpt lat="50.416203020140529" lon="12.401608033105731">
        <ele>696.61000000000001</ele>
        <time>2013-09-06T12:00:26Z</time>
      </trkpt>
      <trkpt lat="50.416256999596953" lon="12.401517005637288">
        <ele>696.61000000000001</ele>
        <time>2013-09-06T12:00:27Z</time>
      </trkpt>
      <trkpt lat="50.41629203595221" lon="12.401398988440633">
        <ele>696.61000000000001</ele>
        <time>2013-09-06T12:00:28Z</time>
      </trkpt>
      <trkpt lat="50.416325982660055" lon="12.401283988729119">
        <ele>697.09000000000003</ele>
        <time>2013-09-06T12:00:29Z</time>
      </trkpt>
      <trkpt lat="50.416370993480086" lon="12.401107968762517">
        <ele>697.09000000000003</ele>
        <time>2013-09-06T12:00:31Z</time>
      </trkpt>
      <trkpt lat="50.416367975994945" lon="12.401052983477712">
        <ele>697.09000000000003</ele>
        <time>2013-09-06T12:00:32Z</time>
      </trkpt>
      <trkpt lat="50.416350038722157" lon="12.400815021246672">
        <ele>697.09000000000003</ele>
        <time>2013-09-06T12:00:36Z</time>
      </trkpt>
      <trkpt lat="50.416308967396617" lon="12.400722987949848">
        <ele>698.04999999999995</ele>
        <time>2013-09-06T12:00:37Z</time>
      </trkpt>
      <trkpt lat="50.41616496630013" lon="12.400442026555538">
        <ele>699.01999999999998</ele>
        <time>2013-09-06T12:00:39Z</time>
      </trkpt>
      <trkpt lat="50.416092965751886" lon="12.400267012417316">
        <ele>699.98000000000002</ele>
        <time>2013-09-06T12:00:40Z</time>
      </trkpt>
      <trkpt lat="50.4159040376544" lon="12.399693019688129">
        <ele>702.86000000000001</ele>
        <time>2013-09-06T12:00:43Z</time>
      </trkpt>
      <trkpt lat="50.415828013792634" lon="12.399540971964598">
        <ele>703.34000000000003</ele>
        <time>2013-09-06T12:00:44Z</time>
      </trkpt>
      <trkpt lat="50.415732963010669" lon="12.399410968646407">
        <ele>703.82000000000005</ele>
        <time>2013-09-06T12:00:45Z</time>
      </trkpt>
      <trkpt lat="50.415628021582961" lon="12.399328993633389">
        <ele>704.77999999999997</ele>
        <time>2013-09-06T12:00:46Z</time>
      </trkpt>
      <trkpt lat="50.415507992729545" lon="12.399268979206681">
        <ele>705.75</ele>
        <time>2013-09-06T12:00:47Z</time>
      </trkpt>
      <trkpt lat="50.415386036038399" lon="12.399241989478469">
        <ele>706.23000000000002</ele>
        <time>2013-09-06T12:00:48Z</time>
      </trkpt>
      <trkpt lat="50.415249997749925" lon="12.399236960336566">
        <ele>706.23000000000002</ele>
        <time>2013-09-06T12:00:49Z</time>
      </trkpt>
      <trkpt lat="50.414994014427066" lon="12.399181975051761">
        <ele>708.63</ele>
        <time>2013-09-06T12:00:51Z</time>
      </trkpt>
      <trkpt lat="50.414883960038424" lon="12.399111986160278">
        <ele>709.59000000000003</ele>
        <time>2013-09-06T12:00:52Z</time>
      </trkpt>
      <trkpt lat="50.414779018610716" lon="12.399016013368964">
        <ele>710.54999999999995</ele>
        <time>2013-09-06T12:00:53Z</time>
      </trkpt>
      <trkpt lat="50.414676005020738" lon="12.398890033364296">
        <ele>711.99000000000001</ele>
        <time>2013-09-06T12:00:54Z</time>
      </trkpt>
      <trkpt lat="50.414581960067153" lon="12.398747038096189">
        <ele>712.95000000000005</ele>
        <time>2013-09-06T12:00:55Z</time>
      </trkpt>
      <trkpt lat="50.41450803168118" lon="12.39857504144311">
        <ele>715.36000000000001</ele>
        <time>2013-09-06T12:00:56Z</time>
      </trkpt>
      <trkpt lat="50.414421027526259" lon="12.398410001769662">
        <ele>716.79999999999995</ele>
        <time>2013-09-06T12:00:57Z</time>
      </trkpt>
      <trkpt lat="50.413931021466851" lon="12.397197978571057">
        <ele>727.86000000000001</ele>
        <time>2013-09-06T12:01:04Z</time>
      </trkpt>
      <trkpt lat="50.413421988487244" lon="12.395381033420563">
        <ele>738.90999999999997</ele>
        <time>2013-09-06T12:01:12Z</time>
      </trkpt>
      <trkpt lat="50.412905998528004" lon="12.393372980877757">
        <ele>742.75999999999999</ele>
        <time>2013-09-06T12:01:19Z</time>
      </trkpt>
      <trkpt lat="50.41242596693337" lon="12.390161035582423">
        <ele>743.72000000000003</ele>
        <time>2013-09-06T12:01:28Z</time>
      </trkpt>
      <trkpt lat="50.41227500885725" lon="12.38837200216949">
        <ele>746.12</ele>
        <time>2013-09-06T12:01:33Z</time>
      </trkpt>
      <trkpt lat="50.41229403577745" lon="12.388041000813246">
        <ele>746.60000000000002</ele>
        <time>2013-09-06T12:01:34Z</time>
      </trkpt>
      <trkpt lat="50.412328988313675" lon="12.387711005285382">
        <ele>747.08000000000004</ele>
        <time>2013-09-06T12:01:35Z</time>
      </trkpt>
      <trkpt lat="50.412922007963061" lon="12.384906001389027">
        <ele>751.40999999999997</ele>
        <time>2013-09-06T12:01:43Z</time>
      </trkpt>
      <trkpt lat="50.413656011223793" lon="12.38143203780055">
        <ele>756.21000000000004</ele>
        <time>2013-09-06T12:01:53Z</time>
      </trkpt>
      <trkpt lat="50.41427300311625" lon="12.378582023084164">
        <ele>761.01999999999998</ele>
        <time>2013-09-06T12:02:01Z</time>
      </trkpt>
      <trkpt lat="50.414856970310211" lon="12.375721028074622">
        <ele>764.87</ele>
        <time>2013-09-06T12:02:09Z</time>
      </trkpt>
      <trkpt lat="50.414889995008707" lon="12.375383991748095">
        <ele>765.35000000000002</ele>
        <time>2013-09-06T12:02:10Z</time>
      </trkpt>
      <trkpt lat="50.414872979745269" lon="12.375042010098696">
        <ele>766.78999999999996</ele>
        <time>2013-09-06T12:02:11Z</time>
      </trkpt>
      <trkpt lat="50.414826963096857" lon="12.374742021784186">
        <ele>767.75</ele>
        <time>2013-09-06T12:02:12Z</time>
      </trkpt>
      <trkpt lat="50.414716992527246" lon="12.374464999884367">
        <ele>768.71000000000004</ele>
        <time>2013-09-06T12:02:13Z</time>
      </trkpt>
      <trkpt lat="50.414564022794366" lon="12.374195018783212">
        <ele>769.66999999999996</ele>
        <time>2013-09-06T12:02:14Z</time>
      </trkpt>
      <trkpt lat="50.414419015869498" lon="12.373936017975211">
        <ele>770.14999999999998</ele>
        <time>2013-09-06T12:02:15Z</time>
      </trkpt>
      <trkpt lat="50.412538032978773" lon="12.370535982772708">
        <ele>781.69000000000005</ele>
        <time>2013-09-06T12:02:28Z</time>
      </trkpt>
      <trkpt lat="50.410848995670676" lon="12.367577003315091">
        <ele>788.41999999999996</ele>
        <time>2013-09-06T12:02:39Z</time>
      </trkpt>
      <trkpt lat="50.409030960872769" lon="12.363844960927963">
        <ele>786.98000000000002</ele>
        <time>2013-09-06T12:02:52Z</time>
      </trkpt>
      <trkpt lat="50.40733496658504" lon="12.360837031155825">
        <ele>790.34000000000003</ele>
        <time>2013-09-06T12:03:03Z</time>
      </trkpt>
      <trkpt lat="50.406206008046865" lon="12.358983960002661">
        <ele>789.38</ele>
        <time>2013-09-06T12:03:10Z</time>
      </trkpt>
      <trkpt lat="50.406078016385436" lon="12.358682965859771">
        <ele>789.38</ele>
        <time>2013-09-06T12:03:11Z</time>
      </trkpt>
      <trkpt lat="50.40460498072207" lon="12.355935964733362">
        <ele>791.77999999999997</ele>
        <time>2013-09-06T12:03:21Z</time>
      </trkpt>
      <trkpt lat="50.40406602434814" lon="12.35534998588264">
        <ele>790.34000000000003</ele>
        <time>2013-09-06T12:03:24Z</time>
      </trkpt>
      <trkpt lat="50.403879024088383" lon="12.355201961472631">
        <ele>790.34000000000003</ele>
        <time>2013-09-06T12:03:25Z</time>
      </trkpt>
      <trkpt lat="50.403691018000245" lon="12.355080004781485">
        <ele>790.34000000000003</ele>
        <time>2013-09-06T12:03:26Z</time>
      </trkpt>
      <trkpt lat="50.40348800830543" lon="12.355014039203525">
        <ele>790.34000000000003</ele>
        <time>2013-09-06T12:03:27Z</time>
      </trkpt>
      <trkpt lat="50.403281981125474" lon="12.355011021718383">
        <ele>790.82000000000005</ele>
        <time>2013-09-06T12:03:28Z</time>
      </trkpt>
      <trkpt lat="50.403074026107788" lon="12.355057960376143">
        <ele>790.34000000000003</ele>
        <time>2013-09-06T12:03:29Z</time>
      </trkpt>
      <trkpt lat="50.40286498144269" lon="12.355124009773135">
        <ele>790.34000000000003</ele>
        <time>2013-09-06T12:03:30Z</time>
      </trkpt>
      <trkpt lat="50.402659038081765" lon="12.355163991451263">
        <ele>790.34000000000003</ele>
        <time>2013-09-06T12:03:31Z</time>
      </trkpt>
      <trkpt lat="50.402457034215331" lon="12.355157034471631">
        <ele>789.86000000000001</ele>
        <time>2013-09-06T12:03:32Z</time>
      </trkpt>
      <trkpt lat="50.402242038398981" lon="12.355117974802852">
        <ele>788.89999999999998</ele>
        <time>2013-09-06T12:03:33Z</time>
      </trkpt>
      <trkpt lat="50.401607025414705" lon="12.354904990643263">
        <ele>789.38</ele>
        <time>2013-09-06T12:03:36Z</time>
      </trkpt>
      <trkpt lat="50.401404015719891" lon="12.354753026738763">
        <ele>788.89999999999998</ele>
        <time>2013-09-06T12:03:37Z</time>
      </trkpt>
      <trkpt lat="50.400518970564008" lon="12.353605963289738">
        <ele>785.04999999999995</ele>
        <time>2013-09-06T12:03:43Z</time>
      </trkpt>
      <trkpt lat="50.39996400475502" lon="12.351665971800685">
        <ele>779.28999999999996</ele>
        <time>2013-09-06T12:03:50Z</time>
      </trkpt>
      <trkpt lat="50.399829978123307" lon="12.351132966578007">
        <ele>777.84000000000003</ele>
        <time>2013-09-06T12:03:52Z</time>
      </trkpt>
      <trkpt lat="50.399809023365378" lon="12.35086097382009">
        <ele>777.84000000000003</ele>
        <time>2013-09-06T12:03:53Z</time>
      </trkpt>
      <trkpt lat="50.39981103502214" lon="12.350582024082541">
        <ele>776.88</ele>
        <time>2013-09-06T12:03:54Z</time>
      </trkpt>
      <trkpt lat="50.399861996993423" lon="12.347924038767815">
        <ele>765.35000000000002</ele>
        <time>2013-09-06T12:04:03Z</time>
      </trkpt>
      <trkpt lat="50.399817992001772" lon="12.346645966172218">
        <ele>758.62</ele>
        <time>2013-09-06T12:04:08Z</time>
      </trkpt>
      <trkpt lat="50.399774992838502" lon="12.346405992284417">
        <ele>756.69000000000005</ele>
        <time>2013-09-06T12:04:09Z</time>
      </trkpt>
      <trkpt lat="50.39972797036171" lon="12.346170041710138">
        <ele>754.76999999999998</ele>
        <time>2013-09-06T12:04:10Z</time>
      </trkpt>
      <trkpt lat="50.399655969813466" lon="12.345945993438363">
        <ele>752.85000000000002</ele>
        <time>2013-09-06T12:04:11Z</time>
      </trkpt>
      <trkpt lat="50.399588998407125" lon="12.345727980136871">
        <ele>752.37</ele>
        <time>2013-09-06T12:04:12Z</time>
      </trkpt>
      <trkpt lat="50.399003019556403" lon="12.344539007171988">
        <ele>746.12</ele>
        <time>2013-09-06T12:04:19Z</time>
      </trkpt>
      <trkpt lat="50.398919032886624" lon="12.344417972490191">
        <ele>745.15999999999997</ele>
        <time>2013-09-06T12:04:20Z</time>
      </trkpt>
      <trkpt lat="50.398706970736384" lon="12.344070039689541">
        <ele>743.24000000000001</ele>
        <time>2013-09-06T12:04:23Z</time>
      </trkpt>
      <trkpt lat="50.398618960753083" lon="12.34400600194931">
        <ele>743.72000000000003</ele>
        <time>2013-09-06T12:04:24Z</time>
      </trkpt>
      <trkpt lat="50.398521982133389" lon="12.34398496337235">
        <ele>745.63999999999999</ele>
        <time>2013-09-06T12:04:25Z</time>
      </trkpt>
      <trkpt lat="50.39762101136148" lon="12.343733003363013">
        <ele>748.03999999999996</ele>
        <time>2013-09-06T12:04:33Z</time>
      </trkpt>
      <trkpt lat="50.396948028355837" lon="12.343451036140323">
        <ele>749.97000000000003</ele>
        <time>2013-09-06T12:04:39Z</time>
      </trkpt>
      <trkpt lat="50.396852977573872" lon="12.343384986743331">
        <ele>750.45000000000005</ele>
        <time>2013-09-06T12:04:40Z</time>
      </trkpt>
      <trkpt lat="50.396768990904093" lon="12.343280967324972">
        <ele>750.92999999999995</ele>
        <time>2013-09-06T12:04:41Z</time>
      </trkpt>
      <trkpt lat="50.396708976477385" lon="12.343126991763711">
        <ele>751.88999999999999</ele>
        <time>2013-09-06T12:04:42Z</time>
      </trkpt>
      <trkpt lat="50.396667988970876" lon="12.342960024252534">
        <ele>752.85000000000002</ele>
        <time>2013-09-06T12:04:43Z</time>
      </trkpt>
      <trkpt lat="50.39663496427238" lon="12.342787021771073">
        <ele>752.85000000000002</ele>
        <time>2013-09-06T12:04:44Z</time>
      </trkpt>
      <trkpt lat="50.396357020363212" lon="12.341483971104026">
        <ele>752.37</ele>
        <time>2013-09-06T12:04:51Z</time>
      </trkpt>
      <trkpt lat="50.396315027028322" lon="12.341295965015888">
        <ele>752.37</ele>
        <time>2013-09-06T12:04:52Z</time>
      </trkpt>
      <trkpt lat="50.395931974053383" lon="12.339261006563902">
        <ele>749.97000000000003</ele>
        <time>2013-09-06T12:05:03Z</time>
      </trkpt>
      <trkpt lat="50.395861985161901" lon="12.33833396807313">
        <ele>737.95000000000005</ele>
        <time>2013-09-06T12:05:11Z</time>
      </trkpt>
      <trkpt lat="50.395868020132184" lon="12.338259033858776">
        <ele>737.47000000000003</ele>
        <time>2013-09-06T12:05:16Z</time>
      </trkpt>
      <trkpt lat="50.395898027345538" lon="12.338201031088829">
        <ele>737.95000000000005</ele>
        <time>2013-09-06T12:05:17Z</time>
      </trkpt>
      <trkpt lat="50.395963992923498" lon="12.338143028318882">
        <ele>736.50999999999999</ele>
        <time>2013-09-06T12:05:18Z</time>
      </trkpt>
      <trkpt lat="50.396840991452336" lon="12.337399972602725">
        <ele>735.07000000000005</ele>
        <time>2013-09-06T12:05:30Z</time>
      </trkpt>
      <trkpt lat="50.396876027807593" lon="12.337288996204734">
        <ele>734.10000000000002</ele>
        <time>2013-09-06T12:05:31Z</time>
      </trkpt>
      <trkpt lat="50.396881978958845" lon="12.337162010371685">
        <ele>732.17999999999995</ele>
        <time>2013-09-06T12:05:32Z</time>
      </trkpt>
      <trkpt lat="50.396867981180549" lon="12.337042987346649">
        <ele>731.70000000000005</ele>
        <time>2013-09-06T12:05:33Z</time>
      </trkpt>
      <trkpt lat="50.396819030866027" lon="12.336924970149994">
        <ele>729.77999999999997</ele>
        <time>2013-09-06T12:05:34Z</time>
      </trkpt>
      <trkpt lat="50.396775025874376" lon="12.336798990145326">
        <ele>728.34000000000003</ele>
        <time>2013-09-06T12:05:35Z</time>
      </trkpt>
      <trkpt lat="50.396304968744516" lon="12.33543299138546">
        <ele>727.37</ele>
        <time>2013-09-06T12:05:46Z</time>
      </trkpt>
      <trkpt lat="50.395756037905812" lon="12.333933971822262">
        <ele>734.58000000000004</ele>
        <time>2013-09-06T12:05:57Z</time>
      </trkpt>
      <trkpt lat="50.395108032971621" lon="12.332201013341546">
        <ele>740.35000000000002</ele>
        <time>2013-09-06T12:06:08Z</time>
      </trkpt>
      <trkpt lat="50.394775019958615" lon="12.331237010657787">
        <ele>739.87</ele>
        <time>2013-09-06T12:06:14Z</time>
      </trkpt>
      <trkpt lat="50.394774014130235" lon="12.331088986247778">
        <ele>738.42999999999995</ele>
        <time>2013-09-06T12:06:15Z</time>
      </trkpt>
      <trkpt lat="50.394825981929898" lon="12.33096401207149">
        <ele>738.90999999999997</ele>
        <time>2013-09-06T12:06:16Z</time>
      </trkpt>
      <trkpt lat="50.394906029105186" lon="12.330845994874835">
        <ele>738.42999999999995</ele>
        <time>2013-09-06T12:06:17Z</time>
      </trkpt>
      <trkpt lat="50.394989009946585" lon="12.330715991556644">
        <ele>736.50999999999999</ele>
        <time>2013-09-06T12:06:18Z</time>
      </trkpt>
      <trkpt lat="50.395935997366905" lon="12.329188976436853">
        <ele>722.57000000000005</ele>
        <time>2013-09-06T12:06:28Z</time>
      </trkpt>
      <trkpt lat="50.39721499197185" lon="12.327214032411575">
        <ele>708.63</ele>
        <time>2013-09-06T12:06:38Z</time>
      </trkpt>
      <trkpt lat="50.399269983172417" lon="12.324028993025422">
        <ele>697.57000000000005</ele>
        <time>2013-09-06T12:06:52Z</time>
      </trkpt>
      <trkpt lat="50.401797965168953" lon="12.319862013682723">
        <ele>686.03999999999996</ele>
        <time>2013-09-06T12:07:08Z</time>
      </trkpt>
      <trkpt lat="50.402831034734845" lon="12.316789962351322">
        <ele>681.23000000000002</ele>
        <time>2013-09-06T12:07:18Z</time>
      </trkpt>
      <trkpt lat="50.402889959514141" lon="12.316446974873543">
        <ele>680.75</ele>
        <time>2013-09-06T12:07:19Z</time>
      </trkpt>
      <trkpt lat="50.403035972267389" lon="12.313950005918741">
        <ele>673.53999999999996</ele>
        <time>2013-09-06T12:07:26Z</time>
      </trkpt>
      <trkpt lat="50.402637999504805" lon="12.311035031452775">
        <ele>663.92999999999995</ele>
        <time>2013-09-06T12:07:34Z</time>
      </trkpt>
      <trkpt lat="50.401981025934219" lon="12.307018004357815">
        <ele>647.10000000000002</ele>
        <time>2013-09-06T12:07:45Z</time>
      </trkpt>
      <trkpt lat="50.401165969669819" lon="12.302085002884269">
        <ele>616.34000000000003</ele>
        <time>2013-09-06T12:07:59Z</time>
      </trkpt>
      <trkpt lat="50.400751987472177" lon="12.299103979021311">
        <ele>607.69000000000005</ele>
        <time>2013-09-06T12:08:09Z</time>
      </trkpt>
      <trkpt lat="50.400662971660495" lon="12.296331999823451">
        <ele>601.44000000000005</ele>
        <time>2013-09-06T12:08:17Z</time>
      </trkpt>
      <trkpt lat="50.401104027405381" lon="12.293167999014258">
        <ele>600.96000000000004</ele>
        <time>2013-09-06T12:08:26Z</time>
      </trkpt>
      <trkpt lat="50.402044979855418" lon="12.288775965571404">
        <ele>596.14999999999998</ele>
        <time>2013-09-06T12:08:39Z</time>
      </trkpt>
      <trkpt lat="50.402611009776592" lon="12.285868031904101">
        <ele>587.01999999999998</ele>
        <time>2013-09-06T12:08:49Z</time>
      </trkpt>
      <trkpt lat="50.402946034446359" lon="12.282775025814772">
        <ele>575.00999999999999</ele>
        <time>2013-09-06T12:09:01Z</time>
      </trkpt>
      <trkpt lat="50.403131023049355" lon="12.280201027169824">
        <ele>571.15999999999997</ele>
        <time>2013-09-06T12:09:11Z</time>
      </trkpt>
      <trkpt lat="50.403286004438996" lon="12.276663025841117">
        <ele>565.38999999999999</ele>
        <time>2013-09-06T12:09:21Z</time>
      </trkpt>
      <trkpt lat="50.403399998322129" lon="12.272403007373214">
        <ele>554.34000000000003</ele>
        <time>2013-09-06T12:09:33Z</time>
      </trkpt>
      <trkpt lat="50.403491025790572" lon="12.269076984375715">
        <ele>545.69000000000005</ele>
        <time>2013-09-06T12:09:43Z</time>
      </trkpt>
      <trkpt lat="50.403671991080046" lon="12.262591989710927">
        <ele>534.63</ele>
        <time>2013-09-06T12:10:01Z</time>
      </trkpt>
      <trkpt lat="50.40383200161159" lon="12.258919961750507">
        <ele>523.09000000000003</ele>
        <time>2013-09-06T12:10:11Z</time>
      </trkpt>
      <trkpt lat="50.403936021029949" lon="12.255538031458855">
        <ele>511.56</ele>
        <time>2013-09-06T12:10:20Z</time>
      </trkpt>
      <trkpt lat="50.404000980779529" lon="12.251910008490086">
        <ele>501.94999999999999</ele>
        <time>2013-09-06T12:10:30Z</time>
      </trkpt>
      <trkpt lat="50.403786990791559" lon="12.248667972162366">
        <ele>501.94999999999999</ele>
        <time>2013-09-06T12:10:39Z</time>
      </trkpt>
      <trkpt lat="50.40353000164032" lon="12.245584018528461">
        <ele>497.13999999999999</ele>
        <time>2013-09-06T12:10:49Z</time>
      </trkpt>
      <trkpt lat="50.403104033321142" lon="12.243761038407683">
        <ele>491.85000000000002</ele>
        <time>2013-09-06T12:10:57Z</time>
      </trkpt>
      <trkpt lat="50.402772026136518" lon="12.241825992241502">
        <ele>485.12</ele>
        <time>2013-09-06T12:11:06Z</time>
      </trkpt>
      <trkpt lat="50.402802033349872" lon="12.241167007014155">
        <ele>483.68000000000001</ele>
        <time>2013-09-06T12:11:09Z</time>
      </trkpt>
      <trkpt lat="50.40303697809577" lon="12.238552020862699">
        <ele>481.27999999999997</ele>
        <time>2013-09-06T12:11:21Z</time>
      </trkpt>
      <trkpt lat="50.403137980028987" lon="12.236521001905203">
        <ele>484.16000000000003</ele>
        <time>2013-09-06T12:11:30Z</time>
      </trkpt>
      <trkpt lat="50.403204029425979" lon="12.236309023573995">
        <ele>483.68000000000001</ele>
        <time>2013-09-06T12:11:31Z</time>
      </trkpt>
      <trkpt lat="50.403278041630983" lon="12.236119005829096">
        <ele>483.68000000000001</ele>
        <time>2013-09-06T12:11:32Z</time>
      </trkpt>
      <trkpt lat="50.403360016644001" lon="12.235943991690874">
        <ele>483.19999999999999</ele>
        <time>2013-09-06T12:11:33Z</time>
      </trkpt>
      <trkpt lat="50.403447020798922" lon="12.235789010301232">
        <ele>483.19999999999999</ele>
        <time>2013-09-06T12:11:34Z</time>
      </trkpt>
      <trkpt lat="50.40355104021728" lon="12.235651966184378">
        <ele>483.68000000000001</ele>
        <time>2013-09-06T12:11:35Z</time>
      </trkpt>
      <trkpt lat="50.40365899913013" lon="12.235511988401413">
        <ele>484.16000000000003</ele>
        <time>2013-09-06T12:11:36Z</time>
      </trkpt>
      <trkpt lat="50.403755977749825" lon="12.235366981476545">
        <ele>484.16000000000003</ele>
        <time>2013-09-06T12:11:37Z</time>
      </trkpt>
      <trkpt lat="50.403843987733126" lon="12.235196996480227">
        <ele>483.68000000000001</ele>
        <time>2013-09-06T12:11:38Z</time>
      </trkpt>
      <trkpt lat="50.403914982452989" lon="12.235016031190753">
        <ele>482.72000000000003</ele>
        <time>2013-09-06T12:11:39Z</time>
      </trkpt>
      <trkpt lat="50.403970973566175" lon="12.23481603898108">
        <ele>482.24000000000001</ele>
        <time>2013-09-06T12:11:40Z</time>
      </trkpt>
      <trkpt lat="50.404021013528109" lon="12.234610011801124">
        <ele>481.75999999999999</ele>
        <time>2013-09-06T12:11:41Z</time>
      </trkpt>
      <trkpt lat="50.404056971892715" lon="12.234397027641535">
        <ele>481.75999999999999</ele>
        <time>2013-09-06T12:11:42Z</time>
      </trkpt>
      <trkpt lat="50.404115980491042" lon="12.233981033787131">
        <ele>480.80000000000001</ele>
        <time>2013-09-06T12:11:44Z</time>
      </trkpt>
      <trkpt lat="50.404227962717414" lon="12.233129013329744">
        <ele>478.38999999999999</ele>
        <time>2013-09-06T12:11:48Z</time>
      </trkpt>
      <trkpt lat="50.404272973537445" lon="12.232907982543111">
        <ele>477.91000000000003</ele>
        <time>2013-09-06T12:11:49Z</time>
      </trkpt>
      <trkpt lat="50.40432795882225" lon="12.232706984505057">
        <ele>477.43000000000001</ele>
        <time>2013-09-06T12:11:50Z</time>
      </trkpt>
      <trkpt lat="50.404667006805539" lon="12.231773994863033">
        <ele>474.06999999999999</ele>
        <time>2013-09-06T12:11:55Z</time>
      </trkpt>
      <trkpt lat="50.404713023453951" lon="12.23157299682498">
        <ele>473.58999999999997</ele>
        <time>2013-09-06T12:11:56Z</time>
      </trkpt>
      <trkpt lat="50.404745964333415" lon="12.231368981301785">
        <ele>473.58999999999997</ele>
        <time>2013-09-06T12:11:57Z</time>
      </trkpt>
      <trkpt lat="50.405052993446589" lon="12.229094970971346">
        <ele>472.13999999999999</ele>
        <time>2013-09-06T12:12:08Z</time>
      </trkpt>
      <trkpt lat="50.405042013153434" lon="12.228889027610421">
        <ele>472.63</ele>
        <time>2013-09-06T12:12:09Z</time>
      </trkpt>
      <trkpt lat="50.404790975153446" lon="12.226990023627877">
        <ele>472.13999999999999</ele>
        <time>2013-09-06T12:12:18Z</time>
      </trkpt>
      <trkpt lat="50.404682010412216" lon="12.226345958188176">
        <ele>471.18000000000001</ele>
        <time>2013-09-06T12:12:21Z</time>
      </trkpt>
      <trkpt lat="50.404687961563468" lon="12.226128028705716">
        <ele>470.22000000000003</ele>
        <time>2013-09-06T12:12:22Z</time>
      </trkpt>
      <trkpt lat="50.404716040939093" lon="12.225914960727096">
        <ele>469.74000000000001</ele>
        <time>2013-09-06T12:12:23Z</time>
      </trkpt>
      <trkpt lat="50.404875967651606" lon="12.224909970536828">
        <ele>468.77999999999997</ele>
        <time>2013-09-06T12:12:27Z</time>
      </trkpt>
      <trkpt lat="50.40488300845027" lon="12.224620962515473">
        <ele>468.77999999999997</ele>
        <time>2013-09-06T12:12:28Z</time>
      </trkpt>
      <trkpt lat="50.404864987358451" lon="12.224318962544203">
        <ele>468.77999999999997</ele>
        <time>2013-09-06T12:12:29Z</time>
      </trkpt>
      <trkpt lat="50.404833974316716" lon="12.224016040563583">
        <ele>468.77999999999997</ele>
        <time>2013-09-06T12:12:30Z</time>
      </trkpt>
      <trkpt lat="50.404794998466969" lon="12.223703982308507">
        <ele>468.30000000000001</ele>
        <time>2013-09-06T12:12:31Z</time>
      </trkpt>
      <trkpt lat="50.404206002131104" lon="12.220671996474266">
        <ele>463.00999999999999</ele>
        <time>2013-09-06T12:12:41Z</time>
      </trkpt>
      <trkpt lat="50.403182990849018" lon="12.218041000887752">
        <ele>459.64999999999998</ele>
        <time>2013-09-06T12:12:51Z</time>
      </trkpt>
      <trkpt lat="50.402021007612348" lon="12.216314999386668">
        <ele>457.72000000000003</ele>
        <time>2013-09-06T12:13:00Z</time>
      </trkpt>
      <trkpt lat="50.401330003514886" lon="12.215642016381025">
        <ele>453.88</ele>
        <time>2013-09-06T12:13:05Z</time>
      </trkpt>
      <trkpt lat="50.401189019903541" lon="12.21554403193295">
        <ele>453.39999999999998</ele>
        <time>2013-09-06T12:13:06Z</time>
      </trkpt>
      <trkpt lat="50.399760995060205" lon="12.214518003165722">
        <ele>444.26999999999998</ele>
        <time>2013-09-06T12:13:16Z</time>
      </trkpt>
      <trkpt lat="50.399639960378408" lon="12.214337037876248">
        <ele>443.31</ele>
        <time>2013-09-06T12:13:17Z</time>
      </trkpt>
      <trkpt lat="50.399538036435843" lon="12.214131010696292">
        <ele>441.86000000000001</ele>
        <time>2013-09-06T12:13:18Z</time>
      </trkpt>
      <trkpt lat="50.398966977372766" lon="12.212954023852944">
        <ele>434.64999999999998</ele>
        <time>2013-09-06T12:13:24Z</time>
      </trkpt>
      <trkpt lat="50.398852983489633" lon="12.2127940133214">
        <ele>433.69</ele>
        <time>2013-09-06T12:13:25Z</time>
      </trkpt>
      <trkpt lat="50.398727003484964" lon="12.212646994739771">
        <ele>433.20999999999998</ele>
        <time>2013-09-06T12:13:26Z</time>
      </trkpt>
      <trkpt lat="50.398586019873619" lon="12.212525038048625">
        <ele>432.73000000000002</ele>
        <time>2013-09-06T12:13:27Z</time>
      </trkpt>
      <trkpt lat="50.398447969928384" lon="12.212426969781518">
        <ele>432.25</ele>
        <time>2013-09-06T12:13:28Z</time>
      </trkpt>
      <trkpt lat="50.398307992145419" lon="12.212352035567164">
        <ele>431.76999999999998</ele>
        <time>2013-09-06T12:13:29Z</time>
      </trkpt>
      <trkpt lat="50.398162985220551" lon="12.212291015312076">
        <ele>431.29000000000002</ele>
        <time>2013-09-06T12:13:30Z</time>
      </trkpt>
      <trkpt lat="50.398018984124064" lon="12.212242987006903">
        <ele>429.85000000000002</ele>
        <time>2013-09-06T12:13:31Z</time>
      </trkpt>
      <trkpt lat="50.397870037704706" lon="12.212203005328774">
        <ele>429.85000000000002</ele>
        <time>2013-09-06T12:13:32Z</time>
      </trkpt>
      <trkpt lat="50.396556006744504" lon="12.211535973474383">
        <ele>421.68000000000001</ele>
        <time>2013-09-06T12:13:41Z</time>
      </trkpt>
      <trkpt lat="50.39555998519063" lon="12.210489995777607">
        <ele>413.5</ele>
        <time>2013-09-06T12:13:48Z</time>
      </trkpt>
      <trkpt lat="50.395230995491147" lon="12.209548037499189">
        <ele>406.29000000000002</ele>
        <time>2013-09-06T12:13:52Z</time>
      </trkpt>
      <trkpt lat="50.395220015197992" lon="12.209080997854471">
        <ele>404.85000000000002</ele>
        <time>2013-09-06T12:13:53Z</time>
      </trkpt>
      <trkpt lat="50.395268965512514" lon="12.208740022033453">
        <ele>403.41000000000003</ele>
        <time>2013-09-06T12:13:54Z</time>
      </trkpt>
      <trkpt lat="50.395309031009674" lon="12.2083680331707">
        <ele>401.97000000000003</ele>
        <time>2013-09-06T12:13:55Z</time>
      </trkpt>
      <trkpt lat="50.39532202295959" lon="12.208020016551018">
        <ele>400.52999999999997</ele>
        <time>2013-09-06T12:13:56Z</time>
      </trkpt>
      <trkpt lat="50.395329985767603" lon="12.207721034064889">
        <ele>399.56999999999999</ele>
        <time>2013-09-06T12:13:57Z</time>
      </trkpt>
      <trkpt lat="50.395429981872439" lon="12.205395977944136">
        <ele>391.87</ele>
        <time>2013-09-06T12:14:05Z</time>
      </trkpt>
      <trkpt lat="50.395641038194299" lon="12.202593991532922">
        <ele>397.63999999999999</ele>
        <time>2013-09-06T12:14:14Z</time>
      </trkpt>
      <trkpt lat="50.395708009600639" lon="12.202280005440116">
        <ele>397.63999999999999</ele>
        <time>2013-09-06T12:14:15Z</time>
      </trkpt>
      <trkpt lat="50.396292982622981" lon="12.200464988127351">
        <ele>403.88999999999999</ele>
        <time>2013-09-06T12:14:21Z</time>
      </trkpt>
      <trkpt lat="50.39641996845603" lon="12.200211016461253">
        <ele>405.32999999999998</ele>
        <time>2013-09-06T12:14:22Z</time>
      </trkpt>
      <trkpt lat="50.396726997569203" lon="12.199761997908354">
        <ele>405.81</ele>
        <time>2013-09-06T12:14:24Z</time>
      </trkpt>
      <trkpt lat="50.396906035020947" lon="12.199573991820216">
        <ele>405.81</ele>
        <time>2013-09-06T12:14:25Z</time>
      </trkpt>
      <trkpt lat="50.398299023509026" lon="12.198653994128108">
        <ele>405.81</ele>
        <time>2013-09-06T12:14:32Z</time>
      </trkpt>
      <trkpt lat="50.399947995319963" lon="12.197500979527831">
        <ele>408.69999999999999</ele>
        <time>2013-09-06T12:14:41Z</time>
      </trkpt>
      <trkpt lat="50.401133028790355" lon="12.196462964639068">
        <ele>408.69999999999999</ele>
        <time>2013-09-06T12:14:49Z</time>
      </trkpt>
      <trkpt lat="50.401237970218062" lon="12.196309994906187">
        <ele>409.66000000000003</ele>
        <time>2013-09-06T12:14:50Z</time>
      </trkpt>
      <trkpt lat="50.401322962716222" lon="12.196126012131572">
        <ele>408.69999999999999</ele>
        <time>2013-09-06T12:14:51Z</time>
      </trkpt>
      <trkpt lat="50.401379037648439" lon="12.195925014093518">
        <ele>407.74000000000001</ele>
        <time>2013-09-06T12:14:52Z</time>
      </trkpt>
      <trkpt lat="50.401429999619722" lon="12.195699037984014">
        <ele>407.25999999999999</ele>
        <time>2013-09-06T12:14:53Z</time>
      </trkpt>
      <trkpt lat="50.401457995176315" lon="12.195467026904225">
        <ele>407.25999999999999</ele>
        <time>2013-09-06T12:14:54Z</time>
      </trkpt>
      <trkpt lat="50.401480961591005" lon="12.195243984460831">
        <ele>407.25999999999999</ele>
        <time>2013-09-06T12:14:55Z</time>
      </trkpt>
      <trkpt lat="50.401696041226387" lon="12.192437974736094">
        <ele>405.32999999999998</ele>
        <time>2013-09-06T12:15:08Z</time>
      </trkpt>
      <trkpt lat="50.401541981846094" lon="12.190309977158904">
        <ele>402.93000000000001</ele>
        <time>2013-09-06T12:15:18Z</time>
      </trkpt>
      <trkpt lat="50.401370991021395" lon="12.188100004568696">
        <ele>404.37</ele>
        <time>2013-09-06T12:15:29Z</time>
      </trkpt>
      <trkpt lat="50.401436034590006" lon="12.186337960883975">
        <ele>401.97000000000003</ele>
        <time>2013-09-06T12:15:39Z</time>
      </trkpt>
      <trkpt lat="50.401455983519554" lon="12.184918988496065">
        <ele>401.49000000000001</ele>
        <time>2013-09-06T12:15:50Z</time>
      </trkpt>
      <trkpt lat="50.401479033753276" lon="12.184806000441313">
        <ele>401.49000000000001</ele>
        <time>2013-09-06T12:15:51Z</time>
      </trkpt>
      <trkpt lat="50.401529995724559" lon="12.184694018214941">
        <ele>401.97000000000003</ele>
        <time>2013-09-06T12:15:52Z</time>
      </trkpt>
      <trkpt lat="50.401733005419374" lon="12.18432798050344">
        <ele>400.05000000000001</ele>
        <time>2013-09-06T12:15:55Z</time>
      </trkpt>
      <trkpt lat="50.401796959340572" lon="12.184178028255701">
        <ele>399.56999999999999</ele>
        <time>2013-09-06T12:15:56Z</time>
      </trkpt>
      <trkpt lat="50.402107005938888" lon="12.183307986706495">
        <ele>399.07999999999998</ele>
        <time>2013-09-06T12:16:01Z</time>
      </trkpt>
      <trkpt lat="50.402184035629034" lon="12.183135990053415">
        <ele>399.07999999999998</ele>
        <time>2013-09-06T12:16:02Z</time>
      </trkpt>
      <trkpt lat="50.402268022298813" lon="12.182976985350251">
        <ele>399.07999999999998</ele>
        <time>2013-09-06T12:16:03Z</time>
      </trkpt>
      <trkpt lat="50.402359971776605" lon="12.182828038930893">
        <ele>399.07999999999998</ele>
        <time>2013-09-06T12:16:04Z</time>
      </trkpt>
      <trkpt lat="50.402461979538202" lon="12.182674985378981">
        <ele>399.07999999999998</ele>
        <time>2013-09-06T12:16:05Z</time>
      </trkpt>
      <trkpt lat="50.402561975643039" lon="12.182546993717551">
        <ele>398.60000000000002</ele>
        <time>2013-09-06T12:16:06Z</time>
      </trkpt>
      <trkpt lat="50.402668006718159" lon="12.182445991784334">
        <ele>398.60000000000002</ele>
        <time>2013-09-06T12:16:07Z</time>
      </trkpt>
      <trkpt lat="50.402783006429672" lon="12.182364016771317">
        <ele>398.12</ele>
        <time>2013-09-06T12:16:08Z</time>
      </trkpt>
      <trkpt lat="50.402904963120818" lon="12.182294027879834">
        <ele>397.63999999999999</ele>
        <time>2013-09-06T12:16:09Z</time>
      </trkpt>
      <trkpt lat="50.403028009459376" lon="12.182238036766648">
        <ele>397.16000000000003</ele>
        <time>2013-09-06T12:16:10Z</time>
      </trkpt>
      <trkpt lat="50.403154995292425" lon="12.182191014289856">
        <ele>396.68000000000001</ele>
        <time>2013-09-06T12:16:11Z</time>
      </trkpt>
      <trkpt lat="50.403418019413948" lon="12.182144997641444">
        <ele>396.19999999999999</ele>
        <time>2013-09-06T12:16:13Z</time>
      </trkpt>
      <trkpt lat="50.403539976105094" lon="12.182126976549625">
        <ele>395.72000000000003</ele>
        <time>2013-09-06T12:16:14Z</time>
      </trkpt>
      <trkpt lat="50.404635993763804" lon="12.182305008172989">
        <ele>398.12</ele>
        <time>2013-09-06T12:16:23Z</time>
      </trkpt>
      <trkpt lat="50.405605025589466" lon="12.182386983186007">
        <ele>397.16000000000003</ele>
        <time>2013-09-06T12:16:31Z</time>
      </trkpt>
      <trkpt lat="50.40664597414434" lon="12.182193025946617">
        <ele>398.60000000000002</ele>
        <time>2013-09-06T12:16:40Z</time>
      </trkpt>
      <trkpt lat="50.406746976077557" lon="12.182150026783347">
        <ele>398.12</ele>
        <time>2013-09-06T12:16:41Z</time>
      </trkpt>
      <trkpt lat="50.406857030466199" lon="12.182061010971665">
        <ele>398.12</ele>
        <time>2013-09-06T12:16:42Z</time>
      </trkpt>
      <trkpt lat="50.406965995207429" lon="12.181935030966997">
        <ele>398.12</ele>
        <time>2013-09-06T12:16:43Z</time>
      </trkpt>
      <trkpt lat="50.407082000747323" lon="12.181803015992045">
        <ele>400.05000000000001</ele>
        <time>2013-09-06T12:16:44Z</time>
      </trkpt>
      <trkpt lat="50.408168965950608" lon="12.18054598197341">
        <ele>402.93000000000001</ele>
        <time>2013-09-06T12:16:54Z</time>
      </trkpt>
      <trkpt lat="50.408823005855083" lon="12.179818013682961">
        <ele>400.05000000000001</ele>
        <time>2013-09-06T12:17:00Z</time>
      </trkpt>
      <trkpt lat="50.409936960786581" lon="12.179017039015889">
        <ele>400.05000000000001</ele>
        <time>2013-09-06T12:17:10Z</time>
      </trkpt>
      <trkpt lat="50.410020025447011" lon="12.178902039304376">
        <ele>399.56999999999999</ele>
        <time>2013-09-06T12:17:11Z</time>
      </trkpt>
      <trkpt lat="50.410653026774526" lon="12.177580967545509">
        <ele>400.05000000000001</ele>
        <time>2013-09-06T12:17:19Z</time>
      </trkpt>
      <trkpt lat="50.411170022562146" lon="12.176007013767958">
        <ele>403.88999999999999</ele>
        <time>2013-09-06T12:17:28Z</time>
      </trkpt>
      <trkpt lat="50.411553997546434" lon="12.175210984423757">
        <ele>405.32999999999998</ele>
        <time>2013-09-06T12:17:33Z</time>
      </trkpt>
      <trkpt lat="50.411644019186497" lon="12.175086010247469">
        <ele>405.32999999999998</ele>
        <time>2013-09-06T12:17:34Z</time>
      </trkpt>
      <trkpt lat="50.412263022735715" lon="12.174459965899587">
        <ele>403.41000000000003</ele>
        <time>2013-09-06T12:17:42Z</time>
      </trkpt>
      <trkpt lat="50.412612967193127" lon="12.174047995358706">
        <ele>402.44999999999999</ele>
        <time>2013-09-06T12:17:50Z</time>
      </trkpt>
      <trkpt lat="50.412698965519667" lon="12.17386401258409">
        <ele>401.97000000000003</ele>
        <time>2013-09-06T12:17:52Z</time>
      </trkpt>
      <trkpt lat="50.412824023514986" lon="12.17349898070097">
        <ele>402.44999999999999</ele>
        <time>2013-09-06T12:17:55Z</time>
      </trkpt>
      <trkpt lat="50.41285595856607" lon="12.173368977382779">
        <ele>402.44999999999999</ele>
        <time>2013-09-06T12:17:56Z</time>
      </trkpt>
      <trkpt lat="50.412882026284933" lon="12.173232017084956">
        <ele>402.44999999999999</ele>
        <time>2013-09-06T12:17:57Z</time>
      </trkpt>
      <trkpt lat="50.413086041808128" lon="12.171409036964178">
        <ele>393.80000000000001</ele>
        <time>2013-09-06T12:18:10Z</time>
      </trkpt>
      <trkpt lat="50.41313499212265" lon="12.171109970659018">
        <ele>392.36000000000001</ele>
        <time>2013-09-06T12:18:12Z</time>
      </trkpt>
      <trkpt lat="50.413552997633815" lon="12.169927032664418">
        <ele>389.47000000000003</ele>
        <time>2013-09-06T12:18:22Z</time>
      </trkpt>
      <trkpt lat="50.41399204172194" lon="12.168692965060472">
        <ele>384.66000000000003</ele>
        <time>2013-09-06T12:18:30Z</time>
      </trkpt>
      <trkpt lat="50.414083991199732" lon="12.168263979256153">
        <ele>384.66000000000003</ele>
        <time>2013-09-06T12:18:32Z</time>
      </trkpt>
      <trkpt lat="50.414100000634789" lon="12.168045965954661">
        <ele>385.63</ele>
        <time>2013-09-06T12:18:33Z</time>
      </trkpt>
      <trkpt lat="50.414109975099564" lon="12.167830970138311">
        <ele>386.58999999999997</ele>
        <time>2013-09-06T12:18:34Z</time>
      </trkpt>
      <trkpt lat="50.414110980927944" lon="12.167612034827471">
        <ele>387.55000000000001</ele>
        <time>2013-09-06T12:18:35Z</time>
      </trkpt>
      <trkpt lat="50.414097988978028" lon="12.167406007647514">
        <ele>386.58999999999997</ele>
        <time>2013-09-06T12:18:36Z</time>
      </trkpt>
      <trkpt lat="50.41399497538805" lon="12.166569996625185">
        <ele>384.66000000000003</ele>
        <time>2013-09-06T12:18:40Z</time>
      </trkpt>
      <trkpt lat="50.413388041779399" lon="12.165123028680682">
        <ele>390.91000000000003</ele>
        <time>2013-09-06T12:18:48Z</time>
      </trkpt>
      <trkpt lat="50.412280960008502" lon="12.163206003606319">
        <ele>401.49000000000001</ele>
        <time>2013-09-06T12:19:00Z</time>
      </trkpt>
      <trkpt lat="50.412224968895316" lon="12.163028977811337">
        <ele>401.00999999999999</ele>
        <time>2013-09-06T12:19:01Z</time>
      </trkpt>
      <trkpt lat="50.412196973338723" lon="12.162836026400328">
        <ele>399.56999999999999</ele>
        <time>2013-09-06T12:19:02Z</time>
      </trkpt>
      <trkpt lat="50.412198984995484" lon="12.162619018927217">
        <ele>399.07999999999998</ele>
        <time>2013-09-06T12:19:03Z</time>
      </trkpt>
      <trkpt lat="50.412219017744064" lon="12.162392036989331">
        <ele>398.12</ele>
        <time>2013-09-06T12:19:04Z</time>
      </trkpt>
      <trkpt lat="50.412238966673613" lon="12.162170000374317">
        <ele>397.63999999999999</ele>
        <time>2013-09-06T12:19:05Z</time>
      </trkpt>
      <trkpt lat="50.412653032690287" lon="12.15955501422286">
        <ele>389.47000000000003</ele>
        <time>2013-09-06T12:19:17Z</time>
      </trkpt>
      <trkpt lat="50.413406984880567" lon="12.156829973682761">
        <ele>388.02999999999997</ele>
        <time>2013-09-06T12:19:29Z</time>
      </trkpt>
      <trkpt lat="50.413763970136642" lon="12.155594984069467">
        <ele>388.50999999999999</ele>
        <time>2013-09-06T12:19:34Z</time>
      </trkpt>
      <trkpt lat="50.413807975128293" lon="12.155330032110214">
        <ele>388.50999999999999</ele>
        <time>2013-09-06T12:19:35Z</time>
      </trkpt>
      <trkpt lat="50.413844017311931" lon="12.155072037130594">
        <ele>388.99000000000001</ele>
        <time>2013-09-06T12:19:36Z</time>
      </trkpt>
      <trkpt lat="50.413858015090227" lon="12.154802978038788">
        <ele>388.02999999999997</ele>
        <time>2013-09-06T12:19:37Z</time>
      </trkpt>
      <trkpt lat="50.413866983726621" lon="12.154535008594394">
        <ele>388.02999999999997</ele>
        <time>2013-09-06T12:19:38Z</time>
      </trkpt>
      <trkpt lat="50.413874024525285" lon="12.154268966987729">
        <ele>389.47000000000003</ele>
        <time>2013-09-06T12:19:39Z</time>
      </trkpt>
      <trkpt lat="50.413903025910258" lon="12.151635037735105">
        <ele>393.31999999999999</ele>
        <time>2013-09-06T12:19:49Z</time>
      </trkpt>
      <trkpt lat="50.413959017023444" lon="12.151408977806568">
        <ele>393.80000000000001</ele>
        <time>2013-09-06T12:19:50Z</time>
      </trkpt>
      <trkpt lat="50.414031017571688" lon="12.151195993646979">
        <ele>394.27999999999997</ele>
        <time>2013-09-06T12:19:51Z</time>
      </trkpt>
      <trkpt lat="50.414109975099564" lon="12.150994995608926">
        <ele>393.80000000000001</ele>
        <time>2013-09-06T12:19:52Z</time>
      </trkpt>
      <trkpt lat="50.414208965376019" lon="12.150813024491072">
        <ele>394.75999999999999</ele>
        <time>2013-09-06T12:19:53Z</time>
      </trkpt>
      <trkpt lat="50.414318013936281" lon="12.150634992867708">
        <ele>395.24000000000001</ele>
        <time>2013-09-06T12:19:54Z</time>
      </trkpt>
      <trkpt lat="50.414434019476175" lon="12.150482023134828">
        <ele>395.24000000000001</ele>
        <time>2013-09-06T12:19:55Z</time>
      </trkpt>
      <trkpt lat="50.414564022794366" lon="12.150351013988256">
        <ele>395.72000000000003</ele>
        <time>2013-09-06T12:19:56Z</time>
      </trkpt>
      <trkpt lat="50.414706012234092" lon="12.150232996791601">
        <ele>395.72000000000003</ele>
        <time>2013-09-06T12:19:57Z</time>
      </trkpt>
      <trkpt lat="50.414851019158959" lon="12.150140963494778">
        <ele>396.19999999999999</ele>
        <time>2013-09-06T12:19:58Z</time>
      </trkpt>
      <trkpt lat="50.415004994720221" lon="12.150070974603295">
        <ele>397.16000000000003</ele>
        <time>2013-09-06T12:19:59Z</time>
      </trkpt>
      <trkpt lat="50.415169028565288" lon="12.150018000975251">
        <ele>397.16000000000003</ele>
        <time>2013-09-06T12:20:00Z</time>
      </trkpt>
      <trkpt lat="50.415334990248084" lon="12.149985982105136">
        <ele>396.68000000000001</ele>
        <time>2013-09-06T12:20:01Z</time>
      </trkpt>
      <trkpt lat="50.415500029921532" lon="12.149962009862065">
        <ele>396.19999999999999</ele>
        <time>2013-09-06T12:20:02Z</time>
      </trkpt>
    </trkseg>
  </trk>

</gpx>
